<?xml version="1.0" encoding="UTF-8" standalone="no" ?>
<gpx xmlns="http://www.topografix.com/GPX/1/1" xmlns:xsi="http://www.w3.org/2001/XMLSchema-instance" xsi:schemaLocation="http://www.topografix.com/GPX/1/1 http://www.topografix.com/GPX/1/1/gpx.xsd" version="1.1" creator="VisuGPX - https://www.visugpx.com">
  <metadata>
    <name>Vers Pont de Dorieux</name>
  </metadata>
  <trk>
    <name><![CDATA[Enregistré le 30 sept. 2022 14:12:03]]></name>
    <trkseg>
      <trkpt lat="45.83354" lon="4.70876">
        <ele>276.8674</ele>
        <time>2022-09-30T12:12:08.000Z</time>
      </trkpt>
      <trkpt lat="45.83354" lon="4.70867">
        <ele>279.31848</ele>
        <time>2022-09-30T12:12:13.000Z</time>
      </trkpt>
      <trkpt lat="45.83351" lon="4.70863">
        <ele>281.12021</ele>
        <time>2022-09-30T12:12:14.000Z</time>
      </trkpt>
      <trkpt lat="45.8335" lon="4.70859">
        <ele>282.20987</ele>
        <time>2022-09-30T12:12:15.000Z</time>
      </trkpt>
      <trkpt lat="45.83348" lon="4.70857">
        <ele>282.75348</ele>
        <time>2022-09-30T12:12:16.000Z</time>
      </trkpt>
      <trkpt lat="45.83346" lon="4.70855">
        <ele>283.32431</ele>
        <time>2022-09-30T12:12:17.000Z</time>
      </trkpt>
      <trkpt lat="45.83346" lon="4.70851">
        <ele>284.00613</ele>
        <time>2022-09-30T12:12:18.000Z</time>
      </trkpt>
      <trkpt lat="45.83345" lon="4.70845">
        <ele>284.72986</ele>
        <time>2022-09-30T12:12:19.000Z</time>
      </trkpt>
      <trkpt lat="45.83346" lon="4.70839">
        <ele>285.38733</ele>
        <time>2022-09-30T12:12:20.000Z</time>
      </trkpt>
      <trkpt lat="45.83347" lon="4.70833">
        <ele>286.12579</ele>
        <time>2022-09-30T12:12:21.000Z</time>
      </trkpt>
      <trkpt lat="45.83347" lon="4.70826">
        <ele>286.66678</ele>
        <time>2022-09-30T12:12:22.000Z</time>
      </trkpt>
      <trkpt lat="45.83347" lon="4.70818">
        <ele>286.99152</ele>
        <time>2022-09-30T12:12:23.000Z</time>
      </trkpt>
      <trkpt lat="45.83346" lon="4.7081">
        <ele>287.31223</ele>
        <time>2022-09-30T12:12:24.000Z</time>
      </trkpt>
      <trkpt lat="45.83345" lon="4.70803">
        <ele>287.61551</ele>
        <time>2022-09-30T12:12:25.000Z</time>
      </trkpt>
      <trkpt lat="45.83347" lon="4.70794">
        <ele>287.76639</ele>
        <time>2022-09-30T12:12:26.000Z</time>
      </trkpt>
      <trkpt lat="45.83347" lon="4.70787">
        <ele>288.02444</ele>
        <time>2022-09-30T12:12:27.000Z</time>
      </trkpt>
      <trkpt lat="45.83348" lon="4.70778">
        <ele>288.34564</ele>
        <time>2022-09-30T12:12:28.000Z</time>
      </trkpt>
      <trkpt lat="45.83349" lon="4.7077">
        <ele>288.63547</ele>
        <time>2022-09-30T12:12:29.000Z</time>
      </trkpt>
      <trkpt lat="45.83349" lon="4.70765">
        <ele>288.96161</ele>
        <time>2022-09-30T12:12:30.000Z</time>
      </trkpt>
      <trkpt lat="45.8335" lon="4.70759">
        <ele>289.25049</ele>
        <time>2022-09-30T12:12:31.000Z</time>
      </trkpt>
      <trkpt lat="45.8335" lon="4.70752">
        <ele>290.14157</ele>
        <time>2022-09-30T12:12:32.000Z</time>
      </trkpt>
      <trkpt lat="45.8335" lon="4.70745">
        <ele>290.75995</ele>
        <time>2022-09-30T12:12:33.000Z</time>
      </trkpt>
      <trkpt lat="45.8335" lon="4.7074">
        <ele>291.26956</ele>
        <time>2022-09-30T12:12:34.000Z</time>
      </trkpt>
      <trkpt lat="45.83351" lon="4.70736">
        <ele>291.71463</ele>
        <time>2022-09-30T12:12:35.000Z</time>
      </trkpt>
      <trkpt lat="45.83352" lon="4.70729">
        <ele>292.16449</ele>
        <time>2022-09-30T12:12:36.000Z</time>
      </trkpt>
      <trkpt lat="45.83351" lon="4.70727">
        <ele>292.53024</ele>
        <time>2022-09-30T12:12:37.000Z</time>
      </trkpt>
      <trkpt lat="45.83351" lon="4.7072">
        <ele>292.87311</ele>
        <time>2022-09-30T12:12:38.000Z</time>
      </trkpt>
      <trkpt lat="45.8335" lon="4.70717">
        <ele>293.10275</ele>
        <time>2022-09-30T12:12:39.000Z</time>
      </trkpt>
      <trkpt lat="45.8335" lon="4.7071">
        <ele>293.29111</ele>
        <time>2022-09-30T12:12:40.000Z</time>
      </trkpt>
      <trkpt lat="45.83352" lon="4.70702">
        <ele>293.42847</ele>
        <time>2022-09-30T12:12:41.000Z</time>
      </trkpt>
      <trkpt lat="45.83351" lon="4.70693">
        <ele>293.52148</ele>
        <time>2022-09-30T12:12:43.000Z</time>
      </trkpt>
      <trkpt lat="45.83353" lon="4.70686">
        <ele>293.70856</ele>
        <time>2022-09-30T12:12:44.000Z</time>
      </trkpt>
      <trkpt lat="45.83353" lon="4.70679">
        <ele>293.9502</ele>
        <time>2022-09-30T12:12:45.000Z</time>
      </trkpt>
      <trkpt lat="45.83354" lon="4.7067">
        <ele>294.23727</ele>
        <time>2022-09-30T12:12:46.000Z</time>
      </trkpt>
      <trkpt lat="45.83354" lon="4.70658">
        <ele>294.64569</ele>
        <time>2022-09-30T12:12:47.000Z</time>
      </trkpt>
      <trkpt lat="45.83354" lon="4.7065">
        <ele>294.98138</ele>
        <time>2022-09-30T12:12:48.000Z</time>
      </trkpt>
      <trkpt lat="45.83356" lon="4.70637">
        <ele>295.27945</ele>
        <time>2022-09-30T12:12:49.000Z</time>
      </trkpt>
      <trkpt lat="45.83357" lon="4.70627">
        <ele>295.60001</ele>
        <time>2022-09-30T12:12:50.000Z</time>
      </trkpt>
      <trkpt lat="45.83359" lon="4.70617">
        <ele>295.88364</ele>
        <time>2022-09-30T12:12:51.000Z</time>
      </trkpt>
      <trkpt lat="45.83358" lon="4.70609">
        <ele>296.17664</ele>
        <time>2022-09-30T12:12:52.000Z</time>
      </trkpt>
      <trkpt lat="45.83358" lon="4.70601">
        <ele>296.48422</ele>
        <time>2022-09-30T12:12:53.000Z</time>
      </trkpt>
      <trkpt lat="45.83357" lon="4.70592">
        <ele>296.81946</ele>
        <time>2022-09-30T12:12:54.000Z</time>
      </trkpt>
      <trkpt lat="45.83356" lon="4.70584">
        <ele>297.11557</ele>
        <time>2022-09-30T12:12:55.000Z</time>
      </trkpt>
      <trkpt lat="45.83355" lon="4.70576">
        <ele>297.43271</ele>
        <time>2022-09-30T12:12:56.000Z</time>
      </trkpt>
      <trkpt lat="45.8336" lon="4.70562">
        <ele>297.68451</ele>
        <time>2022-09-30T12:12:57.000Z</time>
      </trkpt>
      <trkpt lat="45.83358" lon="4.70553">
        <ele>297.99051</ele>
        <time>2022-09-30T12:12:58.000Z</time>
      </trkpt>
      <trkpt lat="45.83356" lon="4.70543">
        <ele>298.23572</ele>
        <time>2022-09-30T12:12:59.000Z</time>
      </trkpt>
      <trkpt lat="45.83354" lon="4.70533">
        <ele>298.49234</ele>
        <time>2022-09-30T12:13:00.000Z</time>
      </trkpt>
      <trkpt lat="45.83353" lon="4.70525">
        <ele>298.7294</ele>
        <time>2022-09-30T12:13:01.000Z</time>
      </trkpt>
      <trkpt lat="45.83348" lon="4.70506">
        <ele>299.0174</ele>
        <time>2022-09-30T12:13:03.000Z</time>
      </trkpt>
      <trkpt lat="45.83346" lon="4.70497">
        <ele>299.36212</ele>
        <time>2022-09-30T12:13:04.000Z</time>
      </trkpt>
      <trkpt lat="45.83346" lon="4.70489">
        <ele>299.69254</ele>
        <time>2022-09-30T12:13:05.000Z</time>
      </trkpt>
      <trkpt lat="45.83343" lon="4.7048">
        <ele>299.96338</ele>
        <time>2022-09-30T12:13:06.000Z</time>
      </trkpt>
      <trkpt lat="45.83343" lon="4.70471">
        <ele>300.21661</ele>
        <time>2022-09-30T12:13:07.000Z</time>
      </trkpt>
      <trkpt lat="45.8334" lon="4.70463">
        <ele>300.47525</ele>
        <time>2022-09-30T12:13:08.000Z</time>
      </trkpt>
      <trkpt lat="45.83339" lon="4.70453">
        <ele>300.7049</ele>
        <time>2022-09-30T12:13:09.000Z</time>
      </trkpt>
      <trkpt lat="45.83338" lon="4.70443">
        <ele>300.9227</ele>
        <time>2022-09-30T12:13:10.000Z</time>
      </trkpt>
      <trkpt lat="45.83338" lon="4.70434">
        <ele>301.08408</ele>
        <time>2022-09-30T12:13:11.000Z</time>
      </trkpt>
      <trkpt lat="45.83335" lon="4.70427">
        <ele>301.24036</ele>
        <time>2022-09-30T12:13:12.000Z</time>
      </trkpt>
      <trkpt lat="45.83335" lon="4.70419">
        <ele>301.38174</ele>
        <time>2022-09-30T12:13:13.000Z</time>
      </trkpt>
      <trkpt lat="45.83335" lon="4.70408">
        <ele>301.52502</ele>
        <time>2022-09-30T12:13:14.000Z</time>
      </trkpt>
      <trkpt lat="45.83333" lon="4.70401">
        <ele>301.62567</ele>
        <time>2022-09-30T12:13:15.000Z</time>
      </trkpt>
      <trkpt lat="45.83332" lon="4.70392">
        <ele>301.716</ele>
        <time>2022-09-30T12:13:16.000Z</time>
      </trkpt>
      <trkpt lat="45.83332" lon="4.70384">
        <ele>301.77539</ele>
        <time>2022-09-30T12:13:17.000Z</time>
      </trkpt>
      <trkpt lat="45.8333" lon="4.70375">
        <ele>301.92117</ele>
        <time>2022-09-30T12:13:18.000Z</time>
      </trkpt>
      <trkpt lat="45.83329" lon="4.70366">
        <ele>302.0274</ele>
        <time>2022-09-30T12:13:19.000Z</time>
      </trkpt>
      <trkpt lat="45.83327" lon="4.70359">
        <ele>302.17365</ele>
        <time>2022-09-30T12:13:20.000Z</time>
      </trkpt>
      <trkpt lat="45.83327" lon="4.70352">
        <ele>302.30057</ele>
        <time>2022-09-30T12:13:21.000Z</time>
      </trkpt>
      <trkpt lat="45.83324" lon="4.70346">
        <ele>302.43152</ele>
        <time>2022-09-30T12:13:22.000Z</time>
      </trkpt>
      <trkpt lat="45.83323" lon="4.70339">
        <ele>302.49384</ele>
        <time>2022-09-30T12:13:23.000Z</time>
      </trkpt>
      <trkpt lat="45.83323" lon="4.70331">
        <ele>302.61508</ele>
        <time>2022-09-30T12:13:24.000Z</time>
      </trkpt>
      <trkpt lat="45.83326" lon="4.70324">
        <ele>302.76724</ele>
        <time>2022-09-30T12:13:25.000Z</time>
      </trkpt>
      <trkpt lat="45.83329" lon="4.70314">
        <ele>302.89316</ele>
        <time>2022-09-30T12:13:26.000Z</time>
      </trkpt>
      <trkpt lat="45.83331" lon="4.70307">
        <ele>302.95236</ele>
        <time>2022-09-30T12:13:27.000Z</time>
      </trkpt>
      <trkpt lat="45.83334" lon="4.703">
        <ele>302.94788</ele>
        <time>2022-09-30T12:13:28.000Z</time>
      </trkpt>
      <trkpt lat="45.83337" lon="4.70292">
        <ele>302.93872</ele>
        <time>2022-09-30T12:13:29.000Z</time>
      </trkpt>
      <trkpt lat="45.83341" lon="4.70284">
        <ele>302.8548</ele>
        <time>2022-09-30T12:13:30.000Z</time>
      </trkpt>
      <trkpt lat="45.83345" lon="4.70277">
        <ele>302.74554</ele>
        <time>2022-09-30T12:13:31.000Z</time>
      </trkpt>
      <trkpt lat="45.83348" lon="4.70268">
        <ele>302.66895</ele>
        <time>2022-09-30T12:13:32.000Z</time>
      </trkpt>
      <trkpt lat="45.8335" lon="4.70261">
        <ele>302.60199</ele>
        <time>2022-09-30T12:13:33.000Z</time>
      </trkpt>
      <trkpt lat="45.83352" lon="4.70253">
        <ele>302.57178</ele>
        <time>2022-09-30T12:13:34.000Z</time>
      </trkpt>
      <trkpt lat="45.83356" lon="4.70245">
        <ele>302.56088</ele>
        <time>2022-09-30T12:13:35.000Z</time>
      </trkpt>
      <trkpt lat="45.8336" lon="4.70238">
        <ele>302.54553</ele>
        <time>2022-09-30T12:13:36.000Z</time>
      </trkpt>
      <trkpt lat="45.83362" lon="4.7023">
        <ele>302.60574</ele>
        <time>2022-09-30T12:13:37.000Z</time>
      </trkpt>
      <trkpt lat="45.83365" lon="4.70221">
        <ele>302.6723</ele>
        <time>2022-09-30T12:13:38.000Z</time>
      </trkpt>
      <trkpt lat="45.83367" lon="4.70212">
        <ele>302.76569</ele>
        <time>2022-09-30T12:13:39.000Z</time>
      </trkpt>
      <trkpt lat="45.83369" lon="4.70204">
        <ele>302.81564</ele>
        <time>2022-09-30T12:13:40.000Z</time>
      </trkpt>
      <trkpt lat="45.83372" lon="4.70196">
        <ele>302.96625</ele>
        <time>2022-09-30T12:13:41.000Z</time>
      </trkpt>
      <trkpt lat="45.83374" lon="4.70188">
        <ele>303.12811</ele>
        <time>2022-09-30T12:13:42.000Z</time>
      </trkpt>
      <trkpt lat="45.83376" lon="4.70179">
        <ele>303.30679</ele>
        <time>2022-09-30T12:13:43.000Z</time>
      </trkpt>
      <trkpt lat="45.83378" lon="4.70171">
        <ele>303.4184</ele>
        <time>2022-09-30T12:13:44.000Z</time>
      </trkpt>
      <trkpt lat="45.8338" lon="4.70162">
        <ele>303.4754</ele>
        <time>2022-09-30T12:13:45.000Z</time>
      </trkpt>
      <trkpt lat="45.83382" lon="4.70154">
        <ele>303.50998</ele>
        <time>2022-09-30T12:13:46.000Z</time>
      </trkpt>
      <trkpt lat="45.83385" lon="4.70145">
        <ele>303.54431</ele>
        <time>2022-09-30T12:13:47.000Z</time>
      </trkpt>
      <trkpt lat="45.83387" lon="4.70137">
        <ele>303.59222</ele>
        <time>2022-09-30T12:13:48.000Z</time>
      </trkpt>
      <trkpt lat="45.83389" lon="4.70129">
        <ele>303.61621</ele>
        <time>2022-09-30T12:13:49.000Z</time>
      </trkpt>
      <trkpt lat="45.83391" lon="4.70121">
        <ele>303.6795</ele>
        <time>2022-09-30T12:13:50.000Z</time>
      </trkpt>
      <trkpt lat="45.83391" lon="4.70113">
        <ele>303.81232</ele>
        <time>2022-09-30T12:13:51.000Z</time>
      </trkpt>
      <trkpt lat="45.83393" lon="4.70104">
        <ele>303.85226</ele>
        <time>2022-09-30T12:13:52.000Z</time>
      </trkpt>
      <trkpt lat="45.83395" lon="4.70095">
        <ele>303.84769</ele>
        <time>2022-09-30T12:13:53.000Z</time>
      </trkpt>
      <trkpt lat="45.83396" lon="4.70085">
        <ele>303.80634</ele>
        <time>2022-09-30T12:13:54.000Z</time>
      </trkpt>
      <trkpt lat="45.83397" lon="4.70076">
        <ele>303.75888</ele>
        <time>2022-09-30T12:13:55.000Z</time>
      </trkpt>
      <trkpt lat="45.83398" lon="4.70066">
        <ele>303.71161</ele>
        <time>2022-09-30T12:13:56.000Z</time>
      </trkpt>
      <trkpt lat="45.83399" lon="4.70056">
        <ele>303.60864</ele>
        <time>2022-09-30T12:13:57.000Z</time>
      </trkpt>
      <trkpt lat="45.83399" lon="4.70047">
        <ele>303.48517</ele>
        <time>2022-09-30T12:13:58.000Z</time>
      </trkpt>
      <trkpt lat="45.834" lon="4.70036">
        <ele>303.2706</ele>
        <time>2022-09-30T12:13:59.000Z</time>
      </trkpt>
      <trkpt lat="45.83402" lon="4.70026">
        <ele>303.10718</ele>
        <time>2022-09-30T12:14:00.000Z</time>
      </trkpt>
      <trkpt lat="45.83403" lon="4.70016">
        <ele>302.83978</ele>
        <time>2022-09-30T12:14:01.000Z</time>
      </trkpt>
      <trkpt lat="45.83405" lon="4.70004">
        <ele>302.50851</ele>
        <time>2022-09-30T12:14:02.000Z</time>
      </trkpt>
      <trkpt lat="45.83405" lon="4.69994">
        <ele>302.12265</ele>
        <time>2022-09-30T12:14:03.000Z</time>
      </trkpt>
      <trkpt lat="45.83405" lon="4.69985">
        <ele>301.75189</ele>
        <time>2022-09-30T12:14:04.000Z</time>
      </trkpt>
      <trkpt lat="45.83406" lon="4.69976">
        <ele>301.37061</ele>
        <time>2022-09-30T12:14:05.000Z</time>
      </trkpt>
      <trkpt lat="45.83406" lon="4.69969">
        <ele>300.99741</ele>
        <time>2022-09-30T12:14:06.000Z</time>
      </trkpt>
      <trkpt lat="45.83408" lon="4.69959">
        <ele>300.64377</ele>
        <time>2022-09-30T12:14:07.000Z</time>
      </trkpt>
      <trkpt lat="45.8341" lon="4.69951">
        <ele>300.34735</ele>
        <time>2022-09-30T12:14:08.000Z</time>
      </trkpt>
      <trkpt lat="45.83412" lon="4.69943">
        <ele>300.07944</ele>
        <time>2022-09-30T12:14:09.000Z</time>
      </trkpt>
      <trkpt lat="45.83411" lon="4.69935">
        <ele>299.83536</ele>
        <time>2022-09-30T12:14:10.000Z</time>
      </trkpt>
      <trkpt lat="45.8341" lon="4.69927">
        <ele>299.5567</ele>
        <time>2022-09-30T12:14:11.000Z</time>
      </trkpt>
      <trkpt lat="45.83408" lon="4.6992">
        <ele>299.26862</ele>
        <time>2022-09-30T12:14:12.000Z</time>
      </trkpt>
      <trkpt lat="45.83405" lon="4.69914">
        <ele>299.03564</ele>
        <time>2022-09-30T12:14:13.000Z</time>
      </trkpt>
      <trkpt lat="45.83401" lon="4.69908">
        <ele>298.81952</ele>
        <time>2022-09-30T12:14:14.000Z</time>
      </trkpt>
      <trkpt lat="45.83399" lon="4.69904">
        <ele>298.55515</ele>
        <time>2022-09-30T12:14:15.000Z</time>
      </trkpt>
      <trkpt lat="45.83394" lon="4.69899">
        <ele>298.3345</ele>
        <time>2022-09-30T12:14:16.000Z</time>
      </trkpt>
      <trkpt lat="45.83395" lon="4.69893">
        <ele>298.103</ele>
        <time>2022-09-30T12:14:17.000Z</time>
      </trkpt>
      <trkpt lat="45.83394" lon="4.69888">
        <ele>297.87689</ele>
        <time>2022-09-30T12:14:18.000Z</time>
      </trkpt>
      <trkpt lat="45.83396" lon="4.69883">
        <ele>297.75027</ele>
        <time>2022-09-30T12:14:19.000Z</time>
      </trkpt>
      <trkpt lat="45.83397" lon="4.69879">
        <ele>297.57455</ele>
        <time>2022-09-30T12:14:20.000Z</time>
      </trkpt>
      <trkpt lat="45.83398" lon="4.69875">
        <ele>297.39413</ele>
        <time>2022-09-30T12:14:21.000Z</time>
      </trkpt>
      <trkpt lat="45.83398" lon="4.69872">
        <ele>297.30035</ele>
        <time>2022-09-30T12:14:22.000Z</time>
      </trkpt>
      <trkpt lat="45.834" lon="4.69866">
        <ele>297.1553</ele>
        <time>2022-09-30T12:14:24.000Z</time>
      </trkpt>
      <trkpt lat="45.83402" lon="4.69861">
        <ele>297.01382</ele>
        <time>2022-09-30T12:14:25.000Z</time>
      </trkpt>
      <trkpt lat="45.834" lon="4.69854">
        <ele>296.90866</ele>
        <time>2022-09-30T12:14:26.000Z</time>
      </trkpt>
      <trkpt lat="45.83399" lon="4.69848">
        <ele>296.84711</ele>
        <time>2022-09-30T12:14:27.000Z</time>
      </trkpt>
      <trkpt lat="45.83398" lon="4.69843">
        <ele>296.73962</ele>
        <time>2022-09-30T12:14:28.000Z</time>
      </trkpt>
      <trkpt lat="45.83395" lon="4.69836">
        <ele>296.65417</ele>
        <time>2022-09-30T12:14:29.000Z</time>
      </trkpt>
      <trkpt lat="45.83393" lon="4.69831">
        <ele>296.53717</ele>
        <time>2022-09-30T12:14:30.000Z</time>
      </trkpt>
      <trkpt lat="45.83392" lon="4.69823">
        <ele>296.44427</ele>
        <time>2022-09-30T12:14:31.000Z</time>
      </trkpt>
      <trkpt lat="45.8339" lon="4.69815">
        <ele>296.42068</ele>
        <time>2022-09-30T12:14:32.000Z</time>
      </trkpt>
      <trkpt lat="45.83388" lon="4.6981">
        <ele>296.43365</ele>
        <time>2022-09-30T12:14:33.000Z</time>
      </trkpt>
      <trkpt lat="45.83386" lon="4.69802">
        <ele>296.43539</ele>
        <time>2022-09-30T12:14:34.000Z</time>
      </trkpt>
      <trkpt lat="45.83386" lon="4.69793">
        <ele>296.39731</ele>
        <time>2022-09-30T12:14:35.000Z</time>
      </trkpt>
      <trkpt lat="45.83383" lon="4.69786">
        <ele>296.48505</ele>
        <time>2022-09-30T12:14:36.000Z</time>
      </trkpt>
      <trkpt lat="45.83381" lon="4.69778">
        <ele>296.57272</ele>
        <time>2022-09-30T12:14:37.000Z</time>
      </trkpt>
      <trkpt lat="45.83379" lon="4.69769">
        <ele>296.74478</ele>
        <time>2022-09-30T12:14:38.000Z</time>
      </trkpt>
      <trkpt lat="45.83378" lon="4.6976">
        <ele>296.94736</ele>
        <time>2022-09-30T12:14:39.000Z</time>
      </trkpt>
      <trkpt lat="45.83378" lon="4.6975">
        <ele>297.10101</ele>
        <time>2022-09-30T12:14:40.000Z</time>
      </trkpt>
      <trkpt lat="45.83376" lon="4.69743">
        <ele>297.22855</ele>
        <time>2022-09-30T12:14:41.000Z</time>
      </trkpt>
      <trkpt lat="45.83374" lon="4.69734">
        <ele>297.47934</ele>
        <time>2022-09-30T12:14:42.000Z</time>
      </trkpt>
      <trkpt lat="45.83372" lon="4.69727">
        <ele>297.6897</ele>
        <time>2022-09-30T12:14:43.000Z</time>
      </trkpt>
      <trkpt lat="45.83371" lon="4.6972">
        <ele>297.87531</ele>
        <time>2022-09-30T12:14:44.000Z</time>
      </trkpt>
      <trkpt lat="45.83369" lon="4.69715">
        <ele>298.02881</ele>
        <time>2022-09-30T12:14:45.000Z</time>
      </trkpt>
      <trkpt lat="45.83369" lon="4.69705">
        <ele>298.11029</ele>
        <time>2022-09-30T12:14:46.000Z</time>
      </trkpt>
      <trkpt lat="45.83368" lon="4.69697">
        <ele>298.16705</ele>
        <time>2022-09-30T12:14:47.000Z</time>
      </trkpt>
      <trkpt lat="45.83367" lon="4.69687">
        <ele>298.26685</ele>
        <time>2022-09-30T12:14:48.000Z</time>
      </trkpt>
      <trkpt lat="45.83365" lon="4.69678">
        <ele>298.32343</ele>
        <time>2022-09-30T12:14:49.000Z</time>
      </trkpt>
      <trkpt lat="45.83364" lon="4.69668">
        <ele>298.41071</ele>
        <time>2022-09-30T12:14:50.000Z</time>
      </trkpt>
      <trkpt lat="45.83362" lon="4.69661">
        <ele>298.45148</ele>
        <time>2022-09-30T12:14:51.000Z</time>
      </trkpt>
      <trkpt lat="45.8336" lon="4.69653">
        <ele>298.47202</ele>
        <time>2022-09-30T12:14:52.000Z</time>
      </trkpt>
      <trkpt lat="45.83359" lon="4.69645">
        <ele>298.49649</ele>
        <time>2022-09-30T12:14:53.000Z</time>
      </trkpt>
      <trkpt lat="45.83357" lon="4.69637">
        <ele>298.55719</ele>
        <time>2022-09-30T12:14:54.000Z</time>
      </trkpt>
      <trkpt lat="45.83356" lon="4.69629">
        <ele>298.64557</ele>
        <time>2022-09-30T12:14:55.000Z</time>
      </trkpt>
      <trkpt lat="45.83353" lon="4.69623">
        <ele>298.7131</ele>
        <time>2022-09-30T12:14:56.000Z</time>
      </trkpt>
      <trkpt lat="45.83351" lon="4.69616">
        <ele>298.72211</ele>
        <time>2022-09-30T12:14:57.000Z</time>
      </trkpt>
      <trkpt lat="45.8335" lon="4.69606">
        <ele>298.69885</ele>
        <time>2022-09-30T12:14:58.000Z</time>
      </trkpt>
      <trkpt lat="45.83349" lon="4.69597">
        <ele>298.62445</ele>
        <time>2022-09-30T12:14:59.000Z</time>
      </trkpt>
      <trkpt lat="45.83348" lon="4.69589">
        <ele>298.5488</ele>
        <time>2022-09-30T12:15:00.000Z</time>
      </trkpt>
      <trkpt lat="45.83347" lon="4.6958">
        <ele>298.48767</ele>
        <time>2022-09-30T12:15:01.000Z</time>
      </trkpt>
      <trkpt lat="45.83347" lon="4.69571">
        <ele>298.3089</ele>
        <time>2022-09-30T12:15:02.000Z</time>
      </trkpt>
      <trkpt lat="45.83345" lon="4.69564">
        <ele>298.22113</ele>
        <time>2022-09-30T12:15:03.000Z</time>
      </trkpt>
      <trkpt lat="45.83342" lon="4.69557">
        <ele>298.27478</ele>
        <time>2022-09-30T12:15:04.000Z</time>
      </trkpt>
      <trkpt lat="45.8334" lon="4.6955">
        <ele>298.42017</ele>
        <time>2022-09-30T12:15:05.000Z</time>
      </trkpt>
      <trkpt lat="45.83339" lon="4.69541">
        <ele>298.66788</ele>
        <time>2022-09-30T12:15:06.000Z</time>
      </trkpt>
      <trkpt lat="45.83338" lon="4.69533">
        <ele>298.92303</ele>
        <time>2022-09-30T12:15:07.000Z</time>
      </trkpt>
      <trkpt lat="45.83337" lon="4.69524">
        <ele>299.19223</ele>
        <time>2022-09-30T12:15:08.000Z</time>
      </trkpt>
      <trkpt lat="45.83337" lon="4.69515">
        <ele>299.42957</ele>
        <time>2022-09-30T12:15:09.000Z</time>
      </trkpt>
      <trkpt lat="45.83335" lon="4.69507">
        <ele>299.70724</ele>
        <time>2022-09-30T12:15:10.000Z</time>
      </trkpt>
      <trkpt lat="45.83335" lon="4.69497">
        <ele>299.94516</ele>
        <time>2022-09-30T12:15:11.000Z</time>
      </trkpt>
      <trkpt lat="45.83333" lon="4.6949">
        <ele>300.23761</ele>
        <time>2022-09-30T12:15:12.000Z</time>
      </trkpt>
      <trkpt lat="45.83334" lon="4.69482">
        <ele>300.54541</ele>
        <time>2022-09-30T12:15:13.000Z</time>
      </trkpt>
      <trkpt lat="45.83334" lon="4.69476">
        <ele>300.82605</ele>
        <time>2022-09-30T12:15:14.000Z</time>
      </trkpt>
      <trkpt lat="45.83336" lon="4.69466">
        <ele>301.04681</ele>
        <time>2022-09-30T12:15:15.000Z</time>
      </trkpt>
      <trkpt lat="45.83339" lon="4.69454">
        <ele>301.19019</ele>
        <time>2022-09-30T12:15:16.000Z</time>
      </trkpt>
      <trkpt lat="45.83341" lon="4.69444">
        <ele>301.35638</ele>
        <time>2022-09-30T12:15:17.000Z</time>
      </trkpt>
      <trkpt lat="45.83339" lon="4.69439">
        <ele>301.53394</ele>
        <time>2022-09-30T12:15:18.000Z</time>
      </trkpt>
      <trkpt lat="45.83341" lon="4.69432">
        <ele>301.71854</ele>
        <time>2022-09-30T12:15:19.000Z</time>
      </trkpt>
      <trkpt lat="45.83344" lon="4.69422">
        <ele>301.97894</ele>
        <time>2022-09-30T12:15:20.000Z</time>
      </trkpt>
      <trkpt lat="45.83344" lon="4.69416">
        <ele>302.27899</ele>
        <time>2022-09-30T12:15:21.000Z</time>
      </trkpt>
      <trkpt lat="45.83346" lon="4.69408">
        <ele>302.59467</ele>
        <time>2022-09-30T12:15:22.000Z</time>
      </trkpt>
      <trkpt lat="45.83347" lon="4.69401">
        <ele>302.84299</ele>
        <time>2022-09-30T12:15:23.000Z</time>
      </trkpt>
      <trkpt lat="45.83348" lon="4.69392">
        <ele>303.03653</ele>
        <time>2022-09-30T12:15:24.000Z</time>
      </trkpt>
      <trkpt lat="45.8335" lon="4.69382">
        <ele>303.17123</ele>
        <time>2022-09-30T12:15:25.000Z</time>
      </trkpt>
      <trkpt lat="45.8335" lon="4.69374">
        <ele>303.28</ele>
        <time>2022-09-30T12:15:26.000Z</time>
      </trkpt>
      <trkpt lat="45.83351" lon="4.69365">
        <ele>303.36896</ele>
        <time>2022-09-30T12:15:27.000Z</time>
      </trkpt>
      <trkpt lat="45.83351" lon="4.69357">
        <ele>303.51672</ele>
        <time>2022-09-30T12:15:28.000Z</time>
      </trkpt>
      <trkpt lat="45.83352" lon="4.69349">
        <ele>303.64618</ele>
        <time>2022-09-30T12:15:29.000Z</time>
      </trkpt>
      <trkpt lat="45.83352" lon="4.69341">
        <ele>303.72699</ele>
        <time>2022-09-30T12:15:30.000Z</time>
      </trkpt>
      <trkpt lat="45.83353" lon="4.69333">
        <ele>303.84116</ele>
        <time>2022-09-30T12:15:31.000Z</time>
      </trkpt>
      <trkpt lat="45.83352" lon="4.69325">
        <ele>303.90442</ele>
        <time>2022-09-30T12:15:32.000Z</time>
      </trkpt>
      <trkpt lat="45.83354" lon="4.69316">
        <ele>303.94867</ele>
        <time>2022-09-30T12:15:33.000Z</time>
      </trkpt>
      <trkpt lat="45.83354" lon="4.69308">
        <ele>303.96185</ele>
        <time>2022-09-30T12:15:34.000Z</time>
      </trkpt>
      <trkpt lat="45.83354" lon="4.693">
        <ele>303.98929</ele>
        <time>2022-09-30T12:15:35.000Z</time>
      </trkpt>
      <trkpt lat="45.83354" lon="4.69295">
        <ele>304.03946</ele>
        <time>2022-09-30T12:15:36.000Z</time>
      </trkpt>
      <trkpt lat="45.83354" lon="4.69288">
        <ele>304.10098</ele>
        <time>2022-09-30T12:15:37.000Z</time>
      </trkpt>
      <trkpt lat="45.83354" lon="4.69284">
        <ele>304.10931</ele>
        <time>2022-09-30T12:15:38.000Z</time>
      </trkpt>
      <trkpt lat="45.83356" lon="4.69277">
        <ele>304.11414</ele>
        <time>2022-09-30T12:15:39.000Z</time>
      </trkpt>
      <trkpt lat="45.83358" lon="4.69268">
        <ele>304.03625</ele>
        <time>2022-09-30T12:15:40.000Z</time>
      </trkpt>
      <trkpt lat="45.83357" lon="4.69263">
        <ele>303.95023</ele>
        <time>2022-09-30T12:15:41.000Z</time>
      </trkpt>
      <trkpt lat="45.83357" lon="4.69257">
        <ele>303.82306</ele>
        <time>2022-09-30T12:15:42.000Z</time>
      </trkpt>
      <trkpt lat="45.83358" lon="4.69251">
        <ele>303.66159</ele>
        <time>2022-09-30T12:15:43.000Z</time>
      </trkpt>
      <trkpt lat="45.83359" lon="4.69245">
        <ele>303.52301</ele>
        <time>2022-09-30T12:15:44.000Z</time>
      </trkpt>
      <trkpt lat="45.83359" lon="4.6924">
        <ele>303.48572</ele>
        <time>2022-09-30T12:15:45.000Z</time>
      </trkpt>
      <trkpt lat="45.83359" lon="4.69234">
        <ele>303.43631</ele>
        <time>2022-09-30T12:15:46.000Z</time>
      </trkpt>
      <trkpt lat="45.83358" lon="4.6923">
        <ele>303.43607</ele>
        <time>2022-09-30T12:15:47.000Z</time>
      </trkpt>
      <trkpt lat="45.83358" lon="4.69225">
        <ele>303.39032</ele>
        <time>2022-09-30T12:15:48.000Z</time>
      </trkpt>
      <trkpt lat="45.83359" lon="4.69218">
        <ele>303.362</ele>
        <time>2022-09-30T12:15:49.000Z</time>
      </trkpt>
      <trkpt lat="45.83361" lon="4.69212">
        <ele>303.28857</ele>
        <time>2022-09-30T12:15:50.000Z</time>
      </trkpt>
      <trkpt lat="45.83362" lon="4.69207">
        <ele>303.19479</ele>
        <time>2022-09-30T12:15:51.000Z</time>
      </trkpt>
      <trkpt lat="45.83363" lon="4.69201">
        <ele>303.05954</ele>
        <time>2022-09-30T12:15:52.000Z</time>
      </trkpt>
      <trkpt lat="45.83363" lon="4.69195">
        <ele>302.923</ele>
        <time>2022-09-30T12:15:53.000Z</time>
      </trkpt>
      <trkpt lat="45.83363" lon="4.69189">
        <ele>302.84464</ele>
        <time>2022-09-30T12:15:54.000Z</time>
      </trkpt>
      <trkpt lat="45.83364" lon="4.69183">
        <ele>302.75604</ele>
        <time>2022-09-30T12:15:55.000Z</time>
      </trkpt>
      <trkpt lat="45.83364" lon="4.69176">
        <ele>302.72202</ele>
        <time>2022-09-30T12:15:56.000Z</time>
      </trkpt>
      <trkpt lat="45.83364" lon="4.69168">
        <ele>302.67331</ele>
        <time>2022-09-30T12:15:57.000Z</time>
      </trkpt>
      <trkpt lat="45.83366" lon="4.69158">
        <ele>302.62482</ele>
        <time>2022-09-30T12:15:58.000Z</time>
      </trkpt>
      <trkpt lat="45.83367" lon="4.69151">
        <ele>302.59418</ele>
        <time>2022-09-30T12:15:59.000Z</time>
      </trkpt>
      <trkpt lat="45.83368" lon="4.69142">
        <ele>302.5462</ele>
        <time>2022-09-30T12:16:00.000Z</time>
      </trkpt>
      <trkpt lat="45.83368" lon="4.69136">
        <ele>302.42831</ele>
        <time>2022-09-30T12:16:01.000Z</time>
      </trkpt>
      <trkpt lat="45.83368" lon="4.69131">
        <ele>302.34369</ele>
        <time>2022-09-30T12:16:02.000Z</time>
      </trkpt>
      <trkpt lat="45.83368" lon="4.69124">
        <ele>302.24615</ele>
        <time>2022-09-30T12:16:03.000Z</time>
      </trkpt>
      <trkpt lat="45.8337" lon="4.69118">
        <ele>302.13763</ele>
        <time>2022-09-30T12:16:04.000Z</time>
      </trkpt>
      <trkpt lat="45.8337" lon="4.6911">
        <ele>301.89716</ele>
        <time>2022-09-30T12:16:05.000Z</time>
      </trkpt>
      <trkpt lat="45.83372" lon="4.69102">
        <ele>301.58112</ele>
        <time>2022-09-30T12:16:06.000Z</time>
      </trkpt>
      <trkpt lat="45.83374" lon="4.69095">
        <ele>301.19846</ele>
        <time>2022-09-30T12:16:07.000Z</time>
      </trkpt>
      <trkpt lat="45.83375" lon="4.69088">
        <ele>300.78784</ele>
        <time>2022-09-30T12:16:08.000Z</time>
      </trkpt>
      <trkpt lat="45.83377" lon="4.69081">
        <ele>300.30783</ele>
        <time>2022-09-30T12:16:09.000Z</time>
      </trkpt>
      <trkpt lat="45.83381" lon="4.69075">
        <ele>299.80392</ele>
        <time>2022-09-30T12:16:10.000Z</time>
      </trkpt>
      <trkpt lat="45.83384" lon="4.69068">
        <ele>299.33624</ele>
        <time>2022-09-30T12:16:11.000Z</time>
      </trkpt>
      <trkpt lat="45.83387" lon="4.69059">
        <ele>298.82574</ele>
        <time>2022-09-30T12:16:12.000Z</time>
      </trkpt>
      <trkpt lat="45.83392" lon="4.69054">
        <ele>298.35703</ele>
        <time>2022-09-30T12:16:13.000Z</time>
      </trkpt>
      <trkpt lat="45.83397" lon="4.69046">
        <ele>297.81891</ele>
        <time>2022-09-30T12:16:14.000Z</time>
      </trkpt>
      <trkpt lat="45.834" lon="4.69042">
        <ele>297.18735</ele>
        <time>2022-09-30T12:16:15.000Z</time>
      </trkpt>
      <trkpt lat="45.83401" lon="4.69032">
        <ele>296.54926</ele>
        <time>2022-09-30T12:16:16.000Z</time>
      </trkpt>
      <trkpt lat="45.83403" lon="4.69025">
        <ele>295.92477</ele>
        <time>2022-09-30T12:16:17.000Z</time>
      </trkpt>
      <trkpt lat="45.83404" lon="4.69021">
        <ele>295.27277</ele>
        <time>2022-09-30T12:16:18.000Z</time>
      </trkpt>
      <trkpt lat="45.83407" lon="4.69014">
        <ele>294.57831</ele>
        <time>2022-09-30T12:16:19.000Z</time>
      </trkpt>
      <trkpt lat="45.83408" lon="4.69006">
        <ele>293.88058</ele>
        <time>2022-09-30T12:16:20.000Z</time>
      </trkpt>
      <trkpt lat="45.8341" lon="4.68997">
        <ele>293.23621</ele>
        <time>2022-09-30T12:16:21.000Z</time>
      </trkpt>
      <trkpt lat="45.83411" lon="4.6899">
        <ele>292.62094</ele>
        <time>2022-09-30T12:16:22.000Z</time>
      </trkpt>
      <trkpt lat="45.83413" lon="4.68982">
        <ele>292.03632</ele>
        <time>2022-09-30T12:16:23.000Z</time>
      </trkpt>
      <trkpt lat="45.83415" lon="4.68975">
        <ele>291.41357</ele>
        <time>2022-09-30T12:16:24.000Z</time>
      </trkpt>
      <trkpt lat="45.83418" lon="4.68965">
        <ele>290.78088</ele>
        <time>2022-09-30T12:16:25.000Z</time>
      </trkpt>
      <trkpt lat="45.83419" lon="4.68957">
        <ele>290.17514</ele>
        <time>2022-09-30T12:16:26.000Z</time>
      </trkpt>
      <trkpt lat="45.83421" lon="4.6895">
        <ele>289.55347</ele>
        <time>2022-09-30T12:16:27.000Z</time>
      </trkpt>
      <trkpt lat="45.83422" lon="4.68942">
        <ele>288.909</ele>
        <time>2022-09-30T12:16:28.000Z</time>
      </trkpt>
      <trkpt lat="45.83424" lon="4.68935">
        <ele>288.34225</ele>
        <time>2022-09-30T12:16:29.000Z</time>
      </trkpt>
      <trkpt lat="45.83425" lon="4.6893">
        <ele>287.86066</ele>
        <time>2022-09-30T12:16:30.000Z</time>
      </trkpt>
      <trkpt lat="45.83427" lon="4.68924">
        <ele>287.36301</ele>
        <time>2022-09-30T12:16:31.000Z</time>
      </trkpt>
      <trkpt lat="45.83428" lon="4.68919">
        <ele>286.86099</ele>
        <time>2022-09-30T12:16:32.000Z</time>
      </trkpt>
      <trkpt lat="45.83426" lon="4.68916">
        <ele>286.34613</ele>
        <time>2022-09-30T12:16:33.000Z</time>
      </trkpt>
      <trkpt lat="45.83425" lon="4.68912">
        <ele>285.85529</ele>
        <time>2022-09-30T12:16:34.000Z</time>
      </trkpt>
      <trkpt lat="45.83424" lon="4.68908">
        <ele>285.43661</ele>
        <time>2022-09-30T12:16:35.000Z</time>
      </trkpt>
      <trkpt lat="45.83421" lon="4.68902">
        <ele>284.98334</ele>
        <time>2022-09-30T12:16:37.000Z</time>
      </trkpt>
      <trkpt lat="45.83419" lon="4.68897">
        <ele>284.50217</ele>
        <time>2022-09-30T12:16:38.000Z</time>
      </trkpt>
      <trkpt lat="45.83418" lon="4.6889">
        <ele>284.06171</ele>
        <time>2022-09-30T12:16:39.000Z</time>
      </trkpt>
      <trkpt lat="45.83416" lon="4.68883">
        <ele>283.6665</ele>
        <time>2022-09-30T12:16:40.000Z</time>
      </trkpt>
      <trkpt lat="45.83416" lon="4.68876">
        <ele>283.30045</ele>
        <time>2022-09-30T12:16:41.000Z</time>
      </trkpt>
      <trkpt lat="45.83418" lon="4.68868">
        <ele>282.89566</ele>
        <time>2022-09-30T12:16:42.000Z</time>
      </trkpt>
      <trkpt lat="45.83416" lon="4.68862">
        <ele>282.44638</ele>
        <time>2022-09-30T12:16:43.000Z</time>
      </trkpt>
      <trkpt lat="45.83414" lon="4.68859">
        <ele>282.00275</ele>
        <time>2022-09-30T12:16:44.000Z</time>
      </trkpt>
      <trkpt lat="45.83411" lon="4.68853">
        <ele>281.52014</ele>
        <time>2022-09-30T12:16:45.000Z</time>
      </trkpt>
      <trkpt lat="45.8341" lon="4.68847">
        <ele>281.12177</ele>
        <time>2022-09-30T12:16:46.000Z</time>
      </trkpt>
      <trkpt lat="45.83409" lon="4.68841">
        <ele>280.74957</ele>
        <time>2022-09-30T12:16:47.000Z</time>
      </trkpt>
      <trkpt lat="45.83407" lon="4.68834">
        <ele>280.41446</ele>
        <time>2022-09-30T12:16:48.000Z</time>
      </trkpt>
      <trkpt lat="45.83407" lon="4.68829">
        <ele>280.0975</ele>
        <time>2022-09-30T12:16:49.000Z</time>
      </trkpt>
      <trkpt lat="45.83404" lon="4.68822">
        <ele>279.84991</ele>
        <time>2022-09-30T12:16:50.000Z</time>
      </trkpt>
      <trkpt lat="45.83402" lon="4.68816">
        <ele>279.52081</ele>
        <time>2022-09-30T12:16:51.000Z</time>
      </trkpt>
      <trkpt lat="45.83399" lon="4.6881">
        <ele>279.25244</ele>
        <time>2022-09-30T12:16:52.000Z</time>
      </trkpt>
      <trkpt lat="45.83397" lon="4.68804">
        <ele>279.04025</ele>
        <time>2022-09-30T12:16:53.000Z</time>
      </trkpt>
      <trkpt lat="45.83396" lon="4.68798">
        <ele>278.79828</ele>
        <time>2022-09-30T12:16:54.000Z</time>
      </trkpt>
      <trkpt lat="45.83395" lon="4.68793">
        <ele>278.49902</ele>
        <time>2022-09-30T12:16:55.000Z</time>
      </trkpt>
      <trkpt lat="45.83393" lon="4.68787">
        <ele>278.24112</ele>
        <time>2022-09-30T12:16:56.000Z</time>
      </trkpt>
      <trkpt lat="45.83391" lon="4.68782">
        <ele>277.98187</ele>
        <time>2022-09-30T12:16:57.000Z</time>
      </trkpt>
      <trkpt lat="45.8339" lon="4.68777">
        <ele>277.75772</ele>
        <time>2022-09-30T12:16:58.000Z</time>
      </trkpt>
      <trkpt lat="45.83389" lon="4.68772">
        <ele>277.46774</ele>
        <time>2022-09-30T12:16:59.000Z</time>
      </trkpt>
      <trkpt lat="45.83388" lon="4.68767">
        <ele>277.19449</ele>
        <time>2022-09-30T12:17:00.000Z</time>
      </trkpt>
      <trkpt lat="45.83386" lon="4.68763">
        <ele>276.93564</ele>
        <time>2022-09-30T12:17:01.000Z</time>
      </trkpt>
      <trkpt lat="45.83384" lon="4.68758">
        <ele>276.66403</ele>
        <time>2022-09-30T12:17:02.000Z</time>
      </trkpt>
      <trkpt lat="45.83381" lon="4.68754">
        <ele>276.45984</ele>
        <time>2022-09-30T12:17:03.000Z</time>
      </trkpt>
      <trkpt lat="45.83378" lon="4.6875">
        <ele>276.27863</ele>
        <time>2022-09-30T12:17:04.000Z</time>
      </trkpt>
      <trkpt lat="45.83376" lon="4.68746">
        <ele>276.21265</ele>
        <time>2022-09-30T12:17:05.000Z</time>
      </trkpt>
      <trkpt lat="45.83374" lon="4.68741">
        <ele>276.16177</ele>
        <time>2022-09-30T12:17:06.000Z</time>
      </trkpt>
      <trkpt lat="45.83371" lon="4.68736">
        <ele>276.10944</ele>
        <time>2022-09-30T12:17:07.000Z</time>
      </trkpt>
      <trkpt lat="45.83369" lon="4.68732">
        <ele>276.03531</ele>
        <time>2022-09-30T12:17:08.000Z</time>
      </trkpt>
      <trkpt lat="45.83366" lon="4.68727">
        <ele>275.97382</ele>
        <time>2022-09-30T12:17:09.000Z</time>
      </trkpt>
      <trkpt lat="45.83364" lon="4.68723">
        <ele>275.86087</ele>
        <time>2022-09-30T12:17:10.000Z</time>
      </trkpt>
      <trkpt lat="45.83362" lon="4.68719">
        <ele>275.80731</ele>
        <time>2022-09-30T12:17:11.000Z</time>
      </trkpt>
      <trkpt lat="45.8336" lon="4.68714">
        <ele>275.73517</ele>
        <time>2022-09-30T12:17:12.000Z</time>
      </trkpt>
      <trkpt lat="45.83358" lon="4.6871">
        <ele>275.66647</ele>
        <time>2022-09-30T12:17:13.000Z</time>
      </trkpt>
      <trkpt lat="45.83357" lon="4.68706">
        <ele>275.55829</ele>
        <time>2022-09-30T12:17:14.000Z</time>
      </trkpt>
      <trkpt lat="45.83355" lon="4.68701">
        <ele>275.52597</ele>
        <time>2022-09-30T12:17:15.000Z</time>
      </trkpt>
      <trkpt lat="45.83352" lon="4.68697">
        <ele>275.51999</ele>
        <time>2022-09-30T12:17:16.000Z</time>
      </trkpt>
      <trkpt lat="45.83349" lon="4.68693">
        <ele>275.57077</ele>
        <time>2022-09-30T12:17:17.000Z</time>
      </trkpt>
      <trkpt lat="45.83347" lon="4.6869">
        <ele>275.68677</ele>
        <time>2022-09-30T12:17:18.000Z</time>
      </trkpt>
      <trkpt lat="45.83344" lon="4.68686">
        <ele>275.88031</ele>
        <time>2022-09-30T12:17:19.000Z</time>
      </trkpt>
      <trkpt lat="45.83342" lon="4.68682">
        <ele>275.9689</ele>
        <time>2022-09-30T12:17:20.000Z</time>
      </trkpt>
      <trkpt lat="45.8334" lon="4.68677">
        <ele>276.04575</ele>
        <time>2022-09-30T12:17:21.000Z</time>
      </trkpt>
      <trkpt lat="45.83338" lon="4.68672">
        <ele>276.10449</ele>
        <time>2022-09-30T12:17:22.000Z</time>
      </trkpt>
      <trkpt lat="45.83337" lon="4.68668">
        <ele>276.14746</ele>
        <time>2022-09-30T12:17:23.000Z</time>
      </trkpt>
      <trkpt lat="45.83336" lon="4.68663">
        <ele>276.14548</ele>
        <time>2022-09-30T12:17:24.000Z</time>
      </trkpt>
      <trkpt lat="45.83334" lon="4.68658">
        <ele>276.10422</ele>
        <time>2022-09-30T12:17:25.000Z</time>
      </trkpt>
      <trkpt lat="45.83332" lon="4.68654">
        <ele>275.97906</ele>
        <time>2022-09-30T12:17:26.000Z</time>
      </trkpt>
      <trkpt lat="45.8333" lon="4.6865">
        <ele>275.90765</ele>
        <time>2022-09-30T12:17:27.000Z</time>
      </trkpt>
      <trkpt lat="45.83328" lon="4.68645">
        <ele>275.89722</ele>
        <time>2022-09-30T12:17:28.000Z</time>
      </trkpt>
      <trkpt lat="45.83327" lon="4.68641">
        <ele>275.91681</ele>
        <time>2022-09-30T12:17:29.000Z</time>
      </trkpt>
      <trkpt lat="45.83326" lon="4.68637">
        <ele>275.84677</ele>
        <time>2022-09-30T12:17:30.000Z</time>
      </trkpt>
      <trkpt lat="45.83325" lon="4.68634">
        <ele>275.7829</ele>
        <time>2022-09-30T12:17:31.000Z</time>
      </trkpt>
      <trkpt lat="45.83324" lon="4.68631">
        <ele>275.68015</ele>
        <time>2022-09-30T12:17:32.000Z</time>
      </trkpt>
      <trkpt lat="45.83324" lon="4.68629">
        <ele>275.57794</ele>
        <time>2022-09-30T12:17:33.000Z</time>
      </trkpt>
      <trkpt lat="45.83324" lon="4.68626">
        <ele>275.52988</ele>
        <time>2022-09-30T12:17:34.000Z</time>
      </trkpt>
      <trkpt lat="45.83324" lon="4.68623">
        <ele>275.48245</ele>
        <time>2022-09-30T12:17:35.000Z</time>
      </trkpt>
      <trkpt lat="45.83323" lon="4.6862">
        <ele>275.42911</ele>
        <time>2022-09-30T12:17:36.000Z</time>
      </trkpt>
      <trkpt lat="45.83323" lon="4.68617">
        <ele>275.33344</ele>
        <time>2022-09-30T12:17:37.000Z</time>
      </trkpt>
      <trkpt lat="45.83323" lon="4.68614">
        <ele>275.16156</ele>
        <time>2022-09-30T12:17:38.000Z</time>
      </trkpt>
      <trkpt lat="45.83323" lon="4.68611">
        <ele>274.98181</ele>
        <time>2022-09-30T12:17:39.000Z</time>
      </trkpt>
      <trkpt lat="45.83322" lon="4.68608">
        <ele>274.89713</ele>
        <time>2022-09-30T12:17:40.000Z</time>
      </trkpt>
      <trkpt lat="45.83322" lon="4.68606">
        <ele>274.83002</ele>
        <time>2022-09-30T12:17:41.000Z</time>
      </trkpt>
      <trkpt lat="45.83321" lon="4.68603">
        <ele>274.81723</ele>
        <time>2022-09-30T12:17:42.000Z</time>
      </trkpt>
      <trkpt lat="45.8332" lon="4.68599">
        <ele>274.78659</ele>
        <time>2022-09-30T12:17:43.000Z</time>
      </trkpt>
      <trkpt lat="45.83319" lon="4.68593">
        <ele>274.81604</ele>
        <time>2022-09-30T12:17:44.000Z</time>
      </trkpt>
      <trkpt lat="45.83318" lon="4.68587">
        <ele>274.84613</ele>
        <time>2022-09-30T12:17:45.000Z</time>
      </trkpt>
      <trkpt lat="45.83318" lon="4.68581">
        <ele>274.88968</ele>
        <time>2022-09-30T12:17:46.000Z</time>
      </trkpt>
      <trkpt lat="45.83317" lon="4.68576">
        <ele>274.99588</ele>
        <time>2022-09-30T12:17:47.000Z</time>
      </trkpt>
      <trkpt lat="45.83316" lon="4.68571">
        <ele>275.15195</ele>
        <time>2022-09-30T12:17:48.000Z</time>
      </trkpt>
      <trkpt lat="45.83315" lon="4.68565">
        <ele>275.28104</ele>
        <time>2022-09-30T12:17:49.000Z</time>
      </trkpt>
      <trkpt lat="45.83314" lon="4.6856">
        <ele>275.44925</ele>
        <time>2022-09-30T12:17:50.000Z</time>
      </trkpt>
      <trkpt lat="45.83313" lon="4.68556">
        <ele>275.62857</ele>
        <time>2022-09-30T12:17:51.000Z</time>
      </trkpt>
      <trkpt lat="45.83311" lon="4.68552">
        <ele>275.85123</ele>
        <time>2022-09-30T12:17:52.000Z</time>
      </trkpt>
      <trkpt lat="45.83309" lon="4.68548">
        <ele>276.06415</ele>
        <time>2022-09-30T12:17:53.000Z</time>
      </trkpt>
      <trkpt lat="45.83308" lon="4.68544">
        <ele>276.32568</ele>
        <time>2022-09-30T12:17:54.000Z</time>
      </trkpt>
      <trkpt lat="45.83305" lon="4.6854">
        <ele>276.57001</ele>
        <time>2022-09-30T12:17:55.000Z</time>
      </trkpt>
      <trkpt lat="45.83302" lon="4.68537">
        <ele>276.83575</ele>
        <time>2022-09-30T12:17:56.000Z</time>
      </trkpt>
      <trkpt lat="45.83298" lon="4.68535">
        <ele>277.14621</ele>
        <time>2022-09-30T12:17:57.000Z</time>
      </trkpt>
      <trkpt lat="45.83295" lon="4.68532">
        <ele>277.43951</ele>
        <time>2022-09-30T12:17:58.000Z</time>
      </trkpt>
      <trkpt lat="45.83292" lon="4.68528">
        <ele>277.73016</ele>
        <time>2022-09-30T12:17:59.000Z</time>
      </trkpt>
      <trkpt lat="45.83289" lon="4.68525">
        <ele>278.02774</ele>
        <time>2022-09-30T12:18:00.000Z</time>
      </trkpt>
      <trkpt lat="45.83285" lon="4.68521">
        <ele>278.35034</ele>
        <time>2022-09-30T12:18:01.000Z</time>
      </trkpt>
      <trkpt lat="45.83282" lon="4.68518">
        <ele>278.76358</ele>
        <time>2022-09-30T12:18:02.000Z</time>
      </trkpt>
      <trkpt lat="45.83279" lon="4.68515">
        <ele>279.21716</ele>
        <time>2022-09-30T12:18:03.000Z</time>
      </trkpt>
      <trkpt lat="45.83277" lon="4.68513">
        <ele>279.64157</ele>
        <time>2022-09-30T12:18:04.000Z</time>
      </trkpt>
      <trkpt lat="45.83274" lon="4.6851">
        <ele>280.01782</ele>
        <time>2022-09-30T12:18:05.000Z</time>
      </trkpt>
      <trkpt lat="45.83271" lon="4.68507">
        <ele>280.45477</ele>
        <time>2022-09-30T12:18:06.000Z</time>
      </trkpt>
      <trkpt lat="45.83268" lon="4.68504">
        <ele>280.7901</ele>
        <time>2022-09-30T12:18:07.000Z</time>
      </trkpt>
      <trkpt lat="45.83265" lon="4.68501">
        <ele>281.04446</ele>
        <time>2022-09-30T12:18:08.000Z</time>
      </trkpt>
      <trkpt lat="45.83263" lon="4.68498">
        <ele>281.29279</ele>
        <time>2022-09-30T12:18:09.000Z</time>
      </trkpt>
      <trkpt lat="45.8326" lon="4.68495">
        <ele>281.52991</ele>
        <time>2022-09-30T12:18:10.000Z</time>
      </trkpt>
      <trkpt lat="45.83257" lon="4.68492">
        <ele>281.77542</ele>
        <time>2022-09-30T12:18:11.000Z</time>
      </trkpt>
      <trkpt lat="45.83254" lon="4.6849">
        <ele>282.04889</ele>
        <time>2022-09-30T12:18:12.000Z</time>
      </trkpt>
      <trkpt lat="45.83251" lon="4.68488">
        <ele>282.29022</ele>
        <time>2022-09-30T12:18:13.000Z</time>
      </trkpt>
      <trkpt lat="45.83248" lon="4.68486">
        <ele>282.48114</ele>
        <time>2022-09-30T12:18:14.000Z</time>
      </trkpt>
      <trkpt lat="45.83233" lon="4.68473">
        <ele>282.71799</ele>
        <time>2022-09-30T12:18:19.000Z</time>
      </trkpt>
      <trkpt lat="45.8323" lon="4.6847">
        <ele>282.87451</ele>
        <time>2022-09-30T12:18:20.000Z</time>
      </trkpt>
      <trkpt lat="45.83226" lon="4.68467">
        <ele>283.06921</ele>
        <time>2022-09-30T12:18:21.000Z</time>
      </trkpt>
      <trkpt lat="45.83223" lon="4.68464">
        <ele>283.38782</ele>
        <time>2022-09-30T12:18:22.000Z</time>
      </trkpt>
      <trkpt lat="45.8322" lon="4.68461">
        <ele>283.69147</ele>
        <time>2022-09-30T12:18:23.000Z</time>
      </trkpt>
      <trkpt lat="45.83217" lon="4.68457">
        <ele>284.01294</ele>
        <time>2022-09-30T12:18:24.000Z</time>
      </trkpt>
      <trkpt lat="45.83215" lon="4.68453">
        <ele>284.3024</ele>
        <time>2022-09-30T12:18:25.000Z</time>
      </trkpt>
      <trkpt lat="45.83212" lon="4.6845">
        <ele>284.50256</ele>
        <time>2022-09-30T12:18:26.000Z</time>
      </trkpt>
      <trkpt lat="45.8321" lon="4.68446">
        <ele>284.70618</ele>
        <time>2022-09-30T12:18:27.000Z</time>
      </trkpt>
      <trkpt lat="45.83208" lon="4.68442">
        <ele>284.94556</ele>
        <time>2022-09-30T12:18:28.000Z</time>
      </trkpt>
      <trkpt lat="45.83206" lon="4.68438">
        <ele>285.20514</ele>
        <time>2022-09-30T12:18:29.000Z</time>
      </trkpt>
      <trkpt lat="45.83204" lon="4.68434">
        <ele>285.35358</ele>
        <time>2022-09-30T12:18:30.000Z</time>
      </trkpt>
      <trkpt lat="45.83202" lon="4.6843">
        <ele>285.51337</ele>
        <time>2022-09-30T12:18:31.000Z</time>
      </trkpt>
      <trkpt lat="45.832" lon="4.68427">
        <ele>285.69263</ele>
        <time>2022-09-30T12:18:32.000Z</time>
      </trkpt>
      <trkpt lat="45.83198" lon="4.68422">
        <ele>285.87784</ele>
        <time>2022-09-30T12:18:33.000Z</time>
      </trkpt>
      <trkpt lat="45.83197" lon="4.68418">
        <ele>286.1087</ele>
        <time>2022-09-30T12:18:34.000Z</time>
      </trkpt>
      <trkpt lat="45.83195" lon="4.68414">
        <ele>286.41132</ele>
        <time>2022-09-30T12:18:35.000Z</time>
      </trkpt>
      <trkpt lat="45.83193" lon="4.6841">
        <ele>286.6449</ele>
        <time>2022-09-30T12:18:36.000Z</time>
      </trkpt>
      <trkpt lat="45.83191" lon="4.68406">
        <ele>286.93863</ele>
        <time>2022-09-30T12:18:37.000Z</time>
      </trkpt>
      <trkpt lat="45.83189" lon="4.68402">
        <ele>287.36664</ele>
        <time>2022-09-30T12:18:38.000Z</time>
      </trkpt>
      <trkpt lat="45.83187" lon="4.68398">
        <ele>287.71832</ele>
        <time>2022-09-30T12:18:39.000Z</time>
      </trkpt>
      <trkpt lat="45.83185" lon="4.68395">
        <ele>288.14352</ele>
        <time>2022-09-30T12:18:40.000Z</time>
      </trkpt>
      <trkpt lat="45.83184" lon="4.68391">
        <ele>288.52347</ele>
        <time>2022-09-30T12:18:41.000Z</time>
      </trkpt>
      <trkpt lat="45.83182" lon="4.68387">
        <ele>288.8103</ele>
        <time>2022-09-30T12:18:42.000Z</time>
      </trkpt>
      <trkpt lat="45.8318" lon="4.68383">
        <ele>289.11273</ele>
        <time>2022-09-30T12:18:43.000Z</time>
      </trkpt>
      <trkpt lat="45.83178" lon="4.6838">
        <ele>289.43561</ele>
        <time>2022-09-30T12:18:44.000Z</time>
      </trkpt>
      <trkpt lat="45.83176" lon="4.68376">
        <ele>289.77802</ele>
        <time>2022-09-30T12:18:45.000Z</time>
      </trkpt>
      <trkpt lat="45.83173" lon="4.68373">
        <ele>290.12817</ele>
        <time>2022-09-30T12:18:46.000Z</time>
      </trkpt>
      <trkpt lat="45.83171" lon="4.68369">
        <ele>290.48315</ele>
        <time>2022-09-30T12:18:47.000Z</time>
      </trkpt>
      <trkpt lat="45.83169" lon="4.68366">
        <ele>290.8139</ele>
        <time>2022-09-30T12:18:48.000Z</time>
      </trkpt>
      <trkpt lat="45.83167" lon="4.68362">
        <ele>291.13208</ele>
        <time>2022-09-30T12:18:49.000Z</time>
      </trkpt>
      <trkpt lat="45.83164" lon="4.68358">
        <ele>291.51044</ele>
        <time>2022-09-30T12:18:50.000Z</time>
      </trkpt>
      <trkpt lat="45.83162" lon="4.68354">
        <ele>291.88678</ele>
        <time>2022-09-30T12:18:51.000Z</time>
      </trkpt>
      <trkpt lat="45.8316" lon="4.6835">
        <ele>292.19513</ele>
        <time>2022-09-30T12:18:52.000Z</time>
      </trkpt>
      <trkpt lat="45.83158" lon="4.68345">
        <ele>292.63181</ele>
        <time>2022-09-30T12:18:53.000Z</time>
      </trkpt>
      <trkpt lat="45.83157" lon="4.6834">
        <ele>292.99341</ele>
        <time>2022-09-30T12:18:54.000Z</time>
      </trkpt>
      <trkpt lat="45.83155" lon="4.68335">
        <ele>293.27658</ele>
        <time>2022-09-30T12:18:55.000Z</time>
      </trkpt>
      <trkpt lat="45.83153" lon="4.68331">
        <ele>293.58792</ele>
        <time>2022-09-30T12:18:56.000Z</time>
      </trkpt>
      <trkpt lat="45.83152" lon="4.68326">
        <ele>293.87317</ele>
        <time>2022-09-30T12:18:57.000Z</time>
      </trkpt>
      <trkpt lat="45.8315" lon="4.68322">
        <ele>294.04004</ele>
        <time>2022-09-30T12:18:58.000Z</time>
      </trkpt>
      <trkpt lat="45.83148" lon="4.68319">
        <ele>294.15875</ele>
        <time>2022-09-30T12:18:59.000Z</time>
      </trkpt>
      <trkpt lat="45.83146" lon="4.68316">
        <ele>294.34384</ele>
        <time>2022-09-30T12:19:00.000Z</time>
      </trkpt>
      <trkpt lat="45.83144" lon="4.68312">
        <ele>294.4744</ele>
        <time>2022-09-30T12:19:01.000Z</time>
      </trkpt>
      <trkpt lat="45.83143" lon="4.68309">
        <ele>294.61899</ele>
        <time>2022-09-30T12:19:02.000Z</time>
      </trkpt>
      <trkpt lat="45.83141" lon="4.68305">
        <ele>294.76471</ele>
        <time>2022-09-30T12:19:03.000Z</time>
      </trkpt>
      <trkpt lat="45.83139" lon="4.68301">
        <ele>294.86261</ele>
        <time>2022-09-30T12:19:04.000Z</time>
      </trkpt>
      <trkpt lat="45.83137" lon="4.68296">
        <ele>294.9693</ele>
        <time>2022-09-30T12:19:05.000Z</time>
      </trkpt>
      <trkpt lat="45.83135" lon="4.68292">
        <ele>295.13193</ele>
        <time>2022-09-30T12:19:06.000Z</time>
      </trkpt>
      <trkpt lat="45.83132" lon="4.68289">
        <ele>295.27954</ele>
        <time>2022-09-30T12:19:07.000Z</time>
      </trkpt>
      <trkpt lat="45.8313" lon="4.68286">
        <ele>295.44989</ele>
        <time>2022-09-30T12:19:08.000Z</time>
      </trkpt>
      <trkpt lat="45.83128" lon="4.68282">
        <ele>295.64478</ele>
        <time>2022-09-30T12:19:09.000Z</time>
      </trkpt>
      <trkpt lat="45.83126" lon="4.68279">
        <ele>295.8894</ele>
        <time>2022-09-30T12:19:10.000Z</time>
      </trkpt>
      <trkpt lat="45.83125" lon="4.68275">
        <ele>296.13068</ele>
        <time>2022-09-30T12:19:11.000Z</time>
      </trkpt>
      <trkpt lat="45.83123" lon="4.6827">
        <ele>296.43152</ele>
        <time>2022-09-30T12:19:12.000Z</time>
      </trkpt>
      <trkpt lat="45.83122" lon="4.68266">
        <ele>296.5658</ele>
        <time>2022-09-30T12:19:13.000Z</time>
      </trkpt>
      <trkpt lat="45.8312" lon="4.68262">
        <ele>296.79614</ele>
        <time>2022-09-30T12:19:14.000Z</time>
      </trkpt>
      <trkpt lat="45.83118" lon="4.68257">
        <ele>297.02911</ele>
        <time>2022-09-30T12:19:15.000Z</time>
      </trkpt>
      <trkpt lat="45.83116" lon="4.68252">
        <ele>297.22626</ele>
        <time>2022-09-30T12:19:16.000Z</time>
      </trkpt>
      <trkpt lat="45.83115" lon="4.68248">
        <ele>297.43793</ele>
        <time>2022-09-30T12:19:17.000Z</time>
      </trkpt>
      <trkpt lat="45.83113" lon="4.68243">
        <ele>297.62857</ele>
        <time>2022-09-30T12:19:18.000Z</time>
      </trkpt>
      <trkpt lat="45.83111" lon="4.68238">
        <ele>297.91577</ele>
        <time>2022-09-30T12:19:19.000Z</time>
      </trkpt>
      <trkpt lat="45.8311" lon="4.68232">
        <ele>298.11722</ele>
        <time>2022-09-30T12:19:20.000Z</time>
      </trkpt>
      <trkpt lat="45.83108" lon="4.68227">
        <ele>298.35443</ele>
        <time>2022-09-30T12:19:21.000Z</time>
      </trkpt>
      <trkpt lat="45.83107" lon="4.68221">
        <ele>298.56119</ele>
        <time>2022-09-30T12:19:22.000Z</time>
      </trkpt>
      <trkpt lat="45.83106" lon="4.68216">
        <ele>298.806</ele>
        <time>2022-09-30T12:19:23.000Z</time>
      </trkpt>
      <trkpt lat="45.83105" lon="4.6821">
        <ele>299.09512</ele>
        <time>2022-09-30T12:19:24.000Z</time>
      </trkpt>
      <trkpt lat="45.83103" lon="4.68205">
        <ele>299.33557</ele>
        <time>2022-09-30T12:19:25.000Z</time>
      </trkpt>
      <trkpt lat="45.83102" lon="4.682">
        <ele>299.50342</ele>
        <time>2022-09-30T12:19:26.000Z</time>
      </trkpt>
      <trkpt lat="45.831" lon="4.68194">
        <ele>299.72174</ele>
        <time>2022-09-30T12:19:27.000Z</time>
      </trkpt>
      <trkpt lat="45.83099" lon="4.68189">
        <ele>299.94528</ele>
        <time>2022-09-30T12:19:28.000Z</time>
      </trkpt>
      <trkpt lat="45.83097" lon="4.68183">
        <ele>300.09119</ele>
        <time>2022-09-30T12:19:29.000Z</time>
      </trkpt>
      <trkpt lat="45.83096" lon="4.68178">
        <ele>300.15445</ele>
        <time>2022-09-30T12:19:30.000Z</time>
      </trkpt>
      <trkpt lat="45.83094" lon="4.68172">
        <ele>300.271</ele>
        <time>2022-09-30T12:19:31.000Z</time>
      </trkpt>
      <trkpt lat="45.83093" lon="4.68167">
        <ele>300.36835</ele>
        <time>2022-09-30T12:19:32.000Z</time>
      </trkpt>
      <trkpt lat="45.83092" lon="4.68161">
        <ele>300.48914</ele>
        <time>2022-09-30T12:19:33.000Z</time>
      </trkpt>
      <trkpt lat="45.83091" lon="4.68155">
        <ele>300.62711</ele>
        <time>2022-09-30T12:19:34.000Z</time>
      </trkpt>
      <trkpt lat="45.8309" lon="4.68149">
        <ele>300.67999</ele>
        <time>2022-09-30T12:19:35.000Z</time>
      </trkpt>
      <trkpt lat="45.83089" lon="4.68143">
        <ele>300.73773</ele>
        <time>2022-09-30T12:19:36.000Z</time>
      </trkpt>
      <trkpt lat="45.83089" lon="4.68136">
        <ele>300.79813</ele>
        <time>2022-09-30T12:19:37.000Z</time>
      </trkpt>
      <trkpt lat="45.83088" lon="4.6813">
        <ele>300.89066</ele>
        <time>2022-09-30T12:19:38.000Z</time>
      </trkpt>
      <trkpt lat="45.83087" lon="4.68124">
        <ele>300.97971</ele>
        <time>2022-09-30T12:19:39.000Z</time>
      </trkpt>
      <trkpt lat="45.83086" lon="4.68118">
        <ele>301.07233</ele>
        <time>2022-09-30T12:19:40.000Z</time>
      </trkpt>
      <trkpt lat="45.83086" lon="4.68111">
        <ele>301.12088</ele>
        <time>2022-09-30T12:19:41.000Z</time>
      </trkpt>
      <trkpt lat="45.83086" lon="4.68103">
        <ele>301.19293</ele>
        <time>2022-09-30T12:19:42.000Z</time>
      </trkpt>
      <trkpt lat="45.83086" lon="4.68096">
        <ele>301.26398</ele>
        <time>2022-09-30T12:19:43.000Z</time>
      </trkpt>
      <trkpt lat="45.83085" lon="4.6809">
        <ele>301.28091</ele>
        <time>2022-09-30T12:19:44.000Z</time>
      </trkpt>
      <trkpt lat="45.83085" lon="4.68083">
        <ele>301.29791</ele>
        <time>2022-09-30T12:19:45.000Z</time>
      </trkpt>
      <trkpt lat="45.83086" lon="4.68076">
        <ele>301.33716</ele>
        <time>2022-09-30T12:19:46.000Z</time>
      </trkpt>
      <trkpt lat="45.83085" lon="4.6807">
        <ele>301.33249</ele>
        <time>2022-09-30T12:19:47.000Z</time>
      </trkpt>
      <trkpt lat="45.83084" lon="4.68064">
        <ele>301.26605</ele>
        <time>2022-09-30T12:19:48.000Z</time>
      </trkpt>
      <trkpt lat="45.83084" lon="4.68057">
        <ele>301.28241</ele>
        <time>2022-09-30T12:19:49.000Z</time>
      </trkpt>
      <trkpt lat="45.83086" lon="4.68049">
        <ele>301.38867</ele>
        <time>2022-09-30T12:19:50.000Z</time>
      </trkpt>
      <trkpt lat="45.83084" lon="4.68042">
        <ele>301.44748</ele>
        <time>2022-09-30T12:19:51.000Z</time>
      </trkpt>
      <trkpt lat="45.83082" lon="4.68035">
        <ele>301.38199</ele>
        <time>2022-09-30T12:19:52.000Z</time>
      </trkpt>
      <trkpt lat="45.83082" lon="4.68028">
        <ele>301.3255</ele>
        <time>2022-09-30T12:19:53.000Z</time>
      </trkpt>
      <trkpt lat="45.83081" lon="4.68023">
        <ele>301.15796</ele>
        <time>2022-09-30T12:19:54.000Z</time>
      </trkpt>
      <trkpt lat="45.83081" lon="4.68016">
        <ele>301.10785</ele>
        <time>2022-09-30T12:19:55.000Z</time>
      </trkpt>
      <trkpt lat="45.83082" lon="4.6801">
        <ele>301.23401</ele>
        <time>2022-09-30T12:19:56.000Z</time>
      </trkpt>
      <trkpt lat="45.83083" lon="4.68001">
        <ele>301.23877</ele>
        <time>2022-09-30T12:19:57.000Z</time>
      </trkpt>
      <trkpt lat="45.8308" lon="4.67994">
        <ele>301.0528</ele>
        <time>2022-09-30T12:19:58.000Z</time>
      </trkpt>
      <trkpt lat="45.83078" lon="4.67989">
        <ele>300.88638</ele>
        <time>2022-09-30T12:19:59.000Z</time>
      </trkpt>
      <trkpt lat="45.83076" lon="4.67984">
        <ele>300.62872</ele>
        <time>2022-09-30T12:20:00.000Z</time>
      </trkpt>
      <trkpt lat="45.83076" lon="4.67977">
        <ele>300.36578</ele>
        <time>2022-09-30T12:20:01.000Z</time>
      </trkpt>
      <trkpt lat="45.83075" lon="4.6797">
        <ele>300.09787</ele>
        <time>2022-09-30T12:20:02.000Z</time>
      </trkpt>
      <trkpt lat="45.83074" lon="4.67965">
        <ele>299.67316</ele>
        <time>2022-09-30T12:20:03.000Z</time>
      </trkpt>
      <trkpt lat="45.83074" lon="4.6796">
        <ele>299.27176</ele>
        <time>2022-09-30T12:20:04.000Z</time>
      </trkpt>
      <trkpt lat="45.83075" lon="4.67953">
        <ele>298.80536</ele>
        <time>2022-09-30T12:20:05.000Z</time>
      </trkpt>
      <trkpt lat="45.83074" lon="4.67944">
        <ele>298.30316</ele>
        <time>2022-09-30T12:20:06.000Z</time>
      </trkpt>
      <trkpt lat="45.83071" lon="4.67938">
        <ele>297.76587</ele>
        <time>2022-09-30T12:20:07.000Z</time>
      </trkpt>
      <trkpt lat="45.83071" lon="4.67929">
        <ele>297.23129</ele>
        <time>2022-09-30T12:20:08.000Z</time>
      </trkpt>
      <trkpt lat="45.83068" lon="4.67922">
        <ele>296.62714</ele>
        <time>2022-09-30T12:20:09.000Z</time>
      </trkpt>
      <trkpt lat="45.83067" lon="4.67915">
        <ele>296.01971</ele>
        <time>2022-09-30T12:20:10.000Z</time>
      </trkpt>
      <trkpt lat="45.83066" lon="4.67907">
        <ele>295.41986</ele>
        <time>2022-09-30T12:20:11.000Z</time>
      </trkpt>
      <trkpt lat="45.83063" lon="4.679">
        <ele>294.95651</ele>
        <time>2022-09-30T12:20:12.000Z</time>
      </trkpt>
      <trkpt lat="45.83061" lon="4.67893">
        <ele>294.52509</ele>
        <time>2022-09-30T12:20:13.000Z</time>
      </trkpt>
      <trkpt lat="45.8306" lon="4.67888">
        <ele>294.16611</ele>
        <time>2022-09-30T12:20:14.000Z</time>
      </trkpt>
      <trkpt lat="45.83058" lon="4.6788">
        <ele>293.73877</ele>
        <time>2022-09-30T12:20:15.000Z</time>
      </trkpt>
      <trkpt lat="45.83055" lon="4.67875">
        <ele>293.17328</ele>
        <time>2022-09-30T12:20:16.000Z</time>
      </trkpt>
      <trkpt lat="45.83052" lon="4.67865">
        <ele>292.62659</ele>
        <time>2022-09-30T12:20:17.000Z</time>
      </trkpt>
      <trkpt lat="45.8305" lon="4.67857">
        <ele>292.25912</ele>
        <time>2022-09-30T12:20:18.000Z</time>
      </trkpt>
      <trkpt lat="45.83048" lon="4.6785">
        <ele>291.88367</ele>
        <time>2022-09-30T12:20:19.000Z</time>
      </trkpt>
      <trkpt lat="45.83046" lon="4.67842">
        <ele>291.64206</ele>
        <time>2022-09-30T12:20:20.000Z</time>
      </trkpt>
      <trkpt lat="45.83046" lon="4.67835">
        <ele>291.44815</ele>
        <time>2022-09-30T12:20:21.000Z</time>
      </trkpt>
      <trkpt lat="45.83043" lon="4.67827">
        <ele>291.2146</ele>
        <time>2022-09-30T12:20:22.000Z</time>
      </trkpt>
      <trkpt lat="45.83041" lon="4.67819">
        <ele>291.15579</ele>
        <time>2022-09-30T12:20:23.000Z</time>
      </trkpt>
      <trkpt lat="45.83037" lon="4.6781">
        <ele>291.09549</ele>
        <time>2022-09-30T12:20:24.000Z</time>
      </trkpt>
      <trkpt lat="45.83034" lon="4.67801">
        <ele>291.13132</ele>
        <time>2022-09-30T12:20:25.000Z</time>
      </trkpt>
      <trkpt lat="45.83032" lon="4.6779">
        <ele>291.17429</ele>
        <time>2022-09-30T12:20:26.000Z</time>
      </trkpt>
      <trkpt lat="45.83031" lon="4.6778">
        <ele>291.15747</ele>
        <time>2022-09-30T12:20:27.000Z</time>
      </trkpt>
      <trkpt lat="45.83028" lon="4.67772">
        <ele>291.08868</ele>
        <time>2022-09-30T12:20:28.000Z</time>
      </trkpt>
      <trkpt lat="45.83026" lon="4.67761">
        <ele>291.09024</ele>
        <time>2022-09-30T12:20:29.000Z</time>
      </trkpt>
      <trkpt lat="45.83022" lon="4.6775">
        <ele>291.04947</ele>
        <time>2022-09-30T12:20:30.000Z</time>
      </trkpt>
      <trkpt lat="45.83021" lon="4.6774">
        <ele>290.96136</ele>
        <time>2022-09-30T12:20:31.000Z</time>
      </trkpt>
      <trkpt lat="45.83019" lon="4.6773">
        <ele>290.86066</ele>
        <time>2022-09-30T12:20:32.000Z</time>
      </trkpt>
      <trkpt lat="45.83018" lon="4.67721">
        <ele>290.67499</ele>
        <time>2022-09-30T12:20:33.000Z</time>
      </trkpt>
      <trkpt lat="45.83019" lon="4.67709">
        <ele>290.46759</ele>
        <time>2022-09-30T12:20:34.000Z</time>
      </trkpt>
      <trkpt lat="45.83018" lon="4.67699">
        <ele>290.21637</ele>
        <time>2022-09-30T12:20:35.000Z</time>
      </trkpt>
      <trkpt lat="45.83017" lon="4.67689">
        <ele>289.94727</ele>
        <time>2022-09-30T12:20:36.000Z</time>
      </trkpt>
      <trkpt lat="45.83018" lon="4.67681">
        <ele>289.7431</ele>
        <time>2022-09-30T12:20:37.000Z</time>
      </trkpt>
      <trkpt lat="45.83018" lon="4.6767">
        <ele>289.57571</ele>
        <time>2022-09-30T12:20:38.000Z</time>
      </trkpt>
      <trkpt lat="45.83017" lon="4.67661">
        <ele>289.39117</ele>
        <time>2022-09-30T12:20:39.000Z</time>
      </trkpt>
      <trkpt lat="45.83019" lon="4.67653">
        <ele>289.29077</ele>
        <time>2022-09-30T12:20:40.000Z</time>
      </trkpt>
      <trkpt lat="45.8302" lon="4.67644">
        <ele>289.16684</ele>
        <time>2022-09-30T12:20:41.000Z</time>
      </trkpt>
      <trkpt lat="45.83019" lon="4.67636">
        <ele>289.07501</ele>
        <time>2022-09-30T12:20:42.000Z</time>
      </trkpt>
      <trkpt lat="45.83017" lon="4.67627">
        <ele>288.92279</ele>
        <time>2022-09-30T12:20:43.000Z</time>
      </trkpt>
      <trkpt lat="45.83015" lon="4.67619">
        <ele>288.75073</ele>
        <time>2022-09-30T12:20:44.000Z</time>
      </trkpt>
      <trkpt lat="45.83016" lon="4.6761">
        <ele>288.53876</ele>
        <time>2022-09-30T12:20:45.000Z</time>
      </trkpt>
      <trkpt lat="45.83016" lon="4.67602">
        <ele>288.38361</ele>
        <time>2022-09-30T12:20:46.000Z</time>
      </trkpt>
      <trkpt lat="45.83012" lon="4.67593">
        <ele>288.30957</ele>
        <time>2022-09-30T12:20:47.000Z</time>
      </trkpt>
      <trkpt lat="45.8301" lon="4.67586">
        <ele>288.33868</ele>
        <time>2022-09-30T12:20:48.000Z</time>
      </trkpt>
      <trkpt lat="45.83004" lon="4.67582">
        <ele>288.34399</ele>
        <time>2022-09-30T12:20:49.000Z</time>
      </trkpt>
      <trkpt lat="45.83" lon="4.67579">
        <ele>288.35052</ele>
        <time>2022-09-30T12:20:50.000Z</time>
      </trkpt>
      <trkpt lat="45.82994" lon="4.67576">
        <ele>288.38788</ele>
        <time>2022-09-30T12:20:51.000Z</time>
      </trkpt>
      <trkpt lat="45.82989" lon="4.67574">
        <ele>288.48065</ele>
        <time>2022-09-30T12:20:52.000Z</time>
      </trkpt>
      <trkpt lat="45.82983" lon="4.67572">
        <ele>288.64505</ele>
        <time>2022-09-30T12:20:53.000Z</time>
      </trkpt>
      <trkpt lat="45.82978" lon="4.6757">
        <ele>288.85684</ele>
        <time>2022-09-30T12:20:54.000Z</time>
      </trkpt>
      <trkpt lat="45.82973" lon="4.67569">
        <ele>289.13116</ele>
        <time>2022-09-30T12:20:55.000Z</time>
      </trkpt>
      <trkpt lat="45.82967" lon="4.67569">
        <ele>289.42371</ele>
        <time>2022-09-30T12:20:56.000Z</time>
      </trkpt>
      <trkpt lat="45.82962" lon="4.67568">
        <ele>289.74091</ele>
        <time>2022-09-30T12:20:57.000Z</time>
      </trkpt>
      <trkpt lat="45.82957" lon="4.67567">
        <ele>290.05045</ele>
        <time>2022-09-30T12:20:58.000Z</time>
      </trkpt>
      <trkpt lat="45.82953" lon="4.67565">
        <ele>290.3891</ele>
        <time>2022-09-30T12:20:59.000Z</time>
      </trkpt>
      <trkpt lat="45.82949" lon="4.67562">
        <ele>290.61456</ele>
        <time>2022-09-30T12:21:00.000Z</time>
      </trkpt>
      <trkpt lat="45.82945" lon="4.6756">
        <ele>290.7897</ele>
        <time>2022-09-30T12:21:01.000Z</time>
      </trkpt>
      <trkpt lat="45.8294" lon="4.67559">
        <ele>291.00421</ele>
        <time>2022-09-30T12:21:02.000Z</time>
      </trkpt>
      <trkpt lat="45.82936" lon="4.67557">
        <ele>291.2309</ele>
        <time>2022-09-30T12:21:03.000Z</time>
      </trkpt>
      <trkpt lat="45.82931" lon="4.67557">
        <ele>291.48593</ele>
        <time>2022-09-30T12:21:04.000Z</time>
      </trkpt>
      <trkpt lat="45.82928" lon="4.67554">
        <ele>291.78546</ele>
        <time>2022-09-30T12:21:05.000Z</time>
      </trkpt>
      <trkpt lat="45.82924" lon="4.67551">
        <ele>292.01752</ele>
        <time>2022-09-30T12:21:06.000Z</time>
      </trkpt>
      <trkpt lat="45.8292" lon="4.67549">
        <ele>292.24591</ele>
        <time>2022-09-30T12:21:07.000Z</time>
      </trkpt>
      <trkpt lat="45.82917" lon="4.67547">
        <ele>292.51572</ele>
        <time>2022-09-30T12:21:08.000Z</time>
      </trkpt>
      <trkpt lat="45.82913" lon="4.67544">
        <ele>292.76822</ele>
        <time>2022-09-30T12:21:09.000Z</time>
      </trkpt>
      <trkpt lat="45.82909" lon="4.67539">
        <ele>292.9985</ele>
        <time>2022-09-30T12:21:10.000Z</time>
      </trkpt>
      <trkpt lat="45.82907" lon="4.67537">
        <ele>293.25861</ele>
        <time>2022-09-30T12:21:11.000Z</time>
      </trkpt>
      <trkpt lat="45.82902" lon="4.67532">
        <ele>293.47873</ele>
        <time>2022-09-30T12:21:12.000Z</time>
      </trkpt>
      <trkpt lat="45.829" lon="4.67527">
        <ele>293.74225</ele>
        <time>2022-09-30T12:21:13.000Z</time>
      </trkpt>
      <trkpt lat="45.82899" lon="4.6752">
        <ele>293.92685</ele>
        <time>2022-09-30T12:21:14.000Z</time>
      </trkpt>
      <trkpt lat="45.829" lon="4.67516">
        <ele>294.17319</ele>
        <time>2022-09-30T12:21:15.000Z</time>
      </trkpt>
      <trkpt lat="45.82901" lon="4.67511">
        <ele>294.40045</ele>
        <time>2022-09-30T12:21:16.000Z</time>
      </trkpt>
      <trkpt lat="45.82905" lon="4.67508">
        <ele>294.62903</ele>
        <time>2022-09-30T12:21:17.000Z</time>
      </trkpt>
      <trkpt lat="45.82908" lon="4.675">
        <ele>294.89664</ele>
        <time>2022-09-30T12:21:18.000Z</time>
      </trkpt>
      <trkpt lat="45.82911" lon="4.67493">
        <ele>295.12814</ele>
        <time>2022-09-30T12:21:19.000Z</time>
      </trkpt>
      <trkpt lat="45.82913" lon="4.67487">
        <ele>295.34531</ele>
        <time>2022-09-30T12:21:20.000Z</time>
      </trkpt>
      <trkpt lat="45.82918" lon="4.67485">
        <ele>295.58038</ele>
        <time>2022-09-30T12:21:21.000Z</time>
      </trkpt>
      <trkpt lat="45.82922" lon="4.67475">
        <ele>295.70337</ele>
        <time>2022-09-30T12:21:22.000Z</time>
      </trkpt>
      <trkpt lat="45.82927" lon="4.67468">
        <ele>295.80972</ele>
        <time>2022-09-30T12:21:23.000Z</time>
      </trkpt>
      <trkpt lat="45.82931" lon="4.6746">
        <ele>295.83807</ele>
        <time>2022-09-30T12:21:24.000Z</time>
      </trkpt>
      <trkpt lat="45.82935" lon="4.67453">
        <ele>295.84308</ele>
        <time>2022-09-30T12:21:25.000Z</time>
      </trkpt>
      <trkpt lat="45.82939" lon="4.67447">
        <ele>295.85257</ele>
        <time>2022-09-30T12:21:26.000Z</time>
      </trkpt>
      <trkpt lat="45.82942" lon="4.67439">
        <ele>295.8703</ele>
        <time>2022-09-30T12:21:27.000Z</time>
      </trkpt>
      <trkpt lat="45.82945" lon="4.67432">
        <ele>295.79602</ele>
        <time>2022-09-30T12:21:28.000Z</time>
      </trkpt>
      <trkpt lat="45.82948" lon="4.67424">
        <ele>295.75098</ele>
        <time>2022-09-30T12:21:29.000Z</time>
      </trkpt>
      <trkpt lat="45.82953" lon="4.67417">
        <ele>295.63596</ele>
        <time>2022-09-30T12:21:30.000Z</time>
      </trkpt>
      <trkpt lat="45.82956" lon="4.67409">
        <ele>295.50986</ele>
        <time>2022-09-30T12:21:31.000Z</time>
      </trkpt>
      <trkpt lat="45.8296" lon="4.67401">
        <ele>295.33978</ele>
        <time>2022-09-30T12:21:32.000Z</time>
      </trkpt>
      <trkpt lat="45.82963" lon="4.67393">
        <ele>295.09943</ele>
        <time>2022-09-30T12:21:33.000Z</time>
      </trkpt>
      <trkpt lat="45.82966" lon="4.67386">
        <ele>294.94461</ele>
        <time>2022-09-30T12:21:34.000Z</time>
      </trkpt>
      <trkpt lat="45.82971" lon="4.67379">
        <ele>294.71378</ele>
        <time>2022-09-30T12:21:35.000Z</time>
      </trkpt>
      <trkpt lat="45.82974" lon="4.67371">
        <ele>294.44</ele>
        <time>2022-09-30T12:21:36.000Z</time>
      </trkpt>
      <trkpt lat="45.82978" lon="4.67364">
        <ele>294.19995</ele>
        <time>2022-09-30T12:21:37.000Z</time>
      </trkpt>
      <trkpt lat="45.82982" lon="4.67357">
        <ele>293.84784</ele>
        <time>2022-09-30T12:21:38.000Z</time>
      </trkpt>
      <trkpt lat="45.82986" lon="4.67349">
        <ele>293.50266</ele>
        <time>2022-09-30T12:21:39.000Z</time>
      </trkpt>
      <trkpt lat="45.82989" lon="4.67341">
        <ele>293.17041</ele>
        <time>2022-09-30T12:21:40.000Z</time>
      </trkpt>
      <trkpt lat="45.82994" lon="4.67335">
        <ele>292.84772</ele>
        <time>2022-09-30T12:21:41.000Z</time>
      </trkpt>
      <trkpt lat="45.82997" lon="4.67325">
        <ele>292.66495</ele>
        <time>2022-09-30T12:21:42.000Z</time>
      </trkpt>
      <trkpt lat="45.83" lon="4.67316">
        <ele>292.51617</ele>
        <time>2022-09-30T12:21:43.000Z</time>
      </trkpt>
      <trkpt lat="45.83003" lon="4.6731">
        <ele>292.46515</ele>
        <time>2022-09-30T12:21:44.000Z</time>
      </trkpt>
      <trkpt lat="45.83005" lon="4.67301">
        <ele>292.43964</ele>
        <time>2022-09-30T12:21:45.000Z</time>
      </trkpt>
      <trkpt lat="45.83009" lon="4.67293">
        <ele>292.36505</ele>
        <time>2022-09-30T12:21:46.000Z</time>
      </trkpt>
      <trkpt lat="45.83012" lon="4.67286">
        <ele>292.2403</ele>
        <time>2022-09-30T12:21:47.000Z</time>
      </trkpt>
      <trkpt lat="45.83011" lon="4.67275">
        <ele>292.27081</ele>
        <time>2022-09-30T12:21:48.000Z</time>
      </trkpt>
      <trkpt lat="45.83013" lon="4.67267">
        <ele>292.33554</ele>
        <time>2022-09-30T12:21:49.000Z</time>
      </trkpt>
      <trkpt lat="45.83014" lon="4.6726">
        <ele>292.49695</ele>
        <time>2022-09-30T12:21:50.000Z</time>
      </trkpt>
      <trkpt lat="45.83018" lon="4.67252">
        <ele>292.60886</ele>
        <time>2022-09-30T12:21:51.000Z</time>
      </trkpt>
      <trkpt lat="45.8302" lon="4.67245">
        <ele>292.77386</ele>
        <time>2022-09-30T12:21:52.000Z</time>
      </trkpt>
      <trkpt lat="45.83022" lon="4.67239">
        <ele>292.939</ele>
        <time>2022-09-30T12:21:53.000Z</time>
      </trkpt>
      <trkpt lat="45.83025" lon="4.67231">
        <ele>293.07599</ele>
        <time>2022-09-30T12:21:54.000Z</time>
      </trkpt>
      <trkpt lat="45.83027" lon="4.67224">
        <ele>293.29535</ele>
        <time>2022-09-30T12:21:55.000Z</time>
      </trkpt>
      <trkpt lat="45.83029" lon="4.67218">
        <ele>293.55841</ele>
        <time>2022-09-30T12:21:56.000Z</time>
      </trkpt>
      <trkpt lat="45.83031" lon="4.67212">
        <ele>293.7782</ele>
        <time>2022-09-30T12:21:57.000Z</time>
      </trkpt>
      <trkpt lat="45.83032" lon="4.67207">
        <ele>294.0787</ele>
        <time>2022-09-30T12:21:58.000Z</time>
      </trkpt>
      <trkpt lat="45.83034" lon="4.672">
        <ele>294.38138</ele>
        <time>2022-09-30T12:21:59.000Z</time>
      </trkpt>
      <trkpt lat="45.83034" lon="4.67193">
        <ele>294.69162</ele>
        <time>2022-09-30T12:22:00.000Z</time>
      </trkpt>
      <trkpt lat="45.83033" lon="4.67188">
        <ele>294.9881</ele>
        <time>2022-09-30T12:22:01.000Z</time>
      </trkpt>
      <trkpt lat="45.83032" lon="4.6718">
        <ele>295.18192</ele>
        <time>2022-09-30T12:22:02.000Z</time>
      </trkpt>
      <trkpt lat="45.8303" lon="4.67175">
        <ele>295.29178</ele>
        <time>2022-09-30T12:22:03.000Z</time>
      </trkpt>
      <trkpt lat="45.83026" lon="4.67169">
        <ele>295.37677</ele>
        <time>2022-09-30T12:22:04.000Z</time>
      </trkpt>
      <trkpt lat="45.83021" lon="4.67162">
        <ele>295.45834</ele>
        <time>2022-09-30T12:22:05.000Z</time>
      </trkpt>
      <trkpt lat="45.83019" lon="4.67157">
        <ele>295.56982</ele>
        <time>2022-09-30T12:22:06.000Z</time>
      </trkpt>
      <trkpt lat="45.83016" lon="4.67153">
        <ele>295.68683</ele>
        <time>2022-09-30T12:22:07.000Z</time>
      </trkpt>
      <trkpt lat="45.83013" lon="4.67147">
        <ele>295.65118</ele>
        <time>2022-09-30T12:22:08.000Z</time>
      </trkpt>
      <trkpt lat="45.83011" lon="4.67142">
        <ele>295.66721</ele>
        <time>2022-09-30T12:22:09.000Z</time>
      </trkpt>
      <trkpt lat="45.83009" lon="4.67137">
        <ele>295.70032</ele>
        <time>2022-09-30T12:22:10.000Z</time>
      </trkpt>
      <trkpt lat="45.83007" lon="4.67133">
        <ele>295.75281</ele>
        <time>2022-09-30T12:22:11.000Z</time>
      </trkpt>
      <trkpt lat="45.83006" lon="4.67128">
        <ele>295.80969</ele>
        <time>2022-09-30T12:22:12.000Z</time>
      </trkpt>
      <trkpt lat="45.83004" lon="4.67122">
        <ele>295.84344</ele>
        <time>2022-09-30T12:22:13.000Z</time>
      </trkpt>
      <trkpt lat="45.83003" lon="4.67117">
        <ele>295.87274</ele>
        <time>2022-09-30T12:22:14.000Z</time>
      </trkpt>
      <trkpt lat="45.83001" lon="4.6711">
        <ele>295.87314</ele>
        <time>2022-09-30T12:22:15.000Z</time>
      </trkpt>
      <trkpt lat="45.82999" lon="4.67105">
        <ele>295.91693</ele>
        <time>2022-09-30T12:22:16.000Z</time>
      </trkpt>
      <trkpt lat="45.82998" lon="4.67099">
        <ele>295.92398</ele>
        <time>2022-09-30T12:22:17.000Z</time>
      </trkpt>
      <trkpt lat="45.83" lon="4.67091">
        <ele>295.80853</ele>
        <time>2022-09-30T12:22:18.000Z</time>
      </trkpt>
      <trkpt lat="45.82999" lon="4.67085">
        <ele>295.67535</ele>
        <time>2022-09-30T12:22:19.000Z</time>
      </trkpt>
      <trkpt lat="45.82999" lon="4.67079">
        <ele>295.55322</ele>
        <time>2022-09-30T12:22:20.000Z</time>
      </trkpt>
      <trkpt lat="45.82999" lon="4.67073">
        <ele>295.534</ele>
        <time>2022-09-30T12:22:21.000Z</time>
      </trkpt>
      <trkpt lat="45.83001" lon="4.67067">
        <ele>295.47687</ele>
        <time>2022-09-30T12:22:22.000Z</time>
      </trkpt>
      <trkpt lat="45.83002" lon="4.67061">
        <ele>295.46967</ele>
        <time>2022-09-30T12:22:23.000Z</time>
      </trkpt>
      <trkpt lat="45.83004" lon="4.67055">
        <ele>295.43887</ele>
        <time>2022-09-30T12:22:24.000Z</time>
      </trkpt>
      <trkpt lat="45.83004" lon="4.6705">
        <ele>295.35989</ele>
        <time>2022-09-30T12:22:25.000Z</time>
      </trkpt>
      <trkpt lat="45.83005" lon="4.67044">
        <ele>295.34933</ele>
        <time>2022-09-30T12:22:26.000Z</time>
      </trkpt>
      <trkpt lat="45.83006" lon="4.67038">
        <ele>295.44095</ele>
        <time>2022-09-30T12:22:27.000Z</time>
      </trkpt>
      <trkpt lat="45.83006" lon="4.67034">
        <ele>295.54535</ele>
        <time>2022-09-30T12:22:28.000Z</time>
      </trkpt>
      <trkpt lat="45.83007" lon="4.67029">
        <ele>295.58536</ele>
        <time>2022-09-30T12:22:29.000Z</time>
      </trkpt>
      <trkpt lat="45.83007" lon="4.67023">
        <ele>295.61557</ele>
        <time>2022-09-30T12:22:30.000Z</time>
      </trkpt>
      <trkpt lat="45.83008" lon="4.67018">
        <ele>295.63208</ele>
        <time>2022-09-30T12:22:31.000Z</time>
      </trkpt>
      <trkpt lat="45.83008" lon="4.67012">
        <ele>295.57678</ele>
        <time>2022-09-30T12:22:32.000Z</time>
      </trkpt>
      <trkpt lat="45.83009" lon="4.67008">
        <ele>295.57678</ele>
        <time>2022-09-30T12:22:33.000Z</time>
      </trkpt>
      <trkpt lat="45.83009" lon="4.67003">
        <ele>295.61099</ele>
        <time>2022-09-30T12:22:34.000Z</time>
      </trkpt>
      <trkpt lat="45.8301" lon="4.66997">
        <ele>295.66833</ele>
        <time>2022-09-30T12:22:35.000Z</time>
      </trkpt>
      <trkpt lat="45.8301" lon="4.66992">
        <ele>295.69824</ele>
        <time>2022-09-30T12:22:36.000Z</time>
      </trkpt>
      <trkpt lat="45.8301" lon="4.66986">
        <ele>295.83463</ele>
        <time>2022-09-30T12:22:37.000Z</time>
      </trkpt>
      <trkpt lat="45.83011" lon="4.6698">
        <ele>295.98959</ele>
        <time>2022-09-30T12:22:38.000Z</time>
      </trkpt>
      <trkpt lat="45.83012" lon="4.66974">
        <ele>296.20209</ele>
        <time>2022-09-30T12:22:39.000Z</time>
      </trkpt>
      <trkpt lat="45.83012" lon="4.66969">
        <ele>296.40433</ele>
        <time>2022-09-30T12:22:40.000Z</time>
      </trkpt>
      <trkpt lat="45.83012" lon="4.66964">
        <ele>296.5574</ele>
        <time>2022-09-30T12:22:41.000Z</time>
      </trkpt>
      <trkpt lat="45.83012" lon="4.66958">
        <ele>296.83209</ele>
        <time>2022-09-30T12:22:42.000Z</time>
      </trkpt>
      <trkpt lat="45.83012" lon="4.66953">
        <ele>297.13913</ele>
        <time>2022-09-30T12:22:43.000Z</time>
      </trkpt>
      <trkpt lat="45.83011" lon="4.66948">
        <ele>297.4902</ele>
        <time>2022-09-30T12:22:44.000Z</time>
      </trkpt>
      <trkpt lat="45.8301" lon="4.66943">
        <ele>297.89905</ele>
        <time>2022-09-30T12:22:45.000Z</time>
      </trkpt>
      <trkpt lat="45.8301" lon="4.66937">
        <ele>298.31705</ele>
        <time>2022-09-30T12:22:46.000Z</time>
      </trkpt>
      <trkpt lat="45.83009" lon="4.66932">
        <ele>298.6506</ele>
        <time>2022-09-30T12:22:47.000Z</time>
      </trkpt>
      <trkpt lat="45.83009" lon="4.66926">
        <ele>298.99026</ele>
        <time>2022-09-30T12:22:48.000Z</time>
      </trkpt>
      <trkpt lat="45.83009" lon="4.66921">
        <ele>299.3139</ele>
        <time>2022-09-30T12:22:49.000Z</time>
      </trkpt>
      <trkpt lat="45.83009" lon="4.66915">
        <ele>299.72849</ele>
        <time>2022-09-30T12:22:50.000Z</time>
      </trkpt>
      <trkpt lat="45.8301" lon="4.6691">
        <ele>300.28928</ele>
        <time>2022-09-30T12:22:51.000Z</time>
      </trkpt>
      <trkpt lat="45.83012" lon="4.66904">
        <ele>300.8642</ele>
        <time>2022-09-30T12:22:52.000Z</time>
      </trkpt>
      <trkpt lat="45.83013" lon="4.66899">
        <ele>301.47116</ele>
        <time>2022-09-30T12:22:53.000Z</time>
      </trkpt>
      <trkpt lat="45.83015" lon="4.66893">
        <ele>302.06781</ele>
        <time>2022-09-30T12:22:54.000Z</time>
      </trkpt>
      <trkpt lat="45.83017" lon="4.66888">
        <ele>302.6236</ele>
        <time>2022-09-30T12:22:55.000Z</time>
      </trkpt>
      <trkpt lat="45.83018" lon="4.66882">
        <ele>303.15778</ele>
        <time>2022-09-30T12:22:56.000Z</time>
      </trkpt>
      <trkpt lat="45.83018" lon="4.66876">
        <ele>303.63257</ele>
        <time>2022-09-30T12:22:57.000Z</time>
      </trkpt>
      <trkpt lat="45.83019" lon="4.66871">
        <ele>304.1236</ele>
        <time>2022-09-30T12:22:58.000Z</time>
      </trkpt>
      <trkpt lat="45.8302" lon="4.66865">
        <ele>304.57587</ele>
        <time>2022-09-30T12:22:59.000Z</time>
      </trkpt>
      <trkpt lat="45.83021" lon="4.66859">
        <ele>305.03467</ele>
        <time>2022-09-30T12:23:00.000Z</time>
      </trkpt>
      <trkpt lat="45.83021" lon="4.66854">
        <ele>305.474</ele>
        <time>2022-09-30T12:23:01.000Z</time>
      </trkpt>
      <trkpt lat="45.83022" lon="4.66849">
        <ele>305.85452</ele>
        <time>2022-09-30T12:23:02.000Z</time>
      </trkpt>
      <trkpt lat="45.83023" lon="4.66845">
        <ele>306.34613</ele>
        <time>2022-09-30T12:23:03.000Z</time>
      </trkpt>
      <trkpt lat="45.83026" lon="4.66843">
        <ele>306.79401</ele>
        <time>2022-09-30T12:23:05.000Z</time>
      </trkpt>
      <trkpt lat="45.83029" lon="4.66844">
        <ele>307.21277</ele>
        <time>2022-09-30T12:23:06.000Z</time>
      </trkpt>
      <trkpt lat="45.83032" lon="4.66845">
        <ele>307.60187</ele>
        <time>2022-09-30T12:23:07.000Z</time>
      </trkpt>
      <trkpt lat="45.83035" lon="4.66847">
        <ele>308.04797</ele>
        <time>2022-09-30T12:23:08.000Z</time>
      </trkpt>
      <trkpt lat="45.83038" lon="4.66848">
        <ele>308.46414</ele>
        <time>2022-09-30T12:23:09.000Z</time>
      </trkpt>
      <trkpt lat="45.83042" lon="4.66849">
        <ele>308.86658</ele>
        <time>2022-09-30T12:23:10.000Z</time>
      </trkpt>
      <trkpt lat="45.83046" lon="4.66849">
        <ele>309.18622</ele>
        <time>2022-09-30T12:23:11.000Z</time>
      </trkpt>
      <trkpt lat="45.83049" lon="4.66848">
        <ele>309.40192</ele>
        <time>2022-09-30T12:23:12.000Z</time>
      </trkpt>
      <trkpt lat="45.83054" lon="4.66849">
        <ele>309.70343</ele>
        <time>2022-09-30T12:23:13.000Z</time>
      </trkpt>
      <trkpt lat="45.83059" lon="4.66854">
        <ele>309.94382</ele>
        <time>2022-09-30T12:23:14.000Z</time>
      </trkpt>
      <trkpt lat="45.83065" lon="4.66855">
        <ele>310.11179</ele>
        <time>2022-09-30T12:23:15.000Z</time>
      </trkpt>
      <trkpt lat="45.83069" lon="4.66856">
        <ele>310.2879</ele>
        <time>2022-09-30T12:23:16.000Z</time>
      </trkpt>
      <trkpt lat="45.83074" lon="4.6686">
        <ele>310.39444</ele>
        <time>2022-09-30T12:23:17.000Z</time>
      </trkpt>
      <trkpt lat="45.83079" lon="4.66862">
        <ele>310.49408</ele>
        <time>2022-09-30T12:23:18.000Z</time>
      </trkpt>
      <trkpt lat="45.83084" lon="4.66863">
        <ele>310.57269</ele>
        <time>2022-09-30T12:23:19.000Z</time>
      </trkpt>
      <trkpt lat="45.83089" lon="4.66865">
        <ele>310.66733</ele>
        <time>2022-09-30T12:23:20.000Z</time>
      </trkpt>
      <trkpt lat="45.83094" lon="4.66869">
        <ele>310.73773</ele>
        <time>2022-09-30T12:23:21.000Z</time>
      </trkpt>
      <trkpt lat="45.83099" lon="4.66869">
        <ele>310.80219</ele>
        <time>2022-09-30T12:23:22.000Z</time>
      </trkpt>
      <trkpt lat="45.83105" lon="4.66873">
        <ele>310.90982</ele>
        <time>2022-09-30T12:23:23.000Z</time>
      </trkpt>
      <trkpt lat="45.8311" lon="4.66877">
        <ele>310.88062</ele>
        <time>2022-09-30T12:23:24.000Z</time>
      </trkpt>
      <trkpt lat="45.83115" lon="4.66884">
        <ele>310.78583</ele>
        <time>2022-09-30T12:23:25.000Z</time>
      </trkpt>
      <trkpt lat="45.83121" lon="4.6689">
        <ele>310.68555</ele>
        <time>2022-09-30T12:23:26.000Z</time>
      </trkpt>
      <trkpt lat="45.83126" lon="4.66893">
        <ele>310.59659</ele>
        <time>2022-09-30T12:23:27.000Z</time>
      </trkpt>
      <trkpt lat="45.83133" lon="4.66898">
        <ele>310.30176</ele>
        <time>2022-09-30T12:23:28.000Z</time>
      </trkpt>
      <trkpt lat="45.83139" lon="4.66903">
        <ele>310.01785</ele>
        <time>2022-09-30T12:23:29.000Z</time>
      </trkpt>
      <trkpt lat="45.83144" lon="4.66907">
        <ele>309.77594</ele>
        <time>2022-09-30T12:23:30.000Z</time>
      </trkpt>
      <trkpt lat="45.8315" lon="4.66909">
        <ele>309.55759</ele>
        <time>2022-09-30T12:23:31.000Z</time>
      </trkpt>
      <trkpt lat="45.83156" lon="4.66913">
        <ele>309.35852</ele>
        <time>2022-09-30T12:23:32.000Z</time>
      </trkpt>
      <trkpt lat="45.83162" lon="4.66916">
        <ele>309.11182</ele>
        <time>2022-09-30T12:23:33.000Z</time>
      </trkpt>
      <trkpt lat="45.83169" lon="4.66919">
        <ele>308.79706</ele>
        <time>2022-09-30T12:23:34.000Z</time>
      </trkpt>
      <trkpt lat="45.83176" lon="4.66923">
        <ele>308.43243</ele>
        <time>2022-09-30T12:23:35.000Z</time>
      </trkpt>
      <trkpt lat="45.83183" lon="4.66928">
        <ele>307.94958</ele>
        <time>2022-09-30T12:23:36.000Z</time>
      </trkpt>
      <trkpt lat="45.8319" lon="4.6693">
        <ele>307.46503</ele>
        <time>2022-09-30T12:23:37.000Z</time>
      </trkpt>
      <trkpt lat="45.83195" lon="4.66932">
        <ele>306.93585</ele>
        <time>2022-09-30T12:23:38.000Z</time>
      </trkpt>
      <trkpt lat="45.83203" lon="4.66936">
        <ele>306.41571</ele>
        <time>2022-09-30T12:23:39.000Z</time>
      </trkpt>
      <trkpt lat="45.83209" lon="4.6694">
        <ele>305.86383</ele>
        <time>2022-09-30T12:23:40.000Z</time>
      </trkpt>
      <trkpt lat="45.83216" lon="4.66944">
        <ele>305.28024</ele>
        <time>2022-09-30T12:23:41.000Z</time>
      </trkpt>
      <trkpt lat="45.83222" lon="4.66947">
        <ele>304.72488</ele>
        <time>2022-09-30T12:23:42.000Z</time>
      </trkpt>
      <trkpt lat="45.83229" lon="4.6695">
        <ele>304.11264</ele>
        <time>2022-09-30T12:23:43.000Z</time>
      </trkpt>
      <trkpt lat="45.83234" lon="4.66952">
        <ele>303.51077</ele>
        <time>2022-09-30T12:23:44.000Z</time>
      </trkpt>
      <trkpt lat="45.83241" lon="4.66955">
        <ele>303.00992</ele>
        <time>2022-09-30T12:23:45.000Z</time>
      </trkpt>
      <trkpt lat="45.83247" lon="4.66959">
        <ele>302.51639</ele>
        <time>2022-09-30T12:23:46.000Z</time>
      </trkpt>
      <trkpt lat="45.83253" lon="4.66961">
        <ele>302.02496</ele>
        <time>2022-09-30T12:23:47.000Z</time>
      </trkpt>
      <trkpt lat="45.83259" lon="4.66965">
        <ele>301.6868</ele>
        <time>2022-09-30T12:23:48.000Z</time>
      </trkpt>
      <trkpt lat="45.83264" lon="4.66968">
        <ele>301.39142</ele>
        <time>2022-09-30T12:23:49.000Z</time>
      </trkpt>
      <trkpt lat="45.83271" lon="4.6697">
        <ele>301.06747</ele>
        <time>2022-09-30T12:23:50.000Z</time>
      </trkpt>
      <trkpt lat="45.83277" lon="4.66972">
        <ele>300.71255</ele>
        <time>2022-09-30T12:23:51.000Z</time>
      </trkpt>
      <trkpt lat="45.83282" lon="4.66975">
        <ele>300.34567</ele>
        <time>2022-09-30T12:23:52.000Z</time>
      </trkpt>
      <trkpt lat="45.83288" lon="4.66976">
        <ele>300.03412</ele>
        <time>2022-09-30T12:23:53.000Z</time>
      </trkpt>
      <trkpt lat="45.83294" lon="4.66978">
        <ele>299.7691</ele>
        <time>2022-09-30T12:23:54.000Z</time>
      </trkpt>
      <trkpt lat="45.833" lon="4.66978">
        <ele>299.72128</ele>
        <time>2022-09-30T12:23:55.000Z</time>
      </trkpt>
      <trkpt lat="45.83307" lon="4.6698">
        <ele>299.71204</ele>
        <time>2022-09-30T12:23:56.000Z</time>
      </trkpt>
      <trkpt lat="45.83314" lon="4.66981">
        <ele>299.74542</ele>
        <time>2022-09-30T12:23:57.000Z</time>
      </trkpt>
      <trkpt lat="45.8332" lon="4.66983">
        <ele>299.76758</ele>
        <time>2022-09-30T12:23:58.000Z</time>
      </trkpt>
      <trkpt lat="45.83326" lon="4.66982">
        <ele>299.82367</ele>
        <time>2022-09-30T12:23:59.000Z</time>
      </trkpt>
      <trkpt lat="45.83331" lon="4.66981">
        <ele>299.92737</ele>
        <time>2022-09-30T12:24:00.000Z</time>
      </trkpt>
      <trkpt lat="45.83336" lon="4.6698">
        <ele>300.0502</ele>
        <time>2022-09-30T12:24:01.000Z</time>
      </trkpt>
      <trkpt lat="45.83342" lon="4.6698">
        <ele>300.10498</ele>
        <time>2022-09-30T12:24:02.000Z</time>
      </trkpt>
      <trkpt lat="45.83347" lon="4.66979">
        <ele>300.20981</ele>
        <time>2022-09-30T12:24:03.000Z</time>
      </trkpt>
      <trkpt lat="45.83352" lon="4.66978">
        <ele>300.40271</ele>
        <time>2022-09-30T12:24:04.000Z</time>
      </trkpt>
      <trkpt lat="45.83357" lon="4.66978">
        <ele>300.58942</ele>
        <time>2022-09-30T12:24:05.000Z</time>
      </trkpt>
      <trkpt lat="45.83362" lon="4.66978">
        <ele>300.8595</ele>
        <time>2022-09-30T12:24:06.000Z</time>
      </trkpt>
      <trkpt lat="45.83367" lon="4.66983">
        <ele>301.0661</ele>
        <time>2022-09-30T12:24:07.000Z</time>
      </trkpt>
      <trkpt lat="45.83372" lon="4.66987">
        <ele>301.30573</ele>
        <time>2022-09-30T12:24:08.000Z</time>
      </trkpt>
      <trkpt lat="45.83375" lon="4.66994">
        <ele>301.51852</ele>
        <time>2022-09-30T12:24:09.000Z</time>
      </trkpt>
      <trkpt lat="45.83377" lon="4.67004">
        <ele>301.73737</ele>
        <time>2022-09-30T12:24:10.000Z</time>
      </trkpt>
      <trkpt lat="45.83377" lon="4.67011">
        <ele>301.96191</ele>
        <time>2022-09-30T12:24:11.000Z</time>
      </trkpt>
      <trkpt lat="45.83375" lon="4.67017">
        <ele>302.18329</ele>
        <time>2022-09-30T12:24:12.000Z</time>
      </trkpt>
      <trkpt lat="45.83376" lon="4.67025">
        <ele>302.40399</ele>
        <time>2022-09-30T12:24:13.000Z</time>
      </trkpt>
      <trkpt lat="45.83372" lon="4.67031">
        <ele>302.5957</ele>
        <time>2022-09-30T12:24:14.000Z</time>
      </trkpt>
      <trkpt lat="45.83374" lon="4.6704">
        <ele>302.67035</ele>
        <time>2022-09-30T12:24:15.000Z</time>
      </trkpt>
      <trkpt lat="45.83377" lon="4.67047">
        <ele>302.78952</ele>
        <time>2022-09-30T12:24:16.000Z</time>
      </trkpt>
      <trkpt lat="45.83381" lon="4.67053">
        <ele>302.93253</ele>
        <time>2022-09-30T12:24:17.000Z</time>
      </trkpt>
      <trkpt lat="45.83385" lon="4.67056">
        <ele>303.14719</ele>
        <time>2022-09-30T12:24:18.000Z</time>
      </trkpt>
      <trkpt lat="45.83389" lon="4.67061">
        <ele>303.40918</ele>
        <time>2022-09-30T12:24:19.000Z</time>
      </trkpt>
      <trkpt lat="45.83393" lon="4.67067">
        <ele>303.61322</ele>
        <time>2022-09-30T12:24:20.000Z</time>
      </trkpt>
      <trkpt lat="45.83398" lon="4.67073">
        <ele>303.76782</ele>
        <time>2022-09-30T12:24:21.000Z</time>
      </trkpt>
      <trkpt lat="45.83403" lon="4.67076">
        <ele>303.98401</ele>
        <time>2022-09-30T12:24:22.000Z</time>
      </trkpt>
      <trkpt lat="45.83409" lon="4.67081">
        <ele>304.11868</ele>
        <time>2022-09-30T12:24:23.000Z</time>
      </trkpt>
      <trkpt lat="45.83414" lon="4.67085">
        <ele>304.142</ele>
        <time>2022-09-30T12:24:24.000Z</time>
      </trkpt>
      <trkpt lat="45.83418" lon="4.6709">
        <ele>304.14722</ele>
        <time>2022-09-30T12:24:25.000Z</time>
      </trkpt>
      <trkpt lat="45.83423" lon="4.67095">
        <ele>304.09122</ele>
        <time>2022-09-30T12:24:26.000Z</time>
      </trkpt>
      <trkpt lat="45.83427" lon="4.67101">
        <ele>304.07953</ele>
        <time>2022-09-30T12:24:27.000Z</time>
      </trkpt>
      <trkpt lat="45.83432" lon="4.67107">
        <ele>304.01041</ele>
        <time>2022-09-30T12:24:28.000Z</time>
      </trkpt>
      <trkpt lat="45.83436" lon="4.67113">
        <ele>303.88324</ele>
        <time>2022-09-30T12:24:29.000Z</time>
      </trkpt>
      <trkpt lat="45.83441" lon="4.67119">
        <ele>303.69232</ele>
        <time>2022-09-30T12:24:30.000Z</time>
      </trkpt>
      <trkpt lat="45.83446" lon="4.67125">
        <ele>303.49973</ele>
        <time>2022-09-30T12:24:31.000Z</time>
      </trkpt>
      <trkpt lat="45.8345" lon="4.6713">
        <ele>303.26538</ele>
        <time>2022-09-30T12:24:32.000Z</time>
      </trkpt>
      <trkpt lat="45.83454" lon="4.67136">
        <ele>303.0192</ele>
        <time>2022-09-30T12:24:33.000Z</time>
      </trkpt>
      <trkpt lat="45.83459" lon="4.67141">
        <ele>302.80466</ele>
        <time>2022-09-30T12:24:34.000Z</time>
      </trkpt>
      <trkpt lat="45.83464" lon="4.67148">
        <ele>302.5463</ele>
        <time>2022-09-30T12:24:35.000Z</time>
      </trkpt>
      <trkpt lat="45.83469" lon="4.67154">
        <ele>302.29944</ele>
        <time>2022-09-30T12:24:36.000Z</time>
      </trkpt>
      <trkpt lat="45.83473" lon="4.67161">
        <ele>302.064</ele>
        <time>2022-09-30T12:24:37.000Z</time>
      </trkpt>
      <trkpt lat="45.83477" lon="4.67168">
        <ele>301.75934</ele>
        <time>2022-09-30T12:24:38.000Z</time>
      </trkpt>
      <trkpt lat="45.83482" lon="4.67174">
        <ele>301.39948</ele>
        <time>2022-09-30T12:24:39.000Z</time>
      </trkpt>
      <trkpt lat="45.83486" lon="4.67182">
        <ele>301.05255</ele>
        <time>2022-09-30T12:24:40.000Z</time>
      </trkpt>
      <trkpt lat="45.83492" lon="4.67187">
        <ele>300.73987</ele>
        <time>2022-09-30T12:24:41.000Z</time>
      </trkpt>
      <trkpt lat="45.83497" lon="4.67196">
        <ele>300.362</ele>
        <time>2022-09-30T12:24:42.000Z</time>
      </trkpt>
      <trkpt lat="45.83502" lon="4.67203">
        <ele>300.01932</ele>
        <time>2022-09-30T12:24:43.000Z</time>
      </trkpt>
      <trkpt lat="45.83508" lon="4.67207">
        <ele>299.65668</ele>
        <time>2022-09-30T12:24:44.000Z</time>
      </trkpt>
      <trkpt lat="45.83514" lon="4.67212">
        <ele>299.26236</ele>
        <time>2022-09-30T12:24:45.000Z</time>
      </trkpt>
      <trkpt lat="45.8352" lon="4.67218">
        <ele>298.81223</ele>
        <time>2022-09-30T12:24:46.000Z</time>
      </trkpt>
      <trkpt lat="45.83526" lon="4.67224">
        <ele>298.32648</ele>
        <time>2022-09-30T12:24:47.000Z</time>
      </trkpt>
      <trkpt lat="45.83532" lon="4.67228">
        <ele>297.78949</ele>
        <time>2022-09-30T12:24:48.000Z</time>
      </trkpt>
      <trkpt lat="45.83538" lon="4.67233">
        <ele>297.31308</ele>
        <time>2022-09-30T12:24:49.000Z</time>
      </trkpt>
      <trkpt lat="45.83544" lon="4.67239">
        <ele>296.89017</ele>
        <time>2022-09-30T12:24:50.000Z</time>
      </trkpt>
      <trkpt lat="45.83551" lon="4.67247">
        <ele>296.38431</ele>
        <time>2022-09-30T12:24:51.000Z</time>
      </trkpt>
      <trkpt lat="45.83557" lon="4.67251">
        <ele>295.87012</ele>
        <time>2022-09-30T12:24:52.000Z</time>
      </trkpt>
      <trkpt lat="45.83563" lon="4.67255">
        <ele>295.28528</ele>
        <time>2022-09-30T12:24:53.000Z</time>
      </trkpt>
      <trkpt lat="45.83569" lon="4.6726">
        <ele>294.71033</ele>
        <time>2022-09-30T12:24:54.000Z</time>
      </trkpt>
      <trkpt lat="45.83574" lon="4.67266">
        <ele>294.17621</ele>
        <time>2022-09-30T12:24:55.000Z</time>
      </trkpt>
      <trkpt lat="45.8358" lon="4.67272">
        <ele>293.57333</ele>
        <time>2022-09-30T12:24:56.000Z</time>
      </trkpt>
      <trkpt lat="45.83586" lon="4.67277">
        <ele>292.92639</ele>
        <time>2022-09-30T12:24:57.000Z</time>
      </trkpt>
      <trkpt lat="45.83591" lon="4.67281">
        <ele>292.32281</ele>
        <time>2022-09-30T12:24:58.000Z</time>
      </trkpt>
      <trkpt lat="45.83598" lon="4.67283">
        <ele>291.67218</ele>
        <time>2022-09-30T12:24:59.000Z</time>
      </trkpt>
      <trkpt lat="45.83604" lon="4.67288">
        <ele>291.03729</ele>
        <time>2022-09-30T12:25:00.000Z</time>
      </trkpt>
      <trkpt lat="45.83611" lon="4.67293">
        <ele>290.3782</ele>
        <time>2022-09-30T12:25:01.000Z</time>
      </trkpt>
      <trkpt lat="45.83616" lon="4.67299">
        <ele>289.7699</ele>
        <time>2022-09-30T12:25:02.000Z</time>
      </trkpt>
      <trkpt lat="45.83623" lon="4.67302">
        <ele>289.18182</ele>
        <time>2022-09-30T12:25:03.000Z</time>
      </trkpt>
      <trkpt lat="45.83658" lon="4.67327">
        <ele>288.64203</ele>
        <time>2022-09-30T12:25:09.000Z</time>
      </trkpt>
      <trkpt lat="45.83664" lon="4.67332">
        <ele>288.13278</ele>
        <time>2022-09-30T12:25:10.000Z</time>
      </trkpt>
      <trkpt lat="45.8367" lon="4.67336">
        <ele>287.69269</ele>
        <time>2022-09-30T12:25:11.000Z</time>
      </trkpt>
      <trkpt lat="45.83676" lon="4.67341">
        <ele>287.25174</ele>
        <time>2022-09-30T12:25:12.000Z</time>
      </trkpt>
      <trkpt lat="45.83682" lon="4.67345">
        <ele>286.89804</ele>
        <time>2022-09-30T12:25:13.000Z</time>
      </trkpt>
      <trkpt lat="45.83688" lon="4.67351">
        <ele>286.53854</ele>
        <time>2022-09-30T12:25:14.000Z</time>
      </trkpt>
      <trkpt lat="45.83694" lon="4.67355">
        <ele>286.20319</ele>
        <time>2022-09-30T12:25:15.000Z</time>
      </trkpt>
      <trkpt lat="45.837" lon="4.67358">
        <ele>285.92502</ele>
        <time>2022-09-30T12:25:16.000Z</time>
      </trkpt>
      <trkpt lat="45.83705" lon="4.67362">
        <ele>285.65445</ele>
        <time>2022-09-30T12:25:17.000Z</time>
      </trkpt>
      <trkpt lat="45.8371" lon="4.67367">
        <ele>285.40839</ele>
        <time>2022-09-30T12:25:18.000Z</time>
      </trkpt>
      <trkpt lat="45.83717" lon="4.67371">
        <ele>285.16818</ele>
        <time>2022-09-30T12:25:19.000Z</time>
      </trkpt>
      <trkpt lat="45.83722" lon="4.67376">
        <ele>284.90787</ele>
        <time>2022-09-30T12:25:20.000Z</time>
      </trkpt>
      <trkpt lat="45.83728" lon="4.6738">
        <ele>284.75702</ele>
        <time>2022-09-30T12:25:21.000Z</time>
      </trkpt>
      <trkpt lat="45.83733" lon="4.67383">
        <ele>284.65204</ele>
        <time>2022-09-30T12:25:22.000Z</time>
      </trkpt>
      <trkpt lat="45.8374" lon="4.67386">
        <ele>284.60345</ele>
        <time>2022-09-30T12:25:23.000Z</time>
      </trkpt>
      <trkpt lat="45.83745" lon="4.6739">
        <ele>284.62961</ele>
        <time>2022-09-30T12:25:24.000Z</time>
      </trkpt>
      <trkpt lat="45.83751" lon="4.67394">
        <ele>284.63168</ele>
        <time>2022-09-30T12:25:25.000Z</time>
      </trkpt>
      <trkpt lat="45.83756" lon="4.67398">
        <ele>284.66913</ele>
        <time>2022-09-30T12:25:26.000Z</time>
      </trkpt>
      <trkpt lat="45.83763" lon="4.67401">
        <ele>284.65738</ele>
        <time>2022-09-30T12:25:27.000Z</time>
      </trkpt>
      <trkpt lat="45.83768" lon="4.67408">
        <ele>284.61496</ele>
        <time>2022-09-30T12:25:28.000Z</time>
      </trkpt>
      <trkpt lat="45.83774" lon="4.67411">
        <ele>284.57874</ele>
        <time>2022-09-30T12:25:29.000Z</time>
      </trkpt>
      <trkpt lat="45.83781" lon="4.67414">
        <ele>284.52606</ele>
        <time>2022-09-30T12:25:30.000Z</time>
      </trkpt>
      <trkpt lat="45.83787" lon="4.67416">
        <ele>284.45367</ele>
        <time>2022-09-30T12:25:31.000Z</time>
      </trkpt>
      <trkpt lat="45.83794" lon="4.67418">
        <ele>284.41714</ele>
        <time>2022-09-30T12:25:32.000Z</time>
      </trkpt>
      <trkpt lat="45.838" lon="4.6742">
        <ele>284.4263</ele>
        <time>2022-09-30T12:25:33.000Z</time>
      </trkpt>
      <trkpt lat="45.83805" lon="4.67422">
        <ele>284.40778</ele>
        <time>2022-09-30T12:25:34.000Z</time>
      </trkpt>
      <trkpt lat="45.83812" lon="4.67424">
        <ele>284.32239</ele>
        <time>2022-09-30T12:25:35.000Z</time>
      </trkpt>
      <trkpt lat="45.83819" lon="4.67427">
        <ele>284.24292</ele>
        <time>2022-09-30T12:25:36.000Z</time>
      </trkpt>
      <trkpt lat="45.83825" lon="4.6743">
        <ele>284.16827</ele>
        <time>2022-09-30T12:25:37.000Z</time>
      </trkpt>
      <trkpt lat="45.83831" lon="4.67432">
        <ele>284.07245</ele>
        <time>2022-09-30T12:25:38.000Z</time>
      </trkpt>
      <trkpt lat="45.83837" lon="4.67434">
        <ele>283.96225</ele>
        <time>2022-09-30T12:25:39.000Z</time>
      </trkpt>
      <trkpt lat="45.83843" lon="4.67437">
        <ele>283.88397</ele>
        <time>2022-09-30T12:25:40.000Z</time>
      </trkpt>
      <trkpt lat="45.8385" lon="4.67439">
        <ele>283.7713</ele>
        <time>2022-09-30T12:25:41.000Z</time>
      </trkpt>
      <trkpt lat="45.83855" lon="4.67444">
        <ele>283.66696</ele>
        <time>2022-09-30T12:25:42.000Z</time>
      </trkpt>
      <trkpt lat="45.83862" lon="4.67447">
        <ele>283.53589</ele>
        <time>2022-09-30T12:25:43.000Z</time>
      </trkpt>
      <trkpt lat="45.83868" lon="4.6745">
        <ele>283.38586</ele>
        <time>2022-09-30T12:25:44.000Z</time>
      </trkpt>
      <trkpt lat="45.83875" lon="4.67451">
        <ele>283.26804</ele>
        <time>2022-09-30T12:25:45.000Z</time>
      </trkpt>
      <trkpt lat="45.83881" lon="4.67455">
        <ele>283.15338</ele>
        <time>2022-09-30T12:25:46.000Z</time>
      </trkpt>
      <trkpt lat="45.83888" lon="4.67458">
        <ele>283.0484</ele>
        <time>2022-09-30T12:25:47.000Z</time>
      </trkpt>
      <trkpt lat="45.83895" lon="4.67459">
        <ele>282.93207</ele>
        <time>2022-09-30T12:25:48.000Z</time>
      </trkpt>
      <trkpt lat="45.83901" lon="4.67462">
        <ele>282.83411</ele>
        <time>2022-09-30T12:25:49.000Z</time>
      </trkpt>
      <trkpt lat="45.83908" lon="4.67464">
        <ele>282.7366</ele>
        <time>2022-09-30T12:25:50.000Z</time>
      </trkpt>
      <trkpt lat="45.83915" lon="4.67467">
        <ele>282.62433</ele>
        <time>2022-09-30T12:25:51.000Z</time>
      </trkpt>
      <trkpt lat="45.83921" lon="4.67469">
        <ele>282.5051</ele>
        <time>2022-09-30T12:25:52.000Z</time>
      </trkpt>
      <trkpt lat="45.83927" lon="4.67471">
        <ele>282.35284</ele>
        <time>2022-09-30T12:25:53.000Z</time>
      </trkpt>
      <trkpt lat="45.83933" lon="4.67473">
        <ele>282.24506</ele>
        <time>2022-09-30T12:25:54.000Z</time>
      </trkpt>
      <trkpt lat="45.83938" lon="4.67476">
        <ele>282.15115</ele>
        <time>2022-09-30T12:25:55.000Z</time>
      </trkpt>
      <trkpt lat="45.83946" lon="4.67478">
        <ele>281.95868</ele>
        <time>2022-09-30T12:25:56.000Z</time>
      </trkpt>
      <trkpt lat="45.83954" lon="4.6748">
        <ele>281.73257</ele>
        <time>2022-09-30T12:25:57.000Z</time>
      </trkpt>
      <trkpt lat="45.83961" lon="4.67483">
        <ele>281.50293</ele>
        <time>2022-09-30T12:25:58.000Z</time>
      </trkpt>
      <trkpt lat="45.83967" lon="4.67484">
        <ele>281.38327</ele>
        <time>2022-09-30T12:25:59.000Z</time>
      </trkpt>
      <trkpt lat="45.83975" lon="4.67484">
        <ele>281.25</ele>
        <time>2022-09-30T12:26:00.000Z</time>
      </trkpt>
      <trkpt lat="45.8398" lon="4.67486">
        <ele>281.14059</ele>
        <time>2022-09-30T12:26:01.000Z</time>
      </trkpt>
      <trkpt lat="45.83986" lon="4.67488">
        <ele>280.99811</ele>
        <time>2022-09-30T12:26:02.000Z</time>
      </trkpt>
      <trkpt lat="45.83992" lon="4.67489">
        <ele>280.83075</ele>
        <time>2022-09-30T12:26:03.000Z</time>
      </trkpt>
      <trkpt lat="45.83998" lon="4.6749">
        <ele>280.68008</ele>
        <time>2022-09-30T12:26:04.000Z</time>
      </trkpt>
      <trkpt lat="45.84005" lon="4.67493">
        <ele>280.52524</ele>
        <time>2022-09-30T12:26:05.000Z</time>
      </trkpt>
      <trkpt lat="45.84011" lon="4.67493">
        <ele>280.38336</ele>
        <time>2022-09-30T12:26:06.000Z</time>
      </trkpt>
      <trkpt lat="45.84017" lon="4.67495">
        <ele>280.28384</ele>
        <time>2022-09-30T12:26:07.000Z</time>
      </trkpt>
      <trkpt lat="45.84023" lon="4.67496">
        <ele>280.20721</ele>
        <time>2022-09-30T12:26:08.000Z</time>
      </trkpt>
      <trkpt lat="45.8403" lon="4.67498">
        <ele>280.10544</ele>
        <time>2022-09-30T12:26:09.000Z</time>
      </trkpt>
      <trkpt lat="45.84036" lon="4.67499">
        <ele>279.9978</ele>
        <time>2022-09-30T12:26:10.000Z</time>
      </trkpt>
      <trkpt lat="45.84042" lon="4.675">
        <ele>279.92691</ele>
        <time>2022-09-30T12:26:11.000Z</time>
      </trkpt>
      <trkpt lat="45.84048" lon="4.67501">
        <ele>279.88733</ele>
        <time>2022-09-30T12:26:12.000Z</time>
      </trkpt>
      <trkpt lat="45.84053" lon="4.67503">
        <ele>279.84644</ele>
        <time>2022-09-30T12:26:13.000Z</time>
      </trkpt>
      <trkpt lat="45.84058" lon="4.67503">
        <ele>279.77225</ele>
        <time>2022-09-30T12:26:14.000Z</time>
      </trkpt>
      <trkpt lat="45.84066" lon="4.67503">
        <ele>279.73648</ele>
        <time>2022-09-30T12:26:15.000Z</time>
      </trkpt>
      <trkpt lat="45.84072" lon="4.67505">
        <ele>279.79504</ele>
        <time>2022-09-30T12:26:16.000Z</time>
      </trkpt>
      <trkpt lat="45.84078" lon="4.67506">
        <ele>279.85638</ele>
        <time>2022-09-30T12:26:17.000Z</time>
      </trkpt>
      <trkpt lat="45.84084" lon="4.67509">
        <ele>279.92447</ele>
        <time>2022-09-30T12:26:18.000Z</time>
      </trkpt>
      <trkpt lat="45.84091" lon="4.67511">
        <ele>279.84653</ele>
        <time>2022-09-30T12:26:19.000Z</time>
      </trkpt>
      <trkpt lat="45.84097" lon="4.67514">
        <ele>279.73236</ele>
        <time>2022-09-30T12:26:20.000Z</time>
      </trkpt>
      <trkpt lat="45.84103" lon="4.67518">
        <ele>279.61227</ele>
        <time>2022-09-30T12:26:21.000Z</time>
      </trkpt>
      <trkpt lat="45.84109" lon="4.67523">
        <ele>279.45325</ele>
        <time>2022-09-30T12:26:22.000Z</time>
      </trkpt>
      <trkpt lat="45.84115" lon="4.67526">
        <ele>279.29672</ele>
        <time>2022-09-30T12:26:23.000Z</time>
      </trkpt>
      <trkpt lat="45.84121" lon="4.67529">
        <ele>279.12137</ele>
        <time>2022-09-30T12:26:24.000Z</time>
      </trkpt>
      <trkpt lat="45.84125" lon="4.67533">
        <ele>278.93161</ele>
        <time>2022-09-30T12:26:25.000Z</time>
      </trkpt>
      <trkpt lat="45.8413" lon="4.67537">
        <ele>278.75409</ele>
        <time>2022-09-30T12:26:26.000Z</time>
      </trkpt>
      <trkpt lat="45.84135" lon="4.67543">
        <ele>278.59058</ele>
        <time>2022-09-30T12:26:27.000Z</time>
      </trkpt>
      <trkpt lat="45.8414" lon="4.67547">
        <ele>278.43933</ele>
        <time>2022-09-30T12:26:28.000Z</time>
      </trkpt>
      <trkpt lat="45.84145" lon="4.67552">
        <ele>278.2876</ele>
        <time>2022-09-30T12:26:29.000Z</time>
      </trkpt>
      <trkpt lat="45.8415" lon="4.67557">
        <ele>278.13898</ele>
        <time>2022-09-30T12:26:30.000Z</time>
      </trkpt>
      <trkpt lat="45.84156" lon="4.6756">
        <ele>277.90973</ele>
        <time>2022-09-30T12:26:31.000Z</time>
      </trkpt>
      <trkpt lat="45.84161" lon="4.67566">
        <ele>277.67584</ele>
        <time>2022-09-30T12:26:32.000Z</time>
      </trkpt>
      <trkpt lat="45.84165" lon="4.67572">
        <ele>277.43683</ele>
        <time>2022-09-30T12:26:33.000Z</time>
      </trkpt>
      <trkpt lat="45.8417" lon="4.67577">
        <ele>277.24734</ele>
        <time>2022-09-30T12:26:34.000Z</time>
      </trkpt>
      <trkpt lat="45.84174" lon="4.67584">
        <ele>277.03787</ele>
        <time>2022-09-30T12:26:35.000Z</time>
      </trkpt>
      <trkpt lat="45.84179" lon="4.67591">
        <ele>276.84613</ele>
        <time>2022-09-30T12:26:36.000Z</time>
      </trkpt>
      <trkpt lat="45.84184" lon="4.67597">
        <ele>276.70865</ele>
        <time>2022-09-30T12:26:37.000Z</time>
      </trkpt>
      <trkpt lat="45.84188" lon="4.67603">
        <ele>276.60236</ele>
        <time>2022-09-30T12:26:38.000Z</time>
      </trkpt>
      <trkpt lat="45.84193" lon="4.67605">
        <ele>276.51141</ele>
        <time>2022-09-30T12:26:39.000Z</time>
      </trkpt>
      <trkpt lat="45.84199" lon="4.67609">
        <ele>276.40121</ele>
        <time>2022-09-30T12:26:40.000Z</time>
      </trkpt>
      <trkpt lat="45.84204" lon="4.67614">
        <ele>276.28772</ele>
        <time>2022-09-30T12:26:41.000Z</time>
      </trkpt>
      <trkpt lat="45.84208" lon="4.6762">
        <ele>276.2218</ele>
        <time>2022-09-30T12:26:42.000Z</time>
      </trkpt>
      <trkpt lat="45.84215" lon="4.67626">
        <ele>276.17642</ele>
        <time>2022-09-30T12:26:43.000Z</time>
      </trkpt>
      <trkpt lat="45.84219" lon="4.67636">
        <ele>276.12869</ele>
        <time>2022-09-30T12:26:44.000Z</time>
      </trkpt>
      <trkpt lat="45.84224" lon="4.67639">
        <ele>276.14417</ele>
        <time>2022-09-30T12:26:45.000Z</time>
      </trkpt>
      <trkpt lat="45.8423" lon="4.67643">
        <ele>276.07687</ele>
        <time>2022-09-30T12:26:46.000Z</time>
      </trkpt>
      <trkpt lat="45.84236" lon="4.67649">
        <ele>275.97073</ele>
        <time>2022-09-30T12:26:47.000Z</time>
      </trkpt>
      <trkpt lat="45.84243" lon="4.6765">
        <ele>275.86261</ele>
        <time>2022-09-30T12:26:48.000Z</time>
      </trkpt>
      <trkpt lat="45.84249" lon="4.67652">
        <ele>275.75754</ele>
        <time>2022-09-30T12:26:49.000Z</time>
      </trkpt>
      <trkpt lat="45.84255" lon="4.67653">
        <ele>275.69058</ele>
        <time>2022-09-30T12:26:50.000Z</time>
      </trkpt>
      <trkpt lat="45.84262" lon="4.67653">
        <ele>275.71259</ele>
        <time>2022-09-30T12:26:51.000Z</time>
      </trkpt>
      <trkpt lat="45.84269" lon="4.67655">
        <ele>275.74191</ele>
        <time>2022-09-30T12:26:52.000Z</time>
      </trkpt>
      <trkpt lat="45.84275" lon="4.67656">
        <ele>275.75272</ele>
        <time>2022-09-30T12:26:53.000Z</time>
      </trkpt>
      <trkpt lat="45.84281" lon="4.67656">
        <ele>275.74918</ele>
        <time>2022-09-30T12:26:54.000Z</time>
      </trkpt>
      <trkpt lat="45.84288" lon="4.67654">
        <ele>275.79083</ele>
        <time>2022-09-30T12:26:55.000Z</time>
      </trkpt>
      <trkpt lat="45.84294" lon="4.67652">
        <ele>275.86383</ele>
        <time>2022-09-30T12:26:56.000Z</time>
      </trkpt>
      <trkpt lat="45.84301" lon="4.6765">
        <ele>275.95917</ele>
        <time>2022-09-30T12:26:57.000Z</time>
      </trkpt>
      <trkpt lat="45.84307" lon="4.67647">
        <ele>276.00223</ele>
        <time>2022-09-30T12:26:58.000Z</time>
      </trkpt>
      <trkpt lat="45.84313" lon="4.67644">
        <ele>276.09308</ele>
        <time>2022-09-30T12:26:59.000Z</time>
      </trkpt>
      <trkpt lat="45.84317" lon="4.6764">
        <ele>276.21164</ele>
        <time>2022-09-30T12:27:00.000Z</time>
      </trkpt>
      <trkpt lat="45.84322" lon="4.67636">
        <ele>276.33948</ele>
        <time>2022-09-30T12:27:01.000Z</time>
      </trkpt>
      <trkpt lat="45.84327" lon="4.67633">
        <ele>276.54489</ele>
        <time>2022-09-30T12:27:02.000Z</time>
      </trkpt>
      <trkpt lat="45.84333" lon="4.67629">
        <ele>276.74603</ele>
        <time>2022-09-30T12:27:03.000Z</time>
      </trkpt>
      <trkpt lat="45.84339" lon="4.67626">
        <ele>276.92511</ele>
        <time>2022-09-30T12:27:04.000Z</time>
      </trkpt>
      <trkpt lat="45.84344" lon="4.67623">
        <ele>277.02713</ele>
        <time>2022-09-30T12:27:05.000Z</time>
      </trkpt>
      <trkpt lat="45.84348" lon="4.67619">
        <ele>277.18716</ele>
        <time>2022-09-30T12:27:06.000Z</time>
      </trkpt>
      <trkpt lat="45.84353" lon="4.67617">
        <ele>277.42807</ele>
        <time>2022-09-30T12:27:07.000Z</time>
      </trkpt>
      <trkpt lat="45.8436" lon="4.67612">
        <ele>277.67697</ele>
        <time>2022-09-30T12:27:08.000Z</time>
      </trkpt>
      <trkpt lat="45.84366" lon="4.67608">
        <ele>277.96838</ele>
        <time>2022-09-30T12:27:09.000Z</time>
      </trkpt>
      <trkpt lat="45.84372" lon="4.67604">
        <ele>278.28433</ele>
        <time>2022-09-30T12:27:10.000Z</time>
      </trkpt>
      <trkpt lat="45.84378" lon="4.67602">
        <ele>278.53174</ele>
        <time>2022-09-30T12:27:11.000Z</time>
      </trkpt>
      <trkpt lat="45.84384" lon="4.67602">
        <ele>278.68311</ele>
        <time>2022-09-30T12:27:12.000Z</time>
      </trkpt>
      <trkpt lat="45.8439" lon="4.67601">
        <ele>278.84271</ele>
        <time>2022-09-30T12:27:13.000Z</time>
      </trkpt>
      <trkpt lat="45.84397" lon="4.676">
        <ele>278.91</ele>
        <time>2022-09-30T12:27:14.000Z</time>
      </trkpt>
      <trkpt lat="45.84402" lon="4.676">
        <ele>278.93631</ele>
        <time>2022-09-30T12:27:15.000Z</time>
      </trkpt>
      <trkpt lat="45.84409" lon="4.67601">
        <ele>278.92767</ele>
        <time>2022-09-30T12:27:16.000Z</time>
      </trkpt>
      <trkpt lat="45.84415" lon="4.67602">
        <ele>278.89938</ele>
        <time>2022-09-30T12:27:17.000Z</time>
      </trkpt>
      <trkpt lat="45.8442" lon="4.67603">
        <ele>278.90771</ele>
        <time>2022-09-30T12:27:18.000Z</time>
      </trkpt>
      <trkpt lat="45.84425" lon="4.67604">
        <ele>278.93143</ele>
        <time>2022-09-30T12:27:19.000Z</time>
      </trkpt>
      <trkpt lat="45.8443" lon="4.67607">
        <ele>278.96655</ele>
        <time>2022-09-30T12:27:20.000Z</time>
      </trkpt>
      <trkpt lat="45.84434" lon="4.67609">
        <ele>278.99774</ele>
        <time>2022-09-30T12:27:21.000Z</time>
      </trkpt>
      <trkpt lat="45.84439" lon="4.67608">
        <ele>278.91455</ele>
        <time>2022-09-30T12:27:22.000Z</time>
      </trkpt>
      <trkpt lat="45.84444" lon="4.67606">
        <ele>278.83368</ele>
        <time>2022-09-30T12:27:23.000Z</time>
      </trkpt>
      <trkpt lat="45.84449" lon="4.67603">
        <ele>278.75311</ele>
        <time>2022-09-30T12:27:24.000Z</time>
      </trkpt>
      <trkpt lat="45.84452" lon="4.67599">
        <ele>278.68008</ele>
        <time>2022-09-30T12:27:25.000Z</time>
      </trkpt>
      <trkpt lat="45.84455" lon="4.67595">
        <ele>278.68143</ele>
        <time>2022-09-30T12:27:26.000Z</time>
      </trkpt>
      <trkpt lat="45.84458" lon="4.6759">
        <ele>278.65988</ele>
        <time>2022-09-30T12:27:27.000Z</time>
      </trkpt>
      <trkpt lat="45.84463" lon="4.67587">
        <ele>278.64273</ele>
        <time>2022-09-30T12:27:28.000Z</time>
      </trkpt>
      <trkpt lat="45.84467" lon="4.67583">
        <ele>278.58743</ele>
        <time>2022-09-30T12:27:29.000Z</time>
      </trkpt>
      <trkpt lat="45.84472" lon="4.67579">
        <ele>278.57571</ele>
        <time>2022-09-30T12:27:30.000Z</time>
      </trkpt>
      <trkpt lat="45.84476" lon="4.67574">
        <ele>278.58044</ele>
        <time>2022-09-30T12:27:31.000Z</time>
      </trkpt>
      <trkpt lat="45.84479" lon="4.67571">
        <ele>278.66058</ele>
        <time>2022-09-30T12:27:32.000Z</time>
      </trkpt>
      <trkpt lat="45.84484" lon="4.67567">
        <ele>278.71954</ele>
        <time>2022-09-30T12:27:33.000Z</time>
      </trkpt>
      <trkpt lat="45.84489" lon="4.67563">
        <ele>278.84991</ele>
        <time>2022-09-30T12:27:34.000Z</time>
      </trkpt>
      <trkpt lat="45.84492" lon="4.67557">
        <ele>278.98145</ele>
        <time>2022-09-30T12:27:35.000Z</time>
      </trkpt>
      <trkpt lat="45.84495" lon="4.67559">
        <ele>279.12527</ele>
        <time>2022-09-30T12:27:36.000Z</time>
      </trkpt>
      <trkpt lat="45.845" lon="4.67556">
        <ele>279.3468</ele>
        <time>2022-09-30T12:27:37.000Z</time>
      </trkpt>
      <trkpt lat="45.84506" lon="4.67555">
        <ele>279.37762</ele>
        <time>2022-09-30T12:27:38.000Z</time>
      </trkpt>
      <trkpt lat="45.8451" lon="4.67557">
        <ele>279.38184</ele>
        <time>2022-09-30T12:27:39.000Z</time>
      </trkpt>
      <trkpt lat="45.84515" lon="4.67562">
        <ele>279.33762</ele>
        <time>2022-09-30T12:27:40.000Z</time>
      </trkpt>
      <trkpt lat="45.8452" lon="4.67565">
        <ele>279.21936</ele>
        <time>2022-09-30T12:27:41.000Z</time>
      </trkpt>
      <trkpt lat="45.84524" lon="4.67571">
        <ele>279.17801</ele>
        <time>2022-09-30T12:27:42.000Z</time>
      </trkpt>
      <trkpt lat="45.84529" lon="4.67577">
        <ele>279.06604</ele>
        <time>2022-09-30T12:27:43.000Z</time>
      </trkpt>
      <trkpt lat="45.84533" lon="4.67581">
        <ele>278.99551</ele>
        <time>2022-09-30T12:27:44.000Z</time>
      </trkpt>
      <trkpt lat="45.84538" lon="4.67584">
        <ele>278.9433</ele>
        <time>2022-09-30T12:27:45.000Z</time>
      </trkpt>
      <trkpt lat="45.84543" lon="4.67588">
        <ele>278.76678</ele>
        <time>2022-09-30T12:27:46.000Z</time>
      </trkpt>
      <trkpt lat="45.84549" lon="4.67591">
        <ele>278.53894</ele>
        <time>2022-09-30T12:27:47.000Z</time>
      </trkpt>
      <trkpt lat="45.84554" lon="4.67592">
        <ele>278.31079</ele>
        <time>2022-09-30T12:27:48.000Z</time>
      </trkpt>
      <trkpt lat="45.8456" lon="4.67595">
        <ele>278.03314</ele>
        <time>2022-09-30T12:27:49.000Z</time>
      </trkpt>
      <trkpt lat="45.84565" lon="4.67596">
        <ele>277.64163</ele>
        <time>2022-09-30T12:27:50.000Z</time>
      </trkpt>
      <trkpt lat="45.8457" lon="4.67597">
        <ele>277.2659</ele>
        <time>2022-09-30T12:27:51.000Z</time>
      </trkpt>
      <trkpt lat="45.84577" lon="4.67597">
        <ele>276.85046</ele>
        <time>2022-09-30T12:27:52.000Z</time>
      </trkpt>
      <trkpt lat="45.84582" lon="4.67597">
        <ele>276.48581</ele>
        <time>2022-09-30T12:27:53.000Z</time>
      </trkpt>
      <trkpt lat="45.84588" lon="4.67598">
        <ele>276.17682</ele>
        <time>2022-09-30T12:27:54.000Z</time>
      </trkpt>
      <trkpt lat="45.84594" lon="4.67595">
        <ele>275.86508</ele>
        <time>2022-09-30T12:27:55.000Z</time>
      </trkpt>
      <trkpt lat="45.84599" lon="4.67595">
        <ele>275.52829</ele>
        <time>2022-09-30T12:27:56.000Z</time>
      </trkpt>
      <trkpt lat="45.84604" lon="4.67593">
        <ele>275.1716</ele>
        <time>2022-09-30T12:27:57.000Z</time>
      </trkpt>
      <trkpt lat="45.84609" lon="4.67593">
        <ele>275.01364</ele>
        <time>2022-09-30T12:27:58.000Z</time>
      </trkpt>
      <trkpt lat="45.84614" lon="4.6759">
        <ele>274.90421</ele>
        <time>2022-09-30T12:27:59.000Z</time>
      </trkpt>
      <trkpt lat="45.84619" lon="4.67588">
        <ele>274.86749</ele>
        <time>2022-09-30T12:28:00.000Z</time>
      </trkpt>
      <trkpt lat="45.84624" lon="4.67584">
        <ele>274.89301</ele>
        <time>2022-09-30T12:28:01.000Z</time>
      </trkpt>
      <trkpt lat="45.84628" lon="4.67582">
        <ele>274.89621</ele>
        <time>2022-09-30T12:28:02.000Z</time>
      </trkpt>
      <trkpt lat="45.84633" lon="4.67576">
        <ele>274.92368</ele>
        <time>2022-09-30T12:28:03.000Z</time>
      </trkpt>
      <trkpt lat="45.84637" lon="4.67572">
        <ele>274.92697</ele>
        <time>2022-09-30T12:28:04.000Z</time>
      </trkpt>
      <trkpt lat="45.84641" lon="4.67567">
        <ele>274.90118</ele>
        <time>2022-09-30T12:28:05.000Z</time>
      </trkpt>
      <trkpt lat="45.84645" lon="4.67562">
        <ele>274.95325</ele>
        <time>2022-09-30T12:28:06.000Z</time>
      </trkpt>
      <trkpt lat="45.84649" lon="4.67557">
        <ele>275.12006</ele>
        <time>2022-09-30T12:28:07.000Z</time>
      </trkpt>
      <trkpt lat="45.84654" lon="4.67549">
        <ele>275.3891</ele>
        <time>2022-09-30T12:28:08.000Z</time>
      </trkpt>
      <trkpt lat="45.84658" lon="4.67543">
        <ele>275.64691</ele>
        <time>2022-09-30T12:28:09.000Z</time>
      </trkpt>
      <trkpt lat="45.84662" lon="4.67538">
        <ele>275.84601</ele>
        <time>2022-09-30T12:28:10.000Z</time>
      </trkpt>
      <trkpt lat="45.84666" lon="4.67531">
        <ele>276.00882</ele>
        <time>2022-09-30T12:28:11.000Z</time>
      </trkpt>
      <trkpt lat="45.84669" lon="4.67524">
        <ele>276.22986</ele>
        <time>2022-09-30T12:28:12.000Z</time>
      </trkpt>
      <trkpt lat="45.84672" lon="4.67517">
        <ele>276.43704</ele>
        <time>2022-09-30T12:28:13.000Z</time>
      </trkpt>
      <trkpt lat="45.84675" lon="4.67511">
        <ele>276.59924</ele>
        <time>2022-09-30T12:28:14.000Z</time>
      </trkpt>
      <trkpt lat="45.84678" lon="4.67504">
        <ele>276.8006</ele>
        <time>2022-09-30T12:28:15.000Z</time>
      </trkpt>
      <trkpt lat="45.84681" lon="4.67497">
        <ele>277.06784</ele>
        <time>2022-09-30T12:28:16.000Z</time>
      </trkpt>
      <trkpt lat="45.84686" lon="4.67491">
        <ele>277.27216</ele>
        <time>2022-09-30T12:28:17.000Z</time>
      </trkpt>
      <trkpt lat="45.8469" lon="4.67485">
        <ele>277.47821</ele>
        <time>2022-09-30T12:28:18.000Z</time>
      </trkpt>
      <trkpt lat="45.84694" lon="4.67477">
        <ele>277.65314</ele>
        <time>2022-09-30T12:28:19.000Z</time>
      </trkpt>
      <trkpt lat="45.847" lon="4.67468">
        <ele>277.89618</ele>
        <time>2022-09-30T12:28:20.000Z</time>
      </trkpt>
      <trkpt lat="45.84706" lon="4.67462">
        <ele>278.11273</ele>
        <time>2022-09-30T12:28:21.000Z</time>
      </trkpt>
      <trkpt lat="45.84713" lon="4.67461">
        <ele>278.28323</ele>
        <time>2022-09-30T12:28:22.000Z</time>
      </trkpt>
      <trkpt lat="45.8472" lon="4.67461">
        <ele>278.49588</ele>
        <time>2022-09-30T12:28:23.000Z</time>
      </trkpt>
      <trkpt lat="45.84726" lon="4.6746">
        <ele>278.71735</ele>
        <time>2022-09-30T12:28:24.000Z</time>
      </trkpt>
      <trkpt lat="45.84733" lon="4.6746">
        <ele>278.93222</ele>
        <time>2022-09-30T12:28:25.000Z</time>
      </trkpt>
      <trkpt lat="45.84739" lon="4.67459">
        <ele>279.12134</ele>
        <time>2022-09-30T12:28:26.000Z</time>
      </trkpt>
      <trkpt lat="45.84744" lon="4.67457">
        <ele>279.28531</ele>
        <time>2022-09-30T12:28:27.000Z</time>
      </trkpt>
      <trkpt lat="45.84751" lon="4.67455">
        <ele>279.35632</ele>
        <time>2022-09-30T12:28:28.000Z</time>
      </trkpt>
      <trkpt lat="45.84757" lon="4.67454">
        <ele>279.4346</ele>
        <time>2022-09-30T12:28:29.000Z</time>
      </trkpt>
      <trkpt lat="45.84764" lon="4.67453">
        <ele>279.4917</ele>
        <time>2022-09-30T12:28:30.000Z</time>
      </trkpt>
      <trkpt lat="45.84771" lon="4.67453">
        <ele>279.5712</ele>
        <time>2022-09-30T12:28:31.000Z</time>
      </trkpt>
      <trkpt lat="45.84775" lon="4.67454">
        <ele>279.64877</ele>
        <time>2022-09-30T12:28:32.000Z</time>
      </trkpt>
      <trkpt lat="45.84781" lon="4.67453">
        <ele>279.7485</ele>
        <time>2022-09-30T12:28:33.000Z</time>
      </trkpt>
      <trkpt lat="45.84789" lon="4.67451">
        <ele>279.7713</ele>
        <time>2022-09-30T12:28:34.000Z</time>
      </trkpt>
      <trkpt lat="45.84795" lon="4.67451">
        <ele>279.79425</ele>
        <time>2022-09-30T12:28:35.000Z</time>
      </trkpt>
      <trkpt lat="45.84799" lon="4.67451">
        <ele>279.75885</ele>
        <time>2022-09-30T12:28:36.000Z</time>
      </trkpt>
      <trkpt lat="45.84806" lon="4.67452">
        <ele>279.74149</ele>
        <time>2022-09-30T12:28:37.000Z</time>
      </trkpt>
      <trkpt lat="45.8481" lon="4.67452">
        <ele>279.69055</ele>
        <time>2022-09-30T12:28:38.000Z</time>
      </trkpt>
      <trkpt lat="45.84816" lon="4.67452">
        <ele>279.58234</ele>
        <time>2022-09-30T12:28:39.000Z</time>
      </trkpt>
      <trkpt lat="45.84822" lon="4.67451">
        <ele>279.38263</ele>
        <time>2022-09-30T12:28:40.000Z</time>
      </trkpt>
      <trkpt lat="45.84827" lon="4.6745">
        <ele>279.20233</ele>
        <time>2022-09-30T12:28:41.000Z</time>
      </trkpt>
      <trkpt lat="45.84832" lon="4.6745">
        <ele>279.05554</ele>
        <time>2022-09-30T12:28:42.000Z</time>
      </trkpt>
      <trkpt lat="45.84835" lon="4.67449">
        <ele>278.98175</ele>
        <time>2022-09-30T12:28:43.000Z</time>
      </trkpt>
      <trkpt lat="45.84841" lon="4.67448">
        <ele>278.89948</ele>
        <time>2022-09-30T12:28:44.000Z</time>
      </trkpt>
      <trkpt lat="45.84846" lon="4.67447">
        <ele>278.81943</ele>
        <time>2022-09-30T12:28:45.000Z</time>
      </trkpt>
      <trkpt lat="45.84851" lon="4.67446">
        <ele>278.72821</ele>
        <time>2022-09-30T12:28:46.000Z</time>
      </trkpt>
      <trkpt lat="45.84855" lon="4.67445">
        <ele>278.54349</ele>
        <time>2022-09-30T12:28:47.000Z</time>
      </trkpt>
      <trkpt lat="45.8486" lon="4.67444">
        <ele>278.28119</ele>
        <time>2022-09-30T12:28:48.000Z</time>
      </trkpt>
      <trkpt lat="45.84866" lon="4.67443">
        <ele>278.02322</ele>
        <time>2022-09-30T12:28:49.000Z</time>
      </trkpt>
      <trkpt lat="45.84871" lon="4.67443">
        <ele>277.96442</ele>
        <time>2022-09-30T12:28:50.000Z</time>
      </trkpt>
      <trkpt lat="45.84875" lon="4.67444">
        <ele>277.89935</ele>
        <time>2022-09-30T12:28:51.000Z</time>
      </trkpt>
      <trkpt lat="45.8488" lon="4.67444">
        <ele>277.78705</ele>
        <time>2022-09-30T12:28:52.000Z</time>
      </trkpt>
      <trkpt lat="45.84885" lon="4.67444">
        <ele>277.61993</ele>
        <time>2022-09-30T12:28:53.000Z</time>
      </trkpt>
      <trkpt lat="45.84889" lon="4.67443">
        <ele>277.4899</ele>
        <time>2022-09-30T12:28:54.000Z</time>
      </trkpt>
      <trkpt lat="45.84894" lon="4.67442">
        <ele>277.32959</ele>
        <time>2022-09-30T12:28:55.000Z</time>
      </trkpt>
      <trkpt lat="45.84899" lon="4.67443">
        <ele>277.16635</ele>
        <time>2022-09-30T12:28:56.000Z</time>
      </trkpt>
      <trkpt lat="45.84903" lon="4.67442">
        <ele>276.9928</ele>
        <time>2022-09-30T12:28:57.000Z</time>
      </trkpt>
      <trkpt lat="45.84908" lon="4.67442">
        <ele>276.84344</ele>
        <time>2022-09-30T12:28:58.000Z</time>
      </trkpt>
      <trkpt lat="45.84913" lon="4.67442">
        <ele>276.70813</ele>
        <time>2022-09-30T12:28:59.000Z</time>
      </trkpt>
      <trkpt lat="45.84917" lon="4.67441">
        <ele>276.55438</ele>
        <time>2022-09-30T12:29:00.000Z</time>
      </trkpt>
      <trkpt lat="45.84922" lon="4.67439">
        <ele>276.42593</ele>
        <time>2022-09-30T12:29:01.000Z</time>
      </trkpt>
      <trkpt lat="45.84927" lon="4.67438">
        <ele>276.28201</ele>
        <time>2022-09-30T12:29:02.000Z</time>
      </trkpt>
      <trkpt lat="45.84931" lon="4.67438">
        <ele>276.05963</ele>
        <time>2022-09-30T12:29:03.000Z</time>
      </trkpt>
      <trkpt lat="45.84936" lon="4.67437">
        <ele>275.82721</ele>
        <time>2022-09-30T12:29:04.000Z</time>
      </trkpt>
      <trkpt lat="45.84942" lon="4.67438">
        <ele>275.55811</ele>
        <time>2022-09-30T12:29:05.000Z</time>
      </trkpt>
      <trkpt lat="45.84947" lon="4.67437">
        <ele>275.30319</ele>
        <time>2022-09-30T12:29:06.000Z</time>
      </trkpt>
      <trkpt lat="45.84952" lon="4.67437">
        <ele>275.06537</ele>
        <time>2022-09-30T12:29:07.000Z</time>
      </trkpt>
      <trkpt lat="45.84959" lon="4.67439">
        <ele>274.76431</ele>
        <time>2022-09-30T12:29:08.000Z</time>
      </trkpt>
      <trkpt lat="45.84964" lon="4.67436">
        <ele>274.51358</ele>
        <time>2022-09-30T12:29:09.000Z</time>
      </trkpt>
      <trkpt lat="45.8497" lon="4.67435">
        <ele>274.15195</ele>
        <time>2022-09-30T12:29:10.000Z</time>
      </trkpt>
      <trkpt lat="45.84975" lon="4.67433">
        <ele>273.83023</ele>
        <time>2022-09-30T12:29:11.000Z</time>
      </trkpt>
      <trkpt lat="45.8498" lon="4.67432">
        <ele>273.57925</ele>
        <time>2022-09-30T12:29:12.000Z</time>
      </trkpt>
      <trkpt lat="45.84987" lon="4.67431">
        <ele>273.29865</ele>
        <time>2022-09-30T12:29:13.000Z</time>
      </trkpt>
      <trkpt lat="45.84992" lon="4.6743">
        <ele>273.06873</ele>
        <time>2022-09-30T12:29:14.000Z</time>
      </trkpt>
      <trkpt lat="45.84997" lon="4.67429">
        <ele>272.85602</ele>
        <time>2022-09-30T12:29:15.000Z</time>
      </trkpt>
      <trkpt lat="45.85003" lon="4.67427">
        <ele>272.69574</ele>
        <time>2022-09-30T12:29:16.000Z</time>
      </trkpt>
      <trkpt lat="45.85008" lon="4.67426">
        <ele>272.48697</ele>
        <time>2022-09-30T12:29:17.000Z</time>
      </trkpt>
      <trkpt lat="45.85013" lon="4.67424">
        <ele>272.2518</ele>
        <time>2022-09-30T12:29:18.000Z</time>
      </trkpt>
      <trkpt lat="45.85018" lon="4.67424">
        <ele>272.10959</ele>
        <time>2022-09-30T12:29:19.000Z</time>
      </trkpt>
      <trkpt lat="45.85023" lon="4.67422">
        <ele>272.02267</ele>
        <time>2022-09-30T12:29:20.000Z</time>
      </trkpt>
      <trkpt lat="45.85028" lon="4.67419">
        <ele>271.97113</ele>
        <time>2022-09-30T12:29:21.000Z</time>
      </trkpt>
      <trkpt lat="45.85033" lon="4.67416">
        <ele>271.9939</ele>
        <time>2022-09-30T12:29:22.000Z</time>
      </trkpt>
      <trkpt lat="45.8504" lon="4.67415">
        <ele>271.93643</ele>
        <time>2022-09-30T12:29:23.000Z</time>
      </trkpt>
      <trkpt lat="45.85046" lon="4.67412">
        <ele>271.84708</ele>
        <time>2022-09-30T12:29:24.000Z</time>
      </trkpt>
      <trkpt lat="45.85053" lon="4.67409">
        <ele>271.76834</ele>
        <time>2022-09-30T12:29:25.000Z</time>
      </trkpt>
      <trkpt lat="45.85058" lon="4.67405">
        <ele>271.80511</ele>
        <time>2022-09-30T12:29:26.000Z</time>
      </trkpt>
      <trkpt lat="45.85064" lon="4.67402">
        <ele>271.87851</ele>
        <time>2022-09-30T12:29:27.000Z</time>
      </trkpt>
      <trkpt lat="45.8507" lon="4.67399">
        <ele>272.03473</ele>
        <time>2022-09-30T12:29:28.000Z</time>
      </trkpt>
      <trkpt lat="45.85077" lon="4.67396">
        <ele>272.10385</ele>
        <time>2022-09-30T12:29:29.000Z</time>
      </trkpt>
      <trkpt lat="45.85083" lon="4.67392">
        <ele>272.18756</ele>
        <time>2022-09-30T12:29:30.000Z</time>
      </trkpt>
      <trkpt lat="45.85091" lon="4.67388">
        <ele>272.23773</ele>
        <time>2022-09-30T12:29:31.000Z</time>
      </trkpt>
      <trkpt lat="45.85097" lon="4.67383">
        <ele>272.19818</ele>
        <time>2022-09-30T12:29:32.000Z</time>
      </trkpt>
      <trkpt lat="45.85104" lon="4.67379">
        <ele>272.19644</ele>
        <time>2022-09-30T12:29:33.000Z</time>
      </trkpt>
      <trkpt lat="45.8511" lon="4.67374">
        <ele>272.23376</ele>
        <time>2022-09-30T12:29:34.000Z</time>
      </trkpt>
      <trkpt lat="45.85117" lon="4.6737">
        <ele>272.27338</ele>
        <time>2022-09-30T12:29:35.000Z</time>
      </trkpt>
      <trkpt lat="45.85122" lon="4.67365">
        <ele>272.24335</ele>
        <time>2022-09-30T12:29:36.000Z</time>
      </trkpt>
      <trkpt lat="45.85128" lon="4.67362">
        <ele>272.32758</ele>
        <time>2022-09-30T12:29:37.000Z</time>
      </trkpt>
      <trkpt lat="45.85134" lon="4.67358">
        <ele>272.42438</ele>
        <time>2022-09-30T12:29:38.000Z</time>
      </trkpt>
      <trkpt lat="45.8514" lon="4.67355">
        <ele>272.43988</ele>
        <time>2022-09-30T12:29:39.000Z</time>
      </trkpt>
      <trkpt lat="45.85146" lon="4.67352">
        <ele>272.36261</ele>
        <time>2022-09-30T12:29:40.000Z</time>
      </trkpt>
      <trkpt lat="45.85153" lon="4.67349">
        <ele>272.18701</ele>
        <time>2022-09-30T12:29:41.000Z</time>
      </trkpt>
      <trkpt lat="45.85159" lon="4.67344">
        <ele>271.8952</ele>
        <time>2022-09-30T12:29:42.000Z</time>
      </trkpt>
      <trkpt lat="45.85165" lon="4.6734">
        <ele>271.73676</ele>
        <time>2022-09-30T12:29:43.000Z</time>
      </trkpt>
      <trkpt lat="45.8517" lon="4.67338">
        <ele>271.70047</ele>
        <time>2022-09-30T12:29:44.000Z</time>
      </trkpt>
      <trkpt lat="45.85175" lon="4.67336">
        <ele>271.71103</ele>
        <time>2022-09-30T12:29:45.000Z</time>
      </trkpt>
      <trkpt lat="45.85182" lon="4.67333">
        <ele>271.59302</ele>
        <time>2022-09-30T12:29:46.000Z</time>
      </trkpt>
      <trkpt lat="45.85187" lon="4.6733">
        <ele>271.46783</ele>
        <time>2022-09-30T12:29:47.000Z</time>
      </trkpt>
      <trkpt lat="45.85193" lon="4.67327">
        <ele>271.38242</ele>
        <time>2022-09-30T12:29:48.000Z</time>
      </trkpt>
      <trkpt lat="45.85197" lon="4.67325">
        <ele>271.33868</ele>
        <time>2022-09-30T12:29:49.000Z</time>
      </trkpt>
      <trkpt lat="45.85201" lon="4.67323">
        <ele>271.31195</ele>
        <time>2022-09-30T12:29:50.000Z</time>
      </trkpt>
      <trkpt lat="45.85206" lon="4.67322">
        <ele>271.30298</ele>
        <time>2022-09-30T12:29:51.000Z</time>
      </trkpt>
      <trkpt lat="45.8521" lon="4.67326">
        <ele>271.2731</ele>
        <time>2022-09-30T12:29:52.000Z</time>
      </trkpt>
      <trkpt lat="45.85212" lon="4.67329">
        <ele>271.18417</ele>
        <time>2022-09-30T12:29:53.000Z</time>
      </trkpt>
      <trkpt lat="45.85215" lon="4.67333">
        <ele>271.05212</ele>
        <time>2022-09-30T12:29:54.000Z</time>
      </trkpt>
      <trkpt lat="45.85216" lon="4.67335">
        <ele>270.97821</ele>
        <time>2022-09-30T12:29:55.000Z</time>
      </trkpt>
      <trkpt lat="45.85216" lon="4.6734">
        <ele>270.96936</ele>
        <time>2022-09-30T12:29:56.000Z</time>
      </trkpt>
      <trkpt lat="45.85218" lon="4.67344">
        <ele>270.93613</ele>
        <time>2022-09-30T12:29:57.000Z</time>
      </trkpt>
      <trkpt lat="45.85221" lon="4.6735">
        <ele>270.84561</ele>
        <time>2022-09-30T12:29:58.000Z</time>
      </trkpt>
      <trkpt lat="45.85224" lon="4.67352">
        <ele>270.76892</ele>
        <time>2022-09-30T12:29:59.000Z</time>
      </trkpt>
      <trkpt lat="45.85227" lon="4.67354">
        <ele>270.76559</ele>
        <time>2022-09-30T12:30:00.000Z</time>
      </trkpt>
      <trkpt lat="45.85231" lon="4.67354">
        <ele>270.7937</ele>
        <time>2022-09-30T12:30:01.000Z</time>
      </trkpt>
      <trkpt lat="45.85234" lon="4.67353">
        <ele>270.91019</ele>
        <time>2022-09-30T12:30:02.000Z</time>
      </trkpt>
      <trkpt lat="45.85238" lon="4.67352">
        <ele>270.92596</ele>
        <time>2022-09-30T12:30:03.000Z</time>
      </trkpt>
      <trkpt lat="45.85242" lon="4.67351">
        <ele>270.92807</ele>
        <time>2022-09-30T12:30:04.000Z</time>
      </trkpt>
      <trkpt lat="45.85246" lon="4.67349">
        <ele>270.96396</ele>
        <time>2022-09-30T12:30:05.000Z</time>
      </trkpt>
      <trkpt lat="45.8525" lon="4.67347">
        <ele>271.04196</ele>
        <time>2022-09-30T12:30:06.000Z</time>
      </trkpt>
      <trkpt lat="45.85254" lon="4.67345">
        <ele>271.11945</ele>
        <time>2022-09-30T12:30:07.000Z</time>
      </trkpt>
      <trkpt lat="45.85257" lon="4.67342">
        <ele>271.17715</ele>
        <time>2022-09-30T12:30:08.000Z</time>
      </trkpt>
      <trkpt lat="45.85261" lon="4.6734">
        <ele>271.2598</ele>
        <time>2022-09-30T12:30:09.000Z</time>
      </trkpt>
      <trkpt lat="45.85265" lon="4.67337">
        <ele>271.34125</ele>
        <time>2022-09-30T12:30:10.000Z</time>
      </trkpt>
      <trkpt lat="45.85269" lon="4.67336">
        <ele>271.41507</ele>
        <time>2022-09-30T12:30:11.000Z</time>
      </trkpt>
      <trkpt lat="45.85272" lon="4.67334">
        <ele>271.54486</ele>
        <time>2022-09-30T12:30:12.000Z</time>
      </trkpt>
      <trkpt lat="45.85276" lon="4.67332">
        <ele>271.75885</ele>
        <time>2022-09-30T12:30:13.000Z</time>
      </trkpt>
      <trkpt lat="45.8528" lon="4.6733">
        <ele>271.93845</ele>
        <time>2022-09-30T12:30:14.000Z</time>
      </trkpt>
      <trkpt lat="45.85283" lon="4.67329">
        <ele>271.97083</ele>
        <time>2022-09-30T12:30:15.000Z</time>
      </trkpt>
      <trkpt lat="45.85286" lon="4.67327">
        <ele>271.9649</ele>
        <time>2022-09-30T12:30:16.000Z</time>
      </trkpt>
      <trkpt lat="45.8529" lon="4.67323">
        <ele>271.90341</ele>
        <time>2022-09-30T12:30:17.000Z</time>
      </trkpt>
      <trkpt lat="45.85291" lon="4.67318">
        <ele>271.96005</ele>
        <time>2022-09-30T12:30:18.000Z</time>
      </trkpt>
      <trkpt lat="45.85291" lon="4.67313">
        <ele>272.00995</ele>
        <time>2022-09-30T12:30:19.000Z</time>
      </trkpt>
      <trkpt lat="45.8529" lon="4.67307">
        <ele>272.01959</ele>
        <time>2022-09-30T12:30:20.000Z</time>
      </trkpt>
      <trkpt lat="45.85289" lon="4.67302">
        <ele>271.93738</ele>
        <time>2022-09-30T12:30:21.000Z</time>
      </trkpt>
      <trkpt lat="45.85287" lon="4.67296">
        <ele>271.76105</ele>
        <time>2022-09-30T12:30:22.000Z</time>
      </trkpt>
      <trkpt lat="45.85287" lon="4.67289">
        <ele>271.586</ele>
        <time>2022-09-30T12:30:23.000Z</time>
      </trkpt>
      <trkpt lat="45.85286" lon="4.67282">
        <ele>271.29718</ele>
        <time>2022-09-30T12:30:24.000Z</time>
      </trkpt>
      <trkpt lat="45.85285" lon="4.67275">
        <ele>270.86499</ele>
        <time>2022-09-30T12:30:25.000Z</time>
      </trkpt>
      <trkpt lat="45.85284" lon="4.67268">
        <ele>270.3775</ele>
        <time>2022-09-30T12:30:26.000Z</time>
      </trkpt>
      <trkpt lat="45.85284" lon="4.67262">
        <ele>269.86484</ele>
        <time>2022-09-30T12:30:27.000Z</time>
      </trkpt>
      <trkpt lat="45.85283" lon="4.67256">
        <ele>269.40076</ele>
        <time>2022-09-30T12:30:28.000Z</time>
      </trkpt>
      <trkpt lat="45.85282" lon="4.6725">
        <ele>268.91193</ele>
        <time>2022-09-30T12:30:29.000Z</time>
      </trkpt>
      <trkpt lat="45.85281" lon="4.67243">
        <ele>268.34778</ele>
        <time>2022-09-30T12:30:30.000Z</time>
      </trkpt>
      <trkpt lat="45.85281" lon="4.67237">
        <ele>267.81476</ele>
        <time>2022-09-30T12:30:31.000Z</time>
      </trkpt>
      <trkpt lat="45.8528" lon="4.6723">
        <ele>267.28802</ele>
        <time>2022-09-30T12:30:32.000Z</time>
      </trkpt>
      <trkpt lat="45.8528" lon="4.67224">
        <ele>266.71872</ele>
        <time>2022-09-30T12:30:33.000Z</time>
      </trkpt>
      <trkpt lat="45.85279" lon="4.67218">
        <ele>266.14124</ele>
        <time>2022-09-30T12:30:34.000Z</time>
      </trkpt>
      <trkpt lat="45.8528" lon="4.67209">
        <ele>265.5415</ele>
        <time>2022-09-30T12:30:35.000Z</time>
      </trkpt>
      <trkpt lat="45.85277" lon="4.67203">
        <ele>264.8728</ele>
        <time>2022-09-30T12:30:36.000Z</time>
      </trkpt>
      <trkpt lat="45.85278" lon="4.67197">
        <ele>264.15234</ele>
        <time>2022-09-30T12:30:37.000Z</time>
      </trkpt>
      <trkpt lat="45.85278" lon="4.67191">
        <ele>263.34335</ele>
        <time>2022-09-30T12:30:38.000Z</time>
      </trkpt>
      <trkpt lat="45.85277" lon="4.67185">
        <ele>262.51941</ele>
        <time>2022-09-30T12:30:39.000Z</time>
      </trkpt>
      <trkpt lat="45.85275" lon="4.6718">
        <ele>261.72211</ele>
        <time>2022-09-30T12:30:40.000Z</time>
      </trkpt>
      <trkpt lat="45.85273" lon="4.67175">
        <ele>261.04572</ele>
        <time>2022-09-30T12:30:41.000Z</time>
      </trkpt>
      <trkpt lat="45.8527" lon="4.67169">
        <ele>260.41019</ele>
        <time>2022-09-30T12:30:42.000Z</time>
      </trkpt>
      <trkpt lat="45.8527" lon="4.67161">
        <ele>259.74472</ele>
        <time>2022-09-30T12:30:43.000Z</time>
      </trkpt>
      <trkpt lat="45.85264" lon="4.67157">
        <ele>259.19919</ele>
        <time>2022-09-30T12:30:44.000Z</time>
      </trkpt>
      <trkpt lat="45.85259" lon="4.67154">
        <ele>258.77203</ele>
        <time>2022-09-30T12:30:45.000Z</time>
      </trkpt>
      <trkpt lat="45.85254" lon="4.6715">
        <ele>258.36703</ele>
        <time>2022-09-30T12:30:46.000Z</time>
      </trkpt>
      <trkpt lat="45.85249" lon="4.67149">
        <ele>257.87509</ele>
        <time>2022-09-30T12:30:47.000Z</time>
      </trkpt>
      <trkpt lat="45.85242" lon="4.67147">
        <ele>257.37042</ele>
        <time>2022-09-30T12:30:48.000Z</time>
      </trkpt>
      <trkpt lat="45.85235" lon="4.67144">
        <ele>256.92667</ele>
        <time>2022-09-30T12:30:49.000Z</time>
      </trkpt>
      <trkpt lat="45.85231" lon="4.6714">
        <ele>256.47592</ele>
        <time>2022-09-30T12:30:50.000Z</time>
      </trkpt>
      <trkpt lat="45.85226" lon="4.67135">
        <ele>256.01285</ele>
        <time>2022-09-30T12:30:51.000Z</time>
      </trkpt>
      <trkpt lat="45.8522" lon="4.6713">
        <ele>255.55441</ele>
        <time>2022-09-30T12:30:52.000Z</time>
      </trkpt>
      <trkpt lat="45.85215" lon="4.67125">
        <ele>255.10739</ele>
        <time>2022-09-30T12:30:53.000Z</time>
      </trkpt>
      <trkpt lat="45.85207" lon="4.67118">
        <ele>254.55635</ele>
        <time>2022-09-30T12:30:54.000Z</time>
      </trkpt>
      <trkpt lat="45.85199" lon="4.67113">
        <ele>254.11633</ele>
        <time>2022-09-30T12:30:55.000Z</time>
      </trkpt>
      <trkpt lat="45.85193" lon="4.67111">
        <ele>253.76518</ele>
        <time>2022-09-30T12:30:56.000Z</time>
      </trkpt>
      <trkpt lat="45.85186" lon="4.67104">
        <ele>253.44839</ele>
        <time>2022-09-30T12:30:57.000Z</time>
      </trkpt>
      <trkpt lat="45.85175" lon="4.67098">
        <ele>253.19145</ele>
        <time>2022-09-30T12:30:58.000Z</time>
      </trkpt>
      <trkpt lat="45.85168" lon="4.67093">
        <ele>252.96951</ele>
        <time>2022-09-30T12:30:59.000Z</time>
      </trkpt>
      <trkpt lat="45.8516" lon="4.67088">
        <ele>252.69559</ele>
        <time>2022-09-30T12:31:00.000Z</time>
      </trkpt>
      <trkpt lat="45.85153" lon="4.67084">
        <ele>252.44661</ele>
        <time>2022-09-30T12:31:01.000Z</time>
      </trkpt>
      <trkpt lat="45.85146" lon="4.67079">
        <ele>252.22424</ele>
        <time>2022-09-30T12:31:02.000Z</time>
      </trkpt>
      <trkpt lat="45.85141" lon="4.67072">
        <ele>251.97314</ele>
        <time>2022-09-30T12:31:03.000Z</time>
      </trkpt>
      <trkpt lat="45.85134" lon="4.67069">
        <ele>251.65019</ele>
        <time>2022-09-30T12:31:04.000Z</time>
      </trkpt>
      <trkpt lat="45.85127" lon="4.67068">
        <ele>251.29463</ele>
        <time>2022-09-30T12:31:05.000Z</time>
      </trkpt>
      <trkpt lat="45.85121" lon="4.67072">
        <ele>250.95786</ele>
        <time>2022-09-30T12:31:06.000Z</time>
      </trkpt>
      <trkpt lat="45.85114" lon="4.67071">
        <ele>250.76071</ele>
        <time>2022-09-30T12:31:07.000Z</time>
      </trkpt>
      <trkpt lat="45.85115" lon="4.67068">
        <ele>250.64822</ele>
        <time>2022-09-30T12:31:08.000Z</time>
      </trkpt>
      <trkpt lat="45.85117" lon="4.67061">
        <ele>250.40569</ele>
        <time>2022-09-30T12:31:10.000Z</time>
      </trkpt>
      <trkpt lat="45.85118" lon="4.67058">
        <ele>250.2377</ele>
        <time>2022-09-30T12:31:11.000Z</time>
      </trkpt>
      <trkpt lat="45.85119" lon="4.67056">
        <ele>249.99777</ele>
        <time>2022-09-30T12:31:12.000Z</time>
      </trkpt>
      <trkpt lat="45.85121" lon="4.67051">
        <ele>249.55994</ele>
        <time>2022-09-30T12:31:13.000Z</time>
      </trkpt>
      <trkpt lat="45.85123" lon="4.67047">
        <ele>249.05522</ele>
        <time>2022-09-30T12:31:14.000Z</time>
      </trkpt>
      <trkpt lat="45.85124" lon="4.67044">
        <ele>248.5802</ele>
        <time>2022-09-30T12:31:15.000Z</time>
      </trkpt>
      <trkpt lat="45.85127" lon="4.67041">
        <ele>248.05115</ele>
        <time>2022-09-30T12:31:16.000Z</time>
      </trkpt>
      <trkpt lat="45.85138" lon="4.6703">
        <ele>247.23511</ele>
        <time>2022-09-30T12:31:22.000Z</time>
      </trkpt>
      <trkpt lat="45.85142" lon="4.67029">
        <ele>246.36829</ele>
        <time>2022-09-30T12:31:23.000Z</time>
      </trkpt>
      <trkpt lat="45.85145" lon="4.67027">
        <ele>245.41609</ele>
        <time>2022-09-30T12:31:24.000Z</time>
      </trkpt>
      <trkpt lat="45.85148" lon="4.67027">
        <ele>244.46072</ele>
        <time>2022-09-30T12:31:25.000Z</time>
      </trkpt>
      <trkpt lat="45.85151" lon="4.67026">
        <ele>243.56076</ele>
        <time>2022-09-30T12:31:26.000Z</time>
      </trkpt>
      <trkpt lat="45.85155" lon="4.67026">
        <ele>242.59653</ele>
        <time>2022-09-30T12:31:27.000Z</time>
      </trkpt>
      <trkpt lat="45.85159" lon="4.67025">
        <ele>241.52426</ele>
        <time>2022-09-30T12:31:28.000Z</time>
      </trkpt>
      <trkpt lat="45.85163" lon="4.67025">
        <ele>240.55319</ele>
        <time>2022-09-30T12:31:29.000Z</time>
      </trkpt>
      <trkpt lat="45.85167" lon="4.67025">
        <ele>239.65567</ele>
        <time>2022-09-30T12:31:30.000Z</time>
      </trkpt>
      <trkpt lat="45.8517" lon="4.67025">
        <ele>238.80611</ele>
        <time>2022-09-30T12:31:31.000Z</time>
      </trkpt>
      <trkpt lat="45.85173" lon="4.67026">
        <ele>237.95332</ele>
        <time>2022-09-30T12:31:32.000Z</time>
      </trkpt>
      <trkpt lat="45.85176" lon="4.67028">
        <ele>237.00882</ele>
        <time>2022-09-30T12:31:33.000Z</time>
      </trkpt>
      <trkpt lat="45.85179" lon="4.6703">
        <ele>235.98799</ele>
        <time>2022-09-30T12:31:34.000Z</time>
      </trkpt>
      <trkpt lat="45.85181" lon="4.67031">
        <ele>235.09258</ele>
        <time>2022-09-30T12:31:35.000Z</time>
      </trkpt>
      <trkpt lat="45.85184" lon="4.67033">
        <ele>234.1604</ele>
        <time>2022-09-30T12:31:36.000Z</time>
      </trkpt>
      <trkpt lat="45.85187" lon="4.67033">
        <ele>233.2541</ele>
        <time>2022-09-30T12:31:37.000Z</time>
      </trkpt>
      <trkpt lat="45.85189" lon="4.67033">
        <ele>232.53471</ele>
        <time>2022-09-30T12:31:38.000Z</time>
      </trkpt>
      <trkpt lat="45.85192" lon="4.67033">
        <ele>231.88123</ele>
        <time>2022-09-30T12:31:39.000Z</time>
      </trkpt>
      <trkpt lat="45.85194" lon="4.67032">
        <ele>231.31636</ele>
        <time>2022-09-30T12:31:40.000Z</time>
      </trkpt>
      <trkpt lat="45.85197" lon="4.67031">
        <ele>230.7886</ele>
        <time>2022-09-30T12:31:41.000Z</time>
      </trkpt>
      <trkpt lat="45.852" lon="4.67031">
        <ele>230.51225</ele>
        <time>2022-09-30T12:31:42.000Z</time>
      </trkpt>
      <trkpt lat="45.85202" lon="4.6703">
        <ele>230.45085</ele>
        <time>2022-09-30T12:31:43.000Z</time>
      </trkpt>
      <trkpt lat="45.85204" lon="4.6703">
        <ele>230.46143</ele>
        <time>2022-09-30T12:31:44.000Z</time>
      </trkpt>
      <trkpt lat="45.85206" lon="4.6703">
        <ele>230.45938</ele>
        <time>2022-09-30T12:31:45.000Z</time>
      </trkpt>
      <trkpt lat="45.85204" lon="4.67032">
        <ele>230.40781</ele>
        <time>2022-09-30T12:31:49.000Z</time>
      </trkpt>
      <trkpt lat="45.85203" lon="4.67035">
        <ele>230.32336</ele>
        <time>2022-09-30T12:31:53.000Z</time>
      </trkpt>
      <trkpt lat="45.85208" lon="4.67036">
        <ele>230.33008</ele>
        <time>2022-09-30T12:32:17.000Z</time>
      </trkpt>
      <trkpt lat="45.85213" lon="4.67037">
        <ele>230.24146</ele>
        <time>2022-09-30T12:32:18.000Z</time>
      </trkpt>
      <trkpt lat="45.85217" lon="4.67038">
        <ele>230.03545</ele>
        <time>2022-09-30T12:32:19.000Z</time>
      </trkpt>
      <trkpt lat="45.85222" lon="4.67039">
        <ele>229.7944</ele>
        <time>2022-09-30T12:32:20.000Z</time>
      </trkpt>
      <trkpt lat="45.85233" lon="4.67039">
        <ele>229.58232</ele>
        <time>2022-09-30T12:32:21.000Z</time>
      </trkpt>
      <trkpt lat="45.85238" lon="4.67039">
        <ele>229.41887</ele>
        <time>2022-09-30T12:32:22.000Z</time>
      </trkpt>
      <trkpt lat="45.85243" lon="4.67039">
        <ele>229.19235</ele>
        <time>2022-09-30T12:32:23.000Z</time>
      </trkpt>
      <trkpt lat="45.85248" lon="4.67037">
        <ele>229.00386</ele>
        <time>2022-09-30T12:32:24.000Z</time>
      </trkpt>
      <trkpt lat="45.85254" lon="4.67037">
        <ele>228.71512</ele>
        <time>2022-09-30T12:32:25.000Z</time>
      </trkpt>
      <trkpt lat="45.85259" lon="4.67036">
        <ele>228.49846</ele>
        <time>2022-09-30T12:32:26.000Z</time>
      </trkpt>
      <trkpt lat="45.85265" lon="4.67037">
        <ele>228.2767</ele>
        <time>2022-09-30T12:32:27.000Z</time>
      </trkpt>
      <trkpt lat="45.85272" lon="4.67034">
        <ele>228.11604</ele>
        <time>2022-09-30T12:32:28.000Z</time>
      </trkpt>
      <trkpt lat="45.85278" lon="4.67032">
        <ele>227.90805</ele>
        <time>2022-09-30T12:32:29.000Z</time>
      </trkpt>
      <trkpt lat="45.85285" lon="4.6703">
        <ele>227.6893</ele>
        <time>2022-09-30T12:32:30.000Z</time>
      </trkpt>
      <trkpt lat="45.85292" lon="4.67028">
        <ele>227.4493</ele>
        <time>2022-09-30T12:32:31.000Z</time>
      </trkpt>
      <trkpt lat="45.85299" lon="4.67026">
        <ele>227.01163</ele>
        <time>2022-09-30T12:32:32.000Z</time>
      </trkpt>
      <trkpt lat="45.85307" lon="4.67022">
        <ele>226.56706</ele>
        <time>2022-09-30T12:32:33.000Z</time>
      </trkpt>
      <trkpt lat="45.85314" lon="4.67024">
        <ele>226.04947</ele>
        <time>2022-09-30T12:32:34.000Z</time>
      </trkpt>
      <trkpt lat="45.8532" lon="4.67019">
        <ele>225.58688</ele>
        <time>2022-09-30T12:32:35.000Z</time>
      </trkpt>
      <trkpt lat="45.85329" lon="4.6702">
        <ele>225.18904</ele>
        <time>2022-09-30T12:32:36.000Z</time>
      </trkpt>
      <trkpt lat="45.85332" lon="4.67014">
        <ele>224.72514</ele>
        <time>2022-09-30T12:32:37.000Z</time>
      </trkpt>
      <trkpt lat="45.85338" lon="4.6701">
        <ele>224.31772</ele>
        <time>2022-09-30T12:32:38.000Z</time>
      </trkpt>
      <trkpt lat="45.85344" lon="4.67004">
        <ele>223.95676</ele>
        <time>2022-09-30T12:32:39.000Z</time>
      </trkpt>
      <trkpt lat="45.85351" lon="4.66999">
        <ele>223.63835</ele>
        <time>2022-09-30T12:32:40.000Z</time>
      </trkpt>
      <trkpt lat="45.85355" lon="4.66994">
        <ele>223.24426</ele>
        <time>2022-09-30T12:32:41.000Z</time>
      </trkpt>
      <trkpt lat="45.85361" lon="4.66991">
        <ele>222.86316</ele>
        <time>2022-09-30T12:32:42.000Z</time>
      </trkpt>
      <trkpt lat="45.85367" lon="4.66986">
        <ele>222.48518</ele>
        <time>2022-09-30T12:32:43.000Z</time>
      </trkpt>
      <trkpt lat="45.85373" lon="4.66984">
        <ele>221.98242</ele>
        <time>2022-09-30T12:32:44.000Z</time>
      </trkpt>
      <trkpt lat="45.85379" lon="4.66982">
        <ele>221.55432</ele>
        <time>2022-09-30T12:32:45.000Z</time>
      </trkpt>
      <trkpt lat="45.85385" lon="4.66978">
        <ele>221.04141</ele>
        <time>2022-09-30T12:32:46.000Z</time>
      </trkpt>
      <trkpt lat="45.85391" lon="4.66975">
        <ele>220.47664</ele>
        <time>2022-09-30T12:32:47.000Z</time>
      </trkpt>
      <trkpt lat="45.85396" lon="4.66972">
        <ele>219.82739</ele>
        <time>2022-09-30T12:32:48.000Z</time>
      </trkpt>
      <trkpt lat="45.85402" lon="4.66968">
        <ele>219.22917</ele>
        <time>2022-09-30T12:32:49.000Z</time>
      </trkpt>
      <trkpt lat="45.85408" lon="4.66965">
        <ele>218.68466</ele>
        <time>2022-09-30T12:32:50.000Z</time>
      </trkpt>
      <trkpt lat="45.85415" lon="4.66964">
        <ele>218.19467</ele>
        <time>2022-09-30T12:32:51.000Z</time>
      </trkpt>
      <trkpt lat="45.85422" lon="4.66963">
        <ele>217.75313</ele>
        <time>2022-09-30T12:32:52.000Z</time>
      </trkpt>
      <trkpt lat="45.85428" lon="4.66963">
        <ele>217.26582</ele>
        <time>2022-09-30T12:32:53.000Z</time>
      </trkpt>
      <trkpt lat="45.85435" lon="4.66963">
        <ele>216.81485</ele>
        <time>2022-09-30T12:32:54.000Z</time>
      </trkpt>
      <trkpt lat="45.85442" lon="4.66966">
        <ele>216.29245</ele>
        <time>2022-09-30T12:32:55.000Z</time>
      </trkpt>
      <trkpt lat="45.85449" lon="4.66967">
        <ele>215.71638</ele>
        <time>2022-09-30T12:32:56.000Z</time>
      </trkpt>
      <trkpt lat="45.85455" lon="4.66967">
        <ele>215.17989</ele>
        <time>2022-09-30T12:32:57.000Z</time>
      </trkpt>
      <trkpt lat="45.85462" lon="4.66968">
        <ele>214.68965</ele>
        <time>2022-09-30T12:32:58.000Z</time>
      </trkpt>
      <trkpt lat="45.85469" lon="4.66968">
        <ele>214.21272</ele>
        <time>2022-09-30T12:32:59.000Z</time>
      </trkpt>
      <trkpt lat="45.85474" lon="4.66964">
        <ele>213.68887</ele>
        <time>2022-09-30T12:33:00.000Z</time>
      </trkpt>
      <trkpt lat="45.85481" lon="4.66962">
        <ele>213.24387</ele>
        <time>2022-09-30T12:33:01.000Z</time>
      </trkpt>
      <trkpt lat="45.85487" lon="4.66963">
        <ele>212.81592</ele>
        <time>2022-09-30T12:33:02.000Z</time>
      </trkpt>
      <trkpt lat="45.85494" lon="4.66961">
        <ele>212.4543</ele>
        <time>2022-09-30T12:33:03.000Z</time>
      </trkpt>
      <trkpt lat="45.855" lon="4.66958">
        <ele>212.12698</ele>
        <time>2022-09-30T12:33:04.000Z</time>
      </trkpt>
      <trkpt lat="45.85505" lon="4.66956">
        <ele>211.84012</ele>
        <time>2022-09-30T12:33:05.000Z</time>
      </trkpt>
      <trkpt lat="45.85512" lon="4.66956">
        <ele>211.53047</ele>
        <time>2022-09-30T12:33:06.000Z</time>
      </trkpt>
      <trkpt lat="45.85518" lon="4.66955">
        <ele>211.21968</ele>
        <time>2022-09-30T12:33:07.000Z</time>
      </trkpt>
      <trkpt lat="45.85524" lon="4.66953">
        <ele>210.97546</ele>
        <time>2022-09-30T12:33:08.000Z</time>
      </trkpt>
      <trkpt lat="45.85536" lon="4.66955">
        <ele>210.69768</ele>
        <time>2022-09-30T12:33:10.000Z</time>
      </trkpt>
      <trkpt lat="45.85542" lon="4.66953">
        <ele>210.36113</ele>
        <time>2022-09-30T12:33:11.000Z</time>
      </trkpt>
      <trkpt lat="45.85548" lon="4.66952">
        <ele>209.99622</ele>
        <time>2022-09-30T12:33:12.000Z</time>
      </trkpt>
      <trkpt lat="45.85555" lon="4.66952">
        <ele>209.70061</ele>
        <time>2022-09-30T12:33:13.000Z</time>
      </trkpt>
      <trkpt lat="45.8556" lon="4.6695">
        <ele>209.37761</ele>
        <time>2022-09-30T12:33:14.000Z</time>
      </trkpt>
      <trkpt lat="45.85566" lon="4.66948">
        <ele>209.11255</ele>
        <time>2022-09-30T12:33:15.000Z</time>
      </trkpt>
      <trkpt lat="45.85572" lon="4.66947">
        <ele>208.88472</ele>
        <time>2022-09-30T12:33:16.000Z</time>
      </trkpt>
      <trkpt lat="45.85579" lon="4.66947">
        <ele>208.66946</ele>
        <time>2022-09-30T12:33:17.000Z</time>
      </trkpt>
      <trkpt lat="45.85592" lon="4.66943">
        <ele>208.46545</ele>
        <time>2022-09-30T12:33:19.000Z</time>
      </trkpt>
      <trkpt lat="45.85598" lon="4.6694">
        <ele>208.24625</ele>
        <time>2022-09-30T12:33:20.000Z</time>
      </trkpt>
      <trkpt lat="45.85605" lon="4.66936">
        <ele>208.03203</ele>
        <time>2022-09-30T12:33:21.000Z</time>
      </trkpt>
      <trkpt lat="45.85611" lon="4.66933">
        <ele>207.84924</ele>
        <time>2022-09-30T12:33:22.000Z</time>
      </trkpt>
      <trkpt lat="45.85618" lon="4.66932">
        <ele>207.65637</ele>
        <time>2022-09-30T12:33:23.000Z</time>
      </trkpt>
      <trkpt lat="45.85626" lon="4.66932">
        <ele>207.35855</ele>
        <time>2022-09-30T12:33:24.000Z</time>
      </trkpt>
      <trkpt lat="45.85631" lon="4.66931">
        <ele>207.0336</ele>
        <time>2022-09-30T12:33:25.000Z</time>
      </trkpt>
      <trkpt lat="45.85637" lon="4.6693">
        <ele>206.67525</ele>
        <time>2022-09-30T12:33:26.000Z</time>
      </trkpt>
      <trkpt lat="45.85641" lon="4.66926">
        <ele>206.3154</ele>
        <time>2022-09-30T12:33:27.000Z</time>
      </trkpt>
      <trkpt lat="45.85646" lon="4.66923">
        <ele>206.01865</ele>
        <time>2022-09-30T12:33:28.000Z</time>
      </trkpt>
      <trkpt lat="45.85652" lon="4.66922">
        <ele>205.79761</ele>
        <time>2022-09-30T12:33:29.000Z</time>
      </trkpt>
      <trkpt lat="45.85658" lon="4.66922">
        <ele>205.68655</ele>
        <time>2022-09-30T12:33:30.000Z</time>
      </trkpt>
      <trkpt lat="45.85665" lon="4.6692">
        <ele>205.57205</ele>
        <time>2022-09-30T12:33:31.000Z</time>
      </trkpt>
      <trkpt lat="45.85671" lon="4.66919">
        <ele>205.57251</ele>
        <time>2022-09-30T12:33:32.000Z</time>
      </trkpt>
      <trkpt lat="45.85676" lon="4.66918">
        <ele>205.57149</ele>
        <time>2022-09-30T12:33:33.000Z</time>
      </trkpt>
      <trkpt lat="45.85681" lon="4.66918">
        <ele>205.55066</ele>
        <time>2022-09-30T12:33:34.000Z</time>
      </trkpt>
      <trkpt lat="45.85686" lon="4.66916">
        <ele>205.58574</ele>
        <time>2022-09-30T12:33:35.000Z</time>
      </trkpt>
      <trkpt lat="45.85692" lon="4.66914">
        <ele>205.64529</ele>
        <time>2022-09-30T12:33:36.000Z</time>
      </trkpt>
      <trkpt lat="45.85698" lon="4.66913">
        <ele>205.78488</ele>
        <time>2022-09-30T12:33:37.000Z</time>
      </trkpt>
      <trkpt lat="45.85702" lon="4.66913">
        <ele>205.95142</ele>
        <time>2022-09-30T12:33:38.000Z</time>
      </trkpt>
      <trkpt lat="45.85704" lon="4.66909">
        <ele>206.16153</ele>
        <time>2022-09-30T12:33:39.000Z</time>
      </trkpt>
      <trkpt lat="45.85705" lon="4.66904">
        <ele>206.3931</ele>
        <time>2022-09-30T12:33:40.000Z</time>
      </trkpt>
      <trkpt lat="45.85705" lon="4.66897">
        <ele>206.68149</ele>
        <time>2022-09-30T12:33:41.000Z</time>
      </trkpt>
      <trkpt lat="45.85704" lon="4.6689">
        <ele>206.97041</ele>
        <time>2022-09-30T12:33:42.000Z</time>
      </trkpt>
      <trkpt lat="45.85703" lon="4.66884">
        <ele>207.27402</ele>
        <time>2022-09-30T12:33:43.000Z</time>
      </trkpt>
      <trkpt lat="45.85698" lon="4.66879">
        <ele>207.75369</ele>
        <time>2022-09-30T12:33:44.000Z</time>
      </trkpt>
      <trkpt lat="45.85695" lon="4.66876">
        <ele>208.18701</ele>
        <time>2022-09-30T12:33:45.000Z</time>
      </trkpt>
      <trkpt lat="45.85692" lon="4.6687">
        <ele>208.69743</ele>
        <time>2022-09-30T12:33:46.000Z</time>
      </trkpt>
      <trkpt lat="45.85689" lon="4.66862">
        <ele>209.21036</ele>
        <time>2022-09-30T12:33:47.000Z</time>
      </trkpt>
      <trkpt lat="45.85688" lon="4.66854">
        <ele>209.75415</ele>
        <time>2022-09-30T12:33:48.000Z</time>
      </trkpt>
      <trkpt lat="45.85689" lon="4.66848">
        <ele>210.3475</ele>
        <time>2022-09-30T12:33:49.000Z</time>
      </trkpt>
      <trkpt lat="45.85691" lon="4.66845">
        <ele>210.87051</ele>
        <time>2022-09-30T12:33:50.000Z</time>
      </trkpt>
      <trkpt lat="45.85696" lon="4.66841">
        <ele>211.52039</ele>
        <time>2022-09-30T12:33:51.000Z</time>
      </trkpt>
      <trkpt lat="45.85699" lon="4.66838">
        <ele>212.11099</ele>
        <time>2022-09-30T12:33:52.000Z</time>
      </trkpt>
      <trkpt lat="45.85703" lon="4.66836">
        <ele>212.71207</ele>
        <time>2022-09-30T12:33:53.000Z</time>
      </trkpt>
      <trkpt lat="45.85708" lon="4.66836">
        <ele>213.23184</ele>
        <time>2022-09-30T12:33:54.000Z</time>
      </trkpt>
      <trkpt lat="45.85713" lon="4.66836">
        <ele>213.76909</ele>
        <time>2022-09-30T12:33:55.000Z</time>
      </trkpt>
      <trkpt lat="45.85717" lon="4.66835">
        <ele>214.27605</ele>
        <time>2022-09-30T12:33:56.000Z</time>
      </trkpt>
      <trkpt lat="45.85722" lon="4.66835">
        <ele>214.74069</ele>
        <time>2022-09-30T12:33:57.000Z</time>
      </trkpt>
      <trkpt lat="45.85726" lon="4.66835">
        <ele>215.22412</ele>
        <time>2022-09-30T12:33:58.000Z</time>
      </trkpt>
      <trkpt lat="45.8573" lon="4.66836">
        <ele>215.71431</ele>
        <time>2022-09-30T12:33:59.000Z</time>
      </trkpt>
      <trkpt lat="45.85735" lon="4.66837">
        <ele>216.17587</ele>
        <time>2022-09-30T12:34:00.000Z</time>
      </trkpt>
      <trkpt lat="45.85739" lon="4.66836">
        <ele>216.58418</ele>
        <time>2022-09-30T12:34:01.000Z</time>
      </trkpt>
      <trkpt lat="45.85742" lon="4.66835">
        <ele>216.99883</ele>
        <time>2022-09-30T12:34:02.000Z</time>
      </trkpt>
      <trkpt lat="45.85746" lon="4.66835">
        <ele>217.39566</ele>
        <time>2022-09-30T12:34:03.000Z</time>
      </trkpt>
      <trkpt lat="45.85749" lon="4.66834">
        <ele>217.73557</ele>
        <time>2022-09-30T12:34:04.000Z</time>
      </trkpt>
      <trkpt lat="45.85753" lon="4.66831">
        <ele>218.11868</ele>
        <time>2022-09-30T12:34:05.000Z</time>
      </trkpt>
      <trkpt lat="45.85757" lon="4.6683">
        <ele>218.44797</ele>
        <time>2022-09-30T12:34:06.000Z</time>
      </trkpt>
      <trkpt lat="45.8576" lon="4.66828">
        <ele>218.79074</ele>
        <time>2022-09-30T12:34:07.000Z</time>
      </trkpt>
      <trkpt lat="45.85764" lon="4.66825">
        <ele>219.04239</ele>
        <time>2022-09-30T12:34:08.000Z</time>
      </trkpt>
      <trkpt lat="45.85767" lon="4.66823">
        <ele>219.23721</ele>
        <time>2022-09-30T12:34:09.000Z</time>
      </trkpt>
      <trkpt lat="45.85771" lon="4.6682">
        <ele>219.37314</ele>
        <time>2022-09-30T12:34:10.000Z</time>
      </trkpt>
      <trkpt lat="45.85774" lon="4.66816">
        <ele>219.50916</ele>
        <time>2022-09-30T12:34:11.000Z</time>
      </trkpt>
      <trkpt lat="45.85778" lon="4.66811">
        <ele>219.68135</ele>
        <time>2022-09-30T12:34:12.000Z</time>
      </trkpt>
      <trkpt lat="45.8578" lon="4.66807">
        <ele>219.82596</ele>
        <time>2022-09-30T12:34:13.000Z</time>
      </trkpt>
      <trkpt lat="45.85782" lon="4.66801">
        <ele>219.95663</ele>
        <time>2022-09-30T12:34:14.000Z</time>
      </trkpt>
      <trkpt lat="45.85784" lon="4.66795">
        <ele>220.19034</ele>
        <time>2022-09-30T12:34:15.000Z</time>
      </trkpt>
      <trkpt lat="45.85786" lon="4.66789">
        <ele>220.46176</ele>
        <time>2022-09-30T12:34:16.000Z</time>
      </trkpt>
      <trkpt lat="45.85787" lon="4.66783">
        <ele>220.76791</ele>
        <time>2022-09-30T12:34:17.000Z</time>
      </trkpt>
      <trkpt lat="45.85789" lon="4.66777">
        <ele>221.09073</ele>
        <time>2022-09-30T12:34:18.000Z</time>
      </trkpt>
      <trkpt lat="45.8579" lon="4.6677">
        <ele>221.39688</ele>
        <time>2022-09-30T12:34:19.000Z</time>
      </trkpt>
      <trkpt lat="45.85793" lon="4.66764">
        <ele>221.72855</ele>
        <time>2022-09-30T12:34:20.000Z</time>
      </trkpt>
      <trkpt lat="45.85794" lon="4.66758">
        <ele>222.09045</ele>
        <time>2022-09-30T12:34:21.000Z</time>
      </trkpt>
      <trkpt lat="45.85796" lon="4.66752">
        <ele>222.50574</ele>
        <time>2022-09-30T12:34:22.000Z</time>
      </trkpt>
      <trkpt lat="45.85798" lon="4.66747">
        <ele>222.88608</ele>
        <time>2022-09-30T12:34:23.000Z</time>
      </trkpt>
      <trkpt lat="45.858" lon="4.66741">
        <ele>223.22568</ele>
        <time>2022-09-30T12:34:24.000Z</time>
      </trkpt>
      <trkpt lat="45.85802" lon="4.66736">
        <ele>223.53931</ele>
        <time>2022-09-30T12:34:25.000Z</time>
      </trkpt>
      <trkpt lat="45.85804" lon="4.6673">
        <ele>223.90884</ele>
        <time>2022-09-30T12:34:26.000Z</time>
      </trkpt>
      <trkpt lat="45.85805" lon="4.66725">
        <ele>224.34904</ele>
        <time>2022-09-30T12:34:27.000Z</time>
      </trkpt>
      <trkpt lat="45.85808" lon="4.66719">
        <ele>224.91226</ele>
        <time>2022-09-30T12:34:28.000Z</time>
      </trkpt>
      <trkpt lat="45.85812" lon="4.66717">
        <ele>225.60725</ele>
        <time>2022-09-30T12:34:29.000Z</time>
      </trkpt>
      <trkpt lat="45.85816" lon="4.6671">
        <ele>226.28073</ele>
        <time>2022-09-30T12:34:30.000Z</time>
      </trkpt>
      <trkpt lat="45.8582" lon="4.66709">
        <ele>226.92326</ele>
        <time>2022-09-30T12:34:31.000Z</time>
      </trkpt>
      <trkpt lat="45.85822" lon="4.66709">
        <ele>227.52095</ele>
        <time>2022-09-30T12:34:32.000Z</time>
      </trkpt>
      <trkpt lat="45.85826" lon="4.66707">
        <ele>228.20474</ele>
        <time>2022-09-30T12:34:33.000Z</time>
      </trkpt>
      <trkpt lat="45.85831" lon="4.66706">
        <ele>228.93803</ele>
        <time>2022-09-30T12:34:34.000Z</time>
      </trkpt>
      <trkpt lat="45.85834" lon="4.66707">
        <ele>229.57207</ele>
        <time>2022-09-30T12:34:35.000Z</time>
      </trkpt>
      <trkpt lat="45.8584" lon="4.66705">
        <ele>230.22322</ele>
        <time>2022-09-30T12:34:36.000Z</time>
      </trkpt>
      <trkpt lat="45.85844" lon="4.66705">
        <ele>230.81363</ele>
        <time>2022-09-30T12:34:37.000Z</time>
      </trkpt>
      <trkpt lat="45.85848" lon="4.66706">
        <ele>231.37134</ele>
        <time>2022-09-30T12:34:38.000Z</time>
      </trkpt>
      <trkpt lat="45.85853" lon="4.66702">
        <ele>231.87991</ele>
        <time>2022-09-30T12:34:39.000Z</time>
      </trkpt>
      <trkpt lat="45.85857" lon="4.66701">
        <ele>232.37915</ele>
        <time>2022-09-30T12:34:40.000Z</time>
      </trkpt>
      <trkpt lat="45.85861" lon="4.66699">
        <ele>232.78885</ele>
        <time>2022-09-30T12:34:41.000Z</time>
      </trkpt>
      <trkpt lat="45.85865" lon="4.66698">
        <ele>233.11226</ele>
        <time>2022-09-30T12:34:42.000Z</time>
      </trkpt>
      <trkpt lat="45.85869" lon="4.66698">
        <ele>233.47356</ele>
        <time>2022-09-30T12:34:43.000Z</time>
      </trkpt>
      <trkpt lat="45.85873" lon="4.66696">
        <ele>233.8376</ele>
        <time>2022-09-30T12:34:44.000Z</time>
      </trkpt>
      <trkpt lat="45.85877" lon="4.66694">
        <ele>234.21317</ele>
        <time>2022-09-30T12:34:45.000Z</time>
      </trkpt>
      <trkpt lat="45.85879" lon="4.66691">
        <ele>234.63762</ele>
        <time>2022-09-30T12:34:46.000Z</time>
      </trkpt>
      <trkpt lat="45.85882" lon="4.66687">
        <ele>235.05122</ele>
        <time>2022-09-30T12:34:47.000Z</time>
      </trkpt>
      <trkpt lat="45.85883" lon="4.66682">
        <ele>235.39743</ele>
        <time>2022-09-30T12:34:48.000Z</time>
      </trkpt>
      <trkpt lat="45.85883" lon="4.66677">
        <ele>235.62395</ele>
        <time>2022-09-30T12:34:49.000Z</time>
      </trkpt>
      <trkpt lat="45.85882" lon="4.66671">
        <ele>235.87631</ele>
        <time>2022-09-30T12:34:50.000Z</time>
      </trkpt>
      <trkpt lat="45.8588" lon="4.66665">
        <ele>236.03682</ele>
        <time>2022-09-30T12:34:51.000Z</time>
      </trkpt>
      <trkpt lat="45.85877" lon="4.6666">
        <ele>236.15173</ele>
        <time>2022-09-30T12:34:52.000Z</time>
      </trkpt>
      <trkpt lat="45.85874" lon="4.66656">
        <ele>236.28336</ele>
        <time>2022-09-30T12:34:53.000Z</time>
      </trkpt>
      <trkpt lat="45.8587" lon="4.66653">
        <ele>236.42215</ele>
        <time>2022-09-30T12:34:54.000Z</time>
      </trkpt>
      <trkpt lat="45.85866" lon="4.66651">
        <ele>236.53403</ele>
        <time>2022-09-30T12:34:55.000Z</time>
      </trkpt>
      <trkpt lat="45.85862" lon="4.66649">
        <ele>236.56816</ele>
        <time>2022-09-30T12:34:56.000Z</time>
      </trkpt>
      <trkpt lat="45.85858" lon="4.66647">
        <ele>236.66765</ele>
        <time>2022-09-30T12:34:57.000Z</time>
      </trkpt>
      <trkpt lat="45.85855" lon="4.66645">
        <ele>236.76997</ele>
        <time>2022-09-30T12:34:58.000Z</time>
      </trkpt>
      <trkpt lat="45.85852" lon="4.66642">
        <ele>236.97351</ele>
        <time>2022-09-30T12:34:59.000Z</time>
      </trkpt>
      <trkpt lat="45.85848" lon="4.66638">
        <ele>237.18661</ele>
        <time>2022-09-30T12:35:00.000Z</time>
      </trkpt>
      <trkpt lat="45.85846" lon="4.66635">
        <ele>237.44942</ele>
        <time>2022-09-30T12:35:01.000Z</time>
      </trkpt>
      <trkpt lat="45.85843" lon="4.66631">
        <ele>237.72627</ele>
        <time>2022-09-30T12:35:02.000Z</time>
      </trkpt>
      <trkpt lat="45.8584" lon="4.66628">
        <ele>238.00603</ele>
        <time>2022-09-30T12:35:03.000Z</time>
      </trkpt>
      <trkpt lat="45.85838" lon="4.66624">
        <ele>238.30132</ele>
        <time>2022-09-30T12:35:04.000Z</time>
      </trkpt>
      <trkpt lat="45.85836" lon="4.66619">
        <ele>238.58325</ele>
        <time>2022-09-30T12:35:05.000Z</time>
      </trkpt>
      <trkpt lat="45.85833" lon="4.66615">
        <ele>238.8606</ele>
        <time>2022-09-30T12:35:06.000Z</time>
      </trkpt>
      <trkpt lat="45.85831" lon="4.6661">
        <ele>239.14751</ele>
        <time>2022-09-30T12:35:07.000Z</time>
      </trkpt>
      <trkpt lat="45.85828" lon="4.66605">
        <ele>239.41475</ele>
        <time>2022-09-30T12:35:08.000Z</time>
      </trkpt>
      <trkpt lat="45.85825" lon="4.666">
        <ele>239.7043</ele>
        <time>2022-09-30T12:35:09.000Z</time>
      </trkpt>
      <trkpt lat="45.85823" lon="4.66594">
        <ele>240.02678</ele>
        <time>2022-09-30T12:35:10.000Z</time>
      </trkpt>
      <trkpt lat="45.8582" lon="4.66589">
        <ele>240.44402</ele>
        <time>2022-09-30T12:35:11.000Z</time>
      </trkpt>
      <trkpt lat="45.85819" lon="4.66583">
        <ele>240.82059</ele>
        <time>2022-09-30T12:35:12.000Z</time>
      </trkpt>
      <trkpt lat="45.85818" lon="4.66577">
        <ele>241.18608</ele>
        <time>2022-09-30T12:35:13.000Z</time>
      </trkpt>
      <trkpt lat="45.85818" lon="4.66571">
        <ele>241.57547</ele>
        <time>2022-09-30T12:35:14.000Z</time>
      </trkpt>
      <trkpt lat="45.85819" lon="4.66565">
        <ele>242.12277</ele>
        <time>2022-09-30T12:35:15.000Z</time>
      </trkpt>
      <trkpt lat="45.85821" lon="4.66559">
        <ele>242.71516</ele>
        <time>2022-09-30T12:35:16.000Z</time>
      </trkpt>
      <trkpt lat="45.85824" lon="4.66555">
        <ele>243.31384</ele>
        <time>2022-09-30T12:35:17.000Z</time>
      </trkpt>
      <trkpt lat="45.85828" lon="4.66552">
        <ele>243.93025</ele>
        <time>2022-09-30T12:35:18.000Z</time>
      </trkpt>
      <trkpt lat="45.85832" lon="4.6655">
        <ele>244.55313</ele>
        <time>2022-09-30T12:35:19.000Z</time>
      </trkpt>
      <trkpt lat="45.85837" lon="4.66548">
        <ele>245.16086</ele>
        <time>2022-09-30T12:35:20.000Z</time>
      </trkpt>
      <trkpt lat="45.85841" lon="4.66545">
        <ele>245.77205</ele>
        <time>2022-09-30T12:35:21.000Z</time>
      </trkpt>
      <trkpt lat="45.85844" lon="4.66542">
        <ele>246.44888</ele>
        <time>2022-09-30T12:35:22.000Z</time>
      </trkpt>
      <trkpt lat="45.85847" lon="4.66538">
        <ele>247.095</ele>
        <time>2022-09-30T12:35:23.000Z</time>
      </trkpt>
      <trkpt lat="45.85849" lon="4.66533">
        <ele>247.72212</ele>
        <time>2022-09-30T12:35:24.000Z</time>
      </trkpt>
      <trkpt lat="45.85851" lon="4.66527">
        <ele>248.37546</ele>
        <time>2022-09-30T12:35:25.000Z</time>
      </trkpt>
      <trkpt lat="45.85852" lon="4.66522">
        <ele>249.00139</ele>
        <time>2022-09-30T12:35:26.000Z</time>
      </trkpt>
      <trkpt lat="45.85853" lon="4.66517">
        <ele>249.59261</ele>
        <time>2022-09-30T12:35:27.000Z</time>
      </trkpt>
      <trkpt lat="45.85855" lon="4.66512">
        <ele>250.2187</ele>
        <time>2022-09-30T12:35:28.000Z</time>
      </trkpt>
      <trkpt lat="45.85856" lon="4.66507">
        <ele>250.80977</ele>
        <time>2022-09-30T12:35:29.000Z</time>
      </trkpt>
      <trkpt lat="45.85857" lon="4.66502">
        <ele>251.35445</ele>
        <time>2022-09-30T12:35:30.000Z</time>
      </trkpt>
      <trkpt lat="45.85858" lon="4.66497">
        <ele>251.85568</ele>
        <time>2022-09-30T12:35:31.000Z</time>
      </trkpt>
      <trkpt lat="45.85859" lon="4.66491">
        <ele>252.39575</ele>
        <time>2022-09-30T12:35:32.000Z</time>
      </trkpt>
      <trkpt lat="45.8586" lon="4.66486">
        <ele>252.87857</ele>
        <time>2022-09-30T12:35:33.000Z</time>
      </trkpt>
      <trkpt lat="45.85861" lon="4.6648">
        <ele>253.38684</ele>
        <time>2022-09-30T12:35:34.000Z</time>
      </trkpt>
      <trkpt lat="45.85861" lon="4.66474">
        <ele>253.71909</ele>
        <time>2022-09-30T12:35:35.000Z</time>
      </trkpt>
      <trkpt lat="45.85862" lon="4.66469">
        <ele>254.0247</ele>
        <time>2022-09-30T12:35:36.000Z</time>
      </trkpt>
      <trkpt lat="45.85863" lon="4.66463">
        <ele>254.26277</ele>
        <time>2022-09-30T12:35:37.000Z</time>
      </trkpt>
      <trkpt lat="45.85864" lon="4.66457">
        <ele>254.49593</ele>
        <time>2022-09-30T12:35:38.000Z</time>
      </trkpt>
      <trkpt lat="45.85865" lon="4.66452">
        <ele>254.6774</ele>
        <time>2022-09-30T12:35:39.000Z</time>
      </trkpt>
      <trkpt lat="45.85865" lon="4.66446">
        <ele>254.94153</ele>
        <time>2022-09-30T12:35:40.000Z</time>
      </trkpt>
      <trkpt lat="45.85866" lon="4.6644">
        <ele>255.26859</ele>
        <time>2022-09-30T12:35:41.000Z</time>
      </trkpt>
      <trkpt lat="45.85867" lon="4.66435">
        <ele>255.59317</ele>
        <time>2022-09-30T12:35:42.000Z</time>
      </trkpt>
      <trkpt lat="45.85868" lon="4.66429">
        <ele>255.9429</ele>
        <time>2022-09-30T12:35:43.000Z</time>
      </trkpt>
      <trkpt lat="45.85869" lon="4.66423">
        <ele>256.29611</ele>
        <time>2022-09-30T12:35:44.000Z</time>
      </trkpt>
      <trkpt lat="45.8587" lon="4.66417">
        <ele>256.70883</ele>
        <time>2022-09-30T12:35:45.000Z</time>
      </trkpt>
      <trkpt lat="45.85871" lon="4.66412">
        <ele>257.0827</ele>
        <time>2022-09-30T12:35:46.000Z</time>
      </trkpt>
      <trkpt lat="45.85872" lon="4.66406">
        <ele>257.43546</ele>
        <time>2022-09-30T12:35:47.000Z</time>
      </trkpt>
      <trkpt lat="45.85874" lon="4.664">
        <ele>257.76465</ele>
        <time>2022-09-30T12:35:48.000Z</time>
      </trkpt>
      <trkpt lat="45.85875" lon="4.66394">
        <ele>258.08371</ele>
        <time>2022-09-30T12:35:49.000Z</time>
      </trkpt>
      <trkpt lat="45.85876" lon="4.66389">
        <ele>258.40656</ele>
        <time>2022-09-30T12:35:50.000Z</time>
      </trkpt>
      <trkpt lat="45.85878" lon="4.66383">
        <ele>258.75272</ele>
        <time>2022-09-30T12:35:51.000Z</time>
      </trkpt>
      <trkpt lat="45.85879" lon="4.66378">
        <ele>259.15585</ele>
        <time>2022-09-30T12:35:52.000Z</time>
      </trkpt>
      <trkpt lat="45.85881" lon="4.66372">
        <ele>259.55817</ele>
        <time>2022-09-30T12:35:53.000Z</time>
      </trkpt>
      <trkpt lat="45.85883" lon="4.66367">
        <ele>259.93085</ele>
        <time>2022-09-30T12:35:54.000Z</time>
      </trkpt>
      <trkpt lat="45.85885" lon="4.66362">
        <ele>260.36386</ele>
        <time>2022-09-30T12:35:55.000Z</time>
      </trkpt>
      <trkpt lat="45.85887" lon="4.66357">
        <ele>260.82544</ele>
        <time>2022-09-30T12:35:56.000Z</time>
      </trkpt>
      <trkpt lat="45.85888" lon="4.66352">
        <ele>261.36597</ele>
        <time>2022-09-30T12:35:57.000Z</time>
      </trkpt>
      <trkpt lat="45.8589" lon="4.66347">
        <ele>261.95316</ele>
        <time>2022-09-30T12:35:58.000Z</time>
      </trkpt>
      <trkpt lat="45.85893" lon="4.66342">
        <ele>262.44043</ele>
        <time>2022-09-30T12:35:59.000Z</time>
      </trkpt>
      <trkpt lat="45.85895" lon="4.66337">
        <ele>262.8443</ele>
        <time>2022-09-30T12:36:00.000Z</time>
      </trkpt>
      <trkpt lat="45.85898" lon="4.66332">
        <ele>263.23526</ele>
        <time>2022-09-30T12:36:01.000Z</time>
      </trkpt>
      <trkpt lat="45.859" lon="4.66327">
        <ele>263.65039</ele>
        <time>2022-09-30T12:36:02.000Z</time>
      </trkpt>
      <trkpt lat="45.85902" lon="4.66322">
        <ele>264.03082</ele>
        <time>2022-09-30T12:36:03.000Z</time>
      </trkpt>
      <trkpt lat="45.85904" lon="4.66317">
        <ele>264.38437</ele>
        <time>2022-09-30T12:36:04.000Z</time>
      </trkpt>
      <trkpt lat="45.85906" lon="4.66311">
        <ele>264.63931</ele>
        <time>2022-09-30T12:36:05.000Z</time>
      </trkpt>
      <trkpt lat="45.85908" lon="4.66307">
        <ele>264.97394</ele>
        <time>2022-09-30T12:36:06.000Z</time>
      </trkpt>
      <trkpt lat="45.8591" lon="4.66302">
        <ele>265.33737</ele>
        <time>2022-09-30T12:36:07.000Z</time>
      </trkpt>
      <trkpt lat="45.85913" lon="4.66298">
        <ele>265.72229</ele>
        <time>2022-09-30T12:36:08.000Z</time>
      </trkpt>
      <trkpt lat="45.85915" lon="4.66293">
        <ele>266.09869</ele>
        <time>2022-09-30T12:36:09.000Z</time>
      </trkpt>
      <trkpt lat="45.85917" lon="4.66289">
        <ele>266.47659</ele>
        <time>2022-09-30T12:36:10.000Z</time>
      </trkpt>
      <trkpt lat="45.8592" lon="4.66284">
        <ele>266.83859</ele>
        <time>2022-09-30T12:36:11.000Z</time>
      </trkpt>
      <trkpt lat="45.85923" lon="4.6628">
        <ele>267.18817</ele>
        <time>2022-09-30T12:36:12.000Z</time>
      </trkpt>
      <trkpt lat="45.85926" lon="4.66276">
        <ele>267.53549</ele>
        <time>2022-09-30T12:36:13.000Z</time>
      </trkpt>
      <trkpt lat="45.85928" lon="4.66272">
        <ele>267.84467</ele>
        <time>2022-09-30T12:36:14.000Z</time>
      </trkpt>
      <trkpt lat="45.85931" lon="4.66268">
        <ele>268.14456</ele>
        <time>2022-09-30T12:36:15.000Z</time>
      </trkpt>
      <trkpt lat="45.85933" lon="4.66264">
        <ele>268.37067</ele>
        <time>2022-09-30T12:36:16.000Z</time>
      </trkpt>
      <trkpt lat="45.85935" lon="4.66259">
        <ele>268.55807</ele>
        <time>2022-09-30T12:36:17.000Z</time>
      </trkpt>
      <trkpt lat="45.85938" lon="4.66255">
        <ele>268.59302</ele>
        <time>2022-09-30T12:36:18.000Z</time>
      </trkpt>
      <trkpt lat="45.8594" lon="4.66251">
        <ele>268.7384</ele>
        <time>2022-09-30T12:36:19.000Z</time>
      </trkpt>
      <trkpt lat="45.85942" lon="4.66246">
        <ele>268.89056</ele>
        <time>2022-09-30T12:36:20.000Z</time>
      </trkpt>
      <trkpt lat="45.85945" lon="4.66242">
        <ele>269.02338</ele>
        <time>2022-09-30T12:36:21.000Z</time>
      </trkpt>
      <trkpt lat="45.85947" lon="4.66237">
        <ele>269.13019</ele>
        <time>2022-09-30T12:36:22.000Z</time>
      </trkpt>
      <trkpt lat="45.85949" lon="4.66233">
        <ele>269.2171</ele>
        <time>2022-09-30T12:36:23.000Z</time>
      </trkpt>
      <trkpt lat="45.85952" lon="4.66228">
        <ele>269.35947</ele>
        <time>2022-09-30T12:36:24.000Z</time>
      </trkpt>
      <trkpt lat="45.85954" lon="4.66223">
        <ele>269.48322</ele>
        <time>2022-09-30T12:36:25.000Z</time>
      </trkpt>
      <trkpt lat="45.85956" lon="4.66218">
        <ele>269.5238</ele>
        <time>2022-09-30T12:36:26.000Z</time>
      </trkpt>
      <trkpt lat="45.85958" lon="4.66213">
        <ele>269.49518</ele>
        <time>2022-09-30T12:36:27.000Z</time>
      </trkpt>
      <trkpt lat="45.8596" lon="4.66209">
        <ele>269.47272</ele>
        <time>2022-09-30T12:36:28.000Z</time>
      </trkpt>
      <trkpt lat="45.85962" lon="4.66205">
        <ele>269.61978</ele>
        <time>2022-09-30T12:36:29.000Z</time>
      </trkpt>
      <trkpt lat="45.85964" lon="4.662">
        <ele>269.73453</ele>
        <time>2022-09-30T12:36:30.000Z</time>
      </trkpt>
      <trkpt lat="45.85967" lon="4.66195">
        <ele>269.94046</ele>
        <time>2022-09-30T12:36:31.000Z</time>
      </trkpt>
      <trkpt lat="45.85968" lon="4.66191">
        <ele>270.10956</ele>
        <time>2022-09-30T12:36:32.000Z</time>
      </trkpt>
      <trkpt lat="45.8597" lon="4.66186">
        <ele>270.26239</ele>
        <time>2022-09-30T12:36:33.000Z</time>
      </trkpt>
      <trkpt lat="45.85973" lon="4.6618">
        <ele>270.43567</ele>
        <time>2022-09-30T12:36:34.000Z</time>
      </trkpt>
      <trkpt lat="45.85975" lon="4.66174">
        <ele>270.54764</ele>
        <time>2022-09-30T12:36:35.000Z</time>
      </trkpt>
      <trkpt lat="45.85979" lon="4.6617">
        <ele>270.79437</ele>
        <time>2022-09-30T12:36:36.000Z</time>
      </trkpt>
      <trkpt lat="45.85981" lon="4.66163">
        <ele>271.03513</ele>
        <time>2022-09-30T12:36:37.000Z</time>
      </trkpt>
      <trkpt lat="45.85986" lon="4.66158">
        <ele>271.40726</ele>
        <time>2022-09-30T12:36:38.000Z</time>
      </trkpt>
      <trkpt lat="45.85988" lon="4.66151">
        <ele>271.72058</ele>
        <time>2022-09-30T12:36:39.000Z</time>
      </trkpt>
      <trkpt lat="45.85993" lon="4.66149">
        <ele>271.87408</ele>
        <time>2022-09-30T12:36:40.000Z</time>
      </trkpt>
      <trkpt lat="45.85996" lon="4.66145">
        <ele>271.94049</ele>
        <time>2022-09-30T12:36:41.000Z</time>
      </trkpt>
      <trkpt lat="45.86001" lon="4.66141">
        <ele>271.88931</ele>
        <time>2022-09-30T12:36:42.000Z</time>
      </trkpt>
      <trkpt lat="45.86004" lon="4.66136">
        <ele>271.8627</ele>
        <time>2022-09-30T12:36:43.000Z</time>
      </trkpt>
      <trkpt lat="45.86009" lon="4.6613">
        <ele>271.81961</ele>
        <time>2022-09-30T12:36:44.000Z</time>
      </trkpt>
      <trkpt lat="45.86013" lon="4.66124">
        <ele>271.82111</ele>
        <time>2022-09-30T12:36:45.000Z</time>
      </trkpt>
      <trkpt lat="45.86018" lon="4.6612">
        <ele>271.76599</ele>
        <time>2022-09-30T12:36:46.000Z</time>
      </trkpt>
      <trkpt lat="45.86023" lon="4.66113">
        <ele>271.74554</ele>
        <time>2022-09-30T12:36:47.000Z</time>
      </trkpt>
      <trkpt lat="45.86028" lon="4.66109">
        <ele>271.67731</ele>
        <time>2022-09-30T12:36:48.000Z</time>
      </trkpt>
      <trkpt lat="45.86034" lon="4.66106">
        <ele>271.45712</ele>
        <time>2022-09-30T12:36:49.000Z</time>
      </trkpt>
      <trkpt lat="45.86038" lon="4.66102">
        <ele>271.25946</ele>
        <time>2022-09-30T12:36:50.000Z</time>
      </trkpt>
      <trkpt lat="45.86043" lon="4.66098">
        <ele>270.96799</ele>
        <time>2022-09-30T12:36:51.000Z</time>
      </trkpt>
      <trkpt lat="45.86049" lon="4.66094">
        <ele>270.72537</ele>
        <time>2022-09-30T12:36:52.000Z</time>
      </trkpt>
      <trkpt lat="45.86053" lon="4.6609">
        <ele>270.5545</ele>
        <time>2022-09-30T12:36:53.000Z</time>
      </trkpt>
      <trkpt lat="45.86059" lon="4.66086">
        <ele>270.39944</ele>
        <time>2022-09-30T12:36:54.000Z</time>
      </trkpt>
      <trkpt lat="45.86063" lon="4.6608">
        <ele>270.33984</ele>
        <time>2022-09-30T12:36:55.000Z</time>
      </trkpt>
      <trkpt lat="45.86068" lon="4.66076">
        <ele>270.28592</ele>
        <time>2022-09-30T12:36:56.000Z</time>
      </trkpt>
      <trkpt lat="45.8607" lon="4.66068">
        <ele>270.21808</ele>
        <time>2022-09-30T12:36:57.000Z</time>
      </trkpt>
      <trkpt lat="45.86072" lon="4.66058">
        <ele>269.99835</ele>
        <time>2022-09-30T12:36:58.000Z</time>
      </trkpt>
      <trkpt lat="45.86074" lon="4.6605">
        <ele>269.77646</ele>
        <time>2022-09-30T12:36:59.000Z</time>
      </trkpt>
      <trkpt lat="45.86077" lon="4.66042">
        <ele>269.71179</ele>
        <time>2022-09-30T12:37:00.000Z</time>
      </trkpt>
      <trkpt lat="45.86079" lon="4.66038">
        <ele>269.7084</ele>
        <time>2022-09-30T12:37:01.000Z</time>
      </trkpt>
      <trkpt lat="45.86082" lon="4.66029">
        <ele>269.68457</ele>
        <time>2022-09-30T12:37:02.000Z</time>
      </trkpt>
      <trkpt lat="45.86086" lon="4.66021">
        <ele>269.51178</ele>
        <time>2022-09-30T12:37:03.000Z</time>
      </trkpt>
      <trkpt lat="45.86088" lon="4.66011">
        <ele>269.47372</ele>
        <time>2022-09-30T12:37:04.000Z</time>
      </trkpt>
      <trkpt lat="45.86092" lon="4.66002">
        <ele>269.42123</ele>
        <time>2022-09-30T12:37:05.000Z</time>
      </trkpt>
      <trkpt lat="45.86096" lon="4.65995">
        <ele>269.44293</ele>
        <time>2022-09-30T12:37:06.000Z</time>
      </trkpt>
      <trkpt lat="45.86099" lon="4.65986">
        <ele>269.47021</ele>
        <time>2022-09-30T12:37:07.000Z</time>
      </trkpt>
      <trkpt lat="45.86103" lon="4.65978">
        <ele>269.55109</ele>
        <time>2022-09-30T12:37:08.000Z</time>
      </trkpt>
      <trkpt lat="45.86105" lon="4.65971">
        <ele>269.64844</ele>
        <time>2022-09-30T12:37:09.000Z</time>
      </trkpt>
      <trkpt lat="45.86109" lon="4.65965">
        <ele>269.78027</ele>
        <time>2022-09-30T12:37:10.000Z</time>
      </trkpt>
      <trkpt lat="45.86112" lon="4.65957">
        <ele>269.84521</ele>
        <time>2022-09-30T12:37:11.000Z</time>
      </trkpt>
      <trkpt lat="45.86114" lon="4.65949">
        <ele>269.90598</ele>
        <time>2022-09-30T12:37:12.000Z</time>
      </trkpt>
      <trkpt lat="45.86116" lon="4.65943">
        <ele>269.8985</ele>
        <time>2022-09-30T12:37:13.000Z</time>
      </trkpt>
      <trkpt lat="45.86119" lon="4.65936">
        <ele>269.90936</ele>
        <time>2022-09-30T12:37:14.000Z</time>
      </trkpt>
      <trkpt lat="45.86122" lon="4.65929">
        <ele>269.9046</ele>
        <time>2022-09-30T12:37:15.000Z</time>
      </trkpt>
      <trkpt lat="45.86125" lon="4.65921">
        <ele>269.71112</ele>
        <time>2022-09-30T12:37:16.000Z</time>
      </trkpt>
      <trkpt lat="45.86129" lon="4.65914">
        <ele>269.46014</ele>
        <time>2022-09-30T12:37:17.000Z</time>
      </trkpt>
      <trkpt lat="45.86132" lon="4.65909">
        <ele>269.31277</ele>
        <time>2022-09-30T12:37:18.000Z</time>
      </trkpt>
      <trkpt lat="45.86136" lon="4.65902">
        <ele>268.80838</ele>
        <time>2022-09-30T12:37:19.000Z</time>
      </trkpt>
      <trkpt lat="45.86141" lon="4.65892">
        <ele>268.31766</ele>
        <time>2022-09-30T12:37:20.000Z</time>
      </trkpt>
      <trkpt lat="45.86144" lon="4.65881">
        <ele>267.81207</ele>
        <time>2022-09-30T12:37:21.000Z</time>
      </trkpt>
      <trkpt lat="45.86147" lon="4.65873">
        <ele>267.39001</ele>
        <time>2022-09-30T12:37:22.000Z</time>
      </trkpt>
      <trkpt lat="45.8615" lon="4.65866">
        <ele>267.07446</ele>
        <time>2022-09-30T12:37:23.000Z</time>
      </trkpt>
      <trkpt lat="45.86152" lon="4.65862">
        <ele>266.62054</ele>
        <time>2022-09-30T12:37:24.000Z</time>
      </trkpt>
      <trkpt lat="45.86156" lon="4.65856">
        <ele>266.18683</ele>
        <time>2022-09-30T12:37:25.000Z</time>
      </trkpt>
      <trkpt lat="45.8616" lon="4.6585">
        <ele>265.78683</ele>
        <time>2022-09-30T12:37:26.000Z</time>
      </trkpt>
      <trkpt lat="45.86164" lon="4.65844">
        <ele>265.26971</ele>
        <time>2022-09-30T12:37:27.000Z</time>
      </trkpt>
      <trkpt lat="45.86167" lon="4.65836">
        <ele>264.79794</ele>
        <time>2022-09-30T12:37:28.000Z</time>
      </trkpt>
      <trkpt lat="45.8617" lon="4.65827">
        <ele>264.39203</ele>
        <time>2022-09-30T12:37:29.000Z</time>
      </trkpt>
      <trkpt lat="45.86173" lon="4.6582">
        <ele>263.99902</ele>
        <time>2022-09-30T12:37:30.000Z</time>
      </trkpt>
      <trkpt lat="45.86176" lon="4.65812">
        <ele>263.6438</ele>
        <time>2022-09-30T12:37:31.000Z</time>
      </trkpt>
      <trkpt lat="45.8618" lon="4.65807">
        <ele>263.35883</ele>
        <time>2022-09-30T12:37:32.000Z</time>
      </trkpt>
      <trkpt lat="45.86182" lon="4.65801">
        <ele>263.20685</ele>
        <time>2022-09-30T12:37:33.000Z</time>
      </trkpt>
      <trkpt lat="45.86186" lon="4.65794">
        <ele>262.98502</ele>
        <time>2022-09-30T12:37:34.000Z</time>
      </trkpt>
      <trkpt lat="45.8619" lon="4.65789">
        <ele>262.70541</ele>
        <time>2022-09-30T12:37:35.000Z</time>
      </trkpt>
      <trkpt lat="45.86192" lon="4.65782">
        <ele>262.43549</ele>
        <time>2022-09-30T12:37:36.000Z</time>
      </trkpt>
      <trkpt lat="45.86195" lon="4.65775">
        <ele>262.17703</ele>
        <time>2022-09-30T12:37:37.000Z</time>
      </trkpt>
      <trkpt lat="45.86196" lon="4.65768">
        <ele>261.92798</ele>
        <time>2022-09-30T12:37:38.000Z</time>
      </trkpt>
      <trkpt lat="45.86199" lon="4.65761">
        <ele>262.08298</ele>
        <time>2022-09-30T12:37:39.000Z</time>
      </trkpt>
      <trkpt lat="45.86201" lon="4.65756">
        <ele>262.24689</ele>
        <time>2022-09-30T12:37:40.000Z</time>
      </trkpt>
      <trkpt lat="45.86204" lon="4.65748">
        <ele>262.32413</ele>
        <time>2022-09-30T12:37:41.000Z</time>
      </trkpt>
      <trkpt lat="45.86206" lon="4.65741">
        <ele>262.43109</ele>
        <time>2022-09-30T12:37:42.000Z</time>
      </trkpt>
      <trkpt lat="45.8621" lon="4.65734">
        <ele>262.63416</ele>
        <time>2022-09-30T12:37:43.000Z</time>
      </trkpt>
      <trkpt lat="45.86213" lon="4.65727">
        <ele>262.76886</ele>
        <time>2022-09-30T12:37:44.000Z</time>
      </trkpt>
      <trkpt lat="45.86216" lon="4.6572">
        <ele>262.90826</ele>
        <time>2022-09-30T12:37:45.000Z</time>
      </trkpt>
      <trkpt lat="45.86219" lon="4.65713">
        <ele>262.97137</ele>
        <time>2022-09-30T12:37:46.000Z</time>
      </trkpt>
      <trkpt lat="45.86222" lon="4.65707">
        <ele>263.11273</ele>
        <time>2022-09-30T12:37:47.000Z</time>
      </trkpt>
      <trkpt lat="45.86225" lon="4.65701">
        <ele>263.18649</ele>
        <time>2022-09-30T12:37:48.000Z</time>
      </trkpt>
      <trkpt lat="45.86228" lon="4.65695">
        <ele>263.13635</ele>
        <time>2022-09-30T12:37:49.000Z</time>
      </trkpt>
      <trkpt lat="45.8623" lon="4.65687">
        <ele>263.10916</ele>
        <time>2022-09-30T12:37:50.000Z</time>
      </trkpt>
      <trkpt lat="45.86233" lon="4.65682">
        <ele>263.13684</ele>
        <time>2022-09-30T12:37:51.000Z</time>
      </trkpt>
      <trkpt lat="45.86234" lon="4.65676">
        <ele>263.11218</ele>
        <time>2022-09-30T12:37:52.000Z</time>
      </trkpt>
      <trkpt lat="45.86237" lon="4.65668">
        <ele>263.04437</ele>
        <time>2022-09-30T12:37:53.000Z</time>
      </trkpt>
      <trkpt lat="45.8624" lon="4.6566">
        <ele>263.07199</ele>
        <time>2022-09-30T12:37:54.000Z</time>
      </trkpt>
      <trkpt lat="45.86243" lon="4.65654">
        <ele>263.15634</ele>
        <time>2022-09-30T12:37:55.000Z</time>
      </trkpt>
      <trkpt lat="45.86246" lon="4.65647">
        <ele>263.27939</ele>
        <time>2022-09-30T12:37:56.000Z</time>
      </trkpt>
      <trkpt lat="45.86249" lon="4.65639">
        <ele>263.45908</ele>
        <time>2022-09-30T12:37:57.000Z</time>
      </trkpt>
      <trkpt lat="45.86253" lon="4.65633">
        <ele>263.5687</ele>
        <time>2022-09-30T12:37:58.000Z</time>
      </trkpt>
      <trkpt lat="45.86254" lon="4.65627">
        <ele>263.69244</ele>
        <time>2022-09-30T12:37:59.000Z</time>
      </trkpt>
      <trkpt lat="45.86258" lon="4.65621">
        <ele>263.85886</ele>
        <time>2022-09-30T12:38:00.000Z</time>
      </trkpt>
      <trkpt lat="45.86261" lon="4.65614">
        <ele>264.1499</ele>
        <time>2022-09-30T12:38:01.000Z</time>
      </trkpt>
      <trkpt lat="45.86262" lon="4.65609">
        <ele>264.39767</ele>
        <time>2022-09-30T12:38:02.000Z</time>
      </trkpt>
      <trkpt lat="45.86264" lon="4.65602">
        <ele>264.5654</ele>
        <time>2022-09-30T12:38:03.000Z</time>
      </trkpt>
      <trkpt lat="45.86267" lon="4.65597">
        <ele>264.77362</ele>
        <time>2022-09-30T12:38:04.000Z</time>
      </trkpt>
      <trkpt lat="45.86268" lon="4.65591">
        <ele>265.02832</ele>
        <time>2022-09-30T12:38:05.000Z</time>
      </trkpt>
      <trkpt lat="45.8627" lon="4.65584">
        <ele>265.31262</ele>
        <time>2022-09-30T12:38:06.000Z</time>
      </trkpt>
      <trkpt lat="45.86272" lon="4.65578">
        <ele>265.62982</ele>
        <time>2022-09-30T12:38:07.000Z</time>
      </trkpt>
      <trkpt lat="45.86274" lon="4.65572">
        <ele>265.97113</ele>
        <time>2022-09-30T12:38:08.000Z</time>
      </trkpt>
      <trkpt lat="45.86274" lon="4.65566">
        <ele>266.35446</ele>
        <time>2022-09-30T12:38:09.000Z</time>
      </trkpt>
      <trkpt lat="45.86275" lon="4.65561">
        <ele>266.67957</ele>
        <time>2022-09-30T12:38:10.000Z</time>
      </trkpt>
      <trkpt lat="45.86277" lon="4.65555">
        <ele>266.93991</ele>
        <time>2022-09-30T12:38:11.000Z</time>
      </trkpt>
      <trkpt lat="45.86278" lon="4.65548">
        <ele>267.14212</ele>
        <time>2022-09-30T12:38:12.000Z</time>
      </trkpt>
      <trkpt lat="45.86281" lon="4.65543">
        <ele>267.28815</ele>
        <time>2022-09-30T12:38:13.000Z</time>
      </trkpt>
      <trkpt lat="45.86282" lon="4.65537">
        <ele>267.38559</ele>
        <time>2022-09-30T12:38:14.000Z</time>
      </trkpt>
      <trkpt lat="45.86284" lon="4.65533">
        <ele>267.45294</ele>
        <time>2022-09-30T12:38:15.000Z</time>
      </trkpt>
      <trkpt lat="45.86285" lon="4.65528">
        <ele>267.57935</ele>
        <time>2022-09-30T12:38:16.000Z</time>
      </trkpt>
      <trkpt lat="45.86286" lon="4.65524">
        <ele>267.72293</ele>
        <time>2022-09-30T12:38:17.000Z</time>
      </trkpt>
      <trkpt lat="45.86287" lon="4.65518">
        <ele>267.93021</ele>
        <time>2022-09-30T12:38:18.000Z</time>
      </trkpt>
      <trkpt lat="45.8629" lon="4.65513">
        <ele>268.14175</ele>
        <time>2022-09-30T12:38:19.000Z</time>
      </trkpt>
      <trkpt lat="45.86292" lon="4.65506">
        <ele>268.25006</ele>
        <time>2022-09-30T12:38:20.000Z</time>
      </trkpt>
      <trkpt lat="45.86293" lon="4.65499">
        <ele>268.29266</ele>
        <time>2022-09-30T12:38:21.000Z</time>
      </trkpt>
      <trkpt lat="45.86296" lon="4.65494">
        <ele>268.33832</ele>
        <time>2022-09-30T12:38:22.000Z</time>
      </trkpt>
      <trkpt lat="45.86298" lon="4.65486">
        <ele>268.32526</ele>
        <time>2022-09-30T12:38:23.000Z</time>
      </trkpt>
      <trkpt lat="45.86299" lon="4.6548">
        <ele>268.30988</ele>
        <time>2022-09-30T12:38:24.000Z</time>
      </trkpt>
      <trkpt lat="45.86302" lon="4.65474">
        <ele>268.25632</ele>
        <time>2022-09-30T12:38:25.000Z</time>
      </trkpt>
      <trkpt lat="45.86304" lon="4.65466">
        <ele>268.2139</ele>
        <time>2022-09-30T12:38:26.000Z</time>
      </trkpt>
      <trkpt lat="45.86306" lon="4.65458">
        <ele>268.18024</ele>
        <time>2022-09-30T12:38:27.000Z</time>
      </trkpt>
      <trkpt lat="45.86308" lon="4.65451">
        <ele>268.09683</ele>
        <time>2022-09-30T12:38:28.000Z</time>
      </trkpt>
      <trkpt lat="45.86309" lon="4.65445">
        <ele>268.00668</ele>
        <time>2022-09-30T12:38:29.000Z</time>
      </trkpt>
      <trkpt lat="45.86311" lon="4.65438">
        <ele>267.92053</ele>
        <time>2022-09-30T12:38:30.000Z</time>
      </trkpt>
      <trkpt lat="45.86314" lon="4.6543">
        <ele>267.86444</ele>
        <time>2022-09-30T12:38:31.000Z</time>
      </trkpt>
      <trkpt lat="45.86316" lon="4.65423">
        <ele>267.83902</ele>
        <time>2022-09-30T12:38:32.000Z</time>
      </trkpt>
      <trkpt lat="45.86317" lon="4.65416">
        <ele>267.81732</ele>
        <time>2022-09-30T12:38:33.000Z</time>
      </trkpt>
      <trkpt lat="45.86318" lon="4.65408">
        <ele>267.79578</ele>
        <time>2022-09-30T12:38:34.000Z</time>
      </trkpt>
      <trkpt lat="45.86321" lon="4.65401">
        <ele>267.79987</ele>
        <time>2022-09-30T12:38:35.000Z</time>
      </trkpt>
      <trkpt lat="45.86323" lon="4.65392">
        <ele>267.76855</ele>
        <time>2022-09-30T12:38:36.000Z</time>
      </trkpt>
      <trkpt lat="45.86325" lon="4.65385">
        <ele>267.74127</ele>
        <time>2022-09-30T12:38:37.000Z</time>
      </trkpt>
      <trkpt lat="45.86328" lon="4.65375">
        <ele>267.63751</ele>
        <time>2022-09-30T12:38:38.000Z</time>
      </trkpt>
      <trkpt lat="45.86329" lon="4.65369">
        <ele>267.53647</ele>
        <time>2022-09-30T12:38:39.000Z</time>
      </trkpt>
      <trkpt lat="45.86331" lon="4.65361">
        <ele>267.46436</ele>
        <time>2022-09-30T12:38:40.000Z</time>
      </trkpt>
      <trkpt lat="45.86333" lon="4.65354">
        <ele>267.42905</ele>
        <time>2022-09-30T12:38:41.000Z</time>
      </trkpt>
      <trkpt lat="45.86335" lon="4.65346">
        <ele>267.4079</ele>
        <time>2022-09-30T12:38:42.000Z</time>
      </trkpt>
      <trkpt lat="45.86337" lon="4.65338">
        <ele>267.49658</ele>
        <time>2022-09-30T12:38:43.000Z</time>
      </trkpt>
      <trkpt lat="45.8634" lon="4.65331">
        <ele>267.60287</ele>
        <time>2022-09-30T12:38:44.000Z</time>
      </trkpt>
      <trkpt lat="45.86342" lon="4.65323">
        <ele>267.69232</ele>
        <time>2022-09-30T12:38:45.000Z</time>
      </trkpt>
      <trkpt lat="45.86342" lon="4.65316">
        <ele>267.81549</ele>
        <time>2022-09-30T12:38:46.000Z</time>
      </trkpt>
      <trkpt lat="45.86343" lon="4.65309">
        <ele>267.87604</ele>
        <time>2022-09-30T12:38:47.000Z</time>
      </trkpt>
      <trkpt lat="45.86344" lon="4.65301">
        <ele>268.02423</ele>
        <time>2022-09-30T12:38:48.000Z</time>
      </trkpt>
      <trkpt lat="45.86346" lon="4.65294">
        <ele>268.18188</ele>
        <time>2022-09-30T12:38:49.000Z</time>
      </trkpt>
      <trkpt lat="45.86348" lon="4.65287">
        <ele>268.33255</ele>
        <time>2022-09-30T12:38:50.000Z</time>
      </trkpt>
      <trkpt lat="45.86351" lon="4.65279">
        <ele>268.45605</ele>
        <time>2022-09-30T12:38:51.000Z</time>
      </trkpt>
      <trkpt lat="45.86353" lon="4.65272">
        <ele>268.59598</ele>
        <time>2022-09-30T12:38:52.000Z</time>
      </trkpt>
      <trkpt lat="45.86355" lon="4.65264">
        <ele>268.71429</ele>
        <time>2022-09-30T12:38:53.000Z</time>
      </trkpt>
      <trkpt lat="45.86357" lon="4.65257">
        <ele>268.8233</ele>
        <time>2022-09-30T12:38:54.000Z</time>
      </trkpt>
      <trkpt lat="45.86358" lon="4.65249">
        <ele>268.93561</ele>
        <time>2022-09-30T12:38:55.000Z</time>
      </trkpt>
      <trkpt lat="45.8636" lon="4.65243">
        <ele>269.10284</ele>
        <time>2022-09-30T12:38:56.000Z</time>
      </trkpt>
      <trkpt lat="45.86363" lon="4.65234">
        <ele>269.17349</ele>
        <time>2022-09-30T12:38:57.000Z</time>
      </trkpt>
      <trkpt lat="45.86365" lon="4.65227">
        <ele>269.32932</ele>
        <time>2022-09-30T12:38:58.000Z</time>
      </trkpt>
      <trkpt lat="45.86367" lon="4.65219">
        <ele>269.392</ele>
        <time>2022-09-30T12:38:59.000Z</time>
      </trkpt>
      <trkpt lat="45.86369" lon="4.6521">
        <ele>269.4772</ele>
        <time>2022-09-30T12:39:00.000Z</time>
      </trkpt>
      <trkpt lat="45.86372" lon="4.65204">
        <ele>269.6842</ele>
        <time>2022-09-30T12:39:01.000Z</time>
      </trkpt>
      <trkpt lat="45.86374" lon="4.65199">
        <ele>269.87445</ele>
        <time>2022-09-30T12:39:02.000Z</time>
      </trkpt>
      <trkpt lat="45.86377" lon="4.65192">
        <ele>270.00089</ele>
        <time>2022-09-30T12:39:03.000Z</time>
      </trkpt>
      <trkpt lat="45.86378" lon="4.65186">
        <ele>270.11981</ele>
        <time>2022-09-30T12:39:04.000Z</time>
      </trkpt>
      <trkpt lat="45.86383" lon="4.65177">
        <ele>270.13248</ele>
        <time>2022-09-30T12:39:05.000Z</time>
      </trkpt>
      <trkpt lat="45.86385" lon="4.65172">
        <ele>270.14813</ele>
        <time>2022-09-30T12:39:06.000Z</time>
      </trkpt>
      <trkpt lat="45.86388" lon="4.65165">
        <ele>270.23077</ele>
        <time>2022-09-30T12:39:07.000Z</time>
      </trkpt>
      <trkpt lat="45.8639" lon="4.65158">
        <ele>270.315</ele>
        <time>2022-09-30T12:39:08.000Z</time>
      </trkpt>
      <trkpt lat="45.86395" lon="4.65149">
        <ele>270.32816</ele>
        <time>2022-09-30T12:39:09.000Z</time>
      </trkpt>
      <trkpt lat="45.86395" lon="4.65144">
        <ele>270.40091</ele>
        <time>2022-09-30T12:39:10.000Z</time>
      </trkpt>
      <trkpt lat="45.86397" lon="4.65139">
        <ele>270.52884</ele>
        <time>2022-09-30T12:39:11.000Z</time>
      </trkpt>
      <trkpt lat="45.86399" lon="4.65133">
        <ele>270.66965</ele>
        <time>2022-09-30T12:39:12.000Z</time>
      </trkpt>
      <trkpt lat="45.86401" lon="4.65128">
        <ele>270.77606</ele>
        <time>2022-09-30T12:39:13.000Z</time>
      </trkpt>
      <trkpt lat="45.86404" lon="4.65121">
        <ele>270.9425</ele>
        <time>2022-09-30T12:39:14.000Z</time>
      </trkpt>
      <trkpt lat="45.86405" lon="4.65115">
        <ele>271.0274</ele>
        <time>2022-09-30T12:39:15.000Z</time>
      </trkpt>
      <trkpt lat="45.86407" lon="4.65109">
        <ele>271.11908</ele>
        <time>2022-09-30T12:39:16.000Z</time>
      </trkpt>
      <trkpt lat="45.8641" lon="4.65103">
        <ele>271.28339</ele>
        <time>2022-09-30T12:39:17.000Z</time>
      </trkpt>
      <trkpt lat="45.86413" lon="4.65097">
        <ele>271.45908</ele>
        <time>2022-09-30T12:39:18.000Z</time>
      </trkpt>
      <trkpt lat="45.86414" lon="4.65094">
        <ele>271.69611</ele>
        <time>2022-09-30T12:39:19.000Z</time>
      </trkpt>
      <trkpt lat="45.86417" lon="4.65086">
        <ele>271.91461</ele>
        <time>2022-09-30T12:39:20.000Z</time>
      </trkpt>
      <trkpt lat="45.86419" lon="4.65083">
        <ele>272.04449</ele>
        <time>2022-09-30T12:39:21.000Z</time>
      </trkpt>
      <trkpt lat="45.86422" lon="4.65081">
        <ele>272.25406</ele>
        <time>2022-09-30T12:39:22.000Z</time>
      </trkpt>
      <trkpt lat="45.86423" lon="4.65076">
        <ele>272.50629</ele>
        <time>2022-09-30T12:39:23.000Z</time>
      </trkpt>
      <trkpt lat="45.86425" lon="4.65072">
        <ele>272.74008</ele>
        <time>2022-09-30T12:39:24.000Z</time>
      </trkpt>
      <trkpt lat="45.86427" lon="4.65066">
        <ele>273.11865</ele>
        <time>2022-09-30T12:39:25.000Z</time>
      </trkpt>
      <trkpt lat="45.8643" lon="4.65061">
        <ele>273.4256</ele>
        <time>2022-09-30T12:39:26.000Z</time>
      </trkpt>
      <trkpt lat="45.86433" lon="4.65056">
        <ele>273.67267</ele>
        <time>2022-09-30T12:39:27.000Z</time>
      </trkpt>
      <trkpt lat="45.86436" lon="4.65049">
        <ele>273.84555</ele>
        <time>2022-09-30T12:39:28.000Z</time>
      </trkpt>
      <trkpt lat="45.86438" lon="4.65045">
        <ele>274.03271</ele>
        <time>2022-09-30T12:39:29.000Z</time>
      </trkpt>
      <trkpt lat="45.86441" lon="4.6504">
        <ele>274.1358</ele>
        <time>2022-09-30T12:39:30.000Z</time>
      </trkpt>
      <trkpt lat="45.86445" lon="4.65034">
        <ele>274.15482</ele>
        <time>2022-09-30T12:39:31.000Z</time>
      </trkpt>
      <trkpt lat="45.86449" lon="4.65028">
        <ele>274.11664</ele>
        <time>2022-09-30T12:39:32.000Z</time>
      </trkpt>
      <trkpt lat="45.86453" lon="4.65022">
        <ele>274.10349</ele>
        <time>2022-09-30T12:39:33.000Z</time>
      </trkpt>
      <trkpt lat="45.86458" lon="4.65019">
        <ele>273.92828</ele>
        <time>2022-09-30T12:39:34.000Z</time>
      </trkpt>
      <trkpt lat="45.86462" lon="4.65012">
        <ele>273.73871</ele>
        <time>2022-09-30T12:39:35.000Z</time>
      </trkpt>
      <trkpt lat="45.86464" lon="4.65005">
        <ele>273.48053</ele>
        <time>2022-09-30T12:39:36.000Z</time>
      </trkpt>
      <trkpt lat="45.86469" lon="4.65">
        <ele>273.16177</ele>
        <time>2022-09-30T12:39:37.000Z</time>
      </trkpt>
      <trkpt lat="45.86473" lon="4.64994">
        <ele>272.80664</ele>
        <time>2022-09-30T12:39:38.000Z</time>
      </trkpt>
      <trkpt lat="45.86476" lon="4.64989">
        <ele>272.43658</ele>
        <time>2022-09-30T12:39:39.000Z</time>
      </trkpt>
      <trkpt lat="45.86479" lon="4.64984">
        <ele>272.07843</ele>
        <time>2022-09-30T12:39:40.000Z</time>
      </trkpt>
      <trkpt lat="45.86482" lon="4.64977">
        <ele>271.70468</ele>
        <time>2022-09-30T12:39:41.000Z</time>
      </trkpt>
      <trkpt lat="45.86485" lon="4.64973">
        <ele>271.29648</ele>
        <time>2022-09-30T12:39:42.000Z</time>
      </trkpt>
      <trkpt lat="45.86487" lon="4.6497">
        <ele>270.95239</ele>
        <time>2022-09-30T12:39:43.000Z</time>
      </trkpt>
      <trkpt lat="45.8649" lon="4.64965">
        <ele>270.63885</ele>
        <time>2022-09-30T12:39:44.000Z</time>
      </trkpt>
      <trkpt lat="45.86493" lon="4.64959">
        <ele>270.29962</ele>
        <time>2022-09-30T12:39:45.000Z</time>
      </trkpt>
      <trkpt lat="45.86496" lon="4.64955">
        <ele>270.00122</ele>
        <time>2022-09-30T12:39:46.000Z</time>
      </trkpt>
      <trkpt lat="45.86498" lon="4.64949">
        <ele>269.77921</ele>
        <time>2022-09-30T12:39:47.000Z</time>
      </trkpt>
      <trkpt lat="45.865" lon="4.64943">
        <ele>269.56229</ele>
        <time>2022-09-30T12:39:48.000Z</time>
      </trkpt>
      <trkpt lat="45.86503" lon="4.64938">
        <ele>269.37711</ele>
        <time>2022-09-30T12:39:49.000Z</time>
      </trkpt>
      <trkpt lat="45.86506" lon="4.64932">
        <ele>269.24875</ele>
        <time>2022-09-30T12:39:50.000Z</time>
      </trkpt>
      <trkpt lat="45.86516" lon="4.64931">
        <ele>269.1452</ele>
        <time>2022-09-30T12:39:51.000Z</time>
      </trkpt>
      <trkpt lat="45.8652" lon="4.64927">
        <ele>269.06259</ele>
        <time>2022-09-30T12:39:52.000Z</time>
      </trkpt>
      <trkpt lat="45.86521" lon="4.64921">
        <ele>268.96881</ele>
        <time>2022-09-30T12:39:53.000Z</time>
      </trkpt>
      <trkpt lat="45.86525" lon="4.64916">
        <ele>268.97354</ele>
        <time>2022-09-30T12:39:54.000Z</time>
      </trkpt>
      <trkpt lat="45.86528" lon="4.6491">
        <ele>269.04694</ele>
        <time>2022-09-30T12:39:55.000Z</time>
      </trkpt>
      <trkpt lat="45.86532" lon="4.64907">
        <ele>269.13232</ele>
        <time>2022-09-30T12:39:56.000Z</time>
      </trkpt>
      <trkpt lat="45.86536" lon="4.64903">
        <ele>269.30945</ele>
        <time>2022-09-30T12:39:57.000Z</time>
      </trkpt>
      <trkpt lat="45.86539" lon="4.64899">
        <ele>269.51178</ele>
        <time>2022-09-30T12:39:58.000Z</time>
      </trkpt>
      <trkpt lat="45.86543" lon="4.64894">
        <ele>269.73456</ele>
        <time>2022-09-30T12:39:59.000Z</time>
      </trkpt>
      <trkpt lat="45.86547" lon="4.64889">
        <ele>270.00885</ele>
        <time>2022-09-30T12:40:00.000Z</time>
      </trkpt>
      <trkpt lat="45.86553" lon="4.6489">
        <ele>270.23956</ele>
        <time>2022-09-30T12:40:01.000Z</time>
      </trkpt>
      <trkpt lat="45.86557" lon="4.64885">
        <ele>270.48529</ele>
        <time>2022-09-30T12:40:02.000Z</time>
      </trkpt>
      <trkpt lat="45.86561" lon="4.64883">
        <ele>270.62515</ele>
        <time>2022-09-30T12:40:03.000Z</time>
      </trkpt>
      <trkpt lat="45.86565" lon="4.64881">
        <ele>270.7489</ele>
        <time>2022-09-30T12:40:04.000Z</time>
      </trkpt>
      <trkpt lat="45.8657" lon="4.64879">
        <ele>270.86722</ele>
        <time>2022-09-30T12:40:05.000Z</time>
      </trkpt>
      <trkpt lat="45.86577" lon="4.64873">
        <ele>270.85013</ele>
        <time>2022-09-30T12:40:06.000Z</time>
      </trkpt>
      <trkpt lat="45.86582" lon="4.64871">
        <ele>270.77563</ele>
        <time>2022-09-30T12:40:07.000Z</time>
      </trkpt>
      <trkpt lat="45.86587" lon="4.64871">
        <ele>270.71725</ele>
        <time>2022-09-30T12:40:08.000Z</time>
      </trkpt>
      <trkpt lat="45.86589" lon="4.64872">
        <ele>270.62128</ele>
        <time>2022-09-30T12:40:14.000Z</time>
      </trkpt>
      <trkpt lat="45.86591" lon="4.64873">
        <ele>270.5809</ele>
        <time>2022-09-30T12:42:00.000Z</time>
      </trkpt>
      <trkpt lat="45.86593" lon="4.64869">
        <ele>270.51917</ele>
        <time>2022-09-30T12:42:07.000Z</time>
      </trkpt>
      <trkpt lat="45.86595" lon="4.64869">
        <ele>270.30121</ele>
        <time>2022-09-30T12:42:08.000Z</time>
      </trkpt>
      <trkpt lat="45.86598" lon="4.64868">
        <ele>270.00784</ele>
        <time>2022-09-30T12:42:09.000Z</time>
      </trkpt>
      <trkpt lat="45.86601" lon="4.64866">
        <ele>269.6853</ele>
        <time>2022-09-30T12:42:10.000Z</time>
      </trkpt>
      <trkpt lat="45.86605" lon="4.64864">
        <ele>269.35983</ele>
        <time>2022-09-30T12:42:11.000Z</time>
      </trkpt>
      <trkpt lat="45.86608" lon="4.64861">
        <ele>269.01025</ele>
        <time>2022-09-30T12:42:12.000Z</time>
      </trkpt>
      <trkpt lat="45.86612" lon="4.64859">
        <ele>268.63779</ele>
        <time>2022-09-30T12:42:13.000Z</time>
      </trkpt>
      <trkpt lat="45.86617" lon="4.64856">
        <ele>268.28558</ele>
        <time>2022-09-30T12:42:14.000Z</time>
      </trkpt>
      <trkpt lat="45.86621" lon="4.64853">
        <ele>267.93588</ele>
        <time>2022-09-30T12:42:15.000Z</time>
      </trkpt>
      <trkpt lat="45.86626" lon="4.6485">
        <ele>267.51636</ele>
        <time>2022-09-30T12:42:16.000Z</time>
      </trkpt>
      <trkpt lat="45.86631" lon="4.64847">
        <ele>267.11484</ele>
        <time>2022-09-30T12:42:17.000Z</time>
      </trkpt>
      <trkpt lat="45.86636" lon="4.64844">
        <ele>266.67841</ele>
        <time>2022-09-30T12:42:18.000Z</time>
      </trkpt>
      <trkpt lat="45.86641" lon="4.64841">
        <ele>266.21967</ele>
        <time>2022-09-30T12:42:19.000Z</time>
      </trkpt>
      <trkpt lat="45.86646" lon="4.64838">
        <ele>265.73483</ele>
        <time>2022-09-30T12:42:20.000Z</time>
      </trkpt>
      <trkpt lat="45.86652" lon="4.64836">
        <ele>265.23688</ele>
        <time>2022-09-30T12:42:21.000Z</time>
      </trkpt>
      <trkpt lat="45.86657" lon="4.64834">
        <ele>264.85895</ele>
        <time>2022-09-30T12:42:22.000Z</time>
      </trkpt>
      <trkpt lat="45.86663" lon="4.64831">
        <ele>264.47287</ele>
        <time>2022-09-30T12:42:23.000Z</time>
      </trkpt>
      <trkpt lat="45.86667" lon="4.64828">
        <ele>264.09915</ele>
        <time>2022-09-30T12:42:24.000Z</time>
      </trkpt>
      <trkpt lat="45.86671" lon="4.64825">
        <ele>263.84637</ele>
        <time>2022-09-30T12:42:25.000Z</time>
      </trkpt>
      <trkpt lat="45.86673" lon="4.64823">
        <ele>263.47504</ele>
        <time>2022-09-30T12:42:26.000Z</time>
      </trkpt>
      <trkpt lat="45.86676" lon="4.64822">
        <ele>263.10626</ele>
        <time>2022-09-30T12:42:27.000Z</time>
      </trkpt>
      <trkpt lat="45.86678" lon="4.64822">
        <ele>262.84854</ele>
        <time>2022-09-30T12:42:28.000Z</time>
      </trkpt>
      <trkpt lat="45.86681" lon="4.64821">
        <ele>262.68814</ele>
        <time>2022-09-30T12:42:30.000Z</time>
      </trkpt>
      <trkpt lat="45.86682" lon="4.64819">
        <ele>262.57983</ele>
        <time>2022-09-30T12:42:31.000Z</time>
      </trkpt>
      <trkpt lat="45.86684" lon="4.64816">
        <ele>262.47653</ele>
        <time>2022-09-30T12:42:32.000Z</time>
      </trkpt>
      <trkpt lat="45.86686" lon="4.64813">
        <ele>262.444</ele>
        <time>2022-09-30T12:42:33.000Z</time>
      </trkpt>
      <trkpt lat="45.86689" lon="4.64813">
        <ele>262.46399</ele>
        <time>2022-09-30T12:42:34.000Z</time>
      </trkpt>
      <trkpt lat="45.86692" lon="4.64811">
        <ele>262.48026</ele>
        <time>2022-09-30T12:42:35.000Z</time>
      </trkpt>
      <trkpt lat="45.86696" lon="4.64809">
        <ele>262.43939</ele>
        <time>2022-09-30T12:42:36.000Z</time>
      </trkpt>
      <trkpt lat="45.867" lon="4.64806">
        <ele>262.41043</ele>
        <time>2022-09-30T12:42:37.000Z</time>
      </trkpt>
      <trkpt lat="45.86705" lon="4.64803">
        <ele>262.36246</ele>
        <time>2022-09-30T12:42:38.000Z</time>
      </trkpt>
      <trkpt lat="45.86709" lon="4.64801">
        <ele>262.26709</ele>
        <time>2022-09-30T12:42:39.000Z</time>
      </trkpt>
      <trkpt lat="45.86713" lon="4.64799">
        <ele>262.26135</ele>
        <time>2022-09-30T12:42:40.000Z</time>
      </trkpt>
      <trkpt lat="45.86717" lon="4.64797">
        <ele>262.30145</ele>
        <time>2022-09-30T12:42:41.000Z</time>
      </trkpt>
      <trkpt lat="45.86721" lon="4.64797">
        <ele>262.37753</ele>
        <time>2022-09-30T12:42:42.000Z</time>
      </trkpt>
      <trkpt lat="45.86725" lon="4.64794">
        <ele>262.44635</ele>
        <time>2022-09-30T12:42:43.000Z</time>
      </trkpt>
      <trkpt lat="45.86729" lon="4.64792">
        <ele>262.50934</ele>
        <time>2022-09-30T12:42:44.000Z</time>
      </trkpt>
      <trkpt lat="45.86734" lon="4.64789">
        <ele>262.57504</ele>
        <time>2022-09-30T12:42:45.000Z</time>
      </trkpt>
      <trkpt lat="45.86738" lon="4.64788">
        <ele>262.56</ele>
        <time>2022-09-30T12:42:46.000Z</time>
      </trkpt>
      <trkpt lat="45.86742" lon="4.64785">
        <ele>262.58405</ele>
        <time>2022-09-30T12:42:47.000Z</time>
      </trkpt>
      <trkpt lat="45.86746" lon="4.64781">
        <ele>262.68149</ele>
        <time>2022-09-30T12:42:48.000Z</time>
      </trkpt>
      <trkpt lat="45.86749" lon="4.64779">
        <ele>262.86813</ele>
        <time>2022-09-30T12:42:49.000Z</time>
      </trkpt>
      <trkpt lat="45.86753" lon="4.64777">
        <ele>263.00455</ele>
        <time>2022-09-30T12:42:50.000Z</time>
      </trkpt>
      <trkpt lat="45.86757" lon="4.64774">
        <ele>263.15579</ele>
        <time>2022-09-30T12:42:51.000Z</time>
      </trkpt>
      <trkpt lat="45.86761" lon="4.64772">
        <ele>263.284</ele>
        <time>2022-09-30T12:42:52.000Z</time>
      </trkpt>
      <trkpt lat="45.86764" lon="4.64769">
        <ele>263.31189</ele>
        <time>2022-09-30T12:42:53.000Z</time>
      </trkpt>
      <trkpt lat="45.8677" lon="4.64768">
        <ele>263.26532</ele>
        <time>2022-09-30T12:42:54.000Z</time>
      </trkpt>
      <trkpt lat="45.86773" lon="4.64766">
        <ele>263.1933</ele>
        <time>2022-09-30T12:42:55.000Z</time>
      </trkpt>
      <trkpt lat="45.86776" lon="4.64762">
        <ele>263.12668</ele>
        <time>2022-09-30T12:42:56.000Z</time>
      </trkpt>
      <trkpt lat="45.86778" lon="4.64759">
        <ele>263.06543</ele>
        <time>2022-09-30T12:42:57.000Z</time>
      </trkpt>
      <trkpt lat="45.86782" lon="4.64756">
        <ele>263.0217</ele>
        <time>2022-09-30T12:42:58.000Z</time>
      </trkpt>
      <trkpt lat="45.86784" lon="4.64754">
        <ele>262.98212</ele>
        <time>2022-09-30T12:42:59.000Z</time>
      </trkpt>
      <trkpt lat="45.86787" lon="4.64752">
        <ele>262.96863</ele>
        <time>2022-09-30T12:43:00.000Z</time>
      </trkpt>
      <trkpt lat="45.8679" lon="4.64748">
        <ele>262.89813</ele>
        <time>2022-09-30T12:43:01.000Z</time>
      </trkpt>
      <trkpt lat="45.86792" lon="4.64747">
        <ele>262.76291</ele>
        <time>2022-09-30T12:43:02.000Z</time>
      </trkpt>
      <trkpt lat="45.86794" lon="4.64746">
        <ele>262.64157</ele>
        <time>2022-09-30T12:43:03.000Z</time>
      </trkpt>
      <trkpt lat="45.86796" lon="4.64745">
        <ele>262.56009</ele>
        <time>2022-09-30T12:43:04.000Z</time>
      </trkpt>
      <trkpt lat="45.86798" lon="4.64744">
        <ele>262.44965</ele>
        <time>2022-09-30T12:43:05.000Z</time>
      </trkpt>
      <trkpt lat="45.86801" lon="4.64742">
        <ele>262.37405</ele>
        <time>2022-09-30T12:43:06.000Z</time>
      </trkpt>
      <trkpt lat="45.86803" lon="4.6474">
        <ele>262.26895</ele>
        <time>2022-09-30T12:43:07.000Z</time>
      </trkpt>
      <trkpt lat="45.86806" lon="4.64738">
        <ele>262.16849</ele>
        <time>2022-09-30T12:43:08.000Z</time>
      </trkpt>
      <trkpt lat="45.86807" lon="4.64737">
        <ele>262.00989</ele>
        <time>2022-09-30T12:43:09.000Z</time>
      </trkpt>
      <trkpt lat="45.86809" lon="4.64733">
        <ele>261.80869</ele>
        <time>2022-09-30T12:43:27.000Z</time>
      </trkpt>
      <trkpt lat="45.86811" lon="4.64731">
        <ele>261.58826</ele>
        <time>2022-09-30T12:43:28.000Z</time>
      </trkpt>
      <trkpt lat="45.86813" lon="4.64729">
        <ele>261.37756</ele>
        <time>2022-09-30T12:43:29.000Z</time>
      </trkpt>
      <trkpt lat="45.86816" lon="4.64727">
        <ele>261.20923</ele>
        <time>2022-09-30T12:43:30.000Z</time>
      </trkpt>
      <trkpt lat="45.86819" lon="4.64724">
        <ele>261.1546</ele>
        <time>2022-09-30T12:43:31.000Z</time>
      </trkpt>
      <trkpt lat="45.86823" lon="4.64722">
        <ele>261.17377</ele>
        <time>2022-09-30T12:43:32.000Z</time>
      </trkpt>
      <trkpt lat="45.86827" lon="4.64719">
        <ele>261.30154</ele>
        <time>2022-09-30T12:43:33.000Z</time>
      </trkpt>
      <trkpt lat="45.86831" lon="4.64716">
        <ele>261.45169</ele>
        <time>2022-09-30T12:43:34.000Z</time>
      </trkpt>
      <trkpt lat="45.86836" lon="4.64713">
        <ele>261.63776</ele>
        <time>2022-09-30T12:43:35.000Z</time>
      </trkpt>
      <trkpt lat="45.8684" lon="4.64711">
        <ele>261.84543</ele>
        <time>2022-09-30T12:43:36.000Z</time>
      </trkpt>
      <trkpt lat="45.86843" lon="4.64708">
        <ele>261.96921</ele>
        <time>2022-09-30T12:43:37.000Z</time>
      </trkpt>
      <trkpt lat="45.86848" lon="4.64707">
        <ele>262.08905</ele>
        <time>2022-09-30T12:43:38.000Z</time>
      </trkpt>
      <trkpt lat="45.86852" lon="4.64705">
        <ele>262.2746</ele>
        <time>2022-09-30T12:43:39.000Z</time>
      </trkpt>
      <trkpt lat="45.86857" lon="4.64703">
        <ele>262.43134</ele>
        <time>2022-09-30T12:43:40.000Z</time>
      </trkpt>
      <trkpt lat="45.86861" lon="4.64699">
        <ele>262.60419</ele>
        <time>2022-09-30T12:43:41.000Z</time>
      </trkpt>
      <trkpt lat="45.86864" lon="4.64698">
        <ele>262.73444</ele>
        <time>2022-09-30T12:43:42.000Z</time>
      </trkpt>
      <trkpt lat="45.86866" lon="4.64694">
        <ele>262.83563</ele>
        <time>2022-09-30T12:43:43.000Z</time>
      </trkpt>
      <trkpt lat="45.86868" lon="4.64688">
        <ele>262.96301</ele>
        <time>2022-09-30T12:43:44.000Z</time>
      </trkpt>
      <trkpt lat="45.86866" lon="4.64683">
        <ele>262.9433</ele>
        <time>2022-09-30T12:43:45.000Z</time>
      </trkpt>
      <trkpt lat="45.86865" lon="4.64679">
        <ele>262.90732</ele>
        <time>2022-09-30T12:43:46.000Z</time>
      </trkpt>
      <trkpt lat="45.86864" lon="4.64674">
        <ele>262.91229</ele>
        <time>2022-09-30T12:43:47.000Z</time>
      </trkpt>
      <trkpt lat="45.86862" lon="4.6467">
        <ele>262.86496</ele>
        <time>2022-09-30T12:43:48.000Z</time>
      </trkpt>
      <trkpt lat="45.8686" lon="4.64665">
        <ele>262.77341</ele>
        <time>2022-09-30T12:43:49.000Z</time>
      </trkpt>
      <trkpt lat="45.86859" lon="4.64659">
        <ele>262.66312</ele>
        <time>2022-09-30T12:43:50.000Z</time>
      </trkpt>
      <trkpt lat="45.86858" lon="4.64655">
        <ele>262.38715</ele>
        <time>2022-09-30T12:43:51.000Z</time>
      </trkpt>
      <trkpt lat="45.86856" lon="4.6465">
        <ele>262.01187</ele>
        <time>2022-09-30T12:43:52.000Z</time>
      </trkpt>
      <trkpt lat="45.86854" lon="4.64644">
        <ele>261.58569</ele>
        <time>2022-09-30T12:43:53.000Z</time>
      </trkpt>
      <trkpt lat="45.86852" lon="4.6464">
        <ele>261.14264</ele>
        <time>2022-09-30T12:43:54.000Z</time>
      </trkpt>
      <trkpt lat="45.86848" lon="4.64635">
        <ele>260.69632</ele>
        <time>2022-09-30T12:43:55.000Z</time>
      </trkpt>
      <trkpt lat="45.86844" lon="4.64629">
        <ele>260.24124</ele>
        <time>2022-09-30T12:43:56.000Z</time>
      </trkpt>
      <trkpt lat="45.86838" lon="4.64625">
        <ele>259.78387</ele>
        <time>2022-09-30T12:43:57.000Z</time>
      </trkpt>
      <trkpt lat="45.86832" lon="4.64621">
        <ele>259.3017</ele>
        <time>2022-09-30T12:43:58.000Z</time>
      </trkpt>
      <trkpt lat="45.86825" lon="4.64614">
        <ele>258.77823</ele>
        <time>2022-09-30T12:43:59.000Z</time>
      </trkpt>
      <trkpt lat="45.86818" lon="4.64609">
        <ele>258.21906</ele>
        <time>2022-09-30T12:44:00.000Z</time>
      </trkpt>
      <trkpt lat="45.8681" lon="4.64601">
        <ele>257.61499</ele>
        <time>2022-09-30T12:44:01.000Z</time>
      </trkpt>
      <trkpt lat="45.86803" lon="4.64592">
        <ele>257.06171</ele>
        <time>2022-09-30T12:44:02.000Z</time>
      </trkpt>
      <trkpt lat="45.86797" lon="4.64582">
        <ele>256.45639</ele>
        <time>2022-09-30T12:44:03.000Z</time>
      </trkpt>
      <trkpt lat="45.86789" lon="4.64572">
        <ele>255.80827</ele>
        <time>2022-09-30T12:44:04.000Z</time>
      </trkpt>
      <trkpt lat="45.86783" lon="4.64563">
        <ele>255.29086</ele>
        <time>2022-09-30T12:44:05.000Z</time>
      </trkpt>
      <trkpt lat="45.86777" lon="4.64555">
        <ele>254.74324</ele>
        <time>2022-09-30T12:44:06.000Z</time>
      </trkpt>
      <trkpt lat="45.86773" lon="4.64544">
        <ele>254.15829</ele>
        <time>2022-09-30T12:44:07.000Z</time>
      </trkpt>
      <trkpt lat="45.86768" lon="4.64534">
        <ele>253.60213</ele>
        <time>2022-09-30T12:44:08.000Z</time>
      </trkpt>
      <trkpt lat="45.86765" lon="4.64524">
        <ele>253.09128</ele>
        <time>2022-09-30T12:44:09.000Z</time>
      </trkpt>
      <trkpt lat="45.86763" lon="4.64515">
        <ele>252.64462</ele>
        <time>2022-09-30T12:44:10.000Z</time>
      </trkpt>
      <trkpt lat="45.8676" lon="4.64505">
        <ele>252.26176</ele>
        <time>2022-09-30T12:44:11.000Z</time>
      </trkpt>
      <trkpt lat="45.86757" lon="4.64496">
        <ele>251.91135</ele>
        <time>2022-09-30T12:44:12.000Z</time>
      </trkpt>
      <trkpt lat="45.86757" lon="4.64486">
        <ele>251.60376</ele>
        <time>2022-09-30T12:44:13.000Z</time>
      </trkpt>
      <trkpt lat="45.86758" lon="4.64478">
        <ele>251.34756</ele>
        <time>2022-09-30T12:44:14.000Z</time>
      </trkpt>
      <trkpt lat="45.8676" lon="4.64472">
        <ele>251.03828</ele>
        <time>2022-09-30T12:44:15.000Z</time>
      </trkpt>
      <trkpt lat="45.86762" lon="4.64467">
        <ele>250.79675</ele>
        <time>2022-09-30T12:44:16.000Z</time>
      </trkpt>
      <trkpt lat="45.86764" lon="4.64464">
        <ele>250.60074</ele>
        <time>2022-09-30T12:44:17.000Z</time>
      </trkpt>
      <trkpt lat="45.86766" lon="4.64461">
        <ele>250.48714</ele>
        <time>2022-09-30T12:44:18.000Z</time>
      </trkpt>
      <trkpt lat="45.86768" lon="4.64458">
        <ele>250.4053</ele>
        <time>2022-09-30T12:44:19.000Z</time>
      </trkpt>
      <trkpt lat="45.86771" lon="4.64454">
        <ele>250.33553</ele>
        <time>2022-09-30T12:44:20.000Z</time>
      </trkpt>
      <trkpt lat="45.86773" lon="4.6445">
        <ele>250.28699</ele>
        <time>2022-09-30T12:44:21.000Z</time>
      </trkpt>
      <trkpt lat="45.86775" lon="4.64444">
        <ele>250.30551</ele>
        <time>2022-09-30T12:44:22.000Z</time>
      </trkpt>
      <trkpt lat="45.86778" lon="4.6444">
        <ele>250.3627</ele>
        <time>2022-09-30T12:44:23.000Z</time>
      </trkpt>
      <trkpt lat="45.86783" lon="4.64435">
        <ele>250.39758</ele>
        <time>2022-09-30T12:44:24.000Z</time>
      </trkpt>
      <trkpt lat="45.86788" lon="4.6443">
        <ele>250.3295</ele>
        <time>2022-09-30T12:44:25.000Z</time>
      </trkpt>
      <trkpt lat="45.86793" lon="4.64427">
        <ele>250.30257</ele>
        <time>2022-09-30T12:44:26.000Z</time>
      </trkpt>
      <trkpt lat="45.86797" lon="4.64423">
        <ele>250.30525</ele>
        <time>2022-09-30T12:44:27.000Z</time>
      </trkpt>
      <trkpt lat="45.86801" lon="4.64419">
        <ele>250.26273</ele>
        <time>2022-09-30T12:44:28.000Z</time>
      </trkpt>
      <trkpt lat="45.86806" lon="4.64414">
        <ele>250.1656</ele>
        <time>2022-09-30T12:44:29.000Z</time>
      </trkpt>
      <trkpt lat="45.86812" lon="4.64409">
        <ele>250.01639</ele>
        <time>2022-09-30T12:44:30.000Z</time>
      </trkpt>
      <trkpt lat="45.86817" lon="4.64404">
        <ele>249.86934</ele>
        <time>2022-09-30T12:44:31.000Z</time>
      </trkpt>
      <trkpt lat="45.86823" lon="4.64399">
        <ele>249.67329</ele>
        <time>2022-09-30T12:44:32.000Z</time>
      </trkpt>
      <trkpt lat="45.86828" lon="4.64394">
        <ele>249.43466</ele>
        <time>2022-09-30T12:44:33.000Z</time>
      </trkpt>
      <trkpt lat="45.86833" lon="4.64389">
        <ele>249.17403</ele>
        <time>2022-09-30T12:44:34.000Z</time>
      </trkpt>
      <trkpt lat="45.86838" lon="4.64383">
        <ele>248.80728</ele>
        <time>2022-09-30T12:44:35.000Z</time>
      </trkpt>
      <trkpt lat="45.86842" lon="4.64376">
        <ele>248.3811</ele>
        <time>2022-09-30T12:44:36.000Z</time>
      </trkpt>
      <trkpt lat="45.86847" lon="4.6437">
        <ele>247.95255</ele>
        <time>2022-09-30T12:44:37.000Z</time>
      </trkpt>
      <trkpt lat="45.86851" lon="4.64364">
        <ele>247.53928</ele>
        <time>2022-09-30T12:44:38.000Z</time>
      </trkpt>
      <trkpt lat="45.86854" lon="4.64356">
        <ele>247.12082</ele>
        <time>2022-09-30T12:44:39.000Z</time>
      </trkpt>
      <trkpt lat="45.86859" lon="4.64349">
        <ele>246.68906</ele>
        <time>2022-09-30T12:44:40.000Z</time>
      </trkpt>
      <trkpt lat="45.86862" lon="4.64343">
        <ele>246.27771</ele>
        <time>2022-09-30T12:44:41.000Z</time>
      </trkpt>
      <trkpt lat="45.86865" lon="4.64336">
        <ele>245.78433</ele>
        <time>2022-09-30T12:44:42.000Z</time>
      </trkpt>
      <trkpt lat="45.86868" lon="4.64327">
        <ele>245.20801</ele>
        <time>2022-09-30T12:44:43.000Z</time>
      </trkpt>
      <trkpt lat="45.8687" lon="4.6432">
        <ele>244.6824</ele>
        <time>2022-09-30T12:44:44.000Z</time>
      </trkpt>
      <trkpt lat="45.86873" lon="4.64313">
        <ele>244.27353</ele>
        <time>2022-09-30T12:44:45.000Z</time>
      </trkpt>
      <trkpt lat="45.86876" lon="4.64306">
        <ele>243.87891</ele>
        <time>2022-09-30T12:44:46.000Z</time>
      </trkpt>
      <trkpt lat="45.86881" lon="4.64302">
        <ele>243.55698</ele>
        <time>2022-09-30T12:44:47.000Z</time>
      </trkpt>
      <trkpt lat="45.86885" lon="4.64298">
        <ele>243.30356</ele>
        <time>2022-09-30T12:44:48.000Z</time>
      </trkpt>
      <trkpt lat="45.86891" lon="4.64293">
        <ele>243.06157</ele>
        <time>2022-09-30T12:44:49.000Z</time>
      </trkpt>
      <trkpt lat="45.86896" lon="4.64288">
        <ele>242.85893</ele>
        <time>2022-09-30T12:44:50.000Z</time>
      </trkpt>
      <trkpt lat="45.869" lon="4.64284">
        <ele>242.60123</ele>
        <time>2022-09-30T12:44:51.000Z</time>
      </trkpt>
      <trkpt lat="45.86905" lon="4.6428">
        <ele>242.39262</ele>
        <time>2022-09-30T12:44:52.000Z</time>
      </trkpt>
      <trkpt lat="45.86911" lon="4.64275">
        <ele>242.14896</ele>
        <time>2022-09-30T12:44:53.000Z</time>
      </trkpt>
      <trkpt lat="45.86913" lon="4.64272">
        <ele>241.91008</ele>
        <time>2022-09-30T12:44:54.000Z</time>
      </trkpt>
      <trkpt lat="45.86917" lon="4.64269">
        <ele>241.80612</ele>
        <time>2022-09-30T12:44:55.000Z</time>
      </trkpt>
      <trkpt lat="45.86919" lon="4.64266">
        <ele>241.65276</ele>
        <time>2022-09-30T12:44:56.000Z</time>
      </trkpt>
      <trkpt lat="45.86921" lon="4.64264">
        <ele>241.41667</ele>
        <time>2022-09-30T12:44:57.000Z</time>
      </trkpt>
      <trkpt lat="45.86923" lon="4.64262">
        <ele>241.1409</ele>
        <time>2022-09-30T12:44:58.000Z</time>
      </trkpt>
      <trkpt lat="45.86925" lon="4.64261">
        <ele>240.89893</ele>
        <time>2022-09-30T12:44:59.000Z</time>
      </trkpt>
      <trkpt lat="45.86927" lon="4.64261">
        <ele>240.85172</ele>
        <time>2022-09-30T12:45:10.000Z</time>
      </trkpt>
      <trkpt lat="45.86928" lon="4.64265">
        <ele>240.87027</ele>
        <time>2022-09-30T12:45:30.000Z</time>
      </trkpt>
      <trkpt lat="45.86926" lon="4.64267">
        <ele>240.96976</ele>
        <time>2022-09-30T12:45:37.000Z</time>
      </trkpt>
      <trkpt lat="45.86923" lon="4.64269">
        <ele>241.19162</ele>
        <time>2022-09-30T12:45:38.000Z</time>
      </trkpt>
      <trkpt lat="45.8692" lon="4.6427">
        <ele>241.44223</ele>
        <time>2022-09-30T12:45:39.000Z</time>
      </trkpt>
      <trkpt lat="45.86917" lon="4.64274">
        <ele>241.65767</ele>
        <time>2022-09-30T12:45:41.000Z</time>
      </trkpt>
      <trkpt lat="45.86915" lon="4.64276">
        <ele>241.84656</ele>
        <time>2022-09-30T12:45:42.000Z</time>
      </trkpt>
      <trkpt lat="45.86913" lon="4.64277">
        <ele>242.0563</ele>
        <time>2022-09-30T12:45:43.000Z</time>
      </trkpt>
      <trkpt lat="45.86912" lon="4.64279">
        <ele>242.29968</ele>
        <time>2022-09-30T12:45:44.000Z</time>
      </trkpt>
      <trkpt lat="45.86909" lon="4.64283">
        <ele>242.55403</ele>
        <time>2022-09-30T12:45:46.000Z</time>
      </trkpt>
      <trkpt lat="45.86908" lon="4.64285">
        <ele>242.76035</ele>
        <time>2022-09-30T12:45:47.000Z</time>
      </trkpt>
      <trkpt lat="45.86906" lon="4.64287">
        <ele>242.98276</ele>
        <time>2022-09-30T12:45:48.000Z</time>
      </trkpt>
      <trkpt lat="45.86904" lon="4.64289">
        <ele>243.20694</ele>
        <time>2022-09-30T12:45:49.000Z</time>
      </trkpt>
      <trkpt lat="45.86901" lon="4.6429">
        <ele>243.43396</ele>
        <time>2022-09-30T12:45:51.000Z</time>
      </trkpt>
      <trkpt lat="45.86898" lon="4.64289">
        <ele>243.66013</ele>
        <time>2022-09-30T12:45:52.000Z</time>
      </trkpt>
      <trkpt lat="45.86895" lon="4.6429">
        <ele>243.89143</ele>
        <time>2022-09-30T12:45:54.000Z</time>
      </trkpt>
      <trkpt lat="45.86898" lon="4.64292">
        <ele>244.1628</ele>
        <time>2022-09-30T12:45:56.000Z</time>
      </trkpt>
      <trkpt lat="45.869" lon="4.6429">
        <ele>244.4128</ele>
        <time>2022-09-30T12:45:57.000Z</time>
      </trkpt>
      <trkpt lat="45.86903" lon="4.64286">
        <ele>244.63025</ele>
        <time>2022-09-30T12:45:58.000Z</time>
      </trkpt>
      <trkpt lat="45.86905" lon="4.64282">
        <ele>244.74544</ele>
        <time>2022-09-30T12:45:59.000Z</time>
      </trkpt>
      <trkpt lat="45.86908" lon="4.64279">
        <ele>244.75761</ele>
        <time>2022-09-30T12:46:00.000Z</time>
      </trkpt>
      <trkpt lat="45.86911" lon="4.64276">
        <ele>244.68234</ele>
        <time>2022-09-30T12:46:01.000Z</time>
      </trkpt>
      <trkpt lat="45.86914" lon="4.64273">
        <ele>244.5708</ele>
        <time>2022-09-30T12:46:02.000Z</time>
      </trkpt>
      <trkpt lat="45.86918" lon="4.6427">
        <ele>244.46677</ele>
        <time>2022-09-30T12:46:03.000Z</time>
      </trkpt>
      <trkpt lat="45.86921" lon="4.64267">
        <ele>244.31409</ele>
        <time>2022-09-30T12:46:04.000Z</time>
      </trkpt>
      <trkpt lat="45.86924" lon="4.64263">
        <ele>244.16312</ele>
        <time>2022-09-30T12:46:05.000Z</time>
      </trkpt>
      <trkpt lat="45.86925" lon="4.64259">
        <ele>244.03674</ele>
        <time>2022-09-30T12:46:06.000Z</time>
      </trkpt>
      <trkpt lat="45.86925" lon="4.64255">
        <ele>243.97836</ele>
        <time>2022-09-30T12:46:07.000Z</time>
      </trkpt>
      <trkpt lat="45.86917" lon="4.64253">
        <ele>243.89627</ele>
        <time>2022-09-30T12:46:08.000Z</time>
      </trkpt>
      <trkpt lat="45.86914" lon="4.64251">
        <ele>243.95097</ele>
        <time>2022-09-30T12:46:09.000Z</time>
      </trkpt>
      <trkpt lat="45.86908" lon="4.64248">
        <ele>244.03372</ele>
        <time>2022-09-30T12:46:10.000Z</time>
      </trkpt>
      <trkpt lat="45.86903" lon="4.64245">
        <ele>244.14546</ele>
        <time>2022-09-30T12:46:11.000Z</time>
      </trkpt>
      <trkpt lat="45.86897" lon="4.64243">
        <ele>244.2767</ele>
        <time>2022-09-30T12:46:12.000Z</time>
      </trkpt>
      <trkpt lat="45.86892" lon="4.64242">
        <ele>244.4675</ele>
        <time>2022-09-30T12:46:13.000Z</time>
      </trkpt>
      <trkpt lat="45.86888" lon="4.64239">
        <ele>244.61304</ele>
        <time>2022-09-30T12:46:14.000Z</time>
      </trkpt>
      <trkpt lat="45.86883" lon="4.64237">
        <ele>244.80838</ele>
        <time>2022-09-30T12:46:15.000Z</time>
      </trkpt>
      <trkpt lat="45.86877" lon="4.64233">
        <ele>245.04697</ele>
        <time>2022-09-30T12:46:16.000Z</time>
      </trkpt>
      <trkpt lat="45.8687" lon="4.64231">
        <ele>245.43277</ele>
        <time>2022-09-30T12:46:17.000Z</time>
      </trkpt>
      <trkpt lat="45.86865" lon="4.64232">
        <ele>245.88216</ele>
        <time>2022-09-30T12:46:18.000Z</time>
      </trkpt>
      <trkpt lat="45.86859" lon="4.64229">
        <ele>246.42986</ele>
        <time>2022-09-30T12:46:19.000Z</time>
      </trkpt>
      <trkpt lat="45.86855" lon="4.64224">
        <ele>246.90141</ele>
        <time>2022-09-30T12:46:20.000Z</time>
      </trkpt>
      <trkpt lat="45.86849" lon="4.64222">
        <ele>247.44165</ele>
        <time>2022-09-30T12:46:21.000Z</time>
      </trkpt>
      <trkpt lat="45.86844" lon="4.64218">
        <ele>247.98381</ele>
        <time>2022-09-30T12:46:22.000Z</time>
      </trkpt>
      <trkpt lat="45.86839" lon="4.64216">
        <ele>248.49146</ele>
        <time>2022-09-30T12:46:23.000Z</time>
      </trkpt>
      <trkpt lat="45.86833" lon="4.64212">
        <ele>249.04643</ele>
        <time>2022-09-30T12:46:24.000Z</time>
      </trkpt>
      <trkpt lat="45.86827" lon="4.64209">
        <ele>249.65622</ele>
        <time>2022-09-30T12:46:25.000Z</time>
      </trkpt>
      <trkpt lat="45.86822" lon="4.64206">
        <ele>250.2906</ele>
        <time>2022-09-30T12:46:26.000Z</time>
      </trkpt>
      <trkpt lat="45.86817" lon="4.64201">
        <ele>250.79463</ele>
        <time>2022-09-30T12:46:27.000Z</time>
      </trkpt>
      <trkpt lat="45.86812" lon="4.64198">
        <ele>251.29008</ele>
        <time>2022-09-30T12:46:28.000Z</time>
      </trkpt>
      <trkpt lat="45.86779" lon="4.64175">
        <ele>251.8228</ele>
        <time>2022-09-30T12:46:34.000Z</time>
      </trkpt>
      <trkpt lat="45.86775" lon="4.64172">
        <ele>252.42642</ele>
        <time>2022-09-30T12:46:35.000Z</time>
      </trkpt>
      <trkpt lat="45.86769" lon="4.6417">
        <ele>252.97905</ele>
        <time>2022-09-30T12:46:36.000Z</time>
      </trkpt>
      <trkpt lat="45.86764" lon="4.64169">
        <ele>253.58774</ele>
        <time>2022-09-30T12:46:37.000Z</time>
      </trkpt>
      <trkpt lat="45.86758" lon="4.64169">
        <ele>254.1291</ele>
        <time>2022-09-30T12:46:38.000Z</time>
      </trkpt>
      <trkpt lat="45.86753" lon="4.64168">
        <ele>254.66927</ele>
        <time>2022-09-30T12:46:39.000Z</time>
      </trkpt>
      <trkpt lat="45.86748" lon="4.64165">
        <ele>255.17468</ele>
        <time>2022-09-30T12:46:40.000Z</time>
      </trkpt>
      <trkpt lat="45.86743" lon="4.64164">
        <ele>255.71626</ele>
        <time>2022-09-30T12:46:41.000Z</time>
      </trkpt>
      <trkpt lat="45.86738" lon="4.64163">
        <ele>256.18121</ele>
        <time>2022-09-30T12:46:42.000Z</time>
      </trkpt>
      <trkpt lat="45.86732" lon="4.64162">
        <ele>256.62579</ele>
        <time>2022-09-30T12:46:43.000Z</time>
      </trkpt>
      <trkpt lat="45.86726" lon="4.64158">
        <ele>256.96835</ele>
        <time>2022-09-30T12:46:44.000Z</time>
      </trkpt>
      <trkpt lat="45.8672" lon="4.64155">
        <ele>257.32053</ele>
        <time>2022-09-30T12:46:45.000Z</time>
      </trkpt>
      <trkpt lat="45.86714" lon="4.64152">
        <ele>257.70923</ele>
        <time>2022-09-30T12:46:46.000Z</time>
      </trkpt>
      <trkpt lat="45.8671" lon="4.64147">
        <ele>258.06851</ele>
        <time>2022-09-30T12:46:47.000Z</time>
      </trkpt>
      <trkpt lat="45.86705" lon="4.64144">
        <ele>258.5235</ele>
        <time>2022-09-30T12:46:48.000Z</time>
      </trkpt>
      <trkpt lat="45.86699" lon="4.64142">
        <ele>258.97882</ele>
        <time>2022-09-30T12:46:49.000Z</time>
      </trkpt>
      <trkpt lat="45.86695" lon="4.64137">
        <ele>259.43671</ele>
        <time>2022-09-30T12:46:50.000Z</time>
      </trkpt>
      <trkpt lat="45.86693" lon="4.64128">
        <ele>259.88483</ele>
        <time>2022-09-30T12:46:51.000Z</time>
      </trkpt>
      <trkpt lat="45.8669" lon="4.64123">
        <ele>260.30075</ele>
        <time>2022-09-30T12:46:52.000Z</time>
      </trkpt>
      <trkpt lat="45.86685" lon="4.64121">
        <ele>260.72968</ele>
        <time>2022-09-30T12:46:53.000Z</time>
      </trkpt>
      <trkpt lat="45.86679" lon="4.64117">
        <ele>261.00903</ele>
        <time>2022-09-30T12:46:54.000Z</time>
      </trkpt>
      <trkpt lat="45.86672" lon="4.64114">
        <ele>261.25916</ele>
        <time>2022-09-30T12:46:55.000Z</time>
      </trkpt>
      <trkpt lat="45.86668" lon="4.64111">
        <ele>261.54221</ele>
        <time>2022-09-30T12:46:56.000Z</time>
      </trkpt>
      <trkpt lat="45.86662" lon="4.64105">
        <ele>261.77106</ele>
        <time>2022-09-30T12:46:57.000Z</time>
      </trkpt>
      <trkpt lat="45.86658" lon="4.64105">
        <ele>262.04443</ele>
        <time>2022-09-30T12:46:58.000Z</time>
      </trkpt>
      <trkpt lat="45.86651" lon="4.64102">
        <ele>262.35275</ele>
        <time>2022-09-30T12:46:59.000Z</time>
      </trkpt>
      <trkpt lat="45.86645" lon="4.641">
        <ele>262.64862</ele>
        <time>2022-09-30T12:47:00.000Z</time>
      </trkpt>
      <trkpt lat="45.86639" lon="4.64097">
        <ele>262.87552</ele>
        <time>2022-09-30T12:47:01.000Z</time>
      </trkpt>
      <trkpt lat="45.86634" lon="4.64094">
        <ele>263.23419</ele>
        <time>2022-09-30T12:47:02.000Z</time>
      </trkpt>
      <trkpt lat="45.86628" lon="4.64089">
        <ele>263.63449</ele>
        <time>2022-09-30T12:47:03.000Z</time>
      </trkpt>
      <trkpt lat="45.86624" lon="4.64084">
        <ele>264.06882</ele>
        <time>2022-09-30T12:47:04.000Z</time>
      </trkpt>
      <trkpt lat="45.86619" lon="4.64082">
        <ele>264.63092</ele>
        <time>2022-09-30T12:47:05.000Z</time>
      </trkpt>
      <trkpt lat="45.86613" lon="4.64081">
        <ele>265.18103</ele>
        <time>2022-09-30T12:47:06.000Z</time>
      </trkpt>
      <trkpt lat="45.86608" lon="4.64078">
        <ele>265.76404</ele>
        <time>2022-09-30T12:47:07.000Z</time>
      </trkpt>
      <trkpt lat="45.86602" lon="4.64074">
        <ele>266.31055</ele>
        <time>2022-09-30T12:47:08.000Z</time>
      </trkpt>
      <trkpt lat="45.86598" lon="4.64072">
        <ele>266.7597</ele>
        <time>2022-09-30T12:47:09.000Z</time>
      </trkpt>
      <trkpt lat="45.86592" lon="4.64067">
        <ele>267.12262</ele>
        <time>2022-09-30T12:47:10.000Z</time>
      </trkpt>
      <trkpt lat="45.86587" lon="4.64061">
        <ele>267.41962</ele>
        <time>2022-09-30T12:47:11.000Z</time>
      </trkpt>
      <trkpt lat="45.86581" lon="4.64057">
        <ele>267.80029</ele>
        <time>2022-09-30T12:47:12.000Z</time>
      </trkpt>
      <trkpt lat="45.86576" lon="4.64052">
        <ele>268.13861</ele>
        <time>2022-09-30T12:47:13.000Z</time>
      </trkpt>
      <trkpt lat="45.8657" lon="4.6405">
        <ele>268.50204</ele>
        <time>2022-09-30T12:47:14.000Z</time>
      </trkpt>
      <trkpt lat="45.86565" lon="4.64047">
        <ele>268.93219</ele>
        <time>2022-09-30T12:47:15.000Z</time>
      </trkpt>
      <trkpt lat="45.8656" lon="4.64045">
        <ele>269.44806</ele>
        <time>2022-09-30T12:47:16.000Z</time>
      </trkpt>
      <trkpt lat="45.86555" lon="4.6404">
        <ele>269.92731</ele>
        <time>2022-09-30T12:47:17.000Z</time>
      </trkpt>
      <trkpt lat="45.86551" lon="4.64036">
        <ele>270.35608</ele>
        <time>2022-09-30T12:47:18.000Z</time>
      </trkpt>
      <trkpt lat="45.86546" lon="4.64033">
        <ele>270.74335</ele>
        <time>2022-09-30T12:47:19.000Z</time>
      </trkpt>
      <trkpt lat="45.86541" lon="4.64029">
        <ele>271.17715</ele>
        <time>2022-09-30T12:47:20.000Z</time>
      </trkpt>
      <trkpt lat="45.86536" lon="4.64024">
        <ele>271.66901</ele>
        <time>2022-09-30T12:47:21.000Z</time>
      </trkpt>
      <trkpt lat="45.86531" lon="4.64023">
        <ele>272.16501</ele>
        <time>2022-09-30T12:47:22.000Z</time>
      </trkpt>
      <trkpt lat="45.86526" lon="4.64019">
        <ele>272.63715</ele>
        <time>2022-09-30T12:47:23.000Z</time>
      </trkpt>
      <trkpt lat="45.86522" lon="4.64017">
        <ele>273.07117</ele>
        <time>2022-09-30T12:47:24.000Z</time>
      </trkpt>
      <trkpt lat="45.86517" lon="4.64012">
        <ele>273.37167</ele>
        <time>2022-09-30T12:47:25.000Z</time>
      </trkpt>
      <trkpt lat="45.86513" lon="4.64011">
        <ele>273.57864</ele>
        <time>2022-09-30T12:47:26.000Z</time>
      </trkpt>
      <trkpt lat="45.86508" lon="4.64007">
        <ele>273.81219</ele>
        <time>2022-09-30T12:47:27.000Z</time>
      </trkpt>
      <trkpt lat="45.86504" lon="4.64003">
        <ele>274.01056</ele>
        <time>2022-09-30T12:47:28.000Z</time>
      </trkpt>
      <trkpt lat="45.86499" lon="4.64">
        <ele>274.24677</ele>
        <time>2022-09-30T12:47:29.000Z</time>
      </trkpt>
      <trkpt lat="45.86495" lon="4.63995">
        <ele>274.52325</ele>
        <time>2022-09-30T12:47:30.000Z</time>
      </trkpt>
      <trkpt lat="45.8649" lon="4.63991">
        <ele>274.828</ele>
        <time>2022-09-30T12:47:31.000Z</time>
      </trkpt>
      <trkpt lat="45.86486" lon="4.63987">
        <ele>275.01227</ele>
        <time>2022-09-30T12:47:32.000Z</time>
      </trkpt>
      <trkpt lat="45.86482" lon="4.63983">
        <ele>275.2601</ele>
        <time>2022-09-30T12:47:33.000Z</time>
      </trkpt>
      <trkpt lat="45.86476" lon="4.63977">
        <ele>275.49066</ele>
        <time>2022-09-30T12:47:34.000Z</time>
      </trkpt>
      <trkpt lat="45.86471" lon="4.63973">
        <ele>275.76117</ele>
        <time>2022-09-30T12:47:35.000Z</time>
      </trkpt>
      <trkpt lat="45.86469" lon="4.63972">
        <ele>276.06384</ele>
        <time>2022-09-30T12:47:36.000Z</time>
      </trkpt>
      <trkpt lat="45.86465" lon="4.63967">
        <ele>276.34052</ele>
        <time>2022-09-30T12:47:37.000Z</time>
      </trkpt>
      <trkpt lat="45.8646" lon="4.63962">
        <ele>276.60626</ele>
        <time>2022-09-30T12:47:38.000Z</time>
      </trkpt>
      <trkpt lat="45.86456" lon="4.63958">
        <ele>276.89517</ele>
        <time>2022-09-30T12:47:39.000Z</time>
      </trkpt>
      <trkpt lat="45.86452" lon="4.63953">
        <ele>277.15552</ele>
        <time>2022-09-30T12:47:40.000Z</time>
      </trkpt>
      <trkpt lat="45.86448" lon="4.63949">
        <ele>277.37823</ele>
        <time>2022-09-30T12:47:41.000Z</time>
      </trkpt>
      <trkpt lat="45.86444" lon="4.63946">
        <ele>277.63855</ele>
        <time>2022-09-30T12:47:42.000Z</time>
      </trkpt>
      <trkpt lat="45.8644" lon="4.63941">
        <ele>277.90961</ele>
        <time>2022-09-30T12:47:43.000Z</time>
      </trkpt>
      <trkpt lat="45.86437" lon="4.63938">
        <ele>278.22623</ele>
        <time>2022-09-30T12:47:44.000Z</time>
      </trkpt>
      <trkpt lat="45.86433" lon="4.63932">
        <ele>278.54974</ele>
        <time>2022-09-30T12:47:45.000Z</time>
      </trkpt>
      <trkpt lat="45.8643" lon="4.63926">
        <ele>278.87451</ele>
        <time>2022-09-30T12:47:46.000Z</time>
      </trkpt>
      <trkpt lat="45.86433" lon="4.63921">
        <ele>279.1828</ele>
        <time>2022-09-30T12:47:47.000Z</time>
      </trkpt>
      <trkpt lat="45.86436" lon="4.63916">
        <ele>279.56137</ele>
        <time>2022-09-30T12:47:48.000Z</time>
      </trkpt>
      <trkpt lat="45.86438" lon="4.63912">
        <ele>279.94824</ele>
        <time>2022-09-30T12:47:49.000Z</time>
      </trkpt>
      <trkpt lat="45.8644" lon="4.63911">
        <ele>280.42987</ele>
        <time>2022-09-30T12:47:50.000Z</time>
      </trkpt>
      <trkpt lat="45.86443" lon="4.63906">
        <ele>280.98688</ele>
        <time>2022-09-30T12:47:52.000Z</time>
      </trkpt>
      <trkpt lat="45.86446" lon="4.63902">
        <ele>281.57361</ele>
        <time>2022-09-30T12:47:53.000Z</time>
      </trkpt>
      <trkpt lat="45.86448" lon="4.63896">
        <ele>282.08981</ele>
        <time>2022-09-30T12:47:54.000Z</time>
      </trkpt>
      <trkpt lat="45.86451" lon="4.63891">
        <ele>282.6579</ele>
        <time>2022-09-30T12:47:55.000Z</time>
      </trkpt>
      <trkpt lat="45.86452" lon="4.63886">
        <ele>283.0675</ele>
        <time>2022-09-30T12:47:56.000Z</time>
      </trkpt>
      <trkpt lat="45.86455" lon="4.6388">
        <ele>283.40448</ele>
        <time>2022-09-30T12:47:57.000Z</time>
      </trkpt>
      <trkpt lat="45.86458" lon="4.63875">
        <ele>283.77148</ele>
        <time>2022-09-30T12:47:58.000Z</time>
      </trkpt>
      <trkpt lat="45.86461" lon="4.6387">
        <ele>284.21906</ele>
        <time>2022-09-30T12:47:59.000Z</time>
      </trkpt>
      <trkpt lat="45.86463" lon="4.63864">
        <ele>284.61346</ele>
        <time>2022-09-30T12:48:00.000Z</time>
      </trkpt>
      <trkpt lat="45.86466" lon="4.63859">
        <ele>284.94644</ele>
        <time>2022-09-30T12:48:01.000Z</time>
      </trkpt>
      <trkpt lat="45.86468" lon="4.63853">
        <ele>285.3013</ele>
        <time>2022-09-30T12:48:02.000Z</time>
      </trkpt>
      <trkpt lat="45.86471" lon="4.63848">
        <ele>285.49377</ele>
        <time>2022-09-30T12:48:03.000Z</time>
      </trkpt>
      <trkpt lat="45.86474" lon="4.6384">
        <ele>285.67462</ele>
        <time>2022-09-30T12:48:04.000Z</time>
      </trkpt>
      <trkpt lat="45.86476" lon="4.63834">
        <ele>285.85358</ele>
        <time>2022-09-30T12:48:05.000Z</time>
      </trkpt>
      <trkpt lat="45.86479" lon="4.63829">
        <ele>286.09641</ele>
        <time>2022-09-30T12:48:06.000Z</time>
      </trkpt>
      <trkpt lat="45.86482" lon="4.63824">
        <ele>286.34628</ele>
        <time>2022-09-30T12:48:07.000Z</time>
      </trkpt>
      <trkpt lat="45.86484" lon="4.63817">
        <ele>286.56354</ele>
        <time>2022-09-30T12:48:08.000Z</time>
      </trkpt>
      <trkpt lat="45.86486" lon="4.63811">
        <ele>286.68286</ele>
        <time>2022-09-30T12:48:09.000Z</time>
      </trkpt>
      <trkpt lat="45.86487" lon="4.63807">
        <ele>286.83881</ele>
        <time>2022-09-30T12:48:10.000Z</time>
      </trkpt>
      <trkpt lat="45.86488" lon="4.63802">
        <ele>286.93512</ele>
        <time>2022-09-30T12:48:11.000Z</time>
      </trkpt>
      <trkpt lat="45.86488" lon="4.63795">
        <ele>286.97714</ele>
        <time>2022-09-30T12:48:12.000Z</time>
      </trkpt>
      <trkpt lat="45.86491" lon="4.6379">
        <ele>287.08801</ele>
        <time>2022-09-30T12:48:13.000Z</time>
      </trkpt>
      <trkpt lat="45.86495" lon="4.63784">
        <ele>287.06854</ele>
        <time>2022-09-30T12:48:14.000Z</time>
      </trkpt>
      <trkpt lat="45.86497" lon="4.63775">
        <ele>286.91656</ele>
        <time>2022-09-30T12:48:15.000Z</time>
      </trkpt>
      <trkpt lat="45.86499" lon="4.6377">
        <ele>286.75293</ele>
        <time>2022-09-30T12:48:16.000Z</time>
      </trkpt>
      <trkpt lat="45.86502" lon="4.63764">
        <ele>286.62192</ele>
        <time>2022-09-30T12:48:17.000Z</time>
      </trkpt>
      <trkpt lat="45.86504" lon="4.63758">
        <ele>286.45529</ele>
        <time>2022-09-30T12:48:18.000Z</time>
      </trkpt>
      <trkpt lat="45.86507" lon="4.63752">
        <ele>286.23477</ele>
        <time>2022-09-30T12:48:19.000Z</time>
      </trkpt>
      <trkpt lat="45.86507" lon="4.63746">
        <ele>286.05145</ele>
        <time>2022-09-30T12:48:20.000Z</time>
      </trkpt>
      <trkpt lat="45.86509" lon="4.6374">
        <ele>285.92487</ele>
        <time>2022-09-30T12:48:21.000Z</time>
      </trkpt>
      <trkpt lat="45.86511" lon="4.63736">
        <ele>285.75967</ele>
        <time>2022-09-30T12:48:22.000Z</time>
      </trkpt>
      <trkpt lat="45.86508" lon="4.63728">
        <ele>285.55649</ele>
        <time>2022-09-30T12:48:23.000Z</time>
      </trkpt>
      <trkpt lat="45.86513" lon="4.63723">
        <ele>285.37021</ele>
        <time>2022-09-30T12:48:24.000Z</time>
      </trkpt>
      <trkpt lat="45.86517" lon="4.63719">
        <ele>285.18231</ele>
        <time>2022-09-30T12:48:25.000Z</time>
      </trkpt>
      <trkpt lat="45.86518" lon="4.63714">
        <ele>285.01868</ele>
        <time>2022-09-30T12:48:26.000Z</time>
      </trkpt>
      <trkpt lat="45.86522" lon="4.63706">
        <ele>284.9494</ele>
        <time>2022-09-30T12:48:27.000Z</time>
      </trkpt>
      <trkpt lat="45.86524" lon="4.63701">
        <ele>284.86923</ele>
        <time>2022-09-30T12:48:28.000Z</time>
      </trkpt>
      <trkpt lat="45.86527" lon="4.63695">
        <ele>284.83966</ele>
        <time>2022-09-30T12:48:29.000Z</time>
      </trkpt>
      <trkpt lat="45.8653" lon="4.63688">
        <ele>284.78677</ele>
        <time>2022-09-30T12:48:30.000Z</time>
      </trkpt>
      <trkpt lat="45.86533" lon="4.63683">
        <ele>284.58389</ele>
        <time>2022-09-30T12:48:31.000Z</time>
      </trkpt>
      <trkpt lat="45.86534" lon="4.63678">
        <ele>284.42776</ele>
        <time>2022-09-30T12:48:32.000Z</time>
      </trkpt>
      <trkpt lat="45.86537" lon="4.63673">
        <ele>284.2309</ele>
        <time>2022-09-30T12:48:33.000Z</time>
      </trkpt>
      <trkpt lat="45.86542" lon="4.63669">
        <ele>284.0329</ele>
        <time>2022-09-30T12:48:34.000Z</time>
      </trkpt>
      <trkpt lat="45.86545" lon="4.63661">
        <ele>283.98779</ele>
        <time>2022-09-30T12:48:35.000Z</time>
      </trkpt>
      <trkpt lat="45.86547" lon="4.63653">
        <ele>283.98724</ele>
        <time>2022-09-30T12:48:36.000Z</time>
      </trkpt>
      <trkpt lat="45.86549" lon="4.63646">
        <ele>283.96671</ele>
        <time>2022-09-30T12:48:37.000Z</time>
      </trkpt>
      <trkpt lat="45.86552" lon="4.63642">
        <ele>283.89813</ele>
        <time>2022-09-30T12:48:38.000Z</time>
      </trkpt>
      <trkpt lat="45.86554" lon="4.63633">
        <ele>283.88254</ele>
        <time>2022-09-30T12:48:39.000Z</time>
      </trkpt>
      <trkpt lat="45.86556" lon="4.63628">
        <ele>283.87347</ele>
        <time>2022-09-30T12:48:40.000Z</time>
      </trkpt>
      <trkpt lat="45.86558" lon="4.63621">
        <ele>283.86365</ele>
        <time>2022-09-30T12:48:41.000Z</time>
      </trkpt>
      <trkpt lat="45.8656" lon="4.63613">
        <ele>283.86365</ele>
        <time>2022-09-30T12:48:42.000Z</time>
      </trkpt>
      <trkpt lat="45.86563" lon="4.63605">
        <ele>283.8985</ele>
        <time>2022-09-30T12:48:43.000Z</time>
      </trkpt>
      <trkpt lat="45.86564" lon="4.63598">
        <ele>283.90521</ele>
        <time>2022-09-30T12:48:44.000Z</time>
      </trkpt>
      <trkpt lat="45.86566" lon="4.63591">
        <ele>284.00031</ele>
        <time>2022-09-30T12:48:45.000Z</time>
      </trkpt>
      <trkpt lat="45.86568" lon="4.63585">
        <ele>284.0759</ele>
        <time>2022-09-30T12:48:46.000Z</time>
      </trkpt>
      <trkpt lat="45.8657" lon="4.63578">
        <ele>283.98404</ele>
        <time>2022-09-30T12:48:47.000Z</time>
      </trkpt>
      <trkpt lat="45.86573" lon="4.63572">
        <ele>283.89725</ele>
        <time>2022-09-30T12:48:48.000Z</time>
      </trkpt>
      <trkpt lat="45.86576" lon="4.63564">
        <ele>283.78278</ele>
        <time>2022-09-30T12:48:49.000Z</time>
      </trkpt>
      <trkpt lat="45.86579" lon="4.63557">
        <ele>283.71411</ele>
        <time>2022-09-30T12:48:50.000Z</time>
      </trkpt>
      <trkpt lat="45.86582" lon="4.6355">
        <ele>283.77139</ele>
        <time>2022-09-30T12:48:51.000Z</time>
      </trkpt>
      <trkpt lat="45.86584" lon="4.63543">
        <ele>283.81995</ele>
        <time>2022-09-30T12:48:52.000Z</time>
      </trkpt>
      <trkpt lat="45.86585" lon="4.63537">
        <ele>283.86102</ele>
        <time>2022-09-30T12:48:53.000Z</time>
      </trkpt>
      <trkpt lat="45.86585" lon="4.6353">
        <ele>284.05673</ele>
        <time>2022-09-30T12:48:54.000Z</time>
      </trkpt>
      <trkpt lat="45.86587" lon="4.63525">
        <ele>284.19769</ele>
        <time>2022-09-30T12:48:55.000Z</time>
      </trkpt>
      <trkpt lat="45.86588" lon="4.63517">
        <ele>284.24246</ele>
        <time>2022-09-30T12:48:56.000Z</time>
      </trkpt>
      <trkpt lat="45.86591" lon="4.63511">
        <ele>284.24469</ele>
        <time>2022-09-30T12:48:57.000Z</time>
      </trkpt>
      <trkpt lat="45.86594" lon="4.63503">
        <ele>284.31305</ele>
        <time>2022-09-30T12:48:58.000Z</time>
      </trkpt>
      <trkpt lat="45.86596" lon="4.63497">
        <ele>284.34283</ele>
        <time>2022-09-30T12:48:59.000Z</time>
      </trkpt>
      <trkpt lat="45.86597" lon="4.6349">
        <ele>284.33209</ele>
        <time>2022-09-30T12:49:00.000Z</time>
      </trkpt>
      <trkpt lat="45.86601" lon="4.63482">
        <ele>284.27942</ele>
        <time>2022-09-30T12:49:01.000Z</time>
      </trkpt>
      <trkpt lat="45.86603" lon="4.63475">
        <ele>284.1543</ele>
        <time>2022-09-30T12:49:02.000Z</time>
      </trkpt>
      <trkpt lat="45.86604" lon="4.63471">
        <ele>284.0777</ele>
        <time>2022-09-30T12:49:03.000Z</time>
      </trkpt>
      <trkpt lat="45.86607" lon="4.63462">
        <ele>283.96423</ele>
        <time>2022-09-30T12:49:04.000Z</time>
      </trkpt>
      <trkpt lat="45.86607" lon="4.63456">
        <ele>283.80804</ele>
        <time>2022-09-30T12:49:05.000Z</time>
      </trkpt>
      <trkpt lat="45.86608" lon="4.63449">
        <ele>283.65512</ele>
        <time>2022-09-30T12:49:06.000Z</time>
      </trkpt>
      <trkpt lat="45.86611" lon="4.63443">
        <ele>283.60785</ele>
        <time>2022-09-30T12:49:07.000Z</time>
      </trkpt>
      <trkpt lat="45.86613" lon="4.63437">
        <ele>283.56589</ele>
        <time>2022-09-30T12:49:08.000Z</time>
      </trkpt>
      <trkpt lat="45.86614" lon="4.6343">
        <ele>283.56073</ele>
        <time>2022-09-30T12:49:09.000Z</time>
      </trkpt>
      <trkpt lat="45.86615" lon="4.63424">
        <ele>283.51605</ele>
        <time>2022-09-30T12:49:10.000Z</time>
      </trkpt>
      <trkpt lat="45.86617" lon="4.63417">
        <ele>283.5097</ele>
        <time>2022-09-30T12:49:11.000Z</time>
      </trkpt>
      <trkpt lat="45.86618" lon="4.63411">
        <ele>283.40845</ele>
        <time>2022-09-30T12:49:12.000Z</time>
      </trkpt>
      <trkpt lat="45.8662" lon="4.63405">
        <ele>283.34079</ele>
        <time>2022-09-30T12:49:13.000Z</time>
      </trkpt>
      <trkpt lat="45.86622" lon="4.634">
        <ele>283.27475</ele>
        <time>2022-09-30T12:49:14.000Z</time>
      </trkpt>
      <trkpt lat="45.86624" lon="4.63393">
        <ele>283.21268</ele>
        <time>2022-09-30T12:49:15.000Z</time>
      </trkpt>
      <trkpt lat="45.86628" lon="4.63387">
        <ele>283.19864</ele>
        <time>2022-09-30T12:49:16.000Z</time>
      </trkpt>
      <trkpt lat="45.8663" lon="4.63383">
        <ele>283.15063</ele>
        <time>2022-09-30T12:49:17.000Z</time>
      </trkpt>
      <trkpt lat="45.86632" lon="4.63376">
        <ele>283.12653</ele>
        <time>2022-09-30T12:49:18.000Z</time>
      </trkpt>
      <trkpt lat="45.86632" lon="4.6337">
        <ele>283.12531</ele>
        <time>2022-09-30T12:49:19.000Z</time>
      </trkpt>
      <trkpt lat="45.86634" lon="4.63364">
        <ele>283.12717</ele>
        <time>2022-09-30T12:49:20.000Z</time>
      </trkpt>
      <trkpt lat="45.86636" lon="4.63359">
        <ele>283.17703</ele>
        <time>2022-09-30T12:49:21.000Z</time>
      </trkpt>
      <trkpt lat="45.86638" lon="4.63352">
        <ele>283.25403</ele>
        <time>2022-09-30T12:49:22.000Z</time>
      </trkpt>
      <trkpt lat="45.8664" lon="4.63344">
        <ele>283.32272</ele>
        <time>2022-09-30T12:49:23.000Z</time>
      </trkpt>
      <trkpt lat="45.86641" lon="4.63337">
        <ele>283.4245</ele>
        <time>2022-09-30T12:49:24.000Z</time>
      </trkpt>
      <trkpt lat="45.86644" lon="4.6333">
        <ele>283.47208</ele>
        <time>2022-09-30T12:49:25.000Z</time>
      </trkpt>
      <trkpt lat="45.86647" lon="4.63323">
        <ele>283.45483</ele>
        <time>2022-09-30T12:49:26.000Z</time>
      </trkpt>
      <trkpt lat="45.8665" lon="4.63316">
        <ele>283.36337</ele>
        <time>2022-09-30T12:49:27.000Z</time>
      </trkpt>
      <trkpt lat="45.8665" lon="4.63309">
        <ele>283.2323</ele>
        <time>2022-09-30T12:49:28.000Z</time>
      </trkpt>
      <trkpt lat="45.86651" lon="4.63302">
        <ele>283.04138</ele>
        <time>2022-09-30T12:49:29.000Z</time>
      </trkpt>
      <trkpt lat="45.86651" lon="4.63294">
        <ele>282.84036</ele>
        <time>2022-09-30T12:49:30.000Z</time>
      </trkpt>
      <trkpt lat="45.86653" lon="4.63288">
        <ele>282.60907</ele>
        <time>2022-09-30T12:49:31.000Z</time>
      </trkpt>
      <trkpt lat="45.86655" lon="4.63282">
        <ele>282.43951</ele>
        <time>2022-09-30T12:49:32.000Z</time>
      </trkpt>
      <trkpt lat="45.86656" lon="4.63275">
        <ele>282.30402</ele>
        <time>2022-09-30T12:49:33.000Z</time>
      </trkpt>
      <trkpt lat="45.86654" lon="4.63269">
        <ele>282.13861</ele>
        <time>2022-09-30T12:49:34.000Z</time>
      </trkpt>
      <trkpt lat="45.86659" lon="4.63263">
        <ele>281.92776</ele>
        <time>2022-09-30T12:49:35.000Z</time>
      </trkpt>
      <trkpt lat="45.86659" lon="4.63257">
        <ele>281.71667</ele>
        <time>2022-09-30T12:49:36.000Z</time>
      </trkpt>
      <trkpt lat="45.8666" lon="4.63251">
        <ele>281.52948</ele>
        <time>2022-09-30T12:49:37.000Z</time>
      </trkpt>
      <trkpt lat="45.86661" lon="4.63246">
        <ele>281.36197</ele>
        <time>2022-09-30T12:49:38.000Z</time>
      </trkpt>
      <trkpt lat="45.86662" lon="4.63243">
        <ele>281.2543</ele>
        <time>2022-09-30T12:49:39.000Z</time>
      </trkpt>
      <trkpt lat="45.86663" lon="4.63238">
        <ele>281.19183</ele>
        <time>2022-09-30T12:49:40.000Z</time>
      </trkpt>
      <trkpt lat="45.86667" lon="4.63234">
        <ele>281.05447</ele>
        <time>2022-09-30T12:49:41.000Z</time>
      </trkpt>
      <trkpt lat="45.86669" lon="4.6323">
        <ele>280.97247</ele>
        <time>2022-09-30T12:49:42.000Z</time>
      </trkpt>
      <trkpt lat="45.8667" lon="4.63226">
        <ele>280.85699</ele>
        <time>2022-09-30T12:49:43.000Z</time>
      </trkpt>
      <trkpt lat="45.8667" lon="4.6322">
        <ele>280.72906</ele>
        <time>2022-09-30T12:49:44.000Z</time>
      </trkpt>
      <trkpt lat="45.86669" lon="4.63216">
        <ele>280.6134</ele>
        <time>2022-09-30T12:49:45.000Z</time>
      </trkpt>
      <trkpt lat="45.86668" lon="4.63213">
        <ele>280.48877</ele>
        <time>2022-09-30T12:49:46.000Z</time>
      </trkpt>
      <trkpt lat="45.86668" lon="4.63209">
        <ele>280.37177</ele>
        <time>2022-09-30T12:49:47.000Z</time>
      </trkpt>
      <trkpt lat="45.86669" lon="4.63204">
        <ele>280.30258</ele>
        <time>2022-09-30T12:49:48.000Z</time>
      </trkpt>
      <trkpt lat="45.86669" lon="4.632">
        <ele>280.31326</ele>
        <time>2022-09-30T12:49:49.000Z</time>
      </trkpt>
      <trkpt lat="45.86669" lon="4.63196">
        <ele>280.36697</ele>
        <time>2022-09-30T12:49:50.000Z</time>
      </trkpt>
      <trkpt lat="45.8667" lon="4.63191">
        <ele>280.42902</ele>
        <time>2022-09-30T12:49:51.000Z</time>
      </trkpt>
      <trkpt lat="45.86671" lon="4.63186">
        <ele>280.50888</ele>
        <time>2022-09-30T12:49:52.000Z</time>
      </trkpt>
      <trkpt lat="45.86672" lon="4.63182">
        <ele>280.56808</ele>
        <time>2022-09-30T12:49:53.000Z</time>
      </trkpt>
      <trkpt lat="45.86673" lon="4.63177">
        <ele>280.60626</ele>
        <time>2022-09-30T12:49:54.000Z</time>
      </trkpt>
      <trkpt lat="45.86674" lon="4.63173">
        <ele>280.64844</ele>
        <time>2022-09-30T12:49:55.000Z</time>
      </trkpt>
      <trkpt lat="45.86675" lon="4.63168">
        <ele>280.69977</ele>
        <time>2022-09-30T12:49:56.000Z</time>
      </trkpt>
      <trkpt lat="45.86676" lon="4.63162">
        <ele>280.7493</ele>
        <time>2022-09-30T12:49:57.000Z</time>
      </trkpt>
      <trkpt lat="45.86676" lon="4.63157">
        <ele>280.78604</ele>
        <time>2022-09-30T12:49:58.000Z</time>
      </trkpt>
      <trkpt lat="45.86677" lon="4.63153">
        <ele>280.73398</ele>
        <time>2022-09-30T12:49:59.000Z</time>
      </trkpt>
      <trkpt lat="45.86677" lon="4.63148">
        <ele>280.71796</ele>
        <time>2022-09-30T12:50:00.000Z</time>
      </trkpt>
      <trkpt lat="45.86678" lon="4.63143">
        <ele>280.81104</ele>
        <time>2022-09-30T12:50:01.000Z</time>
      </trkpt>
      <trkpt lat="45.86679" lon="4.63138">
        <ele>280.87268</ele>
        <time>2022-09-30T12:50:02.000Z</time>
      </trkpt>
      <trkpt lat="45.8668" lon="4.63132">
        <ele>280.95029</ele>
        <time>2022-09-30T12:50:03.000Z</time>
      </trkpt>
      <trkpt lat="45.86681" lon="4.63127">
        <ele>281.04547</ele>
        <time>2022-09-30T12:50:04.000Z</time>
      </trkpt>
      <trkpt lat="45.86682" lon="4.63121">
        <ele>281.18646</ele>
        <time>2022-09-30T12:50:05.000Z</time>
      </trkpt>
      <trkpt lat="45.86682" lon="4.63116">
        <ele>281.35663</ele>
        <time>2022-09-30T12:50:06.000Z</time>
      </trkpt>
      <trkpt lat="45.86683" lon="4.6311">
        <ele>281.59146</ele>
        <time>2022-09-30T12:50:07.000Z</time>
      </trkpt>
      <trkpt lat="45.86684" lon="4.63105">
        <ele>281.87762</ele>
        <time>2022-09-30T12:50:08.000Z</time>
      </trkpt>
      <trkpt lat="45.86686" lon="4.631">
        <ele>282.11246</ele>
        <time>2022-09-30T12:50:09.000Z</time>
      </trkpt>
      <trkpt lat="45.86687" lon="4.63094">
        <ele>282.32043</ele>
        <time>2022-09-30T12:50:10.000Z</time>
      </trkpt>
      <trkpt lat="45.86688" lon="4.63089">
        <ele>282.50568</ele>
        <time>2022-09-30T12:50:11.000Z</time>
      </trkpt>
      <trkpt lat="45.8669" lon="4.63084">
        <ele>282.70383</ele>
        <time>2022-09-30T12:50:12.000Z</time>
      </trkpt>
      <trkpt lat="45.86691" lon="4.63079">
        <ele>282.90302</ele>
        <time>2022-09-30T12:50:13.000Z</time>
      </trkpt>
      <trkpt lat="45.86692" lon="4.63074">
        <ele>283.14542</ele>
        <time>2022-09-30T12:50:14.000Z</time>
      </trkpt>
      <trkpt lat="45.86693" lon="4.63069">
        <ele>283.4425</ele>
        <time>2022-09-30T12:50:15.000Z</time>
      </trkpt>
      <trkpt lat="45.86694" lon="4.63063">
        <ele>283.75958</ele>
        <time>2022-09-30T12:50:16.000Z</time>
      </trkpt>
      <trkpt lat="45.86695" lon="4.63057">
        <ele>284.05637</ele>
        <time>2022-09-30T12:50:17.000Z</time>
      </trkpt>
      <trkpt lat="45.86697" lon="4.63051">
        <ele>284.36905</ele>
        <time>2022-09-30T12:50:18.000Z</time>
      </trkpt>
      <trkpt lat="45.86698" lon="4.63045">
        <ele>284.69354</ele>
        <time>2022-09-30T12:50:19.000Z</time>
      </trkpt>
      <trkpt lat="45.867" lon="4.63039">
        <ele>284.91061</ele>
        <time>2022-09-30T12:50:20.000Z</time>
      </trkpt>
      <trkpt lat="45.86701" lon="4.63034">
        <ele>285.0228</ele>
        <time>2022-09-30T12:50:21.000Z</time>
      </trkpt>
      <trkpt lat="45.86702" lon="4.63028">
        <ele>285.12372</ele>
        <time>2022-09-30T12:50:22.000Z</time>
      </trkpt>
      <trkpt lat="45.86703" lon="4.63021">
        <ele>285.25256</ele>
        <time>2022-09-30T12:50:23.000Z</time>
      </trkpt>
      <trkpt lat="45.86705" lon="4.63014">
        <ele>285.38727</ele>
        <time>2022-09-30T12:50:24.000Z</time>
      </trkpt>
      <trkpt lat="45.86706" lon="4.63008">
        <ele>285.50897</ele>
        <time>2022-09-30T12:50:25.000Z</time>
      </trkpt>
      <trkpt lat="45.86706" lon="4.63001">
        <ele>285.64951</ele>
        <time>2022-09-30T12:50:26.000Z</time>
      </trkpt>
      <trkpt lat="45.86706" lon="4.62995">
        <ele>285.78391</ele>
        <time>2022-09-30T12:50:27.000Z</time>
      </trkpt>
      <trkpt lat="45.86707" lon="4.62987">
        <ele>285.91049</ele>
        <time>2022-09-30T12:50:28.000Z</time>
      </trkpt>
      <trkpt lat="45.86707" lon="4.62981">
        <ele>286.04221</ele>
        <time>2022-09-30T12:50:29.000Z</time>
      </trkpt>
      <trkpt lat="45.86708" lon="4.62975">
        <ele>286.22543</ele>
        <time>2022-09-30T12:50:30.000Z</time>
      </trkpt>
      <trkpt lat="45.86708" lon="4.62969">
        <ele>286.38589</ele>
        <time>2022-09-30T12:50:31.000Z</time>
      </trkpt>
      <trkpt lat="45.86709" lon="4.62962">
        <ele>286.46732</ele>
        <time>2022-09-30T12:50:32.000Z</time>
      </trkpt>
      <trkpt lat="45.8671" lon="4.62956">
        <ele>286.53458</ele>
        <time>2022-09-30T12:50:33.000Z</time>
      </trkpt>
      <trkpt lat="45.8671" lon="4.6295">
        <ele>286.55487</ele>
        <time>2022-09-30T12:50:34.000Z</time>
      </trkpt>
      <trkpt lat="45.8671" lon="4.62944">
        <ele>286.56622</ele>
        <time>2022-09-30T12:50:35.000Z</time>
      </trkpt>
      <trkpt lat="45.86712" lon="4.62937">
        <ele>286.58069</ele>
        <time>2022-09-30T12:50:36.000Z</time>
      </trkpt>
      <trkpt lat="45.86712" lon="4.62931">
        <ele>286.68793</ele>
        <time>2022-09-30T12:50:37.000Z</time>
      </trkpt>
      <trkpt lat="45.86714" lon="4.62924">
        <ele>286.7854</ele>
        <time>2022-09-30T12:50:38.000Z</time>
      </trkpt>
      <trkpt lat="45.86713" lon="4.62919">
        <ele>286.72223</ele>
        <time>2022-09-30T12:50:39.000Z</time>
      </trkpt>
      <trkpt lat="45.86713" lon="4.62912">
        <ele>286.73361</ele>
        <time>2022-09-30T12:50:40.000Z</time>
      </trkpt>
      <trkpt lat="45.86713" lon="4.62905">
        <ele>286.79974</ele>
        <time>2022-09-30T12:50:41.000Z</time>
      </trkpt>
      <trkpt lat="45.86715" lon="4.62897">
        <ele>286.84845</ele>
        <time>2022-09-30T12:50:42.000Z</time>
      </trkpt>
      <trkpt lat="45.86715" lon="4.62889">
        <ele>286.83762</ele>
        <time>2022-09-30T12:50:43.000Z</time>
      </trkpt>
      <trkpt lat="45.86715" lon="4.62881">
        <ele>286.81509</ele>
        <time>2022-09-30T12:50:44.000Z</time>
      </trkpt>
      <trkpt lat="45.86716" lon="4.62873">
        <ele>286.81003</ele>
        <time>2022-09-30T12:50:45.000Z</time>
      </trkpt>
      <trkpt lat="45.86716" lon="4.62866">
        <ele>286.82291</ele>
        <time>2022-09-30T12:50:46.000Z</time>
      </trkpt>
      <trkpt lat="45.86717" lon="4.6286">
        <ele>286.79852</ele>
        <time>2022-09-30T12:50:47.000Z</time>
      </trkpt>
      <trkpt lat="45.86717" lon="4.62853">
        <ele>286.73068</ele>
        <time>2022-09-30T12:50:48.000Z</time>
      </trkpt>
      <trkpt lat="45.86717" lon="4.62845">
        <ele>286.7049</ele>
        <time>2022-09-30T12:50:49.000Z</time>
      </trkpt>
      <trkpt lat="45.86717" lon="4.62839">
        <ele>286.62164</ele>
        <time>2022-09-30T12:50:50.000Z</time>
      </trkpt>
      <trkpt lat="45.86719" lon="4.62831">
        <ele>286.54337</ele>
        <time>2022-09-30T12:50:51.000Z</time>
      </trkpt>
      <trkpt lat="45.8672" lon="4.62822">
        <ele>286.59061</ele>
        <time>2022-09-30T12:50:52.000Z</time>
      </trkpt>
      <trkpt lat="45.86721" lon="4.62814">
        <ele>286.63858</ele>
        <time>2022-09-30T12:50:53.000Z</time>
      </trkpt>
      <trkpt lat="45.86721" lon="4.62807">
        <ele>286.80408</ele>
        <time>2022-09-30T12:50:54.000Z</time>
      </trkpt>
      <trkpt lat="45.86722" lon="4.62799">
        <ele>286.95505</ele>
        <time>2022-09-30T12:50:55.000Z</time>
      </trkpt>
      <trkpt lat="45.86722" lon="4.62793">
        <ele>287.15686</ele>
        <time>2022-09-30T12:50:56.000Z</time>
      </trkpt>
      <trkpt lat="45.86722" lon="4.62784">
        <ele>287.29321</ele>
        <time>2022-09-30T12:50:57.000Z</time>
      </trkpt>
      <trkpt lat="45.86724" lon="4.62776">
        <ele>287.46164</ele>
        <time>2022-09-30T12:50:58.000Z</time>
      </trkpt>
      <trkpt lat="45.86725" lon="4.62768">
        <ele>287.83603</ele>
        <time>2022-09-30T12:50:59.000Z</time>
      </trkpt>
      <trkpt lat="45.86726" lon="4.62761">
        <ele>288.22568</ele>
        <time>2022-09-30T12:51:00.000Z</time>
      </trkpt>
      <trkpt lat="45.86726" lon="4.62754">
        <ele>288.63446</ele>
        <time>2022-09-30T12:51:01.000Z</time>
      </trkpt>
      <trkpt lat="45.86726" lon="4.62746">
        <ele>289.1463</ele>
        <time>2022-09-30T12:51:02.000Z</time>
      </trkpt>
      <trkpt lat="45.86727" lon="4.62738">
        <ele>289.68198</ele>
        <time>2022-09-30T12:51:03.000Z</time>
      </trkpt>
      <trkpt lat="45.86728" lon="4.6273">
        <ele>290.24493</ele>
        <time>2022-09-30T12:51:04.000Z</time>
      </trkpt>
      <trkpt lat="45.86727" lon="4.62721">
        <ele>290.79214</ele>
        <time>2022-09-30T12:51:05.000Z</time>
      </trkpt>
      <trkpt lat="45.86728" lon="4.62715">
        <ele>291.31061</ele>
        <time>2022-09-30T12:51:06.000Z</time>
      </trkpt>
      <trkpt lat="45.86728" lon="4.62707">
        <ele>291.80942</ele>
        <time>2022-09-30T12:51:07.000Z</time>
      </trkpt>
      <trkpt lat="45.86729" lon="4.627">
        <ele>292.28598</ele>
        <time>2022-09-30T12:51:08.000Z</time>
      </trkpt>
      <trkpt lat="45.86729" lon="4.62692">
        <ele>292.65045</ele>
        <time>2022-09-30T12:51:09.000Z</time>
      </trkpt>
      <trkpt lat="45.8673" lon="4.62684">
        <ele>292.9938</ele>
        <time>2022-09-30T12:51:10.000Z</time>
      </trkpt>
      <trkpt lat="45.8673" lon="4.62677">
        <ele>293.38156</ele>
        <time>2022-09-30T12:51:11.000Z</time>
      </trkpt>
      <trkpt lat="45.8673" lon="4.6267">
        <ele>293.71796</ele>
        <time>2022-09-30T12:51:12.000Z</time>
      </trkpt>
      <trkpt lat="45.86731" lon="4.62663">
        <ele>294.08316</ele>
        <time>2022-09-30T12:51:13.000Z</time>
      </trkpt>
      <trkpt lat="45.86732" lon="4.62656">
        <ele>294.38046</ele>
        <time>2022-09-30T12:51:14.000Z</time>
      </trkpt>
      <trkpt lat="45.86733" lon="4.62648">
        <ele>294.66882</ele>
        <time>2022-09-30T12:51:15.000Z</time>
      </trkpt>
      <trkpt lat="45.86734" lon="4.62642">
        <ele>294.93869</ele>
        <time>2022-09-30T12:51:16.000Z</time>
      </trkpt>
      <trkpt lat="45.86735" lon="4.62635">
        <ele>295.24878</ele>
        <time>2022-09-30T12:51:17.000Z</time>
      </trkpt>
      <trkpt lat="45.86736" lon="4.62628">
        <ele>295.54419</ele>
        <time>2022-09-30T12:51:18.000Z</time>
      </trkpt>
      <trkpt lat="45.86737" lon="4.62623">
        <ele>295.76511</ele>
        <time>2022-09-30T12:51:19.000Z</time>
      </trkpt>
      <trkpt lat="45.86736" lon="4.62617">
        <ele>295.99567</ele>
        <time>2022-09-30T12:51:20.000Z</time>
      </trkpt>
      <trkpt lat="45.86737" lon="4.62611">
        <ele>296.23599</ele>
        <time>2022-09-30T12:51:21.000Z</time>
      </trkpt>
      <trkpt lat="45.86736" lon="4.62605">
        <ele>296.39325</ele>
        <time>2022-09-30T12:51:22.000Z</time>
      </trkpt>
      <trkpt lat="45.86737" lon="4.626">
        <ele>296.5831</ele>
        <time>2022-09-30T12:51:23.000Z</time>
      </trkpt>
      <trkpt lat="45.86737" lon="4.62593">
        <ele>296.76532</ele>
        <time>2022-09-30T12:51:24.000Z</time>
      </trkpt>
      <trkpt lat="45.86737" lon="4.62587">
        <ele>296.99173</ele>
        <time>2022-09-30T12:51:25.000Z</time>
      </trkpt>
      <trkpt lat="45.86737" lon="4.62582">
        <ele>297.24228</ele>
        <time>2022-09-30T12:51:26.000Z</time>
      </trkpt>
      <trkpt lat="45.86738" lon="4.62576">
        <ele>297.55429</ele>
        <time>2022-09-30T12:51:27.000Z</time>
      </trkpt>
      <trkpt lat="45.86738" lon="4.6257">
        <ele>297.936</ele>
        <time>2022-09-30T12:51:28.000Z</time>
      </trkpt>
      <trkpt lat="45.86737" lon="4.62563">
        <ele>298.40082</ele>
        <time>2022-09-30T12:51:29.000Z</time>
      </trkpt>
      <trkpt lat="45.86737" lon="4.62557">
        <ele>298.87894</ele>
        <time>2022-09-30T12:51:30.000Z</time>
      </trkpt>
      <trkpt lat="45.86737" lon="4.62549">
        <ele>299.30853</ele>
        <time>2022-09-30T12:51:31.000Z</time>
      </trkpt>
      <trkpt lat="45.86737" lon="4.62542">
        <ele>299.70981</ele>
        <time>2022-09-30T12:51:32.000Z</time>
      </trkpt>
      <trkpt lat="45.86738" lon="4.62535">
        <ele>300.11923</ele>
        <time>2022-09-30T12:51:33.000Z</time>
      </trkpt>
      <trkpt lat="45.86738" lon="4.62527">
        <ele>300.55347</ele>
        <time>2022-09-30T12:51:34.000Z</time>
      </trkpt>
      <trkpt lat="45.86738" lon="4.6252">
        <ele>301.03082</ele>
        <time>2022-09-30T12:51:35.000Z</time>
      </trkpt>
      <trkpt lat="45.86738" lon="4.62513">
        <ele>301.52332</ele>
        <time>2022-09-30T12:51:36.000Z</time>
      </trkpt>
      <trkpt lat="45.86738" lon="4.62505">
        <ele>301.99701</ele>
        <time>2022-09-30T12:51:37.000Z</time>
      </trkpt>
      <trkpt lat="45.86738" lon="4.62497">
        <ele>302.43539</ele>
        <time>2022-09-30T12:51:38.000Z</time>
      </trkpt>
      <trkpt lat="45.86738" lon="4.62491">
        <ele>302.9061</ele>
        <time>2022-09-30T12:51:39.000Z</time>
      </trkpt>
      <trkpt lat="45.86737" lon="4.62484">
        <ele>303.31891</ele>
        <time>2022-09-30T12:51:40.000Z</time>
      </trkpt>
      <trkpt lat="45.86737" lon="4.62477">
        <ele>303.63336</ele>
        <time>2022-09-30T12:51:41.000Z</time>
      </trkpt>
      <trkpt lat="45.86736" lon="4.6247">
        <ele>303.96014</ele>
        <time>2022-09-30T12:51:42.000Z</time>
      </trkpt>
      <trkpt lat="45.86735" lon="4.62463">
        <ele>304.23627</ele>
        <time>2022-09-30T12:51:43.000Z</time>
      </trkpt>
      <trkpt lat="45.86734" lon="4.62455">
        <ele>304.47623</ele>
        <time>2022-09-30T12:51:44.000Z</time>
      </trkpt>
      <trkpt lat="45.86734" lon="4.62448">
        <ele>304.63516</ele>
        <time>2022-09-30T12:51:45.000Z</time>
      </trkpt>
      <trkpt lat="45.86733" lon="4.6244">
        <ele>304.78506</ele>
        <time>2022-09-30T12:51:46.000Z</time>
      </trkpt>
      <trkpt lat="45.86733" lon="4.62432">
        <ele>304.92358</ele>
        <time>2022-09-30T12:51:47.000Z</time>
      </trkpt>
      <trkpt lat="45.86732" lon="4.62425">
        <ele>304.99899</ele>
        <time>2022-09-30T12:51:48.000Z</time>
      </trkpt>
      <trkpt lat="45.86731" lon="4.62417">
        <ele>305.05078</ele>
        <time>2022-09-30T12:51:49.000Z</time>
      </trkpt>
      <trkpt lat="45.86731" lon="4.62408">
        <ele>305.09644</ele>
        <time>2022-09-30T12:51:50.000Z</time>
      </trkpt>
      <trkpt lat="45.86731" lon="4.624">
        <ele>305.18488</ele>
        <time>2022-09-30T12:51:51.000Z</time>
      </trkpt>
      <trkpt lat="45.8673" lon="4.62392">
        <ele>305.22342</ele>
        <time>2022-09-30T12:51:52.000Z</time>
      </trkpt>
      <trkpt lat="45.8673" lon="4.62384">
        <ele>305.22931</ele>
        <time>2022-09-30T12:51:53.000Z</time>
      </trkpt>
      <trkpt lat="45.86729" lon="4.62376">
        <ele>305.22455</ele>
        <time>2022-09-30T12:51:54.000Z</time>
      </trkpt>
      <trkpt lat="45.8673" lon="4.62367">
        <ele>305.285</ele>
        <time>2022-09-30T12:51:55.000Z</time>
      </trkpt>
      <trkpt lat="45.8673" lon="4.62358">
        <ele>305.36514</ele>
        <time>2022-09-30T12:51:56.000Z</time>
      </trkpt>
      <trkpt lat="45.86731" lon="4.6235">
        <ele>305.44678</ele>
        <time>2022-09-30T12:51:57.000Z</time>
      </trkpt>
      <trkpt lat="45.86731" lon="4.62342">
        <ele>305.59119</ele>
        <time>2022-09-30T12:51:58.000Z</time>
      </trkpt>
      <trkpt lat="45.86731" lon="4.62335">
        <ele>305.73029</ele>
        <time>2022-09-30T12:51:59.000Z</time>
      </trkpt>
      <trkpt lat="45.86729" lon="4.62326">
        <ele>305.87177</ele>
        <time>2022-09-30T12:52:00.000Z</time>
      </trkpt>
      <trkpt lat="45.86729" lon="4.62318">
        <ele>306.05603</ele>
        <time>2022-09-30T12:52:01.000Z</time>
      </trkpt>
      <trkpt lat="45.86728" lon="4.62311">
        <ele>306.29605</ele>
        <time>2022-09-30T12:52:02.000Z</time>
      </trkpt>
      <trkpt lat="45.86728" lon="4.62303">
        <ele>306.57611</ele>
        <time>2022-09-30T12:52:03.000Z</time>
      </trkpt>
      <trkpt lat="45.86726" lon="4.62294">
        <ele>306.91599</ele>
        <time>2022-09-30T12:52:04.000Z</time>
      </trkpt>
      <trkpt lat="45.86726" lon="4.62286">
        <ele>307.30328</ele>
        <time>2022-09-30T12:52:05.000Z</time>
      </trkpt>
      <trkpt lat="45.86725" lon="4.62278">
        <ele>307.69574</ele>
        <time>2022-09-30T12:52:06.000Z</time>
      </trkpt>
      <trkpt lat="45.86724" lon="4.62271">
        <ele>308.07413</ele>
        <time>2022-09-30T12:52:07.000Z</time>
      </trkpt>
      <trkpt lat="45.86723" lon="4.62263">
        <ele>308.41522</ele>
        <time>2022-09-30T12:52:08.000Z</time>
      </trkpt>
      <trkpt lat="45.86723" lon="4.62254">
        <ele>308.7598</ele>
        <time>2022-09-30T12:52:09.000Z</time>
      </trkpt>
      <trkpt lat="45.86721" lon="4.62246">
        <ele>309.09879</ele>
        <time>2022-09-30T12:52:10.000Z</time>
      </trkpt>
      <trkpt lat="45.86721" lon="4.62239">
        <ele>309.47156</ele>
        <time>2022-09-30T12:52:11.000Z</time>
      </trkpt>
      <trkpt lat="45.86722" lon="4.62231">
        <ele>309.89438</ele>
        <time>2022-09-30T12:52:12.000Z</time>
      </trkpt>
      <trkpt lat="45.86722" lon="4.62222">
        <ele>310.35138</ele>
        <time>2022-09-30T12:52:13.000Z</time>
      </trkpt>
      <trkpt lat="45.86721" lon="4.62213">
        <ele>310.85092</ele>
        <time>2022-09-30T12:52:14.000Z</time>
      </trkpt>
      <trkpt lat="45.86719" lon="4.62205">
        <ele>311.22784</ele>
        <time>2022-09-30T12:52:15.000Z</time>
      </trkpt>
      <trkpt lat="45.86717" lon="4.62197">
        <ele>311.58392</ele>
        <time>2022-09-30T12:52:16.000Z</time>
      </trkpt>
      <trkpt lat="45.86717" lon="4.62189">
        <ele>311.88507</ele>
        <time>2022-09-30T12:52:17.000Z</time>
      </trkpt>
      <trkpt lat="45.86715" lon="4.6218">
        <ele>312.16711</ele>
        <time>2022-09-30T12:52:18.000Z</time>
      </trkpt>
      <trkpt lat="45.86715" lon="4.6217">
        <ele>312.53088</ele>
        <time>2022-09-30T12:52:19.000Z</time>
      </trkpt>
      <trkpt lat="45.86716" lon="4.62159">
        <ele>312.88806</ele>
        <time>2022-09-30T12:52:20.000Z</time>
      </trkpt>
      <trkpt lat="45.86715" lon="4.62152">
        <ele>313.28259</ele>
        <time>2022-09-30T12:52:21.000Z</time>
      </trkpt>
      <trkpt lat="45.86714" lon="4.62145">
        <ele>313.67719</ele>
        <time>2022-09-30T12:52:22.000Z</time>
      </trkpt>
      <trkpt lat="45.86712" lon="4.62142">
        <ele>314.14166</ele>
        <time>2022-09-30T12:52:23.000Z</time>
      </trkpt>
      <trkpt lat="45.86711" lon="4.62135">
        <ele>314.51996</ele>
        <time>2022-09-30T12:52:24.000Z</time>
      </trkpt>
      <trkpt lat="45.8671" lon="4.62128">
        <ele>314.8956</ele>
        <time>2022-09-30T12:52:25.000Z</time>
      </trkpt>
      <trkpt lat="45.86709" lon="4.6212">
        <ele>315.22217</ele>
        <time>2022-09-30T12:52:26.000Z</time>
      </trkpt>
      <trkpt lat="45.86707" lon="4.62115">
        <ele>315.58142</ele>
        <time>2022-09-30T12:52:27.000Z</time>
      </trkpt>
      <trkpt lat="45.86706" lon="4.62106">
        <ele>315.96674</ele>
        <time>2022-09-30T12:52:28.000Z</time>
      </trkpt>
      <trkpt lat="45.86706" lon="4.62097">
        <ele>316.25653</ele>
        <time>2022-09-30T12:52:29.000Z</time>
      </trkpt>
      <trkpt lat="45.86705" lon="4.62092">
        <ele>316.55331</ele>
        <time>2022-09-30T12:52:30.000Z</time>
      </trkpt>
      <trkpt lat="45.86704" lon="4.62083">
        <ele>316.8074</ele>
        <time>2022-09-30T12:52:31.000Z</time>
      </trkpt>
      <trkpt lat="45.86703" lon="4.62076">
        <ele>317.0777</ele>
        <time>2022-09-30T12:52:32.000Z</time>
      </trkpt>
      <trkpt lat="45.86702" lon="4.62068">
        <ele>317.26178</ele>
        <time>2022-09-30T12:52:33.000Z</time>
      </trkpt>
      <trkpt lat="45.86701" lon="4.62059">
        <ele>317.40512</ele>
        <time>2022-09-30T12:52:34.000Z</time>
      </trkpt>
      <trkpt lat="45.86699" lon="4.62051">
        <ele>317.5654</ele>
        <time>2022-09-30T12:52:35.000Z</time>
      </trkpt>
      <trkpt lat="45.867" lon="4.62044">
        <ele>317.5419</ele>
        <time>2022-09-30T12:52:36.000Z</time>
      </trkpt>
      <trkpt lat="45.86699" lon="4.62038">
        <ele>317.54376</ele>
        <time>2022-09-30T12:52:37.000Z</time>
      </trkpt>
      <trkpt lat="45.86698" lon="4.6203">
        <ele>317.47632</ele>
        <time>2022-09-30T12:52:38.000Z</time>
      </trkpt>
      <trkpt lat="45.86695" lon="4.62025">
        <ele>317.34897</ele>
        <time>2022-09-30T12:52:39.000Z</time>
      </trkpt>
      <trkpt lat="45.86694" lon="4.62019">
        <ele>317.30566</ele>
        <time>2022-09-30T12:52:40.000Z</time>
      </trkpt>
      <trkpt lat="45.86694" lon="4.62012">
        <ele>317.24231</ele>
        <time>2022-09-30T12:52:41.000Z</time>
      </trkpt>
      <trkpt lat="45.86693" lon="4.62009">
        <ele>317.07809</ele>
        <time>2022-09-30T12:52:42.000Z</time>
      </trkpt>
      <trkpt lat="45.86691" lon="4.62008">
        <ele>316.77435</ele>
        <time>2022-09-30T12:52:43.000Z</time>
      </trkpt>
      <trkpt lat="45.86691" lon="4.62004">
        <ele>316.50272</ele>
        <time>2022-09-30T12:52:44.000Z</time>
      </trkpt>
      <trkpt lat="45.86693" lon="4.62">
        <ele>316.24625</ele>
        <time>2022-09-30T12:52:45.000Z</time>
      </trkpt>
      <trkpt lat="45.86693" lon="4.61997">
        <ele>315.97391</ele>
        <time>2022-09-30T12:52:46.000Z</time>
      </trkpt>
      <trkpt lat="45.86694" lon="4.61991">
        <ele>315.58344</ele>
        <time>2022-09-30T12:52:48.000Z</time>
      </trkpt>
      <trkpt lat="45.86694" lon="4.61987">
        <ele>315.1778</ele>
        <time>2022-09-30T12:52:49.000Z</time>
      </trkpt>
      <trkpt lat="45.86694" lon="4.61981">
        <ele>314.89316</ele>
        <time>2022-09-30T12:52:50.000Z</time>
      </trkpt>
      <trkpt lat="45.86695" lon="4.61977">
        <ele>314.63495</ele>
        <time>2022-09-30T12:52:51.000Z</time>
      </trkpt>
      <trkpt lat="45.86695" lon="4.61972">
        <ele>314.36438</ele>
        <time>2022-09-30T12:52:52.000Z</time>
      </trkpt>
      <trkpt lat="45.86695" lon="4.61966">
        <ele>314.06635</ele>
        <time>2022-09-30T12:52:53.000Z</time>
      </trkpt>
      <trkpt lat="45.86695" lon="4.6196">
        <ele>313.79794</ele>
        <time>2022-09-30T12:52:54.000Z</time>
      </trkpt>
      <trkpt lat="45.86695" lon="4.61954">
        <ele>313.59354</ele>
        <time>2022-09-30T12:52:55.000Z</time>
      </trkpt>
      <trkpt lat="45.86696" lon="4.61946">
        <ele>313.38071</ele>
        <time>2022-09-30T12:52:56.000Z</time>
      </trkpt>
      <trkpt lat="45.86696" lon="4.61939">
        <ele>313.27606</ele>
        <time>2022-09-30T12:52:57.000Z</time>
      </trkpt>
      <trkpt lat="45.86696" lon="4.61934">
        <ele>313.22733</ele>
        <time>2022-09-30T12:52:58.000Z</time>
      </trkpt>
      <trkpt lat="45.86695" lon="4.61928">
        <ele>313.21136</ele>
        <time>2022-09-30T12:52:59.000Z</time>
      </trkpt>
      <trkpt lat="45.86694" lon="4.61922">
        <ele>313.21985</ele>
        <time>2022-09-30T12:53:00.000Z</time>
      </trkpt>
      <trkpt lat="45.86694" lon="4.61916">
        <ele>313.19403</ele>
        <time>2022-09-30T12:53:01.000Z</time>
      </trkpt>
      <trkpt lat="45.86694" lon="4.61909">
        <ele>313.21954</ele>
        <time>2022-09-30T12:53:02.000Z</time>
      </trkpt>
      <trkpt lat="45.86693" lon="4.61902">
        <ele>313.32477</ele>
        <time>2022-09-30T12:53:03.000Z</time>
      </trkpt>
      <trkpt lat="45.86692" lon="4.61896">
        <ele>313.48062</ele>
        <time>2022-09-30T12:53:04.000Z</time>
      </trkpt>
      <trkpt lat="45.86691" lon="4.6189">
        <ele>313.59238</ele>
        <time>2022-09-30T12:53:05.000Z</time>
      </trkpt>
      <trkpt lat="45.86689" lon="4.61883">
        <ele>313.66962</ele>
        <time>2022-09-30T12:53:06.000Z</time>
      </trkpt>
      <trkpt lat="45.86688" lon="4.61877">
        <ele>313.78732</ele>
        <time>2022-09-30T12:53:07.000Z</time>
      </trkpt>
      <trkpt lat="45.86686" lon="4.61872">
        <ele>313.99881</ele>
        <time>2022-09-30T12:53:08.000Z</time>
      </trkpt>
      <trkpt lat="45.86685" lon="4.61863">
        <ele>314.186</ele>
        <time>2022-09-30T12:53:09.000Z</time>
      </trkpt>
      <trkpt lat="45.86685" lon="4.61858">
        <ele>314.34479</ele>
        <time>2022-09-30T12:53:10.000Z</time>
      </trkpt>
      <trkpt lat="45.86684" lon="4.61851">
        <ele>314.48849</ele>
        <time>2022-09-30T12:53:11.000Z</time>
      </trkpt>
      <trkpt lat="45.86681" lon="4.61846">
        <ele>314.79321</ele>
        <time>2022-09-30T12:53:12.000Z</time>
      </trkpt>
      <trkpt lat="45.8668" lon="4.61839">
        <ele>315.04767</ele>
        <time>2022-09-30T12:53:13.000Z</time>
      </trkpt>
      <trkpt lat="45.86677" lon="4.61833">
        <ele>315.26508</ele>
        <time>2022-09-30T12:53:14.000Z</time>
      </trkpt>
      <trkpt lat="45.86675" lon="4.61827">
        <ele>315.35812</ele>
        <time>2022-09-30T12:53:15.000Z</time>
      </trkpt>
      <trkpt lat="45.86672" lon="4.61821">
        <ele>315.45148</ele>
        <time>2022-09-30T12:53:16.000Z</time>
      </trkpt>
      <trkpt lat="45.86671" lon="4.61813">
        <ele>315.58563</ele>
        <time>2022-09-30T12:53:17.000Z</time>
      </trkpt>
      <trkpt lat="45.86669" lon="4.61806">
        <ele>315.66241</ele>
        <time>2022-09-30T12:53:18.000Z</time>
      </trkpt>
      <trkpt lat="45.86668" lon="4.61799">
        <ele>315.6499</ele>
        <time>2022-09-30T12:53:19.000Z</time>
      </trkpt>
      <trkpt lat="45.86667" lon="4.61791">
        <ele>315.54419</ele>
        <time>2022-09-30T12:53:20.000Z</time>
      </trkpt>
      <trkpt lat="45.86666" lon="4.61786">
        <ele>315.53262</ele>
        <time>2022-09-30T12:53:21.000Z</time>
      </trkpt>
      <trkpt lat="45.86666" lon="4.61777">
        <ele>315.51608</ele>
        <time>2022-09-30T12:53:22.000Z</time>
      </trkpt>
      <trkpt lat="45.86665" lon="4.6177">
        <ele>315.48633</ele>
        <time>2022-09-30T12:53:23.000Z</time>
      </trkpt>
      <trkpt lat="45.86663" lon="4.61763">
        <ele>315.54205</ele>
        <time>2022-09-30T12:53:24.000Z</time>
      </trkpt>
      <trkpt lat="45.86662" lon="4.61757">
        <ele>315.69391</ele>
        <time>2022-09-30T12:53:25.000Z</time>
      </trkpt>
      <trkpt lat="45.8666" lon="4.61751">
        <ele>315.85962</ele>
        <time>2022-09-30T12:53:26.000Z</time>
      </trkpt>
      <trkpt lat="45.8666" lon="4.61744">
        <ele>316.09122</ele>
        <time>2022-09-30T12:53:27.000Z</time>
      </trkpt>
      <trkpt lat="45.86659" lon="4.61738">
        <ele>316.28314</ele>
        <time>2022-09-30T12:53:28.000Z</time>
      </trkpt>
      <trkpt lat="45.86658" lon="4.61731">
        <ele>316.44678</ele>
        <time>2022-09-30T12:53:29.000Z</time>
      </trkpt>
      <trkpt lat="45.86657" lon="4.61724">
        <ele>316.6008</ele>
        <time>2022-09-30T12:53:30.000Z</time>
      </trkpt>
      <trkpt lat="45.86657" lon="4.61718">
        <ele>316.77884</ele>
        <time>2022-09-30T12:53:31.000Z</time>
      </trkpt>
      <trkpt lat="45.86657" lon="4.6171">
        <ele>316.72491</ele>
        <time>2022-09-30T12:53:32.000Z</time>
      </trkpt>
      <trkpt lat="45.86656" lon="4.61706">
        <ele>316.71576</ele>
        <time>2022-09-30T12:53:33.000Z</time>
      </trkpt>
      <trkpt lat="45.86655" lon="4.617">
        <ele>316.76917</ele>
        <time>2022-09-30T12:53:34.000Z</time>
      </trkpt>
      <trkpt lat="45.86655" lon="4.61694">
        <ele>316.93698</ele>
        <time>2022-09-30T12:53:35.000Z</time>
      </trkpt>
      <trkpt lat="45.86654" lon="4.61688">
        <ele>317.09784</ele>
        <time>2022-09-30T12:53:36.000Z</time>
      </trkpt>
      <trkpt lat="45.86653" lon="4.61679">
        <ele>317.21881</ele>
        <time>2022-09-30T12:53:37.000Z</time>
      </trkpt>
      <trkpt lat="45.86652" lon="4.61675">
        <ele>317.37555</ele>
        <time>2022-09-30T12:53:38.000Z</time>
      </trkpt>
      <trkpt lat="45.86651" lon="4.61668">
        <ele>317.69589</ele>
        <time>2022-09-30T12:53:39.000Z</time>
      </trkpt>
      <trkpt lat="45.8665" lon="4.6166">
        <ele>318.10431</ele>
        <time>2022-09-30T12:53:40.000Z</time>
      </trkpt>
      <trkpt lat="45.86649" lon="4.61655">
        <ele>318.40289</ele>
        <time>2022-09-30T12:53:41.000Z</time>
      </trkpt>
      <trkpt lat="45.86648" lon="4.61648">
        <ele>318.6485</ele>
        <time>2022-09-30T12:53:42.000Z</time>
      </trkpt>
      <trkpt lat="45.86648" lon="4.61642">
        <ele>318.87985</ele>
        <time>2022-09-30T12:53:43.000Z</time>
      </trkpt>
      <trkpt lat="45.86647" lon="4.61636">
        <ele>319.01639</ele>
        <time>2022-09-30T12:53:44.000Z</time>
      </trkpt>
      <trkpt lat="45.86647" lon="4.61629">
        <ele>319.10754</ele>
        <time>2022-09-30T12:53:45.000Z</time>
      </trkpt>
      <trkpt lat="45.86648" lon="4.61622">
        <ele>319.2197</ele>
        <time>2022-09-30T12:53:46.000Z</time>
      </trkpt>
      <trkpt lat="45.8665" lon="4.61616">
        <ele>319.27789</ele>
        <time>2022-09-30T12:53:47.000Z</time>
      </trkpt>
      <trkpt lat="45.8665" lon="4.61609">
        <ele>319.37802</ele>
        <time>2022-09-30T12:53:48.000Z</time>
      </trkpt>
      <trkpt lat="45.86649" lon="4.61602">
        <ele>319.56958</ele>
        <time>2022-09-30T12:53:49.000Z</time>
      </trkpt>
      <trkpt lat="45.86649" lon="4.61596">
        <ele>319.75629</ele>
        <time>2022-09-30T12:53:50.000Z</time>
      </trkpt>
      <trkpt lat="45.86647" lon="4.61591">
        <ele>319.9931</ele>
        <time>2022-09-30T12:53:51.000Z</time>
      </trkpt>
      <trkpt lat="45.86646" lon="4.61587">
        <ele>320.36761</ele>
        <time>2022-09-30T12:53:52.000Z</time>
      </trkpt>
      <trkpt lat="45.86646" lon="4.6158">
        <ele>320.77945</ele>
        <time>2022-09-30T12:53:53.000Z</time>
      </trkpt>
      <trkpt lat="45.86648" lon="4.61573">
        <ele>321.21735</ele>
        <time>2022-09-30T12:53:54.000Z</time>
      </trkpt>
      <trkpt lat="45.86649" lon="4.61566">
        <ele>321.58514</ele>
        <time>2022-09-30T12:53:55.000Z</time>
      </trkpt>
      <trkpt lat="45.8665" lon="4.6156">
        <ele>322.00009</ele>
        <time>2022-09-30T12:53:56.000Z</time>
      </trkpt>
      <trkpt lat="45.86652" lon="4.61553">
        <ele>322.4664</ele>
        <time>2022-09-30T12:53:57.000Z</time>
      </trkpt>
      <trkpt lat="45.86654" lon="4.61547">
        <ele>322.94009</ele>
        <time>2022-09-30T12:53:58.000Z</time>
      </trkpt>
      <trkpt lat="45.86655" lon="4.61541">
        <ele>323.37415</ele>
        <time>2022-09-30T12:53:59.000Z</time>
      </trkpt>
      <trkpt lat="45.86652" lon="4.61536">
        <ele>323.80066</ele>
        <time>2022-09-30T12:54:00.000Z</time>
      </trkpt>
      <trkpt lat="45.86653" lon="4.61529">
        <ele>324.24579</ele>
        <time>2022-09-30T12:54:01.000Z</time>
      </trkpt>
      <trkpt lat="45.86652" lon="4.61522">
        <ele>324.66968</ele>
        <time>2022-09-30T12:54:02.000Z</time>
      </trkpt>
      <trkpt lat="45.86653" lon="4.61514">
        <ele>325.07059</ele>
        <time>2022-09-30T12:54:03.000Z</time>
      </trkpt>
      <trkpt lat="45.86654" lon="4.61508">
        <ele>325.43021</ele>
        <time>2022-09-30T12:54:04.000Z</time>
      </trkpt>
      <trkpt lat="45.86654" lon="4.61502">
        <ele>325.81387</ele>
        <time>2022-09-30T12:54:05.000Z</time>
      </trkpt>
      <trkpt lat="45.86655" lon="4.61496">
        <ele>326.23053</ele>
        <time>2022-09-30T12:54:06.000Z</time>
      </trkpt>
      <trkpt lat="45.86655" lon="4.6149">
        <ele>326.63977</ele>
        <time>2022-09-30T12:54:07.000Z</time>
      </trkpt>
      <trkpt lat="45.86656" lon="4.61485">
        <ele>327.00253</ele>
        <time>2022-09-30T12:54:08.000Z</time>
      </trkpt>
      <trkpt lat="45.86657" lon="4.61479">
        <ele>327.36844</ele>
        <time>2022-09-30T12:54:09.000Z</time>
      </trkpt>
      <trkpt lat="45.86657" lon="4.61473">
        <ele>327.75134</ele>
        <time>2022-09-30T12:54:10.000Z</time>
      </trkpt>
      <trkpt lat="45.86658" lon="4.61467">
        <ele>328.12823</ele>
        <time>2022-09-30T12:54:11.000Z</time>
      </trkpt>
      <trkpt lat="45.86659" lon="4.6146">
        <ele>328.45358</ele>
        <time>2022-09-30T12:54:12.000Z</time>
      </trkpt>
      <trkpt lat="45.86658" lon="4.61452">
        <ele>328.69467</ele>
        <time>2022-09-30T12:54:13.000Z</time>
      </trkpt>
      <trkpt lat="45.86659" lon="4.61445">
        <ele>328.93777</ele>
        <time>2022-09-30T12:54:14.000Z</time>
      </trkpt>
      <trkpt lat="45.8666" lon="4.61439">
        <ele>329.19608</ele>
        <time>2022-09-30T12:54:15.000Z</time>
      </trkpt>
      <trkpt lat="45.86659" lon="4.61432">
        <ele>329.41071</ele>
        <time>2022-09-30T12:54:16.000Z</time>
      </trkpt>
      <trkpt lat="45.86659" lon="4.61425">
        <ele>329.6066</ele>
        <time>2022-09-30T12:54:17.000Z</time>
      </trkpt>
      <trkpt lat="45.86659" lon="4.61419">
        <ele>329.78534</ele>
        <time>2022-09-30T12:54:18.000Z</time>
      </trkpt>
      <trkpt lat="45.8666" lon="4.61413">
        <ele>329.91629</ele>
        <time>2022-09-30T12:54:19.000Z</time>
      </trkpt>
      <trkpt lat="45.86659" lon="4.61407">
        <ele>330.10995</ele>
        <time>2022-09-30T12:54:20.000Z</time>
      </trkpt>
      <trkpt lat="45.86659" lon="4.61401">
        <ele>330.35443</ele>
        <time>2022-09-30T12:54:21.000Z</time>
      </trkpt>
      <trkpt lat="45.8666" lon="4.61395">
        <ele>330.63907</ele>
        <time>2022-09-30T12:54:22.000Z</time>
      </trkpt>
      <trkpt lat="45.8666" lon="4.61389">
        <ele>330.96613</ele>
        <time>2022-09-30T12:54:23.000Z</time>
      </trkpt>
      <trkpt lat="45.86662" lon="4.61383">
        <ele>331.29877</ele>
        <time>2022-09-30T12:54:24.000Z</time>
      </trkpt>
      <trkpt lat="45.86665" lon="4.61377">
        <ele>331.65073</ele>
        <time>2022-09-30T12:54:25.000Z</time>
      </trkpt>
      <trkpt lat="45.86666" lon="4.6137">
        <ele>331.9339</ele>
        <time>2022-09-30T12:54:26.000Z</time>
      </trkpt>
      <trkpt lat="45.86666" lon="4.61363">
        <ele>332.26654</ele>
        <time>2022-09-30T12:54:27.000Z</time>
      </trkpt>
      <trkpt lat="45.86666" lon="4.61357">
        <ele>332.62122</ele>
        <time>2022-09-30T12:54:28.000Z</time>
      </trkpt>
      <trkpt lat="45.86666" lon="4.61351">
        <ele>332.91061</ele>
        <time>2022-09-30T12:54:29.000Z</time>
      </trkpt>
      <trkpt lat="45.86666" lon="4.61345">
        <ele>333.23987</ele>
        <time>2022-09-30T12:54:30.000Z</time>
      </trkpt>
      <trkpt lat="45.86666" lon="4.61338">
        <ele>333.51703</ele>
        <time>2022-09-30T12:54:31.000Z</time>
      </trkpt>
      <trkpt lat="45.86666" lon="4.61331">
        <ele>333.78839</ele>
        <time>2022-09-30T12:54:32.000Z</time>
      </trkpt>
      <trkpt lat="45.86667" lon="4.61325">
        <ele>334.10461</ele>
        <time>2022-09-30T12:54:33.000Z</time>
      </trkpt>
      <trkpt lat="45.86668" lon="4.61319">
        <ele>334.42801</ele>
        <time>2022-09-30T12:54:34.000Z</time>
      </trkpt>
      <trkpt lat="45.8667" lon="4.61312">
        <ele>334.78271</ele>
        <time>2022-09-30T12:54:35.000Z</time>
      </trkpt>
      <trkpt lat="45.86671" lon="4.61307">
        <ele>335.15802</ele>
        <time>2022-09-30T12:54:36.000Z</time>
      </trkpt>
      <trkpt lat="45.86671" lon="4.61302">
        <ele>335.53656</ele>
        <time>2022-09-30T12:54:37.000Z</time>
      </trkpt>
      <trkpt lat="45.86672" lon="4.61297">
        <ele>335.97681</ele>
        <time>2022-09-30T12:54:38.000Z</time>
      </trkpt>
      <trkpt lat="45.86673" lon="4.6129">
        <ele>336.42065</ele>
        <time>2022-09-30T12:54:39.000Z</time>
      </trkpt>
      <trkpt lat="45.86674" lon="4.61285">
        <ele>336.76736</ele>
        <time>2022-09-30T12:54:40.000Z</time>
      </trkpt>
      <trkpt lat="45.86674" lon="4.61279">
        <ele>337.0213</ele>
        <time>2022-09-30T12:54:41.000Z</time>
      </trkpt>
      <trkpt lat="45.86674" lon="4.61273">
        <ele>337.2254</ele>
        <time>2022-09-30T12:54:42.000Z</time>
      </trkpt>
      <trkpt lat="45.86674" lon="4.61268">
        <ele>337.45139</ele>
        <time>2022-09-30T12:54:43.000Z</time>
      </trkpt>
      <trkpt lat="45.86674" lon="4.61262">
        <ele>337.74097</ele>
        <time>2022-09-30T12:54:44.000Z</time>
      </trkpt>
      <trkpt lat="45.86675" lon="4.61256">
        <ele>338.0072</ele>
        <time>2022-09-30T12:54:45.000Z</time>
      </trkpt>
      <trkpt lat="45.86675" lon="4.6125">
        <ele>338.28406</ele>
        <time>2022-09-30T12:54:46.000Z</time>
      </trkpt>
      <trkpt lat="45.86675" lon="4.61245">
        <ele>338.5047</ele>
        <time>2022-09-30T12:54:47.000Z</time>
      </trkpt>
      <trkpt lat="45.86675" lon="4.61239">
        <ele>338.74054</ele>
        <time>2022-09-30T12:54:48.000Z</time>
      </trkpt>
      <trkpt lat="45.86675" lon="4.61233">
        <ele>339.03339</ele>
        <time>2022-09-30T12:54:49.000Z</time>
      </trkpt>
      <trkpt lat="45.86676" lon="4.61227">
        <ele>339.31119</ele>
        <time>2022-09-30T12:54:50.000Z</time>
      </trkpt>
      <trkpt lat="45.86676" lon="4.61222">
        <ele>339.59988</ele>
        <time>2022-09-30T12:54:51.000Z</time>
      </trkpt>
      <trkpt lat="45.86677" lon="4.61216">
        <ele>339.88428</ele>
        <time>2022-09-30T12:54:52.000Z</time>
      </trkpt>
      <trkpt lat="45.86678" lon="4.6121">
        <ele>340.1868</ele>
        <time>2022-09-30T12:54:53.000Z</time>
      </trkpt>
      <trkpt lat="45.86679" lon="4.61204">
        <ele>340.47479</ele>
        <time>2022-09-30T12:54:54.000Z</time>
      </trkpt>
      <trkpt lat="45.8668" lon="4.61199">
        <ele>340.73138</ele>
        <time>2022-09-30T12:54:55.000Z</time>
      </trkpt>
      <trkpt lat="45.86681" lon="4.61193">
        <ele>340.99545</ele>
        <time>2022-09-30T12:54:56.000Z</time>
      </trkpt>
      <trkpt lat="45.86682" lon="4.61187">
        <ele>341.2735</ele>
        <time>2022-09-30T12:54:57.000Z</time>
      </trkpt>
      <trkpt lat="45.86683" lon="4.61181">
        <ele>341.50864</ele>
        <time>2022-09-30T12:54:58.000Z</time>
      </trkpt>
      <trkpt lat="45.86684" lon="4.61175">
        <ele>341.76837</ele>
        <time>2022-09-30T12:54:59.000Z</time>
      </trkpt>
      <trkpt lat="45.86687" lon="4.61169">
        <ele>342.06659</ele>
        <time>2022-09-30T12:55:00.000Z</time>
      </trkpt>
      <trkpt lat="45.86689" lon="4.61164">
        <ele>342.42422</ele>
        <time>2022-09-30T12:55:01.000Z</time>
      </trkpt>
      <trkpt lat="45.86692" lon="4.61158">
        <ele>342.85226</ele>
        <time>2022-09-30T12:55:02.000Z</time>
      </trkpt>
      <trkpt lat="45.86695" lon="4.61153">
        <ele>343.22733</ele>
        <time>2022-09-30T12:55:03.000Z</time>
      </trkpt>
      <trkpt lat="45.86697" lon="4.61148">
        <ele>343.59448</ele>
        <time>2022-09-30T12:55:04.000Z</time>
      </trkpt>
      <trkpt lat="45.86699" lon="4.61143">
        <ele>343.94797</ele>
        <time>2022-09-30T12:55:05.000Z</time>
      </trkpt>
      <trkpt lat="45.86701" lon="4.61137">
        <ele>344.32706</ele>
        <time>2022-09-30T12:55:06.000Z</time>
      </trkpt>
      <trkpt lat="45.86702" lon="4.61132">
        <ele>344.68292</ele>
        <time>2022-09-30T12:55:07.000Z</time>
      </trkpt>
      <trkpt lat="45.86703" lon="4.61126">
        <ele>345.03421</ele>
        <time>2022-09-30T12:55:08.000Z</time>
      </trkpt>
      <trkpt lat="45.86705" lon="4.6112">
        <ele>345.36694</ele>
        <time>2022-09-30T12:55:09.000Z</time>
      </trkpt>
      <trkpt lat="45.86706" lon="4.61114">
        <ele>345.73459</ele>
        <time>2022-09-30T12:55:10.000Z</time>
      </trkpt>
      <trkpt lat="45.86707" lon="4.61107">
        <ele>346.09982</ele>
        <time>2022-09-30T12:55:11.000Z</time>
      </trkpt>
      <trkpt lat="45.86706" lon="4.61101">
        <ele>346.48285</ele>
        <time>2022-09-30T12:55:12.000Z</time>
      </trkpt>
      <trkpt lat="45.86707" lon="4.61093">
        <ele>346.87982</ele>
        <time>2022-09-30T12:55:13.000Z</time>
      </trkpt>
      <trkpt lat="45.86707" lon="4.61086">
        <ele>347.25809</ele>
        <time>2022-09-30T12:55:14.000Z</time>
      </trkpt>
      <trkpt lat="45.86706" lon="4.6108">
        <ele>347.62741</ele>
        <time>2022-09-30T12:55:15.000Z</time>
      </trkpt>
      <trkpt lat="45.86706" lon="4.61074">
        <ele>347.98068</ele>
        <time>2022-09-30T12:55:16.000Z</time>
      </trkpt>
      <trkpt lat="45.86706" lon="4.61068">
        <ele>348.32794</ele>
        <time>2022-09-30T12:55:17.000Z</time>
      </trkpt>
      <trkpt lat="45.86707" lon="4.61061">
        <ele>348.63715</ele>
        <time>2022-09-30T12:55:18.000Z</time>
      </trkpt>
      <trkpt lat="45.86707" lon="4.61054">
        <ele>348.9805</ele>
        <time>2022-09-30T12:55:19.000Z</time>
      </trkpt>
      <trkpt lat="45.86708" lon="4.61047">
        <ele>349.31693</ele>
        <time>2022-09-30T12:55:20.000Z</time>
      </trkpt>
      <trkpt lat="45.86708" lon="4.61041">
        <ele>349.63641</ele>
        <time>2022-09-30T12:55:21.000Z</time>
      </trkpt>
      <trkpt lat="45.86709" lon="4.61034">
        <ele>349.92435</ele>
        <time>2022-09-30T12:55:22.000Z</time>
      </trkpt>
      <trkpt lat="45.86709" lon="4.61027">
        <ele>350.23157</ele>
        <time>2022-09-30T12:55:23.000Z</time>
      </trkpt>
      <trkpt lat="45.86711" lon="4.61021">
        <ele>350.5397</ele>
        <time>2022-09-30T12:55:24.000Z</time>
      </trkpt>
      <trkpt lat="45.86713" lon="4.61014">
        <ele>350.87891</ele>
        <time>2022-09-30T12:55:25.000Z</time>
      </trkpt>
      <trkpt lat="45.86713" lon="4.61007">
        <ele>351.22815</ele>
        <time>2022-09-30T12:55:26.000Z</time>
      </trkpt>
      <trkpt lat="45.86712" lon="4.61">
        <ele>351.62021</ele>
        <time>2022-09-30T12:55:27.000Z</time>
      </trkpt>
      <trkpt lat="45.86713" lon="4.60994">
        <ele>351.97458</ele>
        <time>2022-09-30T12:55:28.000Z</time>
      </trkpt>
      <trkpt lat="45.86715" lon="4.60986">
        <ele>352.34909</ele>
        <time>2022-09-30T12:55:29.000Z</time>
      </trkpt>
      <trkpt lat="45.86717" lon="4.60978">
        <ele>352.64941</ele>
        <time>2022-09-30T12:55:30.000Z</time>
      </trkpt>
      <trkpt lat="45.86719" lon="4.60972">
        <ele>352.94281</ele>
        <time>2022-09-30T12:55:31.000Z</time>
      </trkpt>
      <trkpt lat="45.86722" lon="4.60965">
        <ele>353.24091</ele>
        <time>2022-09-30T12:55:32.000Z</time>
      </trkpt>
      <trkpt lat="45.86724" lon="4.60957">
        <ele>353.53665</ele>
        <time>2022-09-30T12:55:33.000Z</time>
      </trkpt>
      <trkpt lat="45.86723" lon="4.60949">
        <ele>353.83069</ele>
        <time>2022-09-30T12:55:34.000Z</time>
      </trkpt>
      <trkpt lat="45.86724" lon="4.60944">
        <ele>354.16376</ele>
        <time>2022-09-30T12:55:35.000Z</time>
      </trkpt>
      <trkpt lat="45.86724" lon="4.60938">
        <ele>354.51636</ele>
        <time>2022-09-30T12:55:36.000Z</time>
      </trkpt>
      <trkpt lat="45.86725" lon="4.60932">
        <ele>354.85251</ele>
        <time>2022-09-30T12:55:37.000Z</time>
      </trkpt>
      <trkpt lat="45.86726" lon="4.60927">
        <ele>355.2063</ele>
        <time>2022-09-30T12:55:38.000Z</time>
      </trkpt>
      <trkpt lat="45.86729" lon="4.60922">
        <ele>355.49921</ele>
        <time>2022-09-30T12:55:39.000Z</time>
      </trkpt>
      <trkpt lat="45.86729" lon="4.60917">
        <ele>355.73688</ele>
        <time>2022-09-30T12:55:40.000Z</time>
      </trkpt>
      <trkpt lat="45.8673" lon="4.60912">
        <ele>355.91489</ele>
        <time>2022-09-30T12:55:41.000Z</time>
      </trkpt>
      <trkpt lat="45.8673" lon="4.60905">
        <ele>356.06989</ele>
        <time>2022-09-30T12:55:42.000Z</time>
      </trkpt>
      <trkpt lat="45.86732" lon="4.60896">
        <ele>356.17355</ele>
        <time>2022-09-30T12:55:43.000Z</time>
      </trkpt>
      <trkpt lat="45.86733" lon="4.60889">
        <ele>356.24792</ele>
        <time>2022-09-30T12:55:44.000Z</time>
      </trkpt>
      <trkpt lat="45.86734" lon="4.60882">
        <ele>356.35632</ele>
        <time>2022-09-30T12:55:45.000Z</time>
      </trkpt>
      <trkpt lat="45.86735" lon="4.60874">
        <ele>356.44257</ele>
        <time>2022-09-30T12:55:46.000Z</time>
      </trkpt>
      <trkpt lat="45.86736" lon="4.60867">
        <ele>356.51572</ele>
        <time>2022-09-30T12:55:47.000Z</time>
      </trkpt>
      <trkpt lat="45.86735" lon="4.60862">
        <ele>356.58475</ele>
        <time>2022-09-30T12:55:48.000Z</time>
      </trkpt>
      <trkpt lat="45.86736" lon="4.60854">
        <ele>356.64017</ele>
        <time>2022-09-30T12:55:49.000Z</time>
      </trkpt>
      <trkpt lat="45.86736" lon="4.60847">
        <ele>356.74884</ele>
        <time>2022-09-30T12:55:50.000Z</time>
      </trkpt>
      <trkpt lat="45.86736" lon="4.60839">
        <ele>356.87668</ele>
        <time>2022-09-30T12:55:51.000Z</time>
      </trkpt>
      <trkpt lat="45.86736" lon="4.60832">
        <ele>356.90985</ele>
        <time>2022-09-30T12:55:52.000Z</time>
      </trkpt>
      <trkpt lat="45.86737" lon="4.60825">
        <ele>356.91891</ele>
        <time>2022-09-30T12:55:53.000Z</time>
      </trkpt>
      <trkpt lat="45.86737" lon="4.60818">
        <ele>356.92981</ele>
        <time>2022-09-30T12:55:54.000Z</time>
      </trkpt>
      <trkpt lat="45.86739" lon="4.60811">
        <ele>356.94815</ele>
        <time>2022-09-30T12:55:55.000Z</time>
      </trkpt>
      <trkpt lat="45.86739" lon="4.60808">
        <ele>356.98935</ele>
        <time>2022-09-30T12:55:56.000Z</time>
      </trkpt>
      <trkpt lat="45.86739" lon="4.60804">
        <ele>357.09644</ele>
        <time>2022-09-30T12:55:57.000Z</time>
      </trkpt>
      <trkpt lat="45.86739" lon="4.60798">
        <ele>357.25125</ele>
        <time>2022-09-30T12:55:58.000Z</time>
      </trkpt>
      <trkpt lat="45.86743" lon="4.60792">
        <ele>357.31583</ele>
        <time>2022-09-30T12:55:59.000Z</time>
      </trkpt>
      <trkpt lat="45.86744" lon="4.60787">
        <ele>357.42999</ele>
        <time>2022-09-30T12:56:00.000Z</time>
      </trkpt>
      <trkpt lat="45.86745" lon="4.60782">
        <ele>357.58344</ele>
        <time>2022-09-30T12:56:01.000Z</time>
      </trkpt>
      <trkpt lat="45.86744" lon="4.60778">
        <ele>357.74506</ele>
        <time>2022-09-30T12:56:02.000Z</time>
      </trkpt>
      <trkpt lat="45.86746" lon="4.60771">
        <ele>357.96051</ele>
        <time>2022-09-30T12:56:03.000Z</time>
      </trkpt>
      <trkpt lat="45.86746" lon="4.60766">
        <ele>358.16306</ele>
        <time>2022-09-30T12:56:04.000Z</time>
      </trkpt>
      <trkpt lat="45.86747" lon="4.6076">
        <ele>358.25449</ele>
        <time>2022-09-30T12:56:05.000Z</time>
      </trkpt>
      <trkpt lat="45.86747" lon="4.60754">
        <ele>358.33008</ele>
        <time>2022-09-30T12:56:06.000Z</time>
      </trkpt>
      <trkpt lat="45.86747" lon="4.60749">
        <ele>358.38562</ele>
        <time>2022-09-30T12:56:07.000Z</time>
      </trkpt>
      <trkpt lat="45.86748" lon="4.60743">
        <ele>358.48077</ele>
        <time>2022-09-30T12:56:08.000Z</time>
      </trkpt>
      <trkpt lat="45.86748" lon="4.60737">
        <ele>358.50488</ele>
        <time>2022-09-30T12:56:09.000Z</time>
      </trkpt>
      <trkpt lat="45.86749" lon="4.60732">
        <ele>358.49167</ele>
        <time>2022-09-30T12:56:10.000Z</time>
      </trkpt>
      <trkpt lat="45.86749" lon="4.60726">
        <ele>358.40714</ele>
        <time>2022-09-30T12:56:11.000Z</time>
      </trkpt>
      <trkpt lat="45.86749" lon="4.6072">
        <ele>358.29962</ele>
        <time>2022-09-30T12:56:12.000Z</time>
      </trkpt>
      <trkpt lat="45.86749" lon="4.60714">
        <ele>358.12305</ele>
        <time>2022-09-30T12:56:13.000Z</time>
      </trkpt>
      <trkpt lat="45.8675" lon="4.60706">
        <ele>358.01547</ele>
        <time>2022-09-30T12:56:14.000Z</time>
      </trkpt>
      <trkpt lat="45.86749" lon="4.607">
        <ele>357.83493</ele>
        <time>2022-09-30T12:56:15.000Z</time>
      </trkpt>
      <trkpt lat="45.86749" lon="4.60694">
        <ele>357.65179</ele>
        <time>2022-09-30T12:56:16.000Z</time>
      </trkpt>
      <trkpt lat="45.86747" lon="4.60688">
        <ele>357.487</ele>
        <time>2022-09-30T12:56:17.000Z</time>
      </trkpt>
      <trkpt lat="45.86747" lon="4.60683">
        <ele>357.27472</ele>
        <time>2022-09-30T12:56:18.000Z</time>
      </trkpt>
      <trkpt lat="45.86748" lon="4.60676">
        <ele>357.16647</ele>
        <time>2022-09-30T12:56:19.000Z</time>
      </trkpt>
      <trkpt lat="45.86749" lon="4.60669">
        <ele>357.03253</ele>
        <time>2022-09-30T12:56:20.000Z</time>
      </trkpt>
      <trkpt lat="45.86749" lon="4.60662">
        <ele>356.90244</ele>
        <time>2022-09-30T12:56:21.000Z</time>
      </trkpt>
      <trkpt lat="45.86749" lon="4.60655">
        <ele>356.78363</ele>
        <time>2022-09-30T12:56:22.000Z</time>
      </trkpt>
      <trkpt lat="45.86749" lon="4.60648">
        <ele>356.68951</ele>
        <time>2022-09-30T12:56:23.000Z</time>
      </trkpt>
      <trkpt lat="45.8675" lon="4.60641">
        <ele>356.67056</ele>
        <time>2022-09-30T12:56:24.000Z</time>
      </trkpt>
      <trkpt lat="45.86749" lon="4.60635">
        <ele>356.73193</ele>
        <time>2022-09-30T12:56:25.000Z</time>
      </trkpt>
      <trkpt lat="45.8675" lon="4.60629">
        <ele>356.78683</ele>
        <time>2022-09-30T12:56:26.000Z</time>
      </trkpt>
      <trkpt lat="45.8675" lon="4.60623">
        <ele>356.81097</ele>
        <time>2022-09-30T12:56:27.000Z</time>
      </trkpt>
      <trkpt lat="45.86751" lon="4.60617">
        <ele>356.82947</ele>
        <time>2022-09-30T12:56:28.000Z</time>
      </trkpt>
      <trkpt lat="45.86752" lon="4.6061">
        <ele>356.95804</ele>
        <time>2022-09-30T12:56:29.000Z</time>
      </trkpt>
      <trkpt lat="45.86752" lon="4.60603">
        <ele>357.07138</ele>
        <time>2022-09-30T12:56:30.000Z</time>
      </trkpt>
      <trkpt lat="45.86752" lon="4.60597">
        <ele>357.23706</ele>
        <time>2022-09-30T12:56:31.000Z</time>
      </trkpt>
      <trkpt lat="45.86752" lon="4.6059">
        <ele>357.52509</ele>
        <time>2022-09-30T12:56:32.000Z</time>
      </trkpt>
      <trkpt lat="45.86752" lon="4.60584">
        <ele>357.91821</ele>
        <time>2022-09-30T12:56:33.000Z</time>
      </trkpt>
      <trkpt lat="45.86752" lon="4.60578">
        <ele>358.29077</ele>
        <time>2022-09-30T12:56:34.000Z</time>
      </trkpt>
      <trkpt lat="45.86752" lon="4.60572">
        <ele>358.71918</ele>
        <time>2022-09-30T12:56:35.000Z</time>
      </trkpt>
      <trkpt lat="45.86753" lon="4.60566">
        <ele>359.12286</ele>
        <time>2022-09-30T12:56:36.000Z</time>
      </trkpt>
      <trkpt lat="45.86754" lon="4.6056">
        <ele>359.39465</ele>
        <time>2022-09-30T12:56:37.000Z</time>
      </trkpt>
      <trkpt lat="45.86755" lon="4.60553">
        <ele>359.68109</ele>
        <time>2022-09-30T12:56:38.000Z</time>
      </trkpt>
      <trkpt lat="45.86755" lon="4.60547">
        <ele>359.95493</ele>
        <time>2022-09-30T12:56:39.000Z</time>
      </trkpt>
      <trkpt lat="45.86756" lon="4.60542">
        <ele>360.18881</ele>
        <time>2022-09-30T12:56:40.000Z</time>
      </trkpt>
      <trkpt lat="45.86756" lon="4.60536">
        <ele>360.45633</ele>
        <time>2022-09-30T12:56:41.000Z</time>
      </trkpt>
      <trkpt lat="45.86756" lon="4.60531">
        <ele>360.71936</ele>
        <time>2022-09-30T12:56:42.000Z</time>
      </trkpt>
      <trkpt lat="45.86756" lon="4.60527">
        <ele>360.99149</ele>
        <time>2022-09-30T12:56:43.000Z</time>
      </trkpt>
      <trkpt lat="45.86756" lon="4.60523">
        <ele>361.20306</ele>
        <time>2022-09-30T12:56:44.000Z</time>
      </trkpt>
      <trkpt lat="45.86757" lon="4.60519">
        <ele>361.3884</ele>
        <time>2022-09-30T12:56:45.000Z</time>
      </trkpt>
      <trkpt lat="45.86758" lon="4.60516">
        <ele>361.55478</ele>
        <time>2022-09-30T12:56:46.000Z</time>
      </trkpt>
      <trkpt lat="45.86758" lon="4.60513">
        <ele>361.8028</ele>
        <time>2022-09-30T12:56:48.000Z</time>
      </trkpt>
      <trkpt lat="45.86759" lon="4.60517">
        <ele>362.04953</ele>
        <time>2022-09-30T12:56:56.000Z</time>
      </trkpt>
      <trkpt lat="45.86757" lon="4.60516">
        <ele>362.34174</ele>
        <time>2022-09-30T12:57:01.000Z</time>
      </trkpt>
      <trkpt lat="45.86756" lon="4.60512">
        <ele>362.62347</ele>
        <time>2022-09-30T12:57:02.000Z</time>
      </trkpt>
      <trkpt lat="45.86756" lon="4.60508">
        <ele>362.86404</ele>
        <time>2022-09-30T12:57:03.000Z</time>
      </trkpt>
      <trkpt lat="45.86757" lon="4.60505">
        <ele>363.06107</ele>
        <time>2022-09-30T12:57:04.000Z</time>
      </trkpt>
      <trkpt lat="45.86759" lon="4.60502">
        <ele>363.22205</ele>
        <time>2022-09-30T12:57:05.000Z</time>
      </trkpt>
      <trkpt lat="45.86761" lon="4.60501">
        <ele>363.37054</ele>
        <time>2022-09-30T12:57:06.000Z</time>
      </trkpt>
      <trkpt lat="45.86763" lon="4.60499">
        <ele>363.49374</ele>
        <time>2022-09-30T12:57:08.000Z</time>
      </trkpt>
      <trkpt lat="45.86762" lon="4.60497">
        <ele>363.66132</ele>
        <time>2022-09-30T12:58:00.000Z</time>
      </trkpt>
      <trkpt lat="45.8676" lon="4.60495">
        <ele>363.90228</ele>
        <time>2022-09-30T12:58:03.000Z</time>
      </trkpt>
      <trkpt lat="45.86759" lon="4.60492">
        <ele>364.15268</ele>
        <time>2022-09-30T13:00:35.000Z</time>
      </trkpt>
      <trkpt lat="45.86759" lon="4.60488">
        <ele>364.41354</ele>
        <time>2022-09-30T13:00:36.000Z</time>
      </trkpt>
      <trkpt lat="45.86759" lon="4.60483">
        <ele>364.73956</ele>
        <time>2022-09-30T13:00:37.000Z</time>
      </trkpt>
      <trkpt lat="45.86759" lon="4.60478">
        <ele>365.0231</ele>
        <time>2022-09-30T13:00:38.000Z</time>
      </trkpt>
      <trkpt lat="45.8676" lon="4.60472">
        <ele>365.40332</ele>
        <time>2022-09-30T13:00:39.000Z</time>
      </trkpt>
      <trkpt lat="45.86761" lon="4.60467">
        <ele>365.70166</ele>
        <time>2022-09-30T13:00:40.000Z</time>
      </trkpt>
      <trkpt lat="45.86761" lon="4.60461">
        <ele>366.13416</ele>
        <time>2022-09-30T13:00:41.000Z</time>
      </trkpt>
      <trkpt lat="45.86762" lon="4.60456">
        <ele>366.62378</ele>
        <time>2022-09-30T13:00:42.000Z</time>
      </trkpt>
      <trkpt lat="45.86763" lon="4.60451">
        <ele>367.20331</ele>
        <time>2022-09-30T13:00:43.000Z</time>
      </trkpt>
      <trkpt lat="45.86763" lon="4.60446">
        <ele>367.87579</ele>
        <time>2022-09-30T13:00:44.000Z</time>
      </trkpt>
      <trkpt lat="45.86764" lon="4.6044">
        <ele>368.59982</ele>
        <time>2022-09-30T13:00:45.000Z</time>
      </trkpt>
      <trkpt lat="45.86766" lon="4.60434">
        <ele>369.27631</ele>
        <time>2022-09-30T13:00:46.000Z</time>
      </trkpt>
      <trkpt lat="45.86767" lon="4.60428">
        <ele>369.97455</ele>
        <time>2022-09-30T13:00:47.000Z</time>
      </trkpt>
      <trkpt lat="45.86768" lon="4.60421">
        <ele>370.71191</ele>
        <time>2022-09-30T13:00:48.000Z</time>
      </trkpt>
      <trkpt lat="45.86769" lon="4.60415">
        <ele>371.32593</ele>
        <time>2022-09-30T13:00:49.000Z</time>
      </trkpt>
      <trkpt lat="45.8677" lon="4.60409">
        <ele>371.95135</ele>
        <time>2022-09-30T13:00:50.000Z</time>
      </trkpt>
      <trkpt lat="45.86771" lon="4.60403">
        <ele>372.58502</ele>
        <time>2022-09-30T13:00:51.000Z</time>
      </trkpt>
      <trkpt lat="45.86772" lon="4.60397">
        <ele>373.18884</ele>
        <time>2022-09-30T13:00:52.000Z</time>
      </trkpt>
      <trkpt lat="45.86773" lon="4.60391">
        <ele>373.81131</ele>
        <time>2022-09-30T13:00:53.000Z</time>
      </trkpt>
      <trkpt lat="45.86774" lon="4.60386">
        <ele>374.40607</ele>
        <time>2022-09-30T13:00:54.000Z</time>
      </trkpt>
      <trkpt lat="45.86776" lon="4.6038">
        <ele>374.94226</ele>
        <time>2022-09-30T13:00:55.000Z</time>
      </trkpt>
      <trkpt lat="45.86777" lon="4.60374">
        <ele>375.47882</ele>
        <time>2022-09-30T13:00:56.000Z</time>
      </trkpt>
      <trkpt lat="45.86778" lon="4.60369">
        <ele>375.9809</ele>
        <time>2022-09-30T13:00:57.000Z</time>
      </trkpt>
      <trkpt lat="45.86779" lon="4.60363">
        <ele>376.45172</ele>
        <time>2022-09-30T13:00:58.000Z</time>
      </trkpt>
      <trkpt lat="45.86779" lon="4.60358">
        <ele>376.80182</ele>
        <time>2022-09-30T13:00:59.000Z</time>
      </trkpt>
      <trkpt lat="45.86779" lon="4.60353">
        <ele>377.20193</ele>
        <time>2022-09-30T13:01:00.000Z</time>
      </trkpt>
      <trkpt lat="45.86779" lon="4.6035">
        <ele>377.50467</ele>
        <time>2022-09-30T13:01:01.000Z</time>
      </trkpt>
      <trkpt lat="45.86779" lon="4.60347">
        <ele>377.73868</ele>
        <time>2022-09-30T13:01:02.000Z</time>
      </trkpt>
      <trkpt lat="45.86774" lon="4.60349">
        <ele>377.93069</ele>
        <time>2022-09-30T13:01:08.000Z</time>
      </trkpt>
      <trkpt lat="45.86775" lon="4.60348">
        <ele>377.93207</ele>
        <time>2022-09-30T13:01:17.000Z</time>
      </trkpt>
      <trkpt lat="45.86774" lon="4.60351">
        <ele>377.86172</ele>
        <time>2022-09-30T13:01:47.000Z</time>
      </trkpt>
      <trkpt lat="45.86772" lon="4.60351">
        <ele>377.80942</ele>
        <time>2022-09-30T13:01:48.000Z</time>
      </trkpt>
      <trkpt lat="45.8677" lon="4.60351">
        <ele>377.69537</ele>
        <time>2022-09-30T13:01:49.000Z</time>
      </trkpt>
      <trkpt lat="45.86768" lon="4.60351">
        <ele>377.51627</ele>
        <time>2022-09-30T13:01:50.000Z</time>
      </trkpt>
      <trkpt lat="45.86766" lon="4.60351">
        <ele>377.49323</ele>
        <time>2022-09-30T13:01:51.000Z</time>
      </trkpt>
      <trkpt lat="45.86764" lon="4.60352">
        <ele>377.31958</ele>
        <time>2022-09-30T13:01:52.000Z</time>
      </trkpt>
      <trkpt lat="45.86761" lon="4.60352">
        <ele>377.08801</ele>
        <time>2022-09-30T13:01:53.000Z</time>
      </trkpt>
      <trkpt lat="45.86758" lon="4.60353">
        <ele>376.7536</ele>
        <time>2022-09-30T13:01:54.000Z</time>
      </trkpt>
      <trkpt lat="45.86756" lon="4.60353">
        <ele>376.35342</ele>
        <time>2022-09-30T13:01:55.000Z</time>
      </trkpt>
      <trkpt lat="45.86753" lon="4.60355">
        <ele>375.96393</ele>
        <time>2022-09-30T13:01:56.000Z</time>
      </trkpt>
      <trkpt lat="45.86751" lon="4.60356">
        <ele>375.6105</ele>
        <time>2022-09-30T13:01:57.000Z</time>
      </trkpt>
      <trkpt lat="45.86749" lon="4.60357">
        <ele>375.24557</ele>
        <time>2022-09-30T13:01:58.000Z</time>
      </trkpt>
      <trkpt lat="45.86746" lon="4.60359">
        <ele>374.92792</ele>
        <time>2022-09-30T13:01:59.000Z</time>
      </trkpt>
      <trkpt lat="45.86743" lon="4.6036">
        <ele>374.6814</ele>
        <time>2022-09-30T13:02:00.000Z</time>
      </trkpt>
      <trkpt lat="45.8674" lon="4.60362">
        <ele>374.5452</ele>
        <time>2022-09-30T13:02:01.000Z</time>
      </trkpt>
      <trkpt lat="45.86737" lon="4.60363">
        <ele>374.39819</ele>
        <time>2022-09-30T13:02:02.000Z</time>
      </trkpt>
      <trkpt lat="45.86734" lon="4.60364">
        <ele>374.26172</ele>
        <time>2022-09-30T13:02:03.000Z</time>
      </trkpt>
      <trkpt lat="45.86731" lon="4.60365">
        <ele>374.1358</ele>
        <time>2022-09-30T13:02:04.000Z</time>
      </trkpt>
      <trkpt lat="45.86728" lon="4.60366">
        <ele>374.03802</ele>
        <time>2022-09-30T13:02:05.000Z</time>
      </trkpt>
      <trkpt lat="45.86725" lon="4.60367">
        <ele>374.12933</ele>
        <time>2022-09-30T13:02:06.000Z</time>
      </trkpt>
      <trkpt lat="45.86722" lon="4.60368">
        <ele>374.26019</ele>
        <time>2022-09-30T13:02:07.000Z</time>
      </trkpt>
      <trkpt lat="45.86719" lon="4.60368">
        <ele>374.37341</ele>
        <time>2022-09-30T13:02:08.000Z</time>
      </trkpt>
      <trkpt lat="45.86716" lon="4.60369">
        <ele>374.50854</ele>
        <time>2022-09-30T13:02:09.000Z</time>
      </trkpt>
      <trkpt lat="45.86713" lon="4.60369">
        <ele>374.71075</ele>
        <time>2022-09-30T13:02:10.000Z</time>
      </trkpt>
      <trkpt lat="45.86709" lon="4.6037">
        <ele>374.83325</ele>
        <time>2022-09-30T13:02:11.000Z</time>
      </trkpt>
      <trkpt lat="45.86706" lon="4.6037">
        <ele>375.11343</ele>
        <time>2022-09-30T13:02:12.000Z</time>
      </trkpt>
      <trkpt lat="45.86703" lon="4.60372">
        <ele>375.42569</ele>
        <time>2022-09-30T13:02:13.000Z</time>
      </trkpt>
      <trkpt lat="45.86699" lon="4.60373">
        <ele>375.80466</ele>
        <time>2022-09-30T13:02:14.000Z</time>
      </trkpt>
      <trkpt lat="45.86696" lon="4.60374">
        <ele>376.08344</ele>
        <time>2022-09-30T13:02:15.000Z</time>
      </trkpt>
      <trkpt lat="45.86692" lon="4.60375">
        <ele>376.2832</ele>
        <time>2022-09-30T13:02:16.000Z</time>
      </trkpt>
      <trkpt lat="45.86688" lon="4.60376">
        <ele>376.46478</ele>
        <time>2022-09-30T13:02:17.000Z</time>
      </trkpt>
      <trkpt lat="45.86684" lon="4.60377">
        <ele>376.60458</ele>
        <time>2022-09-30T13:02:18.000Z</time>
      </trkpt>
      <trkpt lat="45.86681" lon="4.60377">
        <ele>376.70139</ele>
        <time>2022-09-30T13:02:19.000Z</time>
      </trkpt>
      <trkpt lat="45.86678" lon="4.60378">
        <ele>376.76559</ele>
        <time>2022-09-30T13:02:20.000Z</time>
      </trkpt>
      <trkpt lat="45.86675" lon="4.60379">
        <ele>376.79846</ele>
        <time>2022-09-30T13:02:21.000Z</time>
      </trkpt>
      <trkpt lat="45.86673" lon="4.60379">
        <ele>376.88821</ele>
        <time>2022-09-30T13:02:22.000Z</time>
      </trkpt>
      <trkpt lat="45.8667" lon="4.60379">
        <ele>376.96588</ele>
        <time>2022-09-30T13:02:23.000Z</time>
      </trkpt>
      <trkpt lat="45.86668" lon="4.60379">
        <ele>376.97958</ele>
        <time>2022-09-30T13:02:29.000Z</time>
      </trkpt>
      <trkpt lat="45.86665" lon="4.6038">
        <ele>376.94495</ele>
        <time>2022-09-30T13:02:30.000Z</time>
      </trkpt>
      <trkpt lat="45.86662" lon="4.6038">
        <ele>376.82806</ele>
        <time>2022-09-30T13:02:31.000Z</time>
      </trkpt>
      <trkpt lat="45.86658" lon="4.60382">
        <ele>376.66754</ele>
        <time>2022-09-30T13:02:32.000Z</time>
      </trkpt>
      <trkpt lat="45.86654" lon="4.60383">
        <ele>376.47665</ele>
        <time>2022-09-30T13:02:33.000Z</time>
      </trkpt>
      <trkpt lat="45.8665" lon="4.60383">
        <ele>376.2706</ele>
        <time>2022-09-30T13:02:34.000Z</time>
      </trkpt>
      <trkpt lat="45.86646" lon="4.60384">
        <ele>376.03067</ele>
        <time>2022-09-30T13:02:35.000Z</time>
      </trkpt>
      <trkpt lat="45.86641" lon="4.60385">
        <ele>375.80536</ele>
        <time>2022-09-30T13:02:36.000Z</time>
      </trkpt>
      <trkpt lat="45.86637" lon="4.60385">
        <ele>375.44724</ele>
        <time>2022-09-30T13:02:37.000Z</time>
      </trkpt>
      <trkpt lat="45.86633" lon="4.60385">
        <ele>375.07166</ele>
        <time>2022-09-30T13:02:38.000Z</time>
      </trkpt>
      <trkpt lat="45.86629" lon="4.60385">
        <ele>374.7644</ele>
        <time>2022-09-30T13:02:39.000Z</time>
      </trkpt>
      <trkpt lat="45.86626" lon="4.60385">
        <ele>374.5802</ele>
        <time>2022-09-30T13:02:40.000Z</time>
      </trkpt>
      <trkpt lat="45.86622" lon="4.60385">
        <ele>374.46173</ele>
        <time>2022-09-30T13:02:41.000Z</time>
      </trkpt>
      <trkpt lat="45.86618" lon="4.60386">
        <ele>374.3035</ele>
        <time>2022-09-30T13:02:42.000Z</time>
      </trkpt>
      <trkpt lat="45.86614" lon="4.60386">
        <ele>374.18298</ele>
        <time>2022-09-30T13:02:43.000Z</time>
      </trkpt>
      <trkpt lat="45.86611" lon="4.60388">
        <ele>373.9931</ele>
        <time>2022-09-30T13:02:44.000Z</time>
      </trkpt>
      <trkpt lat="45.86608" lon="4.60388">
        <ele>373.80313</ele>
        <time>2022-09-30T13:02:45.000Z</time>
      </trkpt>
      <trkpt lat="45.86605" lon="4.60388">
        <ele>373.54059</ele>
        <time>2022-09-30T13:02:46.000Z</time>
      </trkpt>
      <trkpt lat="45.86602" lon="4.60386">
        <ele>373.25037</ele>
        <time>2022-09-30T13:02:47.000Z</time>
      </trkpt>
      <trkpt lat="45.866" lon="4.60384">
        <ele>372.94254</ele>
        <time>2022-09-30T13:02:48.000Z</time>
      </trkpt>
      <trkpt lat="45.86598" lon="4.60379">
        <ele>372.66718</ele>
        <time>2022-09-30T13:02:49.000Z</time>
      </trkpt>
      <trkpt lat="45.86598" lon="4.60375">
        <ele>372.36456</ele>
        <time>2022-09-30T13:02:50.000Z</time>
      </trkpt>
      <trkpt lat="45.86598" lon="4.6037">
        <ele>371.88098</ele>
        <time>2022-09-30T13:02:51.000Z</time>
      </trkpt>
      <trkpt lat="45.86598" lon="4.60366">
        <ele>371.4664</ele>
        <time>2022-09-30T13:02:52.000Z</time>
      </trkpt>
      <trkpt lat="45.86598" lon="4.60362">
        <ele>371.02588</ele>
        <time>2022-09-30T13:02:53.000Z</time>
      </trkpt>
      <trkpt lat="45.86598" lon="4.60357">
        <ele>370.62973</ele>
        <time>2022-09-30T13:02:54.000Z</time>
      </trkpt>
      <trkpt lat="45.86598" lon="4.60353">
        <ele>370.25043</ele>
        <time>2022-09-30T13:02:55.000Z</time>
      </trkpt>
      <trkpt lat="45.86597" lon="4.60349">
        <ele>369.90399</ele>
        <time>2022-09-30T13:02:56.000Z</time>
      </trkpt>
      <trkpt lat="45.86596" lon="4.60346">
        <ele>369.66229</ele>
        <time>2022-09-30T13:02:57.000Z</time>
      </trkpt>
      <trkpt lat="45.86594" lon="4.60344">
        <ele>369.45294</ele>
        <time>2022-09-30T13:02:58.000Z</time>
      </trkpt>
      <trkpt lat="45.86592" lon="4.60344">
        <ele>369.24835</ele>
        <time>2022-09-30T13:02:59.000Z</time>
      </trkpt>
      <trkpt lat="45.8659" lon="4.60344">
        <ele>369.13666</ele>
        <time>2022-09-30T13:03:00.000Z</time>
      </trkpt>
      <trkpt lat="45.86588" lon="4.60344">
        <ele>368.98813</ele>
        <time>2022-09-30T13:03:01.000Z</time>
      </trkpt>
      <trkpt lat="45.86585" lon="4.60344">
        <ele>368.84518</ele>
        <time>2022-09-30T13:03:02.000Z</time>
      </trkpt>
      <trkpt lat="45.86583" lon="4.60344">
        <ele>368.6814</ele>
        <time>2022-09-30T13:03:03.000Z</time>
      </trkpt>
      <trkpt lat="45.8658" lon="4.60344">
        <ele>368.48236</ele>
        <time>2022-09-30T13:03:04.000Z</time>
      </trkpt>
      <trkpt lat="45.86577" lon="4.60345">
        <ele>368.26108</ele>
        <time>2022-09-30T13:03:05.000Z</time>
      </trkpt>
      <trkpt lat="45.86574" lon="4.60345">
        <ele>368.0332</ele>
        <time>2022-09-30T13:03:06.000Z</time>
      </trkpt>
      <trkpt lat="45.86571" lon="4.60346">
        <ele>367.80988</ele>
        <time>2022-09-30T13:03:07.000Z</time>
      </trkpt>
      <trkpt lat="45.86568" lon="4.60346">
        <ele>367.62796</ele>
        <time>2022-09-30T13:03:08.000Z</time>
      </trkpt>
      <trkpt lat="45.86565" lon="4.60346">
        <ele>367.55417</ele>
        <time>2022-09-30T13:03:09.000Z</time>
      </trkpt>
      <trkpt lat="45.86562" lon="4.60347">
        <ele>367.50342</ele>
        <time>2022-09-30T13:03:10.000Z</time>
      </trkpt>
      <trkpt lat="45.86559" lon="4.60347">
        <ele>367.61517</ele>
        <time>2022-09-30T13:03:11.000Z</time>
      </trkpt>
      <trkpt lat="45.86555" lon="4.60347">
        <ele>367.70416</ele>
        <time>2022-09-30T13:03:12.000Z</time>
      </trkpt>
      <trkpt lat="45.86552" lon="4.60347">
        <ele>367.73285</ele>
        <time>2022-09-30T13:03:13.000Z</time>
      </trkpt>
      <trkpt lat="45.8655" lon="4.60347">
        <ele>367.76508</ele>
        <time>2022-09-30T13:03:14.000Z</time>
      </trkpt>
      <trkpt lat="45.86548" lon="4.60347">
        <ele>367.75162</ele>
        <time>2022-09-30T13:03:16.000Z</time>
      </trkpt>
      <trkpt lat="45.86547" lon="4.60344">
        <ele>367.73187</ele>
        <time>2022-09-30T13:03:27.000Z</time>
      </trkpt>
      <trkpt lat="45.86545" lon="4.60347">
        <ele>367.7269</ele>
        <time>2022-09-30T13:03:29.000Z</time>
      </trkpt>
      <trkpt lat="45.86545" lon="4.60349">
        <ele>367.73941</ele>
        <time>2022-09-30T13:03:30.000Z</time>
      </trkpt>
      <trkpt lat="45.86545" lon="4.60354">
        <ele>367.73828</ele>
        <time>2022-09-30T13:03:32.000Z</time>
      </trkpt>
      <trkpt lat="45.86546" lon="4.60357">
        <ele>367.55579</ele>
        <time>2022-09-30T13:03:33.000Z</time>
      </trkpt>
      <trkpt lat="45.86547" lon="4.60361">
        <ele>367.42084</ele>
        <time>2022-09-30T13:03:34.000Z</time>
      </trkpt>
      <trkpt lat="45.86548" lon="4.60365">
        <ele>367.34534</ele>
        <time>2022-09-30T13:03:35.000Z</time>
      </trkpt>
      <trkpt lat="45.86548" lon="4.6037">
        <ele>367.3204</ele>
        <time>2022-09-30T13:03:36.000Z</time>
      </trkpt>
      <trkpt lat="45.86549" lon="4.60375">
        <ele>367.35306</ele>
        <time>2022-09-30T13:03:37.000Z</time>
      </trkpt>
      <trkpt lat="45.86549" lon="4.6038">
        <ele>367.40152</ele>
        <time>2022-09-30T13:03:38.000Z</time>
      </trkpt>
      <trkpt lat="45.86551" lon="4.60385">
        <ele>367.41373</ele>
        <time>2022-09-30T13:03:39.000Z</time>
      </trkpt>
      <trkpt lat="45.86552" lon="4.6039">
        <ele>367.39313</ele>
        <time>2022-09-30T13:03:40.000Z</time>
      </trkpt>
      <trkpt lat="45.86553" lon="4.60395">
        <ele>367.33282</ele>
        <time>2022-09-30T13:03:41.000Z</time>
      </trkpt>
      <trkpt lat="45.86554" lon="4.604">
        <ele>367.16989</ele>
        <time>2022-09-30T13:03:42.000Z</time>
      </trkpt>
      <trkpt lat="45.86555" lon="4.60404">
        <ele>366.97333</ele>
        <time>2022-09-30T13:03:43.000Z</time>
      </trkpt>
      <trkpt lat="45.86556" lon="4.60408">
        <ele>366.76727</ele>
        <time>2022-09-30T13:03:44.000Z</time>
      </trkpt>
      <trkpt lat="45.86557" lon="4.60413">
        <ele>366.4881</ele>
        <time>2022-09-30T13:03:45.000Z</time>
      </trkpt>
      <trkpt lat="45.86558" lon="4.60417">
        <ele>366.31604</ele>
        <time>2022-09-30T13:03:46.000Z</time>
      </trkpt>
      <trkpt lat="45.86558" lon="4.60422">
        <ele>366.12</ele>
        <time>2022-09-30T13:03:47.000Z</time>
      </trkpt>
      <trkpt lat="45.86559" lon="4.60428">
        <ele>365.97931</ele>
        <time>2022-09-30T13:03:48.000Z</time>
      </trkpt>
      <trkpt lat="45.86559" lon="4.60434">
        <ele>365.84311</ele>
        <time>2022-09-30T13:03:49.000Z</time>
      </trkpt>
      <trkpt lat="45.86558" lon="4.60441">
        <ele>365.64828</ele>
        <time>2022-09-30T13:03:50.000Z</time>
      </trkpt>
      <trkpt lat="45.86559" lon="4.60448">
        <ele>365.40405</ele>
        <time>2022-09-30T13:03:51.000Z</time>
      </trkpt>
      <trkpt lat="45.86561" lon="4.60455">
        <ele>365.08746</ele>
        <time>2022-09-30T13:03:52.000Z</time>
      </trkpt>
      <trkpt lat="45.86561" lon="4.60463">
        <ele>364.83438</ele>
        <time>2022-09-30T13:03:53.000Z</time>
      </trkpt>
      <trkpt lat="45.86562" lon="4.60467">
        <ele>364.58191</ele>
        <time>2022-09-30T13:03:54.000Z</time>
      </trkpt>
      <trkpt lat="45.86562" lon="4.60474">
        <ele>364.26514</ele>
        <time>2022-09-30T13:03:55.000Z</time>
      </trkpt>
      <trkpt lat="45.86563" lon="4.6048">
        <ele>363.86346</ele>
        <time>2022-09-30T13:03:56.000Z</time>
      </trkpt>
      <trkpt lat="45.86563" lon="4.60487">
        <ele>363.49991</ele>
        <time>2022-09-30T13:03:57.000Z</time>
      </trkpt>
      <trkpt lat="45.86562" lon="4.60494">
        <ele>363.18121</ele>
        <time>2022-09-30T13:03:58.000Z</time>
      </trkpt>
      <trkpt lat="45.86561" lon="4.60501">
        <ele>362.8847</ele>
        <time>2022-09-30T13:03:59.000Z</time>
      </trkpt>
      <trkpt lat="45.86562" lon="4.60507">
        <ele>362.58084</ele>
        <time>2022-09-30T13:04:00.000Z</time>
      </trkpt>
      <trkpt lat="45.86561" lon="4.60514">
        <ele>362.23868</ele>
        <time>2022-09-30T13:04:01.000Z</time>
      </trkpt>
      <trkpt lat="45.86562" lon="4.6052">
        <ele>361.81656</ele>
        <time>2022-09-30T13:04:02.000Z</time>
      </trkpt>
      <trkpt lat="45.86562" lon="4.60526">
        <ele>361.47678</ele>
        <time>2022-09-30T13:04:03.000Z</time>
      </trkpt>
      <trkpt lat="45.8656" lon="4.60532">
        <ele>360.98615</ele>
        <time>2022-09-30T13:04:04.000Z</time>
      </trkpt>
      <trkpt lat="45.86561" lon="4.60539">
        <ele>360.6456</ele>
        <time>2022-09-30T13:04:05.000Z</time>
      </trkpt>
      <trkpt lat="45.86561" lon="4.60544">
        <ele>360.27536</ele>
        <time>2022-09-30T13:04:06.000Z</time>
      </trkpt>
      <trkpt lat="45.86561" lon="4.6055">
        <ele>359.97922</ele>
        <time>2022-09-30T13:04:07.000Z</time>
      </trkpt>
      <trkpt lat="45.86561" lon="4.60555">
        <ele>359.60223</ele>
        <time>2022-09-30T13:04:08.000Z</time>
      </trkpt>
      <trkpt lat="45.86561" lon="4.60559">
        <ele>359.26074</ele>
        <time>2022-09-30T13:04:09.000Z</time>
      </trkpt>
      <trkpt lat="45.86561" lon="4.60562">
        <ele>358.98788</ele>
        <time>2022-09-30T13:04:11.000Z</time>
      </trkpt>
      <trkpt lat="45.8656" lon="4.60559">
        <ele>358.69455</ele>
        <time>2022-09-30T13:04:17.000Z</time>
      </trkpt>
      <trkpt lat="45.86557" lon="4.6056">
        <ele>358.45895</ele>
        <time>2022-09-30T13:04:28.000Z</time>
      </trkpt>
      <trkpt lat="45.86555" lon="4.6056">
        <ele>358.17484</ele>
        <time>2022-09-30T13:04:29.000Z</time>
      </trkpt>
      <trkpt lat="45.86553" lon="4.6056">
        <ele>357.90375</ele>
        <time>2022-09-30T13:04:30.000Z</time>
      </trkpt>
      <trkpt lat="45.86551" lon="4.6056">
        <ele>357.73517</ele>
        <time>2022-09-30T13:04:31.000Z</time>
      </trkpt>
      <trkpt lat="45.86549" lon="4.60561">
        <ele>357.65753</ele>
        <time>2022-09-30T13:04:32.000Z</time>
      </trkpt>
      <trkpt lat="45.86547" lon="4.60562">
        <ele>357.56967</ele>
        <time>2022-09-30T13:04:33.000Z</time>
      </trkpt>
      <trkpt lat="45.86545" lon="4.60563">
        <ele>357.43466</ele>
        <time>2022-09-30T13:04:34.000Z</time>
      </trkpt>
      <trkpt lat="45.86542" lon="4.60563">
        <ele>357.3125</ele>
        <time>2022-09-30T13:04:35.000Z</time>
      </trkpt>
      <trkpt lat="45.86541" lon="4.60563">
        <ele>357.28644</ele>
        <time>2022-09-30T13:04:36.000Z</time>
      </trkpt>
      <trkpt lat="45.86538" lon="4.60563">
        <ele>357.24286</ele>
        <time>2022-09-30T13:04:37.000Z</time>
      </trkpt>
      <trkpt lat="45.86536" lon="4.60563">
        <ele>357.26581</ele>
        <time>2022-09-30T13:04:38.000Z</time>
      </trkpt>
      <trkpt lat="45.86534" lon="4.60563">
        <ele>357.2193</ele>
        <time>2022-09-30T13:04:39.000Z</time>
      </trkpt>
      <trkpt lat="45.86532" lon="4.60563">
        <ele>357.3244</ele>
        <time>2022-09-30T13:04:40.000Z</time>
      </trkpt>
      <trkpt lat="45.86531" lon="4.60563">
        <ele>357.26196</ele>
        <time>2022-09-30T13:04:50.000Z</time>
      </trkpt>
      <trkpt lat="45.86529" lon="4.60563">
        <ele>357.12982</ele>
        <time>2022-09-30T13:04:55.000Z</time>
      </trkpt>
      <trkpt lat="45.86526" lon="4.60563">
        <ele>356.92621</ele>
        <time>2022-09-30T13:04:56.000Z</time>
      </trkpt>
      <trkpt lat="45.86524" lon="4.60563">
        <ele>356.79184</ele>
        <time>2022-09-30T13:04:57.000Z</time>
      </trkpt>
      <trkpt lat="45.86522" lon="4.60564">
        <ele>356.6337</ele>
        <time>2022-09-30T13:04:58.000Z</time>
      </trkpt>
      <trkpt lat="45.8652" lon="4.60564">
        <ele>356.36972</ele>
        <time>2022-09-30T13:05:00.000Z</time>
      </trkpt>
      <trkpt lat="45.86516" lon="4.60563">
        <ele>356.09387</ele>
        <time>2022-09-30T13:05:52.000Z</time>
      </trkpt>
      <trkpt lat="45.86514" lon="4.60563">
        <ele>355.78226</ele>
        <time>2022-09-30T13:05:53.000Z</time>
      </trkpt>
      <trkpt lat="45.86511" lon="4.60563">
        <ele>355.58191</ele>
        <time>2022-09-30T13:05:54.000Z</time>
      </trkpt>
      <trkpt lat="45.86508" lon="4.60563">
        <ele>355.37997</ele>
        <time>2022-09-30T13:05:55.000Z</time>
      </trkpt>
      <trkpt lat="45.86505" lon="4.60563">
        <ele>355.16687</ele>
        <time>2022-09-30T13:05:56.000Z</time>
      </trkpt>
      <trkpt lat="45.86502" lon="4.60564">
        <ele>355.02505</ele>
        <time>2022-09-30T13:05:57.000Z</time>
      </trkpt>
      <trkpt lat="45.86499" lon="4.60564">
        <ele>354.87515</ele>
        <time>2022-09-30T13:05:58.000Z</time>
      </trkpt>
      <trkpt lat="45.86495" lon="4.60565">
        <ele>354.77795</ele>
        <time>2022-09-30T13:05:59.000Z</time>
      </trkpt>
      <trkpt lat="45.86492" lon="4.60565">
        <ele>354.6893</ele>
        <time>2022-09-30T13:06:00.000Z</time>
      </trkpt>
      <trkpt lat="45.86488" lon="4.60565">
        <ele>354.51831</ele>
        <time>2022-09-30T13:06:01.000Z</time>
      </trkpt>
      <trkpt lat="45.86484" lon="4.60565">
        <ele>354.38065</ele>
        <time>2022-09-30T13:06:02.000Z</time>
      </trkpt>
      <trkpt lat="45.86482" lon="4.60565">
        <ele>354.2811</ele>
        <time>2022-09-30T13:06:03.000Z</time>
      </trkpt>
      <trkpt lat="45.86479" lon="4.60565">
        <ele>354.00677</ele>
        <time>2022-09-30T13:06:05.000Z</time>
      </trkpt>
      <trkpt lat="45.86476" lon="4.60563">
        <ele>353.87714</ele>
        <time>2022-09-30T13:07:26.000Z</time>
      </trkpt>
      <trkpt lat="45.86473" lon="4.60563">
        <ele>353.8526</ele>
        <time>2022-09-30T13:07:27.000Z</time>
      </trkpt>
      <trkpt lat="45.86471" lon="4.60563">
        <ele>353.79919</ele>
        <time>2022-09-30T13:07:28.000Z</time>
      </trkpt>
      <trkpt lat="45.86468" lon="4.60564">
        <ele>353.75125</ele>
        <time>2022-09-30T13:07:29.000Z</time>
      </trkpt>
      <trkpt lat="45.86464" lon="4.60564">
        <ele>353.72623</ele>
        <time>2022-09-30T13:07:30.000Z</time>
      </trkpt>
      <trkpt lat="45.86443" lon="4.60566">
        <ele>353.72086</ele>
        <time>2022-09-30T13:07:35.000Z</time>
      </trkpt>
      <trkpt lat="45.86439" lon="4.60566">
        <ele>353.82376</ele>
        <time>2022-09-30T13:07:36.000Z</time>
      </trkpt>
      <trkpt lat="45.86435" lon="4.60565">
        <ele>353.94495</ele>
        <time>2022-09-30T13:07:37.000Z</time>
      </trkpt>
      <trkpt lat="45.86431" lon="4.60565">
        <ele>354.13565</ele>
        <time>2022-09-30T13:07:38.000Z</time>
      </trkpt>
      <trkpt lat="45.86426" lon="4.60564">
        <ele>354.25174</ele>
        <time>2022-09-30T13:07:39.000Z</time>
      </trkpt>
      <trkpt lat="45.86422" lon="4.60564">
        <ele>354.36725</ele>
        <time>2022-09-30T13:07:40.000Z</time>
      </trkpt>
      <trkpt lat="45.86418" lon="4.60565">
        <ele>354.44083</ele>
        <time>2022-09-30T13:07:41.000Z</time>
      </trkpt>
      <trkpt lat="45.86413" lon="4.60565">
        <ele>354.38766</ele>
        <time>2022-09-30T13:07:42.000Z</time>
      </trkpt>
      <trkpt lat="45.8641" lon="4.60566">
        <ele>354.48395</ele>
        <time>2022-09-30T13:07:43.000Z</time>
      </trkpt>
      <trkpt lat="45.86406" lon="4.60566">
        <ele>354.47043</ele>
        <time>2022-09-30T13:07:44.000Z</time>
      </trkpt>
      <trkpt lat="45.86402" lon="4.60566">
        <ele>354.52521</ele>
        <time>2022-09-30T13:07:45.000Z</time>
      </trkpt>
      <trkpt lat="45.86397" lon="4.60566">
        <ele>354.49734</ele>
        <time>2022-09-30T13:07:46.000Z</time>
      </trkpt>
      <trkpt lat="45.86393" lon="4.60565">
        <ele>354.31433</ele>
        <time>2022-09-30T13:07:47.000Z</time>
      </trkpt>
      <trkpt lat="45.86389" lon="4.60565">
        <ele>354.10989</ele>
        <time>2022-09-30T13:07:48.000Z</time>
      </trkpt>
      <trkpt lat="45.86385" lon="4.60565">
        <ele>354.07089</ele>
        <time>2022-09-30T13:07:49.000Z</time>
      </trkpt>
      <trkpt lat="45.86382" lon="4.60564">
        <ele>353.85797</ele>
        <time>2022-09-30T13:07:50.000Z</time>
      </trkpt>
      <trkpt lat="45.86379" lon="4.60565">
        <ele>353.57541</ele>
        <time>2022-09-30T13:07:51.000Z</time>
      </trkpt>
      <trkpt lat="45.86375" lon="4.60565">
        <ele>353.41681</ele>
        <time>2022-09-30T13:07:52.000Z</time>
      </trkpt>
      <trkpt lat="45.86372" lon="4.60565">
        <ele>353.32187</ele>
        <time>2022-09-30T13:07:53.000Z</time>
      </trkpt>
      <trkpt lat="45.86368" lon="4.60566">
        <ele>353.18948</ele>
        <time>2022-09-30T13:07:54.000Z</time>
      </trkpt>
      <trkpt lat="45.86364" lon="4.60565">
        <ele>352.99658</ele>
        <time>2022-09-30T13:07:55.000Z</time>
      </trkpt>
      <trkpt lat="45.86358" lon="4.60564">
        <ele>352.78705</ele>
        <time>2022-09-30T13:07:56.000Z</time>
      </trkpt>
      <trkpt lat="45.86354" lon="4.60564">
        <ele>352.56876</ele>
        <time>2022-09-30T13:07:57.000Z</time>
      </trkpt>
      <trkpt lat="45.86349" lon="4.60564">
        <ele>352.30695</ele>
        <time>2022-09-30T13:07:58.000Z</time>
      </trkpt>
      <trkpt lat="45.86341" lon="4.60564">
        <ele>351.98587</ele>
        <time>2022-09-30T13:07:59.000Z</time>
      </trkpt>
      <trkpt lat="45.86336" lon="4.60565">
        <ele>351.66162</ele>
        <time>2022-09-30T13:08:00.000Z</time>
      </trkpt>
      <trkpt lat="45.86331" lon="4.60565">
        <ele>351.39279</ele>
        <time>2022-09-30T13:08:01.000Z</time>
      </trkpt>
      <trkpt lat="45.86326" lon="4.60565">
        <ele>351.12653</ele>
        <time>2022-09-30T13:08:02.000Z</time>
      </trkpt>
      <trkpt lat="45.8632" lon="4.60564">
        <ele>350.78317</ele>
        <time>2022-09-30T13:08:03.000Z</time>
      </trkpt>
      <trkpt lat="45.86314" lon="4.60564">
        <ele>350.43573</ele>
        <time>2022-09-30T13:08:04.000Z</time>
      </trkpt>
      <trkpt lat="45.86308" lon="4.60563">
        <ele>350.09479</ele>
        <time>2022-09-30T13:08:05.000Z</time>
      </trkpt>
      <trkpt lat="45.86302" lon="4.60563">
        <ele>349.78281</ele>
        <time>2022-09-30T13:08:06.000Z</time>
      </trkpt>
      <trkpt lat="45.86294" lon="4.60563">
        <ele>349.54926</ele>
        <time>2022-09-30T13:08:07.000Z</time>
      </trkpt>
      <trkpt lat="45.86289" lon="4.60564">
        <ele>349.34238</ele>
        <time>2022-09-30T13:08:08.000Z</time>
      </trkpt>
      <trkpt lat="45.86284" lon="4.60562">
        <ele>349.13791</ele>
        <time>2022-09-30T13:08:09.000Z</time>
      </trkpt>
      <trkpt lat="45.86278" lon="4.60561">
        <ele>348.9798</ele>
        <time>2022-09-30T13:08:10.000Z</time>
      </trkpt>
      <trkpt lat="45.86272" lon="4.60559">
        <ele>348.94855</ele>
        <time>2022-09-30T13:08:11.000Z</time>
      </trkpt>
      <trkpt lat="45.86266" lon="4.60558">
        <ele>348.78656</ele>
        <time>2022-09-30T13:08:12.000Z</time>
      </trkpt>
      <trkpt lat="45.8626" lon="4.60556">
        <ele>348.52875</ele>
        <time>2022-09-30T13:08:13.000Z</time>
      </trkpt>
      <trkpt lat="45.86254" lon="4.60555">
        <ele>348.1846</ele>
        <time>2022-09-30T13:08:14.000Z</time>
      </trkpt>
      <trkpt lat="45.8625" lon="4.60556">
        <ele>347.92337</ele>
        <time>2022-09-30T13:08:15.000Z</time>
      </trkpt>
      <trkpt lat="45.86242" lon="4.60557">
        <ele>347.62091</ele>
        <time>2022-09-30T13:08:16.000Z</time>
      </trkpt>
      <trkpt lat="45.86236" lon="4.60556">
        <ele>347.35654</ele>
        <time>2022-09-30T13:08:17.000Z</time>
      </trkpt>
      <trkpt lat="45.86231" lon="4.60557">
        <ele>347.05975</ele>
        <time>2022-09-30T13:08:18.000Z</time>
      </trkpt>
      <trkpt lat="45.86227" lon="4.6056">
        <ele>346.8215</ele>
        <time>2022-09-30T13:08:19.000Z</time>
      </trkpt>
      <trkpt lat="45.86223" lon="4.60564">
        <ele>346.55133</ele>
        <time>2022-09-30T13:08:20.000Z</time>
      </trkpt>
      <trkpt lat="45.86224" lon="4.60572">
        <ele>346.24402</ele>
        <time>2022-09-30T13:08:21.000Z</time>
      </trkpt>
      <trkpt lat="45.86225" lon="4.60577">
        <ele>346.04572</ele>
        <time>2022-09-30T13:08:22.000Z</time>
      </trkpt>
      <trkpt lat="45.86226" lon="4.60583">
        <ele>345.79138</ele>
        <time>2022-09-30T13:08:23.000Z</time>
      </trkpt>
      <trkpt lat="45.86227" lon="4.60588">
        <ele>345.63596</ele>
        <time>2022-09-30T13:08:24.000Z</time>
      </trkpt>
      <trkpt lat="45.86228" lon="4.60593">
        <ele>345.48529</ele>
        <time>2022-09-30T13:08:25.000Z</time>
      </trkpt>
      <trkpt lat="45.86229" lon="4.60599">
        <ele>345.3071</ele>
        <time>2022-09-30T13:08:26.000Z</time>
      </trkpt>
      <trkpt lat="45.86229" lon="4.60604">
        <ele>345.12421</ele>
        <time>2022-09-30T13:08:27.000Z</time>
      </trkpt>
      <trkpt lat="45.8623" lon="4.60609">
        <ele>344.94299</ele>
        <time>2022-09-30T13:08:28.000Z</time>
      </trkpt>
      <trkpt lat="45.8623" lon="4.60615">
        <ele>344.75656</ele>
        <time>2022-09-30T13:08:29.000Z</time>
      </trkpt>
      <trkpt lat="45.8623" lon="4.60621">
        <ele>344.57343</ele>
        <time>2022-09-30T13:08:30.000Z</time>
      </trkpt>
      <trkpt lat="45.8623" lon="4.60628">
        <ele>344.25183</ele>
        <time>2022-09-30T13:08:31.000Z</time>
      </trkpt>
      <trkpt lat="45.8623" lon="4.60635">
        <ele>343.98508</ele>
        <time>2022-09-30T13:08:32.000Z</time>
      </trkpt>
      <trkpt lat="45.8623" lon="4.60642">
        <ele>343.76627</ele>
        <time>2022-09-30T13:08:33.000Z</time>
      </trkpt>
      <trkpt lat="45.86229" lon="4.6065">
        <ele>343.68933</ele>
        <time>2022-09-30T13:08:34.000Z</time>
      </trkpt>
      <trkpt lat="45.86228" lon="4.60658">
        <ele>343.60388</ele>
        <time>2022-09-30T13:08:35.000Z</time>
      </trkpt>
      <trkpt lat="45.86227" lon="4.60666">
        <ele>343.58539</ele>
        <time>2022-09-30T13:08:36.000Z</time>
      </trkpt>
      <trkpt lat="45.86227" lon="4.60675">
        <ele>343.55484</ele>
        <time>2022-09-30T13:08:37.000Z</time>
      </trkpt>
      <trkpt lat="45.86227" lon="4.60684">
        <ele>343.55914</ele>
        <time>2022-09-30T13:08:38.000Z</time>
      </trkpt>
      <trkpt lat="45.86229" lon="4.60691">
        <ele>343.54459</ele>
        <time>2022-09-30T13:08:39.000Z</time>
      </trkpt>
      <trkpt lat="45.8623" lon="4.60696">
        <ele>343.55463</ele>
        <time>2022-09-30T13:08:40.000Z</time>
      </trkpt>
      <trkpt lat="45.86231" lon="4.60705">
        <ele>343.53516</ele>
        <time>2022-09-30T13:08:41.000Z</time>
      </trkpt>
      <trkpt lat="45.86233" lon="4.60716">
        <ele>343.58075</ele>
        <time>2022-09-30T13:08:42.000Z</time>
      </trkpt>
      <trkpt lat="45.86234" lon="4.60725">
        <ele>343.63086</ele>
        <time>2022-09-30T13:08:43.000Z</time>
      </trkpt>
      <trkpt lat="45.86235" lon="4.60733">
        <ele>343.63831</ele>
        <time>2022-09-30T13:08:44.000Z</time>
      </trkpt>
      <trkpt lat="45.86237" lon="4.60739">
        <ele>343.5311</ele>
        <time>2022-09-30T13:08:45.000Z</time>
      </trkpt>
      <trkpt lat="45.8624" lon="4.60749">
        <ele>343.48175</ele>
        <time>2022-09-30T13:08:46.000Z</time>
      </trkpt>
      <trkpt lat="45.86244" lon="4.60756">
        <ele>343.58331</ele>
        <time>2022-09-30T13:08:47.000Z</time>
      </trkpt>
      <trkpt lat="45.86247" lon="4.60765">
        <ele>343.67548</ele>
        <time>2022-09-30T13:08:48.000Z</time>
      </trkpt>
      <trkpt lat="45.8625" lon="4.60773">
        <ele>343.78687</ele>
        <time>2022-09-30T13:08:49.000Z</time>
      </trkpt>
      <trkpt lat="45.86253" lon="4.60779">
        <ele>343.7894</ele>
        <time>2022-09-30T13:08:50.000Z</time>
      </trkpt>
      <trkpt lat="45.86256" lon="4.60786">
        <ele>343.85956</ele>
        <time>2022-09-30T13:08:51.000Z</time>
      </trkpt>
      <trkpt lat="45.8626" lon="4.60792">
        <ele>344.00198</ele>
        <time>2022-09-30T13:08:52.000Z</time>
      </trkpt>
      <trkpt lat="45.86264" lon="4.60798">
        <ele>344.1062</ele>
        <time>2022-09-30T13:08:53.000Z</time>
      </trkpt>
      <trkpt lat="45.86268" lon="4.60805">
        <ele>344.18857</ele>
        <time>2022-09-30T13:08:54.000Z</time>
      </trkpt>
      <trkpt lat="45.86271" lon="4.6081">
        <ele>344.16602</ele>
        <time>2022-09-30T13:08:55.000Z</time>
      </trkpt>
      <trkpt lat="45.86277" lon="4.60816">
        <ele>344.08771</ele>
        <time>2022-09-30T13:08:56.000Z</time>
      </trkpt>
      <trkpt lat="45.86282" lon="4.60823">
        <ele>343.97186</ele>
        <time>2022-09-30T13:08:57.000Z</time>
      </trkpt>
      <trkpt lat="45.86289" lon="4.60827">
        <ele>343.86267</ele>
        <time>2022-09-30T13:08:58.000Z</time>
      </trkpt>
      <trkpt lat="45.86295" lon="4.60829">
        <ele>343.7674</ele>
        <time>2022-09-30T13:08:59.000Z</time>
      </trkpt>
      <trkpt lat="45.86301" lon="4.60832">
        <ele>343.62793</ele>
        <time>2022-09-30T13:09:00.000Z</time>
      </trkpt>
      <trkpt lat="45.86305" lon="4.60833">
        <ele>343.52847</ele>
        <time>2022-09-30T13:09:01.000Z</time>
      </trkpt>
      <trkpt lat="45.8631" lon="4.60837">
        <ele>343.21918</ele>
        <time>2022-09-30T13:09:02.000Z</time>
      </trkpt>
      <trkpt lat="45.86317" lon="4.60843">
        <ele>342.83139</ele>
        <time>2022-09-30T13:09:03.000Z</time>
      </trkpt>
      <trkpt lat="45.86322" lon="4.60847">
        <ele>342.38861</ele>
        <time>2022-09-30T13:09:04.000Z</time>
      </trkpt>
      <trkpt lat="45.8633" lon="4.60849">
        <ele>341.871</ele>
        <time>2022-09-30T13:09:05.000Z</time>
      </trkpt>
      <trkpt lat="45.86337" lon="4.60852">
        <ele>341.35513</ele>
        <time>2022-09-30T13:09:06.000Z</time>
      </trkpt>
      <trkpt lat="45.86343" lon="4.60853">
        <ele>340.83426</ele>
        <time>2022-09-30T13:09:07.000Z</time>
      </trkpt>
      <trkpt lat="45.86349" lon="4.60856">
        <ele>340.29068</ele>
        <time>2022-09-30T13:09:08.000Z</time>
      </trkpt>
      <trkpt lat="45.86355" lon="4.60862">
        <ele>339.78391</ele>
        <time>2022-09-30T13:09:09.000Z</time>
      </trkpt>
      <trkpt lat="45.8636" lon="4.60865">
        <ele>339.37469</ele>
        <time>2022-09-30T13:09:10.000Z</time>
      </trkpt>
      <trkpt lat="45.86365" lon="4.60869">
        <ele>338.99588</ele>
        <time>2022-09-30T13:09:11.000Z</time>
      </trkpt>
      <trkpt lat="45.8637" lon="4.60875">
        <ele>338.64929</ele>
        <time>2022-09-30T13:09:12.000Z</time>
      </trkpt>
      <trkpt lat="45.86375" lon="4.60882">
        <ele>338.27432</ele>
        <time>2022-09-30T13:09:13.000Z</time>
      </trkpt>
      <trkpt lat="45.8638" lon="4.60889">
        <ele>337.81104</ele>
        <time>2022-09-30T13:09:14.000Z</time>
      </trkpt>
      <trkpt lat="45.86383" lon="4.60898">
        <ele>337.39609</ele>
        <time>2022-09-30T13:09:15.000Z</time>
      </trkpt>
      <trkpt lat="45.86385" lon="4.60906">
        <ele>337.00092</ele>
        <time>2022-09-30T13:09:16.000Z</time>
      </trkpt>
      <trkpt lat="45.86387" lon="4.60915">
        <ele>336.66452</ele>
        <time>2022-09-30T13:09:17.000Z</time>
      </trkpt>
      <trkpt lat="45.86389" lon="4.60924">
        <ele>336.29727</ele>
        <time>2022-09-30T13:09:18.000Z</time>
      </trkpt>
      <trkpt lat="45.86389" lon="4.60934">
        <ele>335.88373</ele>
        <time>2022-09-30T13:09:19.000Z</time>
      </trkpt>
      <trkpt lat="45.86389" lon="4.60941">
        <ele>335.50519</ele>
        <time>2022-09-30T13:09:20.000Z</time>
      </trkpt>
      <trkpt lat="45.86389" lon="4.6095">
        <ele>335.08707</ele>
        <time>2022-09-30T13:09:21.000Z</time>
      </trkpt>
      <trkpt lat="45.86388" lon="4.60958">
        <ele>334.7446</ele>
        <time>2022-09-30T13:09:22.000Z</time>
      </trkpt>
      <trkpt lat="45.86386" lon="4.60968">
        <ele>334.54633</ele>
        <time>2022-09-30T13:09:23.000Z</time>
      </trkpt>
      <trkpt lat="45.86383" lon="4.60978">
        <ele>334.46921</ele>
        <time>2022-09-30T13:09:24.000Z</time>
      </trkpt>
      <trkpt lat="45.86379" lon="4.60987">
        <ele>334.58722</ele>
        <time>2022-09-30T13:09:25.000Z</time>
      </trkpt>
      <trkpt lat="45.86377" lon="4.60995">
        <ele>334.7597</ele>
        <time>2022-09-30T13:09:26.000Z</time>
      </trkpt>
      <trkpt lat="45.86374" lon="4.61003">
        <ele>334.9212</ele>
        <time>2022-09-30T13:09:27.000Z</time>
      </trkpt>
      <trkpt lat="45.86371" lon="4.61012">
        <ele>335.0751</ele>
        <time>2022-09-30T13:09:28.000Z</time>
      </trkpt>
      <trkpt lat="45.86368" lon="4.61019">
        <ele>335.18088</ele>
        <time>2022-09-30T13:09:29.000Z</time>
      </trkpt>
      <trkpt lat="45.86368" lon="4.61029">
        <ele>335.16263</ele>
        <time>2022-09-30T13:09:30.000Z</time>
      </trkpt>
      <trkpt lat="45.86364" lon="4.61037">
        <ele>335.06845</ele>
        <time>2022-09-30T13:09:31.000Z</time>
      </trkpt>
      <trkpt lat="45.8636" lon="4.61042">
        <ele>334.87625</ele>
        <time>2022-09-30T13:09:32.000Z</time>
      </trkpt>
      <trkpt lat="45.86357" lon="4.61052">
        <ele>334.77982</ele>
        <time>2022-09-30T13:09:33.000Z</time>
      </trkpt>
      <trkpt lat="45.86354" lon="4.61063">
        <ele>334.71521</ele>
        <time>2022-09-30T13:09:34.000Z</time>
      </trkpt>
      <trkpt lat="45.86351" lon="4.61073">
        <ele>334.62018</ele>
        <time>2022-09-30T13:09:35.000Z</time>
      </trkpt>
      <trkpt lat="45.86347" lon="4.61084">
        <ele>334.54004</ele>
        <time>2022-09-30T13:09:36.000Z</time>
      </trkpt>
      <trkpt lat="45.86344" lon="4.61093">
        <ele>334.39572</ele>
        <time>2022-09-30T13:09:37.000Z</time>
      </trkpt>
      <trkpt lat="45.86341" lon="4.61101">
        <ele>334.28271</ele>
        <time>2022-09-30T13:09:38.000Z</time>
      </trkpt>
      <trkpt lat="45.86336" lon="4.61112">
        <ele>334.20508</ele>
        <time>2022-09-30T13:09:39.000Z</time>
      </trkpt>
      <trkpt lat="45.86332" lon="4.61123">
        <ele>334.13947</ele>
        <time>2022-09-30T13:09:40.000Z</time>
      </trkpt>
      <trkpt lat="45.86327" lon="4.61133">
        <ele>334.00363</ele>
        <time>2022-09-30T13:09:41.000Z</time>
      </trkpt>
      <trkpt lat="45.86325" lon="4.61143">
        <ele>333.73468</ele>
        <time>2022-09-30T13:09:42.000Z</time>
      </trkpt>
      <trkpt lat="45.86322" lon="4.61152">
        <ele>333.44287</ele>
        <time>2022-09-30T13:09:43.000Z</time>
      </trkpt>
      <trkpt lat="45.86316" lon="4.61162">
        <ele>332.99191</ele>
        <time>2022-09-30T13:09:44.000Z</time>
      </trkpt>
      <trkpt lat="45.86314" lon="4.61172">
        <ele>332.53278</ele>
        <time>2022-09-30T13:09:45.000Z</time>
      </trkpt>
      <trkpt lat="45.86311" lon="4.61181">
        <ele>332.05273</ele>
        <time>2022-09-30T13:09:46.000Z</time>
      </trkpt>
      <trkpt lat="45.86309" lon="4.61191">
        <ele>331.57104</ele>
        <time>2022-09-30T13:09:47.000Z</time>
      </trkpt>
      <trkpt lat="45.86307" lon="4.61201">
        <ele>331.1235</ele>
        <time>2022-09-30T13:09:48.000Z</time>
      </trkpt>
      <trkpt lat="45.86304" lon="4.6121">
        <ele>330.64984</ele>
        <time>2022-09-30T13:09:49.000Z</time>
      </trkpt>
      <trkpt lat="45.863" lon="4.6122">
        <ele>330.29062</ele>
        <time>2022-09-30T13:09:50.000Z</time>
      </trkpt>
      <trkpt lat="45.86298" lon="4.61229">
        <ele>329.96262</ele>
        <time>2022-09-30T13:09:51.000Z</time>
      </trkpt>
      <trkpt lat="45.86295" lon="4.61239">
        <ele>329.72769</ele>
        <time>2022-09-30T13:09:52.000Z</time>
      </trkpt>
      <trkpt lat="45.86293" lon="4.61248">
        <ele>329.48932</ele>
        <time>2022-09-30T13:09:53.000Z</time>
      </trkpt>
      <trkpt lat="45.8629" lon="4.61257">
        <ele>329.17828</ele>
        <time>2022-09-30T13:09:54.000Z</time>
      </trkpt>
      <trkpt lat="45.86289" lon="4.61268">
        <ele>328.88745</ele>
        <time>2022-09-30T13:09:55.000Z</time>
      </trkpt>
      <trkpt lat="45.86287" lon="4.61277">
        <ele>328.62045</ele>
        <time>2022-09-30T13:09:56.000Z</time>
      </trkpt>
      <trkpt lat="45.86284" lon="4.61287">
        <ele>328.29449</ele>
        <time>2022-09-30T13:09:57.000Z</time>
      </trkpt>
      <trkpt lat="45.86282" lon="4.61297">
        <ele>327.91833</ele>
        <time>2022-09-30T13:09:58.000Z</time>
      </trkpt>
      <trkpt lat="45.8628" lon="4.61308">
        <ele>327.60693</ele>
        <time>2022-09-30T13:09:59.000Z</time>
      </trkpt>
      <trkpt lat="45.86278" lon="4.61317">
        <ele>327.31772</ele>
        <time>2022-09-30T13:10:00.000Z</time>
      </trkpt>
      <trkpt lat="45.86276" lon="4.61327">
        <ele>327.06558</ele>
        <time>2022-09-30T13:10:01.000Z</time>
      </trkpt>
      <trkpt lat="45.86275" lon="4.61338">
        <ele>326.96783</ele>
        <time>2022-09-30T13:10:02.000Z</time>
      </trkpt>
      <trkpt lat="45.86272" lon="4.61345">
        <ele>326.78082</ele>
        <time>2022-09-30T13:10:03.000Z</time>
      </trkpt>
      <trkpt lat="45.86271" lon="4.61355">
        <ele>326.67599</ele>
        <time>2022-09-30T13:10:04.000Z</time>
      </trkpt>
      <trkpt lat="45.86268" lon="4.61364">
        <ele>326.53986</ele>
        <time>2022-09-30T13:10:05.000Z</time>
      </trkpt>
      <trkpt lat="45.86268" lon="4.61376">
        <ele>326.4129</ele>
        <time>2022-09-30T13:10:06.000Z</time>
      </trkpt>
      <trkpt lat="45.86267" lon="4.61385">
        <ele>326.27484</ele>
        <time>2022-09-30T13:10:07.000Z</time>
      </trkpt>
      <trkpt lat="45.86265" lon="4.61396">
        <ele>326.11636</ele>
        <time>2022-09-30T13:10:08.000Z</time>
      </trkpt>
      <trkpt lat="45.86264" lon="4.61406">
        <ele>325.95706</ele>
        <time>2022-09-30T13:10:09.000Z</time>
      </trkpt>
      <trkpt lat="45.86262" lon="4.61417">
        <ele>325.77014</ele>
        <time>2022-09-30T13:10:10.000Z</time>
      </trkpt>
      <trkpt lat="45.86257" lon="4.61425">
        <ele>325.57147</ele>
        <time>2022-09-30T13:10:11.000Z</time>
      </trkpt>
      <trkpt lat="45.86253" lon="4.61434">
        <ele>325.33157</ele>
        <time>2022-09-30T13:10:12.000Z</time>
      </trkpt>
      <trkpt lat="45.8625" lon="4.61445">
        <ele>325.07278</ele>
        <time>2022-09-30T13:10:13.000Z</time>
      </trkpt>
      <trkpt lat="45.86246" lon="4.61454">
        <ele>324.88016</ele>
        <time>2022-09-30T13:10:14.000Z</time>
      </trkpt>
      <trkpt lat="45.86242" lon="4.61464">
        <ele>324.7215</ele>
        <time>2022-09-30T13:10:15.000Z</time>
      </trkpt>
      <trkpt lat="45.86238" lon="4.61474">
        <ele>324.58978</ele>
        <time>2022-09-30T13:10:16.000Z</time>
      </trkpt>
      <trkpt lat="45.86234" lon="4.61483">
        <ele>324.51605</ele>
        <time>2022-09-30T13:10:17.000Z</time>
      </trkpt>
      <trkpt lat="45.8623" lon="4.61493">
        <ele>324.58066</ele>
        <time>2022-09-30T13:10:18.000Z</time>
      </trkpt>
      <trkpt lat="45.86227" lon="4.61502">
        <ele>324.68411</ele>
        <time>2022-09-30T13:10:19.000Z</time>
      </trkpt>
      <trkpt lat="45.86223" lon="4.61513">
        <ele>324.7818</ele>
        <time>2022-09-30T13:10:20.000Z</time>
      </trkpt>
      <trkpt lat="45.86221" lon="4.61522">
        <ele>324.85806</ele>
        <time>2022-09-30T13:10:21.000Z</time>
      </trkpt>
      <trkpt lat="45.86217" lon="4.61531">
        <ele>324.92236</ele>
        <time>2022-09-30T13:10:22.000Z</time>
      </trkpt>
      <trkpt lat="45.86212" lon="4.6154">
        <ele>325.08807</ele>
        <time>2022-09-30T13:10:23.000Z</time>
      </trkpt>
      <trkpt lat="45.86208" lon="4.6155">
        <ele>325.23373</ele>
        <time>2022-09-30T13:10:24.000Z</time>
      </trkpt>
      <trkpt lat="45.86202" lon="4.61556">
        <ele>325.34848</ele>
        <time>2022-09-30T13:10:25.000Z</time>
      </trkpt>
      <trkpt lat="45.86196" lon="4.6156">
        <ele>325.37347</ele>
        <time>2022-09-30T13:10:26.000Z</time>
      </trkpt>
      <trkpt lat="45.86188" lon="4.61564">
        <ele>325.29102</ele>
        <time>2022-09-30T13:10:27.000Z</time>
      </trkpt>
      <trkpt lat="45.8618" lon="4.61568">
        <ele>325.12546</ele>
        <time>2022-09-30T13:10:28.000Z</time>
      </trkpt>
      <trkpt lat="45.86171" lon="4.61573">
        <ele>324.98227</ele>
        <time>2022-09-30T13:10:29.000Z</time>
      </trkpt>
      <trkpt lat="45.86164" lon="4.61578">
        <ele>324.832</ele>
        <time>2022-09-30T13:10:30.000Z</time>
      </trkpt>
      <trkpt lat="45.86157" lon="4.61585">
        <ele>324.70059</ele>
        <time>2022-09-30T13:10:31.000Z</time>
      </trkpt>
      <trkpt lat="45.86151" lon="4.61593">
        <ele>324.59256</ele>
        <time>2022-09-30T13:10:32.000Z</time>
      </trkpt>
      <trkpt lat="45.86146" lon="4.61601">
        <ele>324.47852</ele>
        <time>2022-09-30T13:10:33.000Z</time>
      </trkpt>
      <trkpt lat="45.8614" lon="4.61611">
        <ele>324.40302</ele>
        <time>2022-09-30T13:10:34.000Z</time>
      </trkpt>
      <trkpt lat="45.86135" lon="4.61621">
        <ele>324.29218</ele>
        <time>2022-09-30T13:10:35.000Z</time>
      </trkpt>
      <trkpt lat="45.8613" lon="4.61632">
        <ele>324.12015</ele>
        <time>2022-09-30T13:10:36.000Z</time>
      </trkpt>
      <trkpt lat="45.86125" lon="4.61641">
        <ele>323.91754</ele>
        <time>2022-09-30T13:10:37.000Z</time>
      </trkpt>
      <trkpt lat="45.86121" lon="4.61652">
        <ele>323.61884</ele>
        <time>2022-09-30T13:10:38.000Z</time>
      </trkpt>
      <trkpt lat="45.86116" lon="4.61664">
        <ele>323.12372</ele>
        <time>2022-09-30T13:10:39.000Z</time>
      </trkpt>
      <trkpt lat="45.86113" lon="4.61675">
        <ele>322.62848</ele>
        <time>2022-09-30T13:10:40.000Z</time>
      </trkpt>
      <trkpt lat="45.86111" lon="4.61686">
        <ele>322.20166</ele>
        <time>2022-09-30T13:10:41.000Z</time>
      </trkpt>
      <trkpt lat="45.86108" lon="4.61697">
        <ele>321.73801</ele>
        <time>2022-09-30T13:10:42.000Z</time>
      </trkpt>
      <trkpt lat="45.86105" lon="4.6171">
        <ele>321.25848</ele>
        <time>2022-09-30T13:10:43.000Z</time>
      </trkpt>
      <trkpt lat="45.86102" lon="4.61721">
        <ele>320.79117</ele>
        <time>2022-09-30T13:10:44.000Z</time>
      </trkpt>
      <trkpt lat="45.86097" lon="4.61733">
        <ele>320.35352</ele>
        <time>2022-09-30T13:10:45.000Z</time>
      </trkpt>
      <trkpt lat="45.86092" lon="4.61741">
        <ele>319.99078</ele>
        <time>2022-09-30T13:10:46.000Z</time>
      </trkpt>
      <trkpt lat="45.86085" lon="4.61749">
        <ele>319.74387</ele>
        <time>2022-09-30T13:10:47.000Z</time>
      </trkpt>
      <trkpt lat="45.86079" lon="4.61756">
        <ele>319.63632</ele>
        <time>2022-09-30T13:10:48.000Z</time>
      </trkpt>
      <trkpt lat="45.86072" lon="4.61762">
        <ele>319.50272</ele>
        <time>2022-09-30T13:10:49.000Z</time>
      </trkpt>
      <trkpt lat="45.86064" lon="4.61768">
        <ele>319.31345</ele>
        <time>2022-09-30T13:10:50.000Z</time>
      </trkpt>
      <trkpt lat="45.86057" lon="4.61773">
        <ele>319.05682</ele>
        <time>2022-09-30T13:10:51.000Z</time>
      </trkpt>
      <trkpt lat="45.8605" lon="4.61778">
        <ele>318.71072</ele>
        <time>2022-09-30T13:10:52.000Z</time>
      </trkpt>
      <trkpt lat="45.86042" lon="4.61783">
        <ele>318.35187</ele>
        <time>2022-09-30T13:10:53.000Z</time>
      </trkpt>
      <trkpt lat="45.86036" lon="4.6179">
        <ele>318.01685</ele>
        <time>2022-09-30T13:10:54.000Z</time>
      </trkpt>
      <trkpt lat="45.86031" lon="4.61797">
        <ele>317.71863</ele>
        <time>2022-09-30T13:10:55.000Z</time>
      </trkpt>
      <trkpt lat="45.86026" lon="4.61804">
        <ele>317.38916</ele>
        <time>2022-09-30T13:10:56.000Z</time>
      </trkpt>
      <trkpt lat="45.86021" lon="4.61812">
        <ele>317.07635</ele>
        <time>2022-09-30T13:10:57.000Z</time>
      </trkpt>
      <trkpt lat="45.86016" lon="4.61819">
        <ele>316.74725</ele>
        <time>2022-09-30T13:10:58.000Z</time>
      </trkpt>
      <trkpt lat="45.86011" lon="4.61825">
        <ele>316.53354</ele>
        <time>2022-09-30T13:10:59.000Z</time>
      </trkpt>
      <trkpt lat="45.86006" lon="4.61831">
        <ele>316.20117</ele>
        <time>2022-09-30T13:11:00.000Z</time>
      </trkpt>
      <trkpt lat="45.86" lon="4.6184">
        <ele>315.78928</ele>
        <time>2022-09-30T13:11:01.000Z</time>
      </trkpt>
      <trkpt lat="45.85996" lon="4.61847">
        <ele>315.42999</ele>
        <time>2022-09-30T13:11:02.000Z</time>
      </trkpt>
      <trkpt lat="45.85992" lon="4.61856">
        <ele>315.04166</ele>
        <time>2022-09-30T13:11:03.000Z</time>
      </trkpt>
      <trkpt lat="45.85987" lon="4.61864">
        <ele>314.67593</ele>
        <time>2022-09-30T13:11:04.000Z</time>
      </trkpt>
      <trkpt lat="45.85982" lon="4.61872">
        <ele>314.25073</ele>
        <time>2022-09-30T13:11:05.000Z</time>
      </trkpt>
      <trkpt lat="45.85978" lon="4.61882">
        <ele>313.83124</ele>
        <time>2022-09-30T13:11:06.000Z</time>
      </trkpt>
      <trkpt lat="45.85975" lon="4.61891">
        <ele>313.32321</ele>
        <time>2022-09-30T13:11:07.000Z</time>
      </trkpt>
      <trkpt lat="45.85972" lon="4.61901">
        <ele>312.74005</ele>
        <time>2022-09-30T13:11:08.000Z</time>
      </trkpt>
      <trkpt lat="45.8597" lon="4.61911">
        <ele>312.2189</ele>
        <time>2022-09-30T13:11:09.000Z</time>
      </trkpt>
      <trkpt lat="45.85969" lon="4.61922">
        <ele>311.79962</ele>
        <time>2022-09-30T13:11:10.000Z</time>
      </trkpt>
      <trkpt lat="45.85968" lon="4.61933">
        <ele>311.40833</ele>
        <time>2022-09-30T13:11:11.000Z</time>
      </trkpt>
      <trkpt lat="45.85967" lon="4.61944">
        <ele>311.06995</ele>
        <time>2022-09-30T13:11:12.000Z</time>
      </trkpt>
      <trkpt lat="45.85966" lon="4.61955">
        <ele>310.75543</ele>
        <time>2022-09-30T13:11:13.000Z</time>
      </trkpt>
      <trkpt lat="45.85965" lon="4.61966">
        <ele>310.40765</ele>
        <time>2022-09-30T13:11:14.000Z</time>
      </trkpt>
      <trkpt lat="45.85965" lon="4.61975">
        <ele>310.01349</ele>
        <time>2022-09-30T13:11:15.000Z</time>
      </trkpt>
      <trkpt lat="45.85962" lon="4.61987">
        <ele>309.67044</ele>
        <time>2022-09-30T13:11:16.000Z</time>
      </trkpt>
      <trkpt lat="45.85959" lon="4.61997">
        <ele>309.31027</ele>
        <time>2022-09-30T13:11:17.000Z</time>
      </trkpt>
      <trkpt lat="45.85955" lon="4.62007">
        <ele>308.97043</ele>
        <time>2022-09-30T13:11:18.000Z</time>
      </trkpt>
      <trkpt lat="45.85953" lon="4.62015">
        <ele>308.62097</ele>
        <time>2022-09-30T13:11:19.000Z</time>
      </trkpt>
      <trkpt lat="45.85949" lon="4.62024">
        <ele>308.38251</ele>
        <time>2022-09-30T13:11:20.000Z</time>
      </trkpt>
      <trkpt lat="45.85946" lon="4.62032">
        <ele>308.18591</ele>
        <time>2022-09-30T13:11:21.000Z</time>
      </trkpt>
      <trkpt lat="45.85943" lon="4.62039">
        <ele>307.90894</ele>
        <time>2022-09-30T13:11:22.000Z</time>
      </trkpt>
      <trkpt lat="45.8594" lon="4.62043">
        <ele>307.57004</ele>
        <time>2022-09-30T13:11:23.000Z</time>
      </trkpt>
      <trkpt lat="45.85938" lon="4.62047">
        <ele>307.23483</ele>
        <time>2022-09-30T13:11:24.000Z</time>
      </trkpt>
      <trkpt lat="45.85936" lon="4.62051">
        <ele>306.94058</ele>
        <time>2022-09-30T13:11:25.000Z</time>
      </trkpt>
      <trkpt lat="45.85936" lon="4.62055">
        <ele>306.4881</ele>
        <time>2022-09-30T13:11:47.000Z</time>
      </trkpt>
      <trkpt lat="45.85935" lon="4.62059">
        <ele>306.09256</ele>
        <time>2022-09-30T13:11:48.000Z</time>
      </trkpt>
      <trkpt lat="45.85932" lon="4.62063">
        <ele>305.69196</ele>
        <time>2022-09-30T13:11:49.000Z</time>
      </trkpt>
      <trkpt lat="45.8593" lon="4.62069">
        <ele>305.39142</ele>
        <time>2022-09-30T13:11:50.000Z</time>
      </trkpt>
      <trkpt lat="45.85928" lon="4.62076">
        <ele>305.14764</ele>
        <time>2022-09-30T13:11:51.000Z</time>
      </trkpt>
      <trkpt lat="45.85924" lon="4.62083">
        <ele>304.92938</ele>
        <time>2022-09-30T13:11:52.000Z</time>
      </trkpt>
      <trkpt lat="45.8592" lon="4.62091">
        <ele>304.62973</ele>
        <time>2022-09-30T13:11:53.000Z</time>
      </trkpt>
      <trkpt lat="45.85918" lon="4.62097">
        <ele>304.26352</ele>
        <time>2022-09-30T13:11:54.000Z</time>
      </trkpt>
      <trkpt lat="45.85914" lon="4.62106">
        <ele>303.87213</ele>
        <time>2022-09-30T13:11:55.000Z</time>
      </trkpt>
      <trkpt lat="45.85913" lon="4.62113">
        <ele>303.46823</ele>
        <time>2022-09-30T13:11:56.000Z</time>
      </trkpt>
      <trkpt lat="45.8591" lon="4.62121">
        <ele>303.04004</ele>
        <time>2022-09-30T13:11:57.000Z</time>
      </trkpt>
      <trkpt lat="45.85905" lon="4.62129">
        <ele>302.70493</ele>
        <time>2022-09-30T13:11:58.000Z</time>
      </trkpt>
      <trkpt lat="45.85901" lon="4.62138">
        <ele>302.3421</ele>
        <time>2022-09-30T13:11:59.000Z</time>
      </trkpt>
      <trkpt lat="45.85898" lon="4.62147">
        <ele>302.0058</ele>
        <time>2022-09-30T13:12:00.000Z</time>
      </trkpt>
      <trkpt lat="45.85894" lon="4.62155">
        <ele>301.62979</ele>
        <time>2022-09-30T13:12:01.000Z</time>
      </trkpt>
      <trkpt lat="45.85891" lon="4.62165">
        <ele>301.26044</ele>
        <time>2022-09-30T13:12:02.000Z</time>
      </trkpt>
      <trkpt lat="45.85888" lon="4.62173">
        <ele>300.97806</ele>
        <time>2022-09-30T13:12:03.000Z</time>
      </trkpt>
      <trkpt lat="45.85884" lon="4.62182">
        <ele>300.78067</ele>
        <time>2022-09-30T13:12:04.000Z</time>
      </trkpt>
      <trkpt lat="45.8588" lon="4.62191">
        <ele>300.55222</ele>
        <time>2022-09-30T13:12:05.000Z</time>
      </trkpt>
      <trkpt lat="45.85876" lon="4.62201">
        <ele>300.24902</ele>
        <time>2022-09-30T13:12:06.000Z</time>
      </trkpt>
      <trkpt lat="45.85871" lon="4.6221">
        <ele>300.10858</ele>
        <time>2022-09-30T13:12:07.000Z</time>
      </trkpt>
      <trkpt lat="45.85867" lon="4.6222">
        <ele>299.96646</ele>
        <time>2022-09-30T13:12:08.000Z</time>
      </trkpt>
      <trkpt lat="45.85862" lon="4.6223">
        <ele>299.84161</ele>
        <time>2022-09-30T13:12:09.000Z</time>
      </trkpt>
      <trkpt lat="45.85857" lon="4.62238">
        <ele>299.59412</ele>
        <time>2022-09-30T13:12:10.000Z</time>
      </trkpt>
      <trkpt lat="45.85852" lon="4.62245">
        <ele>299.3125</ele>
        <time>2022-09-30T13:12:11.000Z</time>
      </trkpt>
      <trkpt lat="45.85847" lon="4.62253">
        <ele>299.01215</ele>
        <time>2022-09-30T13:12:12.000Z</time>
      </trkpt>
      <trkpt lat="45.85841" lon="4.6226">
        <ele>298.75586</ele>
        <time>2022-09-30T13:12:13.000Z</time>
      </trkpt>
      <trkpt lat="45.85835" lon="4.62267">
        <ele>298.52881</ele>
        <time>2022-09-30T13:12:14.000Z</time>
      </trkpt>
      <trkpt lat="45.8583" lon="4.62272">
        <ele>298.36798</ele>
        <time>2022-09-30T13:12:15.000Z</time>
      </trkpt>
      <trkpt lat="45.85823" lon="4.62279">
        <ele>298.25626</ele>
        <time>2022-09-30T13:12:16.000Z</time>
      </trkpt>
      <trkpt lat="45.85817" lon="4.62285">
        <ele>298.1629</ele>
        <time>2022-09-30T13:12:17.000Z</time>
      </trkpt>
      <trkpt lat="45.85811" lon="4.62292">
        <ele>298.09442</ele>
        <time>2022-09-30T13:12:18.000Z</time>
      </trkpt>
      <trkpt lat="45.85805" lon="4.62297">
        <ele>298.06915</ele>
        <time>2022-09-30T13:12:19.000Z</time>
      </trkpt>
      <trkpt lat="45.85799" lon="4.62304">
        <ele>297.9953</ele>
        <time>2022-09-30T13:12:20.000Z</time>
      </trkpt>
      <trkpt lat="45.85794" lon="4.6231">
        <ele>297.95697</ele>
        <time>2022-09-30T13:12:21.000Z</time>
      </trkpt>
      <trkpt lat="45.85788" lon="4.62317">
        <ele>297.94818</ele>
        <time>2022-09-30T13:12:22.000Z</time>
      </trkpt>
      <trkpt lat="45.85784" lon="4.62324">
        <ele>297.97437</ele>
        <time>2022-09-30T13:12:23.000Z</time>
      </trkpt>
      <trkpt lat="45.85779" lon="4.62332">
        <ele>297.99268</ele>
        <time>2022-09-30T13:12:24.000Z</time>
      </trkpt>
      <trkpt lat="45.85774" lon="4.62338">
        <ele>298.04578</ele>
        <time>2022-09-30T13:12:25.000Z</time>
      </trkpt>
      <trkpt lat="45.85769" lon="4.62345">
        <ele>298.21017</ele>
        <time>2022-09-30T13:12:26.000Z</time>
      </trkpt>
      <trkpt lat="45.85764" lon="4.62352">
        <ele>298.32489</ele>
        <time>2022-09-30T13:12:27.000Z</time>
      </trkpt>
      <trkpt lat="45.85759" lon="4.62359">
        <ele>298.42819</ele>
        <time>2022-09-30T13:12:28.000Z</time>
      </trkpt>
      <trkpt lat="45.85754" lon="4.62366">
        <ele>298.54327</ele>
        <time>2022-09-30T13:12:29.000Z</time>
      </trkpt>
      <trkpt lat="45.8575" lon="4.62374">
        <ele>298.65289</ele>
        <time>2022-09-30T13:12:30.000Z</time>
      </trkpt>
      <trkpt lat="45.85744" lon="4.62382">
        <ele>298.63922</ele>
        <time>2022-09-30T13:12:31.000Z</time>
      </trkpt>
      <trkpt lat="45.85736" lon="4.62397">
        <ele>298.59476</ele>
        <time>2022-09-30T13:12:33.000Z</time>
      </trkpt>
      <trkpt lat="45.85732" lon="4.62406">
        <ele>298.59152</ele>
        <time>2022-09-30T13:12:34.000Z</time>
      </trkpt>
      <trkpt lat="45.85728" lon="4.62413">
        <ele>298.63251</ele>
        <time>2022-09-30T13:12:35.000Z</time>
      </trkpt>
      <trkpt lat="45.85724" lon="4.62423">
        <ele>298.66827</ele>
        <time>2022-09-30T13:12:36.000Z</time>
      </trkpt>
      <trkpt lat="45.8572" lon="4.62432">
        <ele>298.72195</ele>
        <time>2022-09-30T13:12:37.000Z</time>
      </trkpt>
      <trkpt lat="45.85717" lon="4.62441">
        <ele>298.76031</ele>
        <time>2022-09-30T13:12:38.000Z</time>
      </trkpt>
      <trkpt lat="45.85713" lon="4.6245">
        <ele>298.78632</ele>
        <time>2022-09-30T13:12:39.000Z</time>
      </trkpt>
      <trkpt lat="45.85709" lon="4.62458">
        <ele>298.81247</ele>
        <time>2022-09-30T13:12:40.000Z</time>
      </trkpt>
      <trkpt lat="45.85706" lon="4.62465">
        <ele>298.90228</ele>
        <time>2022-09-30T13:12:41.000Z</time>
      </trkpt>
      <trkpt lat="45.85703" lon="4.62474">
        <ele>298.97076</ele>
        <time>2022-09-30T13:12:42.000Z</time>
      </trkpt>
      <trkpt lat="45.85699" lon="4.62483">
        <ele>299.03784</ele>
        <time>2022-09-30T13:12:43.000Z</time>
      </trkpt>
      <trkpt lat="45.85696" lon="4.62492">
        <ele>299.00275</ele>
        <time>2022-09-30T13:12:44.000Z</time>
      </trkpt>
      <trkpt lat="45.85693" lon="4.62502">
        <ele>299.01996</ele>
        <time>2022-09-30T13:12:45.000Z</time>
      </trkpt>
      <trkpt lat="45.8569" lon="4.6251">
        <ele>299.05109</ele>
        <time>2022-09-30T13:12:46.000Z</time>
      </trkpt>
      <trkpt lat="45.85688" lon="4.62517">
        <ele>298.96417</ele>
        <time>2022-09-30T13:12:47.000Z</time>
      </trkpt>
      <trkpt lat="45.85685" lon="4.62525">
        <ele>298.89478</ele>
        <time>2022-09-30T13:12:48.000Z</time>
      </trkpt>
      <trkpt lat="45.85682" lon="4.62532">
        <ele>298.75839</ele>
        <time>2022-09-30T13:12:49.000Z</time>
      </trkpt>
      <trkpt lat="45.8568" lon="4.62541">
        <ele>298.62567</ele>
        <time>2022-09-30T13:12:50.000Z</time>
      </trkpt>
      <trkpt lat="45.85677" lon="4.6255">
        <ele>298.54901</ele>
        <time>2022-09-30T13:12:51.000Z</time>
      </trkpt>
      <trkpt lat="45.85675" lon="4.62559">
        <ele>298.57404</ele>
        <time>2022-09-30T13:12:52.000Z</time>
      </trkpt>
      <trkpt lat="45.85672" lon="4.62568">
        <ele>298.62485</ele>
        <time>2022-09-30T13:12:53.000Z</time>
      </trkpt>
      <trkpt lat="45.85668" lon="4.62577">
        <ele>298.60428</ele>
        <time>2022-09-30T13:12:54.000Z</time>
      </trkpt>
      <trkpt lat="45.85665" lon="4.62585">
        <ele>298.56082</ele>
        <time>2022-09-30T13:12:55.000Z</time>
      </trkpt>
      <trkpt lat="45.85663" lon="4.62595">
        <ele>298.44702</ele>
        <time>2022-09-30T13:12:56.000Z</time>
      </trkpt>
      <trkpt lat="45.85661" lon="4.62604">
        <ele>298.18472</ele>
        <time>2022-09-30T13:12:57.000Z</time>
      </trkpt>
      <trkpt lat="45.85658" lon="4.62612">
        <ele>297.98627</ele>
        <time>2022-09-30T13:12:58.000Z</time>
      </trkpt>
      <trkpt lat="45.85655" lon="4.62622">
        <ele>297.76428</ele>
        <time>2022-09-30T13:12:59.000Z</time>
      </trkpt>
      <trkpt lat="45.85652" lon="4.62631">
        <ele>297.49594</ele>
        <time>2022-09-30T13:13:00.000Z</time>
      </trkpt>
      <trkpt lat="45.85651" lon="4.6264">
        <ele>297.17841</ele>
        <time>2022-09-30T13:13:01.000Z</time>
      </trkpt>
      <trkpt lat="45.85649" lon="4.62648">
        <ele>296.92798</ele>
        <time>2022-09-30T13:13:02.000Z</time>
      </trkpt>
      <trkpt lat="45.85646" lon="4.62657">
        <ele>296.67642</ele>
        <time>2022-09-30T13:13:03.000Z</time>
      </trkpt>
      <trkpt lat="45.85643" lon="4.62667">
        <ele>296.51334</ele>
        <time>2022-09-30T13:13:04.000Z</time>
      </trkpt>
      <trkpt lat="45.85641" lon="4.62675">
        <ele>296.22052</ele>
        <time>2022-09-30T13:13:05.000Z</time>
      </trkpt>
      <trkpt lat="45.85639" lon="4.62685">
        <ele>295.90552</ele>
        <time>2022-09-30T13:13:06.000Z</time>
      </trkpt>
      <trkpt lat="45.85637" lon="4.62694">
        <ele>295.67645</ele>
        <time>2022-09-30T13:13:07.000Z</time>
      </trkpt>
      <trkpt lat="45.85636" lon="4.62703">
        <ele>295.45816</ele>
        <time>2022-09-30T13:13:08.000Z</time>
      </trkpt>
      <trkpt lat="45.85634" lon="4.62713">
        <ele>295.27512</ele>
        <time>2022-09-30T13:13:09.000Z</time>
      </trkpt>
      <trkpt lat="45.85632" lon="4.62723">
        <ele>295.06772</ele>
        <time>2022-09-30T13:13:10.000Z</time>
      </trkpt>
      <trkpt lat="45.8563" lon="4.62733">
        <ele>294.8172</ele>
        <time>2022-09-30T13:13:11.000Z</time>
      </trkpt>
      <trkpt lat="45.85628" lon="4.62743">
        <ele>294.51624</ele>
        <time>2022-09-30T13:13:12.000Z</time>
      </trkpt>
      <trkpt lat="45.85627" lon="4.62752">
        <ele>294.18881</ele>
        <time>2022-09-30T13:13:13.000Z</time>
      </trkpt>
      <trkpt lat="45.85625" lon="4.62762">
        <ele>293.95554</ele>
        <time>2022-09-30T13:13:14.000Z</time>
      </trkpt>
      <trkpt lat="45.85624" lon="4.62772">
        <ele>293.73462</ele>
        <time>2022-09-30T13:13:15.000Z</time>
      </trkpt>
      <trkpt lat="45.85622" lon="4.62783">
        <ele>293.60443</ele>
        <time>2022-09-30T13:13:16.000Z</time>
      </trkpt>
      <trkpt lat="45.85621" lon="4.62793">
        <ele>293.62692</ele>
        <time>2022-09-30T13:13:17.000Z</time>
      </trkpt>
      <trkpt lat="45.85619" lon="4.62804">
        <ele>293.54916</ele>
        <time>2022-09-30T13:13:18.000Z</time>
      </trkpt>
      <trkpt lat="45.85618" lon="4.62815">
        <ele>293.43863</ele>
        <time>2022-09-30T13:13:19.000Z</time>
      </trkpt>
      <trkpt lat="45.85616" lon="4.62824">
        <ele>293.35632</ele>
        <time>2022-09-30T13:13:20.000Z</time>
      </trkpt>
      <trkpt lat="45.85614" lon="4.62834">
        <ele>293.28784</ele>
        <time>2022-09-30T13:13:21.000Z</time>
      </trkpt>
      <trkpt lat="45.85612" lon="4.62846">
        <ele>293.12515</ele>
        <time>2022-09-30T13:13:22.000Z</time>
      </trkpt>
      <trkpt lat="45.85611" lon="4.62858">
        <ele>292.90637</ele>
        <time>2022-09-30T13:13:23.000Z</time>
      </trkpt>
      <trkpt lat="45.85609" lon="4.6287">
        <ele>292.57941</ele>
        <time>2022-09-30T13:13:24.000Z</time>
      </trkpt>
      <trkpt lat="45.85608" lon="4.62879">
        <ele>292.25238</ele>
        <time>2022-09-30T13:13:25.000Z</time>
      </trkpt>
      <trkpt lat="45.85606" lon="4.62892">
        <ele>291.94415</ele>
        <time>2022-09-30T13:13:26.000Z</time>
      </trkpt>
      <trkpt lat="45.85606" lon="4.62903">
        <ele>291.66052</ele>
        <time>2022-09-30T13:13:27.000Z</time>
      </trkpt>
      <trkpt lat="45.85605" lon="4.62915">
        <ele>291.39664</ele>
        <time>2022-09-30T13:13:28.000Z</time>
      </trkpt>
      <trkpt lat="45.85605" lon="4.62927">
        <ele>291.19086</ele>
        <time>2022-09-30T13:13:29.000Z</time>
      </trkpt>
      <trkpt lat="45.85605" lon="4.62938">
        <ele>290.98965</ele>
        <time>2022-09-30T13:13:30.000Z</time>
      </trkpt>
      <trkpt lat="45.85608" lon="4.62947">
        <ele>290.7262</ele>
        <time>2022-09-30T13:13:31.000Z</time>
      </trkpt>
      <trkpt lat="45.8561" lon="4.62959">
        <ele>290.46982</ele>
        <time>2022-09-30T13:13:32.000Z</time>
      </trkpt>
      <trkpt lat="45.85613" lon="4.62971">
        <ele>290.31195</ele>
        <time>2022-09-30T13:13:33.000Z</time>
      </trkpt>
      <trkpt lat="45.85617" lon="4.62982">
        <ele>290.22083</ele>
        <time>2022-09-30T13:13:34.000Z</time>
      </trkpt>
      <trkpt lat="45.8562" lon="4.62994">
        <ele>290.05426</ele>
        <time>2022-09-30T13:13:35.000Z</time>
      </trkpt>
      <trkpt lat="45.85623" lon="4.63006">
        <ele>289.81229</ele>
        <time>2022-09-30T13:13:36.000Z</time>
      </trkpt>
      <trkpt lat="45.85627" lon="4.63017">
        <ele>289.57501</ele>
        <time>2022-09-30T13:13:37.000Z</time>
      </trkpt>
      <trkpt lat="45.85632" lon="4.63029">
        <ele>289.38199</ele>
        <time>2022-09-30T13:13:38.000Z</time>
      </trkpt>
      <trkpt lat="45.85635" lon="4.63041">
        <ele>289.15735</ele>
        <time>2022-09-30T13:13:39.000Z</time>
      </trkpt>
      <trkpt lat="45.85637" lon="4.63054">
        <ele>288.91403</ele>
        <time>2022-09-30T13:13:40.000Z</time>
      </trkpt>
      <trkpt lat="45.85637" lon="4.63068">
        <ele>288.67572</ele>
        <time>2022-09-30T13:13:41.000Z</time>
      </trkpt>
      <trkpt lat="45.85637" lon="4.63083">
        <ele>288.50943</ele>
        <time>2022-09-30T13:13:42.000Z</time>
      </trkpt>
      <trkpt lat="45.85636" lon="4.63097">
        <ele>288.42017</ele>
        <time>2022-09-30T13:13:43.000Z</time>
      </trkpt>
      <trkpt lat="45.85632" lon="4.63107">
        <ele>288.31299</ele>
        <time>2022-09-30T13:13:44.000Z</time>
      </trkpt>
      <trkpt lat="45.85626" lon="4.6312">
        <ele>288.25449</ele>
        <time>2022-09-30T13:13:45.000Z</time>
      </trkpt>
      <trkpt lat="45.85621" lon="4.6313">
        <ele>288.18695</ele>
        <time>2022-09-30T13:13:46.000Z</time>
      </trkpt>
      <trkpt lat="45.85616" lon="4.63143">
        <ele>288.0538</ele>
        <time>2022-09-30T13:13:47.000Z</time>
      </trkpt>
      <trkpt lat="45.8561" lon="4.63153">
        <ele>287.87201</ele>
        <time>2022-09-30T13:13:48.000Z</time>
      </trkpt>
      <trkpt lat="45.85602" lon="4.63164">
        <ele>287.65936</ele>
        <time>2022-09-30T13:13:49.000Z</time>
      </trkpt>
      <trkpt lat="45.856" lon="4.63176">
        <ele>287.50403</ele>
        <time>2022-09-30T13:13:50.000Z</time>
      </trkpt>
      <trkpt lat="45.8559" lon="4.63182">
        <ele>287.48969</ele>
        <time>2022-09-30T13:13:51.000Z</time>
      </trkpt>
      <trkpt lat="45.85583" lon="4.63192">
        <ele>287.48013</ele>
        <time>2022-09-30T13:13:52.000Z</time>
      </trkpt>
      <trkpt lat="45.85578" lon="4.63203">
        <ele>287.38132</ele>
        <time>2022-09-30T13:13:53.000Z</time>
      </trkpt>
      <trkpt lat="45.85572" lon="4.63214">
        <ele>287.18256</ele>
        <time>2022-09-30T13:13:54.000Z</time>
      </trkpt>
      <trkpt lat="45.85567" lon="4.63227">
        <ele>287.10403</ele>
        <time>2022-09-30T13:13:55.000Z</time>
      </trkpt>
      <trkpt lat="45.85562" lon="4.63241">
        <ele>287.03912</ele>
        <time>2022-09-30T13:13:56.000Z</time>
      </trkpt>
      <trkpt lat="45.85559" lon="4.63254">
        <ele>286.81989</ele>
        <time>2022-09-30T13:13:57.000Z</time>
      </trkpt>
      <trkpt lat="45.85557" lon="4.63267">
        <ele>286.6142</ele>
        <time>2022-09-30T13:13:58.000Z</time>
      </trkpt>
      <trkpt lat="45.85554" lon="4.63282">
        <ele>286.36719</ele>
        <time>2022-09-30T13:13:59.000Z</time>
      </trkpt>
      <trkpt lat="45.8555" lon="4.63297">
        <ele>286.18561</ele>
        <time>2022-09-30T13:14:00.000Z</time>
      </trkpt>
      <trkpt lat="45.85547" lon="4.63311">
        <ele>285.99423</ele>
        <time>2022-09-30T13:14:01.000Z</time>
      </trkpt>
      <trkpt lat="45.85542" lon="4.63324">
        <ele>285.7309</ele>
        <time>2022-09-30T13:14:02.000Z</time>
      </trkpt>
      <trkpt lat="45.85536" lon="4.63336">
        <ele>285.38458</ele>
        <time>2022-09-30T13:14:03.000Z</time>
      </trkpt>
      <trkpt lat="45.85529" lon="4.63346">
        <ele>285.09631</ele>
        <time>2022-09-30T13:14:04.000Z</time>
      </trkpt>
      <trkpt lat="45.85521" lon="4.63357">
        <ele>284.74078</ele>
        <time>2022-09-30T13:14:05.000Z</time>
      </trkpt>
      <trkpt lat="45.85514" lon="4.63365">
        <ele>284.33923</ele>
        <time>2022-09-30T13:14:06.000Z</time>
      </trkpt>
      <trkpt lat="45.85504" lon="4.63372">
        <ele>283.92755</ele>
        <time>2022-09-30T13:14:07.000Z</time>
      </trkpt>
      <trkpt lat="45.85496" lon="4.6338">
        <ele>283.54254</ele>
        <time>2022-09-30T13:14:08.000Z</time>
      </trkpt>
      <trkpt lat="45.85487" lon="4.63388">
        <ele>283.12308</ele>
        <time>2022-09-30T13:14:09.000Z</time>
      </trkpt>
      <trkpt lat="45.8548" lon="4.63397">
        <ele>282.79788</ele>
        <time>2022-09-30T13:14:10.000Z</time>
      </trkpt>
      <trkpt lat="45.85472" lon="4.63406">
        <ele>282.35931</ele>
        <time>2022-09-30T13:14:11.000Z</time>
      </trkpt>
      <trkpt lat="45.85464" lon="4.63416">
        <ele>281.89307</ele>
        <time>2022-09-30T13:14:12.000Z</time>
      </trkpt>
      <trkpt lat="45.85457" lon="4.63428">
        <ele>281.4057</ele>
        <time>2022-09-30T13:14:13.000Z</time>
      </trkpt>
      <trkpt lat="45.8545" lon="4.63439">
        <ele>280.901</ele>
        <time>2022-09-30T13:14:14.000Z</time>
      </trkpt>
      <trkpt lat="45.85444" lon="4.63452">
        <ele>280.29065</ele>
        <time>2022-09-30T13:14:15.000Z</time>
      </trkpt>
      <trkpt lat="45.8544" lon="4.63466">
        <ele>279.67255</ele>
        <time>2022-09-30T13:14:16.000Z</time>
      </trkpt>
      <trkpt lat="45.85437" lon="4.63481">
        <ele>279.20001</ele>
        <time>2022-09-30T13:14:17.000Z</time>
      </trkpt>
      <trkpt lat="45.85435" lon="4.63495">
        <ele>278.63602</ele>
        <time>2022-09-30T13:14:18.000Z</time>
      </trkpt>
      <trkpt lat="45.85434" lon="4.63509">
        <ele>278.1601</ele>
        <time>2022-09-30T13:14:19.000Z</time>
      </trkpt>
      <trkpt lat="45.85435" lon="4.63524">
        <ele>277.54703</ele>
        <time>2022-09-30T13:14:20.000Z</time>
      </trkpt>
      <trkpt lat="45.85436" lon="4.63538">
        <ele>276.94104</ele>
        <time>2022-09-30T13:14:21.000Z</time>
      </trkpt>
      <trkpt lat="45.85435" lon="4.63553">
        <ele>276.24066</ele>
        <time>2022-09-30T13:14:22.000Z</time>
      </trkpt>
      <trkpt lat="45.85436" lon="4.63567">
        <ele>275.57733</ele>
        <time>2022-09-30T13:14:23.000Z</time>
      </trkpt>
      <trkpt lat="45.85435" lon="4.63582">
        <ele>274.66705</ele>
        <time>2022-09-30T13:14:24.000Z</time>
      </trkpt>
      <trkpt lat="45.85436" lon="4.63597">
        <ele>273.78403</ele>
        <time>2022-09-30T13:14:25.000Z</time>
      </trkpt>
      <trkpt lat="45.85436" lon="4.63611">
        <ele>272.84192</ele>
        <time>2022-09-30T13:14:26.000Z</time>
      </trkpt>
      <trkpt lat="45.85436" lon="4.63627">
        <ele>271.9765</ele>
        <time>2022-09-30T13:14:27.000Z</time>
      </trkpt>
      <trkpt lat="45.85436" lon="4.63643">
        <ele>270.99008</ele>
        <time>2022-09-30T13:14:28.000Z</time>
      </trkpt>
      <trkpt lat="45.85436" lon="4.63658">
        <ele>270.01944</ele>
        <time>2022-09-30T13:14:29.000Z</time>
      </trkpt>
      <trkpt lat="45.85434" lon="4.63673">
        <ele>268.92145</ele>
        <time>2022-09-30T13:14:30.000Z</time>
      </trkpt>
      <trkpt lat="45.85433" lon="4.63687">
        <ele>267.87149</ele>
        <time>2022-09-30T13:14:31.000Z</time>
      </trkpt>
      <trkpt lat="45.85429" lon="4.63702">
        <ele>266.81906</ele>
        <time>2022-09-30T13:14:32.000Z</time>
      </trkpt>
      <trkpt lat="45.85427" lon="4.63716">
        <ele>265.82941</ele>
        <time>2022-09-30T13:14:33.000Z</time>
      </trkpt>
      <trkpt lat="45.85421" lon="4.63731">
        <ele>264.81525</ele>
        <time>2022-09-30T13:14:34.000Z</time>
      </trkpt>
      <trkpt lat="45.85415" lon="4.63746">
        <ele>263.8277</ele>
        <time>2022-09-30T13:14:35.000Z</time>
      </trkpt>
      <trkpt lat="45.85407" lon="4.63757">
        <ele>262.90271</ele>
        <time>2022-09-30T13:14:36.000Z</time>
      </trkpt>
      <trkpt lat="45.85402" lon="4.63766">
        <ele>261.88147</ele>
        <time>2022-09-30T13:14:37.000Z</time>
      </trkpt>
      <trkpt lat="45.85395" lon="4.63778">
        <ele>260.94623</ele>
        <time>2022-09-30T13:14:38.000Z</time>
      </trkpt>
      <trkpt lat="45.85386" lon="4.63788">
        <ele>260.05042</ele>
        <time>2022-09-30T13:14:39.000Z</time>
      </trkpt>
      <trkpt lat="45.85378" lon="4.63798">
        <ele>259.25095</ele>
        <time>2022-09-30T13:14:40.000Z</time>
      </trkpt>
      <trkpt lat="45.85373" lon="4.6381">
        <ele>258.40204</ele>
        <time>2022-09-30T13:14:41.000Z</time>
      </trkpt>
      <trkpt lat="45.85365" lon="4.63821">
        <ele>257.6828</ele>
        <time>2022-09-30T13:14:42.000Z</time>
      </trkpt>
      <trkpt lat="45.85358" lon="4.63832">
        <ele>256.92358</ele>
        <time>2022-09-30T13:14:43.000Z</time>
      </trkpt>
      <trkpt lat="45.85352" lon="4.63842">
        <ele>256.40799</ele>
        <time>2022-09-30T13:14:44.000Z</time>
      </trkpt>
      <trkpt lat="45.85345" lon="4.63852">
        <ele>255.92606</ele>
        <time>2022-09-30T13:14:45.000Z</time>
      </trkpt>
      <trkpt lat="45.85337" lon="4.63861">
        <ele>255.55843</ele>
        <time>2022-09-30T13:14:46.000Z</time>
      </trkpt>
      <trkpt lat="45.85329" lon="4.63873">
        <ele>255.06958</ele>
        <time>2022-09-30T13:14:47.000Z</time>
      </trkpt>
      <trkpt lat="45.85321" lon="4.63883">
        <ele>254.65984</ele>
        <time>2022-09-30T13:14:48.000Z</time>
      </trkpt>
      <trkpt lat="45.85312" lon="4.63892">
        <ele>254.28683</ele>
        <time>2022-09-30T13:14:49.000Z</time>
      </trkpt>
      <trkpt lat="45.85303" lon="4.63902">
        <ele>253.84717</ele>
        <time>2022-09-30T13:14:50.000Z</time>
      </trkpt>
      <trkpt lat="45.85295" lon="4.63915">
        <ele>253.30936</ele>
        <time>2022-09-30T13:14:51.000Z</time>
      </trkpt>
      <trkpt lat="45.85289" lon="4.63925">
        <ele>252.73544</ele>
        <time>2022-09-30T13:14:52.000Z</time>
      </trkpt>
      <trkpt lat="45.85282" lon="4.63936">
        <ele>252.11467</ele>
        <time>2022-09-30T13:14:53.000Z</time>
      </trkpt>
      <trkpt lat="45.85275" lon="4.63948">
        <ele>251.51619</ele>
        <time>2022-09-30T13:14:54.000Z</time>
      </trkpt>
      <trkpt lat="45.85269" lon="4.6396">
        <ele>250.95645</ele>
        <time>2022-09-30T13:14:55.000Z</time>
      </trkpt>
      <trkpt lat="45.85264" lon="4.63974">
        <ele>250.34457</ele>
        <time>2022-09-30T13:14:56.000Z</time>
      </trkpt>
      <trkpt lat="45.8526" lon="4.63988">
        <ele>249.80774</ele>
        <time>2022-09-30T13:14:57.000Z</time>
      </trkpt>
      <trkpt lat="45.85256" lon="4.64002">
        <ele>249.2222</ele>
        <time>2022-09-30T13:14:58.000Z</time>
      </trkpt>
      <trkpt lat="45.85253" lon="4.64014">
        <ele>248.57368</ele>
        <time>2022-09-30T13:14:59.000Z</time>
      </trkpt>
      <trkpt lat="45.85251" lon="4.6403">
        <ele>247.86047</ele>
        <time>2022-09-30T13:15:00.000Z</time>
      </trkpt>
      <trkpt lat="45.85249" lon="4.64044">
        <ele>247.21599</ele>
        <time>2022-09-30T13:15:01.000Z</time>
      </trkpt>
      <trkpt lat="45.85248" lon="4.64057">
        <ele>246.50867</ele>
        <time>2022-09-30T13:15:02.000Z</time>
      </trkpt>
      <trkpt lat="45.85246" lon="4.6407">
        <ele>245.82866</ele>
        <time>2022-09-30T13:15:03.000Z</time>
      </trkpt>
      <trkpt lat="45.85244" lon="4.64086">
        <ele>245.13896</ele>
        <time>2022-09-30T13:15:04.000Z</time>
      </trkpt>
      <trkpt lat="45.85244" lon="4.64101">
        <ele>244.44287</ele>
        <time>2022-09-30T13:15:05.000Z</time>
      </trkpt>
      <trkpt lat="45.85242" lon="4.64114">
        <ele>243.72092</ele>
        <time>2022-09-30T13:15:06.000Z</time>
      </trkpt>
      <trkpt lat="45.85241" lon="4.64128">
        <ele>243.0356</ele>
        <time>2022-09-30T13:15:07.000Z</time>
      </trkpt>
      <trkpt lat="45.85241" lon="4.64142">
        <ele>242.39966</ele>
        <time>2022-09-30T13:15:08.000Z</time>
      </trkpt>
      <trkpt lat="45.8524" lon="4.64157">
        <ele>241.75117</ele>
        <time>2022-09-30T13:15:09.000Z</time>
      </trkpt>
      <trkpt lat="45.85239" lon="4.64169">
        <ele>241.14944</ele>
        <time>2022-09-30T13:15:10.000Z</time>
      </trkpt>
      <trkpt lat="45.85243" lon="4.64185">
        <ele>240.6246</ele>
        <time>2022-09-30T13:15:11.000Z</time>
      </trkpt>
      <trkpt lat="45.85245" lon="4.64199">
        <ele>240.19055</ele>
        <time>2022-09-30T13:15:12.000Z</time>
      </trkpt>
      <trkpt lat="45.85247" lon="4.64215">
        <ele>239.77518</ele>
        <time>2022-09-30T13:15:13.000Z</time>
      </trkpt>
      <trkpt lat="45.85248" lon="4.64231">
        <ele>239.46606</ele>
        <time>2022-09-30T13:15:14.000Z</time>
      </trkpt>
      <trkpt lat="45.85249" lon="4.64247">
        <ele>239.20325</ele>
        <time>2022-09-30T13:15:15.000Z</time>
      </trkpt>
      <trkpt lat="45.85249" lon="4.64262">
        <ele>238.91887</ele>
        <time>2022-09-30T13:15:16.000Z</time>
      </trkpt>
      <trkpt lat="45.8525" lon="4.64275">
        <ele>238.59248</ele>
        <time>2022-09-30T13:15:17.000Z</time>
      </trkpt>
      <trkpt lat="45.85246" lon="4.64288">
        <ele>238.2135</ele>
        <time>2022-09-30T13:15:18.000Z</time>
      </trkpt>
      <trkpt lat="45.85241" lon="4.64301">
        <ele>237.74861</ele>
        <time>2022-09-30T13:15:19.000Z</time>
      </trkpt>
      <trkpt lat="45.85235" lon="4.64312">
        <ele>237.33928</ele>
        <time>2022-09-30T13:15:20.000Z</time>
      </trkpt>
      <trkpt lat="45.85228" lon="4.64322">
        <ele>236.89844</ele>
        <time>2022-09-30T13:15:21.000Z</time>
      </trkpt>
      <trkpt lat="45.85221" lon="4.64332">
        <ele>236.49539</ele>
        <time>2022-09-30T13:15:22.000Z</time>
      </trkpt>
      <trkpt lat="45.85214" lon="4.64339">
        <ele>236.11653</ele>
        <time>2022-09-30T13:15:23.000Z</time>
      </trkpt>
      <trkpt lat="45.85206" lon="4.64349">
        <ele>235.7406</ele>
        <time>2022-09-30T13:15:24.000Z</time>
      </trkpt>
      <trkpt lat="45.85199" lon="4.64359">
        <ele>235.26981</ele>
        <time>2022-09-30T13:15:25.000Z</time>
      </trkpt>
      <trkpt lat="45.85191" lon="4.64366">
        <ele>234.74368</ele>
        <time>2022-09-30T13:15:26.000Z</time>
      </trkpt>
      <trkpt lat="45.85185" lon="4.64377">
        <ele>234.22469</ele>
        <time>2022-09-30T13:15:27.000Z</time>
      </trkpt>
      <trkpt lat="45.85179" lon="4.64388">
        <ele>233.67778</ele>
        <time>2022-09-30T13:15:28.000Z</time>
      </trkpt>
      <trkpt lat="45.85174" lon="4.64401">
        <ele>233.07816</ele>
        <time>2022-09-30T13:15:29.000Z</time>
      </trkpt>
      <trkpt lat="45.85169" lon="4.64415">
        <ele>232.47351</ele>
        <time>2022-09-30T13:15:30.000Z</time>
      </trkpt>
      <trkpt lat="45.85165" lon="4.6443">
        <ele>231.83145</ele>
        <time>2022-09-30T13:15:31.000Z</time>
      </trkpt>
      <trkpt lat="45.8516" lon="4.64445">
        <ele>231.12749</ele>
        <time>2022-09-30T13:15:32.000Z</time>
      </trkpt>
      <trkpt lat="45.85159" lon="4.6446">
        <ele>230.44844</ele>
        <time>2022-09-30T13:15:33.000Z</time>
      </trkpt>
      <trkpt lat="45.85159" lon="4.64475">
        <ele>229.56938</ele>
        <time>2022-09-30T13:15:34.000Z</time>
      </trkpt>
      <trkpt lat="45.8516" lon="4.64489">
        <ele>228.6326</ele>
        <time>2022-09-30T13:15:35.000Z</time>
      </trkpt>
      <trkpt lat="45.85161" lon="4.64503">
        <ele>227.7153</ele>
        <time>2022-09-30T13:15:36.000Z</time>
      </trkpt>
      <trkpt lat="45.85161" lon="4.64516">
        <ele>226.76929</ele>
        <time>2022-09-30T13:15:37.000Z</time>
      </trkpt>
      <trkpt lat="45.85161" lon="4.64529">
        <ele>225.89636</ele>
        <time>2022-09-30T13:15:38.000Z</time>
      </trkpt>
      <trkpt lat="45.8516" lon="4.64534">
        <ele>225.07986</ele>
        <time>2022-09-30T13:15:39.000Z</time>
      </trkpt>
      <trkpt lat="45.85153" lon="4.64537">
        <ele>224.30569</ele>
        <time>2022-09-30T13:15:40.000Z</time>
      </trkpt>
      <trkpt lat="45.85148" lon="4.64541">
        <ele>223.56137</ele>
        <time>2022-09-30T13:15:41.000Z</time>
      </trkpt>
      <trkpt lat="45.85145" lon="4.64543">
        <ele>222.87003</ele>
        <time>2022-09-30T13:15:42.000Z</time>
      </trkpt>
      <trkpt lat="45.85141" lon="4.64544">
        <ele>222.17009</ele>
        <time>2022-09-30T13:15:43.000Z</time>
      </trkpt>
      <trkpt lat="45.85138" lon="4.64546">
        <ele>221.47794</ele>
        <time>2022-09-30T13:15:44.000Z</time>
      </trkpt>
      <trkpt lat="45.85134" lon="4.64545">
        <ele>220.90059</ele>
        <time>2022-09-30T13:15:45.000Z</time>
      </trkpt>
      <trkpt lat="45.8513" lon="4.64545">
        <ele>220.37735</ele>
        <time>2022-09-30T13:15:46.000Z</time>
      </trkpt>
      <trkpt lat="45.85127" lon="4.64548">
        <ele>219.86719</ele>
        <time>2022-09-30T13:15:47.000Z</time>
      </trkpt>
      <trkpt lat="45.85125" lon="4.64549">
        <ele>219.44031</ele>
        <time>2022-09-30T13:15:48.000Z</time>
      </trkpt>
      <trkpt lat="45.85122" lon="4.64552">
        <ele>219.1022</ele>
        <time>2022-09-30T13:15:49.000Z</time>
      </trkpt>
      <trkpt lat="45.85123" lon="4.64557">
        <ele>218.76755</ele>
        <time>2022-09-30T13:15:50.000Z</time>
      </trkpt>
      <trkpt lat="45.85124" lon="4.64563">
        <ele>218.44983</ele>
        <time>2022-09-30T13:15:51.000Z</time>
      </trkpt>
      <trkpt lat="45.85125" lon="4.64569">
        <ele>218.11368</ele>
        <time>2022-09-30T13:15:52.000Z</time>
      </trkpt>
      <trkpt lat="45.85125" lon="4.64576">
        <ele>217.85518</ele>
        <time>2022-09-30T13:15:53.000Z</time>
      </trkpt>
      <trkpt lat="45.85124" lon="4.64584">
        <ele>217.73943</ele>
        <time>2022-09-30T13:15:54.000Z</time>
      </trkpt>
      <trkpt lat="45.85125" lon="4.64593">
        <ele>217.65787</ele>
        <time>2022-09-30T13:15:55.000Z</time>
      </trkpt>
      <trkpt lat="45.85124" lon="4.64601">
        <ele>217.6967</ele>
        <time>2022-09-30T13:15:56.000Z</time>
      </trkpt>
      <trkpt lat="45.85126" lon="4.6461">
        <ele>217.80974</ele>
        <time>2022-09-30T13:15:57.000Z</time>
      </trkpt>
      <trkpt lat="45.85127" lon="4.6462">
        <ele>217.97798</ele>
        <time>2022-09-30T13:15:58.000Z</time>
      </trkpt>
      <trkpt lat="45.85129" lon="4.64628">
        <ele>218.17276</ele>
        <time>2022-09-30T13:15:59.000Z</time>
      </trkpt>
      <trkpt lat="45.8513" lon="4.64638">
        <ele>218.33322</ele>
        <time>2022-09-30T13:16:00.000Z</time>
      </trkpt>
      <trkpt lat="45.8513" lon="4.64647">
        <ele>218.45854</ele>
        <time>2022-09-30T13:16:01.000Z</time>
      </trkpt>
      <trkpt lat="45.85131" lon="4.64657">
        <ele>218.5717</ele>
        <time>2022-09-30T13:16:02.000Z</time>
      </trkpt>
      <trkpt lat="45.85135" lon="4.64667">
        <ele>218.76485</ele>
        <time>2022-09-30T13:16:03.000Z</time>
      </trkpt>
      <trkpt lat="45.85136" lon="4.64676">
        <ele>218.9438</ele>
        <time>2022-09-30T13:16:04.000Z</time>
      </trkpt>
      <trkpt lat="45.85139" lon="4.64685">
        <ele>219.07451</ele>
        <time>2022-09-30T13:16:05.000Z</time>
      </trkpt>
      <trkpt lat="45.85142" lon="4.64694">
        <ele>219.25134</ele>
        <time>2022-09-30T13:16:06.000Z</time>
      </trkpt>
      <trkpt lat="45.85144" lon="4.64704">
        <ele>219.47844</ele>
        <time>2022-09-30T13:16:07.000Z</time>
      </trkpt>
      <trkpt lat="45.85147" lon="4.64712">
        <ele>219.67366</ele>
        <time>2022-09-30T13:16:08.000Z</time>
      </trkpt>
      <trkpt lat="45.8515" lon="4.6472">
        <ele>219.85327</ele>
        <time>2022-09-30T13:16:09.000Z</time>
      </trkpt>
      <trkpt lat="45.85154" lon="4.64729">
        <ele>220.05801</ele>
        <time>2022-09-30T13:16:10.000Z</time>
      </trkpt>
      <trkpt lat="45.85157" lon="4.64738">
        <ele>220.30363</ele>
        <time>2022-09-30T13:16:11.000Z</time>
      </trkpt>
      <trkpt lat="45.8516" lon="4.64747">
        <ele>220.61655</ele>
        <time>2022-09-30T13:16:12.000Z</time>
      </trkpt>
      <trkpt lat="45.85163" lon="4.64756">
        <ele>220.80281</ele>
        <time>2022-09-30T13:16:13.000Z</time>
      </trkpt>
      <trkpt lat="45.85166" lon="4.64766">
        <ele>220.98483</ele>
        <time>2022-09-30T13:16:14.000Z</time>
      </trkpt>
      <trkpt lat="45.8517" lon="4.64774">
        <ele>221.17294</ele>
        <time>2022-09-30T13:16:15.000Z</time>
      </trkpt>
      <trkpt lat="45.85174" lon="4.64781">
        <ele>221.25708</ele>
        <time>2022-09-30T13:16:16.000Z</time>
      </trkpt>
      <trkpt lat="45.85177" lon="4.6479">
        <ele>221.32426</ele>
        <time>2022-09-30T13:16:17.000Z</time>
      </trkpt>
      <trkpt lat="45.85181" lon="4.64796">
        <ele>221.32687</ele>
        <time>2022-09-30T13:16:18.000Z</time>
      </trkpt>
      <trkpt lat="45.85183" lon="4.64803">
        <ele>221.31943</ele>
        <time>2022-09-30T13:16:19.000Z</time>
      </trkpt>
      <trkpt lat="45.85187" lon="4.64809">
        <ele>221.33684</ele>
        <time>2022-09-30T13:16:20.000Z</time>
      </trkpt>
      <trkpt lat="45.85191" lon="4.64815">
        <ele>221.39885</ele>
        <time>2022-09-30T13:16:21.000Z</time>
      </trkpt>
      <trkpt lat="45.85193" lon="4.64827">
        <ele>221.479</ele>
        <time>2022-09-30T13:16:22.000Z</time>
      </trkpt>
      <trkpt lat="45.85196" lon="4.64843">
        <ele>221.48514</ele>
        <time>2022-09-30T13:16:23.000Z</time>
      </trkpt>
      <trkpt lat="45.852" lon="4.64844">
        <ele>221.49068</ele>
        <time>2022-09-30T13:16:24.000Z</time>
      </trkpt>
      <trkpt lat="45.85204" lon="4.64853">
        <ele>221.58174</ele>
        <time>2022-09-30T13:16:25.000Z</time>
      </trkpt>
      <trkpt lat="45.8521" lon="4.64856">
        <ele>221.57556</ele>
        <time>2022-09-30T13:16:26.000Z</time>
      </trkpt>
      <trkpt lat="45.85214" lon="4.64864">
        <ele>221.49182</ele>
        <time>2022-09-30T13:16:27.000Z</time>
      </trkpt>
      <trkpt lat="45.85216" lon="4.64875">
        <ele>221.47104</ele>
        <time>2022-09-30T13:16:28.000Z</time>
      </trkpt>
      <trkpt lat="45.8522" lon="4.6488">
        <ele>221.39896</ele>
        <time>2022-09-30T13:16:29.000Z</time>
      </trkpt>
      <trkpt lat="45.85224" lon="4.64888">
        <ele>221.26643</ele>
        <time>2022-09-30T13:16:30.000Z</time>
      </trkpt>
      <trkpt lat="45.85229" lon="4.64894">
        <ele>221.13326</ele>
        <time>2022-09-30T13:16:31.000Z</time>
      </trkpt>
      <trkpt lat="45.85233" lon="4.649">
        <ele>220.96138</ele>
        <time>2022-09-30T13:16:32.000Z</time>
      </trkpt>
      <trkpt lat="45.85238" lon="4.64908">
        <ele>220.74789</ele>
        <time>2022-09-30T13:16:33.000Z</time>
      </trkpt>
      <trkpt lat="45.85242" lon="4.64915">
        <ele>220.50864</ele>
        <time>2022-09-30T13:16:34.000Z</time>
      </trkpt>
      <trkpt lat="45.85248" lon="4.64922">
        <ele>220.24759</ele>
        <time>2022-09-30T13:16:35.000Z</time>
      </trkpt>
      <trkpt lat="45.85254" lon="4.64927">
        <ele>220.02371</ele>
        <time>2022-09-30T13:16:36.000Z</time>
      </trkpt>
      <trkpt lat="45.85259" lon="4.64935">
        <ele>219.8429</ele>
        <time>2022-09-30T13:16:37.000Z</time>
      </trkpt>
      <trkpt lat="45.85263" lon="4.64945">
        <ele>219.6521</ele>
        <time>2022-09-30T13:16:38.000Z</time>
      </trkpt>
      <trkpt lat="45.85267" lon="4.64958">
        <ele>219.50528</ele>
        <time>2022-09-30T13:16:39.000Z</time>
      </trkpt>
      <trkpt lat="45.85276" lon="4.6496">
        <ele>219.20374</ele>
        <time>2022-09-30T13:16:40.000Z</time>
      </trkpt>
      <trkpt lat="45.85281" lon="4.64969">
        <ele>218.84985</ele>
        <time>2022-09-30T13:16:41.000Z</time>
      </trkpt>
      <trkpt lat="45.85312" lon="4.65001">
        <ele>218.49089</ele>
        <time>2022-09-30T13:16:47.000Z</time>
      </trkpt>
      <trkpt lat="45.85319" lon="4.65007">
        <ele>218.13318</ele>
        <time>2022-09-30T13:16:48.000Z</time>
      </trkpt>
      <trkpt lat="45.85323" lon="4.65013">
        <ele>217.78378</ele>
        <time>2022-09-30T13:16:49.000Z</time>
      </trkpt>
      <trkpt lat="45.85328" lon="4.65018">
        <ele>217.42728</ele>
        <time>2022-09-30T13:16:50.000Z</time>
      </trkpt>
      <trkpt lat="45.85332" lon="4.65023">
        <ele>217.19353</ele>
        <time>2022-09-30T13:16:51.000Z</time>
      </trkpt>
      <trkpt lat="45.85337" lon="4.65031">
        <ele>216.9426</ele>
        <time>2022-09-30T13:16:52.000Z</time>
      </trkpt>
      <trkpt lat="45.85342" lon="4.65034">
        <ele>216.72575</ele>
        <time>2022-09-30T13:16:53.000Z</time>
      </trkpt>
      <trkpt lat="45.85347" lon="4.65039">
        <ele>216.58659</ele>
        <time>2022-09-30T13:16:54.000Z</time>
      </trkpt>
      <trkpt lat="45.8535" lon="4.65045">
        <ele>216.39114</ele>
        <time>2022-09-30T13:16:55.000Z</time>
      </trkpt>
      <trkpt lat="45.85355" lon="4.65049">
        <ele>216.20987</ele>
        <time>2022-09-30T13:16:56.000Z</time>
      </trkpt>
      <trkpt lat="45.85361" lon="4.65054">
        <ele>216.00998</ele>
        <time>2022-09-30T13:16:57.000Z</time>
      </trkpt>
      <trkpt lat="45.85367" lon="4.65059">
        <ele>215.84167</ele>
        <time>2022-09-30T13:16:58.000Z</time>
      </trkpt>
      <trkpt lat="45.85372" lon="4.65063">
        <ele>215.65007</ele>
        <time>2022-09-30T13:16:59.000Z</time>
      </trkpt>
      <trkpt lat="45.85378" lon="4.65069">
        <ele>215.39217</ele>
        <time>2022-09-30T13:17:00.000Z</time>
      </trkpt>
      <trkpt lat="45.85383" lon="4.65077">
        <ele>215.07303</ele>
        <time>2022-09-30T13:17:01.000Z</time>
      </trkpt>
      <trkpt lat="45.85389" lon="4.65081">
        <ele>214.70113</ele>
        <time>2022-09-30T13:17:02.000Z</time>
      </trkpt>
      <trkpt lat="45.85396" lon="4.65084">
        <ele>214.34323</ele>
        <time>2022-09-30T13:17:03.000Z</time>
      </trkpt>
      <trkpt lat="45.85401" lon="4.65091">
        <ele>214.0417</ele>
        <time>2022-09-30T13:17:04.000Z</time>
      </trkpt>
      <trkpt lat="45.85405" lon="4.65098">
        <ele>213.84644</ele>
        <time>2022-09-30T13:17:05.000Z</time>
      </trkpt>
      <trkpt lat="45.85409" lon="4.65105">
        <ele>213.7144</ele>
        <time>2022-09-30T13:17:06.000Z</time>
      </trkpt>
      <trkpt lat="45.85413" lon="4.65111">
        <ele>213.62064</ele>
        <time>2022-09-30T13:17:07.000Z</time>
      </trkpt>
      <trkpt lat="45.85422" lon="4.65115">
        <ele>213.50606</ele>
        <time>2022-09-30T13:17:08.000Z</time>
      </trkpt>
      <trkpt lat="45.85427" lon="4.6512">
        <ele>213.40469</ele>
        <time>2022-09-30T13:17:09.000Z</time>
      </trkpt>
      <trkpt lat="45.85431" lon="4.65128">
        <ele>213.20334</ele>
        <time>2022-09-30T13:17:10.000Z</time>
      </trkpt>
      <trkpt lat="45.85439" lon="4.65132">
        <ele>212.91183</ele>
        <time>2022-09-30T13:17:11.000Z</time>
      </trkpt>
      <trkpt lat="45.85444" lon="4.65135">
        <ele>212.67583</ele>
        <time>2022-09-30T13:17:12.000Z</time>
      </trkpt>
      <trkpt lat="45.85452" lon="4.65134">
        <ele>212.30911</ele>
        <time>2022-09-30T13:17:13.000Z</time>
      </trkpt>
      <trkpt lat="45.85458" lon="4.65143">
        <ele>211.90109</ele>
        <time>2022-09-30T13:17:14.000Z</time>
      </trkpt>
      <trkpt lat="45.85466" lon="4.65146">
        <ele>211.57706</ele>
        <time>2022-09-30T13:17:15.000Z</time>
      </trkpt>
      <trkpt lat="45.85473" lon="4.65148">
        <ele>211.23726</ele>
        <time>2022-09-30T13:17:16.000Z</time>
      </trkpt>
      <trkpt lat="45.8548" lon="4.65156">
        <ele>210.90381</ele>
        <time>2022-09-30T13:17:17.000Z</time>
      </trkpt>
      <trkpt lat="45.85489" lon="4.65159">
        <ele>210.69559</ele>
        <time>2022-09-30T13:17:18.000Z</time>
      </trkpt>
      <trkpt lat="45.85495" lon="4.65164">
        <ele>210.45963</ele>
        <time>2022-09-30T13:17:19.000Z</time>
      </trkpt>
      <trkpt lat="45.85501" lon="4.65172">
        <ele>210.2292</ele>
        <time>2022-09-30T13:17:20.000Z</time>
      </trkpt>
      <trkpt lat="45.85505" lon="4.65181">
        <ele>210.02127</ele>
        <time>2022-09-30T13:17:21.000Z</time>
      </trkpt>
      <trkpt lat="45.85511" lon="4.65189">
        <ele>209.77933</ele>
        <time>2022-09-30T13:17:22.000Z</time>
      </trkpt>
      <trkpt lat="45.85517" lon="4.65194">
        <ele>209.60031</ele>
        <time>2022-09-30T13:17:23.000Z</time>
      </trkpt>
      <trkpt lat="45.85521" lon="4.65201">
        <ele>209.33968</ele>
        <time>2022-09-30T13:17:24.000Z</time>
      </trkpt>
      <trkpt lat="45.85526" lon="4.65206">
        <ele>209.10762</ele>
        <time>2022-09-30T13:17:25.000Z</time>
      </trkpt>
      <trkpt lat="45.85531" lon="4.6521">
        <ele>208.89771</ele>
        <time>2022-09-30T13:17:26.000Z</time>
      </trkpt>
      <trkpt lat="45.85536" lon="4.65216">
        <ele>208.61179</ele>
        <time>2022-09-30T13:17:27.000Z</time>
      </trkpt>
      <trkpt lat="45.85542" lon="4.65221">
        <ele>208.3623</ele>
        <time>2022-09-30T13:17:28.000Z</time>
      </trkpt>
      <trkpt lat="45.85547" lon="4.65226">
        <ele>208.18294</ele>
        <time>2022-09-30T13:17:29.000Z</time>
      </trkpt>
      <trkpt lat="45.85552" lon="4.65229">
        <ele>208.16548</ele>
        <time>2022-09-30T13:17:30.000Z</time>
      </trkpt>
      <trkpt lat="45.85558" lon="4.65232">
        <ele>208.19417</ele>
        <time>2022-09-30T13:17:31.000Z</time>
      </trkpt>
      <trkpt lat="45.85564" lon="4.65234">
        <ele>208.26462</ele>
        <time>2022-09-30T13:17:32.000Z</time>
      </trkpt>
      <trkpt lat="45.85569" lon="4.65237">
        <ele>208.30489</ele>
        <time>2022-09-30T13:17:33.000Z</time>
      </trkpt>
      <trkpt lat="45.85575" lon="4.6524">
        <ele>208.35713</ele>
        <time>2022-09-30T13:17:34.000Z</time>
      </trkpt>
      <trkpt lat="45.85581" lon="4.65244">
        <ele>208.42876</ele>
        <time>2022-09-30T13:17:35.000Z</time>
      </trkpt>
      <trkpt lat="45.85587" lon="4.65246">
        <ele>208.53532</ele>
        <time>2022-09-30T13:17:36.000Z</time>
      </trkpt>
      <trkpt lat="45.85592" lon="4.65247">
        <ele>208.7336</ele>
        <time>2022-09-30T13:17:37.000Z</time>
      </trkpt>
      <trkpt lat="45.85598" lon="4.65252">
        <ele>208.84256</ele>
        <time>2022-09-30T13:17:38.000Z</time>
      </trkpt>
      <trkpt lat="45.85606" lon="4.65255">
        <ele>209.00919</ele>
        <time>2022-09-30T13:17:39.000Z</time>
      </trkpt>
      <trkpt lat="45.85612" lon="4.65259">
        <ele>209.19055</ele>
        <time>2022-09-30T13:17:40.000Z</time>
      </trkpt>
      <trkpt lat="45.85619" lon="4.65262">
        <ele>209.36826</ele>
        <time>2022-09-30T13:17:41.000Z</time>
      </trkpt>
      <trkpt lat="45.85624" lon="4.65266">
        <ele>209.57327</ele>
        <time>2022-09-30T13:17:42.000Z</time>
      </trkpt>
      <trkpt lat="45.85631" lon="4.65269">
        <ele>209.74141</ele>
        <time>2022-09-30T13:17:43.000Z</time>
      </trkpt>
      <trkpt lat="45.85637" lon="4.65273">
        <ele>209.96887</ele>
        <time>2022-09-30T13:17:44.000Z</time>
      </trkpt>
      <trkpt lat="45.85643" lon="4.65276">
        <ele>210.18491</ele>
        <time>2022-09-30T13:17:45.000Z</time>
      </trkpt>
      <trkpt lat="45.85649" lon="4.65281">
        <ele>210.38945</ele>
        <time>2022-09-30T13:17:46.000Z</time>
      </trkpt>
      <trkpt lat="45.85655" lon="4.6528">
        <ele>210.6434</ele>
        <time>2022-09-30T13:17:47.000Z</time>
      </trkpt>
      <trkpt lat="45.85661" lon="4.65287">
        <ele>210.82449</ele>
        <time>2022-09-30T13:17:48.000Z</time>
      </trkpt>
      <trkpt lat="45.85668" lon="4.6529">
        <ele>210.86429</ele>
        <time>2022-09-30T13:17:49.000Z</time>
      </trkpt>
      <trkpt lat="45.85675" lon="4.65294">
        <ele>210.74808</ele>
        <time>2022-09-30T13:17:50.000Z</time>
      </trkpt>
      <trkpt lat="45.85677" lon="4.65302">
        <ele>210.56433</ele>
        <time>2022-09-30T13:17:51.000Z</time>
      </trkpt>
      <trkpt lat="45.85681" lon="4.65309">
        <ele>210.35649</ele>
        <time>2022-09-30T13:17:52.000Z</time>
      </trkpt>
      <trkpt lat="45.85685" lon="4.65313">
        <ele>210.24057</ele>
        <time>2022-09-30T13:17:53.000Z</time>
      </trkpt>
      <trkpt lat="45.85688" lon="4.65319">
        <ele>210.1187</ele>
        <time>2022-09-30T13:17:54.000Z</time>
      </trkpt>
      <trkpt lat="45.85692" lon="4.65325">
        <ele>210.02121</ele>
        <time>2022-09-30T13:17:55.000Z</time>
      </trkpt>
      <trkpt lat="45.85697" lon="4.65327">
        <ele>209.93246</ele>
        <time>2022-09-30T13:17:56.000Z</time>
      </trkpt>
      <trkpt lat="45.85703" lon="4.6533">
        <ele>209.71306</ele>
        <time>2022-09-30T13:17:57.000Z</time>
      </trkpt>
      <trkpt lat="45.85706" lon="4.65341">
        <ele>209.48067</ele>
        <time>2022-09-30T13:17:58.000Z</time>
      </trkpt>
      <trkpt lat="45.85712" lon="4.65344">
        <ele>209.23845</ele>
        <time>2022-09-30T13:17:59.000Z</time>
      </trkpt>
      <trkpt lat="45.85716" lon="4.65348">
        <ele>209.02983</ele>
        <time>2022-09-30T13:18:00.000Z</time>
      </trkpt>
      <trkpt lat="45.85722" lon="4.65355">
        <ele>208.73499</ele>
        <time>2022-09-30T13:18:01.000Z</time>
      </trkpt>
      <trkpt lat="45.85724" lon="4.65364">
        <ele>208.44742</ele>
        <time>2022-09-30T13:18:02.000Z</time>
      </trkpt>
      <trkpt lat="45.85728" lon="4.65373">
        <ele>208.22681</ele>
        <time>2022-09-30T13:18:03.000Z</time>
      </trkpt>
      <trkpt lat="45.8573" lon="4.65383">
        <ele>207.97871</ele>
        <time>2022-09-30T13:18:04.000Z</time>
      </trkpt>
      <trkpt lat="45.85733" lon="4.65394">
        <ele>207.80525</ele>
        <time>2022-09-30T13:18:05.000Z</time>
      </trkpt>
      <trkpt lat="45.85735" lon="4.65402">
        <ele>207.61482</ele>
        <time>2022-09-30T13:18:06.000Z</time>
      </trkpt>
      <trkpt lat="45.85738" lon="4.6541">
        <ele>207.35165</ele>
        <time>2022-09-30T13:18:07.000Z</time>
      </trkpt>
      <trkpt lat="45.8574" lon="4.65419">
        <ele>207.15129</ele>
        <time>2022-09-30T13:18:08.000Z</time>
      </trkpt>
      <trkpt lat="45.85741" lon="4.65429">
        <ele>206.9642</ele>
        <time>2022-09-30T13:18:09.000Z</time>
      </trkpt>
      <trkpt lat="45.85745" lon="4.65435">
        <ele>206.84631</ele>
        <time>2022-09-30T13:18:10.000Z</time>
      </trkpt>
      <trkpt lat="45.85747" lon="4.65445">
        <ele>206.80136</ele>
        <time>2022-09-30T13:18:11.000Z</time>
      </trkpt>
      <trkpt lat="45.8575" lon="4.65454">
        <ele>206.83423</ele>
        <time>2022-09-30T13:18:12.000Z</time>
      </trkpt>
      <trkpt lat="45.85754" lon="4.65463">
        <ele>206.8306</ele>
        <time>2022-09-30T13:18:13.000Z</time>
      </trkpt>
      <trkpt lat="45.85755" lon="4.65472">
        <ele>206.82028</ele>
        <time>2022-09-30T13:18:14.000Z</time>
      </trkpt>
      <trkpt lat="45.85757" lon="4.65482">
        <ele>206.81836</ele>
        <time>2022-09-30T13:18:15.000Z</time>
      </trkpt>
      <trkpt lat="45.8576" lon="4.65491">
        <ele>206.74719</ele>
        <time>2022-09-30T13:18:16.000Z</time>
      </trkpt>
      <trkpt lat="45.85763" lon="4.655">
        <ele>206.81693</ele>
        <time>2022-09-30T13:18:17.000Z</time>
      </trkpt>
      <trkpt lat="45.85767" lon="4.65507">
        <ele>206.85721</ele>
        <time>2022-09-30T13:18:18.000Z</time>
      </trkpt>
      <trkpt lat="45.8577" lon="4.65515">
        <ele>207.00864</ele>
        <time>2022-09-30T13:18:19.000Z</time>
      </trkpt>
      <trkpt lat="45.85774" lon="4.65527">
        <ele>207.1572</ele>
        <time>2022-09-30T13:18:20.000Z</time>
      </trkpt>
      <trkpt lat="45.85777" lon="4.65534">
        <ele>207.41891</ele>
        <time>2022-09-30T13:18:21.000Z</time>
      </trkpt>
      <trkpt lat="45.85782" lon="4.65545">
        <ele>207.61047</ele>
        <time>2022-09-30T13:18:22.000Z</time>
      </trkpt>
      <trkpt lat="45.85786" lon="4.65554">
        <ele>207.73601</ele>
        <time>2022-09-30T13:18:23.000Z</time>
      </trkpt>
      <trkpt lat="45.85789" lon="4.65561">
        <ele>207.85225</ele>
        <time>2022-09-30T13:18:24.000Z</time>
      </trkpt>
      <trkpt lat="45.85793" lon="4.65569">
        <ele>207.96487</ele>
        <time>2022-09-30T13:18:25.000Z</time>
      </trkpt>
      <trkpt lat="45.85796" lon="4.65576">
        <ele>208.0406</ele>
        <time>2022-09-30T13:18:26.000Z</time>
      </trkpt>
      <trkpt lat="45.85801" lon="4.65584">
        <ele>208.205</ele>
        <time>2022-09-30T13:18:27.000Z</time>
      </trkpt>
      <trkpt lat="45.85805" lon="4.65589">
        <ele>208.4158</ele>
        <time>2022-09-30T13:18:28.000Z</time>
      </trkpt>
      <trkpt lat="45.85809" lon="4.65596">
        <ele>208.62895</ele>
        <time>2022-09-30T13:18:29.000Z</time>
      </trkpt>
      <trkpt lat="45.85813" lon="4.65603">
        <ele>208.81392</ele>
        <time>2022-09-30T13:18:30.000Z</time>
      </trkpt>
      <trkpt lat="45.85817" lon="4.6561">
        <ele>208.91483</ele>
        <time>2022-09-30T13:18:31.000Z</time>
      </trkpt>
      <trkpt lat="45.85821" lon="4.65617">
        <ele>208.98984</ele>
        <time>2022-09-30T13:18:32.000Z</time>
      </trkpt>
      <trkpt lat="45.85825" lon="4.65625">
        <ele>209.09253</ele>
        <time>2022-09-30T13:18:33.000Z</time>
      </trkpt>
      <trkpt lat="45.85829" lon="4.65632">
        <ele>209.17778</ele>
        <time>2022-09-30T13:18:34.000Z</time>
      </trkpt>
      <trkpt lat="45.85833" lon="4.6564">
        <ele>209.17575</ele>
        <time>2022-09-30T13:18:35.000Z</time>
      </trkpt>
      <trkpt lat="45.85837" lon="4.65649">
        <ele>209.17534</ele>
        <time>2022-09-30T13:18:36.000Z</time>
      </trkpt>
      <trkpt lat="45.8584" lon="4.65656">
        <ele>209.09366</ele>
        <time>2022-09-30T13:18:37.000Z</time>
      </trkpt>
      <trkpt lat="45.85843" lon="4.65664">
        <ele>209.01945</ele>
        <time>2022-09-30T13:18:38.000Z</time>
      </trkpt>
      <trkpt lat="45.85845" lon="4.65671">
        <ele>208.77527</ele>
        <time>2022-09-30T13:18:39.000Z</time>
      </trkpt>
      <trkpt lat="45.85848" lon="4.65679">
        <ele>208.46652</ele>
        <time>2022-09-30T13:18:40.000Z</time>
      </trkpt>
      <trkpt lat="45.85851" lon="4.65688">
        <ele>208.08675</ele>
        <time>2022-09-30T13:18:41.000Z</time>
      </trkpt>
      <trkpt lat="45.85855" lon="4.65695">
        <ele>207.78828</ele>
        <time>2022-09-30T13:18:42.000Z</time>
      </trkpt>
      <trkpt lat="45.85858" lon="4.65702">
        <ele>207.43228</ele>
        <time>2022-09-30T13:18:43.000Z</time>
      </trkpt>
      <trkpt lat="45.85862" lon="4.65711">
        <ele>207.06953</ele>
        <time>2022-09-30T13:18:44.000Z</time>
      </trkpt>
      <trkpt lat="45.85864" lon="4.65719">
        <ele>206.62199</ele>
        <time>2022-09-30T13:18:45.000Z</time>
      </trkpt>
      <trkpt lat="45.85866" lon="4.65728">
        <ele>206.16443</ele>
        <time>2022-09-30T13:18:46.000Z</time>
      </trkpt>
      <trkpt lat="45.85868" lon="4.65737">
        <ele>205.6497</ele>
        <time>2022-09-30T13:18:47.000Z</time>
      </trkpt>
      <trkpt lat="45.85868" lon="4.65746">
        <ele>205.07837</ele>
        <time>2022-09-30T13:18:48.000Z</time>
      </trkpt>
      <trkpt lat="45.8587" lon="4.65756">
        <ele>204.53561</ele>
        <time>2022-09-30T13:18:49.000Z</time>
      </trkpt>
      <trkpt lat="45.85872" lon="4.65765">
        <ele>204.07188</ele>
        <time>2022-09-30T13:18:50.000Z</time>
      </trkpt>
      <trkpt lat="45.85873" lon="4.65774">
        <ele>203.71684</ele>
        <time>2022-09-30T13:18:51.000Z</time>
      </trkpt>
      <trkpt lat="45.85872" lon="4.65785">
        <ele>203.27988</ele>
        <time>2022-09-30T13:18:52.000Z</time>
      </trkpt>
      <trkpt lat="45.85872" lon="4.65795">
        <ele>202.83768</ele>
        <time>2022-09-30T13:18:53.000Z</time>
      </trkpt>
      <trkpt lat="45.85873" lon="4.65805">
        <ele>202.37251</ele>
        <time>2022-09-30T13:18:54.000Z</time>
      </trkpt>
      <trkpt lat="45.8587" lon="4.65812">
        <ele>201.9836</ele>
        <time>2022-09-30T13:18:55.000Z</time>
      </trkpt>
      <trkpt lat="45.85867" lon="4.65823">
        <ele>201.55049</ele>
        <time>2022-09-30T13:18:56.000Z</time>
      </trkpt>
      <trkpt lat="45.85864" lon="4.6583">
        <ele>201.15079</ele>
        <time>2022-09-30T13:18:57.000Z</time>
      </trkpt>
      <trkpt lat="45.85862" lon="4.6584">
        <ele>200.80917</ele>
        <time>2022-09-30T13:18:58.000Z</time>
      </trkpt>
      <trkpt lat="45.85858" lon="4.6585">
        <ele>200.62476</ele>
        <time>2022-09-30T13:18:59.000Z</time>
      </trkpt>
      <trkpt lat="45.85854" lon="4.65859">
        <ele>200.50443</ele>
        <time>2022-09-30T13:19:00.000Z</time>
      </trkpt>
      <trkpt lat="45.8585" lon="4.65869">
        <ele>200.3997</ele>
        <time>2022-09-30T13:19:01.000Z</time>
      </trkpt>
      <trkpt lat="45.85845" lon="4.65877">
        <ele>200.28836</ele>
        <time>2022-09-30T13:19:02.000Z</time>
      </trkpt>
      <trkpt lat="45.8584" lon="4.65885">
        <ele>200.21245</ele>
        <time>2022-09-30T13:19:03.000Z</time>
      </trkpt>
      <trkpt lat="45.85835" lon="4.65891">
        <ele>200.19681</ele>
        <time>2022-09-30T13:19:04.000Z</time>
      </trkpt>
      <trkpt lat="45.85829" lon="4.65897">
        <ele>200.24232</ele>
        <time>2022-09-30T13:19:05.000Z</time>
      </trkpt>
      <trkpt lat="45.85825" lon="4.65902">
        <ele>200.32249</ele>
        <time>2022-09-30T13:19:06.000Z</time>
      </trkpt>
      <trkpt lat="45.85819" lon="4.6591">
        <ele>200.43236</ele>
        <time>2022-09-30T13:19:07.000Z</time>
      </trkpt>
      <trkpt lat="45.85814" lon="4.65915">
        <ele>200.47472</ele>
        <time>2022-09-30T13:19:08.000Z</time>
      </trkpt>
      <trkpt lat="45.85808" lon="4.65919">
        <ele>200.59659</ele>
        <time>2022-09-30T13:19:09.000Z</time>
      </trkpt>
      <trkpt lat="45.85803" lon="4.65926">
        <ele>200.63521</ele>
        <time>2022-09-30T13:19:10.000Z</time>
      </trkpt>
      <trkpt lat="45.85798" lon="4.6593">
        <ele>200.67146</ele>
        <time>2022-09-30T13:19:11.000Z</time>
      </trkpt>
      <trkpt lat="45.85792" lon="4.65938">
        <ele>200.66057</ele>
        <time>2022-09-30T13:19:12.000Z</time>
      </trkpt>
      <trkpt lat="45.85787" lon="4.65945">
        <ele>200.5723</ele>
        <time>2022-09-30T13:19:13.000Z</time>
      </trkpt>
      <trkpt lat="45.85782" lon="4.6595">
        <ele>200.43265</ele>
        <time>2022-09-30T13:19:14.000Z</time>
      </trkpt>
      <trkpt lat="45.85777" lon="4.65954">
        <ele>200.36021</ele>
        <time>2022-09-30T13:19:15.000Z</time>
      </trkpt>
      <trkpt lat="45.85772" lon="4.65959">
        <ele>200.33499</ele>
        <time>2022-09-30T13:19:16.000Z</time>
      </trkpt>
      <trkpt lat="45.85766" lon="4.65965">
        <ele>200.27907</ele>
        <time>2022-09-30T13:19:17.000Z</time>
      </trkpt>
      <trkpt lat="45.85761" lon="4.65969">
        <ele>200.24771</ele>
        <time>2022-09-30T13:19:18.000Z</time>
      </trkpt>
      <trkpt lat="45.85756" lon="4.65974">
        <ele>200.13156</ele>
        <time>2022-09-30T13:19:19.000Z</time>
      </trkpt>
      <trkpt lat="45.85751" lon="4.6598">
        <ele>200.02763</ele>
        <time>2022-09-30T13:19:20.000Z</time>
      </trkpt>
      <trkpt lat="45.85747" lon="4.65987">
        <ele>200.04614</ele>
        <time>2022-09-30T13:19:21.000Z</time>
      </trkpt>
      <trkpt lat="45.85743" lon="4.65994">
        <ele>200.08717</ele>
        <time>2022-09-30T13:19:22.000Z</time>
      </trkpt>
      <trkpt lat="45.8574" lon="4.66003">
        <ele>200.02603</ele>
        <time>2022-09-30T13:19:23.000Z</time>
      </trkpt>
      <trkpt lat="45.85737" lon="4.66012">
        <ele>199.91647</ele>
        <time>2022-09-30T13:19:24.000Z</time>
      </trkpt>
      <trkpt lat="45.85735" lon="4.66018">
        <ele>199.83829</ele>
        <time>2022-09-30T13:19:25.000Z</time>
      </trkpt>
      <trkpt lat="45.85733" lon="4.66026">
        <ele>199.74045</ele>
        <time>2022-09-30T13:19:26.000Z</time>
      </trkpt>
      <trkpt lat="45.8573" lon="4.66034">
        <ele>199.62631</ele>
        <time>2022-09-30T13:19:27.000Z</time>
      </trkpt>
      <trkpt lat="45.85727" lon="4.66043">
        <ele>199.59868</ele>
        <time>2022-09-30T13:19:28.000Z</time>
      </trkpt>
      <trkpt lat="45.85727" lon="4.66051">
        <ele>199.52377</ele>
        <time>2022-09-30T13:19:29.000Z</time>
      </trkpt>
      <trkpt lat="45.85726" lon="4.66059">
        <ele>199.52158</ele>
        <time>2022-09-30T13:19:30.000Z</time>
      </trkpt>
      <trkpt lat="45.85725" lon="4.66066">
        <ele>199.46982</ele>
        <time>2022-09-30T13:19:31.000Z</time>
      </trkpt>
      <trkpt lat="45.85723" lon="4.66076">
        <ele>199.49562</ele>
        <time>2022-09-30T13:19:32.000Z</time>
      </trkpt>
      <trkpt lat="45.85721" lon="4.66086">
        <ele>199.5118</ele>
        <time>2022-09-30T13:19:33.000Z</time>
      </trkpt>
      <trkpt lat="45.85719" lon="4.66095">
        <ele>199.61438</ele>
        <time>2022-09-30T13:19:34.000Z</time>
      </trkpt>
      <trkpt lat="45.85717" lon="4.66106">
        <ele>199.64935</ele>
        <time>2022-09-30T13:19:35.000Z</time>
      </trkpt>
      <trkpt lat="45.85716" lon="4.66117">
        <ele>199.67905</ele>
        <time>2022-09-30T13:19:36.000Z</time>
      </trkpt>
      <trkpt lat="45.85715" lon="4.66124">
        <ele>199.78543</ele>
        <time>2022-09-30T13:19:37.000Z</time>
      </trkpt>
      <trkpt lat="45.85712" lon="4.66135">
        <ele>199.80954</ele>
        <time>2022-09-30T13:19:38.000Z</time>
      </trkpt>
      <trkpt lat="45.8571" lon="4.66144">
        <ele>199.81589</ele>
        <time>2022-09-30T13:19:39.000Z</time>
      </trkpt>
      <trkpt lat="45.8571" lon="4.66152">
        <ele>199.82008</ele>
        <time>2022-09-30T13:19:40.000Z</time>
      </trkpt>
      <trkpt lat="45.85709" lon="4.6616">
        <ele>199.65186</ele>
        <time>2022-09-30T13:19:41.000Z</time>
      </trkpt>
      <trkpt lat="45.85707" lon="4.6617">
        <ele>199.46161</ele>
        <time>2022-09-30T13:19:42.000Z</time>
      </trkpt>
      <trkpt lat="45.85706" lon="4.66177">
        <ele>199.48123</ele>
        <time>2022-09-30T13:19:43.000Z</time>
      </trkpt>
      <trkpt lat="45.85704" lon="4.66185">
        <ele>199.53702</ele>
        <time>2022-09-30T13:19:44.000Z</time>
      </trkpt>
      <trkpt lat="45.857" lon="4.66194">
        <ele>199.53275</ele>
        <time>2022-09-30T13:19:45.000Z</time>
      </trkpt>
      <trkpt lat="45.85698" lon="4.66203">
        <ele>199.55409</ele>
        <time>2022-09-30T13:19:46.000Z</time>
      </trkpt>
      <trkpt lat="45.85696" lon="4.66212">
        <ele>199.5806</ele>
        <time>2022-09-30T13:19:47.000Z</time>
      </trkpt>
      <trkpt lat="45.85696" lon="4.6622">
        <ele>199.58723</ele>
        <time>2022-09-30T13:19:48.000Z</time>
      </trkpt>
      <trkpt lat="45.85695" lon="4.6623">
        <ele>199.49983</ele>
        <time>2022-09-30T13:19:49.000Z</time>
      </trkpt>
      <trkpt lat="45.85693" lon="4.6624">
        <ele>199.35033</ele>
        <time>2022-09-30T13:19:50.000Z</time>
      </trkpt>
      <trkpt lat="45.85692" lon="4.66249">
        <ele>199.20937</ele>
        <time>2022-09-30T13:19:51.000Z</time>
      </trkpt>
      <trkpt lat="45.8569" lon="4.66257">
        <ele>199.08521</ele>
        <time>2022-09-30T13:19:52.000Z</time>
      </trkpt>
      <trkpt lat="45.85689" lon="4.66265">
        <ele>199.02022</ele>
        <time>2022-09-30T13:19:53.000Z</time>
      </trkpt>
      <trkpt lat="45.85686" lon="4.66273">
        <ele>199.0128</ele>
        <time>2022-09-30T13:19:54.000Z</time>
      </trkpt>
      <trkpt lat="45.85684" lon="4.66281">
        <ele>199.03906</ele>
        <time>2022-09-30T13:19:55.000Z</time>
      </trkpt>
      <trkpt lat="45.85682" lon="4.66289">
        <ele>199.06892</ele>
        <time>2022-09-30T13:19:56.000Z</time>
      </trkpt>
      <trkpt lat="45.8568" lon="4.66296">
        <ele>199.15872</ele>
        <time>2022-09-30T13:19:57.000Z</time>
      </trkpt>
      <trkpt lat="45.85678" lon="4.66304">
        <ele>199.24072</ele>
        <time>2022-09-30T13:19:58.000Z</time>
      </trkpt>
      <trkpt lat="45.85675" lon="4.66312">
        <ele>199.33282</ele>
        <time>2022-09-30T13:19:59.000Z</time>
      </trkpt>
      <trkpt lat="45.85672" lon="4.6632">
        <ele>199.44681</ele>
        <time>2022-09-30T13:20:00.000Z</time>
      </trkpt>
      <trkpt lat="45.85669" lon="4.66327">
        <ele>199.73051</ele>
        <time>2022-09-30T13:20:01.000Z</time>
      </trkpt>
      <trkpt lat="45.85667" lon="4.66335">
        <ele>200.01828</ele>
        <time>2022-09-30T13:20:02.000Z</time>
      </trkpt>
      <trkpt lat="45.85664" lon="4.66342">
        <ele>200.27336</ele>
        <time>2022-09-30T13:20:03.000Z</time>
      </trkpt>
      <trkpt lat="45.8566" lon="4.66349">
        <ele>200.51913</ele>
        <time>2022-09-30T13:20:04.000Z</time>
      </trkpt>
      <trkpt lat="45.85656" lon="4.66357">
        <ele>200.78122</ele>
        <time>2022-09-30T13:20:05.000Z</time>
      </trkpt>
      <trkpt lat="45.85653" lon="4.66365">
        <ele>201.01462</ele>
        <time>2022-09-30T13:20:06.000Z</time>
      </trkpt>
      <trkpt lat="45.8565" lon="4.66373">
        <ele>201.27226</ele>
        <time>2022-09-30T13:20:07.000Z</time>
      </trkpt>
      <trkpt lat="45.85648" lon="4.6638">
        <ele>201.54288</ele>
        <time>2022-09-30T13:20:08.000Z</time>
      </trkpt>
      <trkpt lat="45.85647" lon="4.66389">
        <ele>201.91829</ele>
        <time>2022-09-30T13:20:09.000Z</time>
      </trkpt>
      <trkpt lat="45.85644" lon="4.66398">
        <ele>202.3298</ele>
        <time>2022-09-30T13:20:10.000Z</time>
      </trkpt>
      <trkpt lat="45.85642" lon="4.66405">
        <ele>202.79312</ele>
        <time>2022-09-30T13:20:11.000Z</time>
      </trkpt>
      <trkpt lat="45.8564" lon="4.66413">
        <ele>203.24551</ele>
        <time>2022-09-30T13:20:12.000Z</time>
      </trkpt>
      <trkpt lat="45.85639" lon="4.6642">
        <ele>203.69571</ele>
        <time>2022-09-30T13:20:13.000Z</time>
      </trkpt>
      <trkpt lat="45.85637" lon="4.66428">
        <ele>204.14059</ele>
        <time>2022-09-30T13:20:14.000Z</time>
      </trkpt>
      <trkpt lat="45.85636" lon="4.66436">
        <ele>204.51016</ele>
        <time>2022-09-30T13:20:15.000Z</time>
      </trkpt>
      <trkpt lat="45.85636" lon="4.66445">
        <ele>204.87708</ele>
        <time>2022-09-30T13:20:16.000Z</time>
      </trkpt>
      <trkpt lat="45.85635" lon="4.66452">
        <ele>205.0022</ele>
        <time>2022-09-30T13:20:17.000Z</time>
      </trkpt>
      <trkpt lat="45.85634" lon="4.66462">
        <ele>205.19357</ele>
        <time>2022-09-30T13:20:18.000Z</time>
      </trkpt>
      <trkpt lat="45.85633" lon="4.66471">
        <ele>205.36438</ele>
        <time>2022-09-30T13:20:19.000Z</time>
      </trkpt>
      <trkpt lat="45.85632" lon="4.6648">
        <ele>205.47708</ele>
        <time>2022-09-30T13:20:20.000Z</time>
      </trkpt>
      <trkpt lat="45.85631" lon="4.66488">
        <ele>205.49765</ele>
        <time>2022-09-30T13:20:21.000Z</time>
      </trkpt>
      <trkpt lat="45.8563" lon="4.66496">
        <ele>205.54868</ele>
        <time>2022-09-30T13:20:22.000Z</time>
      </trkpt>
      <trkpt lat="45.85629" lon="4.66505">
        <ele>205.5461</ele>
        <time>2022-09-30T13:20:23.000Z</time>
      </trkpt>
      <trkpt lat="45.85628" lon="4.66513">
        <ele>205.4561</ele>
        <time>2022-09-30T13:20:24.000Z</time>
      </trkpt>
      <trkpt lat="45.85627" lon="4.66521">
        <ele>205.36552</ele>
        <time>2022-09-30T13:20:25.000Z</time>
      </trkpt>
      <trkpt lat="45.85627" lon="4.66529">
        <ele>205.26106</ele>
        <time>2022-09-30T13:20:26.000Z</time>
      </trkpt>
      <trkpt lat="45.85626" lon="4.66538">
        <ele>205.18918</ele>
        <time>2022-09-30T13:20:27.000Z</time>
      </trkpt>
      <trkpt lat="45.85623" lon="4.66547">
        <ele>205.16739</ele>
        <time>2022-09-30T13:20:28.000Z</time>
      </trkpt>
      <trkpt lat="45.85623" lon="4.66558">
        <ele>205.11345</ele>
        <time>2022-09-30T13:20:29.000Z</time>
      </trkpt>
      <trkpt lat="45.85622" lon="4.66566">
        <ele>205.08061</ele>
        <time>2022-09-30T13:20:30.000Z</time>
      </trkpt>
      <trkpt lat="45.85622" lon="4.66579">
        <ele>205.01469</ele>
        <time>2022-09-30T13:20:31.000Z</time>
      </trkpt>
      <trkpt lat="45.85621" lon="4.66587">
        <ele>204.91641</ele>
        <time>2022-09-30T13:20:32.000Z</time>
      </trkpt>
      <trkpt lat="45.85619" lon="4.66596">
        <ele>204.8085</ele>
        <time>2022-09-30T13:20:33.000Z</time>
      </trkpt>
      <trkpt lat="45.8562" lon="4.66604">
        <ele>204.62711</ele>
        <time>2022-09-30T13:20:34.000Z</time>
      </trkpt>
      <trkpt lat="45.85619" lon="4.66612">
        <ele>204.51266</ele>
        <time>2022-09-30T13:20:35.000Z</time>
      </trkpt>
      <trkpt lat="45.85619" lon="4.66622">
        <ele>204.41446</ele>
        <time>2022-09-30T13:20:36.000Z</time>
      </trkpt>
      <trkpt lat="45.8562" lon="4.66628">
        <ele>204.48483</ele>
        <time>2022-09-30T13:20:37.000Z</time>
      </trkpt>
      <trkpt lat="45.85619" lon="4.66639">
        <ele>204.49469</ele>
        <time>2022-09-30T13:20:38.000Z</time>
      </trkpt>
      <trkpt lat="45.85617" lon="4.66648">
        <ele>204.60899</ele>
        <time>2022-09-30T13:20:39.000Z</time>
      </trkpt>
      <trkpt lat="45.85616" lon="4.66656">
        <ele>204.7317</ele>
        <time>2022-09-30T13:20:40.000Z</time>
      </trkpt>
      <trkpt lat="45.85616" lon="4.66662">
        <ele>204.98393</ele>
        <time>2022-09-30T13:20:41.000Z</time>
      </trkpt>
      <trkpt lat="45.85616" lon="4.6667">
        <ele>205.29182</ele>
        <time>2022-09-30T13:20:42.000Z</time>
      </trkpt>
      <trkpt lat="45.85617" lon="4.66678">
        <ele>205.60527</ele>
        <time>2022-09-30T13:20:43.000Z</time>
      </trkpt>
      <trkpt lat="45.85617" lon="4.66687">
        <ele>206.00974</ele>
        <time>2022-09-30T13:20:44.000Z</time>
      </trkpt>
      <trkpt lat="45.85618" lon="4.66695">
        <ele>206.41599</ele>
        <time>2022-09-30T13:20:45.000Z</time>
      </trkpt>
      <trkpt lat="45.85617" lon="4.66704">
        <ele>206.84077</ele>
        <time>2022-09-30T13:20:46.000Z</time>
      </trkpt>
      <trkpt lat="45.85616" lon="4.66712">
        <ele>207.0883</ele>
        <time>2022-09-30T13:20:47.000Z</time>
      </trkpt>
      <trkpt lat="45.85617" lon="4.66721">
        <ele>207.20566</ele>
        <time>2022-09-30T13:20:48.000Z</time>
      </trkpt>
      <trkpt lat="45.85618" lon="4.66729">
        <ele>207.30429</ele>
        <time>2022-09-30T13:20:49.000Z</time>
      </trkpt>
      <trkpt lat="45.85619" lon="4.66738">
        <ele>207.3772</ele>
        <time>2022-09-30T13:20:50.000Z</time>
      </trkpt>
      <trkpt lat="45.8562" lon="4.66747">
        <ele>207.38086</ele>
        <time>2022-09-30T13:20:51.000Z</time>
      </trkpt>
      <trkpt lat="45.85621" lon="4.66757">
        <ele>207.40494</ele>
        <time>2022-09-30T13:20:52.000Z</time>
      </trkpt>
      <trkpt lat="45.85622" lon="4.66766">
        <ele>207.45554</ele>
        <time>2022-09-30T13:20:53.000Z</time>
      </trkpt>
      <trkpt lat="45.85623" lon="4.66774">
        <ele>207.57388</ele>
        <time>2022-09-30T13:20:54.000Z</time>
      </trkpt>
      <trkpt lat="45.85624" lon="4.66781">
        <ele>207.65633</ele>
        <time>2022-09-30T13:20:55.000Z</time>
      </trkpt>
      <trkpt lat="45.85625" lon="4.66789">
        <ele>207.80717</ele>
        <time>2022-09-30T13:20:56.000Z</time>
      </trkpt>
      <trkpt lat="45.85627" lon="4.66798">
        <ele>207.89246</ele>
        <time>2022-09-30T13:20:57.000Z</time>
      </trkpt>
      <trkpt lat="45.8563" lon="4.66807">
        <ele>208.04297</ele>
        <time>2022-09-30T13:20:58.000Z</time>
      </trkpt>
      <trkpt lat="45.85633" lon="4.66815">
        <ele>208.11345</ele>
        <time>2022-09-30T13:20:59.000Z</time>
      </trkpt>
      <trkpt lat="45.85636" lon="4.66822">
        <ele>208.14429</ele>
        <time>2022-09-30T13:21:00.000Z</time>
      </trkpt>
      <trkpt lat="45.85639" lon="4.66829">
        <ele>208.04465</ele>
        <time>2022-09-30T13:21:01.000Z</time>
      </trkpt>
      <trkpt lat="45.85642" lon="4.66836">
        <ele>207.86862</ele>
        <time>2022-09-30T13:21:02.000Z</time>
      </trkpt>
      <trkpt lat="45.85647" lon="4.66842">
        <ele>207.69942</ele>
        <time>2022-09-30T13:21:03.000Z</time>
      </trkpt>
      <trkpt lat="45.85652" lon="4.66847">
        <ele>207.47681</ele>
        <time>2022-09-30T13:21:04.000Z</time>
      </trkpt>
      <trkpt lat="45.85657" lon="4.66851">
        <ele>207.20627</ele>
        <time>2022-09-30T13:21:05.000Z</time>
      </trkpt>
      <trkpt lat="45.85662" lon="4.66857">
        <ele>206.9268</ele>
        <time>2022-09-30T13:21:06.000Z</time>
      </trkpt>
      <trkpt lat="45.85667" lon="4.66863">
        <ele>206.71841</ele>
        <time>2022-09-30T13:21:07.000Z</time>
      </trkpt>
      <trkpt lat="45.85673" lon="4.66868">
        <ele>206.61453</ele>
        <time>2022-09-30T13:21:08.000Z</time>
      </trkpt>
      <trkpt lat="45.85678" lon="4.66873">
        <ele>206.59973</ele>
        <time>2022-09-30T13:21:09.000Z</time>
      </trkpt>
      <trkpt lat="45.85683" lon="4.66879">
        <ele>206.54858</ele>
        <time>2022-09-30T13:21:10.000Z</time>
      </trkpt>
      <trkpt lat="45.85687" lon="4.66884">
        <ele>206.59009</ele>
        <time>2022-09-30T13:21:11.000Z</time>
      </trkpt>
      <trkpt lat="45.8569" lon="4.66891">
        <ele>206.62183</ele>
        <time>2022-09-30T13:21:12.000Z</time>
      </trkpt>
      <trkpt lat="45.85692" lon="4.66897">
        <ele>206.58696</ele>
        <time>2022-09-30T13:21:13.000Z</time>
      </trkpt>
      <trkpt lat="45.85692" lon="4.66901">
        <ele>206.53069</ele>
        <time>2022-09-30T13:21:14.000Z</time>
      </trkpt>
      <trkpt lat="45.85692" lon="4.66904">
        <ele>206.43999</ele>
        <time>2022-09-30T13:21:15.000Z</time>
      </trkpt>
      <trkpt lat="45.85691" lon="4.66907">
        <ele>206.27783</ele>
        <time>2022-09-30T13:21:17.000Z</time>
      </trkpt>
      <trkpt lat="45.85688" lon="4.66907">
        <ele>206.10727</ele>
        <time>2022-09-30T13:21:18.000Z</time>
      </trkpt>
      <trkpt lat="45.85686" lon="4.66909">
        <ele>205.95891</ele>
        <time>2022-09-30T13:21:19.000Z</time>
      </trkpt>
      <trkpt lat="45.85683" lon="4.66913">
        <ele>205.87512</ele>
        <time>2022-09-30T13:21:20.000Z</time>
      </trkpt>
      <trkpt lat="45.85679" lon="4.66914">
        <ele>205.82353</ele>
        <time>2022-09-30T13:21:21.000Z</time>
      </trkpt>
      <trkpt lat="45.85675" lon="4.66915">
        <ele>205.78255</ele>
        <time>2022-09-30T13:21:22.000Z</time>
      </trkpt>
      <trkpt lat="45.85671" lon="4.66916">
        <ele>205.75142</ele>
        <time>2022-09-30T13:21:23.000Z</time>
      </trkpt>
      <trkpt lat="45.85665" lon="4.66916">
        <ele>205.65446</ele>
        <time>2022-09-30T13:21:24.000Z</time>
      </trkpt>
      <trkpt lat="45.8566" lon="4.66917">
        <ele>205.49467</ele>
        <time>2022-09-30T13:21:25.000Z</time>
      </trkpt>
      <trkpt lat="45.85653" lon="4.66918">
        <ele>205.35513</ele>
        <time>2022-09-30T13:21:26.000Z</time>
      </trkpt>
      <trkpt lat="45.85647" lon="4.6692">
        <ele>205.22749</ele>
        <time>2022-09-30T13:21:27.000Z</time>
      </trkpt>
      <trkpt lat="45.8564" lon="4.66921">
        <ele>205.05669</ele>
        <time>2022-09-30T13:21:28.000Z</time>
      </trkpt>
      <trkpt lat="45.85633" lon="4.66922">
        <ele>204.86116</ele>
        <time>2022-09-30T13:21:29.000Z</time>
      </trkpt>
      <trkpt lat="45.85626" lon="4.66923">
        <ele>204.64999</ele>
        <time>2022-09-30T13:21:30.000Z</time>
      </trkpt>
      <trkpt lat="45.8562" lon="4.66925">
        <ele>204.43077</ele>
        <time>2022-09-30T13:21:31.000Z</time>
      </trkpt>
      <trkpt lat="45.85613" lon="4.6693">
        <ele>204.10773</ele>
        <time>2022-09-30T13:21:32.000Z</time>
      </trkpt>
      <trkpt lat="45.85606" lon="4.66933">
        <ele>203.80453</ele>
        <time>2022-09-30T13:21:33.000Z</time>
      </trkpt>
      <trkpt lat="45.85599" lon="4.66935">
        <ele>203.51625</ele>
        <time>2022-09-30T13:21:34.000Z</time>
      </trkpt>
      <trkpt lat="45.85593" lon="4.66936">
        <ele>203.27571</ele>
        <time>2022-09-30T13:21:35.000Z</time>
      </trkpt>
      <trkpt lat="45.85587" lon="4.66938">
        <ele>203.1165</ele>
        <time>2022-09-30T13:21:36.000Z</time>
      </trkpt>
      <trkpt lat="45.85581" lon="4.6694">
        <ele>202.96223</ele>
        <time>2022-09-30T13:21:37.000Z</time>
      </trkpt>
      <trkpt lat="45.85575" lon="4.66941">
        <ele>202.8465</ele>
        <time>2022-09-30T13:21:38.000Z</time>
      </trkpt>
      <trkpt lat="45.8557" lon="4.66943">
        <ele>202.71091</ele>
        <time>2022-09-30T13:21:39.000Z</time>
      </trkpt>
      <trkpt lat="45.85564" lon="4.66943">
        <ele>202.54672</ele>
        <time>2022-09-30T13:21:40.000Z</time>
      </trkpt>
      <trkpt lat="45.85559" lon="4.66944">
        <ele>202.49742</ele>
        <time>2022-09-30T13:21:41.000Z</time>
      </trkpt>
      <trkpt lat="45.85553" lon="4.66945">
        <ele>202.43518</ele>
        <time>2022-09-30T13:21:42.000Z</time>
      </trkpt>
      <trkpt lat="45.85549" lon="4.66946">
        <ele>202.33902</ele>
        <time>2022-09-30T13:21:43.000Z</time>
      </trkpt>
      <trkpt lat="45.85546" lon="4.66947">
        <ele>202.33418</ele>
        <time>2022-09-30T13:21:44.000Z</time>
      </trkpt>
      <trkpt lat="45.85542" lon="4.6695">
        <ele>202.36879</ele>
        <time>2022-09-30T13:21:45.000Z</time>
      </trkpt>
      <trkpt lat="45.85539" lon="4.6695">
        <ele>202.40236</ele>
        <time>2022-09-30T13:21:46.000Z</time>
      </trkpt>
      <trkpt lat="45.85534" lon="4.66951">
        <ele>202.44629</ele>
        <time>2022-09-30T13:21:47.000Z</time>
      </trkpt>
      <trkpt lat="45.85533" lon="4.66955">
        <ele>202.58913</ele>
        <time>2022-09-30T13:21:48.000Z</time>
      </trkpt>
      <trkpt lat="45.85533" lon="4.66959">
        <ele>202.72234</ele>
        <time>2022-09-30T13:21:49.000Z</time>
      </trkpt>
      <trkpt lat="45.85535" lon="4.66961">
        <ele>202.87296</ele>
        <time>2022-09-30T13:21:50.000Z</time>
      </trkpt>
      <trkpt lat="45.85537" lon="4.66966">
        <ele>203.08713</ele>
        <time>2022-09-30T13:21:51.000Z</time>
      </trkpt>
      <trkpt lat="45.85538" lon="4.66969">
        <ele>203.40706</ele>
        <time>2022-09-30T13:21:52.000Z</time>
      </trkpt>
      <trkpt lat="45.85539" lon="4.66973">
        <ele>203.77544</ele>
        <time>2022-09-30T13:21:53.000Z</time>
      </trkpt>
      <trkpt lat="45.8554" lon="4.66976">
        <ele>204.2328</ele>
        <time>2022-09-30T13:21:54.000Z</time>
      </trkpt>
      <trkpt lat="45.85542" lon="4.6698">
        <ele>204.67807</ele>
        <time>2022-09-30T13:21:55.000Z</time>
      </trkpt>
      <trkpt lat="45.85544" lon="4.66984">
        <ele>205.08516</ele>
        <time>2022-09-30T13:21:56.000Z</time>
      </trkpt>
      <trkpt lat="45.85546" lon="4.66989">
        <ele>205.46643</ele>
        <time>2022-09-30T13:21:57.000Z</time>
      </trkpt>
      <trkpt lat="45.85548" lon="4.66993">
        <ele>205.83623</ele>
        <time>2022-09-30T13:21:58.000Z</time>
      </trkpt>
      <trkpt lat="45.8555" lon="4.66998">
        <ele>206.12593</ele>
        <time>2022-09-30T13:21:59.000Z</time>
      </trkpt>
      <trkpt lat="45.8555" lon="4.67002">
        <ele>206.44585</ele>
        <time>2022-09-30T13:22:00.000Z</time>
      </trkpt>
      <trkpt lat="45.85549" lon="4.67003">
        <ele>206.59732</ele>
        <time>2022-09-30T13:22:05.000Z</time>
      </trkpt>
      <trkpt lat="45.85549" lon="4.67006">
        <ele>206.79887</ele>
        <time>2022-09-30T13:22:57.000Z</time>
      </trkpt>
      <trkpt lat="45.8555" lon="4.67009">
        <ele>206.95293</ele>
        <time>2022-09-30T13:22:58.000Z</time>
      </trkpt>
      <trkpt lat="45.85552" lon="4.67012">
        <ele>207.07222</ele>
        <time>2022-09-30T13:22:59.000Z</time>
      </trkpt>
      <trkpt lat="45.85553" lon="4.67016">
        <ele>207.22144</ele>
        <time>2022-09-30T13:23:00.000Z</time>
      </trkpt>
      <trkpt lat="45.85555" lon="4.6702">
        <ele>207.37947</ele>
        <time>2022-09-30T13:23:01.000Z</time>
      </trkpt>
      <trkpt lat="45.85555" lon="4.67024">
        <ele>207.47595</ele>
        <time>2022-09-30T13:23:02.000Z</time>
      </trkpt>
      <trkpt lat="45.85556" lon="4.67028">
        <ele>207.5125</ele>
        <time>2022-09-30T13:23:03.000Z</time>
      </trkpt>
      <trkpt lat="45.85557" lon="4.67032">
        <ele>207.54643</ele>
        <time>2022-09-30T13:23:04.000Z</time>
      </trkpt>
      <trkpt lat="45.85559" lon="4.67037">
        <ele>207.53459</ele>
        <time>2022-09-30T13:23:05.000Z</time>
      </trkpt>
      <trkpt lat="45.8556" lon="4.67041">
        <ele>207.49409</ele>
        <time>2022-09-30T13:23:06.000Z</time>
      </trkpt>
      <trkpt lat="45.85561" lon="4.67045">
        <ele>207.40474</ele>
        <time>2022-09-30T13:23:07.000Z</time>
      </trkpt>
      <trkpt lat="45.85562" lon="4.67048">
        <ele>207.29305</ele>
        <time>2022-09-30T13:23:08.000Z</time>
      </trkpt>
      <trkpt lat="45.85563" lon="4.67051">
        <ele>207.14595</ele>
        <time>2022-09-30T13:23:09.000Z</time>
      </trkpt>
      <trkpt lat="45.85563" lon="4.67054">
        <ele>206.90634</ele>
        <time>2022-09-30T13:23:10.000Z</time>
      </trkpt>
      <trkpt lat="45.85565" lon="4.67057">
        <ele>206.63144</ele>
        <time>2022-09-30T13:23:11.000Z</time>
      </trkpt>
      <trkpt lat="45.85566" lon="4.6706">
        <ele>206.38492</ele>
        <time>2022-09-30T13:23:12.000Z</time>
      </trkpt>
      <trkpt lat="45.85567" lon="4.67064">
        <ele>206.13261</ele>
        <time>2022-09-30T13:23:13.000Z</time>
      </trkpt>
      <trkpt lat="45.85568" lon="4.67068">
        <ele>205.99187</ele>
        <time>2022-09-30T13:23:14.000Z</time>
      </trkpt>
      <trkpt lat="45.85569" lon="4.67073">
        <ele>205.83423</ele>
        <time>2022-09-30T13:23:15.000Z</time>
      </trkpt>
      <trkpt lat="45.8557" lon="4.67077">
        <ele>205.75017</ele>
        <time>2022-09-30T13:23:16.000Z</time>
      </trkpt>
      <trkpt lat="45.85572" lon="4.67082">
        <ele>205.63608</ele>
        <time>2022-09-30T13:23:17.000Z</time>
      </trkpt>
      <trkpt lat="45.85573" lon="4.67086">
        <ele>205.61211</ele>
        <time>2022-09-30T13:23:18.000Z</time>
      </trkpt>
      <trkpt lat="45.85575" lon="4.6709">
        <ele>205.59274</ele>
        <time>2022-09-30T13:23:19.000Z</time>
      </trkpt>
      <trkpt lat="45.85577" lon="4.67095">
        <ele>205.56502</ele>
        <time>2022-09-30T13:23:20.000Z</time>
      </trkpt>
      <trkpt lat="45.85578" lon="4.671">
        <ele>205.5856</ele>
        <time>2022-09-30T13:23:21.000Z</time>
      </trkpt>
      <trkpt lat="45.8558" lon="4.67105">
        <ele>205.75078</ele>
        <time>2022-09-30T13:23:22.000Z</time>
      </trkpt>
      <trkpt lat="45.85582" lon="4.6711">
        <ele>205.91435</ele>
        <time>2022-09-30T13:23:23.000Z</time>
      </trkpt>
      <trkpt lat="45.85583" lon="4.67114">
        <ele>206.05215</ele>
        <time>2022-09-30T13:23:24.000Z</time>
      </trkpt>
      <trkpt lat="45.85585" lon="4.67119">
        <ele>206.15439</ele>
        <time>2022-09-30T13:23:25.000Z</time>
      </trkpt>
      <trkpt lat="45.85587" lon="4.67123">
        <ele>206.24631</ele>
        <time>2022-09-30T13:23:26.000Z</time>
      </trkpt>
      <trkpt lat="45.85588" lon="4.67128">
        <ele>206.32451</ele>
        <time>2022-09-30T13:23:27.000Z</time>
      </trkpt>
      <trkpt lat="45.85589" lon="4.67132">
        <ele>206.34518</ele>
        <time>2022-09-30T13:23:28.000Z</time>
      </trkpt>
      <trkpt lat="45.8559" lon="4.67136">
        <ele>206.35246</ele>
        <time>2022-09-30T13:23:29.000Z</time>
      </trkpt>
      <trkpt lat="45.85591" lon="4.6714">
        <ele>206.30191</ele>
        <time>2022-09-30T13:23:30.000Z</time>
      </trkpt>
      <trkpt lat="45.85593" lon="4.67144">
        <ele>206.25256</ele>
        <time>2022-09-30T13:23:31.000Z</time>
      </trkpt>
      <trkpt lat="45.85594" lon="4.67148">
        <ele>206.09024</ele>
        <time>2022-09-30T13:23:32.000Z</time>
      </trkpt>
      <trkpt lat="45.85596" lon="4.67152">
        <ele>205.96118</ele>
        <time>2022-09-30T13:23:33.000Z</time>
      </trkpt>
      <trkpt lat="45.85598" lon="4.67157">
        <ele>205.73198</ele>
        <time>2022-09-30T13:23:34.000Z</time>
      </trkpt>
      <trkpt lat="45.85599" lon="4.67161">
        <ele>205.5208</ele>
        <time>2022-09-30T13:23:35.000Z</time>
      </trkpt>
      <trkpt lat="45.85602" lon="4.67165">
        <ele>205.18335</ele>
        <time>2022-09-30T13:23:36.000Z</time>
      </trkpt>
      <trkpt lat="45.85605" lon="4.67168">
        <ele>204.77528</ele>
        <time>2022-09-30T13:23:37.000Z</time>
      </trkpt>
      <trkpt lat="45.85607" lon="4.6717">
        <ele>204.35551</ele>
        <time>2022-09-30T13:23:38.000Z</time>
      </trkpt>
      <trkpt lat="45.85609" lon="4.67173">
        <ele>203.95995</ele>
        <time>2022-09-30T13:23:39.000Z</time>
      </trkpt>
      <trkpt lat="45.8561" lon="4.67175">
        <ele>203.63986</ele>
        <time>2022-09-30T13:23:40.000Z</time>
      </trkpt>
      <trkpt lat="45.85611" lon="4.67178">
        <ele>203.34274</ele>
        <time>2022-09-30T13:23:41.000Z</time>
      </trkpt>
      <trkpt lat="45.85613" lon="4.67181">
        <ele>202.95091</ele>
        <time>2022-09-30T13:23:42.000Z</time>
      </trkpt>
      <trkpt lat="45.85614" lon="4.67184">
        <ele>202.62018</ele>
        <time>2022-09-30T13:23:43.000Z</time>
      </trkpt>
      <trkpt lat="45.85615" lon="4.67188">
        <ele>202.31085</ele>
        <time>2022-09-30T13:23:44.000Z</time>
      </trkpt>
      <trkpt lat="45.85615" lon="4.67191">
        <ele>202.05991</ele>
        <time>2022-09-30T13:23:45.000Z</time>
      </trkpt>
      <trkpt lat="45.85616" lon="4.67195">
        <ele>201.72623</ele>
        <time>2022-09-30T13:23:46.000Z</time>
      </trkpt>
      <trkpt lat="45.85617" lon="4.67199">
        <ele>201.4119</ele>
        <time>2022-09-30T13:23:47.000Z</time>
      </trkpt>
      <trkpt lat="45.85619" lon="4.67202">
        <ele>201.1057</ele>
        <time>2022-09-30T13:23:48.000Z</time>
      </trkpt>
      <trkpt lat="45.8562" lon="4.67205">
        <ele>200.69527</ele>
        <time>2022-09-30T13:23:49.000Z</time>
      </trkpt>
      <trkpt lat="45.85622" lon="4.67208">
        <ele>200.3933</ele>
        <time>2022-09-30T13:23:50.000Z</time>
      </trkpt>
      <trkpt lat="45.85624" lon="4.67211">
        <ele>200.04416</ele>
        <time>2022-09-30T13:23:51.000Z</time>
      </trkpt>
      <trkpt lat="45.85626" lon="4.67214">
        <ele>199.82986</ele>
        <time>2022-09-30T13:23:52.000Z</time>
      </trkpt>
      <trkpt lat="45.85628" lon="4.67216">
        <ele>199.6468</ele>
        <time>2022-09-30T13:23:53.000Z</time>
      </trkpt>
      <trkpt lat="45.85629" lon="4.67217">
        <ele>199.55969</ele>
        <time>2022-09-30T13:23:54.000Z</time>
      </trkpt>
      <trkpt lat="45.85632" lon="4.67219">
        <ele>199.33273</ele>
        <time>2022-09-30T13:23:55.000Z</time>
      </trkpt>
      <trkpt lat="45.85634" lon="4.67221">
        <ele>199.10237</ele>
        <time>2022-09-30T13:23:56.000Z</time>
      </trkpt>
      <trkpt lat="45.85637" lon="4.67224">
        <ele>198.87595</ele>
        <time>2022-09-30T13:23:57.000Z</time>
      </trkpt>
      <trkpt lat="45.8564" lon="4.67227">
        <ele>198.57736</ele>
        <time>2022-09-30T13:23:58.000Z</time>
      </trkpt>
      <trkpt lat="45.85642" lon="4.6723">
        <ele>198.28018</ele>
        <time>2022-09-30T13:23:59.000Z</time>
      </trkpt>
      <trkpt lat="45.85645" lon="4.67232">
        <ele>197.94208</ele>
        <time>2022-09-30T13:24:00.000Z</time>
      </trkpt>
      <trkpt lat="45.85648" lon="4.67234">
        <ele>197.56819</ele>
        <time>2022-09-30T13:24:01.000Z</time>
      </trkpt>
      <trkpt lat="45.8565" lon="4.67235">
        <ele>197.15488</ele>
        <time>2022-09-30T13:24:02.000Z</time>
      </trkpt>
      <trkpt lat="45.85652" lon="4.67237">
        <ele>196.77637</ele>
        <time>2022-09-30T13:24:03.000Z</time>
      </trkpt>
      <trkpt lat="45.85654" lon="4.67238">
        <ele>196.42906</ele>
        <time>2022-09-30T13:24:04.000Z</time>
      </trkpt>
      <trkpt lat="45.85656" lon="4.6724">
        <ele>196.07393</ele>
        <time>2022-09-30T13:24:05.000Z</time>
      </trkpt>
      <trkpt lat="45.85658" lon="4.67241">
        <ele>195.78551</ele>
        <time>2022-09-30T13:24:06.000Z</time>
      </trkpt>
      <trkpt lat="45.8566" lon="4.67241">
        <ele>195.58878</ele>
        <time>2022-09-30T13:24:08.000Z</time>
      </trkpt>
      <trkpt lat="45.85662" lon="4.6724">
        <ele>195.68643</ele>
        <time>2022-09-30T13:24:11.000Z</time>
      </trkpt>
      <trkpt lat="45.85664" lon="4.67238">
        <ele>195.61375</ele>
        <time>2022-09-30T13:24:19.000Z</time>
      </trkpt>
      <trkpt lat="45.85666" lon="4.67241">
        <ele>195.46146</ele>
        <time>2022-09-30T13:26:42.000Z</time>
      </trkpt>
      <trkpt lat="45.85669" lon="4.67243">
        <ele>195.35486</ele>
        <time>2022-09-30T13:26:43.000Z</time>
      </trkpt>
      <trkpt lat="45.85672" lon="4.67245">
        <ele>195.24075</ele>
        <time>2022-09-30T13:26:44.000Z</time>
      </trkpt>
      <trkpt lat="45.85675" lon="4.67247">
        <ele>195.05124</ele>
        <time>2022-09-30T13:26:45.000Z</time>
      </trkpt>
      <trkpt lat="45.85678" lon="4.6725">
        <ele>194.78142</ele>
        <time>2022-09-30T13:26:46.000Z</time>
      </trkpt>
      <trkpt lat="45.85682" lon="4.67254">
        <ele>194.47815</ele>
        <time>2022-09-30T13:26:47.000Z</time>
      </trkpt>
      <trkpt lat="45.85686" lon="4.67258">
        <ele>194.31686</ele>
        <time>2022-09-30T13:26:48.000Z</time>
      </trkpt>
      <trkpt lat="45.85689" lon="4.67262">
        <ele>194.23953</ele>
        <time>2022-09-30T13:26:49.000Z</time>
      </trkpt>
      <trkpt lat="45.85693" lon="4.67265">
        <ele>194.25581</ele>
        <time>2022-09-30T13:26:50.000Z</time>
      </trkpt>
      <trkpt lat="45.85696" lon="4.67267">
        <ele>194.21437</ele>
        <time>2022-09-30T13:26:51.000Z</time>
      </trkpt>
      <trkpt lat="45.85699" lon="4.67269">
        <ele>194.11111</ele>
        <time>2022-09-30T13:26:52.000Z</time>
      </trkpt>
      <trkpt lat="45.85703" lon="4.67272">
        <ele>193.92813</ele>
        <time>2022-09-30T13:26:53.000Z</time>
      </trkpt>
      <trkpt lat="45.85707" lon="4.67274">
        <ele>193.79918</ele>
        <time>2022-09-30T13:26:54.000Z</time>
      </trkpt>
      <trkpt lat="45.85711" lon="4.67276">
        <ele>193.57031</ele>
        <time>2022-09-30T13:26:55.000Z</time>
      </trkpt>
      <trkpt lat="45.85714" lon="4.67279">
        <ele>193.29446</ele>
        <time>2022-09-30T13:26:56.000Z</time>
      </trkpt>
      <trkpt lat="45.85718" lon="4.67282">
        <ele>192.92464</ele>
        <time>2022-09-30T13:26:57.000Z</time>
      </trkpt>
      <trkpt lat="45.85722" lon="4.67286">
        <ele>192.4529</ele>
        <time>2022-09-30T13:26:58.000Z</time>
      </trkpt>
      <trkpt lat="45.85726" lon="4.6729">
        <ele>191.86719</ele>
        <time>2022-09-30T13:26:59.000Z</time>
      </trkpt>
      <trkpt lat="45.8573" lon="4.67294">
        <ele>191.01324</ele>
        <time>2022-09-30T13:27:00.000Z</time>
      </trkpt>
      <trkpt lat="45.85733" lon="4.67297">
        <ele>190.4574</ele>
        <time>2022-09-30T13:27:01.000Z</time>
      </trkpt>
      <trkpt lat="45.85735" lon="4.673">
        <ele>190.005</ele>
        <time>2022-09-30T13:27:02.000Z</time>
      </trkpt>
      <trkpt lat="45.85738" lon="4.67304">
        <ele>189.65175</ele>
        <time>2022-09-30T13:27:03.000Z</time>
      </trkpt>
      <trkpt lat="45.85741" lon="4.67307">
        <ele>189.34865</ele>
        <time>2022-09-30T13:27:04.000Z</time>
      </trkpt>
      <trkpt lat="45.85744" lon="4.67311">
        <ele>189.04105</ele>
        <time>2022-09-30T13:27:05.000Z</time>
      </trkpt>
      <trkpt lat="45.85748" lon="4.67315">
        <ele>188.73376</ele>
        <time>2022-09-30T13:27:06.000Z</time>
      </trkpt>
      <trkpt lat="45.85751" lon="4.67318">
        <ele>188.48668</ele>
        <time>2022-09-30T13:27:07.000Z</time>
      </trkpt>
      <trkpt lat="45.85754" lon="4.6732">
        <ele>188.29706</ele>
        <time>2022-09-30T13:27:08.000Z</time>
      </trkpt>
      <trkpt lat="45.85758" lon="4.67322">
        <ele>188.14758</ele>
        <time>2022-09-30T13:27:09.000Z</time>
      </trkpt>
      <trkpt lat="45.85761" lon="4.67324">
        <ele>187.99365</ele>
        <time>2022-09-30T13:27:10.000Z</time>
      </trkpt>
      <trkpt lat="45.85764" lon="4.67327">
        <ele>187.82555</ele>
        <time>2022-09-30T13:27:11.000Z</time>
      </trkpt>
      <trkpt lat="45.85766" lon="4.6733">
        <ele>187.71469</ele>
        <time>2022-09-30T13:27:12.000Z</time>
      </trkpt>
      <trkpt lat="45.85768" lon="4.67332">
        <ele>187.61533</ele>
        <time>2022-09-30T13:27:13.000Z</time>
      </trkpt>
      <trkpt lat="45.85769" lon="4.67335">
        <ele>187.52466</ele>
        <time>2022-09-30T13:27:14.000Z</time>
      </trkpt>
      <trkpt lat="45.8577" lon="4.67338">
        <ele>187.47369</ele>
        <time>2022-09-30T13:27:15.000Z</time>
      </trkpt>
      <trkpt lat="45.85771" lon="4.67341">
        <ele>187.45924</ele>
        <time>2022-09-30T13:27:16.000Z</time>
      </trkpt>
      <trkpt lat="45.85772" lon="4.67344">
        <ele>187.62502</ele>
        <time>2022-09-30T13:27:17.000Z</time>
      </trkpt>
      <trkpt lat="45.85772" lon="4.67347">
        <ele>188.08432</ele>
        <time>2022-09-30T13:27:18.000Z</time>
      </trkpt>
      <trkpt lat="45.85772" lon="4.67351">
        <ele>188.59567</ele>
        <time>2022-09-30T13:27:19.000Z</time>
      </trkpt>
      <trkpt lat="45.85773" lon="4.67355">
        <ele>189.16403</ele>
        <time>2022-09-30T13:27:20.000Z</time>
      </trkpt>
      <trkpt lat="45.85773" lon="4.67358">
        <ele>189.69902</ele>
        <time>2022-09-30T13:27:21.000Z</time>
      </trkpt>
      <trkpt lat="45.85774" lon="4.67361">
        <ele>190.3073</ele>
        <time>2022-09-30T13:27:22.000Z</time>
      </trkpt>
      <trkpt lat="45.85774" lon="4.67364">
        <ele>190.88499</ele>
        <time>2022-09-30T13:27:23.000Z</time>
      </trkpt>
      <trkpt lat="45.85774" lon="4.67368">
        <ele>191.34183</ele>
        <time>2022-09-30T13:27:24.000Z</time>
      </trkpt>
      <trkpt lat="45.85773" lon="4.6737">
        <ele>191.78995</ele>
        <time>2022-09-30T13:27:25.000Z</time>
      </trkpt>
      <trkpt lat="45.85772" lon="4.67372">
        <ele>192.25362</ele>
        <time>2022-09-30T13:27:26.000Z</time>
      </trkpt>
      <trkpt lat="45.85771" lon="4.67374">
        <ele>192.71591</ele>
        <time>2022-09-30T13:27:27.000Z</time>
      </trkpt>
      <trkpt lat="45.85769" lon="4.67376">
        <ele>193.1619</ele>
        <time>2022-09-30T13:27:28.000Z</time>
      </trkpt>
      <trkpt lat="45.85767" lon="4.67378">
        <ele>193.509</ele>
        <time>2022-09-30T13:27:29.000Z</time>
      </trkpt>
      <trkpt lat="45.85765" lon="4.67381">
        <ele>193.88741</ele>
        <time>2022-09-30T13:27:30.000Z</time>
      </trkpt>
      <trkpt lat="45.85763" lon="4.67384">
        <ele>194.32263</ele>
        <time>2022-09-30T13:27:31.000Z</time>
      </trkpt>
      <trkpt lat="45.85761" lon="4.67387">
        <ele>194.74004</ele>
        <time>2022-09-30T13:27:32.000Z</time>
      </trkpt>
      <trkpt lat="45.85759" lon="4.6739">
        <ele>195.13052</ele>
        <time>2022-09-30T13:27:33.000Z</time>
      </trkpt>
      <trkpt lat="45.85758" lon="4.67394">
        <ele>195.46658</ele>
        <time>2022-09-30T13:27:34.000Z</time>
      </trkpt>
      <trkpt lat="45.85756" lon="4.67398">
        <ele>195.82416</ele>
        <time>2022-09-30T13:27:35.000Z</time>
      </trkpt>
      <trkpt lat="45.85754" lon="4.67403">
        <ele>196.19707</ele>
        <time>2022-09-30T13:27:36.000Z</time>
      </trkpt>
      <trkpt lat="45.85751" lon="4.67408">
        <ele>196.46809</ele>
        <time>2022-09-30T13:27:37.000Z</time>
      </trkpt>
      <trkpt lat="45.85749" lon="4.67412">
        <ele>196.58549</ele>
        <time>2022-09-30T13:27:38.000Z</time>
      </trkpt>
      <trkpt lat="45.85747" lon="4.67417">
        <ele>196.69044</ele>
        <time>2022-09-30T13:27:39.000Z</time>
      </trkpt>
      <trkpt lat="45.85744" lon="4.67423">
        <ele>196.77881</ele>
        <time>2022-09-30T13:27:40.000Z</time>
      </trkpt>
      <trkpt lat="45.85741" lon="4.6743">
        <ele>196.89655</ele>
        <time>2022-09-30T13:27:41.000Z</time>
      </trkpt>
      <trkpt lat="45.85738" lon="4.67435">
        <ele>196.89151</ele>
        <time>2022-09-30T13:27:42.000Z</time>
      </trkpt>
      <trkpt lat="45.85735" lon="4.67442">
        <ele>196.78879</ele>
        <time>2022-09-30T13:27:43.000Z</time>
      </trkpt>
      <trkpt lat="45.85732" lon="4.67448">
        <ele>196.78793</ele>
        <time>2022-09-30T13:27:44.000Z</time>
      </trkpt>
      <trkpt lat="45.85729" lon="4.67453">
        <ele>196.85112</ele>
        <time>2022-09-30T13:27:45.000Z</time>
      </trkpt>
      <trkpt lat="45.85726" lon="4.67457">
        <ele>196.95282</ele>
        <time>2022-09-30T13:27:46.000Z</time>
      </trkpt>
      <trkpt lat="45.85723" lon="4.67462">
        <ele>197.11934</ele>
        <time>2022-09-30T13:27:47.000Z</time>
      </trkpt>
      <trkpt lat="45.85719" lon="4.67467">
        <ele>197.24698</ele>
        <time>2022-09-30T13:27:48.000Z</time>
      </trkpt>
      <trkpt lat="45.85716" lon="4.67472">
        <ele>197.42531</ele>
        <time>2022-09-30T13:27:49.000Z</time>
      </trkpt>
      <trkpt lat="45.85713" lon="4.67479">
        <ele>197.58871</ele>
        <time>2022-09-30T13:27:50.000Z</time>
      </trkpt>
      <trkpt lat="45.85709" lon="4.67486">
        <ele>197.77695</ele>
        <time>2022-09-30T13:27:51.000Z</time>
      </trkpt>
      <trkpt lat="45.85705" lon="4.67492">
        <ele>197.93013</ele>
        <time>2022-09-30T13:27:52.000Z</time>
      </trkpt>
      <trkpt lat="45.85701" lon="4.67498">
        <ele>198.13704</ele>
        <time>2022-09-30T13:27:53.000Z</time>
      </trkpt>
      <trkpt lat="45.85697" lon="4.67503">
        <ele>198.39873</ele>
        <time>2022-09-30T13:27:54.000Z</time>
      </trkpt>
      <trkpt lat="45.85692" lon="4.6751">
        <ele>198.65309</ele>
        <time>2022-09-30T13:27:55.000Z</time>
      </trkpt>
      <trkpt lat="45.85687" lon="4.67515">
        <ele>198.88782</ele>
        <time>2022-09-30T13:27:56.000Z</time>
      </trkpt>
      <trkpt lat="45.85682" lon="4.67521">
        <ele>199.11282</ele>
        <time>2022-09-30T13:27:57.000Z</time>
      </trkpt>
      <trkpt lat="45.85678" lon="4.67527">
        <ele>199.33032</ele>
        <time>2022-09-30T13:27:58.000Z</time>
      </trkpt>
      <trkpt lat="45.85672" lon="4.67532">
        <ele>199.56509</ele>
        <time>2022-09-30T13:27:59.000Z</time>
      </trkpt>
      <trkpt lat="45.85667" lon="4.67536">
        <ele>199.7733</ele>
        <time>2022-09-30T13:28:00.000Z</time>
      </trkpt>
      <trkpt lat="45.85661" lon="4.67542">
        <ele>199.93556</ele>
        <time>2022-09-30T13:28:01.000Z</time>
      </trkpt>
      <trkpt lat="45.85656" lon="4.67548">
        <ele>200.1431</ele>
        <time>2022-09-30T13:28:02.000Z</time>
      </trkpt>
      <trkpt lat="45.85651" lon="4.67552">
        <ele>200.40883</ele>
        <time>2022-09-30T13:28:03.000Z</time>
      </trkpt>
      <trkpt lat="45.85646" lon="4.67558">
        <ele>200.6348</ele>
        <time>2022-09-30T13:28:04.000Z</time>
      </trkpt>
      <trkpt lat="45.85641" lon="4.67565">
        <ele>200.80753</ele>
        <time>2022-09-30T13:28:05.000Z</time>
      </trkpt>
      <trkpt lat="45.85637" lon="4.67571">
        <ele>200.98978</ele>
        <time>2022-09-30T13:28:06.000Z</time>
      </trkpt>
      <trkpt lat="45.85631" lon="4.67577">
        <ele>201.18542</ele>
        <time>2022-09-30T13:28:07.000Z</time>
      </trkpt>
      <trkpt lat="45.85626" lon="4.67582">
        <ele>201.41022</ele>
        <time>2022-09-30T13:28:08.000Z</time>
      </trkpt>
      <trkpt lat="45.8562" lon="4.67587">
        <ele>201.61223</ele>
        <time>2022-09-30T13:28:09.000Z</time>
      </trkpt>
      <trkpt lat="45.85614" lon="4.67591">
        <ele>201.7169</ele>
        <time>2022-09-30T13:28:10.000Z</time>
      </trkpt>
      <trkpt lat="45.85608" lon="4.67597">
        <ele>201.73068</ele>
        <time>2022-09-30T13:28:11.000Z</time>
      </trkpt>
      <trkpt lat="45.85602" lon="4.67602">
        <ele>201.7955</ele>
        <time>2022-09-30T13:28:12.000Z</time>
      </trkpt>
      <trkpt lat="45.85598" lon="4.67608">
        <ele>201.8772</ele>
        <time>2022-09-30T13:28:13.000Z</time>
      </trkpt>
      <trkpt lat="45.85592" lon="4.67615">
        <ele>201.88019</ele>
        <time>2022-09-30T13:28:14.000Z</time>
      </trkpt>
      <trkpt lat="45.85587" lon="4.67622">
        <ele>201.88272</ele>
        <time>2022-09-30T13:28:15.000Z</time>
      </trkpt>
      <trkpt lat="45.85582" lon="4.67627">
        <ele>201.84468</ele>
        <time>2022-09-30T13:28:16.000Z</time>
      </trkpt>
      <trkpt lat="45.85578" lon="4.67632">
        <ele>201.79115</ele>
        <time>2022-09-30T13:28:17.000Z</time>
      </trkpt>
      <trkpt lat="45.85572" lon="4.67637">
        <ele>201.7321</ele>
        <time>2022-09-30T13:28:18.000Z</time>
      </trkpt>
      <trkpt lat="45.85568" lon="4.67642">
        <ele>201.66849</ele>
        <time>2022-09-30T13:28:19.000Z</time>
      </trkpt>
      <trkpt lat="45.85564" lon="4.67647">
        <ele>201.52615</ele>
        <time>2022-09-30T13:28:20.000Z</time>
      </trkpt>
      <trkpt lat="45.85558" lon="4.67651">
        <ele>201.28278</ele>
        <time>2022-09-30T13:28:21.000Z</time>
      </trkpt>
      <trkpt lat="45.85554" lon="4.67656">
        <ele>201.02493</ele>
        <time>2022-09-30T13:28:22.000Z</time>
      </trkpt>
      <trkpt lat="45.85549" lon="4.6766">
        <ele>200.7865</ele>
        <time>2022-09-30T13:28:23.000Z</time>
      </trkpt>
      <trkpt lat="45.85544" lon="4.67666">
        <ele>200.53506</ele>
        <time>2022-09-30T13:28:24.000Z</time>
      </trkpt>
      <trkpt lat="45.85539" lon="4.67671">
        <ele>200.27695</ele>
        <time>2022-09-30T13:28:25.000Z</time>
      </trkpt>
      <trkpt lat="45.8553" lon="4.67683">
        <ele>200.01218</ele>
        <time>2022-09-30T13:28:27.000Z</time>
      </trkpt>
      <trkpt lat="45.85526" lon="4.6769">
        <ele>199.63989</ele>
        <time>2022-09-30T13:28:28.000Z</time>
      </trkpt>
      <trkpt lat="45.85522" lon="4.67697">
        <ele>199.16664</ele>
        <time>2022-09-30T13:28:29.000Z</time>
      </trkpt>
      <trkpt lat="45.85518" lon="4.67703">
        <ele>198.73624</ele>
        <time>2022-09-30T13:28:30.000Z</time>
      </trkpt>
      <trkpt lat="45.85514" lon="4.67709">
        <ele>198.35837</ele>
        <time>2022-09-30T13:28:31.000Z</time>
      </trkpt>
      <trkpt lat="45.8551" lon="4.67715">
        <ele>198.01093</ele>
        <time>2022-09-30T13:28:32.000Z</time>
      </trkpt>
      <trkpt lat="45.85509" lon="4.67721">
        <ele>197.55655</ele>
        <time>2022-09-30T13:28:33.000Z</time>
      </trkpt>
      <trkpt lat="45.85507" lon="4.67729">
        <ele>197.12094</ele>
        <time>2022-09-30T13:28:34.000Z</time>
      </trkpt>
      <trkpt lat="45.85504" lon="4.67734">
        <ele>196.72604</ele>
        <time>2022-09-30T13:28:35.000Z</time>
      </trkpt>
      <trkpt lat="45.85501" lon="4.67742">
        <ele>196.36508</ele>
        <time>2022-09-30T13:28:36.000Z</time>
      </trkpt>
      <trkpt lat="45.85498" lon="4.67748">
        <ele>196.06902</ele>
        <time>2022-09-30T13:28:37.000Z</time>
      </trkpt>
      <trkpt lat="45.85496" lon="4.67755">
        <ele>195.73561</ele>
        <time>2022-09-30T13:28:38.000Z</time>
      </trkpt>
      <trkpt lat="45.85494" lon="4.67763">
        <ele>195.37704</ele>
        <time>2022-09-30T13:28:39.000Z</time>
      </trkpt>
      <trkpt lat="45.85491" lon="4.67771">
        <ele>195.03728</ele>
        <time>2022-09-30T13:28:40.000Z</time>
      </trkpt>
      <trkpt lat="45.8549" lon="4.6778">
        <ele>194.80563</ele>
        <time>2022-09-30T13:28:41.000Z</time>
      </trkpt>
      <trkpt lat="45.85488" lon="4.67789">
        <ele>194.72842</ele>
        <time>2022-09-30T13:28:42.000Z</time>
      </trkpt>
      <trkpt lat="45.85488" lon="4.67797">
        <ele>194.59895</ele>
        <time>2022-09-30T13:28:43.000Z</time>
      </trkpt>
      <trkpt lat="45.85488" lon="4.67806">
        <ele>194.51625</ele>
        <time>2022-09-30T13:28:44.000Z</time>
      </trkpt>
      <trkpt lat="45.8549" lon="4.67814">
        <ele>194.45932</ele>
        <time>2022-09-30T13:28:45.000Z</time>
      </trkpt>
      <trkpt lat="45.85491" lon="4.6782">
        <ele>194.44095</ele>
        <time>2022-09-30T13:28:46.000Z</time>
      </trkpt>
      <trkpt lat="45.85492" lon="4.67827">
        <ele>194.44167</ele>
        <time>2022-09-30T13:28:47.000Z</time>
      </trkpt>
      <trkpt lat="45.85495" lon="4.67837">
        <ele>194.52608</ele>
        <time>2022-09-30T13:28:48.000Z</time>
      </trkpt>
      <trkpt lat="45.85495" lon="4.67843">
        <ele>194.69858</ele>
        <time>2022-09-30T13:28:49.000Z</time>
      </trkpt>
      <trkpt lat="45.85496" lon="4.6785">
        <ele>194.88655</ele>
        <time>2022-09-30T13:28:50.000Z</time>
      </trkpt>
      <trkpt lat="45.85497" lon="4.67856">
        <ele>195.08563</ele>
        <time>2022-09-30T13:28:51.000Z</time>
      </trkpt>
      <trkpt lat="45.85497" lon="4.67862">
        <ele>195.22246</ele>
        <time>2022-09-30T13:28:52.000Z</time>
      </trkpt>
      <trkpt lat="45.85497" lon="4.67867">
        <ele>195.37715</ele>
        <time>2022-09-30T13:28:53.000Z</time>
      </trkpt>
      <trkpt lat="45.85498" lon="4.67875">
        <ele>195.47264</ele>
        <time>2022-09-30T13:28:54.000Z</time>
      </trkpt>
      <trkpt lat="45.85498" lon="4.6788">
        <ele>195.53893</ele>
        <time>2022-09-30T13:28:55.000Z</time>
      </trkpt>
      <trkpt lat="45.855" lon="4.67885">
        <ele>195.547</ele>
        <time>2022-09-30T13:28:56.000Z</time>
      </trkpt>
      <trkpt lat="45.85501" lon="4.6789">
        <ele>195.43576</ele>
        <time>2022-09-30T13:28:57.000Z</time>
      </trkpt>
      <trkpt lat="45.85502" lon="4.67897">
        <ele>195.33949</ele>
        <time>2022-09-30T13:28:58.000Z</time>
      </trkpt>
      <trkpt lat="45.85503" lon="4.67902">
        <ele>195.2646</ele>
        <time>2022-09-30T13:28:59.000Z</time>
      </trkpt>
      <trkpt lat="45.85506" lon="4.67907">
        <ele>195.11995</ele>
        <time>2022-09-30T13:29:00.000Z</time>
      </trkpt>
      <trkpt lat="45.85508" lon="4.67913">
        <ele>194.92505</ele>
        <time>2022-09-30T13:29:01.000Z</time>
      </trkpt>
      <trkpt lat="45.8551" lon="4.67919">
        <ele>194.68738</ele>
        <time>2022-09-30T13:29:02.000Z</time>
      </trkpt>
      <trkpt lat="45.85514" lon="4.67924">
        <ele>194.53049</ele>
        <time>2022-09-30T13:29:03.000Z</time>
      </trkpt>
      <trkpt lat="45.85516" lon="4.6793">
        <ele>194.38249</ele>
        <time>2022-09-30T13:29:04.000Z</time>
      </trkpt>
      <trkpt lat="45.85519" lon="4.67934">
        <ele>194.25746</ele>
        <time>2022-09-30T13:29:05.000Z</time>
      </trkpt>
      <trkpt lat="45.85518" lon="4.67939">
        <ele>193.95955</ele>
        <time>2022-09-30T13:29:06.000Z</time>
      </trkpt>
      <trkpt lat="45.85519" lon="4.67944">
        <ele>193.62526</ele>
        <time>2022-09-30T13:29:07.000Z</time>
      </trkpt>
      <trkpt lat="45.85521" lon="4.67949">
        <ele>193.24426</ele>
        <time>2022-09-30T13:29:08.000Z</time>
      </trkpt>
      <trkpt lat="45.85523" lon="4.67953">
        <ele>192.83481</ele>
        <time>2022-09-30T13:29:09.000Z</time>
      </trkpt>
      <trkpt lat="45.85523" lon="4.67956">
        <ele>192.43832</ele>
        <time>2022-09-30T13:29:10.000Z</time>
      </trkpt>
      <trkpt lat="45.85524" lon="4.67961">
        <ele>192.02426</ele>
        <time>2022-09-30T13:29:11.000Z</time>
      </trkpt>
      <trkpt lat="45.85525" lon="4.67965">
        <ele>191.6691</ele>
        <time>2022-09-30T13:29:12.000Z</time>
      </trkpt>
      <trkpt lat="45.85526" lon="4.67968">
        <ele>191.40968</ele>
        <time>2022-09-30T13:29:13.000Z</time>
      </trkpt>
      <trkpt lat="45.85527" lon="4.67972">
        <ele>191.16452</ele>
        <time>2022-09-30T13:29:14.000Z</time>
      </trkpt>
      <trkpt lat="45.85529" lon="4.67976">
        <ele>191.063</ele>
        <time>2022-09-30T13:29:15.000Z</time>
      </trkpt>
      <trkpt lat="45.85531" lon="4.67982">
        <ele>190.97809</ele>
        <time>2022-09-30T13:29:16.000Z</time>
      </trkpt>
      <trkpt lat="45.85535" lon="4.67988">
        <ele>191.00954</ele>
        <time>2022-09-30T13:29:17.000Z</time>
      </trkpt>
      <trkpt lat="45.85538" lon="4.67994">
        <ele>191.04735</ele>
        <time>2022-09-30T13:29:18.000Z</time>
      </trkpt>
      <trkpt lat="45.85538" lon="4.68">
        <ele>191.04446</ele>
        <time>2022-09-30T13:29:19.000Z</time>
      </trkpt>
      <trkpt lat="45.85541" lon="4.68007">
        <ele>191.12827</ele>
        <time>2022-09-30T13:29:20.000Z</time>
      </trkpt>
      <trkpt lat="45.85543" lon="4.68016">
        <ele>191.21277</ele>
        <time>2022-09-30T13:29:21.000Z</time>
      </trkpt>
      <trkpt lat="45.85546" lon="4.68022">
        <ele>191.29013</ele>
        <time>2022-09-30T13:29:22.000Z</time>
      </trkpt>
      <trkpt lat="45.85549" lon="4.6803">
        <ele>191.37656</ele>
        <time>2022-09-30T13:29:23.000Z</time>
      </trkpt>
      <trkpt lat="45.85551" lon="4.68037">
        <ele>191.42015</ele>
        <time>2022-09-30T13:29:24.000Z</time>
      </trkpt>
      <trkpt lat="45.85554" lon="4.68044">
        <ele>191.48051</ele>
        <time>2022-09-30T13:29:25.000Z</time>
      </trkpt>
      <trkpt lat="45.85556" lon="4.68051">
        <ele>191.68076</ele>
        <time>2022-09-30T13:29:26.000Z</time>
      </trkpt>
      <trkpt lat="45.85557" lon="4.68058">
        <ele>191.87636</ele>
        <time>2022-09-30T13:29:27.000Z</time>
      </trkpt>
      <trkpt lat="45.85561" lon="4.68064">
        <ele>192.09517</ele>
        <time>2022-09-30T13:29:28.000Z</time>
      </trkpt>
      <trkpt lat="45.85562" lon="4.68072">
        <ele>192.29633</ele>
        <time>2022-09-30T13:29:29.000Z</time>
      </trkpt>
      <trkpt lat="45.85564" lon="4.68078">
        <ele>192.43594</ele>
        <time>2022-09-30T13:29:30.000Z</time>
      </trkpt>
      <trkpt lat="45.85566" lon="4.68084">
        <ele>192.60519</ele>
        <time>2022-09-30T13:29:31.000Z</time>
      </trkpt>
      <trkpt lat="45.85568" lon="4.68092">
        <ele>192.78299</ele>
        <time>2022-09-30T13:29:32.000Z</time>
      </trkpt>
      <trkpt lat="45.8557" lon="4.68098">
        <ele>192.86307</ele>
        <time>2022-09-30T13:29:33.000Z</time>
      </trkpt>
      <trkpt lat="45.85572" lon="4.68104">
        <ele>192.9039</ele>
        <time>2022-09-30T13:29:34.000Z</time>
      </trkpt>
      <trkpt lat="45.85574" lon="4.68111">
        <ele>192.79413</ele>
        <time>2022-09-30T13:29:35.000Z</time>
      </trkpt>
      <trkpt lat="45.85576" lon="4.68116">
        <ele>192.6788</ele>
        <time>2022-09-30T13:29:36.000Z</time>
      </trkpt>
      <trkpt lat="45.85579" lon="4.68121">
        <ele>192.58929</ele>
        <time>2022-09-30T13:29:37.000Z</time>
      </trkpt>
      <trkpt lat="45.8558" lon="4.68127">
        <ele>192.47563</ele>
        <time>2022-09-30T13:29:38.000Z</time>
      </trkpt>
      <trkpt lat="45.85582" lon="4.68132">
        <ele>192.38818</ele>
        <time>2022-09-30T13:29:39.000Z</time>
      </trkpt>
      <trkpt lat="45.85585" lon="4.68138">
        <ele>192.2731</ele>
        <time>2022-09-30T13:29:40.000Z</time>
      </trkpt>
      <trkpt lat="45.8559" lon="4.68143">
        <ele>192.07651</ele>
        <time>2022-09-30T13:29:41.000Z</time>
      </trkpt>
      <trkpt lat="45.85592" lon="4.68147">
        <ele>191.88802</ele>
        <time>2022-09-30T13:29:42.000Z</time>
      </trkpt>
      <trkpt lat="45.85594" lon="4.68151">
        <ele>191.65485</ele>
        <time>2022-09-30T13:29:43.000Z</time>
      </trkpt>
      <trkpt lat="45.85597" lon="4.68155">
        <ele>191.45277</ele>
        <time>2022-09-30T13:29:44.000Z</time>
      </trkpt>
      <trkpt lat="45.85601" lon="4.6816">
        <ele>191.18642</ele>
        <time>2022-09-30T13:29:45.000Z</time>
      </trkpt>
      <trkpt lat="45.85604" lon="4.68166">
        <ele>190.911</ele>
        <time>2022-09-30T13:29:46.000Z</time>
      </trkpt>
      <trkpt lat="45.85606" lon="4.6817">
        <ele>190.63458</ele>
        <time>2022-09-30T13:29:47.000Z</time>
      </trkpt>
      <trkpt lat="45.85609" lon="4.68176">
        <ele>190.27823</ele>
        <time>2022-09-30T13:29:48.000Z</time>
      </trkpt>
      <trkpt lat="45.85612" lon="4.68181">
        <ele>189.8605</ele>
        <time>2022-09-30T13:29:49.000Z</time>
      </trkpt>
      <trkpt lat="45.85614" lon="4.68186">
        <ele>189.41234</ele>
        <time>2022-09-30T13:29:50.000Z</time>
      </trkpt>
      <trkpt lat="45.85617" lon="4.6819">
        <ele>189.04666</ele>
        <time>2022-09-30T13:29:51.000Z</time>
      </trkpt>
      <trkpt lat="45.8562" lon="4.68195">
        <ele>188.67328</ele>
        <time>2022-09-30T13:29:52.000Z</time>
      </trkpt>
      <trkpt lat="45.85623" lon="4.68199">
        <ele>188.45389</ele>
        <time>2022-09-30T13:29:53.000Z</time>
      </trkpt>
      <trkpt lat="45.85625" lon="4.68204">
        <ele>188.31912</ele>
        <time>2022-09-30T13:29:54.000Z</time>
      </trkpt>
      <trkpt lat="45.85628" lon="4.68208">
        <ele>188.27185</ele>
        <time>2022-09-30T13:29:55.000Z</time>
      </trkpt>
      <trkpt lat="45.8563" lon="4.68212">
        <ele>188.27155</ele>
        <time>2022-09-30T13:29:56.000Z</time>
      </trkpt>
      <trkpt lat="45.85633" lon="4.68216">
        <ele>188.26195</ele>
        <time>2022-09-30T13:29:57.000Z</time>
      </trkpt>
      <trkpt lat="45.85636" lon="4.6822">
        <ele>188.37714</ele>
        <time>2022-09-30T13:29:58.000Z</time>
      </trkpt>
      <trkpt lat="45.85639" lon="4.68223">
        <ele>188.51443</ele>
        <time>2022-09-30T13:29:59.000Z</time>
      </trkpt>
      <trkpt lat="45.85643" lon="4.68227">
        <ele>188.55972</ele>
        <time>2022-09-30T13:30:00.000Z</time>
      </trkpt>
      <trkpt lat="45.85646" lon="4.68231">
        <ele>188.68259</ele>
        <time>2022-09-30T13:30:01.000Z</time>
      </trkpt>
      <trkpt lat="45.85649" lon="4.68235">
        <ele>188.7903</ele>
        <time>2022-09-30T13:30:02.000Z</time>
      </trkpt>
      <trkpt lat="45.85653" lon="4.68238">
        <ele>188.91405</ele>
        <time>2022-09-30T13:30:03.000Z</time>
      </trkpt>
      <trkpt lat="45.85656" lon="4.68241">
        <ele>188.99466</ele>
        <time>2022-09-30T13:30:04.000Z</time>
      </trkpt>
      <trkpt lat="45.8566" lon="4.68245">
        <ele>189.1234</ele>
        <time>2022-09-30T13:30:05.000Z</time>
      </trkpt>
      <trkpt lat="45.85663" lon="4.68248">
        <ele>189.32047</ele>
        <time>2022-09-30T13:30:06.000Z</time>
      </trkpt>
      <trkpt lat="45.85666" lon="4.68251">
        <ele>189.56033</ele>
        <time>2022-09-30T13:30:07.000Z</time>
      </trkpt>
      <trkpt lat="45.8567" lon="4.68255">
        <ele>189.86331</ele>
        <time>2022-09-30T13:30:08.000Z</time>
      </trkpt>
      <trkpt lat="45.85674" lon="4.68259">
        <ele>190.1918</ele>
        <time>2022-09-30T13:30:09.000Z</time>
      </trkpt>
      <trkpt lat="45.85678" lon="4.68264">
        <ele>190.51779</ele>
        <time>2022-09-30T13:30:10.000Z</time>
      </trkpt>
      <trkpt lat="45.85682" lon="4.68268">
        <ele>190.71005</ele>
        <time>2022-09-30T13:30:11.000Z</time>
      </trkpt>
      <trkpt lat="45.85685" lon="4.68273">
        <ele>190.89914</ele>
        <time>2022-09-30T13:30:12.000Z</time>
      </trkpt>
      <trkpt lat="45.85689" lon="4.68277">
        <ele>191.03354</ele>
        <time>2022-09-30T13:30:13.000Z</time>
      </trkpt>
      <trkpt lat="45.85692" lon="4.68283">
        <ele>191.14975</ele>
        <time>2022-09-30T13:30:14.000Z</time>
      </trkpt>
      <trkpt lat="45.85696" lon="4.68288">
        <ele>191.19182</ele>
        <time>2022-09-30T13:30:15.000Z</time>
      </trkpt>
      <trkpt lat="45.857" lon="4.68292">
        <ele>191.18024</ele>
        <time>2022-09-30T13:30:16.000Z</time>
      </trkpt>
      <trkpt lat="45.85704" lon="4.68297">
        <ele>191.04297</ele>
        <time>2022-09-30T13:30:17.000Z</time>
      </trkpt>
      <trkpt lat="45.85708" lon="4.68302">
        <ele>190.83818</ele>
        <time>2022-09-30T13:30:18.000Z</time>
      </trkpt>
      <trkpt lat="45.85711" lon="4.68307">
        <ele>190.60741</ele>
        <time>2022-09-30T13:30:19.000Z</time>
      </trkpt>
      <trkpt lat="45.85715" lon="4.68312">
        <ele>190.40329</ele>
        <time>2022-09-30T13:30:20.000Z</time>
      </trkpt>
      <trkpt lat="45.85719" lon="4.68318">
        <ele>190.12515</ele>
        <time>2022-09-30T13:30:21.000Z</time>
      </trkpt>
      <trkpt lat="45.85722" lon="4.68322">
        <ele>189.87151</ele>
        <time>2022-09-30T13:30:22.000Z</time>
      </trkpt>
      <trkpt lat="45.85725" lon="4.68327">
        <ele>189.62605</ele>
        <time>2022-09-30T13:30:23.000Z</time>
      </trkpt>
      <trkpt lat="45.85728" lon="4.68332">
        <ele>189.3492</ele>
        <time>2022-09-30T13:30:24.000Z</time>
      </trkpt>
      <trkpt lat="45.85731" lon="4.68338">
        <ele>189.02484</ele>
        <time>2022-09-30T13:30:25.000Z</time>
      </trkpt>
      <trkpt lat="45.85734" lon="4.68344">
        <ele>188.69577</ele>
        <time>2022-09-30T13:30:26.000Z</time>
      </trkpt>
      <trkpt lat="45.85736" lon="4.68348">
        <ele>188.35968</ele>
        <time>2022-09-30T13:30:27.000Z</time>
      </trkpt>
      <trkpt lat="45.85738" lon="4.68353">
        <ele>188.06667</ele>
        <time>2022-09-30T13:30:28.000Z</time>
      </trkpt>
      <trkpt lat="45.8574" lon="4.68358">
        <ele>187.9705</ele>
        <time>2022-09-30T13:30:29.000Z</time>
      </trkpt>
      <trkpt lat="45.85741" lon="4.68364">
        <ele>187.9066</ele>
        <time>2022-09-30T13:30:30.000Z</time>
      </trkpt>
      <trkpt lat="45.85744" lon="4.68372">
        <ele>187.81067</ele>
        <time>2022-09-30T13:30:31.000Z</time>
      </trkpt>
      <trkpt lat="45.85746" lon="4.68378">
        <ele>187.72556</ele>
        <time>2022-09-30T13:30:32.000Z</time>
      </trkpt>
      <trkpt lat="45.85747" lon="4.68382">
        <ele>187.63707</ele>
        <time>2022-09-30T13:30:33.000Z</time>
      </trkpt>
      <trkpt lat="45.8575" lon="4.68388">
        <ele>187.51712</ele>
        <time>2022-09-30T13:30:34.000Z</time>
      </trkpt>
      <trkpt lat="45.85752" lon="4.68394">
        <ele>187.43358</ele>
        <time>2022-09-30T13:30:35.000Z</time>
      </trkpt>
      <trkpt lat="45.85752" lon="4.68399">
        <ele>187.44012</ele>
        <time>2022-09-30T13:30:36.000Z</time>
      </trkpt>
      <trkpt lat="45.85751" lon="4.68405">
        <ele>187.58987</ele>
        <time>2022-09-30T13:30:37.000Z</time>
      </trkpt>
      <trkpt lat="45.85746" lon="4.68409">
        <ele>187.77953</ele>
        <time>2022-09-30T13:30:38.000Z</time>
      </trkpt>
      <trkpt lat="45.85742" lon="4.68413">
        <ele>187.9948</ele>
        <time>2022-09-30T13:30:39.000Z</time>
      </trkpt>
      <trkpt lat="45.85738" lon="4.68414">
        <ele>188.21341</ele>
        <time>2022-09-30T13:30:40.000Z</time>
      </trkpt>
      <trkpt lat="45.85732" lon="4.68415">
        <ele>188.49323</ele>
        <time>2022-09-30T13:30:41.000Z</time>
      </trkpt>
      <trkpt lat="45.85728" lon="4.68417">
        <ele>188.81096</ele>
        <time>2022-09-30T13:30:42.000Z</time>
      </trkpt>
      <trkpt lat="45.85724" lon="4.6842">
        <ele>189.06783</ele>
        <time>2022-09-30T13:30:43.000Z</time>
      </trkpt>
      <trkpt lat="45.8572" lon="4.68422">
        <ele>189.41928</ele>
        <time>2022-09-30T13:30:44.000Z</time>
      </trkpt>
      <trkpt lat="45.85716" lon="4.68426">
        <ele>189.80507</ele>
        <time>2022-09-30T13:30:45.000Z</time>
      </trkpt>
      <trkpt lat="45.85712" lon="4.68428">
        <ele>190.13928</ele>
        <time>2022-09-30T13:30:46.000Z</time>
      </trkpt>
      <trkpt lat="45.85708" lon="4.68431">
        <ele>190.54495</ele>
        <time>2022-09-30T13:30:47.000Z</time>
      </trkpt>
      <trkpt lat="45.85704" lon="4.68435">
        <ele>190.97165</ele>
        <time>2022-09-30T13:30:48.000Z</time>
      </trkpt>
      <trkpt lat="45.85699" lon="4.68438">
        <ele>191.28737</ele>
        <time>2022-09-30T13:30:49.000Z</time>
      </trkpt>
      <trkpt lat="45.85694" lon="4.6844">
        <ele>191.66069</ele>
        <time>2022-09-30T13:30:50.000Z</time>
      </trkpt>
      <trkpt lat="45.8569" lon="4.68442">
        <ele>192.10278</ele>
        <time>2022-09-30T13:30:51.000Z</time>
      </trkpt>
      <trkpt lat="45.85685" lon="4.68445">
        <ele>192.55095</ele>
        <time>2022-09-30T13:30:52.000Z</time>
      </trkpt>
      <trkpt lat="45.8568" lon="4.68449">
        <ele>192.98967</ele>
        <time>2022-09-30T13:30:53.000Z</time>
      </trkpt>
      <trkpt lat="45.85675" lon="4.68451">
        <ele>193.46742</ele>
        <time>2022-09-30T13:30:54.000Z</time>
      </trkpt>
      <trkpt lat="45.85671" lon="4.68453">
        <ele>193.94437</ele>
        <time>2022-09-30T13:30:55.000Z</time>
      </trkpt>
      <trkpt lat="45.85666" lon="4.68455">
        <ele>194.35954</ele>
        <time>2022-09-30T13:30:56.000Z</time>
      </trkpt>
      <trkpt lat="45.85662" lon="4.68458">
        <ele>194.72748</ele>
        <time>2022-09-30T13:30:57.000Z</time>
      </trkpt>
      <trkpt lat="45.85657" lon="4.6846">
        <ele>195.0405</ele>
        <time>2022-09-30T13:30:58.000Z</time>
      </trkpt>
      <trkpt lat="45.85653" lon="4.68463">
        <ele>195.38522</ele>
        <time>2022-09-30T13:30:59.000Z</time>
      </trkpt>
      <trkpt lat="45.85648" lon="4.68466">
        <ele>195.74881</ele>
        <time>2022-09-30T13:31:00.000Z</time>
      </trkpt>
      <trkpt lat="45.85644" lon="4.68469">
        <ele>196.13834</ele>
        <time>2022-09-30T13:31:01.000Z</time>
      </trkpt>
      <trkpt lat="45.85639" lon="4.68472">
        <ele>196.51901</ele>
        <time>2022-09-30T13:31:02.000Z</time>
      </trkpt>
      <trkpt lat="45.85636" lon="4.68472">
        <ele>196.87613</ele>
        <time>2022-09-30T13:31:03.000Z</time>
      </trkpt>
      <trkpt lat="45.8563" lon="4.68475">
        <ele>197.15215</ele>
        <time>2022-09-30T13:31:04.000Z</time>
      </trkpt>
      <trkpt lat="45.85626" lon="4.68477">
        <ele>197.39461</ele>
        <time>2022-09-30T13:31:05.000Z</time>
      </trkpt>
      <trkpt lat="45.85619" lon="4.68479">
        <ele>197.67088</ele>
        <time>2022-09-30T13:31:06.000Z</time>
      </trkpt>
      <trkpt lat="45.85615" lon="4.68481">
        <ele>197.832</ele>
        <time>2022-09-30T13:31:07.000Z</time>
      </trkpt>
      <trkpt lat="45.8561" lon="4.68482">
        <ele>197.9584</ele>
        <time>2022-09-30T13:31:08.000Z</time>
      </trkpt>
      <trkpt lat="45.85604" lon="4.68483">
        <ele>198.05418</ele>
        <time>2022-09-30T13:31:09.000Z</time>
      </trkpt>
      <trkpt lat="45.856" lon="4.68485">
        <ele>198.16792</ele>
        <time>2022-09-30T13:31:10.000Z</time>
      </trkpt>
      <trkpt lat="45.85594" lon="4.68486">
        <ele>198.21671</ele>
        <time>2022-09-30T13:31:11.000Z</time>
      </trkpt>
      <trkpt lat="45.85588" lon="4.68486">
        <ele>198.25587</ele>
        <time>2022-09-30T13:31:12.000Z</time>
      </trkpt>
      <trkpt lat="45.85583" lon="4.68487">
        <ele>198.32407</ele>
        <time>2022-09-30T13:31:13.000Z</time>
      </trkpt>
      <trkpt lat="45.85579" lon="4.68486">
        <ele>198.42789</ele>
        <time>2022-09-30T13:31:14.000Z</time>
      </trkpt>
      <trkpt lat="45.85575" lon="4.68486">
        <ele>198.55705</ele>
        <time>2022-09-30T13:31:15.000Z</time>
      </trkpt>
      <trkpt lat="45.85568" lon="4.68486">
        <ele>198.70193</ele>
        <time>2022-09-30T13:31:16.000Z</time>
      </trkpt>
      <trkpt lat="45.85564" lon="4.68486">
        <ele>198.84778</ele>
        <time>2022-09-30T13:31:17.000Z</time>
      </trkpt>
      <trkpt lat="45.85559" lon="4.68489">
        <ele>199.03769</ele>
        <time>2022-09-30T13:31:18.000Z</time>
      </trkpt>
      <trkpt lat="45.85554" lon="4.68491">
        <ele>199.21233</ele>
        <time>2022-09-30T13:31:19.000Z</time>
      </trkpt>
      <trkpt lat="45.8555" lon="4.68491">
        <ele>199.39703</ele>
        <time>2022-09-30T13:31:20.000Z</time>
      </trkpt>
      <trkpt lat="45.85548" lon="4.68494">
        <ele>199.6066</ele>
        <time>2022-09-30T13:31:21.000Z</time>
      </trkpt>
      <trkpt lat="45.85547" lon="4.68486">
        <ele>199.80856</ele>
        <time>2022-09-30T13:31:22.000Z</time>
      </trkpt>
      <trkpt lat="45.85546" lon="4.68482">
        <ele>200.11583</ele>
        <time>2022-09-30T13:31:23.000Z</time>
      </trkpt>
      <trkpt lat="45.85544" lon="4.6848">
        <ele>200.4646</ele>
        <time>2022-09-30T13:31:24.000Z</time>
      </trkpt>
      <trkpt lat="45.85541" lon="4.6848">
        <ele>200.80203</ele>
        <time>2022-09-30T13:31:25.000Z</time>
      </trkpt>
      <trkpt lat="45.85537" lon="4.68479">
        <ele>201.14835</ele>
        <time>2022-09-30T13:31:26.000Z</time>
      </trkpt>
      <trkpt lat="45.85533" lon="4.68481">
        <ele>201.49207</ele>
        <time>2022-09-30T13:31:27.000Z</time>
      </trkpt>
      <trkpt lat="45.85529" lon="4.68486">
        <ele>201.80511</ele>
        <time>2022-09-30T13:31:28.000Z</time>
      </trkpt>
      <trkpt lat="45.85527" lon="4.68494">
        <ele>202.0278</ele>
        <time>2022-09-30T13:31:29.000Z</time>
      </trkpt>
      <trkpt lat="45.85528" lon="4.685">
        <ele>202.09602</ele>
        <time>2022-09-30T13:31:30.000Z</time>
      </trkpt>
      <trkpt lat="45.85531" lon="4.68505">
        <ele>202.20203</ele>
        <time>2022-09-30T13:31:31.000Z</time>
      </trkpt>
      <trkpt lat="45.85533" lon="4.68511">
        <ele>202.38364</ele>
        <time>2022-09-30T13:31:32.000Z</time>
      </trkpt>
      <trkpt lat="45.85533" lon="4.68519">
        <ele>202.49008</ele>
        <time>2022-09-30T13:31:33.000Z</time>
      </trkpt>
      <trkpt lat="45.85534" lon="4.68526">
        <ele>202.54581</ele>
        <time>2022-09-30T13:31:34.000Z</time>
      </trkpt>
      <trkpt lat="45.85534" lon="4.68534">
        <ele>202.55722</ele>
        <time>2022-09-30T13:31:35.000Z</time>
      </trkpt>
      <trkpt lat="45.85535" lon="4.68541">
        <ele>202.50821</ele>
        <time>2022-09-30T13:31:36.000Z</time>
      </trkpt>
      <trkpt lat="45.85535" lon="4.68547">
        <ele>202.3999</ele>
        <time>2022-09-30T13:31:37.000Z</time>
      </trkpt>
      <trkpt lat="45.85535" lon="4.68553">
        <ele>202.18939</ele>
        <time>2022-09-30T13:31:38.000Z</time>
      </trkpt>
      <trkpt lat="45.85535" lon="4.6856">
        <ele>201.96725</ele>
        <time>2022-09-30T13:31:39.000Z</time>
      </trkpt>
      <trkpt lat="45.85536" lon="4.68567">
        <ele>201.69975</ele>
        <time>2022-09-30T13:31:40.000Z</time>
      </trkpt>
      <trkpt lat="45.85536" lon="4.68573">
        <ele>201.3353</ele>
        <time>2022-09-30T13:31:41.000Z</time>
      </trkpt>
      <trkpt lat="45.85536" lon="4.6858">
        <ele>200.99437</ele>
        <time>2022-09-30T13:31:42.000Z</time>
      </trkpt>
      <trkpt lat="45.85537" lon="4.68585">
        <ele>200.6082</ele>
        <time>2022-09-30T13:31:43.000Z</time>
      </trkpt>
      <trkpt lat="45.85537" lon="4.68592">
        <ele>200.14232</ele>
        <time>2022-09-30T13:31:44.000Z</time>
      </trkpt>
      <trkpt lat="45.85537" lon="4.68599">
        <ele>199.73064</ele>
        <time>2022-09-30T13:31:45.000Z</time>
      </trkpt>
      <trkpt lat="45.85538" lon="4.68604">
        <ele>199.31081</ele>
        <time>2022-09-30T13:31:46.000Z</time>
      </trkpt>
      <trkpt lat="45.85538" lon="4.6861">
        <ele>198.95998</ele>
        <time>2022-09-30T13:31:47.000Z</time>
      </trkpt>
      <trkpt lat="45.85539" lon="4.68616">
        <ele>198.64474</ele>
        <time>2022-09-30T13:31:48.000Z</time>
      </trkpt>
      <trkpt lat="45.85539" lon="4.68623">
        <ele>198.42426</ele>
        <time>2022-09-30T13:31:49.000Z</time>
      </trkpt>
      <trkpt lat="45.8554" lon="4.68628">
        <ele>198.30186</ele>
        <time>2022-09-30T13:31:50.000Z</time>
      </trkpt>
      <trkpt lat="45.85541" lon="4.68634">
        <ele>198.17421</ele>
        <time>2022-09-30T13:31:51.000Z</time>
      </trkpt>
      <trkpt lat="45.85541" lon="4.6864">
        <ele>197.99594</ele>
        <time>2022-09-30T13:31:52.000Z</time>
      </trkpt>
      <trkpt lat="45.85542" lon="4.68647">
        <ele>197.88658</ele>
        <time>2022-09-30T13:31:53.000Z</time>
      </trkpt>
      <trkpt lat="45.85542" lon="4.68653">
        <ele>197.80243</ele>
        <time>2022-09-30T13:31:54.000Z</time>
      </trkpt>
      <trkpt lat="45.85543" lon="4.68659">
        <ele>197.76364</ele>
        <time>2022-09-30T13:31:55.000Z</time>
      </trkpt>
      <trkpt lat="45.85543" lon="4.68664">
        <ele>197.72069</ele>
        <time>2022-09-30T13:31:56.000Z</time>
      </trkpt>
      <trkpt lat="45.85544" lon="4.6867">
        <ele>197.7057</ele>
        <time>2022-09-30T13:31:57.000Z</time>
      </trkpt>
      <trkpt lat="45.85544" lon="4.68676">
        <ele>197.75389</ele>
        <time>2022-09-30T13:31:58.000Z</time>
      </trkpt>
      <trkpt lat="45.85545" lon="4.68682">
        <ele>197.76366</ele>
        <time>2022-09-30T13:31:59.000Z</time>
      </trkpt>
      <trkpt lat="45.85546" lon="4.68688">
        <ele>197.84381</ele>
        <time>2022-09-30T13:32:00.000Z</time>
      </trkpt>
      <trkpt lat="45.85546" lon="4.68693">
        <ele>197.99438</ele>
        <time>2022-09-30T13:32:01.000Z</time>
      </trkpt>
      <trkpt lat="45.85547" lon="4.68699">
        <ele>198.0556</ele>
        <time>2022-09-30T13:32:02.000Z</time>
      </trkpt>
      <trkpt lat="45.85548" lon="4.68704">
        <ele>198.13795</ele>
        <time>2022-09-30T13:32:03.000Z</time>
      </trkpt>
      <trkpt lat="45.85549" lon="4.68709">
        <ele>198.26385</ele>
        <time>2022-09-30T13:32:04.000Z</time>
      </trkpt>
      <trkpt lat="45.8555" lon="4.68714">
        <ele>198.34286</ele>
        <time>2022-09-30T13:32:05.000Z</time>
      </trkpt>
      <trkpt lat="45.8555" lon="4.68719">
        <ele>198.40689</ele>
        <time>2022-09-30T13:32:06.000Z</time>
      </trkpt>
      <trkpt lat="45.85551" lon="4.68725">
        <ele>198.45218</ele>
        <time>2022-09-30T13:32:07.000Z</time>
      </trkpt>
      <trkpt lat="45.85551" lon="4.68729">
        <ele>198.43359</ele>
        <time>2022-09-30T13:32:08.000Z</time>
      </trkpt>
      <trkpt lat="45.85552" lon="4.68734">
        <ele>198.42654</ele>
        <time>2022-09-30T13:32:09.000Z</time>
      </trkpt>
      <trkpt lat="45.85552" lon="4.68739">
        <ele>198.36693</ele>
        <time>2022-09-30T13:32:10.000Z</time>
      </trkpt>
      <trkpt lat="45.85551" lon="4.68743">
        <ele>198.29091</ele>
        <time>2022-09-30T13:32:11.000Z</time>
      </trkpt>
      <trkpt lat="45.8555" lon="4.68747">
        <ele>198.23157</ele>
        <time>2022-09-30T13:32:12.000Z</time>
      </trkpt>
      <trkpt lat="45.85548" lon="4.6875">
        <ele>198.16754</ele>
        <time>2022-09-30T13:32:13.000Z</time>
      </trkpt>
      <trkpt lat="45.85544" lon="4.68753">
        <ele>198.06615</ele>
        <time>2022-09-30T13:32:14.000Z</time>
      </trkpt>
      <trkpt lat="45.8554" lon="4.68754">
        <ele>197.9994</ele>
        <time>2022-09-30T13:32:15.000Z</time>
      </trkpt>
      <trkpt lat="45.85536" lon="4.68754">
        <ele>197.94386</ele>
        <time>2022-09-30T13:32:16.000Z</time>
      </trkpt>
      <trkpt lat="45.85532" lon="4.68755">
        <ele>197.93178</ele>
        <time>2022-09-30T13:32:17.000Z</time>
      </trkpt>
      <trkpt lat="45.85528" lon="4.68755">
        <ele>197.96361</ele>
        <time>2022-09-30T13:32:18.000Z</time>
      </trkpt>
      <trkpt lat="45.85524" lon="4.68754">
        <ele>198.08063</ele>
        <time>2022-09-30T13:32:19.000Z</time>
      </trkpt>
      <trkpt lat="45.85522" lon="4.68752">
        <ele>198.13879</ele>
        <time>2022-09-30T13:32:20.000Z</time>
      </trkpt>
      <trkpt lat="45.85521" lon="4.68748">
        <ele>198.22743</ele>
        <time>2022-09-30T13:32:21.000Z</time>
      </trkpt>
      <trkpt lat="45.85521" lon="4.68745">
        <ele>198.33823</ele>
        <time>2022-09-30T13:32:22.000Z</time>
      </trkpt>
      <trkpt lat="45.85523" lon="4.68742">
        <ele>198.41173</ele>
        <time>2022-09-30T13:32:23.000Z</time>
      </trkpt>
      <trkpt lat="45.85526" lon="4.6874">
        <ele>198.48557</ele>
        <time>2022-09-30T13:32:24.000Z</time>
      </trkpt>
      <trkpt lat="45.8553" lon="4.68739">
        <ele>198.65181</ele>
        <time>2022-09-30T13:32:25.000Z</time>
      </trkpt>
      <trkpt lat="45.85533" lon="4.68737">
        <ele>198.93112</ele>
        <time>2022-09-30T13:32:26.000Z</time>
      </trkpt>
      <trkpt lat="45.85535" lon="4.68734">
        <ele>199.2298</ele>
        <time>2022-09-30T13:32:27.000Z</time>
      </trkpt>
      <trkpt lat="45.85537" lon="4.68731">
        <ele>199.61638</ele>
        <time>2022-09-30T13:32:28.000Z</time>
      </trkpt>
      <trkpt lat="45.85537" lon="4.68728">
        <ele>199.99591</ele>
        <time>2022-09-30T13:32:29.000Z</time>
      </trkpt>
      <trkpt lat="45.85538" lon="4.68725">
        <ele>200.37453</ele>
        <time>2022-09-30T13:32:30.000Z</time>
      </trkpt>
      <trkpt lat="45.85542" lon="4.68724">
        <ele>200.70284</ele>
        <time>2022-09-30T13:32:32.000Z</time>
      </trkpt>
      <trkpt lat="45.85543" lon="4.68726">
        <ele>200.8213</ele>
        <time>2022-09-30T13:32:37.000Z</time>
      </trkpt>
      <trkpt lat="45.85544" lon="4.68728">
        <ele>201.02205</ele>
        <time>2022-09-30T13:32:44.000Z</time>
      </trkpt>
      <trkpt lat="45.85542" lon="4.6873">
        <ele>201.14746</ele>
        <time>2022-09-30T13:32:59.000Z</time>
      </trkpt>
      <trkpt lat="45.8554" lon="4.68732">
        <ele>201.12949</ele>
        <time>2022-09-30T13:33:01.000Z</time>
      </trkpt>
      <trkpt lat="45.85538" lon="4.68732">
        <ele>201.15903</ele>
        <time>2022-09-30T13:33:03.000Z</time>
      </trkpt>
      <trkpt lat="45.85537" lon="4.6873">
        <ele>201.172</ele>
        <time>2022-09-30T13:33:04.000Z</time>
      </trkpt>
      <trkpt lat="45.85536" lon="4.68725">
        <ele>201.01567</ele>
        <time>2022-09-30T13:33:06.000Z</time>
      </trkpt>
      <trkpt lat="45.85535" lon="4.68722">
        <ele>200.80894</ele>
        <time>2022-09-30T13:33:08.000Z</time>
      </trkpt>
      <trkpt lat="45.85534" lon="4.6872">
        <ele>200.74751</ele>
        <time>2022-09-30T13:33:10.000Z</time>
      </trkpt>
      <trkpt lat="45.85533" lon="4.68717">
        <ele>200.67261</ele>
        <time>2022-09-30T13:33:12.000Z</time>
      </trkpt>
      <trkpt lat="45.85533" lon="4.68713">
        <ele>200.54071</ele>
        <time>2022-09-30T13:33:14.000Z</time>
      </trkpt>
      <trkpt lat="45.85534" lon="4.68711">
        <ele>200.37808</ele>
        <time>2022-09-30T13:33:16.000Z</time>
      </trkpt>
      <trkpt lat="45.85534" lon="4.68711">
        <ele>200.37808</ele>
        <time>2022-09-30T13:33:16.000Z</time>
      </trkpt>
      <trkpt lat="45.85542" lon="4.68707">
        <ele>200.53645</ele>
        <time>2022-09-30T13:50:31.438Z</time>
      </trkpt>
      <trkpt lat="45.85542" lon="4.68707">
        <ele>200.53645</ele>
        <time>2022-09-30T13:50:31.438Z</time>
      </trkpt>
      <trkpt lat="45.8554" lon="4.68708">
        <ele>200.52048</ele>
        <time>2022-09-30T13:50:35.000Z</time>
      </trkpt>
      <trkpt lat="45.8554" lon="4.68712">
        <ele>200.4693</ele>
        <time>2022-09-30T13:50:37.000Z</time>
      </trkpt>
      <trkpt lat="45.8554" lon="4.68715">
        <ele>200.38066</ele>
        <time>2022-09-30T13:50:38.000Z</time>
      </trkpt>
      <trkpt lat="45.85541" lon="4.68718">
        <ele>200.31296</ele>
        <time>2022-09-30T13:50:39.000Z</time>
      </trkpt>
      <trkpt lat="45.85541" lon="4.68721">
        <ele>200.25662</ele>
        <time>2022-09-30T13:50:40.000Z</time>
      </trkpt>
      <trkpt lat="45.85542" lon="4.68724">
        <ele>200.24284</ele>
        <time>2022-09-30T13:50:41.000Z</time>
      </trkpt>
      <trkpt lat="45.85542" lon="4.68728">
        <ele>200.35226</ele>
        <time>2022-09-30T13:50:42.000Z</time>
      </trkpt>
      <trkpt lat="45.85541" lon="4.68732">
        <ele>200.65685</ele>
        <time>2022-09-30T13:50:43.000Z</time>
      </trkpt>
      <trkpt lat="45.85541" lon="4.68735">
        <ele>200.82759</ele>
        <time>2022-09-30T13:50:44.000Z</time>
      </trkpt>
      <trkpt lat="45.8554" lon="4.68737">
        <ele>201.08258</ele>
        <time>2022-09-30T13:50:45.000Z</time>
      </trkpt>
      <trkpt lat="45.85538" lon="4.6874">
        <ele>201.41226</ele>
        <time>2022-09-30T13:50:46.000Z</time>
      </trkpt>
      <trkpt lat="45.85534" lon="4.68742">
        <ele>201.68175</ele>
        <time>2022-09-30T13:50:47.000Z</time>
      </trkpt>
      <trkpt lat="45.85531" lon="4.68743">
        <ele>201.99028</ele>
        <time>2022-09-30T13:50:48.000Z</time>
      </trkpt>
      <trkpt lat="45.85528" lon="4.68743">
        <ele>202.48683</ele>
        <time>2022-09-30T13:50:49.000Z</time>
      </trkpt>
      <trkpt lat="45.85525" lon="4.68743">
        <ele>203.01956</ele>
        <time>2022-09-30T13:50:50.000Z</time>
      </trkpt>
      <trkpt lat="45.85523" lon="4.68744">
        <ele>203.41293</ele>
        <time>2022-09-30T13:50:51.000Z</time>
      </trkpt>
      <trkpt lat="45.8552" lon="4.68746">
        <ele>203.79396</ele>
        <time>2022-09-30T13:50:52.000Z</time>
      </trkpt>
      <trkpt lat="45.85519" lon="4.68748">
        <ele>204.31223</ele>
        <time>2022-09-30T13:50:53.000Z</time>
      </trkpt>
      <trkpt lat="45.85518" lon="4.6875">
        <ele>204.80823</ele>
        <time>2022-09-30T13:50:54.000Z</time>
      </trkpt>
      <trkpt lat="45.85517" lon="4.68753">
        <ele>204.99931</ele>
        <time>2022-09-30T13:50:55.000Z</time>
      </trkpt>
      <trkpt lat="45.85514" lon="4.68755">
        <ele>205.20175</ele>
        <time>2022-09-30T13:50:56.000Z</time>
      </trkpt>
      <trkpt lat="45.85512" lon="4.68756">
        <ele>205.36028</ele>
        <time>2022-09-30T13:50:57.000Z</time>
      </trkpt>
      <trkpt lat="45.85509" lon="4.68757">
        <ele>205.48515</ele>
        <time>2022-09-30T13:50:58.000Z</time>
      </trkpt>
      <trkpt lat="45.85506" lon="4.68758">
        <ele>205.56316</ele>
        <time>2022-09-30T13:50:59.000Z</time>
      </trkpt>
      <trkpt lat="45.85503" lon="4.6876">
        <ele>205.69186</ele>
        <time>2022-09-30T13:51:00.000Z</time>
      </trkpt>
      <trkpt lat="45.85501" lon="4.68763">
        <ele>205.73152</ele>
        <time>2022-09-30T13:51:01.000Z</time>
      </trkpt>
      <trkpt lat="45.85499" lon="4.68768">
        <ele>205.77446</ele>
        <time>2022-09-30T13:51:02.000Z</time>
      </trkpt>
      <trkpt lat="45.85498" lon="4.68773">
        <ele>205.81931</ele>
        <time>2022-09-30T13:51:03.000Z</time>
      </trkpt>
      <trkpt lat="45.85498" lon="4.68778">
        <ele>205.85107</ele>
        <time>2022-09-30T13:51:04.000Z</time>
      </trkpt>
      <trkpt lat="45.85498" lon="4.68783">
        <ele>205.84366</ele>
        <time>2022-09-30T13:51:05.000Z</time>
      </trkpt>
      <trkpt lat="45.85499" lon="4.68788">
        <ele>205.87717</ele>
        <time>2022-09-30T13:51:06.000Z</time>
      </trkpt>
      <trkpt lat="45.855" lon="4.68793">
        <ele>205.91084</ele>
        <time>2022-09-30T13:51:07.000Z</time>
      </trkpt>
      <trkpt lat="45.85501" lon="4.68798">
        <ele>205.83794</ele>
        <time>2022-09-30T13:51:08.000Z</time>
      </trkpt>
      <trkpt lat="45.85501" lon="4.68803">
        <ele>205.67061</ele>
        <time>2022-09-30T13:51:09.000Z</time>
      </trkpt>
      <trkpt lat="45.85502" lon="4.68809">
        <ele>205.47348</ele>
        <time>2022-09-30T13:51:10.000Z</time>
      </trkpt>
      <trkpt lat="45.85502" lon="4.68814">
        <ele>205.3103</ele>
        <time>2022-09-30T13:51:11.000Z</time>
      </trkpt>
      <trkpt lat="45.85502" lon="4.68819">
        <ele>205.19768</ele>
        <time>2022-09-30T13:51:12.000Z</time>
      </trkpt>
      <trkpt lat="45.85502" lon="4.68825">
        <ele>204.9832</ele>
        <time>2022-09-30T13:51:13.000Z</time>
      </trkpt>
      <trkpt lat="45.85503" lon="4.68831">
        <ele>204.76431</ele>
        <time>2022-09-30T13:51:14.000Z</time>
      </trkpt>
      <trkpt lat="45.85502" lon="4.68837">
        <ele>204.48347</ele>
        <time>2022-09-30T13:51:15.000Z</time>
      </trkpt>
      <trkpt lat="45.85501" lon="4.68842">
        <ele>204.27341</ele>
        <time>2022-09-30T13:51:16.000Z</time>
      </trkpt>
      <trkpt lat="45.85497" lon="4.68846">
        <ele>204.00095</ele>
        <time>2022-09-30T13:51:17.000Z</time>
      </trkpt>
      <trkpt lat="45.85493" lon="4.68849">
        <ele>203.84006</ele>
        <time>2022-09-30T13:51:18.000Z</time>
      </trkpt>
      <trkpt lat="45.85485" lon="4.68851">
        <ele>203.67563</ele>
        <time>2022-09-30T13:51:19.000Z</time>
      </trkpt>
      <trkpt lat="45.85482" lon="4.68856">
        <ele>203.43033</ele>
        <time>2022-09-30T13:51:20.000Z</time>
      </trkpt>
      <trkpt lat="45.85482" lon="4.68865">
        <ele>203.2869</ele>
        <time>2022-09-30T13:51:21.000Z</time>
      </trkpt>
      <trkpt lat="45.85481" lon="4.68868">
        <ele>203.2261</ele>
        <time>2022-09-30T13:51:22.000Z</time>
      </trkpt>
      <trkpt lat="45.85482" lon="4.68873">
        <ele>203.16225</ele>
        <time>2022-09-30T13:51:23.000Z</time>
      </trkpt>
      <trkpt lat="45.85482" lon="4.68879">
        <ele>203.09007</ele>
        <time>2022-09-30T13:51:24.000Z</time>
      </trkpt>
      <trkpt lat="45.85482" lon="4.68884">
        <ele>203.15921</ele>
        <time>2022-09-30T13:51:25.000Z</time>
      </trkpt>
      <trkpt lat="45.85482" lon="4.68889">
        <ele>203.19951</ele>
        <time>2022-09-30T13:51:26.000Z</time>
      </trkpt>
      <trkpt lat="45.85483" lon="4.68895">
        <ele>203.31146</ele>
        <time>2022-09-30T13:51:27.000Z</time>
      </trkpt>
      <trkpt lat="45.85486" lon="4.68903">
        <ele>203.54494</ele>
        <time>2022-09-30T13:51:28.000Z</time>
      </trkpt>
      <trkpt lat="45.85485" lon="4.68909">
        <ele>203.78256</ele>
        <time>2022-09-30T13:51:29.000Z</time>
      </trkpt>
      <trkpt lat="45.85486" lon="4.68916">
        <ele>204.01372</ele>
        <time>2022-09-30T13:51:30.000Z</time>
      </trkpt>
      <trkpt lat="45.85487" lon="4.68924">
        <ele>204.23332</ele>
        <time>2022-09-30T13:51:31.000Z</time>
      </trkpt>
      <trkpt lat="45.85489" lon="4.68931">
        <ele>204.40002</ele>
        <time>2022-09-30T13:51:32.000Z</time>
      </trkpt>
      <trkpt lat="45.8549" lon="4.68938">
        <ele>204.55106</ele>
        <time>2022-09-30T13:51:33.000Z</time>
      </trkpt>
      <trkpt lat="45.85491" lon="4.68946">
        <ele>204.77844</ele>
        <time>2022-09-30T13:51:34.000Z</time>
      </trkpt>
      <trkpt lat="45.85492" lon="4.68952">
        <ele>205.00256</ele>
        <time>2022-09-30T13:51:35.000Z</time>
      </trkpt>
      <trkpt lat="45.85493" lon="4.68959">
        <ele>205.25949</ele>
        <time>2022-09-30T13:51:36.000Z</time>
      </trkpt>
      <trkpt lat="45.85493" lon="4.68965">
        <ele>205.47749</ele>
        <time>2022-09-30T13:51:37.000Z</time>
      </trkpt>
      <trkpt lat="45.85495" lon="4.68971">
        <ele>205.53885</ele>
        <time>2022-09-30T13:51:38.000Z</time>
      </trkpt>
      <trkpt lat="45.85496" lon="4.68979">
        <ele>205.62679</ele>
        <time>2022-09-30T13:51:39.000Z</time>
      </trkpt>
      <trkpt lat="45.85495" lon="4.68986">
        <ele>205.71184</ele>
        <time>2022-09-30T13:51:40.000Z</time>
      </trkpt>
      <trkpt lat="45.85495" lon="4.68993">
        <ele>205.77322</ele>
        <time>2022-09-30T13:51:41.000Z</time>
      </trkpt>
      <trkpt lat="45.85496" lon="4.69001">
        <ele>205.75867</ele>
        <time>2022-09-30T13:51:42.000Z</time>
      </trkpt>
      <trkpt lat="45.85498" lon="4.69008">
        <ele>205.75728</ele>
        <time>2022-09-30T13:51:43.000Z</time>
      </trkpt>
      <trkpt lat="45.85499" lon="4.69015">
        <ele>205.79654</ele>
        <time>2022-09-30T13:51:44.000Z</time>
      </trkpt>
      <trkpt lat="45.85499" lon="4.69023">
        <ele>205.73941</ele>
        <time>2022-09-30T13:51:45.000Z</time>
      </trkpt>
      <trkpt lat="45.855" lon="4.6903">
        <ele>205.64859</ele>
        <time>2022-09-30T13:51:46.000Z</time>
      </trkpt>
      <trkpt lat="45.85501" lon="4.69038">
        <ele>205.55844</ele>
        <time>2022-09-30T13:51:47.000Z</time>
      </trkpt>
      <trkpt lat="45.85503" lon="4.69044">
        <ele>205.38884</ele>
        <time>2022-09-30T13:51:48.000Z</time>
      </trkpt>
      <trkpt lat="45.85503" lon="4.6905">
        <ele>205.17561</ele>
        <time>2022-09-30T13:51:49.000Z</time>
      </trkpt>
      <trkpt lat="45.85502" lon="4.69057">
        <ele>204.95752</ele>
        <time>2022-09-30T13:51:50.000Z</time>
      </trkpt>
      <trkpt lat="45.85504" lon="4.69064">
        <ele>204.72958</ele>
        <time>2022-09-30T13:51:51.000Z</time>
      </trkpt>
      <trkpt lat="45.85503" lon="4.69073">
        <ele>204.51599</ele>
        <time>2022-09-30T13:51:52.000Z</time>
      </trkpt>
      <trkpt lat="45.85505" lon="4.69079">
        <ele>204.3497</ele>
        <time>2022-09-30T13:51:53.000Z</time>
      </trkpt>
      <trkpt lat="45.85507" lon="4.69087">
        <ele>204.17123</ele>
        <time>2022-09-30T13:51:54.000Z</time>
      </trkpt>
      <trkpt lat="45.85507" lon="4.69094">
        <ele>204.02191</ele>
        <time>2022-09-30T13:51:55.000Z</time>
      </trkpt>
      <trkpt lat="45.85506" lon="4.69099">
        <ele>203.81854</ele>
        <time>2022-09-30T13:51:56.000Z</time>
      </trkpt>
      <trkpt lat="45.85508" lon="4.69106">
        <ele>203.71906</ele>
        <time>2022-09-30T13:51:57.000Z</time>
      </trkpt>
      <trkpt lat="45.8551" lon="4.69114">
        <ele>203.74777</ele>
        <time>2022-09-30T13:51:58.000Z</time>
      </trkpt>
      <trkpt lat="45.85511" lon="4.69121">
        <ele>203.7583</ele>
        <time>2022-09-30T13:51:59.000Z</time>
      </trkpt>
      <trkpt lat="45.8551" lon="4.69128">
        <ele>203.78848</ele>
        <time>2022-09-30T13:52:00.000Z</time>
      </trkpt>
      <trkpt lat="45.8551" lon="4.69135">
        <ele>203.7782</ele>
        <time>2022-09-30T13:52:01.000Z</time>
      </trkpt>
      <trkpt lat="45.8551" lon="4.69142">
        <ele>203.70572</ele>
        <time>2022-09-30T13:52:02.000Z</time>
      </trkpt>
      <trkpt lat="45.85513" lon="4.69146">
        <ele>203.56941</ele>
        <time>2022-09-30T13:52:03.000Z</time>
      </trkpt>
      <trkpt lat="45.85515" lon="4.69153">
        <ele>203.43605</ele>
        <time>2022-09-30T13:52:04.000Z</time>
      </trkpt>
      <trkpt lat="45.85515" lon="4.69159">
        <ele>203.27034</ele>
        <time>2022-09-30T13:52:05.000Z</time>
      </trkpt>
      <trkpt lat="45.85516" lon="4.69165">
        <ele>203.21768</ele>
        <time>2022-09-30T13:52:06.000Z</time>
      </trkpt>
      <trkpt lat="45.85516" lon="4.69173">
        <ele>203.13022</ele>
        <time>2022-09-30T13:52:07.000Z</time>
      </trkpt>
      <trkpt lat="45.85517" lon="4.6918">
        <ele>203.07701</ele>
        <time>2022-09-30T13:52:08.000Z</time>
      </trkpt>
      <trkpt lat="45.85518" lon="4.69184">
        <ele>203.0842</ele>
        <time>2022-09-30T13:52:09.000Z</time>
      </trkpt>
      <trkpt lat="45.85519" lon="4.69191">
        <ele>203.13181</ele>
        <time>2022-09-30T13:52:10.000Z</time>
      </trkpt>
      <trkpt lat="45.85518" lon="4.69198">
        <ele>203.23306</ele>
        <time>2022-09-30T13:52:11.000Z</time>
      </trkpt>
      <trkpt lat="45.85519" lon="4.69204">
        <ele>203.35129</ele>
        <time>2022-09-30T13:52:12.000Z</time>
      </trkpt>
      <trkpt lat="45.85519" lon="4.6921">
        <ele>203.48367</ele>
        <time>2022-09-30T13:52:13.000Z</time>
      </trkpt>
      <trkpt lat="45.85519" lon="4.69216">
        <ele>203.61111</ele>
        <time>2022-09-30T13:52:14.000Z</time>
      </trkpt>
      <trkpt lat="45.8552" lon="4.69223">
        <ele>203.70255</ele>
        <time>2022-09-30T13:52:15.000Z</time>
      </trkpt>
      <trkpt lat="45.85522" lon="4.69229">
        <ele>203.7684</ele>
        <time>2022-09-30T13:52:16.000Z</time>
      </trkpt>
      <trkpt lat="45.85524" lon="4.69234">
        <ele>203.76167</ele>
        <time>2022-09-30T13:52:17.000Z</time>
      </trkpt>
      <trkpt lat="45.85527" lon="4.69239">
        <ele>203.72574</ele>
        <time>2022-09-30T13:52:18.000Z</time>
      </trkpt>
      <trkpt lat="45.8553" lon="4.69242">
        <ele>203.66379</ele>
        <time>2022-09-30T13:52:19.000Z</time>
      </trkpt>
      <trkpt lat="45.85532" lon="4.69245">
        <ele>203.62125</ele>
        <time>2022-09-30T13:52:20.000Z</time>
      </trkpt>
      <trkpt lat="45.85534" lon="4.69249">
        <ele>203.63785</ele>
        <time>2022-09-30T13:52:21.000Z</time>
      </trkpt>
      <trkpt lat="45.85535" lon="4.69253">
        <ele>203.73119</ele>
        <time>2022-09-30T13:52:22.000Z</time>
      </trkpt>
      <trkpt lat="45.85536" lon="4.69257">
        <ele>203.85933</ele>
        <time>2022-09-30T13:52:23.000Z</time>
      </trkpt>
      <trkpt lat="45.85537" lon="4.6926">
        <ele>203.93106</ele>
        <time>2022-09-30T13:52:24.000Z</time>
      </trkpt>
      <trkpt lat="45.85539" lon="4.69263">
        <ele>204.01108</ele>
        <time>2022-09-30T13:52:25.000Z</time>
      </trkpt>
      <trkpt lat="45.85542" lon="4.69266">
        <ele>203.99063</ele>
        <time>2022-09-30T13:52:26.000Z</time>
      </trkpt>
      <trkpt lat="45.85545" lon="4.69268">
        <ele>203.97781</ele>
        <time>2022-09-30T13:52:27.000Z</time>
      </trkpt>
      <trkpt lat="45.85549" lon="4.69268">
        <ele>203.91084</ele>
        <time>2022-09-30T13:52:28.000Z</time>
      </trkpt>
      <trkpt lat="45.85553" lon="4.69268">
        <ele>203.80739</ele>
        <time>2022-09-30T13:52:29.000Z</time>
      </trkpt>
      <trkpt lat="45.85557" lon="4.69267">
        <ele>203.65953</ele>
        <time>2022-09-30T13:52:30.000Z</time>
      </trkpt>
      <trkpt lat="45.85561" lon="4.69265">
        <ele>203.43375</ele>
        <time>2022-09-30T13:52:31.000Z</time>
      </trkpt>
      <trkpt lat="45.85566" lon="4.69264">
        <ele>203.13608</ele>
        <time>2022-09-30T13:52:32.000Z</time>
      </trkpt>
      <trkpt lat="45.8557" lon="4.69264">
        <ele>202.78181</ele>
        <time>2022-09-30T13:52:33.000Z</time>
      </trkpt>
      <trkpt lat="45.85573" lon="4.69266">
        <ele>202.45303</ele>
        <time>2022-09-30T13:52:34.000Z</time>
      </trkpt>
      <trkpt lat="45.85576" lon="4.6927">
        <ele>202.21858</ele>
        <time>2022-09-30T13:52:35.000Z</time>
      </trkpt>
      <trkpt lat="45.85576" lon="4.69276">
        <ele>202.04036</ele>
        <time>2022-09-30T13:52:36.000Z</time>
      </trkpt>
      <trkpt lat="45.85576" lon="4.69282">
        <ele>201.94736</ele>
        <time>2022-09-30T13:52:37.000Z</time>
      </trkpt>
      <trkpt lat="45.85575" lon="4.69289">
        <ele>201.85214</ele>
        <time>2022-09-30T13:52:38.000Z</time>
      </trkpt>
      <trkpt lat="45.85576" lon="4.69295">
        <ele>201.79128</ele>
        <time>2022-09-30T13:52:39.000Z</time>
      </trkpt>
      <trkpt lat="45.85577" lon="4.69301">
        <ele>201.70236</ele>
        <time>2022-09-30T13:52:40.000Z</time>
      </trkpt>
      <trkpt lat="45.85579" lon="4.69305">
        <ele>201.57773</ele>
        <time>2022-09-30T13:52:41.000Z</time>
      </trkpt>
      <trkpt lat="45.85582" lon="4.6931">
        <ele>201.42482</ele>
        <time>2022-09-30T13:52:42.000Z</time>
      </trkpt>
      <trkpt lat="45.85598" lon="4.69346">
        <ele>201.19044</ele>
        <time>2022-09-30T13:52:49.000Z</time>
      </trkpt>
      <trkpt lat="45.85599" lon="4.69353">
        <ele>201.09219</ele>
        <time>2022-09-30T13:52:50.000Z</time>
      </trkpt>
      <trkpt lat="45.856" lon="4.6936">
        <ele>200.96471</ele>
        <time>2022-09-30T13:52:51.000Z</time>
      </trkpt>
      <trkpt lat="45.85601" lon="4.69367">
        <ele>200.88324</ele>
        <time>2022-09-30T13:52:52.000Z</time>
      </trkpt>
      <trkpt lat="45.85602" lon="4.69373">
        <ele>200.7523</ele>
        <time>2022-09-30T13:52:53.000Z</time>
      </trkpt>
      <trkpt lat="45.85604" lon="4.69378">
        <ele>200.75453</ele>
        <time>2022-09-30T13:52:54.000Z</time>
      </trkpt>
      <trkpt lat="45.85605" lon="4.69385">
        <ele>200.8632</ele>
        <time>2022-09-30T13:52:55.000Z</time>
      </trkpt>
      <trkpt lat="45.85606" lon="4.69391">
        <ele>200.93167</ele>
        <time>2022-09-30T13:52:56.000Z</time>
      </trkpt>
      <trkpt lat="45.85608" lon="4.69398">
        <ele>201.00769</ele>
        <time>2022-09-30T13:52:57.000Z</time>
      </trkpt>
      <trkpt lat="45.85611" lon="4.69403">
        <ele>201.0712</ele>
        <time>2022-09-30T13:52:58.000Z</time>
      </trkpt>
      <trkpt lat="45.85613" lon="4.69409">
        <ele>201.16855</ele>
        <time>2022-09-30T13:52:59.000Z</time>
      </trkpt>
      <trkpt lat="45.85614" lon="4.69416">
        <ele>201.25301</ele>
        <time>2022-09-30T13:53:00.000Z</time>
      </trkpt>
      <trkpt lat="45.85616" lon="4.69423">
        <ele>201.32428</ele>
        <time>2022-09-30T13:53:01.000Z</time>
      </trkpt>
      <trkpt lat="45.85615" lon="4.69432">
        <ele>201.32773</ele>
        <time>2022-09-30T13:53:02.000Z</time>
      </trkpt>
      <trkpt lat="45.85616" lon="4.69438">
        <ele>201.26976</ele>
        <time>2022-09-30T13:53:03.000Z</time>
      </trkpt>
      <trkpt lat="45.85617" lon="4.69446">
        <ele>201.22102</ele>
        <time>2022-09-30T13:53:04.000Z</time>
      </trkpt>
      <trkpt lat="45.85617" lon="4.69452">
        <ele>201.17502</ele>
        <time>2022-09-30T13:53:05.000Z</time>
      </trkpt>
      <trkpt lat="45.85618" lon="4.69459">
        <ele>201.10706</ele>
        <time>2022-09-30T13:53:06.000Z</time>
      </trkpt>
      <trkpt lat="45.85618" lon="4.69466">
        <ele>201.08983</ele>
        <time>2022-09-30T13:53:07.000Z</time>
      </trkpt>
      <trkpt lat="45.85619" lon="4.69472">
        <ele>201.0424</ele>
        <time>2022-09-30T13:53:08.000Z</time>
      </trkpt>
      <trkpt lat="45.8562" lon="4.69479">
        <ele>201.08112</ele>
        <time>2022-09-30T13:53:09.000Z</time>
      </trkpt>
      <trkpt lat="45.85619" lon="4.69484">
        <ele>201.03629</ele>
        <time>2022-09-30T13:53:10.000Z</time>
      </trkpt>
      <trkpt lat="45.8562" lon="4.69491">
        <ele>201.03194</ele>
        <time>2022-09-30T13:53:11.000Z</time>
      </trkpt>
      <trkpt lat="45.85621" lon="4.69497">
        <ele>201.0074</ele>
        <time>2022-09-30T13:53:12.000Z</time>
      </trkpt>
      <trkpt lat="45.85622" lon="4.69503">
        <ele>201.00388</ele>
        <time>2022-09-30T13:53:13.000Z</time>
      </trkpt>
      <trkpt lat="45.85622" lon="4.6951">
        <ele>200.91547</ele>
        <time>2022-09-30T13:53:14.000Z</time>
      </trkpt>
      <trkpt lat="45.85623" lon="4.69517">
        <ele>200.73248</ele>
        <time>2022-09-30T13:53:15.000Z</time>
      </trkpt>
      <trkpt lat="45.85623" lon="4.69524">
        <ele>200.54456</ele>
        <time>2022-09-30T13:53:16.000Z</time>
      </trkpt>
      <trkpt lat="45.85624" lon="4.69531">
        <ele>200.37416</ele>
        <time>2022-09-30T13:53:17.000Z</time>
      </trkpt>
      <trkpt lat="45.85624" lon="4.69539">
        <ele>200.3027</ele>
        <time>2022-09-30T13:53:18.000Z</time>
      </trkpt>
      <trkpt lat="45.85625" lon="4.69548">
        <ele>200.21262</ele>
        <time>2022-09-30T13:53:19.000Z</time>
      </trkpt>
      <trkpt lat="45.85626" lon="4.69557">
        <ele>200.12665</ele>
        <time>2022-09-30T13:53:20.000Z</time>
      </trkpt>
      <trkpt lat="45.85628" lon="4.69564">
        <ele>199.97379</ele>
        <time>2022-09-30T13:53:21.000Z</time>
      </trkpt>
      <trkpt lat="45.8563" lon="4.69571">
        <ele>199.88077</ele>
        <time>2022-09-30T13:53:22.000Z</time>
      </trkpt>
      <trkpt lat="45.8563" lon="4.69579">
        <ele>199.84818</ele>
        <time>2022-09-30T13:53:23.000Z</time>
      </trkpt>
      <trkpt lat="45.85632" lon="4.69585">
        <ele>199.78357</ele>
        <time>2022-09-30T13:53:24.000Z</time>
      </trkpt>
      <trkpt lat="45.85633" lon="4.69593">
        <ele>199.79512</ele>
        <time>2022-09-30T13:53:25.000Z</time>
      </trkpt>
      <trkpt lat="45.85634" lon="4.69602">
        <ele>199.81358</ele>
        <time>2022-09-30T13:53:26.000Z</time>
      </trkpt>
      <trkpt lat="45.85634" lon="4.69609">
        <ele>199.78917</ele>
        <time>2022-09-30T13:53:27.000Z</time>
      </trkpt>
      <trkpt lat="45.85636" lon="4.69615">
        <ele>199.76535</ele>
        <time>2022-09-30T13:53:28.000Z</time>
      </trkpt>
      <trkpt lat="45.85636" lon="4.69622">
        <ele>199.68588</ele>
        <time>2022-09-30T13:53:29.000Z</time>
      </trkpt>
      <trkpt lat="45.85636" lon="4.6963">
        <ele>199.63162</ele>
        <time>2022-09-30T13:53:30.000Z</time>
      </trkpt>
      <trkpt lat="45.85637" lon="4.69637">
        <ele>199.5623</ele>
        <time>2022-09-30T13:53:31.000Z</time>
      </trkpt>
      <trkpt lat="45.85638" lon="4.69644">
        <ele>199.50339</ele>
        <time>2022-09-30T13:53:32.000Z</time>
      </trkpt>
      <trkpt lat="45.85638" lon="4.69652">
        <ele>199.51151</ele>
        <time>2022-09-30T13:53:33.000Z</time>
      </trkpt>
      <trkpt lat="45.85639" lon="4.69659">
        <ele>199.50592</ele>
        <time>2022-09-30T13:53:34.000Z</time>
      </trkpt>
      <trkpt lat="45.8564" lon="4.69666">
        <ele>199.56046</ele>
        <time>2022-09-30T13:53:35.000Z</time>
      </trkpt>
      <trkpt lat="45.85642" lon="4.69672">
        <ele>199.6353</ele>
        <time>2022-09-30T13:53:36.000Z</time>
      </trkpt>
      <trkpt lat="45.85642" lon="4.6968">
        <ele>199.7551</ele>
        <time>2022-09-30T13:53:37.000Z</time>
      </trkpt>
      <trkpt lat="45.85642" lon="4.69688">
        <ele>199.82562</ele>
        <time>2022-09-30T13:53:38.000Z</time>
      </trkpt>
      <trkpt lat="45.85643" lon="4.69695">
        <ele>199.91068</ele>
        <time>2022-09-30T13:53:39.000Z</time>
      </trkpt>
      <trkpt lat="45.85643" lon="4.69702">
        <ele>199.97369</ele>
        <time>2022-09-30T13:53:40.000Z</time>
      </trkpt>
      <trkpt lat="45.85644" lon="4.6971">
        <ele>200.08377</ele>
        <time>2022-09-30T13:53:41.000Z</time>
      </trkpt>
      <trkpt lat="45.85645" lon="4.69718">
        <ele>200.21828</ele>
        <time>2022-09-30T13:53:42.000Z</time>
      </trkpt>
      <trkpt lat="45.85645" lon="4.69726">
        <ele>200.3009</ele>
        <time>2022-09-30T13:53:43.000Z</time>
      </trkpt>
      <trkpt lat="45.85646" lon="4.69734">
        <ele>200.4081</ele>
        <time>2022-09-30T13:53:44.000Z</time>
      </trkpt>
      <trkpt lat="45.85647" lon="4.69742">
        <ele>200.44687</ele>
        <time>2022-09-30T13:53:45.000Z</time>
      </trkpt>
      <trkpt lat="45.85648" lon="4.6975">
        <ele>200.53682</ele>
        <time>2022-09-30T13:53:46.000Z</time>
      </trkpt>
      <trkpt lat="45.85649" lon="4.69757">
        <ele>200.67685</ele>
        <time>2022-09-30T13:53:47.000Z</time>
      </trkpt>
      <trkpt lat="45.85649" lon="4.69764">
        <ele>200.79871</ele>
        <time>2022-09-30T13:53:48.000Z</time>
      </trkpt>
      <trkpt lat="45.85649" lon="4.69773">
        <ele>200.95549</ele>
        <time>2022-09-30T13:53:49.000Z</time>
      </trkpt>
      <trkpt lat="45.85649" lon="4.69781">
        <ele>201.06729</ele>
        <time>2022-09-30T13:53:50.000Z</time>
      </trkpt>
      <trkpt lat="45.8565" lon="4.69787">
        <ele>201.23085</ele>
        <time>2022-09-30T13:53:51.000Z</time>
      </trkpt>
      <trkpt lat="45.85652" lon="4.69796">
        <ele>201.35757</ele>
        <time>2022-09-30T13:53:52.000Z</time>
      </trkpt>
      <trkpt lat="45.85653" lon="4.69803">
        <ele>201.44212</ele>
        <time>2022-09-30T13:53:53.000Z</time>
      </trkpt>
      <trkpt lat="45.85654" lon="4.6981">
        <ele>201.48132</ele>
        <time>2022-09-30T13:53:54.000Z</time>
      </trkpt>
      <trkpt lat="45.85655" lon="4.69818">
        <ele>201.51729</ele>
        <time>2022-09-30T13:53:55.000Z</time>
      </trkpt>
      <trkpt lat="45.85656" lon="4.69827">
        <ele>201.5321</ele>
        <time>2022-09-30T13:53:56.000Z</time>
      </trkpt>
      <trkpt lat="45.85657" lon="4.69835">
        <ele>201.51511</ele>
        <time>2022-09-30T13:53:57.000Z</time>
      </trkpt>
      <trkpt lat="45.85657" lon="4.69843">
        <ele>201.47125</ele>
        <time>2022-09-30T13:53:58.000Z</time>
      </trkpt>
      <trkpt lat="45.85658" lon="4.69851">
        <ele>201.39511</ele>
        <time>2022-09-30T13:53:59.000Z</time>
      </trkpt>
      <trkpt lat="45.85659" lon="4.6986">
        <ele>201.37907</ele>
        <time>2022-09-30T13:54:00.000Z</time>
      </trkpt>
      <trkpt lat="45.85659" lon="4.69868">
        <ele>201.34195</ele>
        <time>2022-09-30T13:54:01.000Z</time>
      </trkpt>
      <trkpt lat="45.85659" lon="4.69876">
        <ele>201.28577</ele>
        <time>2022-09-30T13:54:02.000Z</time>
      </trkpt>
      <trkpt lat="45.8566" lon="4.69884">
        <ele>201.21552</ele>
        <time>2022-09-30T13:54:03.000Z</time>
      </trkpt>
      <trkpt lat="45.85662" lon="4.69891">
        <ele>201.14743</ele>
        <time>2022-09-30T13:54:04.000Z</time>
      </trkpt>
      <trkpt lat="45.85663" lon="4.69899">
        <ele>201.07146</ele>
        <time>2022-09-30T13:54:05.000Z</time>
      </trkpt>
      <trkpt lat="45.85664" lon="4.69907">
        <ele>200.93988</ele>
        <time>2022-09-30T13:54:06.000Z</time>
      </trkpt>
      <trkpt lat="45.85666" lon="4.69915">
        <ele>200.7856</ele>
        <time>2022-09-30T13:54:07.000Z</time>
      </trkpt>
      <trkpt lat="45.85668" lon="4.69922">
        <ele>200.63931</ele>
        <time>2022-09-30T13:54:08.000Z</time>
      </trkpt>
      <trkpt lat="45.85669" lon="4.6993">
        <ele>200.44313</ele>
        <time>2022-09-30T13:54:09.000Z</time>
      </trkpt>
      <trkpt lat="45.85672" lon="4.69937">
        <ele>200.30119</ele>
        <time>2022-09-30T13:54:10.000Z</time>
      </trkpt>
      <trkpt lat="45.85672" lon="4.69945">
        <ele>200.07809</ele>
        <time>2022-09-30T13:54:11.000Z</time>
      </trkpt>
      <trkpt lat="45.85673" lon="4.69951">
        <ele>199.84119</ele>
        <time>2022-09-30T13:54:12.000Z</time>
      </trkpt>
      <trkpt lat="45.85676" lon="4.69958">
        <ele>199.61465</ele>
        <time>2022-09-30T13:54:13.000Z</time>
      </trkpt>
      <trkpt lat="45.85678" lon="4.69966">
        <ele>199.45357</ele>
        <time>2022-09-30T13:54:14.000Z</time>
      </trkpt>
      <trkpt lat="45.8568" lon="4.69973">
        <ele>199.29884</ele>
        <time>2022-09-30T13:54:15.000Z</time>
      </trkpt>
      <trkpt lat="45.85682" lon="4.6998">
        <ele>199.19766</ele>
        <time>2022-09-30T13:54:16.000Z</time>
      </trkpt>
      <trkpt lat="45.85683" lon="4.69988">
        <ele>199.11145</ele>
        <time>2022-09-30T13:54:17.000Z</time>
      </trkpt>
      <trkpt lat="45.85683" lon="4.69996">
        <ele>199.0204</ele>
        <time>2022-09-30T13:54:18.000Z</time>
      </trkpt>
      <trkpt lat="45.85684" lon="4.70004">
        <ele>199.03317</ele>
        <time>2022-09-30T13:54:19.000Z</time>
      </trkpt>
      <trkpt lat="45.85684" lon="4.70011">
        <ele>199.00922</ele>
        <time>2022-09-30T13:54:20.000Z</time>
      </trkpt>
      <trkpt lat="45.85683" lon="4.70019">
        <ele>198.98236</ele>
        <time>2022-09-30T13:54:21.000Z</time>
      </trkpt>
      <trkpt lat="45.85682" lon="4.70027">
        <ele>198.9456</ele>
        <time>2022-09-30T13:54:22.000Z</time>
      </trkpt>
      <trkpt lat="45.85682" lon="4.70034">
        <ele>198.91466</ele>
        <time>2022-09-30T13:54:23.000Z</time>
      </trkpt>
      <trkpt lat="45.8568" lon="4.70041">
        <ele>198.79666</ele>
        <time>2022-09-30T13:54:24.000Z</time>
      </trkpt>
      <trkpt lat="45.85679" lon="4.70048">
        <ele>198.70419</ele>
        <time>2022-09-30T13:54:25.000Z</time>
      </trkpt>
      <trkpt lat="45.85677" lon="4.70056">
        <ele>198.65294</ele>
        <time>2022-09-30T13:54:26.000Z</time>
      </trkpt>
      <trkpt lat="45.85676" lon="4.70064">
        <ele>198.58041</ele>
        <time>2022-09-30T13:54:27.000Z</time>
      </trkpt>
      <trkpt lat="45.85674" lon="4.7007">
        <ele>198.55246</ele>
        <time>2022-09-30T13:54:28.000Z</time>
      </trkpt>
      <trkpt lat="45.85673" lon="4.70078">
        <ele>198.60724</ele>
        <time>2022-09-30T13:54:29.000Z</time>
      </trkpt>
      <trkpt lat="45.85671" lon="4.70087">
        <ele>198.5889</ele>
        <time>2022-09-30T13:54:30.000Z</time>
      </trkpt>
      <trkpt lat="45.85671" lon="4.70095">
        <ele>198.63861</ele>
        <time>2022-09-30T13:54:31.000Z</time>
      </trkpt>
      <trkpt lat="45.85672" lon="4.70102">
        <ele>198.76471</ele>
        <time>2022-09-30T13:54:32.000Z</time>
      </trkpt>
      <trkpt lat="45.85672" lon="4.70109">
        <ele>198.89169</ele>
        <time>2022-09-30T13:54:33.000Z</time>
      </trkpt>
      <trkpt lat="45.85672" lon="4.70117">
        <ele>199.0098</ele>
        <time>2022-09-30T13:54:34.000Z</time>
      </trkpt>
      <trkpt lat="45.85673" lon="4.70127">
        <ele>199.07677</ele>
        <time>2022-09-30T13:54:35.000Z</time>
      </trkpt>
      <trkpt lat="45.85673" lon="4.70136">
        <ele>199.13225</ele>
        <time>2022-09-30T13:54:36.000Z</time>
      </trkpt>
      <trkpt lat="45.85674" lon="4.70144">
        <ele>199.15427</ele>
        <time>2022-09-30T13:54:37.000Z</time>
      </trkpt>
      <trkpt lat="45.85675" lon="4.70151">
        <ele>199.21638</ele>
        <time>2022-09-30T13:54:38.000Z</time>
      </trkpt>
      <trkpt lat="45.85676" lon="4.7016">
        <ele>199.22691</ele>
        <time>2022-09-30T13:54:39.000Z</time>
      </trkpt>
      <trkpt lat="45.85678" lon="4.70167">
        <ele>199.16354</ele>
        <time>2022-09-30T13:54:40.000Z</time>
      </trkpt>
      <trkpt lat="45.8568" lon="4.70176">
        <ele>199.07288</ele>
        <time>2022-09-30T13:54:41.000Z</time>
      </trkpt>
      <trkpt lat="45.85682" lon="4.70184">
        <ele>198.97661</ele>
        <time>2022-09-30T13:54:42.000Z</time>
      </trkpt>
      <trkpt lat="45.85683" lon="4.70192">
        <ele>198.89804</ele>
        <time>2022-09-30T13:54:43.000Z</time>
      </trkpt>
      <trkpt lat="45.85686" lon="4.70202">
        <ele>198.81483</ele>
        <time>2022-09-30T13:54:44.000Z</time>
      </trkpt>
      <trkpt lat="45.85688" lon="4.70208">
        <ele>198.681</ele>
        <time>2022-09-30T13:54:45.000Z</time>
      </trkpt>
      <trkpt lat="45.8569" lon="4.70219">
        <ele>198.49496</ele>
        <time>2022-09-30T13:54:46.000Z</time>
      </trkpt>
      <trkpt lat="45.85688" lon="4.70227">
        <ele>198.24921</ele>
        <time>2022-09-30T13:54:47.000Z</time>
      </trkpt>
      <trkpt lat="45.8569" lon="4.70235">
        <ele>198.01895</ele>
        <time>2022-09-30T13:54:48.000Z</time>
      </trkpt>
      <trkpt lat="45.85692" lon="4.70244">
        <ele>197.79947</ele>
        <time>2022-09-30T13:54:49.000Z</time>
      </trkpt>
      <trkpt lat="45.85693" lon="4.70253">
        <ele>197.64322</ele>
        <time>2022-09-30T13:54:50.000Z</time>
      </trkpt>
      <trkpt lat="45.85693" lon="4.70261">
        <ele>197.53294</ele>
        <time>2022-09-30T13:54:51.000Z</time>
      </trkpt>
      <trkpt lat="45.85694" lon="4.70269">
        <ele>197.46581</ele>
        <time>2022-09-30T13:54:52.000Z</time>
      </trkpt>
      <trkpt lat="45.85696" lon="4.70278">
        <ele>197.43137</ele>
        <time>2022-09-30T13:54:53.000Z</time>
      </trkpt>
      <trkpt lat="45.85696" lon="4.70287">
        <ele>197.44131</ele>
        <time>2022-09-30T13:54:54.000Z</time>
      </trkpt>
      <trkpt lat="45.85697" lon="4.70294">
        <ele>197.49771</ele>
        <time>2022-09-30T13:54:55.000Z</time>
      </trkpt>
      <trkpt lat="45.85698" lon="4.70302">
        <ele>197.53333</ele>
        <time>2022-09-30T13:54:56.000Z</time>
      </trkpt>
      <trkpt lat="45.85699" lon="4.7031">
        <ele>197.54759</ele>
        <time>2022-09-30T13:54:57.000Z</time>
      </trkpt>
      <trkpt lat="45.85699" lon="4.70318">
        <ele>197.57562</ele>
        <time>2022-09-30T13:54:58.000Z</time>
      </trkpt>
      <trkpt lat="45.857" lon="4.70325">
        <ele>197.58815</ele>
        <time>2022-09-30T13:54:59.000Z</time>
      </trkpt>
      <trkpt lat="45.85697" lon="4.7033">
        <ele>197.65283</ele>
        <time>2022-09-30T13:55:00.000Z</time>
      </trkpt>
      <trkpt lat="45.85696" lon="4.70336">
        <ele>197.75455</ele>
        <time>2022-09-30T13:55:01.000Z</time>
      </trkpt>
      <trkpt lat="45.85694" lon="4.7034">
        <ele>197.83138</ele>
        <time>2022-09-30T13:55:02.000Z</time>
      </trkpt>
      <trkpt lat="45.85689" lon="4.70337">
        <ele>197.92619</ele>
        <time>2022-09-30T13:55:03.000Z</time>
      </trkpt>
      <trkpt lat="45.85688" lon="4.70332">
        <ele>198.10179</ele>
        <time>2022-09-30T13:55:04.000Z</time>
      </trkpt>
      <trkpt lat="45.85687" lon="4.70325">
        <ele>198.29202</ele>
        <time>2022-09-30T13:55:05.000Z</time>
      </trkpt>
      <trkpt lat="45.85685" lon="4.70319">
        <ele>198.51917</ele>
        <time>2022-09-30T13:55:06.000Z</time>
      </trkpt>
      <trkpt lat="45.85683" lon="4.70314">
        <ele>198.85518</ele>
        <time>2022-09-30T13:55:07.000Z</time>
      </trkpt>
      <trkpt lat="45.85678" lon="4.70313">
        <ele>199.15807</ele>
        <time>2022-09-30T13:55:08.000Z</time>
      </trkpt>
      <trkpt lat="45.85673" lon="4.70313">
        <ele>199.49812</ele>
        <time>2022-09-30T13:55:09.000Z</time>
      </trkpt>
      <trkpt lat="45.85668" lon="4.7031">
        <ele>199.80098</ele>
        <time>2022-09-30T13:55:10.000Z</time>
      </trkpt>
      <trkpt lat="45.85664" lon="4.70309">
        <ele>200.08566</ele>
        <time>2022-09-30T13:55:11.000Z</time>
      </trkpt>
      <trkpt lat="45.8566" lon="4.70311">
        <ele>200.24754</ele>
        <time>2022-09-30T13:55:12.000Z</time>
      </trkpt>
      <trkpt lat="45.85658" lon="4.70316">
        <ele>200.30258</ele>
        <time>2022-09-30T13:55:13.000Z</time>
      </trkpt>
      <trkpt lat="45.85655" lon="4.7032">
        <ele>200.29939</ele>
        <time>2022-09-30T13:55:14.000Z</time>
      </trkpt>
      <trkpt lat="45.8565" lon="4.70322">
        <ele>200.29045</ele>
        <time>2022-09-30T13:55:15.000Z</time>
      </trkpt>
      <trkpt lat="45.85645" lon="4.70324">
        <ele>200.24904</ele>
        <time>2022-09-30T13:55:16.000Z</time>
      </trkpt>
      <trkpt lat="45.85641" lon="4.70327">
        <ele>200.20837</ele>
        <time>2022-09-30T13:55:17.000Z</time>
      </trkpt>
      <trkpt lat="45.85636" lon="4.70328">
        <ele>200.13766</ele>
        <time>2022-09-30T13:55:18.000Z</time>
      </trkpt>
      <trkpt lat="45.85631" lon="4.70332">
        <ele>200.08902</ele>
        <time>2022-09-30T13:55:19.000Z</time>
      </trkpt>
      <trkpt lat="45.85626" lon="4.70334">
        <ele>200.05864</ele>
        <time>2022-09-30T13:55:20.000Z</time>
      </trkpt>
      <trkpt lat="45.85621" lon="4.70336">
        <ele>200.02298</ele>
        <time>2022-09-30T13:55:21.000Z</time>
      </trkpt>
      <trkpt lat="45.85616" lon="4.70337">
        <ele>199.98286</ele>
        <time>2022-09-30T13:55:22.000Z</time>
      </trkpt>
      <trkpt lat="45.85612" lon="4.70336">
        <ele>199.96376</ele>
        <time>2022-09-30T13:55:23.000Z</time>
      </trkpt>
      <trkpt lat="45.85607" lon="4.70336">
        <ele>199.9162</ele>
        <time>2022-09-30T13:55:24.000Z</time>
      </trkpt>
      <trkpt lat="45.85604" lon="4.70336">
        <ele>199.81471</ele>
        <time>2022-09-30T13:55:25.000Z</time>
      </trkpt>
      <trkpt lat="45.85602" lon="4.70334">
        <ele>199.77551</ele>
        <time>2022-09-30T13:55:26.000Z</time>
      </trkpt>
      <trkpt lat="45.856" lon="4.70329">
        <ele>199.68463</ele>
        <time>2022-09-30T13:55:28.000Z</time>
      </trkpt>
      <trkpt lat="45.85599" lon="4.70326">
        <ele>199.56589</ele>
        <time>2022-09-30T13:55:29.000Z</time>
      </trkpt>
      <trkpt lat="45.85598" lon="4.70324">
        <ele>199.40503</ele>
        <time>2022-09-30T13:55:30.000Z</time>
      </trkpt>
      <trkpt lat="45.85595" lon="4.70322">
        <ele>199.27109</ele>
        <time>2022-09-30T13:55:31.000Z</time>
      </trkpt>
      <trkpt lat="45.8559" lon="4.70325">
        <ele>199.05591</ele>
        <time>2022-09-30T13:55:33.000Z</time>
      </trkpt>
      <trkpt lat="45.85586" lon="4.70327">
        <ele>198.93831</ele>
        <time>2022-09-30T13:55:34.000Z</time>
      </trkpt>
      <trkpt lat="45.85582" lon="4.70331">
        <ele>198.81808</ele>
        <time>2022-09-30T13:55:35.000Z</time>
      </trkpt>
      <trkpt lat="45.85577" lon="4.70333">
        <ele>198.70265</ele>
        <time>2022-09-30T13:55:36.000Z</time>
      </trkpt>
      <trkpt lat="45.85572" lon="4.70336">
        <ele>198.53922</ele>
        <time>2022-09-30T13:55:37.000Z</time>
      </trkpt>
      <trkpt lat="45.85568" lon="4.7034">
        <ele>198.44144</ele>
        <time>2022-09-30T13:55:38.000Z</time>
      </trkpt>
      <trkpt lat="45.85563" lon="4.70343">
        <ele>198.45631</ele>
        <time>2022-09-30T13:55:39.000Z</time>
      </trkpt>
      <trkpt lat="45.85557" lon="4.70345">
        <ele>198.4337</ele>
        <time>2022-09-30T13:55:40.000Z</time>
      </trkpt>
      <trkpt lat="45.85553" lon="4.70348">
        <ele>198.36533</ele>
        <time>2022-09-30T13:55:41.000Z</time>
      </trkpt>
      <trkpt lat="45.85548" lon="4.70351">
        <ele>198.29472</ele>
        <time>2022-09-30T13:55:42.000Z</time>
      </trkpt>
      <trkpt lat="45.85543" lon="4.70355">
        <ele>198.27066</ele>
        <time>2022-09-30T13:55:43.000Z</time>
      </trkpt>
      <trkpt lat="45.85539" lon="4.7036">
        <ele>198.25626</ele>
        <time>2022-09-30T13:55:44.000Z</time>
      </trkpt>
      <trkpt lat="45.85537" lon="4.70365">
        <ele>198.17227</ele>
        <time>2022-09-30T13:55:45.000Z</time>
      </trkpt>
      <trkpt lat="45.85535" lon="4.70371">
        <ele>198.12537</ele>
        <time>2022-09-30T13:55:46.000Z</time>
      </trkpt>
      <trkpt lat="45.85534" lon="4.70378">
        <ele>198.20691</ele>
        <time>2022-09-30T13:55:47.000Z</time>
      </trkpt>
      <trkpt lat="45.85534" lon="4.70386">
        <ele>198.20593</ele>
        <time>2022-09-30T13:55:48.000Z</time>
      </trkpt>
      <trkpt lat="45.85533" lon="4.70393">
        <ele>198.18816</ele>
        <time>2022-09-30T13:55:49.000Z</time>
      </trkpt>
      <trkpt lat="45.85533" lon="4.70401">
        <ele>198.22667</ele>
        <time>2022-09-30T13:55:50.000Z</time>
      </trkpt>
      <trkpt lat="45.85533" lon="4.70408">
        <ele>198.24295</ele>
        <time>2022-09-30T13:55:51.000Z</time>
      </trkpt>
      <trkpt lat="45.85533" lon="4.70414">
        <ele>198.26837</ele>
        <time>2022-09-30T13:55:52.000Z</time>
      </trkpt>
      <trkpt lat="45.85535" lon="4.70423">
        <ele>198.33658</ele>
        <time>2022-09-30T13:55:53.000Z</time>
      </trkpt>
      <trkpt lat="45.85535" lon="4.7043">
        <ele>198.32098</ele>
        <time>2022-09-30T13:55:54.000Z</time>
      </trkpt>
      <trkpt lat="45.85536" lon="4.70438">
        <ele>198.41063</ele>
        <time>2022-09-30T13:55:55.000Z</time>
      </trkpt>
      <trkpt lat="45.85537" lon="4.70444">
        <ele>198.51186</ele>
        <time>2022-09-30T13:55:56.000Z</time>
      </trkpt>
      <trkpt lat="45.85537" lon="4.70449">
        <ele>198.68251</ele>
        <time>2022-09-30T13:55:57.000Z</time>
      </trkpt>
      <trkpt lat="45.85539" lon="4.70454">
        <ele>198.84326</ele>
        <time>2022-09-30T13:55:58.000Z</time>
      </trkpt>
      <trkpt lat="45.8554" lon="4.70462">
        <ele>198.89349</ele>
        <time>2022-09-30T13:55:59.000Z</time>
      </trkpt>
      <trkpt lat="45.85541" lon="4.70467">
        <ele>198.98788</ele>
        <time>2022-09-30T13:56:00.000Z</time>
      </trkpt>
      <trkpt lat="45.85542" lon="4.70473">
        <ele>199.10863</ele>
        <time>2022-09-30T13:56:01.000Z</time>
      </trkpt>
      <trkpt lat="45.85543" lon="4.70477">
        <ele>199.22665</ele>
        <time>2022-09-30T13:56:02.000Z</time>
      </trkpt>
      <trkpt lat="45.85541" lon="4.70479">
        <ele>199.29395</ele>
        <time>2022-09-30T13:56:03.000Z</time>
      </trkpt>
      <trkpt lat="45.85538" lon="4.70481">
        <ele>199.40752</ele>
        <time>2022-09-30T13:56:05.000Z</time>
      </trkpt>
      <trkpt lat="45.85535" lon="4.70481">
        <ele>199.50978</ele>
        <time>2022-09-30T13:56:07.000Z</time>
      </trkpt>
      <trkpt lat="45.85534" lon="4.70487">
        <ele>199.61224</ele>
        <time>2022-09-30T13:56:09.000Z</time>
      </trkpt>
      <trkpt lat="45.85535" lon="4.70491">
        <ele>199.70448</ele>
        <time>2022-09-30T13:56:10.000Z</time>
      </trkpt>
      <trkpt lat="45.85535" lon="4.70494">
        <ele>199.81984</ele>
        <time>2022-09-30T13:56:11.000Z</time>
      </trkpt>
      <trkpt lat="45.85536" lon="4.70499">
        <ele>199.94901</ele>
        <time>2022-09-30T13:56:12.000Z</time>
      </trkpt>
      <trkpt lat="45.85537" lon="4.70503">
        <ele>200.03445</ele>
        <time>2022-09-30T13:56:13.000Z</time>
      </trkpt>
      <trkpt lat="45.85538" lon="4.70509">
        <ele>200.12526</ele>
        <time>2022-09-30T13:56:14.000Z</time>
      </trkpt>
      <trkpt lat="45.85538" lon="4.70514">
        <ele>200.14017</ele>
        <time>2022-09-30T13:56:15.000Z</time>
      </trkpt>
      <trkpt lat="45.85539" lon="4.7052">
        <ele>200.12906</ele>
        <time>2022-09-30T13:56:16.000Z</time>
      </trkpt>
      <trkpt lat="45.8554" lon="4.70525">
        <ele>200.14752</ele>
        <time>2022-09-30T13:56:17.000Z</time>
      </trkpt>
      <trkpt lat="45.8554" lon="4.70531">
        <ele>200.06766</ele>
        <time>2022-09-30T13:56:18.000Z</time>
      </trkpt>
      <trkpt lat="45.85541" lon="4.70536">
        <ele>199.9771</ele>
        <time>2022-09-30T13:56:19.000Z</time>
      </trkpt>
      <trkpt lat="45.85541" lon="4.70542">
        <ele>199.82809</ele>
        <time>2022-09-30T13:56:20.000Z</time>
      </trkpt>
      <trkpt lat="45.85541" lon="4.70547">
        <ele>199.68674</ele>
        <time>2022-09-30T13:56:21.000Z</time>
      </trkpt>
      <trkpt lat="45.85541" lon="4.70553">
        <ele>199.56844</ele>
        <time>2022-09-30T13:56:22.000Z</time>
      </trkpt>
      <trkpt lat="45.85542" lon="4.70558">
        <ele>199.46756</ele>
        <time>2022-09-30T13:56:23.000Z</time>
      </trkpt>
      <trkpt lat="45.85543" lon="4.70563">
        <ele>199.38821</ele>
        <time>2022-09-30T13:56:24.000Z</time>
      </trkpt>
      <trkpt lat="45.85543" lon="4.70569">
        <ele>199.25739</ele>
        <time>2022-09-30T13:56:25.000Z</time>
      </trkpt>
      <trkpt lat="45.85544" lon="4.70575">
        <ele>199.09653</ele>
        <time>2022-09-30T13:56:26.000Z</time>
      </trkpt>
      <trkpt lat="45.85546" lon="4.70581">
        <ele>198.93208</ele>
        <time>2022-09-30T13:56:27.000Z</time>
      </trkpt>
      <trkpt lat="45.85547" lon="4.70587">
        <ele>198.84152</ele>
        <time>2022-09-30T13:56:28.000Z</time>
      </trkpt>
      <trkpt lat="45.85548" lon="4.70592">
        <ele>198.76485</ele>
        <time>2022-09-30T13:56:29.000Z</time>
      </trkpt>
      <trkpt lat="45.8555" lon="4.70598">
        <ele>198.6312</ele>
        <time>2022-09-30T13:56:30.000Z</time>
      </trkpt>
      <trkpt lat="45.85551" lon="4.70603">
        <ele>198.46033</ele>
        <time>2022-09-30T13:56:31.000Z</time>
      </trkpt>
      <trkpt lat="45.85552" lon="4.70608">
        <ele>198.30949</ele>
        <time>2022-09-30T13:56:32.000Z</time>
      </trkpt>
      <trkpt lat="45.85553" lon="4.70613">
        <ele>198.15872</ele>
        <time>2022-09-30T13:56:33.000Z</time>
      </trkpt>
      <trkpt lat="45.85553" lon="4.70618">
        <ele>197.94403</ele>
        <time>2022-09-30T13:56:34.000Z</time>
      </trkpt>
      <trkpt lat="45.85554" lon="4.70623">
        <ele>197.76804</ele>
        <time>2022-09-30T13:56:35.000Z</time>
      </trkpt>
      <trkpt lat="45.85555" lon="4.70628">
        <ele>197.60205</ele>
        <time>2022-09-30T13:56:36.000Z</time>
      </trkpt>
      <trkpt lat="45.85555" lon="4.70634">
        <ele>197.4622</ele>
        <time>2022-09-30T13:56:37.000Z</time>
      </trkpt>
      <trkpt lat="45.85555" lon="4.70639">
        <ele>197.35599</ele>
        <time>2022-09-30T13:56:38.000Z</time>
      </trkpt>
      <trkpt lat="45.85556" lon="4.70644">
        <ele>197.26987</ele>
        <time>2022-09-30T13:56:39.000Z</time>
      </trkpt>
      <trkpt lat="45.85556" lon="4.70649">
        <ele>197.312</ele>
        <time>2022-09-30T13:56:40.000Z</time>
      </trkpt>
      <trkpt lat="45.85556" lon="4.70652">
        <ele>197.31943</ele>
        <time>2022-09-30T13:56:41.000Z</time>
      </trkpt>
      <trkpt lat="45.85556" lon="4.70655">
        <ele>197.34502</ele>
        <time>2022-09-30T13:56:42.000Z</time>
      </trkpt>
      <trkpt lat="45.85555" lon="4.70659">
        <ele>197.40709</ele>
        <time>2022-09-30T13:56:43.000Z</time>
      </trkpt>
      <trkpt lat="45.85555" lon="4.70662">
        <ele>197.42863</ele>
        <time>2022-09-30T13:56:44.000Z</time>
      </trkpt>
      <trkpt lat="45.85555" lon="4.70665">
        <ele>197.49113</ele>
        <time>2022-09-30T13:56:45.000Z</time>
      </trkpt>
      <trkpt lat="45.85556" lon="4.70668">
        <ele>197.56052</ele>
        <time>2022-09-30T13:56:46.000Z</time>
      </trkpt>
      <trkpt lat="45.85558" lon="4.7067">
        <ele>197.58255</ele>
        <time>2022-09-30T13:56:47.000Z</time>
      </trkpt>
      <trkpt lat="45.85559" lon="4.70672">
        <ele>197.57272</ele>
        <time>2022-09-30T13:56:48.000Z</time>
      </trkpt>
      <trkpt lat="45.85561" lon="4.70673">
        <ele>197.52322</ele>
        <time>2022-09-30T13:56:49.000Z</time>
      </trkpt>
      <trkpt lat="45.85563" lon="4.70676">
        <ele>197.502</ele>
        <time>2022-09-30T13:56:51.000Z</time>
      </trkpt>
      <trkpt lat="45.85565" lon="4.7068">
        <ele>197.52933</ele>
        <time>2022-09-30T13:56:53.000Z</time>
      </trkpt>
      <trkpt lat="45.85567" lon="4.70683">
        <ele>197.49854</ele>
        <time>2022-09-30T13:56:55.000Z</time>
      </trkpt>
      <trkpt lat="45.85568" lon="4.7068">
        <ele>197.46048</ele>
        <time>2022-09-30T13:56:57.000Z</time>
      </trkpt>
      <trkpt lat="45.85567" lon="4.70676">
        <ele>197.47321</ele>
        <time>2022-09-30T13:56:58.000Z</time>
      </trkpt>
      <trkpt lat="45.85565" lon="4.70673">
        <ele>197.45255</ele>
        <time>2022-09-30T13:56:59.000Z</time>
      </trkpt>
      <trkpt lat="45.85563" lon="4.7067">
        <ele>197.36913</ele>
        <time>2022-09-30T13:57:00.000Z</time>
      </trkpt>
      <trkpt lat="45.8556" lon="4.70666">
        <ele>197.25166</ele>
        <time>2022-09-30T13:57:01.000Z</time>
      </trkpt>
      <trkpt lat="45.85557" lon="4.70663">
        <ele>197.16119</ele>
        <time>2022-09-30T13:57:02.000Z</time>
      </trkpt>
      <trkpt lat="45.85553" lon="4.7066">
        <ele>197.11661</ele>
        <time>2022-09-30T13:57:03.000Z</time>
      </trkpt>
      <trkpt lat="45.8555" lon="4.70658">
        <ele>196.93147</ele>
        <time>2022-09-30T13:57:04.000Z</time>
      </trkpt>
      <trkpt lat="45.85546" lon="4.70656">
        <ele>196.8295</ele>
        <time>2022-09-30T13:57:05.000Z</time>
      </trkpt>
      <trkpt lat="45.85542" lon="4.70655">
        <ele>196.66669</ele>
        <time>2022-09-30T13:57:06.000Z</time>
      </trkpt>
      <trkpt lat="45.85539" lon="4.70654">
        <ele>196.47234</ele>
        <time>2022-09-30T13:57:07.000Z</time>
      </trkpt>
      <trkpt lat="45.85536" lon="4.70653">
        <ele>196.30832</ele>
        <time>2022-09-30T13:57:08.000Z</time>
      </trkpt>
      <trkpt lat="45.85533" lon="4.70652">
        <ele>196.09851</ele>
        <time>2022-09-30T13:57:09.000Z</time>
      </trkpt>
      <trkpt lat="45.85529" lon="4.7065">
        <ele>195.88907</ele>
        <time>2022-09-30T13:57:10.000Z</time>
      </trkpt>
      <trkpt lat="45.85526" lon="4.70649">
        <ele>195.70807</ele>
        <time>2022-09-30T13:57:11.000Z</time>
      </trkpt>
      <trkpt lat="45.85523" lon="4.70647">
        <ele>195.5659</ele>
        <time>2022-09-30T13:57:12.000Z</time>
      </trkpt>
      <trkpt lat="45.8552" lon="4.70645">
        <ele>195.39474</ele>
        <time>2022-09-30T13:57:13.000Z</time>
      </trkpt>
      <trkpt lat="45.85517" lon="4.70642">
        <ele>195.2173</ele>
        <time>2022-09-30T13:57:14.000Z</time>
      </trkpt>
      <trkpt lat="45.85515" lon="4.70639">
        <ele>195.10303</ele>
        <time>2022-09-30T13:57:15.000Z</time>
      </trkpt>
      <trkpt lat="45.85512" lon="4.70637">
        <ele>195.06567</ele>
        <time>2022-09-30T13:57:16.000Z</time>
      </trkpt>
      <trkpt lat="45.85511" lon="4.70636">
        <ele>195.06032</ele>
        <time>2022-09-30T13:57:17.000Z</time>
      </trkpt>
      <trkpt lat="45.8551" lon="4.70639">
        <ele>195.02829</ele>
        <time>2022-09-30T13:57:19.000Z</time>
      </trkpt>
      <trkpt lat="45.85511" lon="4.70642">
        <ele>195.02512</ele>
        <time>2022-09-30T13:57:20.000Z</time>
      </trkpt>
      <trkpt lat="45.85512" lon="4.70643">
        <ele>195.15134</ele>
        <time>2022-09-30T13:57:21.000Z</time>
      </trkpt>
      <trkpt lat="45.85514" lon="4.70645">
        <ele>195.35953</ele>
        <time>2022-09-30T13:57:23.000Z</time>
      </trkpt>
      <trkpt lat="45.85516" lon="4.70647">
        <ele>195.56398</ele>
        <time>2022-09-30T13:57:25.000Z</time>
      </trkpt>
      <trkpt lat="45.85518" lon="4.70647">
        <ele>195.89108</ele>
        <time>2022-09-30T13:57:39.000Z</time>
      </trkpt>
      <trkpt lat="45.8552" lon="4.70649">
        <ele>196.24991</ele>
        <time>2022-09-30T13:57:40.000Z</time>
      </trkpt>
      <trkpt lat="45.85522" lon="4.7065">
        <ele>196.59055</ele>
        <time>2022-09-30T13:57:41.000Z</time>
      </trkpt>
      <trkpt lat="45.85524" lon="4.70652">
        <ele>196.98343</ele>
        <time>2022-09-30T13:57:42.000Z</time>
      </trkpt>
      <trkpt lat="45.85525" lon="4.70653">
        <ele>197.30452</ele>
        <time>2022-09-30T13:57:43.000Z</time>
      </trkpt>
      <trkpt lat="45.85528" lon="4.70655">
        <ele>197.64937</ele>
        <time>2022-09-30T13:57:44.000Z</time>
      </trkpt>
      <trkpt lat="45.85531" lon="4.70658">
        <ele>198.02623</ele>
        <time>2022-09-30T13:57:45.000Z</time>
      </trkpt>
      <trkpt lat="45.85533" lon="4.7066">
        <ele>198.43881</ele>
        <time>2022-09-30T13:57:46.000Z</time>
      </trkpt>
      <trkpt lat="45.85536" lon="4.70662">
        <ele>198.89499</ele>
        <time>2022-09-30T13:57:47.000Z</time>
      </trkpt>
      <trkpt lat="45.85538" lon="4.70665">
        <ele>199.28915</ele>
        <time>2022-09-30T13:57:48.000Z</time>
      </trkpt>
      <trkpt lat="45.85542" lon="4.70668">
        <ele>199.72144</ele>
        <time>2022-09-30T13:57:49.000Z</time>
      </trkpt>
      <trkpt lat="45.8555" lon="4.70674">
        <ele>200.1306</ele>
        <time>2022-09-30T13:57:50.000Z</time>
      </trkpt>
      <trkpt lat="45.85555" lon="4.70679">
        <ele>200.39247</ele>
        <time>2022-09-30T13:57:51.000Z</time>
      </trkpt>
      <trkpt lat="45.85562" lon="4.70684">
        <ele>200.61459</ele>
        <time>2022-09-30T13:57:52.000Z</time>
      </trkpt>
      <trkpt lat="45.85565" lon="4.70689">
        <ele>200.84854</ele>
        <time>2022-09-30T13:57:53.000Z</time>
      </trkpt>
      <trkpt lat="45.85588" lon="4.70736">
        <ele>200.82433</ele>
        <time>2022-09-30T13:58:00.000Z</time>
      </trkpt>
      <trkpt lat="45.85593" lon="4.70742">
        <ele>200.88751</ele>
        <time>2022-09-30T13:58:01.000Z</time>
      </trkpt>
      <trkpt lat="45.85597" lon="4.70749">
        <ele>200.93103</ele>
        <time>2022-09-30T13:58:02.000Z</time>
      </trkpt>
      <trkpt lat="45.85601" lon="4.70757">
        <ele>200.85661</ele>
        <time>2022-09-30T13:58:03.000Z</time>
      </trkpt>
      <trkpt lat="45.85604" lon="4.70765">
        <ele>200.69125</ele>
        <time>2022-09-30T13:58:04.000Z</time>
      </trkpt>
      <trkpt lat="45.85607" lon="4.70771">
        <ele>200.32455</ele>
        <time>2022-09-30T13:58:05.000Z</time>
      </trkpt>
      <trkpt lat="45.85612" lon="4.70775">
        <ele>200.04214</ele>
        <time>2022-09-30T13:58:06.000Z</time>
      </trkpt>
      <trkpt lat="45.85611" lon="4.70783">
        <ele>199.80087</ele>
        <time>2022-09-30T13:58:07.000Z</time>
      </trkpt>
      <trkpt lat="45.85615" lon="4.70789">
        <ele>199.55046</ele>
        <time>2022-09-30T13:58:08.000Z</time>
      </trkpt>
      <trkpt lat="45.8562" lon="4.70795">
        <ele>199.29184</ele>
        <time>2022-09-30T13:58:09.000Z</time>
      </trkpt>
      <trkpt lat="45.85624" lon="4.708">
        <ele>198.95943</ele>
        <time>2022-09-30T13:58:10.000Z</time>
      </trkpt>
      <trkpt lat="45.85628" lon="4.70806">
        <ele>198.62798</ele>
        <time>2022-09-30T13:58:11.000Z</time>
      </trkpt>
      <trkpt lat="45.85633" lon="4.7081">
        <ele>198.30817</ele>
        <time>2022-09-30T13:58:12.000Z</time>
      </trkpt>
      <trkpt lat="45.85638" lon="4.70816">
        <ele>197.98093</ele>
        <time>2022-09-30T13:58:13.000Z</time>
      </trkpt>
      <trkpt lat="45.85643" lon="4.70819">
        <ele>197.67487</ele>
        <time>2022-09-30T13:58:14.000Z</time>
      </trkpt>
      <trkpt lat="45.85647" lon="4.70822">
        <ele>197.37802</ele>
        <time>2022-09-30T13:58:15.000Z</time>
      </trkpt>
      <trkpt lat="45.85652" lon="4.70826">
        <ele>197.09348</ele>
        <time>2022-09-30T13:58:16.000Z</time>
      </trkpt>
      <trkpt lat="45.85658" lon="4.70831">
        <ele>196.95166</ele>
        <time>2022-09-30T13:58:17.000Z</time>
      </trkpt>
      <trkpt lat="45.85662" lon="4.70835">
        <ele>196.85477</ele>
        <time>2022-09-30T13:58:18.000Z</time>
      </trkpt>
      <trkpt lat="45.85667" lon="4.70839">
        <ele>196.69803</ele>
        <time>2022-09-30T13:58:19.000Z</time>
      </trkpt>
      <trkpt lat="45.8567" lon="4.70842">
        <ele>196.76477</ele>
        <time>2022-09-30T13:58:20.000Z</time>
      </trkpt>
      <trkpt lat="45.85674" lon="4.70845">
        <ele>196.7363</ele>
        <time>2022-09-30T13:58:21.000Z</time>
      </trkpt>
      <trkpt lat="45.8568" lon="4.70851">
        <ele>196.62894</ele>
        <time>2022-09-30T13:58:22.000Z</time>
      </trkpt>
      <trkpt lat="45.85683" lon="4.70854">
        <ele>196.54718</ele>
        <time>2022-09-30T13:58:23.000Z</time>
      </trkpt>
      <trkpt lat="45.85687" lon="4.70857">
        <ele>196.53098</ele>
        <time>2022-09-30T13:58:24.000Z</time>
      </trkpt>
      <trkpt lat="45.85697" lon="4.70857">
        <ele>196.55713</ele>
        <time>2022-09-30T13:58:25.000Z</time>
      </trkpt>
      <trkpt lat="45.85702" lon="4.7086">
        <ele>196.5437</ele>
        <time>2022-09-30T13:58:26.000Z</time>
      </trkpt>
      <trkpt lat="45.85707" lon="4.70862">
        <ele>196.5168</ele>
        <time>2022-09-30T13:58:27.000Z</time>
      </trkpt>
      <trkpt lat="45.85713" lon="4.70864">
        <ele>196.50984</ele>
        <time>2022-09-30T13:58:28.000Z</time>
      </trkpt>
      <trkpt lat="45.85718" lon="4.70866">
        <ele>196.55038</ele>
        <time>2022-09-30T13:58:29.000Z</time>
      </trkpt>
      <trkpt lat="45.85723" lon="4.7087">
        <ele>196.68535</ele>
        <time>2022-09-30T13:58:30.000Z</time>
      </trkpt>
      <trkpt lat="45.85725" lon="4.70876">
        <ele>196.80644</ele>
        <time>2022-09-30T13:58:31.000Z</time>
      </trkpt>
      <trkpt lat="45.85728" lon="4.70882">
        <ele>196.91185</ele>
        <time>2022-09-30T13:58:32.000Z</time>
      </trkpt>
      <trkpt lat="45.85729" lon="4.70887">
        <ele>196.98889</ele>
        <time>2022-09-30T13:58:33.000Z</time>
      </trkpt>
      <trkpt lat="45.85732" lon="4.70893">
        <ele>197.08041</ele>
        <time>2022-09-30T13:58:34.000Z</time>
      </trkpt>
      <trkpt lat="45.85736" lon="4.70897">
        <ele>197.20105</ele>
        <time>2022-09-30T13:58:35.000Z</time>
      </trkpt>
      <trkpt lat="45.85739" lon="4.70901">
        <ele>197.32317</ele>
        <time>2022-09-30T13:58:36.000Z</time>
      </trkpt>
      <trkpt lat="45.85744" lon="4.70903">
        <ele>197.36444</ele>
        <time>2022-09-30T13:58:37.000Z</time>
      </trkpt>
      <trkpt lat="45.85749" lon="4.70905">
        <ele>197.38422</ele>
        <time>2022-09-30T13:58:38.000Z</time>
      </trkpt>
      <trkpt lat="45.85754" lon="4.7091">
        <ele>197.39561</ele>
        <time>2022-09-30T13:58:39.000Z</time>
      </trkpt>
      <trkpt lat="45.85757" lon="4.70916">
        <ele>197.47931</ele>
        <time>2022-09-30T13:58:40.000Z</time>
      </trkpt>
      <trkpt lat="45.85758" lon="4.70924">
        <ele>197.53333</ele>
        <time>2022-09-30T13:58:41.000Z</time>
      </trkpt>
      <trkpt lat="45.85758" lon="4.70931">
        <ele>197.61168</ele>
        <time>2022-09-30T13:58:42.000Z</time>
      </trkpt>
      <trkpt lat="45.85758" lon="4.70938">
        <ele>197.70135</ele>
        <time>2022-09-30T13:58:43.000Z</time>
      </trkpt>
      <trkpt lat="45.85759" lon="4.70944">
        <ele>197.83603</ele>
        <time>2022-09-30T13:58:44.000Z</time>
      </trkpt>
      <trkpt lat="45.85759" lon="4.70953">
        <ele>197.91246</ele>
        <time>2022-09-30T13:58:45.000Z</time>
      </trkpt>
      <trkpt lat="45.85759" lon="4.7096">
        <ele>198.00133</ele>
        <time>2022-09-30T13:58:46.000Z</time>
      </trkpt>
      <trkpt lat="45.8576" lon="4.70967">
        <ele>198.08582</ele>
        <time>2022-09-30T13:58:47.000Z</time>
      </trkpt>
      <trkpt lat="45.8576" lon="4.70975">
        <ele>198.10933</ele>
        <time>2022-09-30T13:58:48.000Z</time>
      </trkpt>
      <trkpt lat="45.85761" lon="4.70982">
        <ele>198.18611</ele>
        <time>2022-09-30T13:58:49.000Z</time>
      </trkpt>
      <trkpt lat="45.85762" lon="4.7099">
        <ele>198.25484</ele>
        <time>2022-09-30T13:58:50.000Z</time>
      </trkpt>
      <trkpt lat="45.85763" lon="4.70998">
        <ele>198.34933</ele>
        <time>2022-09-30T13:58:51.000Z</time>
      </trkpt>
      <trkpt lat="45.85763" lon="4.71005">
        <ele>198.41139</ele>
        <time>2022-09-30T13:58:52.000Z</time>
      </trkpt>
      <trkpt lat="45.85763" lon="4.71015">
        <ele>198.40086</ele>
        <time>2022-09-30T13:58:53.000Z</time>
      </trkpt>
      <trkpt lat="45.85763" lon="4.71024">
        <ele>198.32518</ele>
        <time>2022-09-30T13:58:54.000Z</time>
      </trkpt>
      <trkpt lat="45.85764" lon="4.71032">
        <ele>198.21686</ele>
        <time>2022-09-30T13:58:55.000Z</time>
      </trkpt>
      <trkpt lat="45.85765" lon="4.71041">
        <ele>198.09805</ele>
        <time>2022-09-30T13:58:56.000Z</time>
      </trkpt>
      <trkpt lat="45.85765" lon="4.7105">
        <ele>198.02565</ele>
        <time>2022-09-30T13:58:57.000Z</time>
      </trkpt>
      <trkpt lat="45.85767" lon="4.71058">
        <ele>197.92961</ele>
        <time>2022-09-30T13:58:58.000Z</time>
      </trkpt>
      <trkpt lat="45.85768" lon="4.71067">
        <ele>197.88103</ele>
        <time>2022-09-30T13:58:59.000Z</time>
      </trkpt>
      <trkpt lat="45.85769" lon="4.71074">
        <ele>197.88942</ele>
        <time>2022-09-30T13:59:00.000Z</time>
      </trkpt>
      <trkpt lat="45.85771" lon="4.71082">
        <ele>198.00804</ele>
        <time>2022-09-30T13:59:01.000Z</time>
      </trkpt>
      <trkpt lat="45.85773" lon="4.71089">
        <ele>198.16139</ele>
        <time>2022-09-30T13:59:02.000Z</time>
      </trkpt>
      <trkpt lat="45.85774" lon="4.71097">
        <ele>198.33551</ele>
        <time>2022-09-30T13:59:03.000Z</time>
      </trkpt>
      <trkpt lat="45.85775" lon="4.71105">
        <ele>198.49823</ele>
        <time>2022-09-30T13:59:04.000Z</time>
      </trkpt>
      <trkpt lat="45.85777" lon="4.71113">
        <ele>198.71877</ele>
        <time>2022-09-30T13:59:05.000Z</time>
      </trkpt>
      <trkpt lat="45.85778" lon="4.7112">
        <ele>198.86697</ele>
        <time>2022-09-30T13:59:06.000Z</time>
      </trkpt>
      <trkpt lat="45.85779" lon="4.71129">
        <ele>198.96042</ele>
        <time>2022-09-30T13:59:07.000Z</time>
      </trkpt>
      <trkpt lat="45.85781" lon="4.71136">
        <ele>199.12251</ele>
        <time>2022-09-30T13:59:08.000Z</time>
      </trkpt>
      <trkpt lat="45.85781" lon="4.71143">
        <ele>199.2558</ele>
        <time>2022-09-30T13:59:09.000Z</time>
      </trkpt>
      <trkpt lat="45.85782" lon="4.7115">
        <ele>199.3589</ele>
        <time>2022-09-30T13:59:10.000Z</time>
      </trkpt>
      <trkpt lat="45.85783" lon="4.71157">
        <ele>199.47513</ele>
        <time>2022-09-30T13:59:11.000Z</time>
      </trkpt>
      <trkpt lat="45.85784" lon="4.71164">
        <ele>199.62793</ele>
        <time>2022-09-30T13:59:12.000Z</time>
      </trkpt>
      <trkpt lat="45.85782" lon="4.7117">
        <ele>199.84103</ele>
        <time>2022-09-30T13:59:13.000Z</time>
      </trkpt>
      <trkpt lat="45.8578" lon="4.71175">
        <ele>200.14586</ele>
        <time>2022-09-30T13:59:14.000Z</time>
      </trkpt>
      <trkpt lat="45.85776" lon="4.71174">
        <ele>200.45729</ele>
        <time>2022-09-30T13:59:15.000Z</time>
      </trkpt>
      <trkpt lat="45.85772" lon="4.71174">
        <ele>200.73404</ele>
        <time>2022-09-30T13:59:16.000Z</time>
      </trkpt>
      <trkpt lat="45.85768" lon="4.71171">
        <ele>200.97972</ele>
        <time>2022-09-30T13:59:17.000Z</time>
      </trkpt>
      <trkpt lat="45.85763" lon="4.71169">
        <ele>201.24586</ele>
        <time>2022-09-30T13:59:18.000Z</time>
      </trkpt>
      <trkpt lat="45.85763" lon="4.7116">
        <ele>201.63013</ele>
        <time>2022-09-30T13:59:19.000Z</time>
      </trkpt>
      <trkpt lat="45.8576" lon="4.71156">
        <ele>201.95457</ele>
        <time>2022-09-30T13:59:20.000Z</time>
      </trkpt>
      <trkpt lat="45.85761" lon="4.71148">
        <ele>202.32964</ele>
        <time>2022-09-30T13:59:21.000Z</time>
      </trkpt>
      <trkpt lat="45.85762" lon="4.71141">
        <ele>202.74063</ele>
        <time>2022-09-30T13:59:22.000Z</time>
      </trkpt>
      <trkpt lat="45.85758" lon="4.71137">
        <ele>203.12418</ele>
        <time>2022-09-30T13:59:23.000Z</time>
      </trkpt>
      <trkpt lat="45.85756" lon="4.71133">
        <ele>203.52945</ele>
        <time>2022-09-30T13:59:24.000Z</time>
      </trkpt>
      <trkpt lat="45.85754" lon="4.71129">
        <ele>203.91339</ele>
        <time>2022-09-30T13:59:25.000Z</time>
      </trkpt>
      <trkpt lat="45.85751" lon="4.71125">
        <ele>204.2962</ele>
        <time>2022-09-30T13:59:26.000Z</time>
      </trkpt>
      <trkpt lat="45.85746" lon="4.71121">
        <ele>204.72797</ele>
        <time>2022-09-30T13:59:27.000Z</time>
      </trkpt>
      <trkpt lat="45.85741" lon="4.71118">
        <ele>205.06003</ele>
        <time>2022-09-30T13:59:28.000Z</time>
      </trkpt>
      <trkpt lat="45.85737" lon="4.71115">
        <ele>205.41409</ele>
        <time>2022-09-30T13:59:29.000Z</time>
      </trkpt>
      <trkpt lat="45.85733" lon="4.7111">
        <ele>205.77087</ele>
        <time>2022-09-30T13:59:30.000Z</time>
      </trkpt>
      <trkpt lat="45.8573" lon="4.71106">
        <ele>206.14693</ele>
        <time>2022-09-30T13:59:31.000Z</time>
      </trkpt>
      <trkpt lat="45.85725" lon="4.71103">
        <ele>206.55911</ele>
        <time>2022-09-30T13:59:32.000Z</time>
      </trkpt>
      <trkpt lat="45.85721" lon="4.71101">
        <ele>206.95903</ele>
        <time>2022-09-30T13:59:33.000Z</time>
      </trkpt>
      <trkpt lat="45.85718" lon="4.71099">
        <ele>207.29387</ele>
        <time>2022-09-30T13:59:34.000Z</time>
      </trkpt>
      <trkpt lat="45.85714" lon="4.71097">
        <ele>207.62605</ele>
        <time>2022-09-30T13:59:35.000Z</time>
      </trkpt>
      <trkpt lat="45.85712" lon="4.71095">
        <ele>207.91455</ele>
        <time>2022-09-30T13:59:36.000Z</time>
      </trkpt>
      <trkpt lat="45.85708" lon="4.71094">
        <ele>208.19307</ele>
        <time>2022-09-30T13:59:37.000Z</time>
      </trkpt>
      <trkpt lat="45.85706" lon="4.71091">
        <ele>208.56169</ele>
        <time>2022-09-30T13:59:38.000Z</time>
      </trkpt>
      <trkpt lat="45.85705" lon="4.71088">
        <ele>208.8486</ele>
        <time>2022-09-30T13:59:39.000Z</time>
      </trkpt>
      <trkpt lat="45.85702" lon="4.71084">
        <ele>209.16614</ele>
        <time>2022-09-30T13:59:40.000Z</time>
      </trkpt>
      <trkpt lat="45.85701" lon="4.71083">
        <ele>209.48792</ele>
        <time>2022-09-30T13:59:41.000Z</time>
      </trkpt>
      <trkpt lat="45.85699" lon="4.71078">
        <ele>209.79643</ele>
        <time>2022-09-30T13:59:42.000Z</time>
      </trkpt>
      <trkpt lat="45.85695" lon="4.71077">
        <ele>210.10657</ele>
        <time>2022-09-30T13:59:43.000Z</time>
      </trkpt>
      <trkpt lat="45.85691" lon="4.71075">
        <ele>210.35574</ele>
        <time>2022-09-30T13:59:44.000Z</time>
      </trkpt>
      <trkpt lat="45.85688" lon="4.71074">
        <ele>210.56929</ele>
        <time>2022-09-30T13:59:45.000Z</time>
      </trkpt>
      <trkpt lat="45.85684" lon="4.71072">
        <ele>210.77971</ele>
        <time>2022-09-30T13:59:46.000Z</time>
      </trkpt>
      <trkpt lat="45.85681" lon="4.7107">
        <ele>210.94661</ele>
        <time>2022-09-30T13:59:47.000Z</time>
      </trkpt>
      <trkpt lat="45.85677" lon="4.71068">
        <ele>211.19182</ele>
        <time>2022-09-30T13:59:48.000Z</time>
      </trkpt>
      <trkpt lat="45.85674" lon="4.71065">
        <ele>211.36948</ele>
        <time>2022-09-30T13:59:49.000Z</time>
      </trkpt>
      <trkpt lat="45.85671" lon="4.71063">
        <ele>211.43234</ele>
        <time>2022-09-30T13:59:50.000Z</time>
      </trkpt>
      <trkpt lat="45.85668" lon="4.7106">
        <ele>211.5397</ele>
        <time>2022-09-30T13:59:51.000Z</time>
      </trkpt>
      <trkpt lat="45.85664" lon="4.71058">
        <ele>211.61462</ele>
        <time>2022-09-30T13:59:52.000Z</time>
      </trkpt>
      <trkpt lat="45.85661" lon="4.71056">
        <ele>211.72844</ele>
        <time>2022-09-30T13:59:53.000Z</time>
      </trkpt>
      <trkpt lat="45.85658" lon="4.71054">
        <ele>211.79984</ele>
        <time>2022-09-30T13:59:54.000Z</time>
      </trkpt>
      <trkpt lat="45.85654" lon="4.71051">
        <ele>211.87045</ele>
        <time>2022-09-30T13:59:55.000Z</time>
      </trkpt>
      <trkpt lat="45.85651" lon="4.71049">
        <ele>212.04028</ele>
        <time>2022-09-30T13:59:56.000Z</time>
      </trkpt>
      <trkpt lat="45.85647" lon="4.71046">
        <ele>212.18872</ele>
        <time>2022-09-30T13:59:57.000Z</time>
      </trkpt>
      <trkpt lat="45.85644" lon="4.71044">
        <ele>212.24802</ele>
        <time>2022-09-30T13:59:58.000Z</time>
      </trkpt>
      <trkpt lat="45.8564" lon="4.71042">
        <ele>212.28593</ele>
        <time>2022-09-30T13:59:59.000Z</time>
      </trkpt>
      <trkpt lat="45.85637" lon="4.71039">
        <ele>212.3062</ele>
        <time>2022-09-30T14:00:00.000Z</time>
      </trkpt>
      <trkpt lat="45.85633" lon="4.71035">
        <ele>212.23601</ele>
        <time>2022-09-30T14:00:01.000Z</time>
      </trkpt>
      <trkpt lat="45.85631" lon="4.7103">
        <ele>212.17062</ele>
        <time>2022-09-30T14:00:02.000Z</time>
      </trkpt>
      <trkpt lat="45.85628" lon="4.71025">
        <ele>212.09229</ele>
        <time>2022-09-30T14:00:03.000Z</time>
      </trkpt>
      <trkpt lat="45.85625" lon="4.71021">
        <ele>211.99016</ele>
        <time>2022-09-30T14:00:04.000Z</time>
      </trkpt>
      <trkpt lat="45.85622" lon="4.71017">
        <ele>211.92618</ele>
        <time>2022-09-30T14:00:05.000Z</time>
      </trkpt>
      <trkpt lat="45.85619" lon="4.71014">
        <ele>211.9166</ele>
        <time>2022-09-30T14:00:06.000Z</time>
      </trkpt>
      <trkpt lat="45.85616" lon="4.7101">
        <ele>211.95779</ele>
        <time>2022-09-30T14:00:07.000Z</time>
      </trkpt>
      <trkpt lat="45.85613" lon="4.71006">
        <ele>211.97986</ele>
        <time>2022-09-30T14:00:08.000Z</time>
      </trkpt>
      <trkpt lat="45.8561" lon="4.71002">
        <ele>212.0529</ele>
        <time>2022-09-30T14:00:09.000Z</time>
      </trkpt>
      <trkpt lat="45.85607" lon="4.70998">
        <ele>212.19821</ele>
        <time>2022-09-30T14:00:10.000Z</time>
      </trkpt>
      <trkpt lat="45.85604" lon="4.70994">
        <ele>212.26608</ele>
        <time>2022-09-30T14:00:11.000Z</time>
      </trkpt>
      <trkpt lat="45.85601" lon="4.70989">
        <ele>212.37993</ele>
        <time>2022-09-30T14:00:12.000Z</time>
      </trkpt>
      <trkpt lat="45.85597" lon="4.70985">
        <ele>212.44853</ele>
        <time>2022-09-30T14:00:13.000Z</time>
      </trkpt>
      <trkpt lat="45.85594" lon="4.70981">
        <ele>212.54597</ele>
        <time>2022-09-30T14:00:14.000Z</time>
      </trkpt>
      <trkpt lat="45.85591" lon="4.70975">
        <ele>212.59583</ele>
        <time>2022-09-30T14:00:15.000Z</time>
      </trkpt>
      <trkpt lat="45.85586" lon="4.70972">
        <ele>212.5563</ele>
        <time>2022-09-30T14:00:16.000Z</time>
      </trkpt>
      <trkpt lat="45.85582" lon="4.70969">
        <ele>212.53333</ele>
        <time>2022-09-30T14:00:17.000Z</time>
      </trkpt>
      <trkpt lat="45.85578" lon="4.70964">
        <ele>212.49387</ele>
        <time>2022-09-30T14:00:18.000Z</time>
      </trkpt>
      <trkpt lat="45.85574" lon="4.70961">
        <ele>212.43538</ele>
        <time>2022-09-30T14:00:19.000Z</time>
      </trkpt>
      <trkpt lat="45.8557" lon="4.70957">
        <ele>212.35388</ele>
        <time>2022-09-30T14:00:20.000Z</time>
      </trkpt>
      <trkpt lat="45.85566" lon="4.70954">
        <ele>212.27348</ele>
        <time>2022-09-30T14:00:21.000Z</time>
      </trkpt>
      <trkpt lat="45.85561" lon="4.70951">
        <ele>212.14124</ele>
        <time>2022-09-30T14:00:22.000Z</time>
      </trkpt>
      <trkpt lat="45.85556" lon="4.70949">
        <ele>211.99727</ele>
        <time>2022-09-30T14:00:23.000Z</time>
      </trkpt>
      <trkpt lat="45.85551" lon="4.70946">
        <ele>211.90022</ele>
        <time>2022-09-30T14:00:24.000Z</time>
      </trkpt>
      <trkpt lat="45.85546" lon="4.70944">
        <ele>211.83711</ele>
        <time>2022-09-30T14:00:25.000Z</time>
      </trkpt>
      <trkpt lat="45.8554" lon="4.70943">
        <ele>211.68481</ele>
        <time>2022-09-30T14:00:26.000Z</time>
      </trkpt>
      <trkpt lat="45.85537" lon="4.70946">
        <ele>211.40042</ele>
        <time>2022-09-30T14:00:27.000Z</time>
      </trkpt>
      <trkpt lat="45.85533" lon="4.70943">
        <ele>211.17204</ele>
        <time>2022-09-30T14:00:28.000Z</time>
      </trkpt>
      <trkpt lat="45.85528" lon="4.70943">
        <ele>210.91394</ele>
        <time>2022-09-30T14:00:29.000Z</time>
      </trkpt>
      <trkpt lat="45.85524" lon="4.70943">
        <ele>210.67998</ele>
        <time>2022-09-30T14:00:30.000Z</time>
      </trkpt>
      <trkpt lat="45.8552" lon="4.70942">
        <ele>210.47058</ele>
        <time>2022-09-30T14:00:31.000Z</time>
      </trkpt>
      <trkpt lat="45.85516" lon="4.70942">
        <ele>210.21216</ele>
        <time>2022-09-30T14:00:32.000Z</time>
      </trkpt>
      <trkpt lat="45.85513" lon="4.70941">
        <ele>209.98886</ele>
        <time>2022-09-30T14:00:33.000Z</time>
      </trkpt>
      <trkpt lat="45.85509" lon="4.7094">
        <ele>209.79764</ele>
        <time>2022-09-30T14:00:34.000Z</time>
      </trkpt>
      <trkpt lat="45.85508" lon="4.70936">
        <ele>209.60503</ele>
        <time>2022-09-30T14:00:35.000Z</time>
      </trkpt>
      <trkpt lat="45.85506" lon="4.70935">
        <ele>209.47147</ele>
        <time>2022-09-30T14:00:36.000Z</time>
      </trkpt>
      <trkpt lat="45.85501" lon="4.70946">
        <ele>209.29875</ele>
        <time>2022-09-30T14:00:37.000Z</time>
      </trkpt>
      <trkpt lat="45.85499" lon="4.7095">
        <ele>209.1709</ele>
        <time>2022-09-30T14:00:39.000Z</time>
      </trkpt>
      <trkpt lat="45.85499" lon="4.70955">
        <ele>209.07707</ele>
        <time>2022-09-30T14:00:40.000Z</time>
      </trkpt>
      <trkpt lat="45.85499" lon="4.7096">
        <ele>209.02856</ele>
        <time>2022-09-30T14:00:41.000Z</time>
      </trkpt>
      <trkpt lat="45.855" lon="4.70964">
        <ele>208.93701</ele>
        <time>2022-09-30T14:00:42.000Z</time>
      </trkpt>
      <trkpt lat="45.855" lon="4.70969">
        <ele>208.90756</ele>
        <time>2022-09-30T14:00:43.000Z</time>
      </trkpt>
      <trkpt lat="45.85501" lon="4.70973">
        <ele>208.91269</ele>
        <time>2022-09-30T14:00:44.000Z</time>
      </trkpt>
      <trkpt lat="45.85501" lon="4.70978">
        <ele>208.90866</ele>
        <time>2022-09-30T14:00:45.000Z</time>
      </trkpt>
      <trkpt lat="45.855" lon="4.70983">
        <ele>208.88957</ele>
        <time>2022-09-30T14:00:46.000Z</time>
      </trkpt>
      <trkpt lat="45.855" lon="4.70987">
        <ele>208.87354</ele>
        <time>2022-09-30T14:00:47.000Z</time>
      </trkpt>
      <trkpt lat="45.855" lon="4.70993">
        <ele>209.00162</ele>
        <time>2022-09-30T14:00:48.000Z</time>
      </trkpt>
      <trkpt lat="45.855" lon="4.70998">
        <ele>209.071</ele>
        <time>2022-09-30T14:00:49.000Z</time>
      </trkpt>
      <trkpt lat="45.855" lon="4.71004">
        <ele>209.14912</ele>
        <time>2022-09-30T14:00:50.000Z</time>
      </trkpt>
      <trkpt lat="45.85499" lon="4.71009">
        <ele>209.21106</ele>
        <time>2022-09-30T14:00:51.000Z</time>
      </trkpt>
      <trkpt lat="45.85498" lon="4.71013">
        <ele>209.33118</ele>
        <time>2022-09-30T14:00:52.000Z</time>
      </trkpt>
      <trkpt lat="45.85499" lon="4.71018">
        <ele>209.5043</ele>
        <time>2022-09-30T14:00:53.000Z</time>
      </trkpt>
      <trkpt lat="45.855" lon="4.71023">
        <ele>209.57434</ele>
        <time>2022-09-30T14:00:54.000Z</time>
      </trkpt>
      <trkpt lat="45.85502" lon="4.71026">
        <ele>209.58911</ele>
        <time>2022-09-30T14:00:55.000Z</time>
      </trkpt>
      <trkpt lat="45.85503" lon="4.71028">
        <ele>209.61844</ele>
        <time>2022-09-30T14:00:56.000Z</time>
      </trkpt>
      <trkpt lat="45.85506" lon="4.7103">
        <ele>209.6447</ele>
        <time>2022-09-30T14:00:57.000Z</time>
      </trkpt>
      <trkpt lat="45.85508" lon="4.71032">
        <ele>209.74129</ele>
        <time>2022-09-30T14:00:58.000Z</time>
      </trkpt>
      <trkpt lat="45.8551" lon="4.71034">
        <ele>209.79074</ele>
        <time>2022-09-30T14:00:59.000Z</time>
      </trkpt>
      <trkpt lat="45.85513" lon="4.71036">
        <ele>209.79485</ele>
        <time>2022-09-30T14:01:00.000Z</time>
      </trkpt>
      <trkpt lat="45.85515" lon="4.71038">
        <ele>209.73386</ele>
        <time>2022-09-30T14:01:01.000Z</time>
      </trkpt>
      <trkpt lat="45.85517" lon="4.71041">
        <ele>209.71017</ele>
        <time>2022-09-30T14:01:02.000Z</time>
      </trkpt>
      <trkpt lat="45.85518" lon="4.71044">
        <ele>209.62968</ele>
        <time>2022-09-30T14:01:03.000Z</time>
      </trkpt>
      <trkpt lat="45.85519" lon="4.71049">
        <ele>209.63321</ele>
        <time>2022-09-30T14:01:04.000Z</time>
      </trkpt>
      <trkpt lat="45.8552" lon="4.71056">
        <ele>209.66068</ele>
        <time>2022-09-30T14:01:05.000Z</time>
      </trkpt>
      <trkpt lat="45.85519" lon="4.71062">
        <ele>209.68979</ele>
        <time>2022-09-30T14:01:06.000Z</time>
      </trkpt>
      <trkpt lat="45.85519" lon="4.71068">
        <ele>209.7885</ele>
        <time>2022-09-30T14:01:07.000Z</time>
      </trkpt>
      <trkpt lat="45.85518" lon="4.71075">
        <ele>209.72408</ele>
        <time>2022-09-30T14:01:08.000Z</time>
      </trkpt>
      <trkpt lat="45.85518" lon="4.71084">
        <ele>209.66968</ele>
        <time>2022-09-30T14:01:09.000Z</time>
      </trkpt>
      <trkpt lat="45.8552" lon="4.7109">
        <ele>209.53641</ele>
        <time>2022-09-30T14:01:10.000Z</time>
      </trkpt>
      <trkpt lat="45.8552" lon="4.71097">
        <ele>209.39432</ele>
        <time>2022-09-30T14:01:11.000Z</time>
      </trkpt>
      <trkpt lat="45.85521" lon="4.71104">
        <ele>209.20271</ele>
        <time>2022-09-30T14:01:12.000Z</time>
      </trkpt>
      <trkpt lat="45.85521" lon="4.7111">
        <ele>208.9012</ele>
        <time>2022-09-30T14:01:13.000Z</time>
      </trkpt>
      <trkpt lat="45.8552" lon="4.71117">
        <ele>208.69414</ele>
        <time>2022-09-30T14:01:14.000Z</time>
      </trkpt>
      <trkpt lat="45.85519" lon="4.71124">
        <ele>208.53674</ele>
        <time>2022-09-30T14:01:15.000Z</time>
      </trkpt>
      <trkpt lat="45.85518" lon="4.7113">
        <ele>208.39517</ele>
        <time>2022-09-30T14:01:16.000Z</time>
      </trkpt>
      <trkpt lat="45.85522" lon="4.71136">
        <ele>208.23283</ele>
        <time>2022-09-30T14:01:17.000Z</time>
      </trkpt>
      <trkpt lat="45.8552" lon="4.71142">
        <ele>208.04898</ele>
        <time>2022-09-30T14:01:18.000Z</time>
      </trkpt>
      <trkpt lat="45.85519" lon="4.71146">
        <ele>207.81572</ele>
        <time>2022-09-30T14:01:19.000Z</time>
      </trkpt>
      <trkpt lat="45.85518" lon="4.7115">
        <ele>207.48811</ele>
        <time>2022-09-30T14:01:20.000Z</time>
      </trkpt>
      <trkpt lat="45.85516" lon="4.71153">
        <ele>207.25809</ele>
        <time>2022-09-30T14:01:21.000Z</time>
      </trkpt>
      <trkpt lat="45.85512" lon="4.71159">
        <ele>207.03857</ele>
        <time>2022-09-30T14:01:23.000Z</time>
      </trkpt>
      <trkpt lat="45.85509" lon="4.71161">
        <ele>206.88</ele>
        <time>2022-09-30T14:01:24.000Z</time>
      </trkpt>
      <trkpt lat="45.85507" lon="4.71165">
        <ele>206.56888</ele>
        <time>2022-09-30T14:01:25.000Z</time>
      </trkpt>
      <trkpt lat="45.85505" lon="4.71167">
        <ele>206.2731</ele>
        <time>2022-09-30T14:01:26.000Z</time>
      </trkpt>
      <trkpt lat="45.85503" lon="4.71169">
        <ele>205.83829</ele>
        <time>2022-09-30T14:01:28.000Z</time>
      </trkpt>
      <trkpt lat="45.85501" lon="4.7117">
        <ele>205.45383</ele>
        <time>2022-09-30T14:01:30.000Z</time>
      </trkpt>
      <trkpt lat="45.85498" lon="4.71172">
        <ele>205.25607</ele>
        <time>2022-09-30T14:01:32.000Z</time>
      </trkpt>
      <trkpt lat="45.85495" lon="4.71174">
        <ele>205.01778</ele>
        <time>2022-09-30T14:01:34.000Z</time>
      </trkpt>
      <trkpt lat="45.85493" lon="4.71177">
        <ele>204.82979</ele>
        <time>2022-09-30T14:01:35.000Z</time>
      </trkpt>
      <trkpt lat="45.85491" lon="4.71179">
        <ele>204.55765</ele>
        <time>2022-09-30T14:01:36.000Z</time>
      </trkpt>
      <trkpt lat="45.85489" lon="4.71182">
        <ele>204.25867</ele>
        <time>2022-09-30T14:01:37.000Z</time>
      </trkpt>
      <trkpt lat="45.85487" lon="4.71185">
        <ele>203.98846</ele>
        <time>2022-09-30T14:01:38.000Z</time>
      </trkpt>
      <trkpt lat="45.85486" lon="4.71188">
        <ele>203.79007</ele>
        <time>2022-09-30T14:01:39.000Z</time>
      </trkpt>
      <trkpt lat="45.85486" lon="4.7119">
        <ele>203.66252</ele>
        <time>2022-09-30T14:01:40.000Z</time>
      </trkpt>
      <trkpt lat="45.85486" lon="4.71193">
        <ele>203.5547</ele>
        <time>2022-09-30T14:01:41.000Z</time>
      </trkpt>
      <trkpt lat="45.85485" lon="4.71197">
        <ele>203.45203</ele>
        <time>2022-09-30T14:01:42.000Z</time>
      </trkpt>
      <trkpt lat="45.85485" lon="4.71201">
        <ele>203.28314</ele>
        <time>2022-09-30T14:01:43.000Z</time>
      </trkpt>
      <trkpt lat="45.85484" lon="4.71205">
        <ele>203.18459</ele>
        <time>2022-09-30T14:01:44.000Z</time>
      </trkpt>
      <trkpt lat="45.85484" lon="4.71209">
        <ele>203.1315</ele>
        <time>2022-09-30T14:01:45.000Z</time>
      </trkpt>
      <trkpt lat="45.85483" lon="4.71213">
        <ele>203.02498</ele>
        <time>2022-09-30T14:01:46.000Z</time>
      </trkpt>
      <trkpt lat="45.85483" lon="4.71216">
        <ele>202.82977</ele>
        <time>2022-09-30T14:01:47.000Z</time>
      </trkpt>
      <trkpt lat="45.85482" lon="4.7122">
        <ele>202.58936</ele>
        <time>2022-09-30T14:01:48.000Z</time>
      </trkpt>
      <trkpt lat="45.85481" lon="4.71224">
        <ele>202.38098</ele>
        <time>2022-09-30T14:01:49.000Z</time>
      </trkpt>
      <trkpt lat="45.85481" lon="4.71229">
        <ele>202.06516</ele>
        <time>2022-09-30T14:01:50.000Z</time>
      </trkpt>
      <trkpt lat="45.8548" lon="4.71233">
        <ele>201.87057</ele>
        <time>2022-09-30T14:01:51.000Z</time>
      </trkpt>
      <trkpt lat="45.8548" lon="4.71236">
        <ele>201.62097</ele>
        <time>2022-09-30T14:01:52.000Z</time>
      </trkpt>
      <trkpt lat="45.8548" lon="4.71239">
        <ele>201.15727</ele>
        <time>2022-09-30T14:02:00.000Z</time>
      </trkpt>
      <trkpt lat="45.85479" lon="4.71241">
        <ele>200.94429</ele>
        <time>2022-09-30T14:02:28.000Z</time>
      </trkpt>
      <trkpt lat="45.85479" lon="4.71244">
        <ele>200.76851</ele>
        <time>2022-09-30T14:02:32.000Z</time>
      </trkpt>
      <trkpt lat="45.85481" lon="4.71247">
        <ele>200.65744</ele>
        <time>2022-09-30T14:02:34.000Z</time>
      </trkpt>
      <trkpt lat="45.85482" lon="4.71251">
        <ele>200.57974</ele>
        <time>2022-09-30T14:02:36.000Z</time>
      </trkpt>
      <trkpt lat="45.85483" lon="4.71256">
        <ele>200.52689</ele>
        <time>2022-09-30T14:02:38.000Z</time>
      </trkpt>
      <trkpt lat="45.85484" lon="4.71258">
        <ele>200.39694</ele>
        <time>2022-09-30T14:02:39.000Z</time>
      </trkpt>
      <trkpt lat="45.85484" lon="4.71261">
        <ele>200.15286</ele>
        <time>2022-09-30T14:02:45.000Z</time>
      </trkpt>
      <trkpt lat="45.8548" lon="4.71259">
        <ele>199.91032</ele>
        <time>2022-09-30T14:04:53.000Z</time>
      </trkpt>
      <trkpt lat="45.85477" lon="4.71259">
        <ele>199.63963</ele>
        <time>2022-09-30T14:04:54.000Z</time>
      </trkpt>
      <trkpt lat="45.85474" lon="4.71259">
        <ele>199.38684</ele>
        <time>2022-09-30T14:04:55.000Z</time>
      </trkpt>
      <trkpt lat="45.85472" lon="4.71259">
        <ele>199.17311</ele>
        <time>2022-09-30T14:04:56.000Z</time>
      </trkpt>
      <trkpt lat="45.8547" lon="4.71259">
        <ele>199.04781</ele>
        <time>2022-09-30T14:04:57.000Z</time>
      </trkpt>
      <trkpt lat="45.85468" lon="4.71258">
        <ele>198.95172</ele>
        <time>2022-09-30T14:04:58.000Z</time>
      </trkpt>
      <trkpt lat="45.85467" lon="4.71258">
        <ele>198.92369</ele>
        <time>2022-09-30T14:04:59.000Z</time>
      </trkpt>
      <trkpt lat="45.85464" lon="4.71256">
        <ele>198.909</ele>
        <time>2022-09-30T14:05:00.000Z</time>
      </trkpt>
      <trkpt lat="45.85462" lon="4.71255">
        <ele>198.9265</ele>
        <time>2022-09-30T14:05:01.000Z</time>
      </trkpt>
      <trkpt lat="45.8546" lon="4.71255">
        <ele>199.16861</ele>
        <time>2022-09-30T14:05:02.000Z</time>
      </trkpt>
      <trkpt lat="45.85458" lon="4.71257">
        <ele>199.42702</ele>
        <time>2022-09-30T14:05:03.000Z</time>
      </trkpt>
      <trkpt lat="45.85458" lon="4.7126">
        <ele>199.62431</ele>
        <time>2022-09-30T14:05:04.000Z</time>
      </trkpt>
      <trkpt lat="45.85459" lon="4.71262">
        <ele>199.97675</ele>
        <time>2022-09-30T14:05:05.000Z</time>
      </trkpt>
      <trkpt lat="45.85461" lon="4.71262">
        <ele>200.14206</ele>
        <time>2022-09-30T14:05:06.000Z</time>
      </trkpt>
      <trkpt lat="45.85464" lon="4.71261">
        <ele>200.29153</ele>
        <time>2022-09-30T14:05:07.000Z</time>
      </trkpt>
      <trkpt lat="45.85466" lon="4.71259">
        <ele>200.48238</ele>
        <time>2022-09-30T14:05:08.000Z</time>
      </trkpt>
      <trkpt lat="45.85469" lon="4.71257">
        <ele>200.64549</ele>
        <time>2022-09-30T14:05:09.000Z</time>
      </trkpt>
      <trkpt lat="45.85473" lon="4.71255">
        <ele>200.81708</ele>
        <time>2022-09-30T14:05:10.000Z</time>
      </trkpt>
      <trkpt lat="45.85476" lon="4.71255">
        <ele>201.01279</ele>
        <time>2022-09-30T14:05:11.000Z</time>
      </trkpt>
      <trkpt lat="45.8548" lon="4.71256">
        <ele>201.20691</ele>
        <time>2022-09-30T14:05:12.000Z</time>
      </trkpt>
      <trkpt lat="45.85484" lon="4.71257">
        <ele>201.37747</ele>
        <time>2022-09-30T14:05:13.000Z</time>
      </trkpt>
      <trkpt lat="45.85488" lon="4.71258">
        <ele>201.53909</ele>
        <time>2022-09-30T14:05:14.000Z</time>
      </trkpt>
      <trkpt lat="45.85492" lon="4.71259">
        <ele>201.70047</ele>
        <time>2022-09-30T14:05:15.000Z</time>
      </trkpt>
      <trkpt lat="45.85513" lon="4.71266">
        <ele>201.93938</ele>
        <time>2022-09-30T14:05:20.000Z</time>
      </trkpt>
      <trkpt lat="45.85517" lon="4.71267">
        <ele>202.15598</ele>
        <time>2022-09-30T14:05:21.000Z</time>
      </trkpt>
      <trkpt lat="45.85521" lon="4.71268">
        <ele>202.41995</ele>
        <time>2022-09-30T14:05:22.000Z</time>
      </trkpt>
      <trkpt lat="45.85525" lon="4.7127">
        <ele>202.62286</ele>
        <time>2022-09-30T14:05:23.000Z</time>
      </trkpt>
      <trkpt lat="45.85529" lon="4.71272">
        <ele>202.78648</ele>
        <time>2022-09-30T14:05:24.000Z</time>
      </trkpt>
      <trkpt lat="45.85533" lon="4.71274">
        <ele>202.91058</ele>
        <time>2022-09-30T14:05:25.000Z</time>
      </trkpt>
      <trkpt lat="45.85537" lon="4.71276">
        <ele>202.90865</ele>
        <time>2022-09-30T14:05:26.000Z</time>
      </trkpt>
      <trkpt lat="45.85542" lon="4.71278">
        <ele>202.88043</ele>
        <time>2022-09-30T14:05:27.000Z</time>
      </trkpt>
      <trkpt lat="45.85546" lon="4.7128">
        <ele>202.96628</ele>
        <time>2022-09-30T14:05:28.000Z</time>
      </trkpt>
      <trkpt lat="45.85553" lon="4.71279">
        <ele>203.03955</ele>
        <time>2022-09-30T14:05:29.000Z</time>
      </trkpt>
      <trkpt lat="45.85557" lon="4.71281">
        <ele>203.07495</ele>
        <time>2022-09-30T14:05:30.000Z</time>
      </trkpt>
      <trkpt lat="45.85562" lon="4.71284">
        <ele>203.13818</ele>
        <time>2022-09-30T14:05:31.000Z</time>
      </trkpt>
      <trkpt lat="45.85566" lon="4.71285">
        <ele>203.2366</ele>
        <time>2022-09-30T14:05:32.000Z</time>
      </trkpt>
      <trkpt lat="45.85569" lon="4.71288">
        <ele>203.37041</ele>
        <time>2022-09-30T14:05:33.000Z</time>
      </trkpt>
      <trkpt lat="45.85574" lon="4.71288">
        <ele>203.52844</ele>
        <time>2022-09-30T14:05:34.000Z</time>
      </trkpt>
      <trkpt lat="45.85577" lon="4.71289">
        <ele>203.69061</ele>
        <time>2022-09-30T14:05:35.000Z</time>
      </trkpt>
      <trkpt lat="45.8558" lon="4.7129">
        <ele>203.95651</ele>
        <time>2022-09-30T14:05:36.000Z</time>
      </trkpt>
      <trkpt lat="45.85585" lon="4.71294">
        <ele>204.09917</ele>
        <time>2022-09-30T14:05:37.000Z</time>
      </trkpt>
      <trkpt lat="45.85588" lon="4.71293">
        <ele>204.32753</ele>
        <time>2022-09-30T14:05:38.000Z</time>
      </trkpt>
      <trkpt lat="45.85593" lon="4.7129">
        <ele>204.73096</ele>
        <time>2022-09-30T14:05:39.000Z</time>
      </trkpt>
      <trkpt lat="45.85596" lon="4.7129">
        <ele>205.10794</ele>
        <time>2022-09-30T14:05:40.000Z</time>
      </trkpt>
      <trkpt lat="45.856" lon="4.7129">
        <ele>205.5347</ele>
        <time>2022-09-30T14:05:41.000Z</time>
      </trkpt>
      <trkpt lat="45.85603" lon="4.7129">
        <ele>205.94263</ele>
        <time>2022-09-30T14:05:42.000Z</time>
      </trkpt>
      <trkpt lat="45.85607" lon="4.7129">
        <ele>206.42868</ele>
        <time>2022-09-30T14:05:43.000Z</time>
      </trkpt>
      <trkpt lat="45.8561" lon="4.71291">
        <ele>206.90164</ele>
        <time>2022-09-30T14:05:44.000Z</time>
      </trkpt>
      <trkpt lat="45.85612" lon="4.71293">
        <ele>207.4102</ele>
        <time>2022-09-30T14:05:45.000Z</time>
      </trkpt>
      <trkpt lat="45.85614" lon="4.71296">
        <ele>207.88545</ele>
        <time>2022-09-30T14:05:46.000Z</time>
      </trkpt>
      <trkpt lat="45.85615" lon="4.713">
        <ele>208.37016</ele>
        <time>2022-09-30T14:05:47.000Z</time>
      </trkpt>
      <trkpt lat="45.85614" lon="4.71304">
        <ele>208.81538</ele>
        <time>2022-09-30T14:05:48.000Z</time>
      </trkpt>
      <trkpt lat="45.85613" lon="4.71309">
        <ele>209.24625</ele>
        <time>2022-09-30T14:05:49.000Z</time>
      </trkpt>
      <trkpt lat="45.8561" lon="4.71313">
        <ele>209.69795</ele>
        <time>2022-09-30T14:05:50.000Z</time>
      </trkpt>
      <trkpt lat="45.85606" lon="4.71317">
        <ele>210.14795</ele>
        <time>2022-09-30T14:05:51.000Z</time>
      </trkpt>
      <trkpt lat="45.85603" lon="4.71321">
        <ele>210.57126</ele>
        <time>2022-09-30T14:05:52.000Z</time>
      </trkpt>
      <trkpt lat="45.85599" lon="4.71324">
        <ele>211.00264</ele>
        <time>2022-09-30T14:05:53.000Z</time>
      </trkpt>
      <trkpt lat="45.85595" lon="4.71328">
        <ele>211.45012</ele>
        <time>2022-09-30T14:05:54.000Z</time>
      </trkpt>
      <trkpt lat="45.85591" lon="4.71331">
        <ele>211.83928</ele>
        <time>2022-09-30T14:05:55.000Z</time>
      </trkpt>
      <trkpt lat="45.85586" lon="4.71334">
        <ele>212.21587</ele>
        <time>2022-09-30T14:05:56.000Z</time>
      </trkpt>
      <trkpt lat="45.85582" lon="4.71335">
        <ele>212.76669</ele>
        <time>2022-09-30T14:05:57.000Z</time>
      </trkpt>
      <trkpt lat="45.85577" lon="4.71337">
        <ele>213.28598</ele>
        <time>2022-09-30T14:05:58.000Z</time>
      </trkpt>
      <trkpt lat="45.85573" lon="4.71339">
        <ele>213.69669</ele>
        <time>2022-09-30T14:05:59.000Z</time>
      </trkpt>
      <trkpt lat="45.85569" lon="4.71341">
        <ele>213.99792</ele>
        <time>2022-09-30T14:06:00.000Z</time>
      </trkpt>
      <trkpt lat="45.85564" lon="4.71342">
        <ele>214.26248</ele>
        <time>2022-09-30T14:06:01.000Z</time>
      </trkpt>
      <trkpt lat="45.8556" lon="4.71344">
        <ele>214.51218</ele>
        <time>2022-09-30T14:06:02.000Z</time>
      </trkpt>
      <trkpt lat="45.85556" lon="4.71345">
        <ele>214.75418</ele>
        <time>2022-09-30T14:06:03.000Z</time>
      </trkpt>
      <trkpt lat="45.85553" lon="4.71347">
        <ele>215.03903</ele>
        <time>2022-09-30T14:06:04.000Z</time>
      </trkpt>
      <trkpt lat="45.85548" lon="4.71348">
        <ele>215.31099</ele>
        <time>2022-09-30T14:06:05.000Z</time>
      </trkpt>
      <trkpt lat="45.85544" lon="4.71349">
        <ele>215.57292</ele>
        <time>2022-09-30T14:06:06.000Z</time>
      </trkpt>
      <trkpt lat="45.8554" lon="4.71349">
        <ele>215.8481</ele>
        <time>2022-09-30T14:06:07.000Z</time>
      </trkpt>
      <trkpt lat="45.85536" lon="4.7135">
        <ele>216.08382</ele>
        <time>2022-09-30T14:06:08.000Z</time>
      </trkpt>
      <trkpt lat="45.85532" lon="4.7135">
        <ele>216.34616</ele>
        <time>2022-09-30T14:06:09.000Z</time>
      </trkpt>
      <trkpt lat="45.85528" lon="4.71351">
        <ele>216.65398</ele>
        <time>2022-09-30T14:06:10.000Z</time>
      </trkpt>
      <trkpt lat="45.85524" lon="4.71352">
        <ele>216.98892</ele>
        <time>2022-09-30T14:06:11.000Z</time>
      </trkpt>
      <trkpt lat="45.8552" lon="4.71353">
        <ele>217.32581</ele>
        <time>2022-09-30T14:06:12.000Z</time>
      </trkpt>
      <trkpt lat="45.85517" lon="4.71354">
        <ele>217.65056</ele>
        <time>2022-09-30T14:06:13.000Z</time>
      </trkpt>
      <trkpt lat="45.85513" lon="4.71356">
        <ele>217.92009</ele>
        <time>2022-09-30T14:06:14.000Z</time>
      </trkpt>
      <trkpt lat="45.85509" lon="4.71357">
        <ele>218.26802</ele>
        <time>2022-09-30T14:06:15.000Z</time>
      </trkpt>
      <trkpt lat="45.85505" lon="4.71358">
        <ele>218.59457</ele>
        <time>2022-09-30T14:06:16.000Z</time>
      </trkpt>
      <trkpt lat="45.855" lon="4.71359">
        <ele>218.93143</ele>
        <time>2022-09-30T14:06:17.000Z</time>
      </trkpt>
      <trkpt lat="45.85496" lon="4.71359">
        <ele>219.29446</ele>
        <time>2022-09-30T14:06:18.000Z</time>
      </trkpt>
      <trkpt lat="45.85492" lon="4.7136">
        <ele>219.64771</ele>
        <time>2022-09-30T14:06:19.000Z</time>
      </trkpt>
      <trkpt lat="45.85488" lon="4.71361">
        <ele>220.07784</ele>
        <time>2022-09-30T14:06:20.000Z</time>
      </trkpt>
      <trkpt lat="45.85484" lon="4.71362">
        <ele>220.49458</ele>
        <time>2022-09-30T14:06:21.000Z</time>
      </trkpt>
      <trkpt lat="45.85481" lon="4.71363">
        <ele>220.8877</ele>
        <time>2022-09-30T14:06:22.000Z</time>
      </trkpt>
      <trkpt lat="45.85477" lon="4.71365">
        <ele>221.27597</ele>
        <time>2022-09-30T14:06:23.000Z</time>
      </trkpt>
      <trkpt lat="45.85473" lon="4.71366">
        <ele>221.66077</ele>
        <time>2022-09-30T14:06:24.000Z</time>
      </trkpt>
      <trkpt lat="45.8547" lon="4.71369">
        <ele>222.07559</ele>
        <time>2022-09-30T14:06:25.000Z</time>
      </trkpt>
      <trkpt lat="45.85466" lon="4.71372">
        <ele>222.56104</ele>
        <time>2022-09-30T14:06:26.000Z</time>
      </trkpt>
      <trkpt lat="45.85462" lon="4.71374">
        <ele>223.05513</ele>
        <time>2022-09-30T14:06:27.000Z</time>
      </trkpt>
      <trkpt lat="45.85459" lon="4.71377">
        <ele>223.57996</ele>
        <time>2022-09-30T14:06:28.000Z</time>
      </trkpt>
      <trkpt lat="45.85456" lon="4.71379">
        <ele>224.10129</ele>
        <time>2022-09-30T14:06:29.000Z</time>
      </trkpt>
      <trkpt lat="45.85452" lon="4.71381">
        <ele>224.6261</ele>
        <time>2022-09-30T14:06:30.000Z</time>
      </trkpt>
      <trkpt lat="45.85449" lon="4.71384">
        <ele>225.13571</ele>
        <time>2022-09-30T14:06:31.000Z</time>
      </trkpt>
      <trkpt lat="45.85445" lon="4.71387">
        <ele>225.6377</ele>
        <time>2022-09-30T14:06:32.000Z</time>
      </trkpt>
      <trkpt lat="45.85442" lon="4.7139">
        <ele>226.10422</ele>
        <time>2022-09-30T14:06:33.000Z</time>
      </trkpt>
      <trkpt lat="45.85439" lon="4.71392">
        <ele>226.59598</ele>
        <time>2022-09-30T14:06:34.000Z</time>
      </trkpt>
      <trkpt lat="45.85436" lon="4.71395">
        <ele>227.06998</ele>
        <time>2022-09-30T14:06:35.000Z</time>
      </trkpt>
      <trkpt lat="45.85432" lon="4.71399">
        <ele>227.55298</ele>
        <time>2022-09-30T14:06:36.000Z</time>
      </trkpt>
      <trkpt lat="45.85428" lon="4.71402">
        <ele>227.98697</ele>
        <time>2022-09-30T14:06:37.000Z</time>
      </trkpt>
      <trkpt lat="45.85424" lon="4.71405">
        <ele>228.42361</ele>
        <time>2022-09-30T14:06:38.000Z</time>
      </trkpt>
      <trkpt lat="45.85421" lon="4.71409">
        <ele>228.91663</ele>
        <time>2022-09-30T14:06:39.000Z</time>
      </trkpt>
      <trkpt lat="45.85417" lon="4.71412">
        <ele>229.33212</ele>
        <time>2022-09-30T14:06:40.000Z</time>
      </trkpt>
      <trkpt lat="45.85412" lon="4.71415">
        <ele>229.70537</ele>
        <time>2022-09-30T14:06:41.000Z</time>
      </trkpt>
      <trkpt lat="45.85409" lon="4.71418">
        <ele>230.07805</ele>
        <time>2022-09-30T14:06:42.000Z</time>
      </trkpt>
      <trkpt lat="45.85408" lon="4.7142">
        <ele>230.55945</ele>
        <time>2022-09-30T14:06:43.000Z</time>
      </trkpt>
      <trkpt lat="45.85405" lon="4.71421">
        <ele>231.09541</ele>
        <time>2022-09-30T14:06:44.000Z</time>
      </trkpt>
      <trkpt lat="45.85401" lon="4.71424">
        <ele>231.56638</ele>
        <time>2022-09-30T14:06:45.000Z</time>
      </trkpt>
      <trkpt lat="45.85398" lon="4.71427">
        <ele>231.98552</ele>
        <time>2022-09-30T14:06:46.000Z</time>
      </trkpt>
      <trkpt lat="45.85395" lon="4.71431">
        <ele>232.38931</ele>
        <time>2022-09-30T14:06:47.000Z</time>
      </trkpt>
      <trkpt lat="45.85391" lon="4.71436">
        <ele>232.82516</ele>
        <time>2022-09-30T14:06:49.000Z</time>
      </trkpt>
      <trkpt lat="45.85387" lon="4.7144">
        <ele>233.2144</ele>
        <time>2022-09-30T14:06:50.000Z</time>
      </trkpt>
      <trkpt lat="45.85385" lon="4.71442">
        <ele>233.58308</ele>
        <time>2022-09-30T14:06:51.000Z</time>
      </trkpt>
      <trkpt lat="45.85382" lon="4.71445">
        <ele>233.9523</ele>
        <time>2022-09-30T14:06:52.000Z</time>
      </trkpt>
      <trkpt lat="45.8538" lon="4.71447">
        <ele>234.37227</ele>
        <time>2022-09-30T14:06:53.000Z</time>
      </trkpt>
      <trkpt lat="45.85377" lon="4.71449">
        <ele>234.81026</ele>
        <time>2022-09-30T14:06:54.000Z</time>
      </trkpt>
      <trkpt lat="45.85374" lon="4.71452">
        <ele>235.21423</ele>
        <time>2022-09-30T14:06:55.000Z</time>
      </trkpt>
      <trkpt lat="45.8537" lon="4.71454">
        <ele>235.61015</ele>
        <time>2022-09-30T14:06:56.000Z</time>
      </trkpt>
      <trkpt lat="45.85367" lon="4.71456">
        <ele>235.95935</ele>
        <time>2022-09-30T14:06:57.000Z</time>
      </trkpt>
      <trkpt lat="45.85365" lon="4.71459">
        <ele>236.28555</ele>
        <time>2022-09-30T14:06:58.000Z</time>
      </trkpt>
      <trkpt lat="45.85361" lon="4.71462">
        <ele>236.53723</ele>
        <time>2022-09-30T14:06:59.000Z</time>
      </trkpt>
      <trkpt lat="45.85358" lon="4.71464">
        <ele>236.71777</ele>
        <time>2022-09-30T14:07:00.000Z</time>
      </trkpt>
      <trkpt lat="45.85354" lon="4.71467">
        <ele>236.92244</ele>
        <time>2022-09-30T14:07:01.000Z</time>
      </trkpt>
      <trkpt lat="45.85351" lon="4.71469">
        <ele>237.15996</ele>
        <time>2022-09-30T14:07:02.000Z</time>
      </trkpt>
      <trkpt lat="45.85347" lon="4.71472">
        <ele>237.37444</ele>
        <time>2022-09-30T14:07:03.000Z</time>
      </trkpt>
      <trkpt lat="45.85344" lon="4.71474">
        <ele>237.46269</ele>
        <time>2022-09-30T14:07:04.000Z</time>
      </trkpt>
      <trkpt lat="45.8534" lon="4.71477">
        <ele>237.45914</ele>
        <time>2022-09-30T14:07:05.000Z</time>
      </trkpt>
      <trkpt lat="45.85337" lon="4.7148">
        <ele>237.49564</ele>
        <time>2022-09-30T14:07:06.000Z</time>
      </trkpt>
      <trkpt lat="45.85334" lon="4.71483">
        <ele>237.54184</ele>
        <time>2022-09-30T14:07:07.000Z</time>
      </trkpt>
      <trkpt lat="45.8533" lon="4.71486">
        <ele>237.58972</ele>
        <time>2022-09-30T14:07:08.000Z</time>
      </trkpt>
      <trkpt lat="45.85327" lon="4.71489">
        <ele>237.53726</ele>
        <time>2022-09-30T14:07:09.000Z</time>
      </trkpt>
      <trkpt lat="45.85323" lon="4.71493">
        <ele>237.49609</ele>
        <time>2022-09-30T14:07:10.000Z</time>
      </trkpt>
      <trkpt lat="45.8532" lon="4.71496">
        <ele>237.51616</ele>
        <time>2022-09-30T14:07:11.000Z</time>
      </trkpt>
      <trkpt lat="45.85318" lon="4.71498">
        <ele>237.49368</ele>
        <time>2022-09-30T14:07:12.000Z</time>
      </trkpt>
      <trkpt lat="45.85314" lon="4.71501">
        <ele>237.36731</ele>
        <time>2022-09-30T14:07:13.000Z</time>
      </trkpt>
      <trkpt lat="45.85311" lon="4.71504">
        <ele>237.25888</ele>
        <time>2022-09-30T14:07:14.000Z</time>
      </trkpt>
      <trkpt lat="45.85308" lon="4.71511">
        <ele>237.14323</ele>
        <time>2022-09-30T14:07:15.000Z</time>
      </trkpt>
      <trkpt lat="45.85304" lon="4.71516">
        <ele>236.98941</ele>
        <time>2022-09-30T14:07:16.000Z</time>
      </trkpt>
      <trkpt lat="45.853" lon="4.71518">
        <ele>236.85327</ele>
        <time>2022-09-30T14:07:18.000Z</time>
      </trkpt>
      <trkpt lat="45.85296" lon="4.71521">
        <ele>236.59885</ele>
        <time>2022-09-30T14:07:19.000Z</time>
      </trkpt>
      <trkpt lat="45.85292" lon="4.71524">
        <ele>236.40776</ele>
        <time>2022-09-30T14:07:20.000Z</time>
      </trkpt>
      <trkpt lat="45.85288" lon="4.71529">
        <ele>236.24765</ele>
        <time>2022-09-30T14:07:21.000Z</time>
      </trkpt>
      <trkpt lat="45.85285" lon="4.71532">
        <ele>236.04654</ele>
        <time>2022-09-30T14:07:22.000Z</time>
      </trkpt>
      <trkpt lat="45.8528" lon="4.71536">
        <ele>235.75284</ele>
        <time>2022-09-30T14:07:23.000Z</time>
      </trkpt>
      <trkpt lat="45.85274" lon="4.7154">
        <ele>235.528</ele>
        <time>2022-09-30T14:07:24.000Z</time>
      </trkpt>
      <trkpt lat="45.8527" lon="4.71542">
        <ele>235.35625</ele>
        <time>2022-09-30T14:07:25.000Z</time>
      </trkpt>
      <trkpt lat="45.85266" lon="4.71545">
        <ele>235.1113</ele>
        <time>2022-09-30T14:07:26.000Z</time>
      </trkpt>
      <trkpt lat="45.85262" lon="4.71549">
        <ele>234.88737</ele>
        <time>2022-09-30T14:07:27.000Z</time>
      </trkpt>
      <trkpt lat="45.85257" lon="4.71551">
        <ele>234.6248</ele>
        <time>2022-09-30T14:07:28.000Z</time>
      </trkpt>
      <trkpt lat="45.85251" lon="4.71555">
        <ele>234.25742</ele>
        <time>2022-09-30T14:07:29.000Z</time>
      </trkpt>
      <trkpt lat="45.85246" lon="4.71557">
        <ele>233.92245</ele>
        <time>2022-09-30T14:07:30.000Z</time>
      </trkpt>
      <trkpt lat="45.85241" lon="4.7156">
        <ele>233.5656</ele>
        <time>2022-09-30T14:07:31.000Z</time>
      </trkpt>
      <trkpt lat="45.85236" lon="4.71563">
        <ele>233.06535</ele>
        <time>2022-09-30T14:07:32.000Z</time>
      </trkpt>
      <trkpt lat="45.85231" lon="4.71566">
        <ele>232.56458</ele>
        <time>2022-09-30T14:07:33.000Z</time>
      </trkpt>
      <trkpt lat="45.85226" lon="4.71568">
        <ele>232.11467</ele>
        <time>2022-09-30T14:07:34.000Z</time>
      </trkpt>
      <trkpt lat="45.85222" lon="4.71571">
        <ele>231.63081</ele>
        <time>2022-09-30T14:07:35.000Z</time>
      </trkpt>
      <trkpt lat="45.85217" lon="4.71573">
        <ele>231.20816</ele>
        <time>2022-09-30T14:07:36.000Z</time>
      </trkpt>
      <trkpt lat="45.85212" lon="4.71576">
        <ele>230.7894</ele>
        <time>2022-09-30T14:07:37.000Z</time>
      </trkpt>
      <trkpt lat="45.85206" lon="4.71578">
        <ele>230.38054</ele>
        <time>2022-09-30T14:07:38.000Z</time>
      </trkpt>
      <trkpt lat="45.85201" lon="4.7158">
        <ele>230.10771</ele>
        <time>2022-09-30T14:07:39.000Z</time>
      </trkpt>
      <trkpt lat="45.85196" lon="4.71582">
        <ele>229.81699</ele>
        <time>2022-09-30T14:07:40.000Z</time>
      </trkpt>
      <trkpt lat="45.8519" lon="4.71584">
        <ele>229.48906</ele>
        <time>2022-09-30T14:07:41.000Z</time>
      </trkpt>
      <trkpt lat="45.85184" lon="4.71586">
        <ele>229.19377</ele>
        <time>2022-09-30T14:07:42.000Z</time>
      </trkpt>
      <trkpt lat="45.85179" lon="4.71588">
        <ele>229.02383</ele>
        <time>2022-09-30T14:07:43.000Z</time>
      </trkpt>
      <trkpt lat="45.85174" lon="4.71591">
        <ele>228.77544</ele>
        <time>2022-09-30T14:07:44.000Z</time>
      </trkpt>
      <trkpt lat="45.85169" lon="4.71595">
        <ele>228.46317</ele>
        <time>2022-09-30T14:07:45.000Z</time>
      </trkpt>
      <trkpt lat="45.85162" lon="4.71597">
        <ele>227.9781</ele>
        <time>2022-09-30T14:07:46.000Z</time>
      </trkpt>
      <trkpt lat="45.85158" lon="4.71598">
        <ele>227.50667</ele>
        <time>2022-09-30T14:07:47.000Z</time>
      </trkpt>
      <trkpt lat="45.85153" lon="4.71599">
        <ele>227.13635</ele>
        <time>2022-09-30T14:07:48.000Z</time>
      </trkpt>
      <trkpt lat="45.85148" lon="4.71599">
        <ele>226.9761</ele>
        <time>2022-09-30T14:07:49.000Z</time>
      </trkpt>
      <trkpt lat="45.85142" lon="4.71599">
        <ele>226.91605</ele>
        <time>2022-09-30T14:07:50.000Z</time>
      </trkpt>
      <trkpt lat="45.85137" lon="4.71599">
        <ele>226.93083</ele>
        <time>2022-09-30T14:07:51.000Z</time>
      </trkpt>
      <trkpt lat="45.85131" lon="4.71599">
        <ele>226.93997</ele>
        <time>2022-09-30T14:07:52.000Z</time>
      </trkpt>
      <trkpt lat="45.85126" lon="4.71597">
        <ele>226.91898</ele>
        <time>2022-09-30T14:07:53.000Z</time>
      </trkpt>
      <trkpt lat="45.85119" lon="4.71597">
        <ele>226.82841</ele>
        <time>2022-09-30T14:07:54.000Z</time>
      </trkpt>
      <trkpt lat="45.85115" lon="4.716">
        <ele>226.72571</ele>
        <time>2022-09-30T14:07:55.000Z</time>
      </trkpt>
      <trkpt lat="45.8511" lon="4.71604">
        <ele>226.57324</ele>
        <time>2022-09-30T14:07:56.000Z</time>
      </trkpt>
      <trkpt lat="45.85106" lon="4.7161">
        <ele>226.3992</ele>
        <time>2022-09-30T14:07:57.000Z</time>
      </trkpt>
      <trkpt lat="45.85101" lon="4.71615">
        <ele>226.17102</ele>
        <time>2022-09-30T14:07:58.000Z</time>
      </trkpt>
      <trkpt lat="45.85096" lon="4.71618">
        <ele>225.88264</ele>
        <time>2022-09-30T14:07:59.000Z</time>
      </trkpt>
      <trkpt lat="45.85091" lon="4.71621">
        <ele>225.66911</ele>
        <time>2022-09-30T14:08:00.000Z</time>
      </trkpt>
      <trkpt lat="45.85086" lon="4.71626">
        <ele>225.48291</ele>
        <time>2022-09-30T14:08:01.000Z</time>
      </trkpt>
      <trkpt lat="45.85082" lon="4.7163">
        <ele>225.32376</ele>
        <time>2022-09-30T14:08:02.000Z</time>
      </trkpt>
      <trkpt lat="45.85079" lon="4.71634">
        <ele>225.13147</ele>
        <time>2022-09-30T14:08:03.000Z</time>
      </trkpt>
      <trkpt lat="45.85074" lon="4.71633">
        <ele>224.97311</ele>
        <time>2022-09-30T14:08:04.000Z</time>
      </trkpt>
      <trkpt lat="45.85069" lon="4.71636">
        <ele>224.86763</ele>
        <time>2022-09-30T14:08:05.000Z</time>
      </trkpt>
      <trkpt lat="45.85065" lon="4.71637">
        <ele>225.05704</ele>
        <time>2022-09-30T14:08:06.000Z</time>
      </trkpt>
      <trkpt lat="45.8506" lon="4.71638">
        <ele>225.21407</ele>
        <time>2022-09-30T14:08:07.000Z</time>
      </trkpt>
      <trkpt lat="45.85055" lon="4.71641">
        <ele>225.29636</ele>
        <time>2022-09-30T14:08:08.000Z</time>
      </trkpt>
      <trkpt lat="45.85051" lon="4.71642">
        <ele>225.29964</ele>
        <time>2022-09-30T14:08:09.000Z</time>
      </trkpt>
      <trkpt lat="45.85047" lon="4.71643">
        <ele>225.27219</ele>
        <time>2022-09-30T14:08:10.000Z</time>
      </trkpt>
      <trkpt lat="45.85043" lon="4.71645">
        <ele>225.22578</ele>
        <time>2022-09-30T14:08:11.000Z</time>
      </trkpt>
      <trkpt lat="45.85038" lon="4.71648">
        <ele>225.22253</ele>
        <time>2022-09-30T14:08:12.000Z</time>
      </trkpt>
      <trkpt lat="45.85034" lon="4.71652">
        <ele>225.20879</ele>
        <time>2022-09-30T14:08:13.000Z</time>
      </trkpt>
      <trkpt lat="45.85029" lon="4.71654">
        <ele>225.28642</ele>
        <time>2022-09-30T14:08:14.000Z</time>
      </trkpt>
      <trkpt lat="45.85025" lon="4.71657">
        <ele>225.4045</ele>
        <time>2022-09-30T14:08:15.000Z</time>
      </trkpt>
      <trkpt lat="45.8502" lon="4.71658">
        <ele>225.58386</ele>
        <time>2022-09-30T14:08:16.000Z</time>
      </trkpt>
      <trkpt lat="45.85015" lon="4.71661">
        <ele>225.75577</ele>
        <time>2022-09-30T14:08:17.000Z</time>
      </trkpt>
      <trkpt lat="45.85009" lon="4.71663">
        <ele>225.9915</ele>
        <time>2022-09-30T14:08:18.000Z</time>
      </trkpt>
      <trkpt lat="45.85005" lon="4.71666">
        <ele>226.35957</ele>
        <time>2022-09-30T14:08:19.000Z</time>
      </trkpt>
      <trkpt lat="45.85" lon="4.71668">
        <ele>226.70972</ele>
        <time>2022-09-30T14:08:20.000Z</time>
      </trkpt>
      <trkpt lat="45.84995" lon="4.7167">
        <ele>227.03696</ele>
        <time>2022-09-30T14:08:21.000Z</time>
      </trkpt>
      <trkpt lat="45.84989" lon="4.71672">
        <ele>227.35678</ele>
        <time>2022-09-30T14:08:22.000Z</time>
      </trkpt>
      <trkpt lat="45.84985" lon="4.71674">
        <ele>227.68889</ele>
        <time>2022-09-30T14:08:23.000Z</time>
      </trkpt>
      <trkpt lat="45.84979" lon="4.71676">
        <ele>228.02104</ele>
        <time>2022-09-30T14:08:24.000Z</time>
      </trkpt>
      <trkpt lat="45.84975" lon="4.71678">
        <ele>228.2775</ele>
        <time>2022-09-30T14:08:25.000Z</time>
      </trkpt>
      <trkpt lat="45.8497" lon="4.71679">
        <ele>228.53117</ele>
        <time>2022-09-30T14:08:26.000Z</time>
      </trkpt>
      <trkpt lat="45.84965" lon="4.7168">
        <ele>228.73921</ele>
        <time>2022-09-30T14:08:27.000Z</time>
      </trkpt>
      <trkpt lat="45.84961" lon="4.71678">
        <ele>228.97314</ele>
        <time>2022-09-30T14:08:28.000Z</time>
      </trkpt>
      <trkpt lat="45.84956" lon="4.71677">
        <ele>229.07124</ele>
        <time>2022-09-30T14:08:29.000Z</time>
      </trkpt>
      <trkpt lat="45.84951" lon="4.71677">
        <ele>229.13431</ele>
        <time>2022-09-30T14:08:30.000Z</time>
      </trkpt>
      <trkpt lat="45.84946" lon="4.7168">
        <ele>229.0081</ele>
        <time>2022-09-30T14:08:31.000Z</time>
      </trkpt>
      <trkpt lat="45.84942" lon="4.71679">
        <ele>228.99007</ele>
        <time>2022-09-30T14:08:32.000Z</time>
      </trkpt>
      <trkpt lat="45.84935" lon="4.71674">
        <ele>229.00801</ele>
        <time>2022-09-30T14:08:33.000Z</time>
      </trkpt>
      <trkpt lat="45.8493" lon="4.71672">
        <ele>229.01575</ele>
        <time>2022-09-30T14:08:34.000Z</time>
      </trkpt>
      <trkpt lat="45.84926" lon="4.71675">
        <ele>228.91281</ele>
        <time>2022-09-30T14:08:35.000Z</time>
      </trkpt>
      <trkpt lat="45.84921" lon="4.71672">
        <ele>228.77693</ele>
        <time>2022-09-30T14:08:36.000Z</time>
      </trkpt>
      <trkpt lat="45.84915" lon="4.71673">
        <ele>228.64368</ele>
        <time>2022-09-30T14:08:37.000Z</time>
      </trkpt>
      <trkpt lat="45.8491" lon="4.71674">
        <ele>228.53317</ele>
        <time>2022-09-30T14:08:38.000Z</time>
      </trkpt>
      <trkpt lat="45.84904" lon="4.71674">
        <ele>228.39392</ele>
        <time>2022-09-30T14:08:39.000Z</time>
      </trkpt>
      <trkpt lat="45.84899" lon="4.71674">
        <ele>228.19412</ele>
        <time>2022-09-30T14:08:40.000Z</time>
      </trkpt>
      <trkpt lat="45.84895" lon="4.71676">
        <ele>228.03223</ele>
        <time>2022-09-30T14:08:41.000Z</time>
      </trkpt>
      <trkpt lat="45.8489" lon="4.71678">
        <ele>227.8853</ele>
        <time>2022-09-30T14:08:42.000Z</time>
      </trkpt>
      <trkpt lat="45.84884" lon="4.7168">
        <ele>227.77519</ele>
        <time>2022-09-30T14:08:43.000Z</time>
      </trkpt>
      <trkpt lat="45.84879" lon="4.71681">
        <ele>227.68245</ele>
        <time>2022-09-30T14:08:44.000Z</time>
      </trkpt>
      <trkpt lat="45.84875" lon="4.71683">
        <ele>227.66911</ele>
        <time>2022-09-30T14:08:45.000Z</time>
      </trkpt>
      <trkpt lat="45.8487" lon="4.71686">
        <ele>227.62741</ele>
        <time>2022-09-30T14:08:46.000Z</time>
      </trkpt>
      <trkpt lat="45.84866" lon="4.71688">
        <ele>227.72417</ele>
        <time>2022-09-30T14:08:47.000Z</time>
      </trkpt>
      <trkpt lat="45.84861" lon="4.71692">
        <ele>227.81706</ele>
        <time>2022-09-30T14:08:48.000Z</time>
      </trkpt>
      <trkpt lat="45.84858" lon="4.71696">
        <ele>228.0126</ele>
        <time>2022-09-30T14:08:49.000Z</time>
      </trkpt>
      <trkpt lat="45.84851" lon="4.71699">
        <ele>228.17627</ele>
        <time>2022-09-30T14:08:50.000Z</time>
      </trkpt>
      <trkpt lat="45.84847" lon="4.71702">
        <ele>228.52551</ele>
        <time>2022-09-30T14:08:51.000Z</time>
      </trkpt>
      <trkpt lat="45.84842" lon="4.71704">
        <ele>228.84229</ele>
        <time>2022-09-30T14:08:52.000Z</time>
      </trkpt>
      <trkpt lat="45.84835" lon="4.71704">
        <ele>229.19211</ele>
        <time>2022-09-30T14:08:53.000Z</time>
      </trkpt>
      <trkpt lat="45.84831" lon="4.71711">
        <ele>229.44254</ele>
        <time>2022-09-30T14:08:54.000Z</time>
      </trkpt>
      <trkpt lat="45.84826" lon="4.71715">
        <ele>229.6691</ele>
        <time>2022-09-30T14:08:55.000Z</time>
      </trkpt>
      <trkpt lat="45.84822" lon="4.71719">
        <ele>229.86189</ele>
        <time>2022-09-30T14:08:56.000Z</time>
      </trkpt>
      <trkpt lat="45.84818" lon="4.7172">
        <ele>230.07742</ele>
        <time>2022-09-30T14:08:57.000Z</time>
      </trkpt>
      <trkpt lat="45.84813" lon="4.71723">
        <ele>230.2955</ele>
        <time>2022-09-30T14:08:58.000Z</time>
      </trkpt>
      <trkpt lat="45.8481" lon="4.71726">
        <ele>230.4949</ele>
        <time>2022-09-30T14:08:59.000Z</time>
      </trkpt>
      <trkpt lat="45.84805" lon="4.71729">
        <ele>230.78159</ele>
        <time>2022-09-30T14:09:00.000Z</time>
      </trkpt>
      <trkpt lat="45.84801" lon="4.7173">
        <ele>231.13876</ele>
        <time>2022-09-30T14:09:01.000Z</time>
      </trkpt>
      <trkpt lat="45.84795" lon="4.71734">
        <ele>231.4537</ele>
        <time>2022-09-30T14:09:02.000Z</time>
      </trkpt>
      <trkpt lat="45.84791" lon="4.71738">
        <ele>231.70244</ele>
        <time>2022-09-30T14:09:03.000Z</time>
      </trkpt>
      <trkpt lat="45.84785" lon="4.7174">
        <ele>231.87827</ele>
        <time>2022-09-30T14:09:04.000Z</time>
      </trkpt>
      <trkpt lat="45.84781" lon="4.71744">
        <ele>232.03784</ele>
        <time>2022-09-30T14:09:05.000Z</time>
      </trkpt>
      <trkpt lat="45.84776" lon="4.71748">
        <ele>232.2231</ele>
        <time>2022-09-30T14:09:06.000Z</time>
      </trkpt>
      <trkpt lat="45.8477" lon="4.71751">
        <ele>232.3591</ele>
        <time>2022-09-30T14:09:07.000Z</time>
      </trkpt>
      <trkpt lat="45.84764" lon="4.71755">
        <ele>232.45801</ele>
        <time>2022-09-30T14:09:08.000Z</time>
      </trkpt>
      <trkpt lat="45.84759" lon="4.71758">
        <ele>232.56001</ele>
        <time>2022-09-30T14:09:09.000Z</time>
      </trkpt>
      <trkpt lat="45.84753" lon="4.71759">
        <ele>232.72844</ele>
        <time>2022-09-30T14:09:10.000Z</time>
      </trkpt>
      <trkpt lat="45.84748" lon="4.71762">
        <ele>232.9174</ele>
        <time>2022-09-30T14:09:11.000Z</time>
      </trkpt>
      <trkpt lat="45.84743" lon="4.71766">
        <ele>233.07339</ele>
        <time>2022-09-30T14:09:12.000Z</time>
      </trkpt>
      <trkpt lat="45.84738" lon="4.71769">
        <ele>233.22937</ele>
        <time>2022-09-30T14:09:13.000Z</time>
      </trkpt>
      <trkpt lat="45.84734" lon="4.71774">
        <ele>233.45183</ele>
        <time>2022-09-30T14:09:14.000Z</time>
      </trkpt>
      <trkpt lat="45.84731" lon="4.71776">
        <ele>233.82918</ele>
        <time>2022-09-30T14:09:15.000Z</time>
      </trkpt>
      <trkpt lat="45.84726" lon="4.7178">
        <ele>234.1326</ele>
        <time>2022-09-30T14:09:16.000Z</time>
      </trkpt>
      <trkpt lat="45.84722" lon="4.71782">
        <ele>234.43533</ele>
        <time>2022-09-30T14:09:17.000Z</time>
      </trkpt>
      <trkpt lat="45.84717" lon="4.71784">
        <ele>234.68381</ele>
        <time>2022-09-30T14:09:18.000Z</time>
      </trkpt>
      <trkpt lat="45.84712" lon="4.71789">
        <ele>234.9342</ele>
        <time>2022-09-30T14:09:19.000Z</time>
      </trkpt>
      <trkpt lat="45.84707" lon="4.7179">
        <ele>235.10747</ele>
        <time>2022-09-30T14:09:20.000Z</time>
      </trkpt>
      <trkpt lat="45.84703" lon="4.71792">
        <ele>235.19795</ele>
        <time>2022-09-30T14:09:21.000Z</time>
      </trkpt>
      <trkpt lat="45.84697" lon="4.71796">
        <ele>235.27954</ele>
        <time>2022-09-30T14:09:22.000Z</time>
      </trkpt>
      <trkpt lat="45.84691" lon="4.71797">
        <ele>235.39307</ele>
        <time>2022-09-30T14:09:23.000Z</time>
      </trkpt>
      <trkpt lat="45.84686" lon="4.71797">
        <ele>235.57425</ele>
        <time>2022-09-30T14:09:24.000Z</time>
      </trkpt>
      <trkpt lat="45.84682" lon="4.71804">
        <ele>235.64139</ele>
        <time>2022-09-30T14:09:25.000Z</time>
      </trkpt>
      <trkpt lat="45.84677" lon="4.71806">
        <ele>235.69766</ele>
        <time>2022-09-30T14:09:26.000Z</time>
      </trkpt>
      <trkpt lat="45.84671" lon="4.71808">
        <ele>235.75066</ele>
        <time>2022-09-30T14:09:27.000Z</time>
      </trkpt>
      <trkpt lat="45.84667" lon="4.71813">
        <ele>235.79092</ele>
        <time>2022-09-30T14:09:28.000Z</time>
      </trkpt>
      <trkpt lat="45.84662" lon="4.71815">
        <ele>235.83923</ele>
        <time>2022-09-30T14:09:29.000Z</time>
      </trkpt>
      <trkpt lat="45.84657" lon="4.71819">
        <ele>235.95102</ele>
        <time>2022-09-30T14:09:30.000Z</time>
      </trkpt>
      <trkpt lat="45.84652" lon="4.7182">
        <ele>235.99797</ele>
        <time>2022-09-30T14:09:31.000Z</time>
      </trkpt>
      <trkpt lat="45.84647" lon="4.71822">
        <ele>235.9613</ele>
        <time>2022-09-30T14:09:32.000Z</time>
      </trkpt>
      <trkpt lat="45.84642" lon="4.71824">
        <ele>235.92268</ele>
        <time>2022-09-30T14:09:33.000Z</time>
      </trkpt>
      <trkpt lat="45.84636" lon="4.71826">
        <ele>235.91389</ele>
        <time>2022-09-30T14:09:34.000Z</time>
      </trkpt>
      <trkpt lat="45.84631" lon="4.71829">
        <ele>235.86441</ele>
        <time>2022-09-30T14:09:35.000Z</time>
      </trkpt>
      <trkpt lat="45.84626" lon="4.71831">
        <ele>235.89983</ele>
        <time>2022-09-30T14:09:36.000Z</time>
      </trkpt>
      <trkpt lat="45.84621" lon="4.71834">
        <ele>236.00374</ele>
        <time>2022-09-30T14:09:37.000Z</time>
      </trkpt>
      <trkpt lat="45.84617" lon="4.71836">
        <ele>236.07739</ele>
        <time>2022-09-30T14:09:38.000Z</time>
      </trkpt>
      <trkpt lat="45.84612" lon="4.71839">
        <ele>236.10507</ele>
        <time>2022-09-30T14:09:39.000Z</time>
      </trkpt>
      <trkpt lat="45.84607" lon="4.71842">
        <ele>236.12802</ele>
        <time>2022-09-30T14:09:40.000Z</time>
      </trkpt>
      <trkpt lat="45.84604" lon="4.71842">
        <ele>236.16158</ele>
        <time>2022-09-30T14:09:41.000Z</time>
      </trkpt>
      <trkpt lat="45.84598" lon="4.71846">
        <ele>236.26106</ele>
        <time>2022-09-30T14:09:42.000Z</time>
      </trkpt>
      <trkpt lat="45.84593" lon="4.71847">
        <ele>236.41061</ele>
        <time>2022-09-30T14:09:43.000Z</time>
      </trkpt>
      <trkpt lat="45.84588" lon="4.71849">
        <ele>236.49968</ele>
        <time>2022-09-30T14:09:44.000Z</time>
      </trkpt>
      <trkpt lat="45.84584" lon="4.71852">
        <ele>236.78433</ele>
        <time>2022-09-30T14:09:45.000Z</time>
      </trkpt>
      <trkpt lat="45.84579" lon="4.71855">
        <ele>237.09995</ele>
        <time>2022-09-30T14:09:46.000Z</time>
      </trkpt>
      <trkpt lat="45.84575" lon="4.71858">
        <ele>237.38809</ele>
        <time>2022-09-30T14:09:47.000Z</time>
      </trkpt>
      <trkpt lat="45.8457" lon="4.7186">
        <ele>237.72946</ele>
        <time>2022-09-30T14:09:48.000Z</time>
      </trkpt>
      <trkpt lat="45.84566" lon="4.7186">
        <ele>238.16154</ele>
        <time>2022-09-30T14:09:49.000Z</time>
      </trkpt>
      <trkpt lat="45.84562" lon="4.71866">
        <ele>238.39233</ele>
        <time>2022-09-30T14:09:50.000Z</time>
      </trkpt>
      <trkpt lat="45.84557" lon="4.71869">
        <ele>238.6479</ele>
        <time>2022-09-30T14:09:51.000Z</time>
      </trkpt>
      <trkpt lat="45.84552" lon="4.71871">
        <ele>238.96086</ele>
        <time>2022-09-30T14:09:52.000Z</time>
      </trkpt>
      <trkpt lat="45.84547" lon="4.71873">
        <ele>239.33322</ele>
        <time>2022-09-30T14:09:53.000Z</time>
      </trkpt>
      <trkpt lat="45.84543" lon="4.71876">
        <ele>239.78415</ele>
        <time>2022-09-30T14:09:54.000Z</time>
      </trkpt>
      <trkpt lat="45.84539" lon="4.71879">
        <ele>240.20285</ele>
        <time>2022-09-30T14:09:55.000Z</time>
      </trkpt>
      <trkpt lat="45.84535" lon="4.71882">
        <ele>240.66821</ele>
        <time>2022-09-30T14:09:56.000Z</time>
      </trkpt>
      <trkpt lat="45.8453" lon="4.71885">
        <ele>241.11072</ele>
        <time>2022-09-30T14:09:57.000Z</time>
      </trkpt>
      <trkpt lat="45.84525" lon="4.71889">
        <ele>241.57516</ele>
        <time>2022-09-30T14:09:58.000Z</time>
      </trkpt>
      <trkpt lat="45.84521" lon="4.71892">
        <ele>242.04317</ele>
        <time>2022-09-30T14:09:59.000Z</time>
      </trkpt>
      <trkpt lat="45.84517" lon="4.71896">
        <ele>242.55949</ele>
        <time>2022-09-30T14:10:00.000Z</time>
      </trkpt>
      <trkpt lat="45.84513" lon="4.719">
        <ele>243.0701</ele>
        <time>2022-09-30T14:10:01.000Z</time>
      </trkpt>
      <trkpt lat="45.84509" lon="4.71903">
        <ele>243.53586</ele>
        <time>2022-09-30T14:10:02.000Z</time>
      </trkpt>
      <trkpt lat="45.84505" lon="4.71908">
        <ele>243.95735</ele>
        <time>2022-09-30T14:10:03.000Z</time>
      </trkpt>
      <trkpt lat="45.84501" lon="4.71912">
        <ele>244.41316</ele>
        <time>2022-09-30T14:10:04.000Z</time>
      </trkpt>
      <trkpt lat="45.84497" lon="4.71917">
        <ele>244.79683</ele>
        <time>2022-09-30T14:10:05.000Z</time>
      </trkpt>
      <trkpt lat="45.84492" lon="4.71919">
        <ele>245.10429</ele>
        <time>2022-09-30T14:10:06.000Z</time>
      </trkpt>
      <trkpt lat="45.84488" lon="4.71923">
        <ele>245.4178</ele>
        <time>2022-09-30T14:10:07.000Z</time>
      </trkpt>
      <trkpt lat="45.84484" lon="4.71926">
        <ele>245.75266</ele>
        <time>2022-09-30T14:10:08.000Z</time>
      </trkpt>
      <trkpt lat="45.84479" lon="4.71928">
        <ele>245.96957</ele>
        <time>2022-09-30T14:10:09.000Z</time>
      </trkpt>
      <trkpt lat="45.84475" lon="4.7193">
        <ele>246.2762</ele>
        <time>2022-09-30T14:10:10.000Z</time>
      </trkpt>
      <trkpt lat="45.84469" lon="4.71933">
        <ele>246.57671</ele>
        <time>2022-09-30T14:10:11.000Z</time>
      </trkpt>
      <trkpt lat="45.84464" lon="4.71935">
        <ele>246.81934</ele>
        <time>2022-09-30T14:10:12.000Z</time>
      </trkpt>
      <trkpt lat="45.84459" lon="4.71937">
        <ele>246.98128</ele>
        <time>2022-09-30T14:10:13.000Z</time>
      </trkpt>
      <trkpt lat="45.84455" lon="4.71939">
        <ele>247.08081</ele>
        <time>2022-09-30T14:10:14.000Z</time>
      </trkpt>
      <trkpt lat="45.8445" lon="4.71942">
        <ele>247.24414</ele>
        <time>2022-09-30T14:10:15.000Z</time>
      </trkpt>
      <trkpt lat="45.84445" lon="4.71944">
        <ele>247.39981</ele>
        <time>2022-09-30T14:10:16.000Z</time>
      </trkpt>
      <trkpt lat="45.84441" lon="4.71945">
        <ele>247.58696</ele>
        <time>2022-09-30T14:10:17.000Z</time>
      </trkpt>
      <trkpt lat="45.84435" lon="4.71946">
        <ele>247.77072</ele>
        <time>2022-09-30T14:10:18.000Z</time>
      </trkpt>
      <trkpt lat="45.8443" lon="4.71947">
        <ele>248.00887</ele>
        <time>2022-09-30T14:10:19.000Z</time>
      </trkpt>
      <trkpt lat="45.84425" lon="4.71951">
        <ele>248.19455</ele>
        <time>2022-09-30T14:10:20.000Z</time>
      </trkpt>
      <trkpt lat="45.84421" lon="4.71953">
        <ele>248.39075</ele>
        <time>2022-09-30T14:10:21.000Z</time>
      </trkpt>
      <trkpt lat="45.84416" lon="4.71954">
        <ele>248.59583</ele>
        <time>2022-09-30T14:10:22.000Z</time>
      </trkpt>
      <trkpt lat="45.84411" lon="4.71955">
        <ele>248.81631</ele>
        <time>2022-09-30T14:10:23.000Z</time>
      </trkpt>
      <trkpt lat="45.84405" lon="4.71957">
        <ele>249.03528</ele>
        <time>2022-09-30T14:10:24.000Z</time>
      </trkpt>
      <trkpt lat="45.844" lon="4.71959">
        <ele>249.22595</ele>
        <time>2022-09-30T14:10:25.000Z</time>
      </trkpt>
      <trkpt lat="45.84396" lon="4.71961">
        <ele>249.51692</ele>
        <time>2022-09-30T14:10:26.000Z</time>
      </trkpt>
      <trkpt lat="45.84391" lon="4.71964">
        <ele>249.87427</ele>
        <time>2022-09-30T14:10:27.000Z</time>
      </trkpt>
      <trkpt lat="45.84386" lon="4.71966">
        <ele>250.18294</ele>
        <time>2022-09-30T14:10:28.000Z</time>
      </trkpt>
      <trkpt lat="45.84379" lon="4.71966">
        <ele>250.48882</ele>
        <time>2022-09-30T14:10:29.000Z</time>
      </trkpt>
      <trkpt lat="45.84374" lon="4.71967">
        <ele>250.78618</ele>
        <time>2022-09-30T14:10:30.000Z</time>
      </trkpt>
      <trkpt lat="45.84369" lon="4.71969">
        <ele>251.08952</ele>
        <time>2022-09-30T14:10:31.000Z</time>
      </trkpt>
      <trkpt lat="45.84363" lon="4.71968">
        <ele>251.47063</ele>
        <time>2022-09-30T14:10:32.000Z</time>
      </trkpt>
      <trkpt lat="45.84358" lon="4.71967">
        <ele>251.87654</ele>
        <time>2022-09-30T14:10:33.000Z</time>
      </trkpt>
      <trkpt lat="45.84354" lon="4.71966">
        <ele>252.30315</ele>
        <time>2022-09-30T14:10:34.000Z</time>
      </trkpt>
      <trkpt lat="45.8435" lon="4.7197">
        <ele>252.81003</ele>
        <time>2022-09-30T14:10:35.000Z</time>
      </trkpt>
      <trkpt lat="45.84345" lon="4.71969">
        <ele>253.33212</ele>
        <time>2022-09-30T14:10:36.000Z</time>
      </trkpt>
      <trkpt lat="45.8434" lon="4.7197">
        <ele>253.84526</ele>
        <time>2022-09-30T14:10:37.000Z</time>
      </trkpt>
      <trkpt lat="45.84335" lon="4.71972">
        <ele>254.40092</ele>
        <time>2022-09-30T14:10:38.000Z</time>
      </trkpt>
      <trkpt lat="45.8433" lon="4.71974">
        <ele>255.02979</ele>
        <time>2022-09-30T14:10:39.000Z</time>
      </trkpt>
      <trkpt lat="45.84326" lon="4.71977">
        <ele>255.69131</ele>
        <time>2022-09-30T14:10:40.000Z</time>
      </trkpt>
      <trkpt lat="45.84321" lon="4.7198">
        <ele>256.27972</ele>
        <time>2022-09-30T14:10:41.000Z</time>
      </trkpt>
      <trkpt lat="45.84317" lon="4.71982">
        <ele>256.85175</ele>
        <time>2022-09-30T14:10:42.000Z</time>
      </trkpt>
      <trkpt lat="45.84313" lon="4.71986">
        <ele>257.39227</ele>
        <time>2022-09-30T14:10:43.000Z</time>
      </trkpt>
      <trkpt lat="45.84309" lon="4.71988">
        <ele>257.89633</ele>
        <time>2022-09-30T14:10:44.000Z</time>
      </trkpt>
      <trkpt lat="45.84303" lon="4.71989">
        <ele>258.41519</ele>
        <time>2022-09-30T14:10:45.000Z</time>
      </trkpt>
      <trkpt lat="45.84298" lon="4.71992">
        <ele>258.83112</ele>
        <time>2022-09-30T14:10:46.000Z</time>
      </trkpt>
      <trkpt lat="45.84293" lon="4.71994">
        <ele>259.1167</ele>
        <time>2022-09-30T14:10:47.000Z</time>
      </trkpt>
      <trkpt lat="45.84288" lon="4.71997">
        <ele>259.36975</ele>
        <time>2022-09-30T14:10:48.000Z</time>
      </trkpt>
      <trkpt lat="45.84282" lon="4.71999">
        <ele>259.60712</ele>
        <time>2022-09-30T14:10:49.000Z</time>
      </trkpt>
      <trkpt lat="45.84278" lon="4.72001">
        <ele>259.86743</ele>
        <time>2022-09-30T14:10:50.000Z</time>
      </trkpt>
      <trkpt lat="45.84273" lon="4.72004">
        <ele>260.15555</ele>
        <time>2022-09-30T14:10:51.000Z</time>
      </trkpt>
      <trkpt lat="45.84269" lon="4.72006">
        <ele>260.45236</ele>
        <time>2022-09-30T14:10:52.000Z</time>
      </trkpt>
      <trkpt lat="45.84264" lon="4.72009">
        <ele>260.74796</ele>
        <time>2022-09-30T14:10:53.000Z</time>
      </trkpt>
      <trkpt lat="45.84259" lon="4.72011">
        <ele>261.0083</ele>
        <time>2022-09-30T14:10:54.000Z</time>
      </trkpt>
      <trkpt lat="45.84255" lon="4.72014">
        <ele>261.2012</ele>
        <time>2022-09-30T14:10:55.000Z</time>
      </trkpt>
      <trkpt lat="45.8425" lon="4.72016">
        <ele>261.31644</ele>
        <time>2022-09-30T14:10:56.000Z</time>
      </trkpt>
      <trkpt lat="45.84244" lon="4.72017">
        <ele>261.28769</ele>
        <time>2022-09-30T14:10:57.000Z</time>
      </trkpt>
      <trkpt lat="45.8424" lon="4.7202">
        <ele>261.30054</ele>
        <time>2022-09-30T14:10:58.000Z</time>
      </trkpt>
      <trkpt lat="45.84236" lon="4.72021">
        <ele>261.27432</ele>
        <time>2022-09-30T14:10:59.000Z</time>
      </trkpt>
      <trkpt lat="45.84233" lon="4.72022">
        <ele>261.2746</ele>
        <time>2022-09-30T14:11:00.000Z</time>
      </trkpt>
      <trkpt lat="45.84228" lon="4.72023">
        <ele>261.29523</ele>
        <time>2022-09-30T14:11:01.000Z</time>
      </trkpt>
      <trkpt lat="45.84224" lon="4.72025">
        <ele>261.32565</ele>
        <time>2022-09-30T14:11:02.000Z</time>
      </trkpt>
      <trkpt lat="45.8422" lon="4.72027">
        <ele>261.42279</ele>
        <time>2022-09-30T14:11:03.000Z</time>
      </trkpt>
      <trkpt lat="45.84218" lon="4.72031">
        <ele>261.55475</ele>
        <time>2022-09-30T14:11:04.000Z</time>
      </trkpt>
      <trkpt lat="45.84214" lon="4.72034">
        <ele>261.68149</ele>
        <time>2022-09-30T14:11:05.000Z</time>
      </trkpt>
      <trkpt lat="45.8421" lon="4.72036">
        <ele>261.88568</ele>
        <time>2022-09-30T14:11:06.000Z</time>
      </trkpt>
      <trkpt lat="45.84207" lon="4.7204">
        <ele>262.15228</ele>
        <time>2022-09-30T14:11:07.000Z</time>
      </trkpt>
      <trkpt lat="45.84205" lon="4.72046">
        <ele>262.34473</ele>
        <time>2022-09-30T14:11:08.000Z</time>
      </trkpt>
      <trkpt lat="45.84201" lon="4.7205">
        <ele>262.52283</ele>
        <time>2022-09-30T14:11:09.000Z</time>
      </trkpt>
      <trkpt lat="45.84197" lon="4.72054">
        <ele>262.69916</ele>
        <time>2022-09-30T14:11:10.000Z</time>
      </trkpt>
      <trkpt lat="45.84194" lon="4.72058">
        <ele>262.8129</ele>
        <time>2022-09-30T14:11:11.000Z</time>
      </trkpt>
      <trkpt lat="45.8419" lon="4.72061">
        <ele>262.9447</ele>
        <time>2022-09-30T14:11:12.000Z</time>
      </trkpt>
      <trkpt lat="45.84187" lon="4.72065">
        <ele>263.04022</ele>
        <time>2022-09-30T14:11:13.000Z</time>
      </trkpt>
      <trkpt lat="45.84184" lon="4.72071">
        <ele>263.11758</ele>
        <time>2022-09-30T14:11:14.000Z</time>
      </trkpt>
      <trkpt lat="45.8418" lon="4.72075">
        <ele>263.13046</ele>
        <time>2022-09-30T14:11:15.000Z</time>
      </trkpt>
      <trkpt lat="45.84176" lon="4.72078">
        <ele>263.20969</ele>
        <time>2022-09-30T14:11:16.000Z</time>
      </trkpt>
      <trkpt lat="45.84172" lon="4.72081">
        <ele>263.39612</ele>
        <time>2022-09-30T14:11:17.000Z</time>
      </trkpt>
      <trkpt lat="45.84168" lon="4.72085">
        <ele>263.53494</ele>
        <time>2022-09-30T14:11:18.000Z</time>
      </trkpt>
      <trkpt lat="45.84165" lon="4.72089">
        <ele>263.67401</ele>
        <time>2022-09-30T14:11:19.000Z</time>
      </trkpt>
      <trkpt lat="45.84162" lon="4.72094">
        <ele>263.78323</ele>
        <time>2022-09-30T14:11:20.000Z</time>
      </trkpt>
      <trkpt lat="45.84158" lon="4.72097">
        <ele>263.82971</ele>
        <time>2022-09-30T14:11:21.000Z</time>
      </trkpt>
      <trkpt lat="45.84153" lon="4.72101">
        <ele>263.90536</ele>
        <time>2022-09-30T14:11:22.000Z</time>
      </trkpt>
      <trkpt lat="45.8415" lon="4.72105">
        <ele>263.90277</ele>
        <time>2022-09-30T14:11:23.000Z</time>
      </trkpt>
      <trkpt lat="45.84146" lon="4.7211">
        <ele>263.88596</ele>
        <time>2022-09-30T14:11:24.000Z</time>
      </trkpt>
      <trkpt lat="45.84143" lon="4.72115">
        <ele>263.83594</ele>
        <time>2022-09-30T14:11:25.000Z</time>
      </trkpt>
      <trkpt lat="45.84139" lon="4.72118">
        <ele>263.75031</ele>
        <time>2022-09-30T14:11:26.000Z</time>
      </trkpt>
      <trkpt lat="45.84135" lon="4.72123">
        <ele>263.61093</ele>
        <time>2022-09-30T14:11:27.000Z</time>
      </trkpt>
      <trkpt lat="45.84131" lon="4.72125">
        <ele>263.61761</ele>
        <time>2022-09-30T14:11:28.000Z</time>
      </trkpt>
      <trkpt lat="45.84127" lon="4.72128">
        <ele>263.6882</ele>
        <time>2022-09-30T14:11:29.000Z</time>
      </trkpt>
      <trkpt lat="45.84123" lon="4.72131">
        <ele>263.76666</ele>
        <time>2022-09-30T14:11:30.000Z</time>
      </trkpt>
      <trkpt lat="45.84118" lon="4.72133">
        <ele>263.8941</ele>
        <time>2022-09-30T14:11:31.000Z</time>
      </trkpt>
      <trkpt lat="45.84113" lon="4.72135">
        <ele>263.90945</ele>
        <time>2022-09-30T14:11:32.000Z</time>
      </trkpt>
      <trkpt lat="45.84109" lon="4.72137">
        <ele>263.9346</ele>
        <time>2022-09-30T14:11:33.000Z</time>
      </trkpt>
      <trkpt lat="45.84104" lon="4.72138">
        <ele>264.00177</ele>
        <time>2022-09-30T14:11:34.000Z</time>
      </trkpt>
      <trkpt lat="45.84099" lon="4.72142">
        <ele>264.06055</ele>
        <time>2022-09-30T14:11:35.000Z</time>
      </trkpt>
      <trkpt lat="45.84094" lon="4.72146">
        <ele>264.06744</ele>
        <time>2022-09-30T14:11:36.000Z</time>
      </trkpt>
      <trkpt lat="45.8409" lon="4.72149">
        <ele>264.08588</ele>
        <time>2022-09-30T14:11:37.000Z</time>
      </trkpt>
      <trkpt lat="45.84085" lon="4.72151">
        <ele>264.12247</ele>
        <time>2022-09-30T14:11:38.000Z</time>
      </trkpt>
      <trkpt lat="45.8408" lon="4.72154">
        <ele>264.13461</ele>
        <time>2022-09-30T14:11:39.000Z</time>
      </trkpt>
      <trkpt lat="45.84075" lon="4.72156">
        <ele>264.15579</ele>
        <time>2022-09-30T14:11:40.000Z</time>
      </trkpt>
      <trkpt lat="45.8407" lon="4.7216">
        <ele>264.20691</ele>
        <time>2022-09-30T14:11:41.000Z</time>
      </trkpt>
      <trkpt lat="45.84066" lon="4.72164">
        <ele>264.20996</ele>
        <time>2022-09-30T14:11:42.000Z</time>
      </trkpt>
      <trkpt lat="45.84062" lon="4.72165">
        <ele>264.21835</ele>
        <time>2022-09-30T14:11:43.000Z</time>
      </trkpt>
      <trkpt lat="45.84058" lon="4.7217">
        <ele>264.12375</ele>
        <time>2022-09-30T14:11:44.000Z</time>
      </trkpt>
      <trkpt lat="45.84053" lon="4.72173">
        <ele>263.96512</ele>
        <time>2022-09-30T14:11:45.000Z</time>
      </trkpt>
      <trkpt lat="45.84047" lon="4.72173">
        <ele>263.82257</ele>
        <time>2022-09-30T14:11:46.000Z</time>
      </trkpt>
      <trkpt lat="45.84041" lon="4.72175">
        <ele>263.61777</ele>
        <time>2022-09-30T14:11:47.000Z</time>
      </trkpt>
      <trkpt lat="45.84035" lon="4.72175">
        <ele>263.41296</ele>
        <time>2022-09-30T14:11:48.000Z</time>
      </trkpt>
      <trkpt lat="45.84031" lon="4.72177">
        <ele>263.16068</ele>
        <time>2022-09-30T14:11:49.000Z</time>
      </trkpt>
      <trkpt lat="45.84025" lon="4.72176">
        <ele>262.87332</ele>
        <time>2022-09-30T14:11:50.000Z</time>
      </trkpt>
      <trkpt lat="45.84022" lon="4.72176">
        <ele>262.54764</ele>
        <time>2022-09-30T14:11:51.000Z</time>
      </trkpt>
      <trkpt lat="45.84022" lon="4.72169">
        <ele>262.25421</ele>
        <time>2022-09-30T14:11:53.000Z</time>
      </trkpt>
      <trkpt lat="45.84023" lon="4.72163">
        <ele>262.01874</ele>
        <time>2022-09-30T14:11:54.000Z</time>
      </trkpt>
      <trkpt lat="45.84024" lon="4.72154">
        <ele>261.79437</ele>
        <time>2022-09-30T14:11:55.000Z</time>
      </trkpt>
      <trkpt lat="45.84023" lon="4.72147">
        <ele>261.60211</ele>
        <time>2022-09-30T14:11:56.000Z</time>
      </trkpt>
      <trkpt lat="45.84024" lon="4.72141">
        <ele>261.49426</ele>
        <time>2022-09-30T14:11:57.000Z</time>
      </trkpt>
      <trkpt lat="45.84023" lon="4.72134">
        <ele>261.43411</ele>
        <time>2022-09-30T14:11:58.000Z</time>
      </trkpt>
      <trkpt lat="45.84023" lon="4.72125">
        <ele>261.32635</ele>
        <time>2022-09-30T14:11:59.000Z</time>
      </trkpt>
      <trkpt lat="45.84022" lon="4.72118">
        <ele>261.13718</ele>
        <time>2022-09-30T14:12:00.000Z</time>
      </trkpt>
      <trkpt lat="45.8402" lon="4.72108">
        <ele>260.97818</ele>
        <time>2022-09-30T14:12:01.000Z</time>
      </trkpt>
      <trkpt lat="45.84019" lon="4.721">
        <ele>260.81821</ele>
        <time>2022-09-30T14:12:02.000Z</time>
      </trkpt>
      <trkpt lat="45.84018" lon="4.72092">
        <ele>260.6832</ele>
        <time>2022-09-30T14:12:03.000Z</time>
      </trkpt>
      <trkpt lat="45.84016" lon="4.72086">
        <ele>260.52542</ele>
        <time>2022-09-30T14:12:04.000Z</time>
      </trkpt>
      <trkpt lat="45.84015" lon="4.72077">
        <ele>260.45816</ele>
        <time>2022-09-30T14:12:05.000Z</time>
      </trkpt>
      <trkpt lat="45.84014" lon="4.72069">
        <ele>260.51135</ele>
        <time>2022-09-30T14:12:06.000Z</time>
      </trkpt>
      <trkpt lat="45.84013" lon="4.7206">
        <ele>260.58777</ele>
        <time>2022-09-30T14:12:07.000Z</time>
      </trkpt>
      <trkpt lat="45.84012" lon="4.72052">
        <ele>260.75665</ele>
        <time>2022-09-30T14:12:08.000Z</time>
      </trkpt>
      <trkpt lat="45.84011" lon="4.72042">
        <ele>260.897</ele>
        <time>2022-09-30T14:12:09.000Z</time>
      </trkpt>
      <trkpt lat="45.84011" lon="4.72033">
        <ele>261.11761</ele>
        <time>2022-09-30T14:12:10.000Z</time>
      </trkpt>
      <trkpt lat="45.84009" lon="4.72025">
        <ele>261.35919</ele>
        <time>2022-09-30T14:12:11.000Z</time>
      </trkpt>
      <trkpt lat="45.84009" lon="4.72016">
        <ele>261.65353</ele>
        <time>2022-09-30T14:12:12.000Z</time>
      </trkpt>
      <trkpt lat="45.84008" lon="4.72008">
        <ele>262.02234</ele>
        <time>2022-09-30T14:12:13.000Z</time>
      </trkpt>
      <trkpt lat="45.84008" lon="4.71999">
        <ele>262.34955</ele>
        <time>2022-09-30T14:12:14.000Z</time>
      </trkpt>
      <trkpt lat="45.84008" lon="4.71991">
        <ele>262.65637</ele>
        <time>2022-09-30T14:12:15.000Z</time>
      </trkpt>
      <trkpt lat="45.84008" lon="4.71985">
        <ele>263.02423</ele>
        <time>2022-09-30T14:12:16.000Z</time>
      </trkpt>
      <trkpt lat="45.84007" lon="4.71976">
        <ele>263.34866</ele>
        <time>2022-09-30T14:12:17.000Z</time>
      </trkpt>
      <trkpt lat="45.84007" lon="4.71968">
        <ele>263.67673</ele>
        <time>2022-09-30T14:12:18.000Z</time>
      </trkpt>
      <trkpt lat="45.84007" lon="4.71962">
        <ele>264.09146</ele>
        <time>2022-09-30T14:12:19.000Z</time>
      </trkpt>
      <trkpt lat="45.84008" lon="4.71956">
        <ele>264.53687</ele>
        <time>2022-09-30T14:12:20.000Z</time>
      </trkpt>
      <trkpt lat="45.84009" lon="4.7195">
        <ele>264.98178</ele>
        <time>2022-09-30T14:12:21.000Z</time>
      </trkpt>
      <trkpt lat="45.8401" lon="4.71939">
        <ele>265.48074</ele>
        <time>2022-09-30T14:12:22.000Z</time>
      </trkpt>
      <trkpt lat="45.84009" lon="4.71931">
        <ele>266.00436</ele>
        <time>2022-09-30T14:12:23.000Z</time>
      </trkpt>
      <trkpt lat="45.84009" lon="4.71924">
        <ele>266.54974</ele>
        <time>2022-09-30T14:12:24.000Z</time>
      </trkpt>
      <trkpt lat="45.84008" lon="4.71917">
        <ele>267.15411</ele>
        <time>2022-09-30T14:12:25.000Z</time>
      </trkpt>
      <trkpt lat="45.84009" lon="4.71911">
        <ele>267.78278</ele>
        <time>2022-09-30T14:12:26.000Z</time>
      </trkpt>
      <trkpt lat="45.84009" lon="4.71905">
        <ele>268.38031</ele>
        <time>2022-09-30T14:12:27.000Z</time>
      </trkpt>
      <trkpt lat="45.8401" lon="4.71901">
        <ele>268.98941</ele>
        <time>2022-09-30T14:12:28.000Z</time>
      </trkpt>
      <trkpt lat="45.84009" lon="4.71897">
        <ele>269.62857</ele>
        <time>2022-09-30T14:12:29.000Z</time>
      </trkpt>
      <trkpt lat="45.84009" lon="4.71892">
        <ele>270.2121</ele>
        <time>2022-09-30T14:12:30.000Z</time>
      </trkpt>
      <trkpt lat="45.84007" lon="4.71887">
        <ele>270.75046</ele>
        <time>2022-09-30T14:12:31.000Z</time>
      </trkpt>
      <trkpt lat="45.84005" lon="4.71885">
        <ele>271.23947</ele>
        <time>2022-09-30T14:12:32.000Z</time>
      </trkpt>
      <trkpt lat="45.84002" lon="4.71882">
        <ele>271.64679</ele>
        <time>2022-09-30T14:12:33.000Z</time>
      </trkpt>
      <trkpt lat="45.83999" lon="4.71878">
        <ele>272.05493</ele>
        <time>2022-09-30T14:12:34.000Z</time>
      </trkpt>
      <trkpt lat="45.83997" lon="4.71877">
        <ele>272.46887</ele>
        <time>2022-09-30T14:12:35.000Z</time>
      </trkpt>
      <trkpt lat="45.83994" lon="4.71873">
        <ele>272.8548</ele>
        <time>2022-09-30T14:12:36.000Z</time>
      </trkpt>
      <trkpt lat="45.83991" lon="4.7187">
        <ele>273.15628</ele>
        <time>2022-09-30T14:12:37.000Z</time>
      </trkpt>
      <trkpt lat="45.83988" lon="4.71865">
        <ele>273.38089</ele>
        <time>2022-09-30T14:12:38.000Z</time>
      </trkpt>
      <trkpt lat="45.83984" lon="4.71861">
        <ele>273.58243</ele>
        <time>2022-09-30T14:12:39.000Z</time>
      </trkpt>
      <trkpt lat="45.83981" lon="4.71856">
        <ele>273.74112</ele>
        <time>2022-09-30T14:12:40.000Z</time>
      </trkpt>
      <trkpt lat="45.83977" lon="4.71852">
        <ele>273.85037</ele>
        <time>2022-09-30T14:12:41.000Z</time>
      </trkpt>
      <trkpt lat="45.83974" lon="4.71848">
        <ele>273.8576</ele>
        <time>2022-09-30T14:12:42.000Z</time>
      </trkpt>
      <trkpt lat="45.83972" lon="4.71844">
        <ele>273.83905</ele>
        <time>2022-09-30T14:12:43.000Z</time>
      </trkpt>
      <trkpt lat="45.83969" lon="4.71839">
        <ele>273.86188</ele>
        <time>2022-09-30T14:12:44.000Z</time>
      </trkpt>
      <trkpt lat="45.83966" lon="4.71834">
        <ele>273.80551</ele>
        <time>2022-09-30T14:12:45.000Z</time>
      </trkpt>
      <trkpt lat="45.83963" lon="4.71829">
        <ele>273.65469</ele>
        <time>2022-09-30T14:12:46.000Z</time>
      </trkpt>
      <trkpt lat="45.83959" lon="4.71823">
        <ele>273.49139</ele>
        <time>2022-09-30T14:12:47.000Z</time>
      </trkpt>
      <trkpt lat="45.83956" lon="4.71816">
        <ele>273.26834</ele>
        <time>2022-09-30T14:12:48.000Z</time>
      </trkpt>
      <trkpt lat="45.83953" lon="4.71808">
        <ele>272.99759</ele>
        <time>2022-09-30T14:12:49.000Z</time>
      </trkpt>
      <trkpt lat="45.83952" lon="4.71803">
        <ele>272.6398</ele>
        <time>2022-09-30T14:12:50.000Z</time>
      </trkpt>
      <trkpt lat="45.83951" lon="4.71797">
        <ele>272.32062</ele>
        <time>2022-09-30T14:12:51.000Z</time>
      </trkpt>
      <trkpt lat="45.83949" lon="4.71791">
        <ele>272.02884</ele>
        <time>2022-09-30T14:12:52.000Z</time>
      </trkpt>
      <trkpt lat="45.83947" lon="4.71785">
        <ele>271.77261</ele>
        <time>2022-09-30T14:12:53.000Z</time>
      </trkpt>
      <trkpt lat="45.83946" lon="4.71779">
        <ele>271.51535</ele>
        <time>2022-09-30T14:12:54.000Z</time>
      </trkpt>
      <trkpt lat="45.83942" lon="4.71774">
        <ele>271.21301</ele>
        <time>2022-09-30T14:12:55.000Z</time>
      </trkpt>
      <trkpt lat="45.8394" lon="4.71769">
        <ele>270.86578</ele>
        <time>2022-09-30T14:12:56.000Z</time>
      </trkpt>
      <trkpt lat="45.83937" lon="4.71764">
        <ele>270.54465</ele>
        <time>2022-09-30T14:12:57.000Z</time>
      </trkpt>
      <trkpt lat="45.83932" lon="4.7176">
        <ele>270.22177</ele>
        <time>2022-09-30T14:12:58.000Z</time>
      </trkpt>
      <trkpt lat="45.83929" lon="4.71758">
        <ele>269.89056</ele>
        <time>2022-09-30T14:12:59.000Z</time>
      </trkpt>
      <trkpt lat="45.83925" lon="4.71757">
        <ele>269.60013</ele>
        <time>2022-09-30T14:13:00.000Z</time>
      </trkpt>
      <trkpt lat="45.8392" lon="4.71755">
        <ele>269.2742</ele>
        <time>2022-09-30T14:13:01.000Z</time>
      </trkpt>
      <trkpt lat="45.83916" lon="4.71753">
        <ele>269.00858</ele>
        <time>2022-09-30T14:13:02.000Z</time>
      </trkpt>
      <trkpt lat="45.83911" lon="4.71751">
        <ele>268.71979</ele>
        <time>2022-09-30T14:13:03.000Z</time>
      </trkpt>
      <trkpt lat="45.83907" lon="4.71749">
        <ele>268.44855</ele>
        <time>2022-09-30T14:13:04.000Z</time>
      </trkpt>
      <trkpt lat="45.83904" lon="4.71747">
        <ele>268.15884</ele>
        <time>2022-09-30T14:13:05.000Z</time>
      </trkpt>
      <trkpt lat="45.839" lon="4.71744">
        <ele>267.93478</ele>
        <time>2022-09-30T14:13:06.000Z</time>
      </trkpt>
      <trkpt lat="45.83893" lon="4.71742">
        <ele>267.68439</ele>
        <time>2022-09-30T14:13:07.000Z</time>
      </trkpt>
      <trkpt lat="45.83887" lon="4.7174">
        <ele>267.4733</ele>
        <time>2022-09-30T14:13:08.000Z</time>
      </trkpt>
      <trkpt lat="45.83881" lon="4.71738">
        <ele>267.30853</ele>
        <time>2022-09-30T14:13:09.000Z</time>
      </trkpt>
      <trkpt lat="45.83873" lon="4.71734">
        <ele>267.19611</ele>
        <time>2022-09-30T14:13:10.000Z</time>
      </trkpt>
      <trkpt lat="45.83866" lon="4.71729">
        <ele>267.05661</ele>
        <time>2022-09-30T14:13:11.000Z</time>
      </trkpt>
      <trkpt lat="45.8386" lon="4.71727">
        <ele>266.97833</ele>
        <time>2022-09-30T14:13:12.000Z</time>
      </trkpt>
      <trkpt lat="45.83857" lon="4.71727">
        <ele>266.88211</ele>
        <time>2022-09-30T14:13:13.000Z</time>
      </trkpt>
      <trkpt lat="45.83849" lon="4.71724">
        <ele>266.73151</ele>
        <time>2022-09-30T14:13:14.000Z</time>
      </trkpt>
      <trkpt lat="45.83842" lon="4.71722">
        <ele>266.62061</ele>
        <time>2022-09-30T14:13:15.000Z</time>
      </trkpt>
      <trkpt lat="45.83836" lon="4.7172">
        <ele>266.51556</ele>
        <time>2022-09-30T14:13:16.000Z</time>
      </trkpt>
      <trkpt lat="45.83831" lon="4.71719">
        <ele>266.53412</ele>
        <time>2022-09-30T14:13:17.000Z</time>
      </trkpt>
      <trkpt lat="45.83826" lon="4.71718">
        <ele>266.54437</ele>
        <time>2022-09-30T14:13:18.000Z</time>
      </trkpt>
      <trkpt lat="45.83821" lon="4.71716">
        <ele>266.46368</ele>
        <time>2022-09-30T14:13:19.000Z</time>
      </trkpt>
      <trkpt lat="45.83816" lon="4.71715">
        <ele>266.34088</ele>
        <time>2022-09-30T14:13:20.000Z</time>
      </trkpt>
      <trkpt lat="45.8381" lon="4.71714">
        <ele>266.17969</ele>
        <time>2022-09-30T14:13:21.000Z</time>
      </trkpt>
      <trkpt lat="45.83806" lon="4.71713">
        <ele>265.98752</ele>
        <time>2022-09-30T14:13:22.000Z</time>
      </trkpt>
      <trkpt lat="45.838" lon="4.71714">
        <ele>265.73151</ele>
        <time>2022-09-30T14:13:23.000Z</time>
      </trkpt>
      <trkpt lat="45.83796" lon="4.71712">
        <ele>265.43124</ele>
        <time>2022-09-30T14:13:24.000Z</time>
      </trkpt>
      <trkpt lat="45.83789" lon="4.71707">
        <ele>265.1767</ele>
        <time>2022-09-30T14:13:25.000Z</time>
      </trkpt>
      <trkpt lat="45.83781" lon="4.71709">
        <ele>264.82263</ele>
        <time>2022-09-30T14:13:26.000Z</time>
      </trkpt>
      <trkpt lat="45.83775" lon="4.71709">
        <ele>264.40118</ele>
        <time>2022-09-30T14:13:27.000Z</time>
      </trkpt>
      <trkpt lat="45.83771" lon="4.71709">
        <ele>263.92822</ele>
        <time>2022-09-30T14:13:28.000Z</time>
      </trkpt>
      <trkpt lat="45.83764" lon="4.71708">
        <ele>263.39081</ele>
        <time>2022-09-30T14:13:29.000Z</time>
      </trkpt>
      <trkpt lat="45.8376" lon="4.7171">
        <ele>262.77655</ele>
        <time>2022-09-30T14:13:30.000Z</time>
      </trkpt>
      <trkpt lat="45.83755" lon="4.7171">
        <ele>262.04333</ele>
        <time>2022-09-30T14:13:31.000Z</time>
      </trkpt>
      <trkpt lat="45.83748" lon="4.71708">
        <ele>261.15915</ele>
        <time>2022-09-30T14:13:32.000Z</time>
      </trkpt>
      <trkpt lat="45.83738" lon="4.71704">
        <ele>260.26752</ele>
        <time>2022-09-30T14:13:34.000Z</time>
      </trkpt>
      <trkpt lat="45.83733" lon="4.71704">
        <ele>259.41202</ele>
        <time>2022-09-30T14:13:35.000Z</time>
      </trkpt>
      <trkpt lat="45.83732" lon="4.71702">
        <ele>258.53735</ele>
        <time>2022-09-30T14:13:36.000Z</time>
      </trkpt>
      <trkpt lat="45.83729" lon="4.71702">
        <ele>257.74176</ele>
        <time>2022-09-30T14:13:37.000Z</time>
      </trkpt>
      <trkpt lat="45.83726" lon="4.71701">
        <ele>256.85184</ele>
        <time>2022-09-30T14:13:38.000Z</time>
      </trkpt>
      <trkpt lat="45.83724" lon="4.71699">
        <ele>256.01804</ele>
        <time>2022-09-30T14:13:39.000Z</time>
      </trkpt>
      <trkpt lat="45.83725" lon="4.71702">
        <ele>255.1877</ele>
        <time>2022-09-30T14:13:43.000Z</time>
      </trkpt>
      <trkpt lat="45.83729" lon="4.717">
        <ele>254.6969</ele>
        <time>2022-09-30T14:14:24.000Z</time>
      </trkpt>
      <trkpt lat="45.8373" lon="4.71705">
        <ele>254.20776</ele>
        <time>2022-09-30T14:14:30.000Z</time>
      </trkpt>
      <trkpt lat="45.83728" lon="4.71705">
        <ele>253.6532</ele>
        <time>2022-09-30T14:14:31.000Z</time>
      </trkpt>
      <trkpt lat="45.83725" lon="4.71707">
        <ele>253.15178</ele>
        <time>2022-09-30T14:14:32.000Z</time>
      </trkpt>
      <trkpt lat="45.83723" lon="4.71709">
        <ele>252.66769</ele>
        <time>2022-09-30T14:14:33.000Z</time>
      </trkpt>
      <trkpt lat="45.8372" lon="4.71713">
        <ele>252.18216</ele>
        <time>2022-09-30T14:14:34.000Z</time>
      </trkpt>
      <trkpt lat="45.83717" lon="4.71716">
        <ele>251.75586</ele>
        <time>2022-09-30T14:14:35.000Z</time>
      </trkpt>
      <trkpt lat="45.83714" lon="4.7172">
        <ele>251.4191</ele>
        <time>2022-09-30T14:14:36.000Z</time>
      </trkpt>
      <trkpt lat="45.83712" lon="4.71723">
        <ele>251.17215</ele>
        <time>2022-09-30T14:14:37.000Z</time>
      </trkpt>
      <trkpt lat="45.83709" lon="4.71728">
        <ele>250.90918</ele>
        <time>2022-09-30T14:14:38.000Z</time>
      </trkpt>
      <trkpt lat="45.83707" lon="4.71732">
        <ele>250.78299</ele>
        <time>2022-09-30T14:14:39.000Z</time>
      </trkpt>
      <trkpt lat="45.83704" lon="4.71735">
        <ele>250.82498</ele>
        <time>2022-09-30T14:14:40.000Z</time>
      </trkpt>
      <trkpt lat="45.83702" lon="4.71739">
        <ele>250.92844</ele>
        <time>2022-09-30T14:14:41.000Z</time>
      </trkpt>
      <trkpt lat="45.83698" lon="4.71742">
        <ele>251.1105</ele>
        <time>2022-09-30T14:14:42.000Z</time>
      </trkpt>
      <trkpt lat="45.83696" lon="4.71745">
        <ele>251.35527</ele>
        <time>2022-09-30T14:14:43.000Z</time>
      </trkpt>
      <trkpt lat="45.83693" lon="4.71748">
        <ele>251.61722</ele>
        <time>2022-09-30T14:14:44.000Z</time>
      </trkpt>
      <trkpt lat="45.8369" lon="4.71751">
        <ele>251.81596</ele>
        <time>2022-09-30T14:14:45.000Z</time>
      </trkpt>
      <trkpt lat="45.83687" lon="4.71754">
        <ele>251.92972</ele>
        <time>2022-09-30T14:14:46.000Z</time>
      </trkpt>
      <trkpt lat="45.83684" lon="4.71757">
        <ele>252.08923</ele>
        <time>2022-09-30T14:14:47.000Z</time>
      </trkpt>
      <trkpt lat="45.83681" lon="4.71759">
        <ele>252.25932</ele>
        <time>2022-09-30T14:14:48.000Z</time>
      </trkpt>
      <trkpt lat="45.83677" lon="4.71762">
        <ele>252.1647</ele>
        <time>2022-09-30T14:14:49.000Z</time>
      </trkpt>
      <trkpt lat="45.83673" lon="4.71765">
        <ele>252.16052</ele>
        <time>2022-09-30T14:14:50.000Z</time>
      </trkpt>
      <trkpt lat="45.83669" lon="4.71767">
        <ele>252.31038</ele>
        <time>2022-09-30T14:14:51.000Z</time>
      </trkpt>
      <trkpt lat="45.83666" lon="4.7177">
        <ele>252.53642</ele>
        <time>2022-09-30T14:14:52.000Z</time>
      </trkpt>
      <trkpt lat="45.83664" lon="4.71772">
        <ele>252.82686</ele>
        <time>2022-09-30T14:14:53.000Z</time>
      </trkpt>
      <trkpt lat="45.83661" lon="4.71776">
        <ele>253.16516</ele>
        <time>2022-09-30T14:14:54.000Z</time>
      </trkpt>
      <trkpt lat="45.83659" lon="4.71779">
        <ele>253.505</ele>
        <time>2022-09-30T14:14:55.000Z</time>
      </trkpt>
      <trkpt lat="45.83657" lon="4.71784">
        <ele>253.79636</ele>
        <time>2022-09-30T14:14:56.000Z</time>
      </trkpt>
      <trkpt lat="45.83655" lon="4.71788">
        <ele>254.10141</ele>
        <time>2022-09-30T14:14:57.000Z</time>
      </trkpt>
      <trkpt lat="45.83653" lon="4.71792">
        <ele>254.51852</ele>
        <time>2022-09-30T14:14:58.000Z</time>
      </trkpt>
      <trkpt lat="45.8365" lon="4.71795">
        <ele>254.83176</ele>
        <time>2022-09-30T14:14:59.000Z</time>
      </trkpt>
      <trkpt lat="45.83647" lon="4.71799">
        <ele>255.0186</ele>
        <time>2022-09-30T14:15:00.000Z</time>
      </trkpt>
      <trkpt lat="45.83644" lon="4.71801">
        <ele>255.30826</ele>
        <time>2022-09-30T14:15:01.000Z</time>
      </trkpt>
      <trkpt lat="45.83641" lon="4.71802">
        <ele>255.5835</ele>
        <time>2022-09-30T14:15:02.000Z</time>
      </trkpt>
      <trkpt lat="45.83638" lon="4.71802">
        <ele>255.91434</ele>
        <time>2022-09-30T14:15:03.000Z</time>
      </trkpt>
      <trkpt lat="45.83635" lon="4.71802">
        <ele>256.28162</ele>
        <time>2022-09-30T14:15:04.000Z</time>
      </trkpt>
      <trkpt lat="45.83631" lon="4.71802">
        <ele>256.7243</ele>
        <time>2022-09-30T14:15:05.000Z</time>
      </trkpt>
      <trkpt lat="45.83627" lon="4.71802">
        <ele>257.33606</ele>
        <time>2022-09-30T14:15:06.000Z</time>
      </trkpt>
      <trkpt lat="45.83624" lon="4.71802">
        <ele>257.90604</ele>
        <time>2022-09-30T14:15:07.000Z</time>
      </trkpt>
      <trkpt lat="45.8362" lon="4.71801">
        <ele>258.60651</ele>
        <time>2022-09-30T14:15:08.000Z</time>
      </trkpt>
      <trkpt lat="45.83617" lon="4.718">
        <ele>259.25671</ele>
        <time>2022-09-30T14:15:09.000Z</time>
      </trkpt>
      <trkpt lat="45.83614" lon="4.71798">
        <ele>259.89172</ele>
        <time>2022-09-30T14:15:10.000Z</time>
      </trkpt>
      <trkpt lat="45.83611" lon="4.71797">
        <ele>260.59576</ele>
        <time>2022-09-30T14:15:11.000Z</time>
      </trkpt>
      <trkpt lat="45.83608" lon="4.71796">
        <ele>261.23419</ele>
        <time>2022-09-30T14:15:12.000Z</time>
      </trkpt>
      <trkpt lat="45.83605" lon="4.71795">
        <ele>261.88208</ele>
        <time>2022-09-30T14:15:14.000Z</time>
      </trkpt>
      <trkpt lat="45.83605" lon="4.71792">
        <ele>262.51398</ele>
        <time>2022-09-30T14:15:19.000Z</time>
      </trkpt>
      <trkpt lat="45.83603" lon="4.7179">
        <ele>263.1239</ele>
        <time>2022-09-30T14:15:35.000Z</time>
      </trkpt>
      <trkpt lat="45.83602" lon="4.71788">
        <ele>263.79343</ele>
        <time>2022-09-30T14:15:36.000Z</time>
      </trkpt>
      <trkpt lat="45.836" lon="4.71784">
        <ele>264.61737</ele>
        <time>2022-09-30T14:15:38.000Z</time>
      </trkpt>
      <trkpt lat="45.83598" lon="4.71781">
        <ele>265.47318</ele>
        <time>2022-09-30T14:15:39.000Z</time>
      </trkpt>
      <trkpt lat="45.83596" lon="4.71779">
        <ele>266.42624</ele>
        <time>2022-09-30T14:15:40.000Z</time>
      </trkpt>
      <trkpt lat="45.83594" lon="4.71776">
        <ele>267.51465</ele>
        <time>2022-09-30T14:15:41.000Z</time>
      </trkpt>
      <trkpt lat="45.83592" lon="4.71773">
        <ele>268.53134</ele>
        <time>2022-09-30T14:15:42.000Z</time>
      </trkpt>
      <trkpt lat="45.83589" lon="4.7177">
        <ele>269.50992</ele>
        <time>2022-09-30T14:15:43.000Z</time>
      </trkpt>
      <trkpt lat="45.83587" lon="4.71767">
        <ele>270.39594</ele>
        <time>2022-09-30T14:15:44.000Z</time>
      </trkpt>
      <trkpt lat="45.83584" lon="4.71764">
        <ele>271.18243</ele>
        <time>2022-09-30T14:15:45.000Z</time>
      </trkpt>
      <trkpt lat="45.83582" lon="4.71761">
        <ele>271.83084</ele>
        <time>2022-09-30T14:15:46.000Z</time>
      </trkpt>
      <trkpt lat="45.8358" lon="4.71757">
        <ele>272.3653</ele>
        <time>2022-09-30T14:15:47.000Z</time>
      </trkpt>
      <trkpt lat="45.83578" lon="4.71754">
        <ele>272.84106</ele>
        <time>2022-09-30T14:15:48.000Z</time>
      </trkpt>
      <trkpt lat="45.83577" lon="4.71751">
        <ele>273.21649</ele>
        <time>2022-09-30T14:15:49.000Z</time>
      </trkpt>
      <trkpt lat="45.83576" lon="4.71748">
        <ele>273.60739</ele>
        <time>2022-09-30T14:15:50.000Z</time>
      </trkpt>
      <trkpt lat="45.83574" lon="4.71745">
        <ele>274.06534</ele>
        <time>2022-09-30T14:15:51.000Z</time>
      </trkpt>
      <trkpt lat="45.83573" lon="4.71742">
        <ele>274.45044</ele>
        <time>2022-09-30T14:15:52.000Z</time>
      </trkpt>
      <trkpt lat="45.83571" lon="4.7174">
        <ele>274.86246</ele>
        <time>2022-09-30T14:15:53.000Z</time>
      </trkpt>
      <trkpt lat="45.83569" lon="4.71737">
        <ele>275.15714</ele>
        <time>2022-09-30T14:15:54.000Z</time>
      </trkpt>
      <trkpt lat="45.83566" lon="4.71734">
        <ele>275.43051</ele>
        <time>2022-09-30T14:15:55.000Z</time>
      </trkpt>
      <trkpt lat="45.83564" lon="4.71731">
        <ele>275.73309</ele>
        <time>2022-09-30T14:15:56.000Z</time>
      </trkpt>
      <trkpt lat="45.83561" lon="4.71728">
        <ele>276.02444</ele>
        <time>2022-09-30T14:15:57.000Z</time>
      </trkpt>
      <trkpt lat="45.83558" lon="4.71726">
        <ele>276.1496</ele>
        <time>2022-09-30T14:15:58.000Z</time>
      </trkpt>
      <trkpt lat="45.83554" lon="4.71724">
        <ele>276.17017</ele>
        <time>2022-09-30T14:15:59.000Z</time>
      </trkpt>
      <trkpt lat="45.83549" lon="4.71723">
        <ele>276.13855</ele>
        <time>2022-09-30T14:16:00.000Z</time>
      </trkpt>
      <trkpt lat="45.83545" lon="4.71722">
        <ele>276.08148</ele>
        <time>2022-09-30T14:16:01.000Z</time>
      </trkpt>
      <trkpt lat="45.83538" lon="4.71726">
        <ele>275.98364</ele>
        <time>2022-09-30T14:16:02.000Z</time>
      </trkpt>
      <trkpt lat="45.83532" lon="4.71727">
        <ele>275.87738</ele>
        <time>2022-09-30T14:16:03.000Z</time>
      </trkpt>
      <trkpt lat="45.83527" lon="4.71726">
        <ele>275.75739</ele>
        <time>2022-09-30T14:16:04.000Z</time>
      </trkpt>
      <trkpt lat="45.83523" lon="4.71727">
        <ele>275.67731</ele>
        <time>2022-09-30T14:16:05.000Z</time>
      </trkpt>
      <trkpt lat="45.8352" lon="4.71729">
        <ele>275.50888</ele>
        <time>2022-09-30T14:16:06.000Z</time>
      </trkpt>
      <trkpt lat="45.83516" lon="4.71729">
        <ele>275.42963</ele>
        <time>2022-09-30T14:16:08.000Z</time>
      </trkpt>
      <trkpt lat="45.83512" lon="4.71729">
        <ele>275.38803</ele>
        <time>2022-09-30T14:16:09.000Z</time>
      </trkpt>
      <trkpt lat="45.83509" lon="4.71731">
        <ele>275.26566</ele>
        <time>2022-09-30T14:16:10.000Z</time>
      </trkpt>
      <trkpt lat="45.83505" lon="4.71731">
        <ele>275.10544</ele>
        <time>2022-09-30T14:16:11.000Z</time>
      </trkpt>
      <trkpt lat="45.83502" lon="4.71731">
        <ele>274.81458</ele>
        <time>2022-09-30T14:16:12.000Z</time>
      </trkpt>
      <trkpt lat="45.83497" lon="4.71732">
        <ele>274.53177</ele>
        <time>2022-09-30T14:16:13.000Z</time>
      </trkpt>
      <trkpt lat="45.83494" lon="4.71732">
        <ele>274.18121</ele>
        <time>2022-09-30T14:16:14.000Z</time>
      </trkpt>
      <trkpt lat="45.8349" lon="4.71732">
        <ele>273.89069</ele>
        <time>2022-09-30T14:16:15.000Z</time>
      </trkpt>
      <trkpt lat="45.83487" lon="4.71732">
        <ele>273.63806</ele>
        <time>2022-09-30T14:16:16.000Z</time>
      </trkpt>
      <trkpt lat="45.83485" lon="4.71732">
        <ele>273.42767</ele>
        <time>2022-09-30T14:16:17.000Z</time>
      </trkpt>
      <trkpt lat="45.83483" lon="4.71732">
        <ele>273.18527</ele>
        <time>2022-09-30T14:16:18.000Z</time>
      </trkpt>
      <trkpt lat="45.83481" lon="4.71731">
        <ele>272.91748</ele>
        <time>2022-09-30T14:16:19.000Z</time>
      </trkpt>
      <trkpt lat="45.83478" lon="4.71731">
        <ele>272.68777</ele>
        <time>2022-09-30T14:16:21.000Z</time>
      </trkpt>
      <trkpt lat="45.83475" lon="4.71734">
        <ele>272.44745</ele>
        <time>2022-09-30T14:16:23.000Z</time>
      </trkpt>
      <trkpt lat="45.83474" lon="4.71737">
        <ele>272.20557</ele>
        <time>2022-09-30T14:16:24.000Z</time>
      </trkpt>
      <trkpt lat="45.83471" lon="4.71741">
        <ele>272.12122</ele>
        <time>2022-09-30T14:16:26.000Z</time>
      </trkpt>
      <trkpt lat="45.83469" lon="4.71742">
        <ele>272.1004</ele>
        <time>2022-09-30T14:16:27.000Z</time>
      </trkpt>
      <trkpt lat="45.83467" lon="4.71743">
        <ele>272.05908</ele>
        <time>2022-09-30T14:16:28.000Z</time>
      </trkpt>
      <trkpt lat="45.83463" lon="4.71744">
        <ele>271.97235</ele>
        <time>2022-09-30T14:16:29.000Z</time>
      </trkpt>
      <trkpt lat="45.83459" lon="4.71745">
        <ele>272.03009</ele>
        <time>2022-09-30T14:16:30.000Z</time>
      </trkpt>
      <trkpt lat="45.83457" lon="4.71745">
        <ele>271.99417</ele>
        <time>2022-09-30T14:16:31.000Z</time>
      </trkpt>
      <trkpt lat="45.83455" lon="4.71745">
        <ele>271.94794</ele>
        <time>2022-09-30T14:16:34.000Z</time>
      </trkpt>
      <trkpt lat="45.83453" lon="4.71743">
        <ele>272.11749</ele>
        <time>2022-09-30T14:16:39.000Z</time>
      </trkpt>
      <trkpt lat="45.83451" lon="4.71745">
        <ele>272.3476</ele>
        <time>2022-09-30T14:16:45.000Z</time>
      </trkpt>
      <trkpt lat="45.83452" lon="4.71742">
        <ele>272.51202</ele>
        <time>2022-09-30T14:18:45.000Z</time>
      </trkpt>
      <trkpt lat="45.8345" lon="4.71743">
        <ele>272.46933</ele>
        <time>2022-09-30T14:20:52.000Z</time>
      </trkpt>
      <trkpt lat="45.83448" lon="4.71743">
        <ele>272.43796</ele>
        <time>2022-09-30T14:20:53.000Z</time>
      </trkpt>
      <trkpt lat="45.83445" lon="4.71743">
        <ele>272.19351</ele>
        <time>2022-09-30T14:20:54.000Z</time>
      </trkpt>
      <trkpt lat="45.83443" lon="4.71742">
        <ele>271.91232</ele>
        <time>2022-09-30T14:20:55.000Z</time>
      </trkpt>
      <trkpt lat="45.83442" lon="4.71739">
        <ele>271.55066</ele>
        <time>2022-09-30T14:20:56.000Z</time>
      </trkpt>
      <trkpt lat="45.8344" lon="4.71736">
        <ele>271.29565</ele>
        <time>2022-09-30T14:20:57.000Z</time>
      </trkpt>
      <trkpt lat="45.83439" lon="4.71733">
        <ele>271.00983</ele>
        <time>2022-09-30T14:20:58.000Z</time>
      </trkpt>
      <trkpt lat="45.83437" lon="4.7173">
        <ele>270.66876</ele>
        <time>2022-09-30T14:20:59.000Z</time>
      </trkpt>
      <trkpt lat="45.83436" lon="4.71726">
        <ele>270.32718</ele>
        <time>2022-09-30T14:21:00.000Z</time>
      </trkpt>
      <trkpt lat="45.83434" lon="4.71721">
        <ele>269.97998</ele>
        <time>2022-09-30T14:21:01.000Z</time>
      </trkpt>
      <trkpt lat="45.83432" lon="4.71716">
        <ele>269.49121</ele>
        <time>2022-09-30T14:21:02.000Z</time>
      </trkpt>
      <trkpt lat="45.8343" lon="4.7171">
        <ele>268.97968</ele>
        <time>2022-09-30T14:21:03.000Z</time>
      </trkpt>
      <trkpt lat="45.83428" lon="4.71704">
        <ele>268.39673</ele>
        <time>2022-09-30T14:21:04.000Z</time>
      </trkpt>
      <trkpt lat="45.83427" lon="4.71698">
        <ele>267.91043</ele>
        <time>2022-09-30T14:21:05.000Z</time>
      </trkpt>
      <trkpt lat="45.83425" lon="4.71692">
        <ele>267.48785</ele>
        <time>2022-09-30T14:21:06.000Z</time>
      </trkpt>
      <trkpt lat="45.83424" lon="4.71687">
        <ele>267.13773</ele>
        <time>2022-09-30T14:21:07.000Z</time>
      </trkpt>
      <trkpt lat="45.83422" lon="4.71681">
        <ele>266.75073</ele>
        <time>2022-09-30T14:21:08.000Z</time>
      </trkpt>
      <trkpt lat="45.83421" lon="4.71676">
        <ele>266.25671</ele>
        <time>2022-09-30T14:21:09.000Z</time>
      </trkpt>
      <trkpt lat="45.8342" lon="4.71671">
        <ele>265.72003</ele>
        <time>2022-09-30T14:21:10.000Z</time>
      </trkpt>
      <trkpt lat="45.83418" lon="4.71666">
        <ele>265.34164</ele>
        <time>2022-09-30T14:21:11.000Z</time>
      </trkpt>
      <trkpt lat="45.83417" lon="4.71661">
        <ele>265.13556</ele>
        <time>2022-09-30T14:21:12.000Z</time>
      </trkpt>
      <trkpt lat="45.83416" lon="4.71655">
        <ele>264.98969</ele>
        <time>2022-09-30T14:21:13.000Z</time>
      </trkpt>
      <trkpt lat="45.83415" lon="4.71649">
        <ele>264.97842</ele>
        <time>2022-09-30T14:21:14.000Z</time>
      </trkpt>
      <trkpt lat="45.83414" lon="4.71643">
        <ele>264.9938</ele>
        <time>2022-09-30T14:21:15.000Z</time>
      </trkpt>
      <trkpt lat="45.83413" lon="4.71638">
        <ele>265.06628</ele>
        <time>2022-09-30T14:21:16.000Z</time>
      </trkpt>
      <trkpt lat="45.83412" lon="4.71633">
        <ele>265.08365</ele>
        <time>2022-09-30T14:21:17.000Z</time>
      </trkpt>
      <trkpt lat="45.83411" lon="4.71628">
        <ele>265.17484</ele>
        <time>2022-09-30T14:21:18.000Z</time>
      </trkpt>
      <trkpt lat="45.8341" lon="4.71622">
        <ele>265.31256</ele>
        <time>2022-09-30T14:21:19.000Z</time>
      </trkpt>
      <trkpt lat="45.83409" lon="4.71617">
        <ele>265.50604</ele>
        <time>2022-09-30T14:21:20.000Z</time>
      </trkpt>
      <trkpt lat="45.83408" lon="4.71611">
        <ele>265.74301</ele>
        <time>2022-09-30T14:21:21.000Z</time>
      </trkpt>
      <trkpt lat="45.83407" lon="4.71605">
        <ele>265.99655</ele>
        <time>2022-09-30T14:21:22.000Z</time>
      </trkpt>
      <trkpt lat="45.83406" lon="4.716">
        <ele>266.25897</ele>
        <time>2022-09-30T14:21:23.000Z</time>
      </trkpt>
      <trkpt lat="45.83405" lon="4.71595">
        <ele>266.5506</ele>
        <time>2022-09-30T14:21:24.000Z</time>
      </trkpt>
      <trkpt lat="45.83404" lon="4.7159">
        <ele>266.76312</ele>
        <time>2022-09-30T14:21:25.000Z</time>
      </trkpt>
      <trkpt lat="45.83402" lon="4.71585">
        <ele>266.99176</ele>
        <time>2022-09-30T14:21:26.000Z</time>
      </trkpt>
      <trkpt lat="45.83399" lon="4.71582">
        <ele>267.24371</ele>
        <time>2022-09-30T14:21:27.000Z</time>
      </trkpt>
      <trkpt lat="45.83396" lon="4.7158">
        <ele>267.49823</ele>
        <time>2022-09-30T14:21:28.000Z</time>
      </trkpt>
      <trkpt lat="45.83393" lon="4.71578">
        <ele>267.69733</ele>
        <time>2022-09-30T14:21:29.000Z</time>
      </trkpt>
      <trkpt lat="45.83389" lon="4.71578">
        <ele>267.89191</ele>
        <time>2022-09-30T14:21:30.000Z</time>
      </trkpt>
      <trkpt lat="45.83386" lon="4.71578">
        <ele>268.06976</ele>
        <time>2022-09-30T14:21:31.000Z</time>
      </trkpt>
      <trkpt lat="45.83382" lon="4.7158">
        <ele>268.28</ele>
        <time>2022-09-30T14:21:32.000Z</time>
      </trkpt>
      <trkpt lat="45.8338" lon="4.71582">
        <ele>268.51151</ele>
        <time>2022-09-30T14:21:33.000Z</time>
      </trkpt>
      <trkpt lat="45.83377" lon="4.71586">
        <ele>268.81555</ele>
        <time>2022-09-30T14:21:34.000Z</time>
      </trkpt>
      <trkpt lat="45.83375" lon="4.71591">
        <ele>269.02438</ele>
        <time>2022-09-30T14:21:35.000Z</time>
      </trkpt>
      <trkpt lat="45.83373" lon="4.71595">
        <ele>269.25998</ele>
        <time>2022-09-30T14:21:36.000Z</time>
      </trkpt>
      <trkpt lat="45.83371" lon="4.716">
        <ele>269.44568</ele>
        <time>2022-09-30T14:21:37.000Z</time>
      </trkpt>
      <trkpt lat="45.8337" lon="4.71605">
        <ele>269.5582</ele>
        <time>2022-09-30T14:21:38.000Z</time>
      </trkpt>
      <trkpt lat="45.83368" lon="4.71609">
        <ele>269.64081</ele>
        <time>2022-09-30T14:21:39.000Z</time>
      </trkpt>
      <trkpt lat="45.83367" lon="4.71613">
        <ele>269.6954</ele>
        <time>2022-09-30T14:21:40.000Z</time>
      </trkpt>
      <trkpt lat="45.83365" lon="4.71617">
        <ele>269.75925</ele>
        <time>2022-09-30T14:21:41.000Z</time>
      </trkpt>
      <trkpt lat="45.83364" lon="4.7162">
        <ele>269.80719</ele>
        <time>2022-09-30T14:21:42.000Z</time>
      </trkpt>
      <trkpt lat="45.83362" lon="4.71623">
        <ele>269.82513</ele>
        <time>2022-09-30T14:21:43.000Z</time>
      </trkpt>
      <trkpt lat="45.8336" lon="4.71624">
        <ele>269.92426</ele>
        <time>2022-09-30T14:21:44.000Z</time>
      </trkpt>
      <trkpt lat="45.83357" lon="4.71623">
        <ele>270.02374</ele>
        <time>2022-09-30T14:21:45.000Z</time>
      </trkpt>
      <trkpt lat="45.83356" lon="4.7162">
        <ele>270.01791</ele>
        <time>2022-09-30T14:21:46.000Z</time>
      </trkpt>
      <trkpt lat="45.83357" lon="4.71615">
        <ele>269.9519</ele>
        <time>2022-09-30T14:21:47.000Z</time>
      </trkpt>
      <trkpt lat="45.83359" lon="4.71609">
        <ele>269.9671</ele>
        <time>2022-09-30T14:21:48.000Z</time>
      </trkpt>
      <trkpt lat="45.83362" lon="4.71603">
        <ele>270.11151</ele>
        <time>2022-09-30T14:21:49.000Z</time>
      </trkpt>
      <trkpt lat="45.83364" lon="4.71598">
        <ele>270.31635</ele>
        <time>2022-09-30T14:21:50.000Z</time>
      </trkpt>
      <trkpt lat="45.83366" lon="4.71592">
        <ele>270.47122</ele>
        <time>2022-09-30T14:21:51.000Z</time>
      </trkpt>
      <trkpt lat="45.83368" lon="4.71586">
        <ele>270.62106</ele>
        <time>2022-09-30T14:21:52.000Z</time>
      </trkpt>
      <trkpt lat="45.8337" lon="4.7158">
        <ele>270.76053</ele>
        <time>2022-09-30T14:21:53.000Z</time>
      </trkpt>
      <trkpt lat="45.83372" lon="4.71575">
        <ele>270.88165</ele>
        <time>2022-09-30T14:21:54.000Z</time>
      </trkpt>
      <trkpt lat="45.83375" lon="4.7157">
        <ele>271.05341</ele>
        <time>2022-09-30T14:21:55.000Z</time>
      </trkpt>
      <trkpt lat="45.83379" lon="4.71565">
        <ele>271.17435</ele>
        <time>2022-09-30T14:21:56.000Z</time>
      </trkpt>
      <trkpt lat="45.83382" lon="4.71561">
        <ele>271.27725</ele>
        <time>2022-09-30T14:21:57.000Z</time>
      </trkpt>
      <trkpt lat="45.83386" lon="4.71558">
        <ele>271.41327</ele>
        <time>2022-09-30T14:21:58.000Z</time>
      </trkpt>
      <trkpt lat="45.8339" lon="4.71556">
        <ele>271.6384</ele>
        <time>2022-09-30T14:21:59.000Z</time>
      </trkpt>
      <trkpt lat="45.83394" lon="4.71555">
        <ele>271.93744</ele>
        <time>2022-09-30T14:22:00.000Z</time>
      </trkpt>
      <trkpt lat="45.83398" lon="4.71555">
        <ele>272.23941</ele>
        <time>2022-09-30T14:22:01.000Z</time>
      </trkpt>
      <trkpt lat="45.83403" lon="4.71557">
        <ele>272.54224</ele>
        <time>2022-09-30T14:22:02.000Z</time>
      </trkpt>
      <trkpt lat="45.83407" lon="4.7156">
        <ele>272.87195</ele>
        <time>2022-09-30T14:22:03.000Z</time>
      </trkpt>
      <trkpt lat="45.8341" lon="4.71564">
        <ele>273.19244</ele>
        <time>2022-09-30T14:22:04.000Z</time>
      </trkpt>
      <trkpt lat="45.83414" lon="4.71568">
        <ele>273.56528</ele>
        <time>2022-09-30T14:22:05.000Z</time>
      </trkpt>
      <trkpt lat="45.83417" lon="4.71573">
        <ele>273.95636</ele>
        <time>2022-09-30T14:22:06.000Z</time>
      </trkpt>
      <trkpt lat="45.83421" lon="4.71578">
        <ele>274.33856</ele>
        <time>2022-09-30T14:22:07.000Z</time>
      </trkpt>
      <trkpt lat="45.83424" lon="4.71582">
        <ele>274.71631</ele>
        <time>2022-09-30T14:22:08.000Z</time>
      </trkpt>
      <trkpt lat="45.83428" lon="4.71586">
        <ele>274.95914</ele>
        <time>2022-09-30T14:22:09.000Z</time>
      </trkpt>
      <trkpt lat="45.83431" lon="4.7159">
        <ele>275.09491</ele>
        <time>2022-09-30T14:22:10.000Z</time>
      </trkpt>
      <trkpt lat="45.83435" lon="4.71594">
        <ele>275.26324</ele>
        <time>2022-09-30T14:22:11.000Z</time>
      </trkpt>
      <trkpt lat="45.83439" lon="4.71597">
        <ele>275.51587</ele>
        <time>2022-09-30T14:22:12.000Z</time>
      </trkpt>
      <trkpt lat="45.83443" lon="4.716">
        <ele>275.80243</ele>
        <time>2022-09-30T14:22:13.000Z</time>
      </trkpt>
      <trkpt lat="45.83449" lon="4.71603">
        <ele>276.03784</ele>
        <time>2022-09-30T14:22:14.000Z</time>
      </trkpt>
      <trkpt lat="45.83454" lon="4.71603">
        <ele>276.32159</ele>
        <time>2022-09-30T14:22:15.000Z</time>
      </trkpt>
      <trkpt lat="45.83458" lon="4.71605">
        <ele>276.64496</ele>
        <time>2022-09-30T14:22:16.000Z</time>
      </trkpt>
      <trkpt lat="45.83464" lon="4.71605">
        <ele>276.98569</ele>
        <time>2022-09-30T14:22:17.000Z</time>
      </trkpt>
      <trkpt lat="45.83469" lon="4.71604">
        <ele>277.34924</ele>
        <time>2022-09-30T14:22:18.000Z</time>
      </trkpt>
      <trkpt lat="45.83474" lon="4.71602">
        <ele>277.61584</ele>
        <time>2022-09-30T14:22:19.000Z</time>
      </trkpt>
      <trkpt lat="45.83478" lon="4.71601">
        <ele>277.79846</ele>
        <time>2022-09-30T14:22:20.000Z</time>
      </trkpt>
      <trkpt lat="45.83483" lon="4.71598">
        <ele>277.97302</ele>
        <time>2022-09-30T14:22:21.000Z</time>
      </trkpt>
      <trkpt lat="45.83489" lon="4.71595">
        <ele>278.18835</ele>
        <time>2022-09-30T14:22:22.000Z</time>
      </trkpt>
      <trkpt lat="45.83492" lon="4.71592">
        <ele>278.34988</ele>
        <time>2022-09-30T14:22:23.000Z</time>
      </trkpt>
      <trkpt lat="45.83495" lon="4.71588">
        <ele>278.52618</ele>
        <time>2022-09-30T14:22:24.000Z</time>
      </trkpt>
      <trkpt lat="45.835" lon="4.71585">
        <ele>278.68683</ele>
        <time>2022-09-30T14:22:25.000Z</time>
      </trkpt>
      <trkpt lat="45.83504" lon="4.71581">
        <ele>278.82245</ele>
        <time>2022-09-30T14:22:26.000Z</time>
      </trkpt>
      <trkpt lat="45.83508" lon="4.71575">
        <ele>278.9902</ele>
        <time>2022-09-30T14:22:27.000Z</time>
      </trkpt>
      <trkpt lat="45.83513" lon="4.71572">
        <ele>279.15796</ele>
        <time>2022-09-30T14:22:28.000Z</time>
      </trkpt>
      <trkpt lat="45.83516" lon="4.7157">
        <ele>279.38104</ele>
        <time>2022-09-30T14:22:29.000Z</time>
      </trkpt>
      <trkpt lat="45.8352" lon="4.71566">
        <ele>279.66132</ele>
        <time>2022-09-30T14:22:30.000Z</time>
      </trkpt>
      <trkpt lat="45.83525" lon="4.71562">
        <ele>279.95795</ele>
        <time>2022-09-30T14:22:31.000Z</time>
      </trkpt>
      <trkpt lat="45.83529" lon="4.71559">
        <ele>280.22342</ele>
        <time>2022-09-30T14:22:32.000Z</time>
      </trkpt>
      <trkpt lat="45.83533" lon="4.71556">
        <ele>280.42175</ele>
        <time>2022-09-30T14:22:33.000Z</time>
      </trkpt>
      <trkpt lat="45.83538" lon="4.71551">
        <ele>280.71072</ele>
        <time>2022-09-30T14:22:34.000Z</time>
      </trkpt>
      <trkpt lat="45.83542" lon="4.71547">
        <ele>280.95139</ele>
        <time>2022-09-30T14:22:35.000Z</time>
      </trkpt>
      <trkpt lat="45.83547" lon="4.71544">
        <ele>281.1369</ele>
        <time>2022-09-30T14:22:36.000Z</time>
      </trkpt>
      <trkpt lat="45.83551" lon="4.71541">
        <ele>281.33795</ele>
        <time>2022-09-30T14:22:37.000Z</time>
      </trkpt>
      <trkpt lat="45.83555" lon="4.71538">
        <ele>281.47333</ele>
        <time>2022-09-30T14:22:38.000Z</time>
      </trkpt>
      <trkpt lat="45.83559" lon="4.71534">
        <ele>281.6535</ele>
        <time>2022-09-30T14:22:39.000Z</time>
      </trkpt>
      <trkpt lat="45.83563" lon="4.71529">
        <ele>281.88916</ele>
        <time>2022-09-30T14:22:40.000Z</time>
      </trkpt>
      <trkpt lat="45.83566" lon="4.71526">
        <ele>282.09027</ele>
        <time>2022-09-30T14:22:41.000Z</time>
      </trkpt>
      <trkpt lat="45.8357" lon="4.71524">
        <ele>282.27353</ele>
        <time>2022-09-30T14:22:42.000Z</time>
      </trkpt>
      <trkpt lat="45.83574" lon="4.7152">
        <ele>282.47409</ele>
        <time>2022-09-30T14:22:43.000Z</time>
      </trkpt>
      <trkpt lat="45.83578" lon="4.71517">
        <ele>282.68085</ele>
        <time>2022-09-30T14:22:44.000Z</time>
      </trkpt>
      <trkpt lat="45.83584" lon="4.71513">
        <ele>282.91562</ele>
        <time>2022-09-30T14:22:45.000Z</time>
      </trkpt>
      <trkpt lat="45.83581" lon="4.71507">
        <ele>283.17804</ele>
        <time>2022-09-30T14:22:46.000Z</time>
      </trkpt>
      <trkpt lat="45.83579" lon="4.71502">
        <ele>283.41748</ele>
        <time>2022-09-30T14:22:47.000Z</time>
      </trkpt>
      <trkpt lat="45.83575" lon="4.71502">
        <ele>283.65405</ele>
        <time>2022-09-30T14:22:48.000Z</time>
      </trkpt>
      <trkpt lat="45.83572" lon="4.71504">
        <ele>283.82278</ele>
        <time>2022-09-30T14:22:49.000Z</time>
      </trkpt>
      <trkpt lat="45.83568" lon="4.71506">
        <ele>283.96249</ele>
        <time>2022-09-30T14:22:50.000Z</time>
      </trkpt>
      <trkpt lat="45.83564" lon="4.71507">
        <ele>284.07074</ele>
        <time>2022-09-30T14:22:51.000Z</time>
      </trkpt>
      <trkpt lat="45.8356" lon="4.71507">
        <ele>284.12219</ele>
        <time>2022-09-30T14:22:52.000Z</time>
      </trkpt>
      <trkpt lat="45.83556" lon="4.71509">
        <ele>284.16599</ele>
        <time>2022-09-30T14:22:53.000Z</time>
      </trkpt>
      <trkpt lat="45.83552" lon="4.71509">
        <ele>284.13187</ele>
        <time>2022-09-30T14:22:54.000Z</time>
      </trkpt>
      <trkpt lat="45.83548" lon="4.7151">
        <ele>284.11465</ele>
        <time>2022-09-30T14:22:55.000Z</time>
      </trkpt>
      <trkpt lat="45.83545" lon="4.7151">
        <ele>284.10239</ele>
        <time>2022-09-30T14:22:56.000Z</time>
      </trkpt>
      <trkpt lat="45.83541" lon="4.7151">
        <ele>284.13565</ele>
        <time>2022-09-30T14:22:57.000Z</time>
      </trkpt>
      <trkpt lat="45.83538" lon="4.71509">
        <ele>284.20197</ele>
        <time>2022-09-30T14:22:58.000Z</time>
      </trkpt>
      <trkpt lat="45.83535" lon="4.71509">
        <ele>284.24561</ele>
        <time>2022-09-30T14:22:59.000Z</time>
      </trkpt>
      <trkpt lat="45.83531" lon="4.71508">
        <ele>284.3121</ele>
        <time>2022-09-30T14:23:00.000Z</time>
      </trkpt>
      <trkpt lat="45.83527" lon="4.71507">
        <ele>284.32751</ele>
        <time>2022-09-30T14:23:01.000Z</time>
      </trkpt>
      <trkpt lat="45.83524" lon="4.71506">
        <ele>284.31613</ele>
        <time>2022-09-30T14:23:02.000Z</time>
      </trkpt>
      <trkpt lat="45.83521" lon="4.71505">
        <ele>284.32626</ele>
        <time>2022-09-30T14:23:03.000Z</time>
      </trkpt>
      <trkpt lat="45.83518" lon="4.71505">
        <ele>284.32953</ele>
        <time>2022-09-30T14:23:04.000Z</time>
      </trkpt>
      <trkpt lat="45.83515" lon="4.71504">
        <ele>284.18616</ele>
        <time>2022-09-30T14:23:05.000Z</time>
      </trkpt>
      <trkpt lat="45.83511" lon="4.71505">
        <ele>283.95303</ele>
        <time>2022-09-30T14:23:06.000Z</time>
      </trkpt>
      <trkpt lat="45.83508" lon="4.71505">
        <ele>283.76068</ele>
        <time>2022-09-30T14:23:07.000Z</time>
      </trkpt>
      <trkpt lat="45.83505" lon="4.71505">
        <ele>283.52863</ele>
        <time>2022-09-30T14:23:08.000Z</time>
      </trkpt>
      <trkpt lat="45.83502" lon="4.71505">
        <ele>283.38797</ele>
        <time>2022-09-30T14:23:09.000Z</time>
      </trkpt>
      <trkpt lat="45.83499" lon="4.71505">
        <ele>283.31415</ele>
        <time>2022-09-30T14:23:10.000Z</time>
      </trkpt>
      <trkpt lat="45.83496" lon="4.71505">
        <ele>283.24564</ele>
        <time>2022-09-30T14:23:11.000Z</time>
      </trkpt>
      <trkpt lat="45.83492" lon="4.71505">
        <ele>283.18637</ele>
        <time>2022-09-30T14:23:12.000Z</time>
      </trkpt>
      <trkpt lat="45.83489" lon="4.71505">
        <ele>283.22028</ele>
        <time>2022-09-30T14:23:13.000Z</time>
      </trkpt>
      <trkpt lat="45.83486" lon="4.71505">
        <ele>283.21246</ele>
        <time>2022-09-30T14:23:14.000Z</time>
      </trkpt>
      <trkpt lat="45.83483" lon="4.71505">
        <ele>283.23492</ele>
        <time>2022-09-30T14:23:15.000Z</time>
      </trkpt>
      <trkpt lat="45.83481" lon="4.71504">
        <ele>283.34637</ele>
        <time>2022-09-30T14:23:16.000Z</time>
      </trkpt>
      <trkpt lat="45.83478" lon="4.71503">
        <ele>283.49084</ele>
        <time>2022-09-30T14:23:17.000Z</time>
      </trkpt>
      <trkpt lat="45.83475" lon="4.71501">
        <ele>283.54346</ele>
        <time>2022-09-30T14:23:18.000Z</time>
      </trkpt>
      <trkpt lat="45.83472" lon="4.715">
        <ele>283.55237</ele>
        <time>2022-09-30T14:23:19.000Z</time>
      </trkpt>
      <trkpt lat="45.83469" lon="4.71498">
        <ele>283.52341</ele>
        <time>2022-09-30T14:23:20.000Z</time>
      </trkpt>
      <trkpt lat="45.83466" lon="4.71497">
        <ele>283.53156</ele>
        <time>2022-09-30T14:23:21.000Z</time>
      </trkpt>
      <trkpt lat="45.83463" lon="4.71496">
        <ele>283.51154</ele>
        <time>2022-09-30T14:23:22.000Z</time>
      </trkpt>
      <trkpt lat="45.8346" lon="4.71495">
        <ele>283.51752</ele>
        <time>2022-09-30T14:23:23.000Z</time>
      </trkpt>
      <trkpt lat="45.83457" lon="4.71496">
        <ele>283.51547</ele>
        <time>2022-09-30T14:23:24.000Z</time>
      </trkpt>
      <trkpt lat="45.83456" lon="4.71498">
        <ele>283.56314</ele>
        <time>2022-09-30T14:23:25.000Z</time>
      </trkpt>
      <trkpt lat="45.83454" lon="4.71501">
        <ele>283.70636</ele>
        <time>2022-09-30T14:23:26.000Z</time>
      </trkpt>
      <trkpt lat="45.83454" lon="4.71506">
        <ele>283.81766</ele>
        <time>2022-09-30T14:23:27.000Z</time>
      </trkpt>
      <trkpt lat="45.83453" lon="4.7151">
        <ele>283.92328</ele>
        <time>2022-09-30T14:23:28.000Z</time>
      </trkpt>
      <trkpt lat="45.83453" lon="4.71514">
        <ele>284.06998</ele>
        <time>2022-09-30T14:23:29.000Z</time>
      </trkpt>
      <trkpt lat="45.83454" lon="4.71518">
        <ele>284.21628</ele>
        <time>2022-09-30T14:23:30.000Z</time>
      </trkpt>
      <trkpt lat="45.83456" lon="4.71521">
        <ele>284.35391</ele>
        <time>2022-09-30T14:23:31.000Z</time>
      </trkpt>
      <trkpt lat="45.83458" lon="4.71522">
        <ele>284.52002</ele>
        <time>2022-09-30T14:23:32.000Z</time>
      </trkpt>
      <trkpt lat="45.8346" lon="4.71523">
        <ele>284.56842</ele>
        <time>2022-09-30T14:23:33.000Z</time>
      </trkpt>
      <trkpt lat="45.83463" lon="4.71523">
        <ele>284.62939</ele>
        <time>2022-09-30T14:23:34.000Z</time>
      </trkpt>
      <trkpt lat="45.83466" lon="4.71523">
        <ele>284.66827</ele>
        <time>2022-09-30T14:23:35.000Z</time>
      </trkpt>
      <trkpt lat="45.83469" lon="4.71522">
        <ele>284.62799</ele>
        <time>2022-09-30T14:23:36.000Z</time>
      </trkpt>
      <trkpt lat="45.8347" lon="4.71521">
        <ele>284.50043</ele>
        <time>2022-09-30T14:23:37.000Z</time>
      </trkpt>
      <trkpt lat="45.83472" lon="4.71519">
        <ele>284.46527</ele>
        <time>2022-09-30T14:23:40.000Z</time>
      </trkpt>
    </trkseg>
  </trk>
</gpx>